<?xml version="1.0" encoding="UTF-8" standalone="no" ?>
<gpx xmlns="http://www.topografix.com/GPX/1/1" xmlns:xsi="http://www.w3.org/2001/XMLSchema-instance" xsi:schemaLocation="http://www.topografix.com/GPX/1/1 http://www.topografix.com/GPX/1/1/gpx.xsd" version="1.1" creator="VisuGPX - https://www.visugpx.com">
  <metadata>
    <name>UT53</name>
  </metadata>
  <trk>
    <name><![CDATA[UT53 Étape 1]]></name>
    <extensions>
      <line xmlns="http://www.topografix.com/GPX/gpx_style/0/2">
        <color>0000FF</color>
        <width>4</width>
      </line>
    </extensions>
    <trkseg>
      <trkpt lat="49.03194" lon="7.95014">
        <ele>156.80533581732</ele>
        <time>2021-03-30T11:59:21.000Z</time>
      </trkpt>
      <trkpt lat="49.03194" lon="7.95014">
        <ele>156.80533581732</ele>
        <time>2021-03-30T11:59:21.000Z</time>
      </trkpt>
      <trkpt lat="49.03222" lon="7.95035">
        <ele>157.05721025</ele>
        <time>2021-03-30T11:59:21.010Z</time>
      </trkpt>
      <trkpt lat="49.03257" lon="7.94907">
        <ele>157.83911437379</ele>
        <time>2021-03-30T11:59:21.051Z</time>
      </trkpt>
      <trkpt lat="49.03303" lon="7.9475">
        <ele>158.36853910818</ele>
        <time>2021-03-30T11:59:21.129Z</time>
      </trkpt>
      <trkpt lat="49.03334" lon="7.94655">
        <ele>159.14245364061</ele>
        <time>2021-03-30T11:59:21.231Z</time>
      </trkpt>
      <trkpt lat="49.03339" lon="7.94612">
        <ele>159.64582513478</ele>
        <time>2021-03-30T11:59:21.342Z</time>
      </trkpt>
      <trkpt lat="49.03339" lon="7.94563">
        <ele>159.5577119828</ele>
        <time>2021-03-30T11:59:21.464Z</time>
      </trkpt>
      <trkpt lat="49.03344" lon="7.94552">
        <ele>159.19869814463</ele>
        <time>2021-03-30T11:59:21.589Z</time>
      </trkpt>
      <trkpt lat="49.03363" lon="7.94524">
        <ele>158.72746555949</ele>
        <time>2021-03-30T11:59:21.723Z</time>
      </trkpt>
      <trkpt lat="49.03371" lon="7.94505">
        <ele>158.48775098823</ele>
        <time>2021-03-30T11:59:21.862Z</time>
      </trkpt>
      <trkpt lat="49.03375" lon="7.94487">
        <ele>158.58765816281</ele>
        <time>2021-03-30T11:59:22.005Z</time>
      </trkpt>
      <trkpt lat="49.03373" lon="7.94485">
        <ele>158.93387609668</ele>
        <time>2021-03-30T11:59:22.149Z</time>
      </trkpt>
      <trkpt lat="49.03367" lon="7.94475">
        <ele>159.5920083974</ele>
        <time>2021-03-30T11:59:22.296Z</time>
      </trkpt>
      <trkpt lat="49.03356" lon="7.94471">
        <ele>160.52193505584</ele>
        <time>2021-03-30T11:59:22.447Z</time>
      </trkpt>
      <trkpt lat="49.03352" lon="7.94414">
        <ele>161.96195439222</ele>
        <time>2021-03-30T11:59:22.610Z</time>
      </trkpt>
      <trkpt lat="49.03347" lon="7.94396">
        <ele>163.6152954259</ele>
        <time>2021-03-30T11:59:22.777Z</time>
      </trkpt>
      <trkpt lat="49.03337" lon="7.9436">
        <ele>165.43023750605</ele>
        <time>2021-03-30T11:59:22.953Z</time>
      </trkpt>
      <trkpt lat="49.03318" lon="7.94266">
        <ele>167.46703140212</ele>
        <time>2021-03-30T11:59:23.151Z</time>
      </trkpt>
      <trkpt lat="49.03302" lon="7.9415">
        <ele>169.96773117808</ele>
        <time>2021-03-30T11:59:23.375Z</time>
      </trkpt>
      <trkpt lat="49.03306" lon="7.94074">
        <ele>172.67430257212</ele>
        <time>2021-03-30T11:59:23.615Z</time>
      </trkpt>
      <trkpt lat="49.03298" lon="7.9402">
        <ele>175.5476963765</ele>
        <time>2021-03-30T11:59:23.868Z</time>
      </trkpt>
      <trkpt lat="49.03271" lon="7.93952">
        <ele>178.81252694141</ele>
        <time>2021-03-30T11:59:24.138Z</time>
      </trkpt>
      <trkpt lat="49.03237" lon="7.93713">
        <ele>182.61421802757</ele>
        <time>2021-03-30T11:59:24.462Z</time>
      </trkpt>
      <trkpt lat="49.03237" lon="7.93653">
        <ele>186.45095038908</ele>
        <time>2021-03-30T11:59:24.799Z</time>
      </trkpt>
      <trkpt lat="49.03261" lon="7.93531">
        <ele>190.51445983574</ele>
        <time>2021-03-30T11:59:25.164Z</time>
      </trkpt>
      <trkpt lat="49.03264" lon="7.93473">
        <ele>194.19556987162</ele>
        <time>2021-03-30T11:59:25.542Z</time>
      </trkpt>
      <trkpt lat="49.03265" lon="7.93438">
        <ele>197.73660498472</ele>
        <time>2021-03-30T11:59:25.927Z</time>
      </trkpt>
      <trkpt lat="49.03274" lon="7.93424">
        <ele>201.0407648293</ele>
        <time>2021-03-30T11:59:26.316Z</time>
      </trkpt>
      <trkpt lat="49.03296" lon="7.93334">
        <ele>204.46588696279</ele>
        <time>2021-03-30T11:59:26.727Z</time>
      </trkpt>
      <trkpt lat="49.033" lon="7.93329">
        <ele>207.52088556176</ele>
        <time>2021-03-30T11:59:27.139Z</time>
      </trkpt>
      <trkpt lat="49.03303" lon="7.93324">
        <ele>210.40311604302</ele>
        <time>2021-03-30T11:59:27.553Z</time>
      </trkpt>
      <trkpt lat="49.03314" lon="7.933">
        <ele>213.17845660843</ele>
        <time>2021-03-30T11:59:27.973Z</time>
      </trkpt>
      <trkpt lat="49.03316" lon="7.9328">
        <ele>215.85488666001</ele>
        <time>2021-03-30T11:59:28.398Z</time>
      </trkpt>
      <trkpt lat="49.03282" lon="7.93183">
        <ele>218.63644538023</ele>
        <time>2021-03-30T11:59:28.847Z</time>
      </trkpt>
      <trkpt lat="49.03275" lon="7.93154">
        <ele>221.45545034402</ele>
        <time>2021-03-30T11:59:29.302Z</time>
      </trkpt>
      <trkpt lat="49.03275" lon="7.92983">
        <ele>224.8866183119</ele>
        <time>2021-03-30T11:59:29.795Z</time>
      </trkpt>
      <trkpt lat="49.03278" lon="7.92961">
        <ele>227.91497347019</ele>
        <time>2021-03-30T11:59:30.293Z</time>
      </trkpt>
      <trkpt lat="49.03284" lon="7.92938">
        <ele>230.84845706949</ele>
        <time>2021-03-30T11:59:30.796Z</time>
      </trkpt>
      <trkpt lat="49.03301" lon="7.9289">
        <ele>233.89943951138</ele>
        <time>2021-03-30T11:59:31.311Z</time>
      </trkpt>
      <trkpt lat="49.03305" lon="7.92871">
        <ele>236.58518761844</ele>
        <time>2021-03-30T11:59:31.830Z</time>
      </trkpt>
      <trkpt lat="49.03296" lon="7.92841">
        <ele>239.07018782507</ele>
        <time>2021-03-30T11:59:32.357Z</time>
      </trkpt>
      <trkpt lat="49.03282" lon="7.92814">
        <ele>241.26440477358</ele>
        <time>2021-03-30T11:59:32.891Z</time>
      </trkpt>
      <trkpt lat="49.03298" lon="7.92685">
        <ele>243.30168466198</ele>
        <time>2021-03-30T11:59:33.454Z</time>
      </trkpt>
      <trkpt lat="49.03311" lon="7.92636">
        <ele>244.91782726137</ele>
        <time>2021-03-30T11:59:34.029Z</time>
      </trkpt>
      <trkpt lat="49.03319" lon="7.92623">
        <ele>246.19886868374</ele>
        <time>2021-03-30T11:59:34.607Z</time>
      </trkpt>
      <trkpt lat="49.03348" lon="7.92613">
        <ele>247.19231171819</ele>
        <time>2021-03-30T11:59:35.195Z</time>
      </trkpt>
      <trkpt lat="49.03382" lon="7.92593">
        <ele>247.89376381296</ele>
        <time>2021-03-30T11:59:35.796Z</time>
      </trkpt>
      <trkpt lat="49.03387" lon="7.92575">
        <ele>248.48331087818</ele>
        <time>2021-03-30T11:59:36.401Z</time>
      </trkpt>
      <trkpt lat="49.03384" lon="7.92555">
        <ele>249.01493136524</ele>
        <time>2021-03-30T11:59:37.010Z</time>
      </trkpt>
      <trkpt lat="49.0336" lon="7.92486">
        <ele>249.67879070413</ele>
        <time>2021-03-30T11:59:37.636Z</time>
      </trkpt>
      <trkpt lat="49.03354" lon="7.92457">
        <ele>250.14384045301</ele>
        <time>2021-03-30T11:59:38.269Z</time>
      </trkpt>
      <trkpt lat="49.03351" lon="7.9242">
        <ele>250.54822388505</ele>
        <time>2021-03-30T11:59:38.910Z</time>
      </trkpt>
      <trkpt lat="49.03303" lon="7.92325">
        <ele>251.25544485433</ele>
        <time>2021-03-30T11:59:39.578Z</time>
      </trkpt>
      <trkpt lat="49.03298" lon="7.92298">
        <ele>251.83488902523</ele>
        <time>2021-03-30T11:59:40.252Z</time>
      </trkpt>
      <trkpt lat="49.03304" lon="7.92265">
        <ele>252.46404310865</ele>
        <time>2021-03-30T11:59:40.933Z</time>
      </trkpt>
      <trkpt lat="49.03303" lon="7.92238">
        <ele>253.24277257258</ele>
        <time>2021-03-30T11:59:41.620Z</time>
      </trkpt>
      <trkpt lat="49.03294" lon="7.92224">
        <ele>254.25474446194</ele>
        <time>2021-03-30T11:59:42.311Z</time>
      </trkpt>
      <trkpt lat="49.03235" lon="7.92173">
        <ele>255.6023285536</ele>
        <time>2021-03-30T11:59:43.025Z</time>
      </trkpt>
      <trkpt lat="49.03227" lon="7.92158">
        <ele>256.96918779875</ele>
        <time>2021-03-30T11:59:43.743Z</time>
      </trkpt>
      <trkpt lat="49.03154" lon="7.91964">
        <ele>258.82061700094</ele>
        <time>2021-03-30T11:59:44.510Z</time>
      </trkpt>
      <trkpt lat="49.03146" lon="7.91909">
        <ele>260.78317809916</ele>
        <time>2021-03-30T11:59:45.290Z</time>
      </trkpt>
      <trkpt lat="49.0314" lon="7.91851">
        <ele>262.77963733273</ele>
        <time>2021-03-30T11:59:46.083Z</time>
      </trkpt>
      <trkpt lat="49.03133" lon="7.9182">
        <ele>265.01770968895</ele>
        <time>2021-03-30T11:59:46.883Z</time>
      </trkpt>
      <trkpt lat="49.03085" lon="7.91754">
        <ele>267.74114255569</ele>
        <time>2021-03-30T11:59:47.704Z</time>
      </trkpt>
      <trkpt lat="49.03062" lon="7.91736">
        <ele>270.66780331035</ele>
        <time>2021-03-30T11:59:48.534Z</time>
      </trkpt>
      <trkpt lat="49.03048" lon="7.91699">
        <ele>273.81359800461</ele>
        <time>2021-03-30T11:59:49.373Z</time>
      </trkpt>
      <trkpt lat="49.02988" lon="7.91536">
        <ele>277.26009778802</ele>
        <time>2021-03-30T11:59:50.253Z</time>
      </trkpt>
      <trkpt lat="49.02955" lon="7.9139">
        <ele>280.95956510808</ele>
        <time>2021-03-30T11:59:51.167Z</time>
      </trkpt>
      <trkpt lat="49.02908" lon="7.91127">
        <ele>285.01599745762</ele>
        <time>2021-03-30T11:59:52.141Z</time>
      </trkpt>
      <trkpt lat="49.02875" lon="7.90948">
        <ele>289.51938482914</ele>
        <time>2021-03-30T11:59:53.156Z</time>
      </trkpt>
      <trkpt lat="49.02854" lon="7.90817">
        <ele>294.37696679353</ele>
        <time>2021-03-30T11:59:54.200Z</time>
      </trkpt>
      <trkpt lat="49.02853" lon="7.90783">
        <ele>299.16061343153</ele>
        <time>2021-03-30T11:59:55.252Z</time>
      </trkpt>
      <trkpt lat="49.02837" lon="7.90423">
        <ele>304.96359415797</ele>
        <time>2021-03-30T11:59:56.383Z</time>
      </trkpt>
      <trkpt lat="49.02832" lon="7.90381">
        <ele>310.23361891904</ele>
        <time>2021-03-30T11:59:57.523Z</time>
      </trkpt>
      <trkpt lat="49.02851" lon="7.90374">
        <ele>315.44116220388</ele>
        <time>2021-03-30T11:59:58.670Z</time>
      </trkpt>
      <trkpt lat="49.02854" lon="7.90367">
        <ele>320.64465200991</ele>
        <time>2021-03-30T11:59:59.819Z</time>
      </trkpt>
      <trkpt lat="49.02851" lon="7.90347">
        <ele>325.94339566022</ele>
        <time>2021-03-30T12:00:00.972Z</time>
      </trkpt>
      <trkpt lat="49.02843" lon="7.90229">
        <ele>332.09831405322</ele>
        <time>2021-03-30T12:00:02.151Z</time>
      </trkpt>
      <trkpt lat="49.02835" lon="7.902">
        <ele>337.44648414376</ele>
        <time>2021-03-30T12:00:03.337Z</time>
      </trkpt>
      <trkpt lat="49.02804" lon="7.90143">
        <ele>342.73223806299</ele>
        <time>2021-03-30T12:00:04.539Z</time>
      </trkpt>
      <trkpt lat="49.02771" lon="7.9009">
        <ele>347.52259100207</ele>
        <time>2021-03-30T12:00:05.757Z</time>
      </trkpt>
      <trkpt lat="49.02834" lon="7.90047">
        <ele>352.52927208084</ele>
        <time>2021-03-30T12:00:06.998Z</time>
      </trkpt>
      <trkpt lat="49.02839" lon="7.9004">
        <ele>356.97435361503</ele>
        <time>2021-03-30T12:00:08.241Z</time>
      </trkpt>
      <trkpt lat="49.02827" lon="7.89941">
        <ele>361.39371027941</ele>
        <time>2021-03-30T12:00:09.506Z</time>
      </trkpt>
      <trkpt lat="49.02828" lon="7.8991">
        <ele>365.60379741474</ele>
        <time>2021-03-30T12:00:10.778Z</time>
      </trkpt>
      <trkpt lat="49.02832" lon="7.89893">
        <ele>369.75331516228</ele>
        <time>2021-03-30T12:00:12.054Z</time>
      </trkpt>
      <trkpt lat="49.0286" lon="7.89865">
        <ele>374.00676452367</ele>
        <time>2021-03-30T12:00:13.341Z</time>
      </trkpt>
      <trkpt lat="49.02878" lon="7.89845">
        <ele>378.37066351022</ele>
        <time>2021-03-30T12:00:14.636Z</time>
      </trkpt>
      <trkpt lat="49.02881" lon="7.89844">
        <ele>382.77443044119</ele>
        <time>2021-03-30T12:00:15.932Z</time>
      </trkpt>
      <trkpt lat="49.02888" lon="7.89815">
        <ele>387.52743525478</ele>
        <time>2021-03-30T12:00:17.234Z</time>
      </trkpt>
      <trkpt lat="49.02895" lon="7.89738">
        <ele>392.64300711285</ele>
        <time>2021-03-30T12:00:18.553Z</time>
      </trkpt>
      <trkpt lat="49.02935" lon="7.89562">
        <ele>398.27442914659</ele>
        <time>2021-03-30T12:00:19.913Z</time>
      </trkpt>
      <trkpt lat="49.02941" lon="7.89499">
        <ele>403.61780571691</ele>
        <time>2021-03-30T12:00:21.287Z</time>
      </trkpt>
      <trkpt lat="49.02942" lon="7.89426">
        <ele>409.1953834075</ele>
        <time>2021-03-30T12:00:22.677Z</time>
      </trkpt>
      <trkpt lat="49.02937" lon="7.89356">
        <ele>414.91168759406</ele>
        <time>2021-03-30T12:00:24.083Z</time>
      </trkpt>
      <trkpt lat="49.02918" lon="7.89237">
        <ele>421.18952525459</ele>
        <time>2021-03-30T12:00:25.516Z</time>
      </trkpt>
      <trkpt lat="49.02896" lon="7.89141">
        <ele>427.25541095971</ele>
        <time>2021-03-30T12:00:26.971Z</time>
      </trkpt>
      <trkpt lat="49.02896" lon="7.89141">
        <ele>432.7402341519</ele>
        <time>2021-03-30T12:00:28.426Z</time>
      </trkpt>
      <trkpt lat="49.02906" lon="7.89148">
        <ele>438.13745928362</ele>
        <time>2021-03-30T12:00:29.884Z</time>
      </trkpt>
      <trkpt lat="49.02916" lon="7.89164">
        <ele>443.26592547333</ele>
        <time>2021-03-30T12:00:31.347Z</time>
      </trkpt>
      <trkpt lat="49.02948" lon="7.89172">
        <ele>448.32887917265</ele>
        <time>2021-03-30T12:00:32.821Z</time>
      </trkpt>
      <trkpt lat="49.02945" lon="7.89148">
        <ele>453.33279080079</ele>
        <time>2021-03-30T12:00:34.300Z</time>
      </trkpt>
      <trkpt lat="49.02916" lon="7.89074">
        <ele>458.47219632683</ele>
        <time>2021-03-30T12:00:35.798Z</time>
      </trkpt>
      <trkpt lat="49.02912" lon="7.89045">
        <ele>463.03106579683</ele>
        <time>2021-03-30T12:00:37.303Z</time>
      </trkpt>
      <trkpt lat="49.0289" lon="7.88997">
        <ele>467.12270443427</ele>
        <time>2021-03-30T12:00:38.820Z</time>
      </trkpt>
      <trkpt lat="49.02892" lon="7.88985">
        <ele>470.84838105481</ele>
        <time>2021-03-30T12:00:40.340Z</time>
      </trkpt>
      <trkpt lat="49.02892" lon="7.88969">
        <ele>474.27416724464</ele>
        <time>2021-03-30T12:00:41.864Z</time>
      </trkpt>
      <trkpt lat="49.029" lon="7.88966">
        <ele>477.24965309642</ele>
        <time>2021-03-30T12:00:43.390Z</time>
      </trkpt>
      <trkpt lat="49.0291" lon="7.88973">
        <ele>479.77069398822</ele>
        <time>2021-03-30T12:00:44.920Z</time>
      </trkpt>
      <trkpt lat="49.02922" lon="7.88978">
        <ele>481.9933250558</ele>
        <time>2021-03-30T12:00:46.454Z</time>
      </trkpt>
      <trkpt lat="49.02933" lon="7.88978">
        <ele>483.91915702299</ele>
        <time>2021-03-30T12:00:47.992Z</time>
      </trkpt>
      <trkpt lat="49.02943" lon="7.88983">
        <ele>485.51184228997</ele>
        <time>2021-03-30T12:00:49.534Z</time>
      </trkpt>
      <trkpt lat="49.02953" lon="7.88997">
        <ele>486.82800378681</ele>
        <time>2021-03-30T12:00:51.080Z</time>
      </trkpt>
      <trkpt lat="49.02962" lon="7.89007">
        <ele>488.01540925622</ele>
        <time>2021-03-30T12:00:52.630Z</time>
      </trkpt>
      <trkpt lat="49.02967" lon="7.88998">
        <ele>489.25151711663</ele>
        <time>2021-03-30T12:00:54.182Z</time>
      </trkpt>
      <trkpt lat="49.02963" lon="7.88985">
        <ele>490.54407512537</ele>
        <time>2021-03-30T12:00:55.737Z</time>
      </trkpt>
      <trkpt lat="49.02958" lon="7.88967">
        <ele>491.83299678555</ele>
        <time>2021-03-30T12:00:57.297Z</time>
      </trkpt>
      <trkpt lat="49.02949" lon="7.88936">
        <ele>493.14474356134</ele>
        <time>2021-03-30T12:00:58.864Z</time>
      </trkpt>
      <trkpt lat="49.02936" lon="7.88912">
        <ele>494.48893060256</ele>
        <time>2021-03-30T12:01:00.438Z</time>
      </trkpt>
      <trkpt lat="49.02927" lon="7.88893">
        <ele>495.90498801078</ele>
        <time>2021-03-30T12:01:02.017Z</time>
      </trkpt>
      <trkpt lat="49.02911" lon="7.88872">
        <ele>497.45150824802</ele>
        <time>2021-03-30T12:01:03.603Z</time>
      </trkpt>
      <trkpt lat="49.02898" lon="7.88847">
        <ele>499.084207328</ele>
        <time>2021-03-30T12:01:05.196Z</time>
      </trkpt>
      <trkpt lat="49.02896" lon="7.88824">
        <ele>500.62024858699</ele>
        <time>2021-03-30T12:01:06.794Z</time>
      </trkpt>
      <trkpt lat="49.02899" lon="7.88798">
        <ele>502.10642489258</ele>
        <time>2021-03-30T12:01:08.398Z</time>
      </trkpt>
      <trkpt lat="49.02901" lon="7.88768">
        <ele>503.58105349933</ele>
        <time>2021-03-30T12:01:10.009Z</time>
      </trkpt>
      <trkpt lat="49.02883" lon="7.88738">
        <ele>505.10603487283</ele>
        <time>2021-03-30T12:01:11.629Z</time>
      </trkpt>
      <trkpt lat="49.02872" lon="7.88714">
        <ele>506.44342669002</ele>
        <time>2021-03-30T12:01:13.255Z</time>
      </trkpt>
      <trkpt lat="49.02847" lon="7.88684">
        <ele>507.64839756944</ele>
        <time>2021-03-30T12:01:14.892Z</time>
      </trkpt>
      <trkpt lat="49.02817" lon="7.88634">
        <ele>508.64392043559</ele>
        <time>2021-03-30T12:01:16.544Z</time>
      </trkpt>
      <trkpt lat="49.02798" lon="7.88598">
        <ele>509.26443056771</ele>
        <time>2021-03-30T12:01:18.206Z</time>
      </trkpt>
      <trkpt lat="49.0278" lon="7.88557">
        <ele>509.36578063934</ele>
        <time>2021-03-30T12:01:19.878Z</time>
      </trkpt>
      <trkpt lat="49.0277" lon="7.88537">
        <ele>508.9386364169</ele>
        <time>2021-03-30T12:01:21.556Z</time>
      </trkpt>
      <trkpt lat="49.0277" lon="7.88517">
        <ele>507.98313445836</ele>
        <time>2021-03-30T12:01:23.239Z</time>
      </trkpt>
      <trkpt lat="49.02776" lon="7.88489">
        <ele>506.43138925929</ele>
        <time>2021-03-30T12:01:24.928Z</time>
      </trkpt>
      <trkpt lat="49.0278" lon="7.88451">
        <ele>504.3624565589</ele>
        <time>2021-03-30T12:01:26.625Z</time>
      </trkpt>
      <trkpt lat="49.0278" lon="7.88412">
        <ele>501.87480851722</ele>
        <time>2021-03-30T12:01:28.331Z</time>
      </trkpt>
      <trkpt lat="49.0278" lon="7.88411">
        <ele>499.42544531664</ele>
        <time>2021-03-30T12:01:30.037Z</time>
      </trkpt>
      <trkpt lat="49.02774" lon="7.88375">
        <ele>496.46036819442</ele>
        <time>2021-03-30T12:01:31.751Z</time>
      </trkpt>
      <trkpt lat="49.02764" lon="7.88351">
        <ele>493.43517324287</ele>
        <time>2021-03-30T12:01:33.471Z</time>
      </trkpt>
      <trkpt lat="49.02754" lon="7.88341">
        <ele>490.2977634389</ele>
        <time>2021-03-30T12:01:35.196Z</time>
      </trkpt>
      <trkpt lat="49.02732" lon="7.88335">
        <ele>487.06918641997</ele>
        <time>2021-03-30T12:01:36.928Z</time>
      </trkpt>
      <trkpt lat="49.0271" lon="7.88338">
        <ele>483.87611505804</ele>
        <time>2021-03-30T12:01:38.667Z</time>
      </trkpt>
      <trkpt lat="49.02692" lon="7.88346">
        <ele>480.70598437017</ele>
        <time>2021-03-30T12:01:40.412Z</time>
      </trkpt>
      <trkpt lat="49.02678" lon="7.88357">
        <ele>477.60617191062</ele>
        <time>2021-03-30T12:01:42.163Z</time>
      </trkpt>
      <trkpt lat="49.02662" lon="7.88386">
        <ele>474.66063269747</ele>
        <time>2021-03-30T12:01:43.922Z</time>
      </trkpt>
      <trkpt lat="49.02648" lon="7.88417">
        <ele>471.76069479178</ele>
        <time>2021-03-30T12:01:45.689Z</time>
      </trkpt>
      <trkpt lat="49.02633" lon="7.88449">
        <ele>468.70546402167</ele>
        <time>2021-03-30T12:01:47.465Z</time>
      </trkpt>
      <trkpt lat="49.02616" lon="7.88478">
        <ele>465.46418159821</ele>
        <time>2021-03-30T12:01:49.249Z</time>
      </trkpt>
      <trkpt lat="49.026" lon="7.88495">
        <ele>462.17675838622</ele>
        <time>2021-03-30T12:01:51.040Z</time>
      </trkpt>
      <trkpt lat="49.02584" lon="7.8851">
        <ele>458.90341888476</ele>
        <time>2021-03-30T12:01:52.837Z</time>
      </trkpt>
      <trkpt lat="49.0256" lon="7.88525">
        <ele>455.55976130905</ele>
        <time>2021-03-30T12:01:54.643Z</time>
      </trkpt>
      <trkpt lat="49.02544" lon="7.88529">
        <ele>452.37500206323</ele>
        <time>2021-03-30T12:01:56.454Z</time>
      </trkpt>
      <trkpt lat="49.02526" lon="7.88533">
        <ele>449.3342384194</ele>
        <time>2021-03-30T12:01:58.271Z</time>
      </trkpt>
      <trkpt lat="49.02509" lon="7.88533">
        <ele>446.38174441255</ele>
        <time>2021-03-30T12:02:00.094Z</time>
      </trkpt>
      <trkpt lat="49.02501" lon="7.88516">
        <ele>443.39097539649</ele>
        <time>2021-03-30T12:02:01.922Z</time>
      </trkpt>
      <trkpt lat="49.02498" lon="7.88503">
        <ele>440.55476802225</ele>
        <time>2021-03-30T12:02:03.753Z</time>
      </trkpt>
      <trkpt lat="49.025" lon="7.88486">
        <ele>437.79855554057</ele>
        <time>2021-03-30T12:02:05.587Z</time>
      </trkpt>
      <trkpt lat="49.02508" lon="7.88457">
        <ele>435.05064976317</ele>
        <time>2021-03-30T12:02:07.428Z</time>
      </trkpt>
      <trkpt lat="49.02499" lon="7.88462">
        <ele>432.51696406072</ele>
        <time>2021-03-30T12:02:09.272Z</time>
      </trkpt>
      <trkpt lat="49.02485" lon="7.88465">
        <ele>430.02474011245</ele>
        <time>2021-03-30T12:02:11.121Z</time>
      </trkpt>
      <trkpt lat="49.02471" lon="7.88463">
        <ele>427.60525096469</ele>
        <time>2021-03-30T12:02:12.975Z</time>
      </trkpt>
      <trkpt lat="49.02461" lon="7.88458">
        <ele>425.1664470051</ele>
        <time>2021-03-30T12:02:14.833Z</time>
      </trkpt>
      <trkpt lat="49.02443" lon="7.88432">
        <ele>422.62941225195</ele>
        <time>2021-03-30T12:02:16.699Z</time>
      </trkpt>
      <trkpt lat="49.0243" lon="7.88392">
        <ele>419.89764499962</ele>
        <time>2021-03-30T12:02:18.575Z</time>
      </trkpt>
      <trkpt lat="49.02416" lon="7.88346">
        <ele>417.18187844893</ele>
        <time>2021-03-30T12:02:20.462Z</time>
      </trkpt>
      <trkpt lat="49.0241" lon="7.88319">
        <ele>414.63553875531</ele>
        <time>2021-03-30T12:02:22.355Z</time>
      </trkpt>
      <trkpt lat="49.0239" lon="7.88247">
        <ele>412.08213790028</ele>
        <time>2021-03-30T12:02:24.265Z</time>
      </trkpt>
      <trkpt lat="49.02379" lon="7.88201">
        <ele>409.81678154795</ele>
        <time>2021-03-30T12:02:26.186Z</time>
      </trkpt>
      <trkpt lat="49.02367" lon="7.88135">
        <ele>407.70371557576</ele>
        <time>2021-03-30T12:02:28.122Z</time>
      </trkpt>
      <trkpt lat="49.02362" lon="7.88084">
        <ele>405.5789155919</ele>
        <time>2021-03-30T12:02:30.069Z</time>
      </trkpt>
      <trkpt lat="49.0236" lon="7.88036">
        <ele>403.62797602891</ele>
        <time>2021-03-30T12:02:32.027Z</time>
      </trkpt>
      <trkpt lat="49.02355" lon="7.87946">
        <ele>401.64023700607</ele>
        <time>2021-03-30T12:02:34.005Z</time>
      </trkpt>
      <trkpt lat="49.02357" lon="7.87898">
        <ele>399.83011873314</ele>
        <time>2021-03-30T12:02:35.993Z</time>
      </trkpt>
      <trkpt lat="49.02357" lon="7.87861">
        <ele>397.97763447703</ele>
        <time>2021-03-30T12:02:37.989Z</time>
      </trkpt>
      <trkpt lat="49.0235" lon="7.87822">
        <ele>396.33523417386</ele>
        <time>2021-03-30T12:02:39.994Z</time>
      </trkpt>
      <trkpt lat="49.02344" lon="7.8778">
        <ele>394.66666710566</ele>
        <time>2021-03-30T12:02:42.009Z</time>
      </trkpt>
      <trkpt lat="49.02337" lon="7.87755">
        <ele>392.99626827979</ele>
        <time>2021-03-30T12:02:44.029Z</time>
      </trkpt>
      <trkpt lat="49.02327" lon="7.87729">
        <ele>391.43178593388</ele>
        <time>2021-03-30T12:02:46.056Z</time>
      </trkpt>
      <trkpt lat="49.02283" lon="7.87646">
        <ele>389.63310186036</ele>
        <time>2021-03-30T12:02:48.107Z</time>
      </trkpt>
      <trkpt lat="49.02276" lon="7.87634">
        <ele>388.02195205125</ele>
        <time>2021-03-30T12:02:50.161Z</time>
      </trkpt>
      <trkpt lat="49.02264" lon="7.87617">
        <ele>386.40288894448</ele>
        <time>2021-03-30T12:02:52.220Z</time>
      </trkpt>
      <trkpt lat="49.02259" lon="7.87592">
        <ele>384.70728507258</ele>
        <time>2021-03-30T12:02:54.285Z</time>
      </trkpt>
      <trkpt lat="49.02249" lon="7.87581">
        <ele>383.19077954076</ele>
        <time>2021-03-30T12:02:56.354Z</time>
      </trkpt>
      <trkpt lat="49.02243" lon="7.87557">
        <ele>381.49211701062</ele>
        <time>2021-03-30T12:02:58.429Z</time>
      </trkpt>
      <trkpt lat="49.02241" lon="7.87524">
        <ele>379.62979159498</ele>
        <time>2021-03-30T12:03:00.511Z</time>
      </trkpt>
      <trkpt lat="49.02241" lon="7.8748">
        <ele>377.65738640474</ele>
        <time>2021-03-30T12:03:02.603Z</time>
      </trkpt>
      <trkpt lat="49.02227" lon="7.87404">
        <ele>376.13331388302</ele>
        <time>2021-03-30T12:03:04.712Z</time>
      </trkpt>
      <trkpt lat="49.02227" lon="7.87378">
        <ele>374.8127762387</ele>
        <time>2021-03-30T12:03:06.827Z</time>
      </trkpt>
      <trkpt lat="49.02234" lon="7.87347">
        <ele>373.48058078747</ele>
        <time>2021-03-30T12:03:08.949Z</time>
      </trkpt>
      <trkpt lat="49.02258" lon="7.87274">
        <ele>372.30658444287</ele>
        <time>2021-03-30T12:03:11.089Z</time>
      </trkpt>
      <trkpt lat="49.02281" lon="7.87209">
        <ele>371.42122277584</ele>
        <time>2021-03-30T12:03:13.245Z</time>
      </trkpt>
      <trkpt lat="49.02294" lon="7.87158">
        <ele>370.51359093089</ele>
        <time>2021-03-30T12:03:15.413Z</time>
      </trkpt>
      <trkpt lat="49.02295" lon="7.87102">
        <ele>369.63170905877</ele>
        <time>2021-03-30T12:03:17.594Z</time>
      </trkpt>
      <trkpt lat="49.02293" lon="7.87044">
        <ele>368.88300603429</ele>
        <time>2021-03-30T12:03:19.787Z</time>
      </trkpt>
      <trkpt lat="49.02287" lon="7.87">
        <ele>368.47106054925</ele>
        <time>2021-03-30T12:03:21.990Z</time>
      </trkpt>
      <trkpt lat="49.02274" lon="7.86968">
        <ele>368.12301719619</ele>
        <time>2021-03-30T12:03:24.201Z</time>
      </trkpt>
      <trkpt lat="49.0226" lon="7.86935">
        <ele>367.74780812679</ele>
        <time>2021-03-30T12:03:26.421Z</time>
      </trkpt>
      <trkpt lat="49.02242" lon="7.86903">
        <ele>367.31247766702</ele>
        <time>2021-03-30T12:03:28.650Z</time>
      </trkpt>
      <trkpt lat="49.02222" lon="7.86874">
        <ele>366.78676770439</ele>
        <time>2021-03-30T12:03:30.888Z</time>
      </trkpt>
      <trkpt lat="49.02203" lon="7.86854">
        <ele>366.31273068622</ele>
        <time>2021-03-30T12:03:33.134Z</time>
      </trkpt>
      <trkpt lat="49.0218" lon="7.8684">
        <ele>365.84872972091</ele>
        <time>2021-03-30T12:03:35.388Z</time>
      </trkpt>
      <trkpt lat="49.02162" lon="7.86829">
        <ele>365.3435238156</ele>
        <time>2021-03-30T12:03:37.649Z</time>
      </trkpt>
      <trkpt lat="49.02128" lon="7.86804">
        <ele>364.72007303183</ele>
        <time>2021-03-30T12:03:39.922Z</time>
      </trkpt>
      <trkpt lat="49.02102" lon="7.86791">
        <ele>364.23375947141</ele>
        <time>2021-03-30T12:03:42.204Z</time>
      </trkpt>
      <trkpt lat="49.0209" lon="7.86779">
        <ele>363.94205226477</ele>
        <time>2021-03-30T12:03:44.491Z</time>
      </trkpt>
      <trkpt lat="49.02083" lon="7.86765">
        <ele>363.7291689791</ele>
        <time>2021-03-30T12:03:46.782Z</time>
      </trkpt>
      <trkpt lat="49.02078" lon="7.86742">
        <ele>363.63261880837</ele>
        <time>2021-03-30T12:03:49.079Z</time>
      </trkpt>
      <trkpt lat="49.02079" lon="7.86722">
        <ele>363.55434119132</ele>
        <time>2021-03-30T12:03:51.380Z</time>
      </trkpt>
      <trkpt lat="49.02101" lon="7.86661">
        <ele>363.57362822659</ele>
        <time>2021-03-30T12:03:53.696Z</time>
      </trkpt>
      <trkpt lat="49.02118" lon="7.86619">
        <ele>363.61441639912</ele>
        <time>2021-03-30T12:03:56.023Z</time>
      </trkpt>
      <trkpt lat="49.02132" lon="7.86575">
        <ele>363.61024644206</ele>
        <time>2021-03-30T12:03:58.361Z</time>
      </trkpt>
      <trkpt lat="49.02145" lon="7.86543">
        <ele>363.38518480886</ele>
        <time>2021-03-30T12:04:00.707Z</time>
      </trkpt>
      <trkpt lat="49.0216" lon="7.86513">
        <ele>363.01302615777</ele>
        <time>2021-03-30T12:04:03.061Z</time>
      </trkpt>
      <trkpt lat="49.0217" lon="7.86486">
        <ele>362.48724941213</ele>
        <time>2021-03-30T12:04:05.422Z</time>
      </trkpt>
      <trkpt lat="49.02172" lon="7.8646">
        <ele>361.89304923694</ele>
        <time>2021-03-30T12:04:07.789Z</time>
      </trkpt>
      <trkpt lat="49.02169" lon="7.8642">
        <ele>361.1963236974</ele>
        <time>2021-03-30T12:04:10.165Z</time>
      </trkpt>
      <trkpt lat="49.02169" lon="7.86398">
        <ele>360.29502117851</ele>
        <time>2021-03-30T12:04:12.545Z</time>
      </trkpt>
      <trkpt lat="49.02179" lon="7.86394">
        <ele>359.14765300571</ele>
        <time>2021-03-30T12:04:14.929Z</time>
      </trkpt>
      <trkpt lat="49.02164" lon="7.86309">
        <ele>357.7572897226</ele>
        <time>2021-03-30T12:04:17.332Z</time>
      </trkpt>
      <trkpt lat="49.02152" lon="7.86264">
        <ele>356.37284731083</ele>
        <time>2021-03-30T12:04:19.746Z</time>
      </trkpt>
      <trkpt lat="49.02144" lon="7.86243">
        <ele>355.02816347354</ele>
        <time>2021-03-30T12:04:22.165Z</time>
      </trkpt>
      <trkpt lat="49.02102" lon="7.86164">
        <ele>353.42710874899</ele>
        <time>2021-03-30T12:04:24.606Z</time>
      </trkpt>
      <trkpt lat="49.02071" lon="7.86097">
        <ele>352.08291678441</ele>
        <time>2021-03-30T12:04:27.065Z</time>
      </trkpt>
      <trkpt lat="49.0204" lon="7.8604">
        <ele>350.76458770376</ele>
        <time>2021-03-30T12:04:29.540Z</time>
      </trkpt>
      <trkpt lat="49.02036" lon="7.86018">
        <ele>349.83294545547</ele>
        <time>2021-03-30T12:04:32.020Z</time>
      </trkpt>
      <trkpt lat="49.02033" lon="7.85988">
        <ele>349.1925750348</ele>
        <time>2021-03-30T12:04:34.507Z</time>
      </trkpt>
      <trkpt lat="49.02025" lon="7.85965">
        <ele>348.8484607134</ele>
        <time>2021-03-30T12:04:37.000Z</time>
      </trkpt>
      <trkpt lat="49.02007" lon="7.85932">
        <ele>348.73969120755</ele>
        <time>2021-03-30T12:04:39.502Z</time>
      </trkpt>
      <trkpt lat="49.02" lon="7.85912">
        <ele>348.87425051035</ele>
        <time>2021-03-30T12:04:42.009Z</time>
      </trkpt>
      <trkpt lat="49.01995" lon="7.8588">
        <ele>349.24333770602</ele>
        <time>2021-03-30T12:04:44.523Z</time>
      </trkpt>
      <trkpt lat="49.01997" lon="7.85827">
        <ele>349.89783141449</ele>
        <time>2021-03-30T12:04:47.049Z</time>
      </trkpt>
      <trkpt lat="49.01998" lon="7.85791">
        <ele>350.77891154255</ele>
        <time>2021-03-30T12:04:49.583Z</time>
      </trkpt>
      <trkpt lat="49.01999" lon="7.85721">
        <ele>351.7974600215</ele>
        <time>2021-03-30T12:04:52.132Z</time>
      </trkpt>
      <trkpt lat="49.01998" lon="7.85698">
        <ele>352.76279879615</ele>
        <time>2021-03-30T12:04:54.686Z</time>
      </trkpt>
      <trkpt lat="49.01995" lon="7.85673">
        <ele>353.78030801873</ele>
        <time>2021-03-30T12:04:57.246Z</time>
      </trkpt>
      <trkpt lat="49.01991" lon="7.85651">
        <ele>354.8386731359</ele>
        <time>2021-03-30T12:04:59.811Z</time>
      </trkpt>
      <trkpt lat="49.01995" lon="7.85639">
        <ele>355.87558051982</ele>
        <time>2021-03-30T12:05:02.379Z</time>
      </trkpt>
      <trkpt lat="49.01996" lon="7.8563">
        <ele>356.85276627846</ele>
        <time>2021-03-30T12:05:04.949Z</time>
      </trkpt>
      <trkpt lat="49.01986" lon="7.85598">
        <ele>357.7787375761</ele>
        <time>2021-03-30T12:05:07.527Z</time>
      </trkpt>
      <trkpt lat="49.01972" lon="7.85551">
        <ele>358.64634787086</ele>
        <time>2021-03-30T12:05:10.116Z</time>
      </trkpt>
      <trkpt lat="49.01966" lon="7.85533">
        <ele>359.34531602141</ele>
        <time>2021-03-30T12:05:12.709Z</time>
      </trkpt>
      <trkpt lat="49.01957" lon="7.85506">
        <ele>359.88449250716</ele>
        <time>2021-03-30T12:05:15.309Z</time>
      </trkpt>
      <trkpt lat="49.01942" lon="7.85455">
        <ele>360.19314959599</ele>
        <time>2021-03-30T12:05:17.921Z</time>
      </trkpt>
      <trkpt lat="49.01923" lon="7.85392">
        <ele>360.4164454821</ele>
        <time>2021-03-30T12:05:20.549Z</time>
      </trkpt>
      <trkpt lat="49.01892" lon="7.85293">
        <ele>360.65254730543</ele>
        <time>2021-03-30T12:05:23.201Z</time>
      </trkpt>
      <trkpt lat="49.0189" lon="7.85286">
        <ele>360.6957497704</ele>
        <time>2021-03-30T12:05:25.854Z</time>
      </trkpt>
      <trkpt lat="49.01872" lon="7.85227">
        <ele>360.70409117451</ele>
        <time>2021-03-30T12:05:28.522Z</time>
      </trkpt>
      <trkpt lat="49.0187" lon="7.85218">
        <ele>360.51773863205</ele>
        <time>2021-03-30T12:05:31.192Z</time>
      </trkpt>
      <trkpt lat="49.01862" lon="7.85191">
        <ele>360.20527338224</ele>
        <time>2021-03-30T12:05:33.868Z</time>
      </trkpt>
      <trkpt lat="49.01852" lon="7.85158">
        <ele>359.75007429791</ele>
        <time>2021-03-30T12:05:36.552Z</time>
      </trkpt>
      <trkpt lat="49.01849" lon="7.85148">
        <ele>359.23475573075</ele>
        <time>2021-03-30T12:05:39.238Z</time>
      </trkpt>
      <trkpt lat="49.0184" lon="7.85123">
        <ele>358.65074813148</ele>
        <time>2021-03-30T12:05:41.931Z</time>
      </trkpt>
      <trkpt lat="49.01834" lon="7.85106">
        <ele>358.02441085842</ele>
        <time>2021-03-30T12:05:44.628Z</time>
      </trkpt>
      <trkpt lat="49.01814" lon="7.85062">
        <ele>357.3106710702</ele>
        <time>2021-03-30T12:05:47.337Z</time>
      </trkpt>
      <trkpt lat="49.01791" lon="7.85016">
        <ele>356.66506114217</ele>
        <time>2021-03-30T12:05:50.058Z</time>
      </trkpt>
      <trkpt lat="49.01767" lon="7.84968">
        <ele>356.11918363334</ele>
        <time>2021-03-30T12:05:52.793Z</time>
      </trkpt>
      <trkpt lat="49.0178" lon="7.84963">
        <ele>355.83778768814</ele>
        <time>2021-03-30T12:05:55.532Z</time>
      </trkpt>
      <trkpt lat="49.01794" lon="7.8496">
        <ele>355.67107297035</ele>
        <time>2021-03-30T12:05:58.276Z</time>
      </trkpt>
      <trkpt lat="49.01811" lon="7.84954">
        <ele>355.68161241086</ele>
        <time>2021-03-30T12:06:01.026Z</time>
      </trkpt>
      <trkpt lat="49.01821" lon="7.8495">
        <ele>355.78550369234</ele>
        <time>2021-03-30T12:06:03.779Z</time>
      </trkpt>
      <trkpt lat="49.01827" lon="7.84949">
        <ele>356.00293835071</ele>
        <time>2021-03-30T12:06:06.534Z</time>
      </trkpt>
      <trkpt lat="49.01838" lon="7.84945">
        <ele>356.36257551825</ele>
        <time>2021-03-30T12:06:09.293Z</time>
      </trkpt>
      <trkpt lat="49.01851" lon="7.84937">
        <ele>356.87339674563</ele>
        <time>2021-03-30T12:06:12.056Z</time>
      </trkpt>
      <trkpt lat="49.01859" lon="7.84931">
        <ele>357.45634510184</ele>
        <time>2021-03-30T12:06:14.822Z</time>
      </trkpt>
      <trkpt lat="49.01862" lon="7.8493">
        <ele>358.13088955992</ele>
        <time>2021-03-30T12:06:17.589Z</time>
      </trkpt>
      <trkpt lat="49.01879" lon="7.84918">
        <ele>358.92832594317</ele>
        <time>2021-03-30T12:06:20.363Z</time>
      </trkpt>
      <trkpt lat="49.01892" lon="7.84905">
        <ele>359.82153230215</ele>
        <time>2021-03-30T12:06:23.142Z</time>
      </trkpt>
      <trkpt lat="49.01907" lon="7.84887">
        <ele>360.75638603258</ele>
        <time>2021-03-30T12:06:25.927Z</time>
      </trkpt>
      <trkpt lat="49.01918" lon="7.84874">
        <ele>361.74245006775</ele>
        <time>2021-03-30T12:06:28.717Z</time>
      </trkpt>
      <trkpt lat="49.01929" lon="7.84867">
        <ele>362.78462454853</ele>
        <time>2021-03-30T12:06:31.511Z</time>
      </trkpt>
      <trkpt lat="49.01934" lon="7.84866">
        <ele>363.84409254966</ele>
        <time>2021-03-30T12:06:34.307Z</time>
      </trkpt>
      <trkpt lat="49.01938" lon="7.84866">
        <ele>364.92106315153</ele>
        <time>2021-03-30T12:06:37.104Z</time>
      </trkpt>
      <trkpt lat="49.01941" lon="7.84868">
        <ele>365.99390803306</ele>
        <time>2021-03-30T12:06:39.902Z</time>
      </trkpt>
      <trkpt lat="49.01959" lon="7.84821">
        <ele>367.03965091551</ele>
        <time>2021-03-30T12:06:42.712Z</time>
      </trkpt>
      <trkpt lat="49.0201" lon="7.84756">
        <ele>367.98487840457</ele>
        <time>2021-03-30T12:06:45.544Z</time>
      </trkpt>
      <trkpt lat="49.02058" lon="7.84694">
        <ele>368.73185431988</ele>
        <time>2021-03-30T12:06:48.397Z</time>
      </trkpt>
      <trkpt lat="49.02127" lon="7.84598">
        <ele>369.4395950973</ele>
        <time>2021-03-30T12:06:51.281Z</time>
      </trkpt>
      <trkpt lat="49.02204" lon="7.84469">
        <ele>370.78006588458</ele>
        <time>2021-03-30T12:06:54.204Z</time>
      </trkpt>
      <trkpt lat="49.02204" lon="7.84469">
        <ele>371.33260358319</ele>
        <time>2021-03-30T12:06:57.127Z</time>
      </trkpt>
      <trkpt lat="49.02241" lon="7.84402">
        <ele>371.94132135831</ele>
        <time>2021-03-30T12:07:00.069Z</time>
      </trkpt>
      <trkpt lat="49.02288" lon="7.84337">
        <ele>371.90145650204</ele>
        <time>2021-03-30T12:07:03.032Z</time>
      </trkpt>
      <trkpt lat="49.02322" lon="7.84246">
        <ele>371.40441054796</ele>
        <time>2021-03-30T12:07:06.018Z</time>
      </trkpt>
      <trkpt lat="49.02367" lon="7.84147">
        <ele>370.64842469748</ele>
        <time>2021-03-30T12:07:09.030Z</time>
      </trkpt>
      <trkpt lat="49.02367" lon="7.84147">
        <ele>369.70947784736</ele>
        <time>2021-03-30T12:07:12.042Z</time>
      </trkpt>
      <trkpt lat="49.02395" lon="7.84099">
        <ele>368.14200167784</ele>
        <time>2021-03-30T12:07:15.069Z</time>
      </trkpt>
      <trkpt lat="49.02417" lon="7.84073">
        <ele>366.43411481684</ele>
        <time>2021-03-30T12:07:18.105Z</time>
      </trkpt>
      <trkpt lat="49.0247" lon="7.84046">
        <ele>364.36656127251</ele>
        <time>2021-03-30T12:07:21.159Z</time>
      </trkpt>
      <trkpt lat="49.02491" lon="7.83995">
        <ele>362.20796335397</ele>
        <time>2021-03-30T12:07:24.227Z</time>
      </trkpt>
      <trkpt lat="49.02514" lon="7.83944">
        <ele>359.67790898368</ele>
        <time>2021-03-30T12:07:27.308Z</time>
      </trkpt>
      <trkpt lat="49.02526" lon="7.83914">
        <ele>356.80664054169</ele>
        <time>2021-03-30T12:07:30.397Z</time>
      </trkpt>
      <trkpt lat="49.02541" lon="7.83879">
        <ele>353.51164566645</ele>
        <time>2021-03-30T12:07:33.495Z</time>
      </trkpt>
      <trkpt lat="49.02551" lon="7.83872">
        <ele>349.89947537608</ele>
        <time>2021-03-30T12:07:36.597Z</time>
      </trkpt>
      <trkpt lat="49.02561" lon="7.83856">
        <ele>346.00433076457</ele>
        <time>2021-03-30T12:07:39.704Z</time>
      </trkpt>
      <trkpt lat="49.02575" lon="7.83827">
        <ele>341.77719226414</ele>
        <time>2021-03-30T12:07:42.818Z</time>
      </trkpt>
      <trkpt lat="49.02587" lon="7.83792">
        <ele>337.35499143282</ele>
        <time>2021-03-30T12:07:45.941Z</time>
      </trkpt>
      <trkpt lat="49.026" lon="7.83742">
        <ele>332.81100600538</ele>
        <time>2021-03-30T12:07:49.076Z</time>
      </trkpt>
      <trkpt lat="49.02611" lon="7.83686">
        <ele>328.05917204199</ele>
        <time>2021-03-30T12:07:52.224Z</time>
      </trkpt>
      <trkpt lat="49.02618" lon="7.83634">
        <ele>323.45203680268</ele>
        <time>2021-03-30T12:07:55.383Z</time>
      </trkpt>
      <trkpt lat="49.02623" lon="7.83583">
        <ele>318.97782863998</ele>
        <time>2021-03-30T12:07:58.554Z</time>
      </trkpt>
      <trkpt lat="49.02626" lon="7.83533">
        <ele>314.58385497365</ele>
        <time>2021-03-30T12:08:01.736Z</time>
      </trkpt>
      <trkpt lat="49.02626" lon="7.83488">
        <ele>310.55594176727</ele>
        <time>2021-03-30T12:08:04.928Z</time>
      </trkpt>
      <trkpt lat="49.02625" lon="7.83434">
        <ele>306.6516921175</ele>
        <time>2021-03-30T12:08:08.131Z</time>
      </trkpt>
      <trkpt lat="49.02625" lon="7.83368">
        <ele>302.96313307737</ele>
        <time>2021-03-30T12:08:11.349Z</time>
      </trkpt>
      <trkpt lat="49.02625" lon="7.83305">
        <ele>299.83148308116</ele>
        <time>2021-03-30T12:08:14.581Z</time>
      </trkpt>
      <trkpt lat="49.02625" lon="7.83243">
        <ele>297.12851748975</ele>
        <time>2021-03-30T12:08:17.826Z</time>
      </trkpt>
      <trkpt lat="49.02623" lon="7.83207">
        <ele>294.96536820711</ele>
        <time>2021-03-30T12:08:21.079Z</time>
      </trkpt>
      <trkpt lat="49.0262" lon="7.83182">
        <ele>293.2093789061</ele>
        <time>2021-03-30T12:08:24.338Z</time>
      </trkpt>
      <trkpt lat="49.02612" lon="7.83143">
        <ele>291.80088771691</ele>
        <time>2021-03-30T12:08:27.606Z</time>
      </trkpt>
      <trkpt lat="49.02605" lon="7.83115">
        <ele>290.76660021792</ele>
        <time>2021-03-30T12:08:30.880Z</time>
      </trkpt>
      <trkpt lat="49.02601" lon="7.83098">
        <ele>290.08583874452</ele>
        <time>2021-03-30T12:08:34.158Z</time>
      </trkpt>
      <trkpt lat="49.02602" lon="7.83086">
        <ele>289.69221217846</ele>
        <time>2021-03-30T12:08:37.439Z</time>
      </trkpt>
      <trkpt lat="49.02607" lon="7.83071">
        <ele>289.53371323392</ele>
        <time>2021-03-30T12:08:40.724Z</time>
      </trkpt>
      <trkpt lat="49.02617" lon="7.83058">
        <ele>289.56069355454</ele>
        <time>2021-03-30T12:08:44.013Z</time>
      </trkpt>
      <trkpt lat="49.02631" lon="7.83048">
        <ele>289.67055556163</ele>
        <time>2021-03-30T12:08:47.307Z</time>
      </trkpt>
      <trkpt lat="49.0265" lon="7.83037">
        <ele>289.8030557706</ele>
        <time>2021-03-30T12:08:50.608Z</time>
      </trkpt>
      <trkpt lat="49.02669" lon="7.83032">
        <ele>289.82216323046</ele>
        <time>2021-03-30T12:08:53.915Z</time>
      </trkpt>
      <trkpt lat="49.02691" lon="7.83028">
        <ele>289.68477217674</ele>
        <time>2021-03-30T12:08:57.230Z</time>
      </trkpt>
      <trkpt lat="49.02716" lon="7.83026">
        <ele>289.36177694652</ele>
        <time>2021-03-30T12:09:00.553Z</time>
      </trkpt>
      <trkpt lat="49.02715" lon="7.8302">
        <ele>289.01319563173</ele>
        <time>2021-03-30T12:09:03.877Z</time>
      </trkpt>
      <trkpt lat="49.02714" lon="7.83013">
        <ele>288.49217440241</ele>
        <time>2021-03-30T12:09:07.203Z</time>
      </trkpt>
      <trkpt lat="49.02716" lon="7.82996">
        <ele>287.72916028028</ele>
        <time>2021-03-30T12:09:10.533Z</time>
      </trkpt>
      <trkpt lat="49.02717" lon="7.82987">
        <ele>286.81017294891</ele>
        <time>2021-03-30T12:09:13.865Z</time>
      </trkpt>
      <trkpt lat="49.02719" lon="7.82977">
        <ele>285.69724990889</ele>
        <time>2021-03-30T12:09:17.199Z</time>
      </trkpt>
      <trkpt lat="49.0272" lon="7.82965">
        <ele>284.36969326041</ele>
        <time>2021-03-30T12:09:20.536Z</time>
      </trkpt>
      <trkpt lat="49.02722" lon="7.82951">
        <ele>282.91077684041</ele>
        <time>2021-03-30T12:09:23.876Z</time>
      </trkpt>
      <trkpt lat="49.02723" lon="7.82936">
        <ele>281.28725399218</ele>
        <time>2021-03-30T12:09:27.219Z</time>
      </trkpt>
      <trkpt lat="49.02725" lon="7.82913">
        <ele>279.55273315143</ele>
        <time>2021-03-30T12:09:30.567Z</time>
      </trkpt>
      <trkpt lat="49.02729" lon="7.82873">
        <ele>277.65937567186</ele>
        <time>2021-03-30T12:09:33.924Z</time>
      </trkpt>
      <trkpt lat="49.02735" lon="7.82825">
        <ele>275.69780436865</ele>
        <time>2021-03-30T12:09:37.292Z</time>
      </trkpt>
      <trkpt lat="49.02742" lon="7.82782">
        <ele>273.76300080595</ele>
        <time>2021-03-30T12:09:40.670Z</time>
      </trkpt>
      <trkpt lat="49.0275" lon="7.82743">
        <ele>271.90802579427</ele>
        <time>2021-03-30T12:09:44.057Z</time>
      </trkpt>
      <trkpt lat="49.02754" lon="7.82721">
        <ele>270.11329739567</ele>
        <time>2021-03-30T12:09:47.449Z</time>
      </trkpt>
      <trkpt lat="49.02757" lon="7.82705">
        <ele>268.38356321918</ele>
        <time>2021-03-30T12:09:50.844Z</time>
      </trkpt>
      <trkpt lat="49.02761" lon="7.82685">
        <ele>266.7593600615</ele>
        <time>2021-03-30T12:09:54.244Z</time>
      </trkpt>
      <trkpt lat="49.02763" lon="7.82675">
        <ele>265.27901408189</ele>
        <time>2021-03-30T12:09:57.646Z</time>
      </trkpt>
      <trkpt lat="49.02765" lon="7.82667">
        <ele>263.90678176454</ele>
        <time>2021-03-30T12:10:01.050Z</time>
      </trkpt>
      <trkpt lat="49.02767" lon="7.82663">
        <ele>262.66904287196</ele>
        <time>2021-03-30T12:10:04.455Z</time>
      </trkpt>
      <trkpt lat="49.0277" lon="7.82657">
        <ele>261.55157444501</ele>
        <time>2021-03-30T12:10:07.862Z</time>
      </trkpt>
      <trkpt lat="49.02772" lon="7.82644">
        <ele>260.54064866274</ele>
        <time>2021-03-30T12:10:11.272Z</time>
      </trkpt>
      <trkpt lat="49.02772" lon="7.82635">
        <ele>259.67250088301</ele>
        <time>2021-03-30T12:10:14.684Z</time>
      </trkpt>
      <trkpt lat="49.02772" lon="7.82627">
        <ele>258.92262549869</ele>
        <time>2021-03-30T12:10:18.097Z</time>
      </trkpt>
      <trkpt lat="49.02773" lon="7.82619">
        <ele>258.27309335713</ele>
        <time>2021-03-30T12:10:21.512Z</time>
      </trkpt>
      <trkpt lat="49.02775" lon="7.82614">
        <ele>257.75018899293</ele>
        <time>2021-03-30T12:10:24.928Z</time>
      </trkpt>
      <trkpt lat="49.02776" lon="7.8261">
        <ele>257.31862610104</ele>
        <time>2021-03-30T12:10:28.345Z</time>
      </trkpt>
      <trkpt lat="49.02779" lon="7.82604">
        <ele>256.96530582257</ele>
        <time>2021-03-30T12:10:31.764Z</time>
      </trkpt>
      <trkpt lat="49.02782" lon="7.826">
        <ele>256.68332860626</ele>
        <time>2021-03-30T12:10:35.184Z</time>
      </trkpt>
      <trkpt lat="49.02785" lon="7.82595">
        <ele>256.46183436535</ele>
        <time>2021-03-30T12:10:38.606Z</time>
      </trkpt>
      <trkpt lat="49.02787" lon="7.82591">
        <ele>256.29274919618</ele>
        <time>2021-03-30T12:10:42.029Z</time>
      </trkpt>
      <trkpt lat="49.02791" lon="7.82585">
        <ele>256.162053859</ele>
        <time>2021-03-30T12:10:45.454Z</time>
      </trkpt>
      <trkpt lat="49.02791" lon="7.82582">
        <ele>256.07652173741</ele>
        <time>2021-03-30T12:10:48.879Z</time>
      </trkpt>
      <trkpt lat="49.0279" lon="7.82572">
        <ele>256.01236806478</ele>
        <time>2021-03-30T12:10:52.307Z</time>
      </trkpt>
      <trkpt lat="49.02791" lon="7.82568">
        <ele>255.98065042588</ele>
        <time>2021-03-30T12:10:55.736Z</time>
      </trkpt>
      <trkpt lat="49.02792" lon="7.82564">
        <ele>255.97403306737</ele>
        <time>2021-03-30T12:10:59.165Z</time>
      </trkpt>
      <trkpt lat="49.02792" lon="7.82559">
        <ele>256.00850527706</ele>
        <time>2021-03-30T12:11:02.596Z</time>
      </trkpt>
      <trkpt lat="49.0279" lon="7.82551">
        <ele>256.06782642771</ele>
        <time>2021-03-30T12:11:06.028Z</time>
      </trkpt>
      <trkpt lat="49.02801" lon="7.82556">
        <ele>256.10483593885</ele>
        <time>2021-03-30T12:11:09.464Z</time>
      </trkpt>
      <trkpt lat="49.0281" lon="7.82565">
        <ele>256.14466983176</ele>
        <time>2021-03-30T12:11:12.904Z</time>
      </trkpt>
      <trkpt lat="49.02813" lon="7.8257">
        <ele>256.24039796506</ele>
        <time>2021-03-30T12:11:16.345Z</time>
      </trkpt>
      <trkpt lat="49.02816" lon="7.82575">
        <ele>256.35881332408</ele>
        <time>2021-03-30T12:11:19.788Z</time>
      </trkpt>
      <trkpt lat="49.02823" lon="7.82583">
        <ele>256.5134213689</ele>
        <time>2021-03-30T12:11:23.234Z</time>
      </trkpt>
      <trkpt lat="49.02827" lon="7.82586">
        <ele>256.69157619729</ele>
        <time>2021-03-30T12:11:26.681Z</time>
      </trkpt>
      <trkpt lat="49.02831" lon="7.82589">
        <ele>256.90450940835</ele>
        <time>2021-03-30T12:11:30.130Z</time>
      </trkpt>
      <trkpt lat="49.02836" lon="7.82593">
        <ele>257.15945196619</ele>
        <time>2021-03-30T12:11:33.581Z</time>
      </trkpt>
      <trkpt lat="49.0284" lon="7.82595">
        <ele>257.45904099487</ele>
        <time>2021-03-30T12:11:37.033Z</time>
      </trkpt>
      <trkpt lat="49.02844" lon="7.82596">
        <ele>257.80778419833</ele>
        <time>2021-03-30T12:11:40.486Z</time>
      </trkpt>
      <trkpt lat="49.02848" lon="7.82597">
        <ele>258.21218522246</ele>
        <time>2021-03-30T12:11:43.941Z</time>
      </trkpt>
      <trkpt lat="49.02853" lon="7.82597">
        <ele>258.68721637906</ele>
        <time>2021-03-30T12:11:47.397Z</time>
      </trkpt>
      <trkpt lat="49.02857" lon="7.82597">
        <ele>259.22627614933</ele>
        <time>2021-03-30T12:11:50.854Z</time>
      </trkpt>
      <trkpt lat="49.02862" lon="7.82596">
        <ele>259.83985996439</ele>
        <time>2021-03-30T12:11:54.313Z</time>
      </trkpt>
      <trkpt lat="49.02866" lon="7.82595">
        <ele>260.52700595969</ele>
        <time>2021-03-30T12:11:57.774Z</time>
      </trkpt>
      <trkpt lat="49.02872" lon="7.82594">
        <ele>261.29649773956</ele>
        <time>2021-03-30T12:12:01.237Z</time>
      </trkpt>
      <trkpt lat="49.02878" lon="7.82592">
        <ele>262.14674898683</ele>
        <time>2021-03-30T12:12:04.702Z</time>
      </trkpt>
      <trkpt lat="49.02887" lon="7.82589">
        <ele>263.08436975977</ele>
        <time>2021-03-30T12:12:08.170Z</time>
      </trkpt>
      <trkpt lat="49.02895" lon="7.82587">
        <ele>264.08535202471</ele>
        <time>2021-03-30T12:12:11.641Z</time>
      </trkpt>
      <trkpt lat="49.02905" lon="7.82581">
        <ele>265.12188700221</ele>
        <time>2021-03-30T12:12:15.115Z</time>
      </trkpt>
      <trkpt lat="49.02916" lon="7.82575">
        <ele>266.23711640303</ele>
        <time>2021-03-30T12:12:18.593Z</time>
      </trkpt>
      <trkpt lat="49.02932" lon="7.82564">
        <ele>267.39110628567</ele>
        <time>2021-03-30T12:12:22.077Z</time>
      </trkpt>
      <trkpt lat="49.02948" lon="7.82551">
        <ele>268.51974178974</ele>
        <time>2021-03-30T12:12:25.567Z</time>
      </trkpt>
      <trkpt lat="49.02966" lon="7.82532">
        <ele>269.60917116945</ele>
        <time>2021-03-30T12:12:29.064Z</time>
      </trkpt>
      <trkpt lat="49.02986" lon="7.82508">
        <ele>270.61524047503</ele>
        <time>2021-03-30T12:12:32.570Z</time>
      </trkpt>
      <trkpt lat="49.03" lon="7.82487">
        <ele>271.55008828731</ele>
        <time>2021-03-30T12:12:36.082Z</time>
      </trkpt>
      <trkpt lat="49.03012" lon="7.8247">
        <ele>272.35189652978</ele>
        <time>2021-03-30T12:12:39.600Z</time>
      </trkpt>
      <trkpt lat="49.03024" lon="7.82448">
        <ele>272.9996990539</ele>
        <time>2021-03-30T12:12:43.124Z</time>
      </trkpt>
      <trkpt lat="49.03035" lon="7.82426">
        <ele>273.58292344644</ele>
        <time>2021-03-30T12:12:46.654Z</time>
      </trkpt>
      <trkpt lat="49.03047" lon="7.82404">
        <ele>274.04110797865</ele>
        <time>2021-03-30T12:12:50.190Z</time>
      </trkpt>
      <trkpt lat="49.03055" lon="7.82391">
        <ele>274.40442829367</ele>
        <time>2021-03-30T12:12:53.730Z</time>
      </trkpt>
      <trkpt lat="49.03062" lon="7.82376">
        <ele>274.65539162814</ele>
        <time>2021-03-30T12:12:57.274Z</time>
      </trkpt>
      <trkpt lat="49.03068" lon="7.82364">
        <ele>274.80206920972</ele>
        <time>2021-03-30T12:13:00.821Z</time>
      </trkpt>
      <trkpt lat="49.03074" lon="7.82352">
        <ele>274.83975950439</ele>
        <time>2021-03-30T12:13:04.372Z</time>
      </trkpt>
      <trkpt lat="49.03076" lon="7.82348">
        <ele>274.80858258973</ele>
        <time>2021-03-30T12:13:07.924Z</time>
      </trkpt>
      <trkpt lat="49.03079" lon="7.82343">
        <ele>274.71032533074</ele>
        <time>2021-03-30T12:13:11.477Z</time>
      </trkpt>
      <trkpt lat="49.03082" lon="7.82339">
        <ele>274.56237271452</ele>
        <time>2021-03-30T12:13:15.032Z</time>
      </trkpt>
      <trkpt lat="49.03087" lon="7.82333">
        <ele>274.36599011435</ele>
        <time>2021-03-30T12:13:18.589Z</time>
      </trkpt>
      <trkpt lat="49.03091" lon="7.82329">
        <ele>274.12940335555</ele>
        <time>2021-03-30T12:13:22.148Z</time>
      </trkpt>
      <trkpt lat="49.03095" lon="7.82324">
        <ele>273.86394477823</ele>
        <time>2021-03-30T12:13:25.708Z</time>
      </trkpt>
      <trkpt lat="49.03099" lon="7.82321">
        <ele>273.58295680396</ele>
        <time>2021-03-30T12:13:29.270Z</time>
      </trkpt>
      <trkpt lat="49.03103" lon="7.82318">
        <ele>273.29170576737</ele>
        <time>2021-03-30T12:13:32.833Z</time>
      </trkpt>
      <trkpt lat="49.03108" lon="7.82314">
        <ele>273.01142034185</ele>
        <time>2021-03-30T12:13:36.398Z</time>
      </trkpt>
      <trkpt lat="49.03113" lon="7.82311">
        <ele>272.71988351079</ele>
        <time>2021-03-30T12:13:39.965Z</time>
      </trkpt>
      <trkpt lat="49.03117" lon="7.82308">
        <ele>272.4220538029</ele>
        <time>2021-03-30T12:13:43.533Z</time>
      </trkpt>
      <trkpt lat="49.03122" lon="7.82305">
        <ele>272.11568521775</ele>
        <time>2021-03-30T12:13:47.103Z</time>
      </trkpt>
      <trkpt lat="49.03127" lon="7.82303">
        <ele>271.79815338302</ele>
        <time>2021-03-30T12:13:50.675Z</time>
      </trkpt>
      <trkpt lat="49.03132" lon="7.823">
        <ele>271.44122676071</ele>
        <time>2021-03-30T12:13:54.249Z</time>
      </trkpt>
      <trkpt lat="49.03137" lon="7.82299">
        <ele>271.10032028664</ele>
        <time>2021-03-30T12:13:57.824Z</time>
      </trkpt>
      <trkpt lat="49.03142" lon="7.82299">
        <ele>270.77454321231</ele>
        <time>2021-03-30T12:14:01.401Z</time>
      </trkpt>
      <trkpt lat="49.03146" lon="7.82299">
        <ele>270.46191676492</ele>
        <time>2021-03-30T12:14:04.979Z</time>
      </trkpt>
      <trkpt lat="49.0315" lon="7.82299">
        <ele>270.15602056418</ele>
        <time>2021-03-30T12:14:08.559Z</time>
      </trkpt>
      <trkpt lat="49.03154" lon="7.82299">
        <ele>269.85772768146</ele>
        <time>2021-03-30T12:14:12.140Z</time>
      </trkpt>
      <trkpt lat="49.03158" lon="7.82299">
        <ele>269.55705416596</ele>
        <time>2021-03-30T12:14:15.722Z</time>
      </trkpt>
      <trkpt lat="49.03162" lon="7.823">
        <ele>269.25733423035</ele>
        <time>2021-03-30T12:14:19.306Z</time>
      </trkpt>
      <trkpt lat="49.03166" lon="7.82301">
        <ele>268.9714480438</ele>
        <time>2021-03-30T12:14:22.891Z</time>
      </trkpt>
      <trkpt lat="49.03171" lon="7.82302">
        <ele>268.68610738348</ele>
        <time>2021-03-30T12:14:26.478Z</time>
      </trkpt>
      <trkpt lat="49.03175" lon="7.82304">
        <ele>268.41053592838</ele>
        <time>2021-03-30T12:14:30.066Z</time>
      </trkpt>
      <trkpt lat="49.03184" lon="7.82309">
        <ele>268.13807862292</ele>
        <time>2021-03-30T12:14:33.657Z</time>
      </trkpt>
      <trkpt lat="49.03188" lon="7.82313">
        <ele>267.88847237751</ele>
        <time>2021-03-30T12:14:37.250Z</time>
      </trkpt>
      <trkpt lat="49.03199" lon="7.82321">
        <ele>267.63905235783</ele>
        <time>2021-03-30T12:14:40.847Z</time>
      </trkpt>
      <trkpt lat="49.03205" lon="7.82325">
        <ele>267.37713119633</ele>
        <time>2021-03-30T12:14:44.446Z</time>
      </trkpt>
      <trkpt lat="49.03211" lon="7.82328">
        <ele>267.10238255628</ele>
        <time>2021-03-30T12:14:48.047Z</time>
      </trkpt>
      <trkpt lat="49.03216" lon="7.82331">
        <ele>266.80736398955</ele>
        <time>2021-03-30T12:14:51.650Z</time>
      </trkpt>
      <trkpt lat="49.03221" lon="7.82332">
        <ele>266.49351551045</ele>
        <time>2021-03-30T12:14:55.255Z</time>
      </trkpt>
      <trkpt lat="49.03231" lon="7.82331">
        <ele>266.15540884119</ele>
        <time>2021-03-30T12:14:58.863Z</time>
      </trkpt>
      <trkpt lat="49.03236" lon="7.8233">
        <ele>265.82107557378</ele>
        <time>2021-03-30T12:15:02.473Z</time>
      </trkpt>
      <trkpt lat="49.0324" lon="7.82328">
        <ele>265.47715325416</ele>
        <time>2021-03-30T12:15:06.084Z</time>
      </trkpt>
      <trkpt lat="49.03243" lon="7.82325">
        <ele>265.13082804289</ele>
        <time>2021-03-30T12:15:09.696Z</time>
      </trkpt>
      <trkpt lat="49.03247" lon="7.82322">
        <ele>264.78787095563</ele>
        <time>2021-03-30T12:15:13.310Z</time>
      </trkpt>
      <trkpt lat="49.03252" lon="7.82318">
        <ele>264.4531510026</ele>
        <time>2021-03-30T12:15:16.926Z</time>
      </trkpt>
      <trkpt lat="49.03256" lon="7.82315">
        <ele>264.14436507666</ele>
        <time>2021-03-30T12:15:20.543Z</time>
      </trkpt>
      <trkpt lat="49.03259" lon="7.82312">
        <ele>263.87244041385</ele>
        <time>2021-03-30T12:15:24.161Z</time>
      </trkpt>
      <trkpt lat="49.03263" lon="7.82308">
        <ele>263.64378851239</ele>
        <time>2021-03-30T12:15:27.781Z</time>
      </trkpt>
      <trkpt lat="49.03268" lon="7.82302">
        <ele>263.47910124083</ele>
        <time>2021-03-30T12:15:31.403Z</time>
      </trkpt>
      <trkpt lat="49.03273" lon="7.82298">
        <ele>263.36861298487</ele>
        <time>2021-03-30T12:15:35.027Z</time>
      </trkpt>
      <trkpt lat="49.03277" lon="7.82293">
        <ele>263.30853907789</ele>
        <time>2021-03-30T12:15:38.653Z</time>
      </trkpt>
      <trkpt lat="49.03284" lon="7.82288">
        <ele>263.30948983634</ele>
        <time>2021-03-30T12:15:42.281Z</time>
      </trkpt>
      <trkpt lat="49.0329" lon="7.82284">
        <ele>263.38777697233</ele>
        <time>2021-03-30T12:15:45.911Z</time>
      </trkpt>
      <trkpt lat="49.03295" lon="7.82281">
        <ele>263.54278772201</ele>
        <time>2021-03-30T12:15:49.543Z</time>
      </trkpt>
      <trkpt lat="49.03301" lon="7.82278">
        <ele>263.80183407411</ele>
        <time>2021-03-30T12:15:53.177Z</time>
      </trkpt>
      <trkpt lat="49.03308" lon="7.82274">
        <ele>264.15571779779</ele>
        <time>2021-03-30T12:15:56.814Z</time>
      </trkpt>
      <trkpt lat="49.03314" lon="7.8227">
        <ele>264.5887251871</ele>
        <time>2021-03-30T12:16:00.453Z</time>
      </trkpt>
      <trkpt lat="49.03321" lon="7.82267">
        <ele>265.12584979627</ele>
        <time>2021-03-30T12:16:04.095Z</time>
      </trkpt>
      <trkpt lat="49.03329" lon="7.82262">
        <ele>265.80618598779</ele>
        <time>2021-03-30T12:16:07.739Z</time>
      </trkpt>
      <trkpt lat="49.03339" lon="7.82255">
        <ele>266.61164236963</ele>
        <time>2021-03-30T12:16:11.387Z</time>
      </trkpt>
      <trkpt lat="49.03349" lon="7.82246">
        <ele>267.48728653208</ele>
        <time>2021-03-30T12:16:15.039Z</time>
      </trkpt>
      <trkpt lat="49.03364" lon="7.82226">
        <ele>268.46290070257</ele>
        <time>2021-03-30T12:16:18.697Z</time>
      </trkpt>
      <trkpt lat="49.0337" lon="7.82207">
        <ele>269.53142517739</ele>
        <time>2021-03-30T12:16:22.360Z</time>
      </trkpt>
      <trkpt lat="49.03386" lon="7.82204">
        <ele>270.71827395583</ele>
        <time>2021-03-30T12:16:26.028Z</time>
      </trkpt>
      <trkpt lat="49.03393" lon="7.82201">
        <ele>271.97622143382</ele>
        <time>2021-03-30T12:16:29.699Z</time>
      </trkpt>
      <trkpt lat="49.03404" lon="7.82192">
        <ele>273.33063649552</ele>
        <time>2021-03-30T12:16:33.374Z</time>
      </trkpt>
      <trkpt lat="49.03414" lon="7.82182">
        <ele>274.83391809431</ele>
        <time>2021-03-30T12:16:37.053Z</time>
      </trkpt>
      <trkpt lat="49.03423" lon="7.82174">
        <ele>276.36319581268</ele>
        <time>2021-03-30T12:16:40.736Z</time>
      </trkpt>
      <trkpt lat="49.0343" lon="7.82168">
        <ele>277.93840977416</ele>
        <time>2021-03-30T12:16:44.421Z</time>
      </trkpt>
      <trkpt lat="49.03442" lon="7.82166">
        <ele>279.62601404237</ele>
        <time>2021-03-30T12:16:48.110Z</time>
      </trkpt>
      <trkpt lat="49.03448" lon="7.82161">
        <ele>281.25244417433</ele>
        <time>2021-03-30T12:16:51.802Z</time>
      </trkpt>
      <trkpt lat="49.03451" lon="7.82143">
        <ele>282.79218776281</ele>
        <time>2021-03-30T12:16:55.498Z</time>
      </trkpt>
      <trkpt lat="49.03458" lon="7.82118">
        <ele>284.43589544882</ele>
        <time>2021-03-30T12:16:59.200Z</time>
      </trkpt>
      <trkpt lat="49.03479" lon="7.82069">
        <ele>286.09884892719</ele>
        <time>2021-03-30T12:17:02.914Z</time>
      </trkpt>
      <trkpt lat="49.03497" lon="7.81994">
        <ele>287.60451729997</ele>
        <time>2021-03-30T12:17:06.646Z</time>
      </trkpt>
      <trkpt lat="49.03515" lon="7.81917">
        <ele>288.85590024416</ele>
        <time>2021-03-30T12:17:10.396Z</time>
      </trkpt>
      <trkpt lat="49.03524" lon="7.81869">
        <ele>290.05054589626</ele>
        <time>2021-03-30T12:17:14.157Z</time>
      </trkpt>
      <trkpt lat="49.03545" lon="7.81828">
        <ele>291.15002598006</ele>
        <time>2021-03-30T12:17:17.929Z</time>
      </trkpt>
      <trkpt lat="49.03576" lon="7.81788">
        <ele>292.18763430244</ele>
        <time>2021-03-30T12:17:21.715Z</time>
      </trkpt>
      <trkpt lat="49.03623" lon="7.81743">
        <ele>293.22445632022</ele>
        <time>2021-03-30T12:17:25.519Z</time>
      </trkpt>
      <trkpt lat="49.0365" lon="7.8172">
        <ele>294.17796387963</ele>
        <time>2021-03-30T12:17:29.334Z</time>
      </trkpt>
      <trkpt lat="49.03654" lon="7.81716">
        <ele>294.97447859822</ele>
        <time>2021-03-30T12:17:33.150Z</time>
      </trkpt>
      <trkpt lat="49.03661" lon="7.81708">
        <ele>295.74863893865</ele>
        <time>2021-03-30T12:17:36.969Z</time>
      </trkpt>
      <trkpt lat="49.03671" lon="7.81699">
        <ele>296.41331298987</ele>
        <time>2021-03-30T12:17:40.792Z</time>
      </trkpt>
      <trkpt lat="49.03683" lon="7.81693">
        <ele>296.97279088921</ele>
        <time>2021-03-30T12:17:44.619Z</time>
      </trkpt>
      <trkpt lat="49.03689" lon="7.81695">
        <ele>297.49663225156</ele>
        <time>2021-03-30T12:17:48.448Z</time>
      </trkpt>
      <trkpt lat="49.03695" lon="7.81695">
        <ele>297.93575161939</ele>
        <time>2021-03-30T12:17:52.279Z</time>
      </trkpt>
      <trkpt lat="49.037" lon="7.81692">
        <ele>298.26416045987</ele>
        <time>2021-03-30T12:17:56.112Z</time>
      </trkpt>
      <trkpt lat="49.03705" lon="7.81684">
        <ele>298.43511136787</ele>
        <time>2021-03-30T12:17:59.948Z</time>
      </trkpt>
      <trkpt lat="49.0371" lon="7.81672">
        <ele>298.51836999919</ele>
        <time>2021-03-30T12:18:03.787Z</time>
      </trkpt>
      <trkpt lat="49.03715" lon="7.81665">
        <ele>298.59675389544</ele>
        <time>2021-03-30T12:18:07.628Z</time>
      </trkpt>
      <trkpt lat="49.03732" lon="7.81659">
        <ele>298.63431002292</ele>
        <time>2021-03-30T12:18:11.475Z</time>
      </trkpt>
      <trkpt lat="49.03767" lon="7.81648">
        <ele>298.67863568876</ele>
        <time>2021-03-30T12:18:15.334Z</time>
      </trkpt>
      <trkpt lat="49.03795" lon="7.81643">
        <ele>298.40129845159</ele>
        <time>2021-03-30T12:18:19.202Z</time>
      </trkpt>
      <trkpt lat="49.03824" lon="7.81651">
        <ele>297.91146048853</ele>
        <time>2021-03-30T12:18:23.080Z</time>
      </trkpt>
      <trkpt lat="49.03846" lon="7.81659">
        <ele>297.30546899736</ele>
        <time>2021-03-30T12:18:26.966Z</time>
      </trkpt>
      <trkpt lat="49.03858" lon="7.81664">
        <ele>296.63891282427</ele>
        <time>2021-03-30T12:18:30.855Z</time>
      </trkpt>
      <trkpt lat="49.03877" lon="7.8166">
        <ele>295.82015305819</ele>
        <time>2021-03-30T12:18:34.751Z</time>
      </trkpt>
      <trkpt lat="49.03902" lon="7.81654">
        <ele>294.93594479745</ele>
        <time>2021-03-30T12:18:38.655Z</time>
      </trkpt>
      <trkpt lat="49.03907" lon="7.81654">
        <ele>294.17839062105</ele>
        <time>2021-03-30T12:18:42.561Z</time>
      </trkpt>
      <trkpt lat="49.03912" lon="7.81651">
        <ele>293.43225292342</ele>
        <time>2021-03-30T12:18:46.469Z</time>
      </trkpt>
      <trkpt lat="49.03915" lon="7.81644">
        <ele>292.72279866325</ele>
        <time>2021-03-30T12:18:50.379Z</time>
      </trkpt>
      <trkpt lat="49.03922" lon="7.81629">
        <ele>292.08809659936</ele>
        <time>2021-03-30T12:18:54.293Z</time>
      </trkpt>
      <trkpt lat="49.03952" lon="7.81596">
        <ele>291.63646881593</ele>
        <time>2021-03-30T12:18:58.219Z</time>
      </trkpt>
      <trkpt lat="49.03974" lon="7.81567">
        <ele>291.30317000309</ele>
        <time>2021-03-30T12:19:02.155Z</time>
      </trkpt>
      <trkpt lat="49.04037" lon="7.8147">
        <ele>291.13155707854</ele>
        <time>2021-03-30T12:19:06.121Z</time>
      </trkpt>
      <trkpt lat="49.04049" lon="7.81456">
        <ele>290.99504674904</ele>
        <time>2021-03-30T12:19:10.092Z</time>
      </trkpt>
      <trkpt lat="49.04062" lon="7.81443">
        <ele>291.05277013744</ele>
        <time>2021-03-30T12:19:14.068Z</time>
      </trkpt>
      <trkpt lat="49.04075" lon="7.81436">
        <ele>291.24057950755</ele>
        <time>2021-03-30T12:19:18.048Z</time>
      </trkpt>
      <trkpt lat="49.041" lon="7.81412">
        <ele>291.67413619098</ele>
        <time>2021-03-30T12:19:22.039Z</time>
      </trkpt>
      <trkpt lat="49.0411" lon="7.814">
        <ele>292.21800911407</ele>
        <time>2021-03-30T12:19:26.034Z</time>
      </trkpt>
      <trkpt lat="49.04117" lon="7.81391">
        <ele>292.93134252179</ele>
        <time>2021-03-30T12:19:30.032Z</time>
      </trkpt>
      <trkpt lat="49.04124" lon="7.81383">
        <ele>293.74033461155</ele>
        <time>2021-03-30T12:19:34.033Z</time>
      </trkpt>
      <trkpt lat="49.04146" lon="7.81376">
        <ele>294.75232303931</ele>
        <time>2021-03-30T12:19:38.041Z</time>
      </trkpt>
      <trkpt lat="49.04186" lon="7.81371">
        <ele>295.93889825281</ele>
        <time>2021-03-30T12:19:42.063Z</time>
      </trkpt>
      <trkpt lat="49.04217" lon="7.81374">
        <ele>297.10352922789</ele>
        <time>2021-03-30T12:19:46.095Z</time>
      </trkpt>
      <trkpt lat="49.04262" lon="7.81386">
        <ele>298.27767665839</ele>
        <time>2021-03-30T12:19:50.142Z</time>
      </trkpt>
      <trkpt lat="49.0428" lon="7.81389">
        <ele>299.57511893562</ele>
        <time>2021-03-30T12:19:54.195Z</time>
      </trkpt>
      <trkpt lat="49.04302" lon="7.81384">
        <ele>300.94021726284</ele>
        <time>2021-03-30T12:19:58.256Z</time>
      </trkpt>
      <trkpt lat="49.04319" lon="7.81362">
        <ele>302.58835771641</ele>
        <time>2021-03-30T12:20:02.324Z</time>
      </trkpt>
      <trkpt lat="49.04326" lon="7.81349">
        <ele>304.33701716314</ele>
        <time>2021-03-30T12:20:06.396Z</time>
      </trkpt>
      <trkpt lat="49.04339" lon="7.81339">
        <ele>306.1128059411</ele>
        <time>2021-03-30T12:20:10.473Z</time>
      </trkpt>
      <trkpt lat="49.04372" lon="7.81324">
        <ele>307.97532972914</ele>
        <time>2021-03-30T12:20:14.561Z</time>
      </trkpt>
      <trkpt lat="49.04397" lon="7.81318">
        <ele>309.7064282802</ele>
        <time>2021-03-30T12:20:18.658Z</time>
      </trkpt>
      <trkpt lat="49.04427" lon="7.81316">
        <ele>311.38419966635</ele>
        <time>2021-03-30T12:20:22.765Z</time>
      </trkpt>
      <trkpt lat="49.0445" lon="7.81319">
        <ele>312.91195459936</ele>
        <time>2021-03-30T12:20:26.879Z</time>
      </trkpt>
      <trkpt lat="49.04478" lon="7.81328">
        <ele>314.25618534763</ele>
        <time>2021-03-30T12:20:31.003Z</time>
      </trkpt>
      <trkpt lat="49.04499" lon="7.81332">
        <ele>315.42944946904</ele>
        <time>2021-03-30T12:20:35.134Z</time>
      </trkpt>
      <trkpt lat="49.04516" lon="7.81328">
        <ele>316.49820788456</ele>
        <time>2021-03-30T12:20:39.271Z</time>
      </trkpt>
      <trkpt lat="49.04528" lon="7.81324">
        <ele>317.40263216466</ele>
        <time>2021-03-30T12:20:43.412Z</time>
      </trkpt>
      <trkpt lat="49.04535" lon="7.81314">
        <ele>318.16945258757</ele>
        <time>2021-03-30T12:20:47.556Z</time>
      </trkpt>
      <trkpt lat="49.04539" lon="7.813">
        <ele>318.85975642393</ele>
        <time>2021-03-30T12:20:51.703Z</time>
      </trkpt>
      <trkpt lat="49.04541" lon="7.81295">
        <ele>319.33098924215</ele>
        <time>2021-03-30T12:20:55.852Z</time>
      </trkpt>
      <trkpt lat="49.04542" lon="7.81291">
        <ele>319.6837293934</ele>
        <time>2021-03-30T12:21:00.001Z</time>
      </trkpt>
      <trkpt lat="49.04554" lon="7.81293">
        <ele>319.78325230769</ele>
        <time>2021-03-30T12:21:04.154Z</time>
      </trkpt>
      <trkpt lat="49.04573" lon="7.81289">
        <ele>319.78970462538</ele>
        <time>2021-03-30T12:21:08.314Z</time>
      </trkpt>
      <trkpt lat="49.04589" lon="7.81277">
        <ele>319.95478755031</ele>
        <time>2021-03-30T12:21:12.480Z</time>
      </trkpt>
      <trkpt lat="49.04608" lon="7.81267">
        <ele>320.21496151277</ele>
        <time>2021-03-30T12:21:16.653Z</time>
      </trkpt>
      <trkpt lat="49.04625" lon="7.81263">
        <ele>320.47176987778</ele>
        <time>2021-03-30T12:21:20.831Z</time>
      </trkpt>
      <trkpt lat="49.0464" lon="7.81263">
        <ele>320.81064516937</ele>
        <time>2021-03-30T12:21:25.014Z</time>
      </trkpt>
      <trkpt lat="49.04668" lon="7.8127">
        <ele>321.19819845774</ele>
        <time>2021-03-30T12:21:29.207Z</time>
      </trkpt>
      <trkpt lat="49.0469" lon="7.81274">
        <ele>321.64373941128</ele>
        <time>2021-03-30T12:21:33.407Z</time>
      </trkpt>
      <trkpt lat="49.04703" lon="7.81275">
        <ele>322.14045049153</ele>
        <time>2021-03-30T12:21:37.611Z</time>
      </trkpt>
      <trkpt lat="49.0471" lon="7.81276">
        <ele>322.70637910543</ele>
        <time>2021-03-30T12:21:41.818Z</time>
      </trkpt>
      <trkpt lat="49.0473" lon="7.81265">
        <ele>323.53719854746</ele>
        <time>2021-03-30T12:21:46.032Z</time>
      </trkpt>
      <trkpt lat="49.04758" lon="7.81259">
        <ele>324.47027329938</ele>
        <time>2021-03-30T12:21:50.255Z</time>
      </trkpt>
      <trkpt lat="49.0478" lon="7.81252">
        <ele>325.3273473731</ele>
        <time>2021-03-30T12:21:54.486Z</time>
      </trkpt>
      <trkpt lat="49.048" lon="7.81245">
        <ele>326.1832217859</ele>
        <time>2021-03-30T12:21:58.724Z</time>
      </trkpt>
      <trkpt lat="49.0482" lon="7.81241">
        <ele>326.91395838073</ele>
        <time>2021-03-30T12:22:02.968Z</time>
      </trkpt>
      <trkpt lat="49.04839" lon="7.81237">
        <ele>327.68783899238</ele>
        <time>2021-03-30T12:22:07.219Z</time>
      </trkpt>
      <trkpt lat="49.04852" lon="7.81228">
        <ele>328.70222537561</ele>
        <time>2021-03-30T12:22:11.475Z</time>
      </trkpt>
      <trkpt lat="49.04864" lon="7.81218">
        <ele>329.93089066935</ele>
        <time>2021-03-30T12:22:15.735Z</time>
      </trkpt>
      <trkpt lat="49.04879" lon="7.81202">
        <ele>331.31440617332</ele>
        <time>2021-03-30T12:22:20.001Z</time>
      </trkpt>
      <trkpt lat="49.04894" lon="7.81181">
        <ele>333.0123667873</ele>
        <time>2021-03-30T12:22:24.274Z</time>
      </trkpt>
      <trkpt lat="49.04905" lon="7.81153">
        <ele>334.76679294308</ele>
        <time>2021-03-30T12:22:28.554Z</time>
      </trkpt>
      <trkpt lat="49.0491" lon="7.81131">
        <ele>336.463500175</ele>
        <time>2021-03-30T12:22:32.839Z</time>
      </trkpt>
      <trkpt lat="49.04918" lon="7.81113">
        <ele>338.11346197319</ele>
        <time>2021-03-30T12:22:37.129Z</time>
      </trkpt>
      <trkpt lat="49.04931" lon="7.8109">
        <ele>339.80059494479</ele>
        <time>2021-03-30T12:22:41.426Z</time>
      </trkpt>
      <trkpt lat="49.04942" lon="7.81068">
        <ele>341.71680770907</ele>
        <time>2021-03-30T12:22:45.729Z</time>
      </trkpt>
      <trkpt lat="49.0495" lon="7.81043">
        <ele>343.62105159353</ele>
        <time>2021-03-30T12:22:50.038Z</time>
      </trkpt>
      <trkpt lat="49.04956" lon="7.81011">
        <ele>345.66014848579</ele>
        <time>2021-03-30T12:22:54.354Z</time>
      </trkpt>
      <trkpt lat="49.04962" lon="7.80975">
        <ele>347.65199331786</ele>
        <time>2021-03-30T12:22:58.678Z</time>
      </trkpt>
      <trkpt lat="49.04966" lon="7.80939">
        <ele>349.74653939233</ele>
        <time>2021-03-30T12:23:03.010Z</time>
      </trkpt>
      <trkpt lat="49.04973" lon="7.80914">
        <ele>351.74276758632</ele>
        <time>2021-03-30T12:23:07.348Z</time>
      </trkpt>
      <trkpt lat="49.04985" lon="7.8089">
        <ele>353.68194706068</ele>
        <time>2021-03-30T12:23:11.693Z</time>
      </trkpt>
      <trkpt lat="49.05002" lon="7.80867">
        <ele>355.4106792527</ele>
        <time>2021-03-30T12:23:16.046Z</time>
      </trkpt>
      <trkpt lat="49.05018" lon="7.80843">
        <ele>357.0325904146</ele>
        <time>2021-03-30T12:23:20.406Z</time>
      </trkpt>
      <trkpt lat="49.05029" lon="7.80825">
        <ele>358.61485198479</ele>
        <time>2021-03-30T12:23:24.771Z</time>
      </trkpt>
      <trkpt lat="49.05029" lon="7.80825">
        <ele>360.33387032952</ele>
        <time>2021-03-30T12:23:29.136Z</time>
      </trkpt>
      <trkpt lat="49.05038" lon="7.80798">
        <ele>362.05298443348</ele>
        <time>2021-03-30T12:23:33.508Z</time>
      </trkpt>
      <trkpt lat="49.0504" lon="7.80774">
        <ele>363.89826625908</ele>
        <time>2021-03-30T12:23:37.885Z</time>
      </trkpt>
      <trkpt lat="49.05039" lon="7.80741">
        <ele>365.86166473308</ele>
        <time>2021-03-30T12:23:42.270Z</time>
      </trkpt>
      <trkpt lat="49.0503" lon="7.80688">
        <ele>368.03782403156</ele>
        <time>2021-03-30T12:23:46.667Z</time>
      </trkpt>
      <trkpt lat="49.05018" lon="7.80626">
        <ele>370.27406492266</ele>
        <time>2021-03-30T12:23:51.078Z</time>
      </trkpt>
      <trkpt lat="49.05006" lon="7.80574">
        <ele>372.44051483619</ele>
        <time>2021-03-30T12:23:55.501Z</time>
      </trkpt>
      <trkpt lat="49.04998" lon="7.80543">
        <ele>374.47265738322</ele>
        <time>2021-03-30T12:23:59.931Z</time>
      </trkpt>
      <trkpt lat="49.04997" lon="7.80529">
        <ele>376.29115836351</ele>
        <time>2021-03-30T12:24:04.364Z</time>
      </trkpt>
      <trkpt lat="49.05002" lon="7.80526">
        <ele>377.91317188499</ele>
        <time>2021-03-30T12:24:08.799Z</time>
      </trkpt>
      <trkpt lat="49.05012" lon="7.8053">
        <ele>379.36537565371</ele>
        <time>2021-03-30T12:24:13.238Z</time>
      </trkpt>
      <trkpt lat="49.05024" lon="7.8054">
        <ele>380.6922100029</ele>
        <time>2021-03-30T12:24:17.681Z</time>
      </trkpt>
      <trkpt lat="49.05035" lon="7.80545">
        <ele>382.00114131439</ele>
        <time>2021-03-30T12:24:22.128Z</time>
      </trkpt>
      <trkpt lat="49.05043" lon="7.80543">
        <ele>383.33184854062</ele>
        <time>2021-03-30T12:24:26.578Z</time>
      </trkpt>
      <trkpt lat="49.05048" lon="7.80532">
        <ele>384.67499410694</ele>
        <time>2021-03-30T12:24:31.031Z</time>
      </trkpt>
      <trkpt lat="49.0505" lon="7.80513">
        <ele>386.07538946851</ele>
        <time>2021-03-30T12:24:35.488Z</time>
      </trkpt>
      <trkpt lat="49.05051" lon="7.80484">
        <ele>387.54124311659</ele>
        <time>2021-03-30T12:24:39.951Z</time>
      </trkpt>
      <trkpt lat="49.05051" lon="7.80456">
        <ele>389.01876811465</ele>
        <time>2021-03-30T12:24:44.420Z</time>
      </trkpt>
      <trkpt lat="49.05054" lon="7.80439">
        <ele>390.3529091036</ele>
        <time>2021-03-30T12:24:48.893Z</time>
      </trkpt>
      <trkpt lat="49.05062" lon="7.80422">
        <ele>391.59917787494</ele>
        <time>2021-03-30T12:24:53.371Z</time>
      </trkpt>
      <trkpt lat="49.05076" lon="7.80398">
        <ele>392.74269764523</ele>
        <time>2021-03-30T12:24:57.856Z</time>
      </trkpt>
      <trkpt lat="49.05087" lon="7.80378">
        <ele>393.85899839804</ele>
        <time>2021-03-30T12:25:02.346Z</time>
      </trkpt>
      <trkpt lat="49.05093" lon="7.80355">
        <ele>395.17026428639</ele>
        <time>2021-03-30T12:25:06.842Z</time>
      </trkpt>
      <trkpt lat="49.05097" lon="7.80324">
        <ele>396.53485908673</ele>
        <time>2021-03-30T12:25:11.345Z</time>
      </trkpt>
      <trkpt lat="49.05095" lon="7.80259">
        <ele>397.83384783795</ele>
        <time>2021-03-30T12:25:15.862Z</time>
      </trkpt>
      <trkpt lat="49.05091" lon="7.80189">
        <ele>398.66680867392</ele>
        <time>2021-03-30T12:25:20.394Z</time>
      </trkpt>
      <trkpt lat="49.05089" lon="7.80151">
        <ele>399.28281292986</ele>
        <time>2021-03-30T12:25:24.935Z</time>
      </trkpt>
      <trkpt lat="49.05084" lon="7.80116">
        <ele>399.84494062256</ele>
        <time>2021-03-30T12:25:29.484Z</time>
      </trkpt>
      <trkpt lat="49.05084" lon="7.80115">
        <ele>400.07781504751</ele>
        <time>2021-03-30T12:25:34.033Z</time>
      </trkpt>
      <trkpt lat="49.05079" lon="7.80075">
        <ele>400.18150011824</ele>
        <time>2021-03-30T12:25:38.591Z</time>
      </trkpt>
      <trkpt lat="49.05079" lon="7.80055">
        <ele>399.80677723207</ele>
        <time>2021-03-30T12:25:43.153Z</time>
      </trkpt>
      <trkpt lat="49.05079" lon="7.80051">
        <ele>398.98769885226</ele>
        <time>2021-03-30T12:25:47.716Z</time>
      </trkpt>
      <trkpt lat="49.05082" lon="7.80038">
        <ele>397.7693580802</ele>
        <time>2021-03-30T12:25:52.282Z</time>
      </trkpt>
      <trkpt lat="49.05086" lon="7.80032">
        <ele>396.12904896456</ele>
        <time>2021-03-30T12:25:56.850Z</time>
      </trkpt>
      <trkpt lat="49.0509" lon="7.80028">
        <ele>394.05813374142</ele>
        <time>2021-03-30T12:26:01.420Z</time>
      </trkpt>
      <trkpt lat="49.05101" lon="7.80023">
        <ele>391.52228623608</ele>
        <time>2021-03-30T12:26:05.993Z</time>
      </trkpt>
      <trkpt lat="49.05132" lon="7.80018">
        <ele>388.54533815044</ele>
        <time>2021-03-30T12:26:10.577Z</time>
      </trkpt>
      <trkpt lat="49.05169" lon="7.80036">
        <ele>384.87217506482</ele>
        <time>2021-03-30T12:26:15.174Z</time>
      </trkpt>
      <trkpt lat="49.05221" lon="7.80043">
        <ele>381.11953445888</ele>
        <time>2021-03-30T12:26:19.788Z</time>
      </trkpt>
      <trkpt lat="49.05223" lon="7.80041">
        <ele>377.78774408401</ele>
        <time>2021-03-30T12:26:24.403Z</time>
      </trkpt>
      <trkpt lat="49.05254" lon="7.80016">
        <ele>374.39771629697</ele>
        <time>2021-03-30T12:26:29.030Z</time>
      </trkpt>
      <trkpt lat="49.05273" lon="7.79981">
        <ele>371.14432999705</ele>
        <time>2021-03-30T12:26:33.667Z</time>
      </trkpt>
      <trkpt lat="49.05291" lon="7.7994">
        <ele>367.99929700379</ele>
        <time>2021-03-30T12:26:38.314Z</time>
      </trkpt>
      <trkpt lat="49.05309" lon="7.79924">
        <ele>364.83982535169</ele>
        <time>2021-03-30T12:26:42.968Z</time>
      </trkpt>
      <trkpt lat="49.05359" lon="7.79898">
        <ele>361.67647111644</ele>
        <time>2021-03-30T12:26:47.640Z</time>
      </trkpt>
      <trkpt lat="49.05379" lon="7.79867">
        <ele>359.08094413659</ele>
        <time>2021-03-30T12:26:52.322Z</time>
      </trkpt>
      <trkpt lat="49.05388" lon="7.79853">
        <ele>356.78900652078</ele>
        <time>2021-03-30T12:26:57.008Z</time>
      </trkpt>
      <trkpt lat="49.05392" lon="7.79829">
        <ele>354.77930605563</ele>
        <time>2021-03-30T12:27:01.699Z</time>
      </trkpt>
      <trkpt lat="49.05396" lon="7.7978">
        <ele>352.9907600091</ele>
        <time>2021-03-30T12:27:06.401Z</time>
      </trkpt>
      <trkpt lat="49.05393" lon="7.79729">
        <ele>351.56925302479</ele>
        <time>2021-03-30T12:27:11.114Z</time>
      </trkpt>
      <trkpt lat="49.05392" lon="7.79703">
        <ele>350.40922385</ele>
        <time>2021-03-30T12:27:15.833Z</time>
      </trkpt>
      <trkpt lat="49.05392" lon="7.79683">
        <ele>349.40386895711</ele>
        <time>2021-03-30T12:27:20.556Z</time>
      </trkpt>
      <trkpt lat="49.05389" lon="7.79669">
        <ele>348.61952083529</ele>
        <time>2021-03-30T12:27:25.283Z</time>
      </trkpt>
      <trkpt lat="49.05375" lon="7.79658">
        <ele>348.10768965418</ele>
        <time>2021-03-30T12:27:30.015Z</time>
      </trkpt>
      <trkpt lat="49.05371" lon="7.79642">
        <ele>347.54408386866</ele>
        <time>2021-03-30T12:27:34.751Z</time>
      </trkpt>
      <trkpt lat="49.05362" lon="7.79605">
        <ele>347.03702693609</ele>
        <time>2021-03-30T12:27:39.495Z</time>
      </trkpt>
      <trkpt lat="49.05355" lon="7.79552">
        <ele>346.33635381766</ele>
        <time>2021-03-30T12:27:44.251Z</time>
      </trkpt>
      <trkpt lat="49.05347" lon="7.79514">
        <ele>345.81140880737</ele>
        <time>2021-03-30T12:27:49.016Z</time>
      </trkpt>
      <trkpt lat="49.05335" lon="7.79436">
        <ele>345.08543087769</ele>
        <time>2021-03-30T12:27:53.798Z</time>
      </trkpt>
      <trkpt lat="49.0532" lon="7.79394">
        <ele>344.6678802788</ele>
        <time>2021-03-30T12:27:58.591Z</time>
      </trkpt>
      <trkpt lat="49.05311" lon="7.79378">
        <ele>344.22075422746</ele>
        <time>2021-03-30T12:28:03.388Z</time>
      </trkpt>
      <trkpt lat="49.05314" lon="7.79364">
        <ele>343.79002751927</ele>
        <time>2021-03-30T12:28:08.189Z</time>
      </trkpt>
      <trkpt lat="49.05318" lon="7.79339">
        <ele>343.46741141041</ele>
        <time>2021-03-30T12:28:12.995Z</time>
      </trkpt>
      <trkpt lat="49.05311" lon="7.79316">
        <ele>343.35860290515</ele>
        <time>2021-03-30T12:28:17.807Z</time>
      </trkpt>
      <trkpt lat="49.05313" lon="7.79291">
        <ele>343.34545297992</ele>
        <time>2021-03-30T12:28:22.625Z</time>
      </trkpt>
      <trkpt lat="49.0531" lon="7.79273">
        <ele>343.59886241765</ele>
        <time>2021-03-30T12:28:27.447Z</time>
      </trkpt>
      <trkpt lat="49.05307" lon="7.7926">
        <ele>344.12529207377</ele>
        <time>2021-03-30T12:28:32.272Z</time>
      </trkpt>
      <trkpt lat="49.05301" lon="7.79239">
        <ele>344.98259065981</ele>
        <time>2021-03-30T12:28:37.102Z</time>
      </trkpt>
      <trkpt lat="49.0528" lon="7.79185">
        <ele>346.3156041087</ele>
        <time>2021-03-30T12:28:41.945Z</time>
      </trkpt>
      <trkpt lat="49.0526" lon="7.79138">
        <ele>347.98626421496</ele>
        <time>2021-03-30T12:28:46.801Z</time>
      </trkpt>
      <trkpt lat="49.05241" lon="7.79105">
        <ele>350.08008278469</ele>
        <time>2021-03-30T12:28:51.666Z</time>
      </trkpt>
      <trkpt lat="49.05222" lon="7.79084">
        <ele>352.39502042398</ele>
        <time>2021-03-30T12:28:56.539Z</time>
      </trkpt>
      <trkpt lat="49.05213" lon="7.79068">
        <ele>355.05767543382</ele>
        <time>2021-03-30T12:29:01.417Z</time>
      </trkpt>
      <trkpt lat="49.05224" lon="7.7906">
        <ele>358.19403762164</ele>
        <time>2021-03-30T12:29:06.299Z</time>
      </trkpt>
      <trkpt lat="49.05243" lon="7.79079">
        <ele>361.59761142099</ele>
        <time>2021-03-30T12:29:11.189Z</time>
      </trkpt>
      <trkpt lat="49.05281" lon="7.7911">
        <ele>365.31089196483</ele>
        <time>2021-03-30T12:29:16.093Z</time>
      </trkpt>
      <trkpt lat="49.05307" lon="7.79117">
        <ele>369.85487429233</ele>
        <time>2021-03-30T12:29:21.006Z</time>
      </trkpt>
      <trkpt lat="49.05332" lon="7.79112">
        <ele>375.17817929297</ele>
        <time>2021-03-30T12:29:25.927Z</time>
      </trkpt>
      <trkpt lat="49.05273" lon="7.79047">
        <ele>382.01877961455</ele>
        <time>2021-03-30T12:29:30.872Z</time>
      </trkpt>
      <trkpt lat="49.05168" lon="7.78954">
        <ele>388.95335949488</ele>
        <time>2021-03-30T12:29:35.858Z</time>
      </trkpt>
      <trkpt lat="49.05125" lon="7.789">
        <ele>396.72339298407</ele>
        <time>2021-03-30T12:29:40.862Z</time>
      </trkpt>
      <trkpt lat="49.05087" lon="7.78853">
        <ele>404.50766642229</ele>
        <time>2021-03-30T12:29:45.883Z</time>
      </trkpt>
      <trkpt lat="49.05068" lon="7.78812">
        <ele>412.54029130096</ele>
        <time>2021-03-30T12:29:50.915Z</time>
      </trkpt>
      <trkpt lat="49.05052" lon="7.78769">
        <ele>420.68343421072</ele>
        <time>2021-03-30T12:29:55.958Z</time>
      </trkpt>
      <trkpt lat="49.05056" lon="7.78714">
        <ele>429.04904173565</ele>
        <time>2021-03-30T12:30:01.013Z</time>
      </trkpt>
      <trkpt lat="49.05072" lon="7.78672">
        <ele>437.21798156483</ele>
        <time>2021-03-30T12:30:06.079Z</time>
      </trkpt>
      <trkpt lat="49.05104" lon="7.78628">
        <ele>445.03153056135</ele>
        <time>2021-03-30T12:30:11.159Z</time>
      </trkpt>
      <trkpt lat="49.05174" lon="7.78567">
        <ele>452.73244951075</ele>
        <time>2021-03-30T12:30:16.266Z</time>
      </trkpt>
      <trkpt lat="49.0529" lon="7.78454">
        <ele>459.73998588372</ele>
        <time>2021-03-30T12:30:21.419Z</time>
      </trkpt>
      <trkpt lat="49.05354" lon="7.78365">
        <ele>465.8993566533</ele>
        <time>2021-03-30T12:30:26.601Z</time>
      </trkpt>
      <trkpt lat="49.05418" lon="7.78235">
        <ele>470.90802024853</ele>
        <time>2021-03-30T12:30:31.818Z</time>
      </trkpt>
      <trkpt lat="49.05437" lon="7.78192">
        <ele>474.55216495091</ele>
        <time>2021-03-30T12:30:37.047Z</time>
      </trkpt>
      <trkpt lat="49.05446" lon="7.78142">
        <ele>476.7188868836</ele>
        <time>2021-03-30T12:30:42.287Z</time>
      </trkpt>
      <trkpt lat="49.05452" lon="7.78108">
        <ele>477.66515049203</ele>
        <time>2021-03-30T12:30:47.535Z</time>
      </trkpt>
      <trkpt lat="49.05441" lon="7.78089">
        <ele>477.48252009297</ele>
        <time>2021-03-30T12:30:52.788Z</time>
      </trkpt>
      <trkpt lat="49.05424" lon="7.78041">
        <ele>475.83260751824</ele>
        <time>2021-03-30T12:30:58.053Z</time>
      </trkpt>
      <trkpt lat="49.05411" lon="7.78018">
        <ele>473.32014580716</ele>
        <time>2021-03-30T12:31:03.325Z</time>
      </trkpt>
      <trkpt lat="49.05392" lon="7.77991">
        <ele>469.98551495287</ele>
        <time>2021-03-30T12:31:08.605Z</time>
      </trkpt>
      <trkpt lat="49.05353" lon="7.7795">
        <ele>465.97282096353</ele>
        <time>2021-03-30T12:31:13.901Z</time>
      </trkpt>
      <trkpt lat="49.05323" lon="7.77921">
        <ele>461.39917582691</ele>
        <time>2021-03-30T12:31:19.209Z</time>
      </trkpt>
      <trkpt lat="49.05299" lon="7.77898">
        <ele>456.47178461282</ele>
        <time>2021-03-30T12:31:24.527Z</time>
      </trkpt>
      <trkpt lat="49.05267" lon="7.77871">
        <ele>451.19776021179</ele>
        <time>2021-03-30T12:31:29.857Z</time>
      </trkpt>
      <trkpt lat="49.05221" lon="7.77829">
        <ele>445.58495730822</ele>
        <time>2021-03-30T12:31:35.205Z</time>
      </trkpt>
      <trkpt lat="49.05193" lon="7.77805">
        <ele>440.1740809159</ele>
        <time>2021-03-30T12:31:40.564Z</time>
      </trkpt>
      <trkpt lat="49.05168" lon="7.77784">
        <ele>434.77867728846</ele>
        <time>2021-03-30T12:31:45.932Z</time>
      </trkpt>
      <trkpt lat="49.05146" lon="7.77769">
        <ele>429.62858851194</ele>
        <time>2021-03-30T12:31:51.308Z</time>
      </trkpt>
      <trkpt lat="49.05123" lon="7.77755">
        <ele>424.71751396808</ele>
        <time>2021-03-30T12:31:56.692Z</time>
      </trkpt>
      <trkpt lat="49.05111" lon="7.77736">
        <ele>419.74792075737</ele>
        <time>2021-03-30T12:32:02.082Z</time>
      </trkpt>
      <trkpt lat="49.05098" lon="7.77717">
        <ele>414.9445389717</ele>
        <time>2021-03-30T12:32:07.478Z</time>
      </trkpt>
      <trkpt lat="49.05084" lon="7.77697">
        <ele>410.31604754828</ele>
        <time>2021-03-30T12:32:12.881Z</time>
      </trkpt>
      <trkpt lat="49.05055" lon="7.77647">
        <ele>405.75766130573</ele>
        <time>2021-03-30T12:32:18.298Z</time>
      </trkpt>
      <trkpt lat="49.05031" lon="7.77619">
        <ele>401.48848431964</ele>
        <time>2021-03-30T12:32:23.725Z</time>
      </trkpt>
      <trkpt lat="49.05011" lon="7.77597">
        <ele>397.43962290445</ele>
        <time>2021-03-30T12:32:29.161Z</time>
      </trkpt>
      <trkpt lat="49.04993" lon="7.77584">
        <ele>393.52371988813</ele>
        <time>2021-03-30T12:32:34.603Z</time>
      </trkpt>
      <trkpt lat="49.04993" lon="7.77584">
        <ele>389.72312851313</ele>
        <time>2021-03-30T12:32:40.045Z</time>
      </trkpt>
      <trkpt lat="49.04977" lon="7.77571">
        <ele>385.8603985347</ele>
        <time>2021-03-30T12:32:45.493Z</time>
      </trkpt>
      <trkpt lat="49.04954" lon="7.77558">
        <ele>381.99548778301</ele>
        <time>2021-03-30T12:32:50.949Z</time>
      </trkpt>
      <trkpt lat="49.0493" lon="7.77533">
        <ele>377.97708934433</ele>
        <time>2021-03-30T12:32:56.415Z</time>
      </trkpt>
      <trkpt lat="49.04916" lon="7.77523">
        <ele>374.17691498487</ele>
        <time>2021-03-30T12:33:01.886Z</time>
      </trkpt>
      <trkpt lat="49.04884" lon="7.77507">
        <ele>370.32072118028</ele>
        <time>2021-03-30T12:33:07.368Z</time>
      </trkpt>
      <trkpt lat="49.04844" lon="7.7749">
        <ele>366.41778624692</ele>
        <time>2021-03-30T12:33:12.864Z</time>
      </trkpt>
      <trkpt lat="49.04829" lon="7.77482">
        <ele>362.92760175619</ele>
        <time>2021-03-30T12:33:18.366Z</time>
      </trkpt>
      <trkpt lat="49.04816" lon="7.77468">
        <ele>359.52656445967</ele>
        <time>2021-03-30T12:33:23.873Z</time>
      </trkpt>
      <trkpt lat="49.04788" lon="7.7745">
        <ele>356.302213118</ele>
        <time>2021-03-30T12:33:29.390Z</time>
      </trkpt>
      <trkpt lat="49.04782" lon="7.77441">
        <ele>353.41147806434</ele>
        <time>2021-03-30T12:33:34.910Z</time>
      </trkpt>
      <trkpt lat="49.04772" lon="7.7743">
        <ele>350.71594918133</ele>
        <time>2021-03-30T12:33:40.434Z</time>
      </trkpt>
      <trkpt lat="49.04765" lon="7.77421">
        <ele>348.27104087301</ele>
        <time>2021-03-30T12:33:45.961Z</time>
      </trkpt>
      <trkpt lat="49.04756" lon="7.77425">
        <ele>346.13218352688</ele>
        <time>2021-03-30T12:33:51.491Z</time>
      </trkpt>
      <trkpt lat="49.04747" lon="7.7743">
        <ele>344.22804358312</ele>
        <time>2021-03-30T12:33:57.024Z</time>
      </trkpt>
      <trkpt lat="49.04746" lon="7.77449">
        <ele>342.58012190276</ele>
        <time>2021-03-30T12:34:02.562Z</time>
      </trkpt>
      <trkpt lat="49.04728" lon="7.77484">
        <ele>341.06726825228</ele>
        <time>2021-03-30T12:34:08.109Z</time>
      </trkpt>
      <trkpt lat="49.04713" lon="7.77478">
        <ele>339.64000203628</ele>
        <time>2021-03-30T12:34:13.661Z</time>
      </trkpt>
      <trkpt lat="49.04709" lon="7.77475">
        <ele>338.5384359542</ele>
        <time>2021-03-30T12:34:19.215Z</time>
      </trkpt>
      <trkpt lat="49.04708" lon="7.77467">
        <ele>337.66491461033</ele>
        <time>2021-03-30T12:34:24.771Z</time>
      </trkpt>
      <trkpt lat="49.04711" lon="7.77452">
        <ele>337.02964720893</ele>
        <time>2021-03-30T12:34:30.330Z</time>
      </trkpt>
      <trkpt lat="49.04698" lon="7.77439">
        <ele>336.48964955215</ele>
        <time>2021-03-30T12:34:35.894Z</time>
      </trkpt>
      <trkpt lat="49.04693" lon="7.77432">
        <ele>336.25952381524</ele>
        <time>2021-03-30T12:34:41.460Z</time>
      </trkpt>
      <trkpt lat="49.04687" lon="7.77443">
        <ele>336.26298253874</ele>
        <time>2021-03-30T12:34:47.030Z</time>
      </trkpt>
      <trkpt lat="49.04677" lon="7.77455">
        <ele>336.50017815886</ele>
        <time>2021-03-30T12:34:52.604Z</time>
      </trkpt>
      <trkpt lat="49.04662" lon="7.77428">
        <ele>337.02493846645</ele>
        <time>2021-03-30T12:34:58.186Z</time>
      </trkpt>
      <trkpt lat="49.0465" lon="7.77409">
        <ele>337.80927891631</ele>
        <time>2021-03-30T12:35:03.774Z</time>
      </trkpt>
      <trkpt lat="49.04633" lon="7.77391">
        <ele>338.84243879012</ele>
        <time>2021-03-30T12:35:09.369Z</time>
      </trkpt>
      <trkpt lat="49.04594" lon="7.77356">
        <ele>340.31972953721</ele>
        <time>2021-03-30T12:35:14.979Z</time>
      </trkpt>
      <trkpt lat="49.04569" lon="7.77341">
        <ele>341.9918232788</ele>
        <time>2021-03-30T12:35:20.598Z</time>
      </trkpt>
      <trkpt lat="49.04569" lon="7.77324">
        <ele>343.6851605457</ele>
        <time>2021-03-30T12:35:26.220Z</time>
      </trkpt>
      <trkpt lat="49.04553" lon="7.77311">
        <ele>345.53270738016</ele>
        <time>2021-03-30T12:35:31.848Z</time>
      </trkpt>
      <trkpt lat="49.04547" lon="7.77301">
        <ele>347.31683509197</ele>
        <time>2021-03-30T12:35:37.479Z</time>
      </trkpt>
      <trkpt lat="49.04541" lon="7.77289">
        <ele>349.08973621456</ele>
        <time>2021-03-30T12:35:43.114Z</time>
      </trkpt>
      <trkpt lat="49.04536" lon="7.77271">
        <ele>350.8503159747</ele>
        <time>2021-03-30T12:35:48.753Z</time>
      </trkpt>
      <trkpt lat="49.04534" lon="7.77237">
        <ele>352.55177637069</ele>
        <time>2021-03-30T12:35:54.399Z</time>
      </trkpt>
      <trkpt lat="49.04539" lon="7.77209">
        <ele>353.94706972951</ele>
        <time>2021-03-30T12:36:00.052Z</time>
      </trkpt>
      <trkpt lat="49.04528" lon="7.77184">
        <ele>355.32255466132</ele>
        <time>2021-03-30T12:36:05.711Z</time>
      </trkpt>
      <trkpt lat="49.04515" lon="7.77147">
        <ele>356.61492755838</ele>
        <time>2021-03-30T12:36:11.380Z</time>
      </trkpt>
      <trkpt lat="49.04511" lon="7.77145">
        <ele>357.73092681834</ele>
        <time>2021-03-30T12:36:17.050Z</time>
      </trkpt>
      <trkpt lat="49.04506" lon="7.77147">
        <ele>358.69551261424</ele>
        <time>2021-03-30T12:36:22.722Z</time>
      </trkpt>
      <trkpt lat="49.04506" lon="7.77173">
        <ele>359.50807811174</ele>
        <time>2021-03-30T12:36:28.399Z</time>
      </trkpt>
      <trkpt lat="49.04506" lon="7.77199">
        <ele>360.18190751267</ele>
        <time>2021-03-30T12:36:34.082Z</time>
      </trkpt>
      <trkpt lat="49.0449" lon="7.77193">
        <ele>360.67046326748</ele>
        <time>2021-03-30T12:36:39.771Z</time>
      </trkpt>
      <trkpt lat="49.04506" lon="7.77199">
        <ele>360.18190751267</ele>
        <time>2021-03-30T12:36:45.465Z</time>
      </trkpt>
      <trkpt lat="49.04506" lon="7.77173">
        <ele>359.50807811174</ele>
        <time>2021-03-30T12:36:51.165Z</time>
      </trkpt>
      <trkpt lat="49.04506" lon="7.77147">
        <ele>358.69551261424</ele>
        <time>2021-03-30T12:36:56.870Z</time>
      </trkpt>
      <trkpt lat="49.04511" lon="7.77145">
        <ele>357.73092681834</ele>
        <time>2021-03-30T12:37:02.577Z</time>
      </trkpt>
      <trkpt lat="49.04515" lon="7.77147">
        <ele>356.61492755838</ele>
        <time>2021-03-30T12:37:08.286Z</time>
      </trkpt>
      <trkpt lat="49.04528" lon="7.77184">
        <ele>355.32255466132</ele>
        <time>2021-03-30T12:37:14.004Z</time>
      </trkpt>
      <trkpt lat="49.04539" lon="7.77209">
        <ele>353.94706972951</ele>
        <time>2021-03-30T12:37:19.729Z</time>
      </trkpt>
      <trkpt lat="49.04534" lon="7.77237">
        <ele>352.55177637069</ele>
        <time>2021-03-30T12:37:25.460Z</time>
      </trkpt>
      <trkpt lat="49.04536" lon="7.77271">
        <ele>350.8503159747</ele>
        <time>2021-03-30T12:37:31.198Z</time>
      </trkpt>
      <trkpt lat="49.04541" lon="7.77289">
        <ele>349.08973621456</ele>
        <time>2021-03-30T12:37:36.941Z</time>
      </trkpt>
      <trkpt lat="49.04547" lon="7.77301">
        <ele>347.31683509197</ele>
        <time>2021-03-30T12:37:42.687Z</time>
      </trkpt>
      <trkpt lat="49.04553" lon="7.77311">
        <ele>345.53270738016</ele>
        <time>2021-03-30T12:37:48.436Z</time>
      </trkpt>
      <trkpt lat="49.04569" lon="7.77324">
        <ele>343.6851605457</ele>
        <time>2021-03-30T12:37:54.191Z</time>
      </trkpt>
      <trkpt lat="49.0456" lon="7.7734">
        <ele>352.6602393333</ele>
        <time>2021-03-30T12:37:59.951Z</time>
      </trkpt>
      <trkpt lat="49.04524" lon="7.77339">
        <ele>351.64704464532</ele>
        <time>2021-03-30T12:38:05.723Z</time>
      </trkpt>
      <trkpt lat="49.04502" lon="7.7734">
        <ele>350.36165967325</ele>
        <time>2021-03-30T12:38:11.502Z</time>
      </trkpt>
      <trkpt lat="49.04481" lon="7.77334">
        <ele>348.92028481178</ele>
        <time>2021-03-30T12:38:17.288Z</time>
      </trkpt>
      <trkpt lat="49.04449" lon="7.77318">
        <ele>347.32401615442</ele>
        <time>2021-03-30T12:38:23.085Z</time>
      </trkpt>
      <trkpt lat="49.04422" lon="7.77295">
        <ele>345.49429047738</ele>
        <time>2021-03-30T12:38:28.893Z</time>
      </trkpt>
      <trkpt lat="49.04393" lon="7.77284">
        <ele>343.32922504895</ele>
        <time>2021-03-30T12:38:34.710Z</time>
      </trkpt>
      <trkpt lat="49.04393" lon="7.77284">
        <ele>341.11074916386</ele>
        <time>2021-03-30T12:38:40.527Z</time>
      </trkpt>
      <trkpt lat="49.04368" lon="7.77284">
        <ele>338.527153277</ele>
        <time>2021-03-30T12:38:46.353Z</time>
      </trkpt>
      <trkpt lat="49.04353" lon="7.77278">
        <ele>335.77153840103</ele>
        <time>2021-03-30T12:38:52.184Z</time>
      </trkpt>
      <trkpt lat="49.04323" lon="7.77262">
        <ele>332.61685855499</ele>
        <time>2021-03-30T12:38:58.025Z</time>
      </trkpt>
      <trkpt lat="49.04293" lon="7.77225">
        <ele>329.22542987105</ele>
        <time>2021-03-30T12:39:03.880Z</time>
      </trkpt>
      <trkpt lat="49.04247" lon="7.77181">
        <ele>325.7035711891</ele>
        <time>2021-03-30T12:39:09.752Z</time>
      </trkpt>
      <trkpt lat="49.04246" lon="7.7718">
        <ele>322.28316554227</ele>
        <time>2021-03-30T12:39:15.625Z</time>
      </trkpt>
      <trkpt lat="49.04234" lon="7.77147">
        <ele>318.59893654543</ele>
        <time>2021-03-30T12:39:21.506Z</time>
      </trkpt>
      <trkpt lat="49.0423" lon="7.77123">
        <ele>314.8325766706</ele>
        <time>2021-03-30T12:39:27.393Z</time>
      </trkpt>
      <trkpt lat="49.04227" lon="7.77091">
        <ele>310.92541014679</ele>
        <time>2021-03-30T12:39:33.287Z</time>
      </trkpt>
      <trkpt lat="49.04225" lon="7.77047">
        <ele>306.91364679998</ele>
        <time>2021-03-30T12:39:39.190Z</time>
      </trkpt>
      <trkpt lat="49.04221" lon="7.77012">
        <ele>302.89747577421</ele>
        <time>2021-03-30T12:39:45.101Z</time>
      </trkpt>
      <trkpt lat="49.04212" lon="7.76968">
        <ele>298.82019951173</ele>
        <time>2021-03-30T12:39:51.022Z</time>
      </trkpt>
      <trkpt lat="49.04203" lon="7.76941">
        <ele>294.7985433187</ele>
        <time>2021-03-30T12:39:56.950Z</time>
      </trkpt>
      <trkpt lat="49.04192" lon="7.76919">
        <ele>290.71434158087</ele>
        <time>2021-03-30T12:40:02.884Z</time>
      </trkpt>
      <trkpt lat="49.04179" lon="7.769">
        <ele>286.6623070554</ele>
        <time>2021-03-30T12:40:08.824Z</time>
      </trkpt>
      <trkpt lat="49.04159" lon="7.76876">
        <ele>282.57653810861</ele>
        <time>2021-03-30T12:40:14.772Z</time>
      </trkpt>
      <trkpt lat="49.04151" lon="7.76859">
        <ele>278.57822303531</ele>
        <time>2021-03-30T12:40:20.725Z</time>
      </trkpt>
      <trkpt lat="49.04142" lon="7.76838">
        <ele>274.55875985788</ele>
        <time>2021-03-30T12:40:26.684Z</time>
      </trkpt>
      <trkpt lat="49.0413" lon="7.76807">
        <ele>270.50333195633</ele>
        <time>2021-03-30T12:40:32.650Z</time>
      </trkpt>
      <trkpt lat="49.04117" lon="7.76771">
        <ele>266.49202000469</ele>
        <time>2021-03-30T12:40:38.625Z</time>
      </trkpt>
      <trkpt lat="49.04106" lon="7.76748">
        <ele>262.53263275905</ele>
        <time>2021-03-30T12:40:44.607Z</time>
      </trkpt>
      <trkpt lat="49.04083" lon="7.76712">
        <ele>258.43392959727</ele>
        <time>2021-03-30T12:40:50.600Z</time>
      </trkpt>
      <trkpt lat="49.04064" lon="7.76686">
        <ele>254.30455183514</ele>
        <time>2021-03-30T12:40:56.601Z</time>
      </trkpt>
      <trkpt lat="49.04048" lon="7.76666">
        <ele>250.1965473393</ele>
        <time>2021-03-30T12:41:02.609Z</time>
      </trkpt>
      <trkpt lat="49.04026" lon="7.76647">
        <ele>246.08870844172</ele>
        <time>2021-03-30T12:41:08.626Z</time>
      </trkpt>
      <trkpt lat="49.04009" lon="7.7663">
        <ele>242.08489613206</ele>
        <time>2021-03-30T12:41:14.650Z</time>
      </trkpt>
      <trkpt lat="49.03992" lon="7.76625">
        <ele>238.07590142733</ele>
        <time>2021-03-30T12:41:20.679Z</time>
      </trkpt>
      <trkpt lat="49.03976" lon="7.76623">
        <ele>234.13665586255</ele>
        <time>2021-03-30T12:41:26.713Z</time>
      </trkpt>
      <trkpt lat="49.03946" lon="7.76626">
        <ele>230.16415272862</ele>
        <time>2021-03-30T12:41:32.758Z</time>
      </trkpt>
      <trkpt lat="49.03935" lon="7.76625">
        <ele>226.58198026324</ele>
        <time>2021-03-30T12:41:38.806Z</time>
      </trkpt>
      <trkpt lat="49.03929" lon="7.76619">
        <ele>223.26641663527</ele>
        <time>2021-03-30T12:41:44.857Z</time>
      </trkpt>
      <trkpt lat="49.03924" lon="7.76615">
        <ele>220.25333556365</ele>
        <time>2021-03-30T12:41:50.909Z</time>
      </trkpt>
      <trkpt lat="49.03919" lon="7.76611">
        <ele>217.58164834892</ele>
        <time>2021-03-30T12:41:56.963Z</time>
      </trkpt>
      <trkpt lat="49.03911" lon="7.76601">
        <ele>215.25679109866</ele>
        <time>2021-03-30T12:42:03.021Z</time>
      </trkpt>
      <trkpt lat="49.03904" lon="7.7659">
        <ele>213.40055808099</ele>
        <time>2021-03-30T12:42:09.082Z</time>
      </trkpt>
      <trkpt lat="49.03901" lon="7.76582">
        <ele>212.12333638157</ele>
        <time>2021-03-30T12:42:15.145Z</time>
      </trkpt>
      <trkpt lat="49.0388" lon="7.76543">
        <ele>211.05700324328</ele>
        <time>2021-03-30T12:42:21.219Z</time>
      </trkpt>
      <trkpt lat="49.03866" lon="7.7652">
        <ele>211.05555854814</ele>
        <time>2021-03-30T12:42:27.300Z</time>
      </trkpt>
      <trkpt lat="49.03846" lon="7.76502">
        <ele>211.95918011667</ele>
        <time>2021-03-30T12:42:33.389Z</time>
      </trkpt>
      <trkpt lat="49.03837" lon="7.76502">
        <ele>213.48827673834</ele>
        <time>2021-03-30T12:42:39.481Z</time>
      </trkpt>
      <trkpt lat="49.03829" lon="7.76503">
        <ele>215.66449636592</ele>
        <time>2021-03-30T12:42:45.576Z</time>
      </trkpt>
      <trkpt lat="49.03822" lon="7.76505">
        <ele>218.45562871109</ele>
        <time>2021-03-30T12:42:51.673Z</time>
      </trkpt>
      <trkpt lat="49.03808" lon="7.76503">
        <ele>221.98581474238</ele>
        <time>2021-03-30T12:42:57.775Z</time>
      </trkpt>
      <trkpt lat="49.03797" lon="7.765">
        <ele>226.05129893885</ele>
        <time>2021-03-30T12:43:03.880Z</time>
      </trkpt>
      <trkpt lat="49.03789" lon="7.76491">
        <ele>230.59238035989</ele>
        <time>2021-03-30T12:43:09.989Z</time>
      </trkpt>
      <trkpt lat="49.0378" lon="7.76475">
        <ele>235.58298736544</ele>
        <time>2021-03-30T12:43:16.102Z</time>
      </trkpt>
      <trkpt lat="49.03772" lon="7.76452">
        <ele>240.97865444244</ele>
        <time>2021-03-30T12:43:22.221Z</time>
      </trkpt>
      <trkpt lat="49.03759" lon="7.76407">
        <ele>246.75360015247</ele>
        <time>2021-03-30T12:43:28.351Z</time>
      </trkpt>
      <trkpt lat="49.03749" lon="7.76355">
        <ele>252.67651934202</ele>
        <time>2021-03-30T12:43:34.493Z</time>
      </trkpt>
      <trkpt lat="49.03748" lon="7.76352">
        <ele>258.43071449319</ele>
        <time>2021-03-30T12:43:40.635Z</time>
      </trkpt>
      <trkpt lat="49.0374" lon="7.76318">
        <ele>264.48001171377</ele>
        <time>2021-03-30T12:43:46.785Z</time>
      </trkpt>
      <trkpt lat="49.0373" lon="7.7629">
        <ele>270.45799157738</ele>
        <time>2021-03-30T12:43:52.942Z</time>
      </trkpt>
      <trkpt lat="49.0372" lon="7.76272">
        <ele>276.20303141487</ele>
        <time>2021-03-30T12:43:59.105Z</time>
      </trkpt>
      <trkpt lat="49.03686" lon="7.76228">
        <ele>282.01135508152</ele>
        <time>2021-03-30T12:44:05.282Z</time>
      </trkpt>
      <trkpt lat="49.03664" lon="7.76197">
        <ele>287.53792575127</ele>
        <time>2021-03-30T12:44:11.469Z</time>
      </trkpt>
      <trkpt lat="49.03644" lon="7.76166">
        <ele>292.73010889731</ele>
        <time>2021-03-30T12:44:17.666Z</time>
      </trkpt>
      <trkpt lat="49.03632" lon="7.76149">
        <ele>297.46214479389</ele>
        <time>2021-03-30T12:44:23.868Z</time>
      </trkpt>
      <trkpt lat="49.03627" lon="7.76141">
        <ele>301.74173777659</ele>
        <time>2021-03-30T12:44:30.073Z</time>
      </trkpt>
      <trkpt lat="49.03616" lon="7.76114">
        <ele>305.74728770013</ele>
        <time>2021-03-30T12:44:36.285Z</time>
      </trkpt>
      <trkpt lat="49.03606" lon="7.76086">
        <ele>309.27891544984</ele>
        <time>2021-03-30T12:44:42.504Z</time>
      </trkpt>
      <trkpt lat="49.03601" lon="7.76064">
        <ele>312.37140233538</ele>
        <time>2021-03-30T12:44:48.728Z</time>
      </trkpt>
      <trkpt lat="49.036" lon="7.76047">
        <ele>315.0746897402</ele>
        <time>2021-03-30T12:44:54.956Z</time>
      </trkpt>
      <trkpt lat="49.03599" lon="7.76032">
        <ele>317.42015094858</ele>
        <time>2021-03-30T12:45:01.187Z</time>
      </trkpt>
      <trkpt lat="49.03599" lon="7.75996">
        <ele>319.56223042071</ele>
        <time>2021-03-30T12:45:07.426Z</time>
      </trkpt>
      <trkpt lat="49.03597" lon="7.75986">
        <ele>321.26997555954</ele>
        <time>2021-03-30T12:45:13.667Z</time>
      </trkpt>
      <trkpt lat="49.03597" lon="7.75982">
        <ele>322.69056691918</ele>
        <time>2021-03-30T12:45:19.909Z</time>
      </trkpt>
      <trkpt lat="49.03597" lon="7.75973">
        <ele>323.90254654668</ele>
        <time>2021-03-30T12:45:26.153Z</time>
      </trkpt>
      <trkpt lat="49.03597" lon="7.75966">
        <ele>324.91065207577</ele>
        <time>2021-03-30T12:45:32.398Z</time>
      </trkpt>
      <trkpt lat="49.03597" lon="7.75958">
        <ele>325.75412693807</ele>
        <time>2021-03-30T12:45:38.645Z</time>
      </trkpt>
      <trkpt lat="49.03596" lon="7.75949">
        <ele>326.44372050369</ele>
        <time>2021-03-30T12:45:44.894Z</time>
      </trkpt>
      <trkpt lat="49.03593" lon="7.75937">
        <ele>327.01990569631</ele>
        <time>2021-03-30T12:45:51.146Z</time>
      </trkpt>
      <trkpt lat="49.03591" lon="7.75927">
        <ele>327.48023710554</ele>
        <time>2021-03-30T12:45:57.400Z</time>
      </trkpt>
      <trkpt lat="49.03596" lon="7.75918">
        <ele>327.92096478078</ele>
        <time>2021-03-30T12:46:03.657Z</time>
      </trkpt>
      <trkpt lat="49.03596" lon="7.7591">
        <ele>328.22882740087</ele>
        <time>2021-03-30T12:46:09.916Z</time>
      </trkpt>
      <trkpt lat="49.03594" lon="7.75901">
        <ele>328.45678643771</ele>
        <time>2021-03-30T12:46:16.177Z</time>
      </trkpt>
      <trkpt lat="49.03591" lon="7.75893">
        <ele>328.60650046637</ele>
        <time>2021-03-30T12:46:22.440Z</time>
      </trkpt>
      <trkpt lat="49.03586" lon="7.75882">
        <ele>328.70572892128</ele>
        <time>2021-03-30T12:46:28.706Z</time>
      </trkpt>
      <trkpt lat="49.03581" lon="7.7587">
        <ele>328.79891822465</ele>
        <time>2021-03-30T12:46:34.975Z</time>
      </trkpt>
      <trkpt lat="49.03575" lon="7.75858">
        <ele>328.81940852279</ele>
        <time>2021-03-30T12:46:41.247Z</time>
      </trkpt>
      <trkpt lat="49.03571" lon="7.75847">
        <ele>328.8440265574</ele>
        <time>2021-03-30T12:46:47.522Z</time>
      </trkpt>
      <trkpt lat="49.03563" lon="7.75833">
        <ele>328.81808439894</ele>
        <time>2021-03-30T12:46:53.801Z</time>
      </trkpt>
      <trkpt lat="49.03558" lon="7.75821">
        <ele>328.84097296077</ele>
        <time>2021-03-30T12:47:00.083Z</time>
      </trkpt>
      <trkpt lat="49.03557" lon="7.7582">
        <ele>328.88505677026</ele>
        <time>2021-03-30T12:47:06.366Z</time>
      </trkpt>
      <trkpt lat="49.03553" lon="7.75809">
        <ele>328.97844554682</ele>
        <time>2021-03-30T12:47:12.651Z</time>
      </trkpt>
      <trkpt lat="49.0355" lon="7.75799">
        <ele>329.11981650671</ele>
        <time>2021-03-30T12:47:18.939Z</time>
      </trkpt>
      <trkpt lat="49.03548" lon="7.75784">
        <ele>329.37345556403</ele>
        <time>2021-03-30T12:47:25.230Z</time>
      </trkpt>
      <trkpt lat="49.03547" lon="7.75769">
        <ele>329.67969506174</ele>
        <time>2021-03-30T12:47:31.524Z</time>
      </trkpt>
      <trkpt lat="49.03546" lon="7.75755">
        <ele>330.03406795066</ele>
        <time>2021-03-30T12:47:37.822Z</time>
      </trkpt>
      <trkpt lat="49.03546" lon="7.75739">
        <ele>330.45033396084</ele>
        <time>2021-03-30T12:47:44.123Z</time>
      </trkpt>
      <trkpt lat="49.03546" lon="7.75723">
        <ele>330.90546546208</ele>
        <time>2021-03-30T12:47:50.428Z</time>
      </trkpt>
      <trkpt lat="49.03546" lon="7.75707">
        <ele>331.37827057368</ele>
        <time>2021-03-30T12:47:56.736Z</time>
      </trkpt>
      <trkpt lat="49.03546" lon="7.7569">
        <ele>331.87052233629</ele>
        <time>2021-03-30T12:48:03.048Z</time>
      </trkpt>
      <trkpt lat="49.03547" lon="7.75675">
        <ele>332.45963073269</ele>
        <time>2021-03-30T12:48:09.363Z</time>
      </trkpt>
      <trkpt lat="49.03547" lon="7.75659">
        <ele>333.07470239147</ele>
        <time>2021-03-30T12:48:15.682Z</time>
      </trkpt>
      <trkpt lat="49.03548" lon="7.75643">
        <ele>333.79208135097</ele>
        <time>2021-03-30T12:48:22.004Z</time>
      </trkpt>
      <trkpt lat="49.03551" lon="7.75626">
        <ele>334.69611576937</ele>
        <time>2021-03-30T12:48:28.330Z</time>
      </trkpt>
      <trkpt lat="49.03555" lon="7.75594">
        <ele>335.61809289479</ele>
        <time>2021-03-30T12:48:34.663Z</time>
      </trkpt>
      <trkpt lat="49.03557" lon="7.75575">
        <ele>336.5833508066</ele>
        <time>2021-03-30T12:48:41.000Z</time>
      </trkpt>
      <trkpt lat="49.03557" lon="7.7556">
        <ele>337.5177875073</ele>
        <time>2021-03-30T12:48:47.341Z</time>
      </trkpt>
      <trkpt lat="49.03557" lon="7.75543">
        <ele>338.51528833578</ele>
        <time>2021-03-30T12:48:53.685Z</time>
      </trkpt>
      <trkpt lat="49.03558" lon="7.75526">
        <ele>339.50888626106</ele>
        <time>2021-03-30T12:49:00.033Z</time>
      </trkpt>
      <trkpt lat="49.0356" lon="7.75511">
        <ele>340.50715600163</ele>
        <time>2021-03-30T12:49:06.384Z</time>
      </trkpt>
      <trkpt lat="49.03561" lon="7.75496">
        <ele>341.44320983273</ele>
        <time>2021-03-30T12:49:12.739Z</time>
      </trkpt>
      <trkpt lat="49.03562" lon="7.75485">
        <ele>342.34758897506</ele>
        <time>2021-03-30T12:49:19.096Z</time>
      </trkpt>
      <trkpt lat="49.03562" lon="7.75482">
        <ele>343.15982349449</ele>
        <time>2021-03-30T12:49:25.454Z</time>
      </trkpt>
      <trkpt lat="49.03563" lon="7.75467">
        <ele>343.95497315942</ele>
        <time>2021-03-30T12:49:31.815Z</time>
      </trkpt>
      <trkpt lat="49.03564" lon="7.75452">
        <ele>344.68049664211</ele>
        <time>2021-03-30T12:49:38.180Z</time>
      </trkpt>
      <trkpt lat="49.03564" lon="7.7544">
        <ele>345.28969090533</ele>
        <time>2021-03-30T12:49:44.547Z</time>
      </trkpt>
      <trkpt lat="49.03564" lon="7.75434">
        <ele>345.82214012381</ele>
        <time>2021-03-30T12:49:50.915Z</time>
      </trkpt>
      <trkpt lat="49.03565" lon="7.75419">
        <ele>346.31227340198</ele>
        <time>2021-03-30T12:49:57.287Z</time>
      </trkpt>
      <trkpt lat="49.03565" lon="7.75406">
        <ele>346.66457463192</ele>
        <time>2021-03-30T12:50:03.662Z</time>
      </trkpt>
      <trkpt lat="49.03566" lon="7.75392">
        <ele>346.97794904046</ele>
        <time>2021-03-30T12:50:10.040Z</time>
      </trkpt>
      <trkpt lat="49.03567" lon="7.75379">
        <ele>347.22512053864</ele>
        <time>2021-03-30T12:50:16.421Z</time>
      </trkpt>
      <trkpt lat="49.03568" lon="7.75364">
        <ele>347.42285237841</ele>
        <time>2021-03-30T12:50:22.805Z</time>
      </trkpt>
      <trkpt lat="49.03567" lon="7.75351">
        <ele>347.54692674448</ele>
        <time>2021-03-30T12:50:29.192Z</time>
      </trkpt>
      <trkpt lat="49.03567" lon="7.75339">
        <ele>347.66692122753</ele>
        <time>2021-03-30T12:50:35.581Z</time>
      </trkpt>
      <trkpt lat="49.03565" lon="7.75326">
        <ele>347.72394320665</ele>
        <time>2021-03-30T12:50:41.973Z</time>
      </trkpt>
      <trkpt lat="49.03563" lon="7.75314">
        <ele>347.75957575108</ele>
        <time>2021-03-30T12:50:48.368Z</time>
      </trkpt>
      <trkpt lat="49.03561" lon="7.753">
        <ele>347.83285751688</ele>
        <time>2021-03-30T12:50:54.766Z</time>
      </trkpt>
      <trkpt lat="49.0356" lon="7.75287">
        <ele>347.93678975481</ele>
        <time>2021-03-30T12:51:01.167Z</time>
      </trkpt>
      <trkpt lat="49.03559" lon="7.75276">
        <ele>348.00773713931</ele>
        <time>2021-03-30T12:51:07.570Z</time>
      </trkpt>
      <trkpt lat="49.03559" lon="7.75262">
        <ele>348.09173039591</ele>
        <time>2021-03-30T12:51:13.977Z</time>
      </trkpt>
      <trkpt lat="49.03559" lon="7.75249">
        <ele>348.13473024055</ele>
        <time>2021-03-30T12:51:20.386Z</time>
      </trkpt>
      <trkpt lat="49.03557" lon="7.75236">
        <ele>348.11380024856</ele>
        <time>2021-03-30T12:51:26.798Z</time>
      </trkpt>
      <trkpt lat="49.03555" lon="7.75225">
        <ele>348.0359636071</ele>
        <time>2021-03-30T12:51:33.213Z</time>
      </trkpt>
      <trkpt lat="49.03554" lon="7.75213">
        <ele>347.91073359804</ele>
        <time>2021-03-30T12:51:39.630Z</time>
      </trkpt>
      <trkpt lat="49.03552" lon="7.75198">
        <ele>347.71910846113</ele>
        <time>2021-03-30T12:51:46.051Z</time>
      </trkpt>
      <trkpt lat="49.03552" lon="7.75184">
        <ele>347.49517459645</ele>
        <time>2021-03-30T12:51:52.475Z</time>
      </trkpt>
      <trkpt lat="49.03551" lon="7.7517">
        <ele>347.14526983481</ele>
        <time>2021-03-30T12:51:58.902Z</time>
      </trkpt>
      <trkpt lat="49.03551" lon="7.75154">
        <ele>346.72203527607</ele>
        <time>2021-03-30T12:52:05.333Z</time>
      </trkpt>
      <trkpt lat="49.03551" lon="7.75138">
        <ele>346.19540028378</ele>
        <time>2021-03-30T12:52:11.767Z</time>
      </trkpt>
      <trkpt lat="49.03551" lon="7.75134">
        <ele>345.63752100126</ele>
        <time>2021-03-30T12:52:18.202Z</time>
      </trkpt>
      <trkpt lat="49.03551" lon="7.75131">
        <ele>345.00609543708</ele>
        <time>2021-03-30T12:52:24.638Z</time>
      </trkpt>
      <trkpt lat="49.03552" lon="7.75115">
        <ele>344.28347348323</ele>
        <time>2021-03-30T12:52:31.077Z</time>
      </trkpt>
      <trkpt lat="49.03553" lon="7.75098">
        <ele>343.47786384701</ele>
        <time>2021-03-30T12:52:37.520Z</time>
      </trkpt>
      <trkpt lat="49.03555" lon="7.75082">
        <ele>342.62415198966</ele>
        <time>2021-03-30T12:52:43.966Z</time>
      </trkpt>
      <trkpt lat="49.03557" lon="7.75068">
        <ele>341.70893450687</ele>
        <time>2021-03-30T12:52:50.416Z</time>
      </trkpt>
      <trkpt lat="49.03561" lon="7.75049">
        <ele>340.73008716688</ele>
        <time>2021-03-30T12:52:56.870Z</time>
      </trkpt>
      <trkpt lat="49.03564" lon="7.75033">
        <ele>339.72740630411</ele>
        <time>2021-03-30T12:53:03.328Z</time>
      </trkpt>
      <trkpt lat="49.03568" lon="7.75017">
        <ele>338.70409721391</ele>
        <time>2021-03-30T12:53:09.789Z</time>
      </trkpt>
      <trkpt lat="49.03572" lon="7.75005">
        <ele>337.71373669701</ele>
        <time>2021-03-30T12:53:16.253Z</time>
      </trkpt>
      <trkpt lat="49.03578" lon="7.74993">
        <ele>336.78419549408</ele>
        <time>2021-03-30T12:53:22.721Z</time>
      </trkpt>
      <trkpt lat="49.03581" lon="7.74986">
        <ele>335.86548529616</ele>
        <time>2021-03-30T12:53:29.190Z</time>
      </trkpt>
      <trkpt lat="49.03588" lon="7.74972">
        <ele>334.97519610382</ele>
        <time>2021-03-30T12:53:35.663Z</time>
      </trkpt>
      <trkpt lat="49.03595" lon="7.74957">
        <ele>334.09975796452</ele>
        <time>2021-03-30T12:53:42.140Z</time>
      </trkpt>
      <trkpt lat="49.036" lon="7.7495">
        <ele>333.35051619547</ele>
        <time>2021-03-30T12:53:48.620Z</time>
      </trkpt>
      <trkpt lat="49.03613" lon="7.74935">
        <ele>332.7056694932</ele>
        <time>2021-03-30T12:53:55.105Z</time>
      </trkpt>
      <trkpt lat="49.03621" lon="7.74925">
        <ele>332.11827336604</ele>
        <time>2021-03-30T12:54:01.593Z</time>
      </trkpt>
      <trkpt lat="49.03637" lon="7.74909">
        <ele>331.63850043782</ele>
        <time>2021-03-30T12:54:08.088Z</time>
      </trkpt>
      <trkpt lat="49.03647" lon="7.74901">
        <ele>331.27999204538</ele>
        <time>2021-03-30T12:54:14.587Z</time>
      </trkpt>
      <trkpt lat="49.03659" lon="7.74896">
        <ele>331.0865928181</ele>
        <time>2021-03-30T12:54:21.090Z</time>
      </trkpt>
      <trkpt lat="49.03667" lon="7.74893">
        <ele>331.04359190641</ele>
        <time>2021-03-30T12:54:27.596Z</time>
      </trkpt>
      <trkpt lat="49.03672" lon="7.74892">
        <ele>331.18303593098</ele>
        <time>2021-03-30T12:54:34.103Z</time>
      </trkpt>
      <trkpt lat="49.03684" lon="7.7489">
        <ele>331.49805432934</ele>
        <time>2021-03-30T12:54:40.614Z</time>
      </trkpt>
      <trkpt lat="49.037" lon="7.74888">
        <ele>332.04985508424</ele>
        <time>2021-03-30T12:54:47.131Z</time>
      </trkpt>
      <trkpt lat="49.03714" lon="7.74885">
        <ele>332.75364853238</ele>
        <time>2021-03-30T12:54:53.652Z</time>
      </trkpt>
      <trkpt lat="49.03731" lon="7.74882">
        <ele>333.6412042079</ele>
        <time>2021-03-30T12:55:00.179Z</time>
      </trkpt>
      <trkpt lat="49.03745" lon="7.7488">
        <ele>334.72662787296</ele>
        <time>2021-03-30T12:55:06.711Z</time>
      </trkpt>
      <trkpt lat="49.03763" lon="7.74874">
        <ele>335.90476002471</ele>
        <time>2021-03-30T12:55:13.249Z</time>
      </trkpt>
      <trkpt lat="49.03773" lon="7.74872">
        <ele>337.2949059034</ele>
        <time>2021-03-30T12:55:19.790Z</time>
      </trkpt>
      <trkpt lat="49.03777" lon="7.74872">
        <ele>338.80858896828</ele>
        <time>2021-03-30T12:55:26.333Z</time>
      </trkpt>
      <trkpt lat="49.03781" lon="7.74872">
        <ele>340.43205803271</ele>
        <time>2021-03-30T12:55:32.877Z</time>
      </trkpt>
      <trkpt lat="49.03788" lon="7.74872">
        <ele>342.17956347208</ele>
        <time>2021-03-30T12:55:39.423Z</time>
      </trkpt>
      <trkpt lat="49.03799" lon="7.74874">
        <ele>344.04866600744</ele>
        <time>2021-03-30T12:55:45.973Z</time>
      </trkpt>
      <trkpt lat="49.03807" lon="7.74874">
        <ele>345.90261854681</ele>
        <time>2021-03-30T12:55:52.526Z</time>
      </trkpt>
      <trkpt lat="49.03816" lon="7.74872">
        <ele>347.75308751252</ele>
        <time>2021-03-30T12:55:59.082Z</time>
      </trkpt>
      <trkpt lat="49.03824" lon="7.74864">
        <ele>349.53367611531</ele>
        <time>2021-03-30T12:56:05.641Z</time>
      </trkpt>
      <trkpt lat="49.03832" lon="7.74855">
        <ele>351.26220252019</ele>
        <time>2021-03-30T12:56:12.203Z</time>
      </trkpt>
      <trkpt lat="49.03836" lon="7.74848">
        <ele>352.83736640625</ele>
        <time>2021-03-30T12:56:18.767Z</time>
      </trkpt>
      <trkpt lat="49.03841" lon="7.7484">
        <ele>354.32687176463</ele>
        <time>2021-03-30T12:56:25.334Z</time>
      </trkpt>
      <trkpt lat="49.03845" lon="7.74831">
        <ele>355.69303221436</ele>
        <time>2021-03-30T12:56:31.903Z</time>
      </trkpt>
      <trkpt lat="49.03849" lon="7.7482">
        <ele>356.98435108815</ele>
        <time>2021-03-30T12:56:38.475Z</time>
      </trkpt>
      <trkpt lat="49.03853" lon="7.74806">
        <ele>358.19130025316</ele>
        <time>2021-03-30T12:56:45.050Z</time>
      </trkpt>
      <trkpt lat="49.03858" lon="7.7479">
        <ele>359.33741469183</ele>
        <time>2021-03-30T12:56:51.629Z</time>
      </trkpt>
      <trkpt lat="49.0386" lon="7.74782">
        <ele>360.40357234311</ele>
        <time>2021-03-30T12:56:58.210Z</time>
      </trkpt>
      <trkpt lat="49.03861" lon="7.74778">
        <ele>361.41796519742</ele>
        <time>2021-03-30T12:57:04.792Z</time>
      </trkpt>
      <trkpt lat="49.03865" lon="7.74761">
        <ele>362.41180066639</ele>
        <time>2021-03-30T12:57:11.378Z</time>
      </trkpt>
      <trkpt lat="49.03869" lon="7.74746">
        <ele>363.42779519643</ele>
        <time>2021-03-30T12:57:17.967Z</time>
      </trkpt>
      <trkpt lat="49.0387" lon="7.74731">
        <ele>364.32976155029</ele>
        <time>2021-03-30T12:57:24.560Z</time>
      </trkpt>
      <trkpt lat="49.03871" lon="7.74724">
        <ele>365.15326134049</ele>
        <time>2021-03-30T12:57:31.154Z</time>
      </trkpt>
      <trkpt lat="49.03866" lon="7.74703">
        <ele>365.79481013013</ele>
        <time>2021-03-30T12:57:37.753Z</time>
      </trkpt>
      <trkpt lat="49.0386" lon="7.7467">
        <ele>366.40532300135</ele>
        <time>2021-03-30T12:57:44.360Z</time>
      </trkpt>
      <trkpt lat="49.03857" lon="7.74653">
        <ele>366.98963123417</ele>
        <time>2021-03-30T12:57:50.970Z</time>
      </trkpt>
      <trkpt lat="49.0385" lon="7.74616">
        <ele>367.46982336711</ele>
        <time>2021-03-30T12:57:57.589Z</time>
      </trkpt>
      <trkpt lat="49.03845" lon="7.74593">
        <ele>367.7322933445</ele>
        <time>2021-03-30T12:58:04.213Z</time>
      </trkpt>
      <trkpt lat="49.03843" lon="7.74581">
        <ele>367.81102488028</ele>
        <time>2021-03-30T12:58:10.840Z</time>
      </trkpt>
      <trkpt lat="49.03837" lon="7.7456">
        <ele>367.60242798908</ele>
        <time>2021-03-30T12:58:17.472Z</time>
      </trkpt>
      <trkpt lat="49.03825" lon="7.74517">
        <ele>367.42215349794</ele>
        <time>2021-03-30T12:58:24.114Z</time>
      </trkpt>
      <trkpt lat="49.03813" lon="7.74471">
        <ele>366.98502107089</ele>
        <time>2021-03-30T12:58:30.767Z</time>
      </trkpt>
      <trkpt lat="49.03813" lon="7.74469">
        <ele>366.175069678</ele>
        <time>2021-03-30T12:58:37.420Z</time>
      </trkpt>
      <trkpt lat="49.03809" lon="7.74457">
        <ele>365.08286427105</ele>
        <time>2021-03-30T12:58:44.076Z</time>
      </trkpt>
      <trkpt lat="49.03802" lon="7.74436">
        <ele>363.73981359971</ele>
        <time>2021-03-30T12:58:50.738Z</time>
      </trkpt>
      <trkpt lat="49.03795" lon="7.74417">
        <ele>361.99543132116</ele>
        <time>2021-03-30T12:58:57.404Z</time>
      </trkpt>
      <trkpt lat="49.03788" lon="7.74404">
        <ele>359.88070438147</ele>
        <time>2021-03-30T12:59:04.074Z</time>
      </trkpt>
      <trkpt lat="49.03783" lon="7.74394">
        <ele>357.53919633659</ele>
        <time>2021-03-30T12:59:10.747Z</time>
      </trkpt>
      <trkpt lat="49.03771" lon="7.7438">
        <ele>354.82945370018</ele>
        <time>2021-03-30T12:59:17.425Z</time>
      </trkpt>
      <trkpt lat="49.03771" lon="7.7438">
        <ele>352.2646671652</ele>
        <time>2021-03-30T12:59:24.103Z</time>
      </trkpt>
      <trkpt lat="49.03762" lon="7.74366">
        <ele>349.52642297335</ele>
        <time>2021-03-30T12:59:30.785Z</time>
      </trkpt>
      <trkpt lat="49.03753" lon="7.74353">
        <ele>346.83170761496</ele>
        <time>2021-03-30T12:59:37.471Z</time>
      </trkpt>
      <trkpt lat="49.03747" lon="7.74343">
        <ele>344.45931462211</ele>
        <time>2021-03-30T12:59:44.160Z</time>
      </trkpt>
      <trkpt lat="49.03741" lon="7.74336">
        <ele>342.45984887998</ele>
        <time>2021-03-30T12:59:50.852Z</time>
      </trkpt>
      <trkpt lat="49.03732" lon="7.74327">
        <ele>340.89367206171</ele>
        <time>2021-03-30T12:59:57.547Z</time>
      </trkpt>
      <trkpt lat="49.03722" lon="7.74319">
        <ele>339.92691837033</ele>
        <time>2021-03-30T13:00:04.246Z</time>
      </trkpt>
      <trkpt lat="49.0372" lon="7.74316">
        <ele>339.82852574295</ele>
        <time>2021-03-30T13:00:10.946Z</time>
      </trkpt>
      <trkpt lat="49.03722" lon="7.74299">
        <ele>340.51231711164</ele>
        <time>2021-03-30T13:00:17.650Z</time>
      </trkpt>
      <trkpt lat="49.0373" lon="7.74286">
        <ele>342.10496555361</ele>
        <time>2021-03-30T13:00:24.358Z</time>
      </trkpt>
      <trkpt lat="49.03758" lon="7.74268">
        <ele>344.85004032113</ele>
        <time>2021-03-30T13:00:31.076Z</time>
      </trkpt>
      <trkpt lat="49.03776" lon="7.74253">
        <ele>348.13496430682</ele>
        <time>2021-03-30T13:00:37.801Z</time>
      </trkpt>
      <trkpt lat="49.03788" lon="7.74235">
        <ele>351.95311553748</ele>
        <time>2021-03-30T13:00:44.531Z</time>
      </trkpt>
      <trkpt lat="49.03813" lon="7.74201">
        <ele>356.57818767063</ele>
        <time>2021-03-30T13:00:51.272Z</time>
      </trkpt>
      <trkpt lat="49.03829" lon="7.74168">
        <ele>361.33052428203</ele>
        <time>2021-03-30T13:00:58.023Z</time>
      </trkpt>
      <trkpt lat="49.0384" lon="7.74133">
        <ele>366.35777878291</ele>
        <time>2021-03-30T13:01:04.782Z</time>
      </trkpt>
      <trkpt lat="49.03855" lon="7.74088">
        <ele>371.90961139349</ele>
        <time>2021-03-30T13:01:11.552Z</time>
      </trkpt>
      <trkpt lat="49.03858" lon="7.74063">
        <ele>377.40081131145</ele>
        <time>2021-03-30T13:01:18.328Z</time>
      </trkpt>
      <trkpt lat="49.03872" lon="7.7402">
        <ele>383.37899266129</ele>
        <time>2021-03-30T13:01:25.114Z</time>
      </trkpt>
      <trkpt lat="49.03874" lon="7.73964">
        <ele>389.09475204971</ele>
        <time>2021-03-30T13:01:31.912Z</time>
      </trkpt>
      <trkpt lat="49.03875" lon="7.7392">
        <ele>394.52239247386</ele>
        <time>2021-03-30T13:01:38.720Z</time>
      </trkpt>
      <trkpt lat="49.03873" lon="7.73881">
        <ele>399.49027266027</ele>
        <time>2021-03-30T13:01:45.537Z</time>
      </trkpt>
      <trkpt lat="49.03865" lon="7.73812">
        <ele>404.43492308016</ele>
        <time>2021-03-30T13:01:52.369Z</time>
      </trkpt>
      <trkpt lat="49.03848" lon="7.73753">
        <ele>408.48121768065</ele>
        <time>2021-03-30T13:01:59.215Z</time>
      </trkpt>
      <trkpt lat="49.0382" lon="7.73712">
        <ele>411.61251226095</ele>
        <time>2021-03-30T13:02:06.074Z</time>
      </trkpt>
      <trkpt lat="49.03791" lon="7.73689">
        <ele>413.94511068941</ele>
        <time>2021-03-30T13:02:12.944Z</time>
      </trkpt>
      <trkpt lat="49.03758" lon="7.73669">
        <ele>415.83468429302</ele>
        <time>2021-03-30T13:02:19.826Z</time>
      </trkpt>
      <trkpt lat="49.03684" lon="7.73624">
        <ele>417.53332245517</ele>
        <time>2021-03-30T13:02:26.734Z</time>
      </trkpt>
      <trkpt lat="49.03631" lon="7.73575">
        <ele>418.35179342471</ele>
        <time>2021-03-30T13:02:33.663Z</time>
      </trkpt>
      <trkpt lat="49.03615" lon="7.73573">
        <ele>418.35272524185</ele>
        <time>2021-03-30T13:02:40.598Z</time>
      </trkpt>
      <trkpt lat="49.03585" lon="7.73573">
        <ele>417.75800961483</ele>
        <time>2021-03-30T13:02:47.543Z</time>
      </trkpt>
      <trkpt lat="49.03552" lon="7.73571">
        <ele>416.66692848435</ele>
        <time>2021-03-30T13:02:54.499Z</time>
      </trkpt>
      <trkpt lat="49.03526" lon="7.73566">
        <ele>415.1391255859</ele>
        <time>2021-03-30T13:03:01.463Z</time>
      </trkpt>
      <trkpt lat="49.03503" lon="7.73563">
        <ele>413.29983432357</ele>
        <time>2021-03-30T13:03:08.435Z</time>
      </trkpt>
      <trkpt lat="49.03468" lon="7.73564">
        <ele>411.12113128106</ele>
        <time>2021-03-30T13:03:15.419Z</time>
      </trkpt>
      <trkpt lat="49.03438" lon="7.73572">
        <ele>408.885338358</ele>
        <time>2021-03-30T13:03:22.413Z</time>
      </trkpt>
      <trkpt lat="49.03414" lon="7.7358">
        <ele>406.70352110104</ele>
        <time>2021-03-30T13:03:29.415Z</time>
      </trkpt>
      <trkpt lat="49.03384" lon="7.73582">
        <ele>404.46087914318</ele>
        <time>2021-03-30T13:03:36.427Z</time>
      </trkpt>
      <trkpt lat="49.03363" lon="7.73577">
        <ele>402.38846344308</ele>
        <time>2021-03-30T13:03:43.446Z</time>
      </trkpt>
      <trkpt lat="49.03347" lon="7.73557">
        <ele>400.58974028236</ele>
        <time>2021-03-30T13:03:50.472Z</time>
      </trkpt>
      <trkpt lat="49.03336" lon="7.73514">
        <ele>399.03686963184</ele>
        <time>2021-03-30T13:03:57.508Z</time>
      </trkpt>
      <trkpt lat="49.0333" lon="7.73472">
        <ele>397.69273970983</ele>
        <time>2021-03-30T13:04:04.554Z</time>
      </trkpt>
      <trkpt lat="49.03328" lon="7.7342">
        <ele>396.45134210654</ele>
        <time>2021-03-30T13:04:11.611Z</time>
      </trkpt>
      <trkpt lat="49.0333" lon="7.73377">
        <ele>395.50534638421</ele>
        <time>2021-03-30T13:04:18.677Z</time>
      </trkpt>
      <trkpt lat="49.03339" lon="7.73343">
        <ele>394.93547782595</ele>
        <time>2021-03-30T13:04:25.752Z</time>
      </trkpt>
      <trkpt lat="49.03351" lon="7.73314">
        <ele>394.68582507338</ele>
        <time>2021-03-30T13:04:32.834Z</time>
      </trkpt>
      <trkpt lat="49.03362" lon="7.73302">
        <ele>395.0283970139</ele>
        <time>2021-03-30T13:04:39.921Z</time>
      </trkpt>
      <trkpt lat="49.03382" lon="7.7329">
        <ele>395.68302253845</ele>
        <time>2021-03-30T13:04:47.015Z</time>
      </trkpt>
      <trkpt lat="49.03405" lon="7.73288">
        <ele>396.74232355909</ele>
        <time>2021-03-30T13:04:54.116Z</time>
      </trkpt>
      <trkpt lat="49.0344" lon="7.73298">
        <ele>398.14794827529</ele>
        <time>2021-03-30T13:05:01.229Z</time>
      </trkpt>
      <trkpt lat="49.0347" lon="7.73313">
        <ele>399.87102665008</ele>
        <time>2021-03-30T13:05:08.353Z</time>
      </trkpt>
      <trkpt lat="49.03522" lon="7.73342">
        <ele>402.03346388239</ele>
        <time>2021-03-30T13:05:15.495Z</time>
      </trkpt>
      <trkpt lat="49.03551" lon="7.73358">
        <ele>404.00460822132</ele>
        <time>2021-03-30T13:05:22.648Z</time>
      </trkpt>
      <trkpt lat="49.03588" lon="7.73372">
        <ele>406.0460920891</ele>
        <time>2021-03-30T13:05:29.813Z</time>
      </trkpt>
      <trkpt lat="49.03614" lon="7.73377">
        <ele>407.68541764669</ele>
        <time>2021-03-30T13:05:36.987Z</time>
      </trkpt>
      <trkpt lat="49.03644" lon="7.7336">
        <ele>408.74441385224</ele>
        <time>2021-03-30T13:05:44.172Z</time>
      </trkpt>
      <trkpt lat="49.03664" lon="7.73339">
        <ele>409.13176316717</ele>
        <time>2021-03-30T13:05:51.365Z</time>
      </trkpt>
      <trkpt lat="49.03691" lon="7.73311">
        <ele>408.88708433219</ele>
        <time>2021-03-30T13:05:58.569Z</time>
      </trkpt>
      <trkpt lat="49.03718" lon="7.73284">
        <ele>407.94526898155</ele>
        <time>2021-03-30T13:06:05.784Z</time>
      </trkpt>
      <trkpt lat="49.03742" lon="7.73268">
        <ele>406.39784592506</ele>
        <time>2021-03-30T13:06:13.007Z</time>
      </trkpt>
      <trkpt lat="49.0377" lon="7.73259">
        <ele>404.47264145811</ele>
        <time>2021-03-30T13:06:20.240Z</time>
      </trkpt>
      <trkpt lat="49.03826" lon="7.7325">
        <ele>402.04601418558</ele>
        <time>2021-03-30T13:06:27.492Z</time>
      </trkpt>
      <trkpt lat="49.03866" lon="7.73244">
        <ele>399.33575860987</ele>
        <time>2021-03-30T13:06:34.757Z</time>
      </trkpt>
      <trkpt lat="49.03866" lon="7.73244">
        <ele>396.46705602422</ele>
        <time>2021-03-30T13:06:42.022Z</time>
      </trkpt>
      <trkpt lat="49.03904" lon="7.73236">
        <ele>393.24441589527</ele>
        <time>2021-03-30T13:06:49.300Z</time>
      </trkpt>
      <trkpt lat="49.03967" lon="7.73215">
        <ele>389.80923429751</ele>
        <time>2021-03-30T13:06:56.599Z</time>
      </trkpt>
      <trkpt lat="49.04004" lon="7.73206">
        <ele>386.72842317432</ele>
        <time>2021-03-30T13:07:03.911Z</time>
      </trkpt>
      <trkpt lat="49.04036" lon="7.73187">
        <ele>383.57284532213</ele>
        <time>2021-03-30T13:07:11.234Z</time>
      </trkpt>
      <trkpt lat="49.04058" lon="7.73181">
        <ele>380.98443914723</ele>
        <time>2021-03-30T13:07:18.565Z</time>
      </trkpt>
      <trkpt lat="49.04088" lon="7.73165">
        <ele>378.69037868809</ele>
        <time>2021-03-30T13:07:25.906Z</time>
      </trkpt>
      <trkpt lat="49.04123" lon="7.73146">
        <ele>376.86612700345</ele>
        <time>2021-03-30T13:07:33.260Z</time>
      </trkpt>
      <trkpt lat="49.04171" lon="7.73115">
        <ele>375.73257208883</ele>
        <time>2021-03-30T13:07:40.631Z</time>
      </trkpt>
      <trkpt lat="49.04211" lon="7.73087">
        <ele>375.15346171907</ele>
        <time>2021-03-30T13:07:48.017Z</time>
      </trkpt>
      <trkpt lat="49.04242" lon="7.73057">
        <ele>375.30191467455</ele>
        <time>2021-03-30T13:07:55.415Z</time>
      </trkpt>
      <trkpt lat="49.04253" lon="7.73042">
        <ele>376.0444938182</ele>
        <time>2021-03-30T13:08:02.818Z</time>
      </trkpt>
      <trkpt lat="49.04252" lon="7.73028">
        <ele>377.26268796068</ele>
        <time>2021-03-30T13:08:10.224Z</time>
      </trkpt>
      <trkpt lat="49.04248" lon="7.7302">
        <ele>378.83080380087</ele>
        <time>2021-03-30T13:08:17.633Z</time>
      </trkpt>
      <trkpt lat="49.04236" lon="7.73007">
        <ele>380.81641415171</ele>
        <time>2021-03-30T13:08:25.046Z</time>
      </trkpt>
      <trkpt lat="49.04192" lon="7.72967">
        <ele>382.96691027222</ele>
        <time>2021-03-30T13:08:32.476Z</time>
      </trkpt>
      <trkpt lat="49.04171" lon="7.72928">
        <ele>385.60197341257</ele>
        <time>2021-03-30T13:08:39.917Z</time>
      </trkpt>
      <trkpt lat="49.04139" lon="7.72857">
        <ele>388.44498930019</ele>
        <time>2021-03-30T13:08:47.377Z</time>
      </trkpt>
      <trkpt lat="49.04119" lon="7.72801">
        <ele>391.18883971747</ele>
        <time>2021-03-30T13:08:54.851Z</time>
      </trkpt>
      <trkpt lat="49.04113" lon="7.72763">
        <ele>394.01352311353</ele>
        <time>2021-03-30T13:09:02.334Z</time>
      </trkpt>
      <trkpt lat="49.0411" lon="7.72719">
        <ele>396.73919510588</ele>
        <time>2021-03-30T13:09:09.827Z</time>
      </trkpt>
      <trkpt lat="49.04111" lon="7.72644">
        <ele>399.56984919039</ele>
        <time>2021-03-30T13:09:17.336Z</time>
      </trkpt>
      <trkpt lat="49.04113" lon="7.72601">
        <ele>402.37197878472</ele>
        <time>2021-03-30T13:09:24.855Z</time>
      </trkpt>
      <trkpt lat="49.0411" lon="7.72528">
        <ele>405.00204605385</ele>
        <time>2021-03-30T13:09:32.389Z</time>
      </trkpt>
      <trkpt lat="49.04105" lon="7.72484">
        <ele>407.36045269474</ele>
        <time>2021-03-30T13:09:39.933Z</time>
      </trkpt>
      <trkpt lat="49.041" lon="7.72441">
        <ele>409.35650463063</ele>
        <time>2021-03-30T13:09:47.487Z</time>
      </trkpt>
      <trkpt lat="49.04097" lon="7.72413">
        <ele>411.07814147122</ele>
        <time>2021-03-30T13:09:55.047Z</time>
      </trkpt>
      <trkpt lat="49.04088" lon="7.72369">
        <ele>412.45092596171</ele>
        <time>2021-03-30T13:10:02.617Z</time>
      </trkpt>
      <trkpt lat="49.04078" lon="7.72338">
        <ele>413.4762554166</ele>
        <time>2021-03-30T13:10:10.195Z</time>
      </trkpt>
      <trkpt lat="49.04066" lon="7.72295">
        <ele>414.0844643441</ele>
        <time>2021-03-30T13:10:17.783Z</time>
      </trkpt>
      <trkpt lat="49.04067" lon="7.72274">
        <ele>414.70413139534</ele>
        <time>2021-03-30T13:10:25.376Z</time>
      </trkpt>
      <trkpt lat="49.04066" lon="7.72266">
        <ele>415.26472089072</ele>
        <time>2021-03-30T13:10:32.970Z</time>
      </trkpt>
      <trkpt lat="49.0406" lon="7.72257">
        <ele>415.8007509638</ele>
        <time>2021-03-30T13:10:40.567Z</time>
      </trkpt>
      <trkpt lat="49.0406" lon="7.72246">
        <ele>416.38055412019</ele>
        <time>2021-03-30T13:10:48.166Z</time>
      </trkpt>
      <trkpt lat="49.04089" lon="7.72227">
        <ele>416.99935132478</ele>
        <time>2021-03-30T13:10:55.776Z</time>
      </trkpt>
      <trkpt lat="49.04102" lon="7.72223">
        <ele>417.81111010885</ele>
        <time>2021-03-30T13:11:03.390Z</time>
      </trkpt>
      <trkpt lat="49.04125" lon="7.72232">
        <ele>418.95061853036</ele>
        <time>2021-03-30T13:11:11.012Z</time>
      </trkpt>
      <trkpt lat="49.04177" lon="7.7223">
        <ele>420.4389754525</ele>
        <time>2021-03-30T13:11:18.652Z</time>
      </trkpt>
      <trkpt lat="49.04201" lon="7.72214">
        <ele>421.87791431096</ele>
        <time>2021-03-30T13:11:26.300Z</time>
      </trkpt>
      <trkpt lat="49.0423" lon="7.72214">
        <ele>423.68756544165</ele>
        <time>2021-03-30T13:11:33.958Z</time>
      </trkpt>
      <trkpt lat="49.04253" lon="7.72208">
        <ele>425.49156246198</ele>
        <time>2021-03-30T13:11:41.624Z</time>
      </trkpt>
      <trkpt lat="49.04282" lon="7.72183">
        <ele>427.34392461965</ele>
        <time>2021-03-30T13:11:49.301Z</time>
      </trkpt>
      <trkpt lat="49.04296" lon="7.72189">
        <ele>429.11430910075</ele>
        <time>2021-03-30T13:11:56.983Z</time>
      </trkpt>
      <trkpt lat="49.04302" lon="7.72198">
        <ele>430.73963164622</ele>
        <time>2021-03-30T13:12:04.668Z</time>
      </trkpt>
      <trkpt lat="49.04329" lon="7.72166">
        <ele>432.31396398326</ele>
        <time>2021-03-30T13:12:12.364Z</time>
      </trkpt>
      <trkpt lat="49.04352" lon="7.72131">
        <ele>433.91037621921</ele>
        <time>2021-03-30T13:12:20.071Z</time>
      </trkpt>
      <trkpt lat="49.04383" lon="7.72071">
        <ele>435.35964962307</ele>
        <time>2021-03-30T13:12:27.795Z</time>
      </trkpt>
      <trkpt lat="49.04415" lon="7.72005">
        <ele>436.40866046627</ele>
        <time>2021-03-30T13:12:35.536Z</time>
      </trkpt>
      <trkpt lat="49.04435" lon="7.71958">
        <ele>437.16915608979</ele>
        <time>2021-03-30T13:12:43.290Z</time>
      </trkpt>
      <trkpt lat="49.04442" lon="7.71934">
        <ele>437.92261987094</ele>
        <time>2021-03-30T13:12:51.050Z</time>
      </trkpt>
      <trkpt lat="49.04447" lon="7.71896">
        <ele>438.73330005687</ele>
        <time>2021-03-30T13:12:58.818Z</time>
      </trkpt>
      <trkpt lat="49.04445" lon="7.71848">
        <ele>439.52787002528</ele>
        <time>2021-03-30T13:13:06.597Z</time>
      </trkpt>
      <trkpt lat="49.04444" lon="7.71735">
        <ele>439.50614627585</ele>
        <time>2021-03-30T13:13:14.400Z</time>
      </trkpt>
      <trkpt lat="49.04444" lon="7.71716">
        <ele>439.64275258308</ele>
        <time>2021-03-30T13:13:22.207Z</time>
      </trkpt>
      <trkpt lat="49.04435" lon="7.71706">
        <ele>439.92418278541</ele>
        <time>2021-03-30T13:13:30.018Z</time>
      </trkpt>
      <trkpt lat="49.04411" lon="7.7163">
        <ele>440.12009156061</ele>
        <time>2021-03-30T13:13:37.848Z</time>
      </trkpt>
      <trkpt lat="49.04392" lon="7.71548">
        <ele>439.83694694761</ele>
        <time>2021-03-30T13:13:45.697Z</time>
      </trkpt>
      <trkpt lat="49.04378" lon="7.7147">
        <ele>439.27546728182</ele>
        <time>2021-03-30T13:13:53.563Z</time>
      </trkpt>
      <trkpt lat="49.04371" lon="7.71399">
        <ele>438.31539368786</ele>
        <time>2021-03-30T13:14:01.445Z</time>
      </trkpt>
      <trkpt lat="49.04366" lon="7.71336">
        <ele>437.18041173753</ele>
        <time>2021-03-30T13:14:09.341Z</time>
      </trkpt>
      <trkpt lat="49.04369" lon="7.71286">
        <ele>435.5900087745</ele>
        <time>2021-03-30T13:14:17.248Z</time>
      </trkpt>
      <trkpt lat="49.04374" lon="7.7123">
        <ele>433.65423082851</ele>
        <time>2021-03-30T13:14:25.167Z</time>
      </trkpt>
      <trkpt lat="49.04379" lon="7.71178">
        <ele>431.45199537416</ele>
        <time>2021-03-30T13:14:33.098Z</time>
      </trkpt>
      <trkpt lat="49.04381" lon="7.71142">
        <ele>429.07001418102</ele>
        <time>2021-03-30T13:14:41.037Z</time>
      </trkpt>
      <trkpt lat="49.04381" lon="7.71142">
        <ele>426.61703604456</ele>
        <time>2021-03-30T13:14:48.976Z</time>
      </trkpt>
      <trkpt lat="49.04384" lon="7.71078">
        <ele>423.77884234632</ele>
        <time>2021-03-30T13:14:56.929Z</time>
      </trkpt>
      <trkpt lat="49.04383" lon="7.71036">
        <ele>421.03227071525</ele>
        <time>2021-03-30T13:15:04.891Z</time>
      </trkpt>
      <trkpt lat="49.04382" lon="7.70993">
        <ele>418.21852925927</ele>
        <time>2021-03-30T13:15:12.863Z</time>
      </trkpt>
      <trkpt lat="49.0438" lon="7.70931">
        <ele>415.36845559372</ele>
        <time>2021-03-30T13:15:20.848Z</time>
      </trkpt>
      <trkpt lat="49.04384" lon="7.70915">
        <ele>412.933938306</ele>
        <time>2021-03-30T13:15:28.837Z</time>
      </trkpt>
      <trkpt lat="49.04385" lon="7.70885">
        <ele>410.67217366382</ele>
        <time>2021-03-30T13:15:36.833Z</time>
      </trkpt>
      <trkpt lat="49.04388" lon="7.7087">
        <ele>408.72088643293</ele>
        <time>2021-03-30T13:15:44.832Z</time>
      </trkpt>
      <trkpt lat="49.04385" lon="7.70849">
        <ele>406.97993365332</ele>
        <time>2021-03-30T13:15:52.836Z</time>
      </trkpt>
      <trkpt lat="49.04395" lon="7.70828">
        <ele>405.56784704395</ele>
        <time>2021-03-30T13:16:00.845Z</time>
      </trkpt>
      <trkpt lat="49.04409" lon="7.70811">
        <ele>404.48150125679</ele>
        <time>2021-03-30T13:16:08.860Z</time>
      </trkpt>
      <trkpt lat="49.04415" lon="7.70796">
        <ele>403.58315370799</ele>
        <time>2021-03-30T13:16:16.879Z</time>
      </trkpt>
      <trkpt lat="49.04424" lon="7.70793">
        <ele>402.95841533915</ele>
        <time>2021-03-30T13:16:24.901Z</time>
      </trkpt>
      <trkpt lat="49.04433" lon="7.70786">
        <ele>402.51543960865</ele>
        <time>2021-03-30T13:16:32.927Z</time>
      </trkpt>
      <trkpt lat="49.04457" lon="7.70766">
        <ele>402.06981413184</ele>
        <time>2021-03-30T13:16:40.962Z</time>
      </trkpt>
      <trkpt lat="49.04488" lon="7.70738">
        <ele>401.91995184647</ele>
        <time>2021-03-30T13:16:49.009Z</time>
      </trkpt>
      <trkpt lat="49.04531" lon="7.70698">
        <ele>401.74733471721</ele>
        <time>2021-03-30T13:16:57.072Z</time>
      </trkpt>
      <trkpt lat="49.04548" lon="7.70665">
        <ele>401.51846361986</ele>
        <time>2021-03-30T13:17:05.145Z</time>
      </trkpt>
      <trkpt lat="49.0457" lon="7.70617">
        <ele>401.14580468419</ele>
        <time>2021-03-30T13:17:13.231Z</time>
      </trkpt>
      <trkpt lat="49.04584" lon="7.70593">
        <ele>400.64090503594</ele>
        <time>2021-03-30T13:17:21.324Z</time>
      </trkpt>
      <trkpt lat="49.04593" lon="7.70586">
        <ele>399.87187884196</ele>
        <time>2021-03-30T13:17:29.420Z</time>
      </trkpt>
      <trkpt lat="49.04598" lon="7.70595">
        <ele>398.77255020271</ele>
        <time>2021-03-30T13:17:37.518Z</time>
      </trkpt>
      <trkpt lat="49.04611" lon="7.70591">
        <ele>397.34147826938</ele>
        <time>2021-03-30T13:17:45.621Z</time>
      </trkpt>
      <trkpt lat="49.04614" lon="7.70557">
        <ele>395.44901898666</ele>
        <time>2021-03-30T13:17:53.731Z</time>
      </trkpt>
      <trkpt lat="49.04614" lon="7.70522">
        <ele>393.01897400435</ele>
        <time>2021-03-30T13:18:01.849Z</time>
      </trkpt>
      <trkpt lat="49.04628" lon="7.70509">
        <ele>390.2087503377</ele>
        <time>2021-03-30T13:18:09.972Z</time>
      </trkpt>
      <trkpt lat="49.04639" lon="7.70498">
        <ele>386.97443074256</ele>
        <time>2021-03-30T13:18:18.100Z</time>
      </trkpt>
      <trkpt lat="49.04643" lon="7.70473">
        <ele>383.23866285632</ele>
        <time>2021-03-30T13:18:26.233Z</time>
      </trkpt>
      <trkpt lat="49.04648" lon="7.70448">
        <ele>379.13220324905</ele>
        <time>2021-03-30T13:18:34.372Z</time>
      </trkpt>
      <trkpt lat="49.04656" lon="7.70425">
        <ele>374.80386541288</ele>
        <time>2021-03-30T13:18:42.517Z</time>
      </trkpt>
      <trkpt lat="49.04665" lon="7.70408">
        <ele>370.56610739608</ele>
        <time>2021-03-30T13:18:50.667Z</time>
      </trkpt>
      <trkpt lat="49.04651" lon="7.70389">
        <ele>365.97636232654</ele>
        <time>2021-03-30T13:18:58.823Z</time>
      </trkpt>
      <trkpt lat="49.04636" lon="7.70371">
        <ele>361.48433859137</ele>
        <time>2021-03-30T13:19:06.985Z</time>
      </trkpt>
      <trkpt lat="49.04626" lon="7.70345">
        <ele>356.91894454197</ele>
        <time>2021-03-30T13:19:15.154Z</time>
      </trkpt>
      <trkpt lat="49.0462" lon="7.70304">
        <ele>352.37448907276</ele>
        <time>2021-03-30T13:19:23.332Z</time>
      </trkpt>
      <trkpt lat="49.04616" lon="7.70261">
        <ele>347.82632574394</ele>
        <time>2021-03-30T13:19:31.520Z</time>
      </trkpt>
      <trkpt lat="49.04603" lon="7.70196">
        <ele>343.45009269121</ele>
        <time>2021-03-30T13:19:39.723Z</time>
      </trkpt>
      <trkpt lat="49.04597" lon="7.7016">
        <ele>339.20062454199</ele>
        <time>2021-03-30T13:19:47.934Z</time>
      </trkpt>
      <trkpt lat="49.04589" lon="7.70137">
        <ele>335.23378693447</ele>
        <time>2021-03-30T13:19:56.151Z</time>
      </trkpt>
      <trkpt lat="49.04575" lon="7.70106">
        <ele>331.41452581997</ele>
        <time>2021-03-30T13:20:04.376Z</time>
      </trkpt>
      <trkpt lat="49.04545" lon="7.70068">
        <ele>327.65788257223</ele>
        <time>2021-03-30T13:20:12.614Z</time>
      </trkpt>
      <trkpt lat="49.04519" lon="7.7005">
        <ele>324.05069278253</ele>
        <time>2021-03-30T13:20:20.862Z</time>
      </trkpt>
      <trkpt lat="49.04494" lon="7.7004">
        <ele>320.40285447956</ele>
        <time>2021-03-30T13:20:29.118Z</time>
      </trkpt>
      <trkpt lat="49.04469" lon="7.70039">
        <ele>316.97976381198</ele>
        <time>2021-03-30T13:20:37.382Z</time>
      </trkpt>
      <trkpt lat="49.04469" lon="7.70039">
        <ele>313.6664107854</ele>
        <time>2021-03-30T13:20:45.646Z</time>
      </trkpt>
      <trkpt lat="49.04442" lon="7.70034">
        <ele>310.25869632532</ele>
        <time>2021-03-30T13:20:53.919Z</time>
      </trkpt>
      <trkpt lat="49.04402" lon="7.70021">
        <ele>306.67270879672</ele>
        <time>2021-03-30T13:21:02.206Z</time>
      </trkpt>
      <trkpt lat="49.04381" lon="7.70006">
        <ele>303.02133216383</ele>
        <time>2021-03-30T13:21:10.501Z</time>
      </trkpt>
      <trkpt lat="49.04355" lon="7.69989">
        <ele>299.34756071162</ele>
        <time>2021-03-30T13:21:18.805Z</time>
      </trkpt>
      <trkpt lat="49.04334" lon="7.69948">
        <ele>295.28381961552</ele>
        <time>2021-03-30T13:21:27.121Z</time>
      </trkpt>
      <trkpt lat="49.04314" lon="7.69922">
        <ele>291.50868234742</ele>
        <time>2021-03-30T13:21:35.445Z</time>
      </trkpt>
      <trkpt lat="49.04261" lon="7.69897">
        <ele>287.76545415138</ele>
        <time>2021-03-30T13:21:43.788Z</time>
      </trkpt>
      <trkpt lat="49.04226" lon="7.69883">
        <ele>283.98843275984</ele>
        <time>2021-03-30T13:21:52.143Z</time>
      </trkpt>
      <trkpt lat="49.04184" lon="7.69851">
        <ele>280.19066922578</ele>
        <time>2021-03-30T13:22:00.514Z</time>
      </trkpt>
      <trkpt lat="49.0416" lon="7.6984">
        <ele>276.69675778857</ele>
        <time>2021-03-30T13:22:08.893Z</time>
      </trkpt>
      <trkpt lat="49.04099" lon="7.69827">
        <ele>273.30044448116</ele>
        <time>2021-03-30T13:22:17.293Z</time>
      </trkpt>
      <trkpt lat="49.04071" lon="7.69814">
        <ele>269.80599629226</ele>
        <time>2021-03-30T13:22:25.702Z</time>
      </trkpt>
      <trkpt lat="49.0402" lon="7.69777">
        <ele>266.57079406049</ele>
        <time>2021-03-30T13:22:34.130Z</time>
      </trkpt>
      <trkpt lat="49.03967" lon="7.69745">
        <ele>263.79811942508</ele>
        <time>2021-03-30T13:22:42.577Z</time>
      </trkpt>
      <trkpt lat="49.0394" lon="7.69736">
        <ele>261.48103637297</ele>
        <time>2021-03-30T13:22:51.033Z</time>
      </trkpt>
      <trkpt lat="49.03911" lon="7.69724">
        <ele>259.50979916225</ele>
        <time>2021-03-30T13:22:59.500Z</time>
      </trkpt>
      <trkpt lat="49.03905" lon="7.69722">
        <ele>258.00261818308</ele>
        <time>2021-03-30T13:23:07.968Z</time>
      </trkpt>
      <trkpt lat="49.03904" lon="7.69722">
        <ele>256.84656539781</ele>
        <time>2021-03-30T13:23:16.437Z</time>
      </trkpt>
      <trkpt lat="49.03879" lon="7.69711">
        <ele>256.00742766699</ele>
        <time>2021-03-30T13:23:24.914Z</time>
      </trkpt>
      <trkpt lat="49.03845" lon="7.69694">
        <ele>255.53059017278</ele>
        <time>2021-03-30T13:23:33.403Z</time>
      </trkpt>
      <trkpt lat="49.03822" lon="7.69676">
        <ele>255.19962931857</ele>
        <time>2021-03-30T13:23:41.901Z</time>
      </trkpt>
      <trkpt lat="49.0381" lon="7.69659">
        <ele>255.02035850526</ele>
        <time>2021-03-30T13:23:50.405Z</time>
      </trkpt>
      <trkpt lat="49.03802" lon="7.69639">
        <ele>255.03453782558</ele>
        <time>2021-03-30T13:23:58.914Z</time>
      </trkpt>
      <trkpt lat="49.03797" lon="7.69628">
        <ele>255.19434039947</ele>
        <time>2021-03-30T13:24:07.426Z</time>
      </trkpt>
      <trkpt lat="49.03792" lon="7.69616">
        <ele>255.4362644053</ele>
        <time>2021-03-30T13:24:15.941Z</time>
      </trkpt>
      <trkpt lat="49.03784" lon="7.69589">
        <ele>255.71392900191</ele>
        <time>2021-03-30T13:24:24.462Z</time>
      </trkpt>
      <trkpt lat="49.0378" lon="7.69576">
        <ele>255.99579049809</ele>
        <time>2021-03-30T13:24:32.986Z</time>
      </trkpt>
      <trkpt lat="49.03776" lon="7.69561">
        <ele>256.27548195549</ele>
        <time>2021-03-30T13:24:41.514Z</time>
      </trkpt>
      <trkpt lat="49.03764" lon="7.69523">
        <ele>256.55412980843</ele>
        <time>2021-03-30T13:24:50.051Z</time>
      </trkpt>
      <trkpt lat="49.03755" lon="7.69497">
        <ele>256.95379253201</ele>
        <time>2021-03-30T13:24:58.595Z</time>
      </trkpt>
      <trkpt lat="49.03747" lon="7.69477">
        <ele>257.30271969862</ele>
        <time>2021-03-30T13:25:07.144Z</time>
      </trkpt>
      <trkpt lat="49.03737" lon="7.69448">
        <ele>257.51299507184</ele>
        <time>2021-03-30T13:25:15.700Z</time>
      </trkpt>
      <trkpt lat="49.03729" lon="7.69423">
        <ele>257.6826192983</ele>
        <time>2021-03-30T13:25:24.262Z</time>
      </trkpt>
      <trkpt lat="49.03727" lon="7.69414">
        <ele>257.84635444499</ele>
        <time>2021-03-30T13:25:32.826Z</time>
      </trkpt>
      <trkpt lat="49.03726" lon="7.69408">
        <ele>257.94878311987</ele>
        <time>2021-03-30T13:25:41.392Z</time>
      </trkpt>
      <trkpt lat="49.03724" lon="7.69376">
        <ele>257.94449781647</ele>
        <time>2021-03-30T13:25:49.965Z</time>
      </trkpt>
      <trkpt lat="49.0372" lon="7.69335">
        <ele>257.85021947219</ele>
        <time>2021-03-30T13:25:58.547Z</time>
      </trkpt>
      <trkpt lat="49.03716" lon="7.69311">
        <ele>257.59265428425</ele>
        <time>2021-03-30T13:26:07.134Z</time>
      </trkpt>
      <trkpt lat="49.03713" lon="7.69297">
        <ele>257.18168987723</ele>
        <time>2021-03-30T13:26:15.724Z</time>
      </trkpt>
      <trkpt lat="49.03708" lon="7.69278">
        <ele>256.57881910561</ele>
        <time>2021-03-30T13:26:24.319Z</time>
      </trkpt>
      <trkpt lat="49.03699" lon="7.69254">
        <ele>255.76857827253</ele>
        <time>2021-03-30T13:26:32.920Z</time>
      </trkpt>
      <trkpt lat="49.03689" lon="7.69226">
        <ele>254.88740833957</ele>
        <time>2021-03-30T13:26:41.528Z</time>
      </trkpt>
      <trkpt lat="49.03682" lon="7.6921">
        <ele>254.02188472025</ele>
        <time>2021-03-30T13:26:50.140Z</time>
      </trkpt>
      <trkpt lat="49.0367" lon="7.69186">
        <ele>253.03872202803</ele>
        <time>2021-03-30T13:26:58.759Z</time>
      </trkpt>
      <trkpt lat="49.03662" lon="7.6917">
        <ele>252.07975216462</ele>
        <time>2021-03-30T13:27:07.382Z</time>
      </trkpt>
      <trkpt lat="49.03652" lon="7.69154">
        <ele>251.15448148869</ele>
        <time>2021-03-30T13:27:16.010Z</time>
      </trkpt>
      <trkpt lat="49.03643" lon="7.69143">
        <ele>250.32414210596</ele>
        <time>2021-03-30T13:27:24.642Z</time>
      </trkpt>
      <trkpt lat="49.03635" lon="7.69134">
        <ele>249.56816852099</ele>
        <time>2021-03-30T13:27:33.277Z</time>
      </trkpt>
      <trkpt lat="49.03621" lon="7.69124">
        <ele>248.84422925306</ele>
        <time>2021-03-30T13:27:41.917Z</time>
      </trkpt>
      <trkpt lat="49.03616" lon="7.69118">
        <ele>248.195253018</ele>
        <time>2021-03-30T13:27:50.559Z</time>
      </trkpt>
      <trkpt lat="49.0361" lon="7.69117">
        <ele>247.58509885319</ele>
        <time>2021-03-30T13:27:59.203Z</time>
      </trkpt>
      <trkpt lat="49.03605" lon="7.69112">
        <ele>247.00556732199</ele>
        <time>2021-03-30T13:28:07.849Z</time>
      </trkpt>
      <trkpt lat="49.03602" lon="7.69106">
        <ele>246.47649934606</ele>
        <time>2021-03-30T13:28:16.497Z</time>
      </trkpt>
      <trkpt lat="49.036" lon="7.69102">
        <ele>246.00908775318</ele>
        <time>2021-03-30T13:28:25.146Z</time>
      </trkpt>
      <trkpt lat="49.03599" lon="7.69091">
        <ele>245.58512788726</ele>
        <time>2021-03-30T13:28:33.797Z</time>
      </trkpt>
      <trkpt lat="49.03594" lon="7.69091">
        <ele>245.25142045778</ele>
        <time>2021-03-30T13:28:42.450Z</time>
      </trkpt>
      <trkpt lat="49.03586" lon="7.69089">
        <ele>244.99691041779</ele>
        <time>2021-03-30T13:28:51.106Z</time>
      </trkpt>
    </trkseg>
  </trk>
  <trk>
    <name><![CDATA[UT53 Étape 2]]></name>
    <extensions>
      <line xmlns="http://www.topografix.com/GPX/gpx_style/0/2">
        <color>00FF00</color>
        <width>4</width>
      </line>
    </extensions>
    <trkseg>
      <trkpt lat="49.03575" lon="7.69082">
        <ele>242.42751426538</ele>
        <time>2021-03-30T12:00:07.000Z</time>
      </trkpt>
      <trkpt lat="49.03575" lon="7.69082">
        <ele>242.42751426538</ele>
        <time>2021-03-30T12:00:07.000Z</time>
      </trkpt>
      <trkpt lat="49.03575" lon="7.69086">
        <ele>242.47371365852</ele>
        <time>2021-03-30T12:00:07.001Z</time>
      </trkpt>
      <trkpt lat="49.03546" lon="7.69088">
        <ele>242.2783901722</ele>
        <time>2021-03-30T12:00:07.012Z</time>
      </trkpt>
      <trkpt lat="49.03507" lon="7.69087">
        <ele>242.26647297479</ele>
        <time>2021-03-30T12:00:07.036Z</time>
      </trkpt>
      <trkpt lat="49.03501" lon="7.69087">
        <ele>242.37429779448</ele>
        <time>2021-03-30T12:00:07.062Z</time>
      </trkpt>
      <trkpt lat="49.03497" lon="7.69087">
        <ele>242.5813903792</ele>
        <time>2021-03-30T12:00:07.089Z</time>
      </trkpt>
      <trkpt lat="49.03489" lon="7.69083">
        <ele>242.90380185683</ele>
        <time>2021-03-30T12:00:07.119Z</time>
      </trkpt>
      <trkpt lat="49.03485" lon="7.69068">
        <ele>243.31381857614</ele>
        <time>2021-03-30T12:00:07.152Z</time>
      </trkpt>
      <trkpt lat="49.03481" lon="7.6905">
        <ele>243.79337404391</ele>
        <time>2021-03-30T12:00:07.189Z</time>
      </trkpt>
      <trkpt lat="49.03476" lon="7.69032">
        <ele>244.31509947544</ele>
        <time>2021-03-30T12:00:07.231Z</time>
      </trkpt>
      <trkpt lat="49.03468" lon="7.69017">
        <ele>244.94091858836</ele>
        <time>2021-03-30T12:00:07.277Z</time>
      </trkpt>
      <trkpt lat="49.03459" lon="7.69006">
        <ele>245.67065635332</ele>
        <time>2021-03-30T12:00:07.327Z</time>
      </trkpt>
      <trkpt lat="49.03439" lon="7.68994">
        <ele>246.68659220706</ele>
        <time>2021-03-30T12:00:07.384Z</time>
      </trkpt>
      <trkpt lat="49.03429" lon="7.68988">
        <ele>247.70052219898</ele>
        <time>2021-03-30T12:00:07.445Z</time>
      </trkpt>
      <trkpt lat="49.03408" lon="7.68974">
        <ele>248.76757747837</ele>
        <time>2021-03-30T12:00:07.513Z</time>
      </trkpt>
      <trkpt lat="49.0338" lon="7.68951">
        <ele>249.89382539456</ele>
        <time>2021-03-30T12:00:07.592Z</time>
      </trkpt>
      <trkpt lat="49.03367" lon="7.68943">
        <ele>251.08270394397</ele>
        <time>2021-03-30T12:00:07.675Z</time>
      </trkpt>
      <trkpt lat="49.03335" lon="7.68915">
        <ele>252.55611046543</ele>
        <time>2021-03-30T12:00:07.771Z</time>
      </trkpt>
      <trkpt lat="49.0331" lon="7.68891">
        <ele>253.82426911965</ele>
        <time>2021-03-30T12:00:07.877Z</time>
      </trkpt>
      <trkpt lat="49.03293" lon="7.68873">
        <ele>254.92757669153</ele>
        <time>2021-03-30T12:00:07.990Z</time>
      </trkpt>
      <trkpt lat="49.03273" lon="7.68856">
        <ele>256.05559823945</ele>
        <time>2021-03-30T12:00:08.110Z</time>
      </trkpt>
      <trkpt lat="49.03255" lon="7.68841">
        <ele>257.23567025888</ele>
        <time>2021-03-30T12:00:08.237Z</time>
      </trkpt>
      <trkpt lat="49.0323" lon="7.68825">
        <ele>258.49829796632</ele>
        <time>2021-03-30T12:00:08.373Z</time>
      </trkpt>
      <trkpt lat="49.03203" lon="7.68803">
        <ele>259.76325271063</ele>
        <time>2021-03-30T12:00:08.519Z</time>
      </trkpt>
      <trkpt lat="49.03176" lon="7.68781">
        <ele>260.94301786775</ele>
        <time>2021-03-30T12:00:08.676Z</time>
      </trkpt>
      <trkpt lat="49.03159" lon="7.68767">
        <ele>261.99363413243</ele>
        <time>2021-03-30T12:00:08.839Z</time>
      </trkpt>
      <trkpt lat="49.03143" lon="7.68756">
        <ele>263.03986454624</ele>
        <time>2021-03-30T12:00:09.008Z</time>
      </trkpt>
      <trkpt lat="49.03127" lon="7.6875">
        <ele>264.11446994484</ele>
        <time>2021-03-30T12:00:09.182Z</time>
      </trkpt>
      <trkpt lat="49.03113" lon="7.68748">
        <ele>265.30876550995</ele>
        <time>2021-03-30T12:00:09.361Z</time>
      </trkpt>
      <trkpt lat="49.031" lon="7.68746">
        <ele>266.54793157551</ele>
        <time>2021-03-30T12:00:09.544Z</time>
      </trkpt>
      <trkpt lat="49.03088" lon="7.68741">
        <ele>267.76061160385</ele>
        <time>2021-03-30T12:00:09.732Z</time>
      </trkpt>
      <trkpt lat="49.03071" lon="7.68737">
        <ele>269.04003743767</ele>
        <time>2021-03-30T12:00:09.925Z</time>
      </trkpt>
      <trkpt lat="49.03054" lon="7.68737">
        <ele>270.42595433362</ele>
        <time>2021-03-30T12:00:10.124Z</time>
      </trkpt>
      <trkpt lat="49.03038" lon="7.68735">
        <ele>271.84072347024</ele>
        <time>2021-03-30T12:00:10.328Z</time>
      </trkpt>
      <trkpt lat="49.0302" lon="7.68729">
        <ele>273.38343152742</ele>
        <time>2021-03-30T12:00:10.538Z</time>
      </trkpt>
      <trkpt lat="49.03012" lon="7.68725">
        <ele>274.82724301365</ele>
        <time>2021-03-30T12:00:10.751Z</time>
      </trkpt>
      <trkpt lat="49.03006" lon="7.68722">
        <ele>276.22704981622</ele>
        <time>2021-03-30T12:00:10.966Z</time>
      </trkpt>
      <trkpt lat="49.02995" lon="7.68716">
        <ele>277.6591838715</ele>
        <time>2021-03-30T12:00:11.185Z</time>
      </trkpt>
      <trkpt lat="49.02983" lon="7.68704">
        <ele>279.11171333039</ele>
        <time>2021-03-30T12:00:11.409Z</time>
      </trkpt>
      <trkpt lat="49.02958" lon="7.68676">
        <ele>280.64226944788</ele>
        <time>2021-03-30T12:00:11.643Z</time>
      </trkpt>
      <trkpt lat="49.0294" lon="7.68653">
        <ele>282.26347610641</ele>
        <time>2021-03-30T12:00:11.885Z</time>
      </trkpt>
      <trkpt lat="49.02914" lon="7.68621">
        <ele>284.09419909302</ele>
        <time>2021-03-30T12:00:12.138Z</time>
      </trkpt>
      <trkpt lat="49.02906" lon="7.6861">
        <ele>285.78394964093</ele>
        <time>2021-03-30T12:00:12.395Z</time>
      </trkpt>
      <trkpt lat="49.0287" lon="7.68572">
        <ele>287.41153631779</ele>
        <time>2021-03-30T12:00:12.667Z</time>
      </trkpt>
      <trkpt lat="49.0284" lon="7.68532">
        <ele>289.15272212666</ele>
        <time>2021-03-30T12:00:12.952Z</time>
      </trkpt>
      <trkpt lat="49.02795" lon="7.68471">
        <ele>291.24358751963</ele>
        <time>2021-03-30T12:00:13.257Z</time>
      </trkpt>
      <trkpt lat="49.02748" lon="7.68405">
        <ele>293.18899345346</ele>
        <time>2021-03-30T12:00:13.583Z</time>
      </trkpt>
      <trkpt lat="49.02714" lon="7.68348">
        <ele>295.00159658104</ele>
        <time>2021-03-30T12:00:13.926Z</time>
      </trkpt>
      <trkpt lat="49.02692" lon="7.68312">
        <ele>296.62982786344</ele>
        <time>2021-03-30T12:00:14.280Z</time>
      </trkpt>
      <trkpt lat="49.02686" lon="7.68302">
        <ele>298.30191941496</ele>
        <time>2021-03-30T12:00:14.637Z</time>
      </trkpt>
      <trkpt lat="49.02663" lon="7.6832">
        <ele>300.19119275952</ele>
        <time>2021-03-30T12:00:15.003Z</time>
      </trkpt>
      <trkpt lat="49.02656" lon="7.68325">
        <ele>302.08727254317</ele>
        <time>2021-03-30T12:00:15.371Z</time>
      </trkpt>
      <trkpt lat="49.02659" lon="7.68315">
        <ele>304.08861745793</ele>
        <time>2021-03-30T12:00:15.742Z</time>
      </trkpt>
      <trkpt lat="49.02662" lon="7.68297">
        <ele>306.1063539281</ele>
        <time>2021-03-30T12:00:16.117Z</time>
      </trkpt>
      <trkpt lat="49.02658" lon="7.68274">
        <ele>308.16851103738</ele>
        <time>2021-03-30T12:00:16.497Z</time>
      </trkpt>
      <trkpt lat="49.02631" lon="7.68253">
        <ele>310.56463147101</ele>
        <time>2021-03-30T12:00:16.887Z</time>
      </trkpt>
      <trkpt lat="49.02593" lon="7.68228">
        <ele>313.7425900191</ele>
        <time>2021-03-30T12:00:17.291Z</time>
      </trkpt>
      <trkpt lat="49.02593" lon="7.68228">
        <ele>316.56697066403</ele>
        <time>2021-03-30T12:00:17.695Z</time>
      </trkpt>
      <trkpt lat="49.02558" lon="7.68198">
        <ele>320.11765347656</ele>
        <time>2021-03-30T12:00:18.112Z</time>
      </trkpt>
      <trkpt lat="49.02533" lon="7.68174">
        <ele>323.67001312898</ele>
        <time>2021-03-30T12:00:18.539Z</time>
      </trkpt>
      <trkpt lat="49.02512" lon="7.68151">
        <ele>327.41242454941</ele>
        <time>2021-03-30T12:00:18.975Z</time>
      </trkpt>
      <trkpt lat="49.02494" lon="7.68127">
        <ele>331.16787834353</ele>
        <time>2021-03-30T12:00:19.419Z</time>
      </trkpt>
      <trkpt lat="49.02477" lon="7.681">
        <ele>335.04404314069</ele>
        <time>2021-03-30T12:00:19.871Z</time>
      </trkpt>
      <trkpt lat="49.02467" lon="7.68072">
        <ele>338.98139615083</ele>
        <time>2021-03-30T12:00:20.330Z</time>
      </trkpt>
      <trkpt lat="49.02464" lon="7.68064">
        <ele>342.83090539947</ele>
        <time>2021-03-30T12:00:20.791Z</time>
      </trkpt>
      <trkpt lat="49.02453" lon="7.6803">
        <ele>346.79875000304</ele>
        <time>2021-03-30T12:00:21.260Z</time>
      </trkpt>
      <trkpt lat="49.02438" lon="7.67993">
        <ele>350.67103097304</ele>
        <time>2021-03-30T12:00:21.739Z</time>
      </trkpt>
      <trkpt lat="49.0243" lon="7.67959">
        <ele>354.5478166368</ele>
        <time>2021-03-30T12:00:22.226Z</time>
      </trkpt>
      <trkpt lat="49.02417" lon="7.67928">
        <ele>358.60198959045</ele>
        <time>2021-03-30T12:00:22.721Z</time>
      </trkpt>
      <trkpt lat="49.02387" lon="7.67872">
        <ele>363.06790643947</ele>
        <time>2021-03-30T12:00:23.232Z</time>
      </trkpt>
      <trkpt lat="49.02382" lon="7.67862">
        <ele>366.93284120357</ele>
        <time>2021-03-30T12:00:23.745Z</time>
      </trkpt>
      <trkpt lat="49.02377" lon="7.67849">
        <ele>370.68698582341</ele>
        <time>2021-03-30T12:00:24.262Z</time>
      </trkpt>
      <trkpt lat="49.02367" lon="7.67823">
        <ele>374.41722941505</ele>
        <time>2021-03-30T12:00:24.785Z</time>
      </trkpt>
      <trkpt lat="49.02347" lon="7.67776">
        <ele>377.97683910216</ele>
        <time>2021-03-30T12:00:25.321Z</time>
      </trkpt>
      <trkpt lat="49.02324" lon="7.67726">
        <ele>381.23903789076</ele>
        <time>2021-03-30T12:00:25.870Z</time>
      </trkpt>
      <trkpt lat="49.02303" lon="7.67683">
        <ele>384.25489346992</ele>
        <time>2021-03-30T12:00:26.431Z</time>
      </trkpt>
      <trkpt lat="49.02303" lon="7.67683">
        <ele>386.91654267593</ele>
        <time>2021-03-30T12:00:26.992Z</time>
      </trkpt>
      <trkpt lat="49.02293" lon="7.67676">
        <ele>389.36200981936</ele>
        <time>2021-03-30T12:00:27.556Z</time>
      </trkpt>
      <trkpt lat="49.02293" lon="7.67678">
        <ele>391.51422729061</ele>
        <time>2021-03-30T12:00:28.121Z</time>
      </trkpt>
      <trkpt lat="49.02272" lon="7.67728">
        <ele>393.63957529247</ele>
        <time>2021-03-30T12:00:28.699Z</time>
      </trkpt>
      <trkpt lat="49.02255" lon="7.67761">
        <ele>395.63990130437</ele>
        <time>2021-03-30T12:00:29.286Z</time>
      </trkpt>
      <trkpt lat="49.02232" lon="7.67798">
        <ele>397.222182326</ele>
        <time>2021-03-30T12:00:29.884Z</time>
      </trkpt>
      <trkpt lat="49.02213" lon="7.67825">
        <ele>398.25563211791</ele>
        <time>2021-03-30T12:00:30.491Z</time>
      </trkpt>
      <trkpt lat="49.02192" lon="7.67852">
        <ele>399.12466329497</ele>
        <time>2021-03-30T12:00:31.107Z</time>
      </trkpt>
      <trkpt lat="49.02185" lon="7.67864">
        <ele>399.66929913989</ele>
        <time>2021-03-30T12:00:31.726Z</time>
      </trkpt>
      <trkpt lat="49.02168" lon="7.67889">
        <ele>400.07328754387</ele>
        <time>2021-03-30T12:00:32.353Z</time>
      </trkpt>
      <trkpt lat="49.02159" lon="7.67915">
        <ele>400.10773659887</ele>
        <time>2021-03-30T12:00:32.987Z</time>
      </trkpt>
      <trkpt lat="49.02155" lon="7.67941">
        <ele>399.93664875381</ele>
        <time>2021-03-30T12:00:33.627Z</time>
      </trkpt>
      <trkpt lat="49.02154" lon="7.67971">
        <ele>399.46906018501</ele>
        <time>2021-03-30T12:00:34.273Z</time>
      </trkpt>
      <trkpt lat="49.02159" lon="7.68008">
        <ele>398.89610368695</ele>
        <time>2021-03-30T12:00:34.928Z</time>
      </trkpt>
      <trkpt lat="49.02169" lon="7.68049">
        <ele>398.02039422624</ele>
        <time>2021-03-30T12:00:35.592Z</time>
      </trkpt>
      <trkpt lat="49.02181" lon="7.68098">
        <ele>396.86496413288</ele>
        <time>2021-03-30T12:00:36.268Z</time>
      </trkpt>
      <trkpt lat="49.02187" lon="7.68132">
        <ele>395.47861207662</ele>
        <time>2021-03-30T12:00:36.951Z</time>
      </trkpt>
      <trkpt lat="49.02188" lon="7.68162">
        <ele>393.81531917883</ele>
        <time>2021-03-30T12:00:37.641Z</time>
      </trkpt>
      <trkpt lat="49.02185" lon="7.68187">
        <ele>391.86971996672</ele>
        <time>2021-03-30T12:00:38.337Z</time>
      </trkpt>
      <trkpt lat="49.02178" lon="7.68202">
        <ele>389.8306696796</ele>
        <time>2021-03-30T12:00:39.036Z</time>
      </trkpt>
      <trkpt lat="49.02177" lon="7.68207">
        <ele>387.89717435809</ele>
        <time>2021-03-30T12:00:39.737Z</time>
      </trkpt>
      <trkpt lat="49.02165" lon="7.68217">
        <ele>385.73120107724</ele>
        <time>2021-03-30T12:00:40.442Z</time>
      </trkpt>
      <trkpt lat="49.02161" lon="7.68231">
        <ele>383.69480860247</ele>
        <time>2021-03-30T12:00:41.150Z</time>
      </trkpt>
      <trkpt lat="49.02151" lon="7.68234">
        <ele>381.67915829825</ele>
        <time>2021-03-30T12:00:41.862Z</time>
      </trkpt>
      <trkpt lat="49.02138" lon="7.68231">
        <ele>379.6991248216</ele>
        <time>2021-03-30T12:00:42.578Z</time>
      </trkpt>
      <trkpt lat="49.02119" lon="7.68226">
        <ele>377.75911492072</ele>
        <time>2021-03-30T12:00:43.301Z</time>
      </trkpt>
      <trkpt lat="49.02102" lon="7.68224">
        <ele>375.94985492054</ele>
        <time>2021-03-30T12:00:44.030Z</time>
      </trkpt>
      <trkpt lat="49.02089" lon="7.68223">
        <ele>374.29871810105</ele>
        <time>2021-03-30T12:00:44.763Z</time>
      </trkpt>
      <trkpt lat="49.02079" lon="7.68226">
        <ele>372.82818979409</ele>
        <time>2021-03-30T12:00:45.499Z</time>
      </trkpt>
      <trkpt lat="49.02069" lon="7.68234">
        <ele>371.53654361094</ele>
        <time>2021-03-30T12:00:46.239Z</time>
      </trkpt>
      <trkpt lat="49.02072" lon="7.68248">
        <ele>370.49556469193</ele>
        <time>2021-03-30T12:00:46.982Z</time>
      </trkpt>
      <trkpt lat="49.02071" lon="7.68265">
        <ele>369.64430781805</ele>
        <time>2021-03-30T12:00:47.729Z</time>
      </trkpt>
      <trkpt lat="49.02068" lon="7.68282">
        <ele>368.98063915339</ele>
        <time>2021-03-30T12:00:48.480Z</time>
      </trkpt>
      <trkpt lat="49.02057" lon="7.68268">
        <ele>368.45080406091</ele>
        <time>2021-03-30T12:00:49.236Z</time>
      </trkpt>
      <trkpt lat="49.02047" lon="7.68255">
        <ele>368.12812690087</ele>
        <time>2021-03-30T12:00:49.996Z</time>
      </trkpt>
      <trkpt lat="49.02028" lon="7.68231">
        <ele>368.15784256708</ele>
        <time>2021-03-30T12:00:50.764Z</time>
      </trkpt>
      <trkpt lat="49.02005" lon="7.68206">
        <ele>368.42191842784</ele>
        <time>2021-03-30T12:00:51.542Z</time>
      </trkpt>
      <trkpt lat="49.0199" lon="7.68191">
        <ele>368.8460703184</ele>
        <time>2021-03-30T12:00:52.326Z</time>
      </trkpt>
      <trkpt lat="49.01966" lon="7.68176">
        <ele>369.42626817011</ele>
        <time>2021-03-30T12:00:53.118Z</time>
      </trkpt>
      <trkpt lat="49.01938" lon="7.68164">
        <ele>370.24075621532</ele>
        <time>2021-03-30T12:00:53.920Z</time>
      </trkpt>
      <trkpt lat="49.0192" lon="7.68157">
        <ele>371.24641948692</ele>
        <time>2021-03-30T12:00:54.728Z</time>
      </trkpt>
      <trkpt lat="49.01912" lon="7.68157">
        <ele>372.36819291353</ele>
        <time>2021-03-30T12:00:55.539Z</time>
      </trkpt>
      <trkpt lat="49.01903" lon="7.6816">
        <ele>373.62379222595</ele>
        <time>2021-03-30T12:00:56.353Z</time>
      </trkpt>
      <trkpt lat="49.01895" lon="7.68163">
        <ele>375.11323079569</ele>
        <time>2021-03-30T12:00:57.170Z</time>
      </trkpt>
      <trkpt lat="49.01878" lon="7.6817">
        <ele>376.8256817633</ele>
        <time>2021-03-30T12:00:57.993Z</time>
      </trkpt>
      <trkpt lat="49.01834" lon="7.68178">
        <ele>378.93386979711</ele>
        <time>2021-03-30T12:00:58.830Z</time>
      </trkpt>
      <trkpt lat="49.01792" lon="7.6818">
        <ele>381.13426292119</ele>
        <time>2021-03-30T12:00:59.681Z</time>
      </trkpt>
      <trkpt lat="49.01765" lon="7.68183">
        <ele>383.46159742501</ele>
        <time>2021-03-30T12:01:00.541Z</time>
      </trkpt>
      <trkpt lat="49.01736" lon="7.68193">
        <ele>385.7873101071</ele>
        <time>2021-03-30T12:01:01.411Z</time>
      </trkpt>
      <trkpt lat="49.01715" lon="7.68204">
        <ele>387.94724928514</ele>
        <time>2021-03-30T12:01:02.289Z</time>
      </trkpt>
      <trkpt lat="49.01681" lon="7.68222">
        <ele>390.31162201514</ele>
        <time>2021-03-30T12:01:03.179Z</time>
      </trkpt>
      <trkpt lat="49.01671" lon="7.68232">
        <ele>392.58479802868</ele>
        <time>2021-03-30T12:01:04.073Z</time>
      </trkpt>
      <trkpt lat="49.01666" lon="7.68241">
        <ele>394.87262569193</ele>
        <time>2021-03-30T12:01:04.969Z</time>
      </trkpt>
      <trkpt lat="49.01662" lon="7.68248">
        <ele>397.31780606515</ele>
        <time>2021-03-30T12:01:05.867Z</time>
      </trkpt>
      <trkpt lat="49.01655" lon="7.68257">
        <ele>399.90004690321</ele>
        <time>2021-03-30T12:01:06.768Z</time>
      </trkpt>
      <trkpt lat="49.01644" lon="7.68267">
        <ele>402.53772997169</ele>
        <time>2021-03-30T12:01:07.674Z</time>
      </trkpt>
      <trkpt lat="49.0161" lon="7.6829">
        <ele>405.52525211465</ele>
        <time>2021-03-30T12:01:08.592Z</time>
      </trkpt>
      <trkpt lat="49.01582" lon="7.683">
        <ele>408.55424516145</ele>
        <time>2021-03-30T12:01:09.520Z</time>
      </trkpt>
      <trkpt lat="49.01582" lon="7.683">
        <ele>414.70213657021</ele>
        <time>2021-03-30T12:01:10.448Z</time>
      </trkpt>
      <trkpt lat="49.01555" lon="7.6831">
        <ele>417.90928401911</ele>
        <time>2021-03-30T12:01:11.385Z</time>
      </trkpt>
      <trkpt lat="49.01547" lon="7.68312">
        <ele>421.39616647974</ele>
        <time>2021-03-30T12:01:12.325Z</time>
      </trkpt>
      <trkpt lat="49.01525" lon="7.68315">
        <ele>425.19761104849</ele>
        <time>2021-03-30T12:01:13.272Z</time>
      </trkpt>
      <trkpt lat="49.01489" lon="7.68309">
        <ele>429.32867311071</ele>
        <time>2021-03-30T12:01:14.231Z</time>
      </trkpt>
      <trkpt lat="49.01458" lon="7.683">
        <ele>433.61968333751</ele>
        <time>2021-03-30T12:01:15.201Z</time>
      </trkpt>
      <trkpt lat="49.01406" lon="7.68279">
        <ele>438.06605482656</ele>
        <time>2021-03-30T12:01:16.189Z</time>
      </trkpt>
      <trkpt lat="49.0138" lon="7.68274">
        <ele>442.54445689927</ele>
        <time>2021-03-30T12:01:17.185Z</time>
      </trkpt>
      <trkpt lat="49.01379" lon="7.68305">
        <ele>447.138242068</ele>
        <time>2021-03-30T12:01:18.188Z</time>
      </trkpt>
      <trkpt lat="49.0138" lon="7.68305">
        <ele>451.8909175659</ele>
        <time>2021-03-30T12:01:19.192Z</time>
      </trkpt>
      <trkpt lat="49.0137" lon="7.68339">
        <ele>456.8336380846</ele>
        <time>2021-03-30T12:01:20.204Z</time>
      </trkpt>
      <trkpt lat="49.01349" lon="7.68391">
        <ele>462.43284611946</ele>
        <time>2021-03-30T12:01:21.229Z</time>
      </trkpt>
      <trkpt lat="49.01336" lon="7.68442">
        <ele>468.32018573713</ele>
        <time>2021-03-30T12:01:22.266Z</time>
      </trkpt>
      <trkpt lat="49.01325" lon="7.68487">
        <ele>474.38734267896</ele>
        <time>2021-03-30T12:01:23.314Z</time>
      </trkpt>
      <trkpt lat="49.01314" lon="7.68554">
        <ele>480.22124450769</ele>
        <time>2021-03-30T12:01:24.377Z</time>
      </trkpt>
      <trkpt lat="49.01302" lon="7.68522">
        <ele>485.7680312343</ele>
        <time>2021-03-30T12:01:25.448Z</time>
      </trkpt>
      <trkpt lat="49.013" lon="7.68466">
        <ele>490.75349492363</ele>
        <time>2021-03-30T12:01:26.531Z</time>
      </trkpt>
      <trkpt lat="49.01284" lon="7.68389">
        <ele>495.69908406144</ele>
        <time>2021-03-30T12:01:27.632Z</time>
      </trkpt>
      <trkpt lat="49.01277" lon="7.68436">
        <ele>501.17546872403</ele>
        <time>2021-03-30T12:01:28.744Z</time>
      </trkpt>
      <trkpt lat="49.01257" lon="7.68477">
        <ele>506.48800813117</ele>
        <time>2021-03-30T12:01:29.867Z</time>
      </trkpt>
      <trkpt lat="49.01257" lon="7.68467">
        <ele>510.95948821614</ele>
        <time>2021-03-30T12:01:30.992Z</time>
      </trkpt>
      <trkpt lat="49.01244" lon="7.68474">
        <ele>515.37024617841</ele>
        <time>2021-03-30T12:01:32.122Z</time>
      </trkpt>
      <trkpt lat="49.0123" lon="7.68486">
        <ele>519.49970342319</ele>
        <time>2021-03-30T12:01:33.257Z</time>
      </trkpt>
      <trkpt lat="49.01223" lon="7.68502">
        <ele>523.2627373642</ele>
        <time>2021-03-30T12:01:34.396Z</time>
      </trkpt>
      <trkpt lat="49.01219" lon="7.68527">
        <ele>526.66775154271</ele>
        <time>2021-03-30T12:01:35.541Z</time>
      </trkpt>
      <trkpt lat="49.01209" lon="7.68539">
        <ele>529.72258688762</ele>
        <time>2021-03-30T12:01:36.690Z</time>
      </trkpt>
      <trkpt lat="49.01192" lon="7.68549">
        <ele>532.40207421167</ele>
        <time>2021-03-30T12:01:37.845Z</time>
      </trkpt>
      <trkpt lat="49.01156" lon="7.6856">
        <ele>534.63313588407</ele>
        <time>2021-03-30T12:01:39.012Z</time>
      </trkpt>
      <trkpt lat="49.0115" lon="7.68544">
        <ele>536.50975716098</ele>
        <time>2021-03-30T12:01:40.183Z</time>
      </trkpt>
      <trkpt lat="49.01138" lon="7.68513">
        <ele>537.96196155546</ele>
        <time>2021-03-30T12:01:41.362Z</time>
      </trkpt>
      <trkpt lat="49.01122" lon="7.68473">
        <ele>538.84670090414</ele>
        <time>2021-03-30T12:01:42.552Z</time>
      </trkpt>
      <trkpt lat="49.01107" lon="7.68452">
        <ele>539.33893240521</ele>
        <time>2021-03-30T12:01:43.748Z</time>
      </trkpt>
      <trkpt lat="49.01097" lon="7.68451">
        <ele>539.36350078482</ele>
        <time>2021-03-30T12:01:44.948Z</time>
      </trkpt>
      <trkpt lat="49.01084" lon="7.6845">
        <ele>538.95564889838</ele>
        <time>2021-03-30T12:01:46.152Z</time>
      </trkpt>
      <trkpt lat="49.01028" lon="7.68443">
        <ele>538.37783930852</ele>
        <time>2021-03-30T12:01:47.375Z</time>
      </trkpt>
      <trkpt lat="49.00991" lon="7.6844">
        <ele>536.92305430171</ele>
        <time>2021-03-30T12:01:48.610Z</time>
      </trkpt>
      <trkpt lat="49.00982" lon="7.68442">
        <ele>534.91879386393</ele>
        <time>2021-03-30T12:01:49.848Z</time>
      </trkpt>
      <trkpt lat="49.00974" lon="7.68443">
        <ele>532.37051038823</ele>
        <time>2021-03-30T12:01:51.089Z</time>
      </trkpt>
      <trkpt lat="49.00931" lon="7.68473">
        <ele>529.02139107284</ele>
        <time>2021-03-30T12:01:52.346Z</time>
      </trkpt>
      <trkpt lat="49.00896" lon="7.68497">
        <ele>525.43126965212</ele>
        <time>2021-03-30T12:01:53.615Z</time>
      </trkpt>
      <trkpt lat="49.00863" lon="7.68522">
        <ele>521.37720523208</ele>
        <time>2021-03-30T12:01:54.897Z</time>
      </trkpt>
      <trkpt lat="49.00831" lon="7.68549">
        <ele>516.87827484453</ele>
        <time>2021-03-30T12:01:56.191Z</time>
      </trkpt>
      <trkpt lat="49.00815" lon="7.68578">
        <ele>511.89155433352</ele>
        <time>2021-03-30T12:01:57.493Z</time>
      </trkpt>
      <trkpt lat="49.00808" lon="7.68587">
        <ele>506.45030330956</ele>
        <time>2021-03-30T12:01:58.798Z</time>
      </trkpt>
      <trkpt lat="49.00801" lon="7.68575">
        <ele>500.59051382733</ele>
        <time>2021-03-30T12:02:00.107Z</time>
      </trkpt>
      <trkpt lat="49.00765" lon="7.68605">
        <ele>494.00776450546</ele>
        <time>2021-03-30T12:02:01.430Z</time>
      </trkpt>
      <trkpt lat="49.00728" lon="7.68633">
        <ele>486.4533717856</ele>
        <time>2021-03-30T12:02:02.766Z</time>
      </trkpt>
      <trkpt lat="49.00696" lon="7.68659">
        <ele>478.48794847425</ele>
        <time>2021-03-30T12:02:04.114Z</time>
      </trkpt>
      <trkpt lat="49.00677" lon="7.68612">
        <ele>471.38839327037</ele>
        <time>2021-03-30T12:02:05.475Z</time>
      </trkpt>
      <trkpt lat="49.0063" lon="7.68584">
        <ele>463.3153078487</ele>
        <time>2021-03-30T12:02:06.852Z</time>
      </trkpt>
      <trkpt lat="49.00576" lon="7.68547">
        <ele>455.57461449233</ele>
        <time>2021-03-30T12:02:08.249Z</time>
      </trkpt>
      <trkpt lat="49.00542" lon="7.685">
        <ele>447.65417350017</ele>
        <time>2021-03-30T12:02:09.661Z</time>
      </trkpt>
      <trkpt lat="49.00504" lon="7.68472">
        <ele>439.50322031489</ele>
        <time>2021-03-30T12:02:11.088Z</time>
      </trkpt>
      <trkpt lat="49.0047" lon="7.6845">
        <ele>431.84866156348</ele>
        <time>2021-03-30T12:02:12.527Z</time>
      </trkpt>
      <trkpt lat="49.00449" lon="7.68479">
        <ele>424.4645064801</ele>
        <time>2021-03-30T12:02:13.975Z</time>
      </trkpt>
      <trkpt lat="49.00413" lon="7.68472">
        <ele>417.35000375915</ele>
        <time>2021-03-30T12:02:15.435Z</time>
      </trkpt>
      <trkpt lat="49.00382" lon="7.68457">
        <ele>410.44462567392</ele>
        <time>2021-03-30T12:02:16.906Z</time>
      </trkpt>
      <trkpt lat="49.00351" lon="7.68451">
        <ele>403.62418830574</ele>
        <time>2021-03-30T12:02:18.388Z</time>
      </trkpt>
      <trkpt lat="49.00318" lon="7.68458">
        <ele>396.86526936479</ele>
        <time>2021-03-30T12:02:19.881Z</time>
      </trkpt>
      <trkpt lat="49.00287" lon="7.68461">
        <ele>390.72422318497</ele>
        <time>2021-03-30T12:02:21.384Z</time>
      </trkpt>
      <trkpt lat="49.00245" lon="7.68461">
        <ele>384.5921176126</ele>
        <time>2021-03-30T12:02:22.901Z</time>
      </trkpt>
      <trkpt lat="49.00218" lon="7.68459">
        <ele>379.18905502554</ele>
        <time>2021-03-30T12:02:24.427Z</time>
      </trkpt>
      <trkpt lat="49.00184" lon="7.68457">
        <ele>374.1089505111</ele>
        <time>2021-03-30T12:02:25.965Z</time>
      </trkpt>
      <trkpt lat="49.0015" lon="7.68436">
        <ele>369.18900985256</ele>
        <time>2021-03-30T12:02:27.515Z</time>
      </trkpt>
      <trkpt lat="49.00121" lon="7.6841">
        <ele>364.44314228861</ele>
        <time>2021-03-30T12:02:29.076Z</time>
      </trkpt>
      <trkpt lat="49.0009" lon="7.68394">
        <ele>359.64093469205</ele>
        <time>2021-03-30T12:02:30.648Z</time>
      </trkpt>
      <trkpt lat="49.0006" lon="7.68389">
        <ele>355.29799173875</ele>
        <time>2021-03-30T12:02:32.230Z</time>
      </trkpt>
      <trkpt lat="49.00042" lon="7.68366">
        <ele>351.74668415829</ele>
        <time>2021-03-30T12:02:33.820Z</time>
      </trkpt>
      <trkpt lat="49.00022" lon="7.68332">
        <ele>348.48835240177</ele>
        <time>2021-03-30T12:02:35.420Z</time>
      </trkpt>
      <trkpt lat="49.0001" lon="7.68305">
        <ele>345.45872285831</ele>
        <time>2021-03-30T12:02:37.027Z</time>
      </trkpt>
      <trkpt lat="49.00005" lon="7.68274">
        <ele>343.27146517895</ele>
        <time>2021-03-30T12:02:38.641Z</time>
      </trkpt>
      <trkpt lat="49.00009" lon="7.6825">
        <ele>341.2077772367</ele>
        <time>2021-03-30T12:02:40.261Z</time>
      </trkpt>
      <trkpt lat="49.00015" lon="7.68239">
        <ele>339.28425382047</ele>
        <time>2021-03-30T12:02:41.884Z</time>
      </trkpt>
      <trkpt lat="49" lon="7.68219">
        <ele>338.02930321262</ele>
        <time>2021-03-30T12:02:43.513Z</time>
      </trkpt>
      <trkpt lat="48.99976" lon="7.68163">
        <ele>336.89601396644</ele>
        <time>2021-03-30T12:02:45.157Z</time>
      </trkpt>
      <trkpt lat="48.99941" lon="7.6812">
        <ele>335.95516066417</ele>
        <time>2021-03-30T12:02:46.816Z</time>
      </trkpt>
      <trkpt lat="48.99886" lon="7.68103">
        <ele>334.94849456705</ele>
        <time>2021-03-30T12:02:48.494Z</time>
      </trkpt>
      <trkpt lat="48.9984" lon="7.68101">
        <ele>334.04766604846</ele>
        <time>2021-03-30T12:02:50.187Z</time>
      </trkpt>
      <trkpt lat="48.99797" lon="7.68126">
        <ele>332.94967131488</ele>
        <time>2021-03-30T12:02:51.895Z</time>
      </trkpt>
      <trkpt lat="48.9979" lon="7.68122">
        <ele>332.30926286758</ele>
        <time>2021-03-30T12:02:53.606Z</time>
      </trkpt>
      <trkpt lat="48.99789" lon="7.68116">
        <ele>331.87418222188</ele>
        <time>2021-03-30T12:02:55.318Z</time>
      </trkpt>
      <trkpt lat="48.99788" lon="7.68112">
        <ele>331.48218508414</ele>
        <time>2021-03-30T12:02:57.031Z</time>
      </trkpt>
      <trkpt lat="48.9979" lon="7.68107">
        <ele>331.20789105876</ele>
        <time>2021-03-30T12:02:58.746Z</time>
      </trkpt>
      <trkpt lat="48.99795" lon="7.68102">
        <ele>331.01189087877</ele>
        <time>2021-03-30T12:03:00.463Z</time>
      </trkpt>
      <trkpt lat="48.99799" lon="7.681">
        <ele>330.82593408234</ele>
        <time>2021-03-30T12:03:02.181Z</time>
      </trkpt>
      <trkpt lat="48.99804" lon="7.68097">
        <ele>330.65536324745</ele>
        <time>2021-03-30T12:03:03.901Z</time>
      </trkpt>
      <trkpt lat="48.99807" lon="7.68094">
        <ele>330.44878587062</ele>
        <time>2021-03-30T12:03:05.622Z</time>
      </trkpt>
      <trkpt lat="48.99809" lon="7.68089">
        <ele>330.20098045992</ele>
        <time>2021-03-30T12:03:07.344Z</time>
      </trkpt>
      <trkpt lat="48.99809" lon="7.68086">
        <ele>329.89660330171</ele>
        <time>2021-03-30T12:03:09.067Z</time>
      </trkpt>
      <trkpt lat="48.99809" lon="7.6808">
        <ele>329.53378375842</ele>
        <time>2021-03-30T12:03:10.791Z</time>
      </trkpt>
      <trkpt lat="48.99807" lon="7.68074">
        <ele>329.10980627625</ele>
        <time>2021-03-30T12:03:12.517Z</time>
      </trkpt>
      <trkpt lat="48.99806" lon="7.6807">
        <ele>328.68380527476</ele>
        <time>2021-03-30T12:03:14.244Z</time>
      </trkpt>
      <trkpt lat="48.99804" lon="7.68067">
        <ele>328.22472036748</ele>
        <time>2021-03-30T12:03:15.972Z</time>
      </trkpt>
      <trkpt lat="48.99801" lon="7.68065">
        <ele>327.73954979196</ele>
        <time>2021-03-30T12:03:17.701Z</time>
      </trkpt>
      <trkpt lat="48.99798" lon="7.68064">
        <ele>327.25155727454</ele>
        <time>2021-03-30T12:03:19.431Z</time>
      </trkpt>
      <trkpt lat="48.99792" lon="7.68064">
        <ele>326.73093187118</ele>
        <time>2021-03-30T12:03:21.163Z</time>
      </trkpt>
      <trkpt lat="48.99787" lon="7.68064">
        <ele>326.21164107951</ele>
        <time>2021-03-30T12:03:22.896Z</time>
      </trkpt>
      <trkpt lat="48.9978" lon="7.68064">
        <ele>325.68107773515</ele>
        <time>2021-03-30T12:03:24.632Z</time>
      </trkpt>
      <trkpt lat="48.99772" lon="7.68066">
        <ele>325.19443168253</ele>
        <time>2021-03-30T12:03:26.370Z</time>
      </trkpt>
      <trkpt lat="48.99764" lon="7.68072">
        <ele>324.80524048032</ele>
        <time>2021-03-30T12:03:28.111Z</time>
      </trkpt>
      <trkpt lat="48.9976" lon="7.68075">
        <ele>324.59241735271</ele>
        <time>2021-03-30T12:03:29.854Z</time>
      </trkpt>
      <trkpt lat="48.99753" lon="7.68083">
        <ele>324.45845463695</ele>
        <time>2021-03-30T12:03:31.600Z</time>
      </trkpt>
      <trkpt lat="48.99746" lon="7.6809">
        <ele>324.38735787652</ele>
        <time>2021-03-30T12:03:33.349Z</time>
      </trkpt>
      <trkpt lat="48.99741" lon="7.68093">
        <ele>324.47471922189</ele>
        <time>2021-03-30T12:03:35.099Z</time>
      </trkpt>
      <trkpt lat="48.9974" lon="7.68091">
        <ele>324.73797013264</ele>
        <time>2021-03-30T12:03:36.850Z</time>
      </trkpt>
      <trkpt lat="48.99738" lon="7.6809">
        <ele>325.14430356525</ele>
        <time>2021-03-30T12:03:38.602Z</time>
      </trkpt>
      <trkpt lat="48.99734" lon="7.68089">
        <ele>325.71118088299</ele>
        <time>2021-03-30T12:03:40.355Z</time>
      </trkpt>
      <trkpt lat="48.9973" lon="7.68089">
        <ele>326.48330461022</ele>
        <time>2021-03-30T12:03:42.109Z</time>
      </trkpt>
      <trkpt lat="48.99726" lon="7.68089">
        <ele>327.42501581945</ele>
        <time>2021-03-30T12:03:43.865Z</time>
      </trkpt>
      <trkpt lat="48.9972" lon="7.68091">
        <ele>328.54357387757</ele>
        <time>2021-03-30T12:03:45.623Z</time>
      </trkpt>
      <trkpt lat="48.99712" lon="7.68079">
        <ele>329.80886936243</ele>
        <time>2021-03-30T12:03:47.384Z</time>
      </trkpt>
      <trkpt lat="48.997" lon="7.68068">
        <ele>331.37241495067</ele>
        <time>2021-03-30T12:03:49.150Z</time>
      </trkpt>
      <trkpt lat="48.99692" lon="7.68064">
        <ele>333.07757415588</ele>
        <time>2021-03-30T12:03:50.919Z</time>
      </trkpt>
      <trkpt lat="48.99684" lon="7.68066">
        <ele>334.89384143592</ele>
        <time>2021-03-30T12:03:52.691Z</time>
      </trkpt>
      <trkpt lat="48.99664" lon="7.68063">
        <ele>337.0884709141</ele>
        <time>2021-03-30T12:03:54.469Z</time>
      </trkpt>
      <trkpt lat="48.99636" lon="7.6806">
        <ele>339.4469472806</ele>
        <time>2021-03-30T12:03:56.257Z</time>
      </trkpt>
      <trkpt lat="48.99618" lon="7.68055">
        <ele>341.62420012134</ele>
        <time>2021-03-30T12:03:58.051Z</time>
      </trkpt>
      <trkpt lat="48.99603" lon="7.68041">
        <ele>343.8457883091</ele>
        <time>2021-03-30T12:03:59.851Z</time>
      </trkpt>
      <trkpt lat="48.99588" lon="7.6802">
        <ele>346.22467099167</ele>
        <time>2021-03-30T12:04:01.657Z</time>
      </trkpt>
      <trkpt lat="48.99584" lon="7.68015">
        <ele>348.31836281002</ele>
        <time>2021-03-30T12:04:03.465Z</time>
      </trkpt>
      <trkpt lat="48.99602" lon="7.68011">
        <ele>350.28748669777</ele>
        <time>2021-03-30T12:04:05.279Z</time>
      </trkpt>
      <trkpt lat="48.99616" lon="7.68006">
        <ele>352.15372873964</ele>
        <time>2021-03-30T12:04:07.098Z</time>
      </trkpt>
      <trkpt lat="48.99627" lon="7.67999">
        <ele>354.00606523332</ele>
        <time>2021-03-30T12:04:08.921Z</time>
      </trkpt>
      <trkpt lat="48.99632" lon="7.67988">
        <ele>355.88049822472</ele>
        <time>2021-03-30T12:04:10.747Z</time>
      </trkpt>
      <trkpt lat="48.99624" lon="7.67986">
        <ele>357.69449712267</ele>
        <time>2021-03-30T12:04:12.576Z</time>
      </trkpt>
      <trkpt lat="48.99612" lon="7.67988">
        <ele>359.36970959641</ele>
        <time>2021-03-30T12:04:14.409Z</time>
      </trkpt>
      <trkpt lat="48.99605" lon="7.67986">
        <ele>360.97093772534</ele>
        <time>2021-03-30T12:04:16.244Z</time>
      </trkpt>
      <trkpt lat="48.99607" lon="7.67984">
        <ele>362.41721925574</ele>
        <time>2021-03-30T12:04:18.080Z</time>
      </trkpt>
      <trkpt lat="48.99617" lon="7.6798">
        <ele>363.74079730155</ele>
        <time>2021-03-30T12:04:19.919Z</time>
      </trkpt>
      <trkpt lat="48.99626" lon="7.67974">
        <ele>364.94966814728</ele>
        <time>2021-03-30T12:04:21.762Z</time>
      </trkpt>
      <trkpt lat="48.99634" lon="7.67963">
        <ele>365.97778693064</ele>
        <time>2021-03-30T12:04:23.608Z</time>
      </trkpt>
      <trkpt lat="48.99632" lon="7.6796">
        <ele>367.04850865177</ele>
        <time>2021-03-30T12:04:25.455Z</time>
      </trkpt>
      <trkpt lat="48.99621" lon="7.67958">
        <ele>368.14491154363</ele>
        <time>2021-03-30T12:04:27.306Z</time>
      </trkpt>
      <trkpt lat="48.99621" lon="7.67958">
        <ele>369.71757457408</ele>
        <time>2021-03-30T12:04:29.157Z</time>
      </trkpt>
      <trkpt lat="48.99614" lon="7.6796">
        <ele>370.43696704975</ele>
        <time>2021-03-30T12:04:31.010Z</time>
      </trkpt>
      <trkpt lat="48.99607" lon="7.67959">
        <ele>371.06661833077</ele>
        <time>2021-03-30T12:04:32.866Z</time>
      </trkpt>
      <trkpt lat="48.99612" lon="7.67948">
        <ele>371.47109194153</ele>
        <time>2021-03-30T12:04:34.725Z</time>
      </trkpt>
      <trkpt lat="48.99625" lon="7.67927">
        <ele>371.59324352733</ele>
        <time>2021-03-30T12:04:36.590Z</time>
      </trkpt>
      <trkpt lat="48.9962" lon="7.67926">
        <ele>371.92080113761</ele>
        <time>2021-03-30T12:04:38.457Z</time>
      </trkpt>
      <trkpt lat="48.99601" lon="7.67924">
        <ele>372.32438563872</ele>
        <time>2021-03-30T12:04:40.330Z</time>
      </trkpt>
      <trkpt lat="48.99596" lon="7.67923">
        <ele>372.47969080852</ele>
        <time>2021-03-30T12:04:42.205Z</time>
      </trkpt>
      <trkpt lat="48.99603" lon="7.67916">
        <ele>372.3496333313</ele>
        <time>2021-03-30T12:04:44.082Z</time>
      </trkpt>
      <trkpt lat="48.99608" lon="7.67905">
        <ele>372.11201650238</ele>
        <time>2021-03-30T12:04:45.962Z</time>
      </trkpt>
      <trkpt lat="48.99607" lon="7.67899">
        <ele>371.90429151517</ele>
        <time>2021-03-30T12:04:47.844Z</time>
      </trkpt>
      <trkpt lat="48.99588" lon="7.67874">
        <ele>371.65749294273</ele>
        <time>2021-03-30T12:04:49.734Z</time>
      </trkpt>
      <trkpt lat="48.99572" lon="7.6786">
        <ele>371.40776887921</ele>
        <time>2021-03-30T12:04:51.630Z</time>
      </trkpt>
      <trkpt lat="48.9955" lon="7.67853">
        <ele>371.08282019123</ele>
        <time>2021-03-30T12:04:53.534Z</time>
      </trkpt>
      <trkpt lat="48.99524" lon="7.6785">
        <ele>370.60634787229</ele>
        <time>2021-03-30T12:04:55.446Z</time>
      </trkpt>
      <trkpt lat="48.99497" lon="7.6785">
        <ele>370.15955465695</ele>
        <time>2021-03-30T12:04:57.367Z</time>
      </trkpt>
      <trkpt lat="48.99474" lon="7.67844">
        <ele>369.59658322222</ele>
        <time>2021-03-30T12:04:59.296Z</time>
      </trkpt>
      <trkpt lat="48.99451" lon="7.67838">
        <ele>368.95967571059</ele>
        <time>2021-03-30T12:05:01.233Z</time>
      </trkpt>
      <trkpt lat="48.99427" lon="7.67832">
        <ele>368.1745260091</ele>
        <time>2021-03-30T12:05:03.178Z</time>
      </trkpt>
      <trkpt lat="48.99409" lon="7.67824">
        <ele>367.1625991436</ele>
        <time>2021-03-30T12:05:05.129Z</time>
      </trkpt>
      <trkpt lat="48.99387" lon="7.6781">
        <ele>365.79684605144</ele>
        <time>2021-03-30T12:05:07.088Z</time>
      </trkpt>
      <trkpt lat="48.99366" lon="7.67803">
        <ele>364.24055739731</ele>
        <time>2021-03-30T12:05:09.054Z</time>
      </trkpt>
      <trkpt lat="48.99356" lon="7.67806">
        <ele>362.75998039541</ele>
        <time>2021-03-30T12:05:11.024Z</time>
      </trkpt>
      <trkpt lat="48.99355" lon="7.67807">
        <ele>361.3715874261</ele>
        <time>2021-03-30T12:05:12.994Z</time>
      </trkpt>
      <trkpt lat="48.99337" lon="7.67814">
        <ele>359.53705011767</ele>
        <time>2021-03-30T12:05:14.970Z</time>
      </trkpt>
      <trkpt lat="48.99322" lon="7.67832">
        <ele>357.70396190082</ele>
        <time>2021-03-30T12:05:16.953Z</time>
      </trkpt>
      <trkpt lat="48.99314" lon="7.67853">
        <ele>356.02462672177</ele>
        <time>2021-03-30T12:05:18.941Z</time>
      </trkpt>
      <trkpt lat="48.99312" lon="7.67871">
        <ele>354.38692468321</ele>
        <time>2021-03-30T12:05:20.933Z</time>
      </trkpt>
      <trkpt lat="48.99317" lon="7.67895">
        <ele>352.81839121958</ele>
        <time>2021-03-30T12:05:22.931Z</time>
      </trkpt>
      <trkpt lat="48.99325" lon="7.67915">
        <ele>351.15676770903</ele>
        <time>2021-03-30T12:05:24.934Z</time>
      </trkpt>
      <trkpt lat="48.99338" lon="7.67933">
        <ele>349.54105132634</ele>
        <time>2021-03-30T12:05:26.943Z</time>
      </trkpt>
      <trkpt lat="48.99352" lon="7.67953">
        <ele>347.77005235842</ele>
        <time>2021-03-30T12:05:28.958Z</time>
      </trkpt>
      <trkpt lat="48.99361" lon="7.67973">
        <ele>345.6939371472</ele>
        <time>2021-03-30T12:05:30.978Z</time>
      </trkpt>
      <trkpt lat="48.99367" lon="7.67979">
        <ele>343.70638845912</ele>
        <time>2021-03-30T12:05:33.001Z</time>
      </trkpt>
      <trkpt lat="48.99389" lon="7.67984">
        <ele>341.73869689613</ele>
        <time>2021-03-30T12:05:35.031Z</time>
      </trkpt>
      <trkpt lat="48.99397" lon="7.67988">
        <ele>339.59886433234</ele>
        <time>2021-03-30T12:05:37.064Z</time>
      </trkpt>
      <trkpt lat="48.99401" lon="7.67991">
        <ele>337.40550427824</ele>
        <time>2021-03-30T12:05:39.099Z</time>
      </trkpt>
      <trkpt lat="48.99389" lon="7.68003">
        <ele>334.98534069119</ele>
        <time>2021-03-30T12:05:41.138Z</time>
      </trkpt>
      <trkpt lat="48.99372" lon="7.68013">
        <ele>332.53234787765</ele>
        <time>2021-03-30T12:05:43.183Z</time>
      </trkpt>
      <trkpt lat="48.99347" lon="7.68017">
        <ele>329.87292760282</ele>
        <time>2021-03-30T12:05:45.237Z</time>
      </trkpt>
      <trkpt lat="48.99325" lon="7.68011">
        <ele>327.18127221914</ele>
        <time>2021-03-30T12:05:47.298Z</time>
      </trkpt>
      <trkpt lat="48.99296" lon="7.68002">
        <ele>324.45541153223</ele>
        <time>2021-03-30T12:05:49.369Z</time>
      </trkpt>
      <trkpt lat="48.99274" lon="7.67996">
        <ele>321.8995756393</ele>
        <time>2021-03-30T12:05:51.448Z</time>
      </trkpt>
      <trkpt lat="48.9925" lon="7.67988">
        <ele>319.34588992402</ele>
        <time>2021-03-30T12:05:53.535Z</time>
      </trkpt>
      <trkpt lat="48.9924" lon="7.67984">
        <ele>317.13034055534</ele>
        <time>2021-03-30T12:05:55.625Z</time>
      </trkpt>
      <trkpt lat="48.99233" lon="7.67976">
        <ele>315.11439156022</ele>
        <time>2021-03-30T12:05:57.718Z</time>
      </trkpt>
      <trkpt lat="48.99225" lon="7.67958">
        <ele>313.25001731201</ele>
        <time>2021-03-30T12:05:59.816Z</time>
      </trkpt>
      <trkpt lat="48.99225" lon="7.67955">
        <ele>311.53061228883</ele>
        <time>2021-03-30T12:06:01.915Z</time>
      </trkpt>
      <trkpt lat="48.9923" lon="7.67921">
        <ele>310.28532285961</ele>
        <time>2021-03-30T12:06:04.021Z</time>
      </trkpt>
      <trkpt lat="48.9923" lon="7.6789">
        <ele>308.80855711242</ele>
        <time>2021-03-30T12:06:06.134Z</time>
      </trkpt>
      <trkpt lat="48.99232" lon="7.67839">
        <ele>307.36849189459</ele>
        <time>2021-03-30T12:06:08.258Z</time>
      </trkpt>
      <trkpt lat="48.9924" lon="7.67798">
        <ele>305.79729168649</ele>
        <time>2021-03-30T12:06:10.392Z</time>
      </trkpt>
      <trkpt lat="48.99255" lon="7.67733">
        <ele>304.16796827237</ele>
        <time>2021-03-30T12:06:12.541Z</time>
      </trkpt>
      <trkpt lat="48.99264" lon="7.67705">
        <ele>302.63898775821</ele>
        <time>2021-03-30T12:06:14.697Z</time>
      </trkpt>
      <trkpt lat="48.99264" lon="7.67705">
        <ele>301.06982004985</ele>
        <time>2021-03-30T12:06:16.853Z</time>
      </trkpt>
      <trkpt lat="48.99268" lon="7.67693">
        <ele>299.42679843829</ele>
        <time>2021-03-30T12:06:19.012Z</time>
      </trkpt>
      <trkpt lat="48.99283" lon="7.67667">
        <ele>297.72290691176</ele>
        <time>2021-03-30T12:06:21.178Z</time>
      </trkpt>
      <trkpt lat="48.99302" lon="7.6766">
        <ele>296.13538069072</ele>
        <time>2021-03-30T12:06:23.351Z</time>
      </trkpt>
      <trkpt lat="48.99328" lon="7.67656">
        <ele>294.60238490987</ele>
        <time>2021-03-30T12:06:25.532Z</time>
      </trkpt>
      <trkpt lat="48.99342" lon="7.67629">
        <ele>292.49376164215</ele>
        <time>2021-03-30T12:06:27.721Z</time>
      </trkpt>
      <trkpt lat="48.99353" lon="7.67606">
        <ele>290.42495212967</ele>
        <time>2021-03-30T12:06:29.916Z</time>
      </trkpt>
      <trkpt lat="48.99371" lon="7.6758">
        <ele>288.34391385241</ele>
        <time>2021-03-30T12:06:32.119Z</time>
      </trkpt>
      <trkpt lat="48.99393" lon="7.67558">
        <ele>286.01546307694</ele>
        <time>2021-03-30T12:06:34.331Z</time>
      </trkpt>
      <trkpt lat="48.99414" lon="7.67541">
        <ele>283.74354784082</ele>
        <time>2021-03-30T12:06:36.551Z</time>
      </trkpt>
      <trkpt lat="48.99441" lon="7.67523">
        <ele>281.50755874811</ele>
        <time>2021-03-30T12:06:38.781Z</time>
      </trkpt>
      <trkpt lat="48.99468" lon="7.67507">
        <ele>279.21001938628</ele>
        <time>2021-03-30T12:06:41.021Z</time>
      </trkpt>
      <trkpt lat="48.995" lon="7.67491">
        <ele>276.90004210658</ele>
        <time>2021-03-30T12:06:43.272Z</time>
      </trkpt>
      <trkpt lat="48.99528" lon="7.67478">
        <ele>274.6022078126</ele>
        <time>2021-03-30T12:06:45.533Z</time>
      </trkpt>
      <trkpt lat="48.9955" lon="7.6747">
        <ele>272.43019860993</ele>
        <time>2021-03-30T12:06:47.801Z</time>
      </trkpt>
      <trkpt lat="48.99564" lon="7.67459">
        <ele>270.30020802326</ele>
        <time>2021-03-30T12:06:50.075Z</time>
      </trkpt>
      <trkpt lat="48.99572" lon="7.67444">
        <ele>268.27194587454</ele>
        <time>2021-03-30T12:06:52.353Z</time>
      </trkpt>
      <trkpt lat="48.99579" lon="7.67423">
        <ele>266.38042880153</ele>
        <time>2021-03-30T12:06:54.636Z</time>
      </trkpt>
      <trkpt lat="48.99581" lon="7.67398">
        <ele>264.68010974004</ele>
        <time>2021-03-30T12:06:56.924Z</time>
      </trkpt>
      <trkpt lat="48.99581" lon="7.67378">
        <ele>263.23857425598</ele>
        <time>2021-03-30T12:06:59.217Z</time>
      </trkpt>
      <trkpt lat="48.99581" lon="7.67371">
        <ele>261.91809601102</ele>
        <time>2021-03-30T12:07:01.511Z</time>
      </trkpt>
      <trkpt lat="48.99573" lon="7.67339">
        <ele>260.869224342</ele>
        <time>2021-03-30T12:07:03.813Z</time>
      </trkpt>
      <trkpt lat="48.99564" lon="7.67311">
        <ele>260.09454474472</ele>
        <time>2021-03-30T12:07:06.122Z</time>
      </trkpt>
      <trkpt lat="48.99542" lon="7.67293">
        <ele>259.2960737061</ele>
        <time>2021-03-30T12:07:08.439Z</time>
      </trkpt>
      <trkpt lat="48.99513" lon="7.6728">
        <ele>258.42235525743</ele>
        <time>2021-03-30T12:07:10.766Z</time>
      </trkpt>
      <trkpt lat="48.99488" lon="7.67272">
        <ele>257.43761038887</ele>
        <time>2021-03-30T12:07:13.102Z</time>
      </trkpt>
      <trkpt lat="48.99465" lon="7.67257">
        <ele>256.67757220858</ele>
        <time>2021-03-30T12:07:15.446Z</time>
      </trkpt>
      <trkpt lat="48.99392" lon="7.67229">
        <ele>255.63228899426</ele>
        <time>2021-03-30T12:07:17.815Z</time>
      </trkpt>
      <trkpt lat="48.99358" lon="7.67218">
        <ele>254.59507382225</ele>
        <time>2021-03-30T12:07:20.196Z</time>
      </trkpt>
      <trkpt lat="48.99332" lon="7.672">
        <ele>253.58329796854</ele>
        <time>2021-03-30T12:07:22.586Z</time>
      </trkpt>
      <trkpt lat="48.99319" lon="7.67173">
        <ele>252.78523071133</ele>
        <time>2021-03-30T12:07:24.984Z</time>
      </trkpt>
      <trkpt lat="48.99311" lon="7.67167">
        <ele>251.78242736496</ele>
        <time>2021-03-30T12:07:27.385Z</time>
      </trkpt>
      <trkpt lat="48.99297" lon="7.67158">
        <ele>250.66180560893</ele>
        <time>2021-03-30T12:07:29.791Z</time>
      </trkpt>
      <trkpt lat="48.99275" lon="7.67138">
        <ele>249.51880232371</ele>
        <time>2021-03-30T12:07:32.205Z</time>
      </trkpt>
      <trkpt lat="48.99259" lon="7.67118">
        <ele>248.42484736525</ele>
        <time>2021-03-30T12:07:34.626Z</time>
      </trkpt>
      <trkpt lat="48.99244" lon="7.67085">
        <ele>247.33792226443</ele>
        <time>2021-03-30T12:07:37.056Z</time>
      </trkpt>
      <trkpt lat="48.99235" lon="7.67058">
        <ele>246.29000710595</ele>
        <time>2021-03-30T12:07:39.493Z</time>
      </trkpt>
      <trkpt lat="48.99228" lon="7.6702">
        <ele>245.22991172805</ele>
        <time>2021-03-30T12:07:41.938Z</time>
      </trkpt>
      <trkpt lat="48.99223" lon="7.66979">
        <ele>244.37846959478</ele>
        <time>2021-03-30T12:07:44.392Z</time>
      </trkpt>
      <trkpt lat="48.99219" lon="7.66932">
        <ele>243.60040877826</ele>
        <time>2021-03-30T12:07:46.857Z</time>
      </trkpt>
      <trkpt lat="48.99217" lon="7.66883">
        <ele>242.42510725311</ele>
        <time>2021-03-30T12:07:49.333Z</time>
      </trkpt>
      <trkpt lat="48.99217" lon="7.66828">
        <ele>241.32737975219</ele>
        <time>2021-03-30T12:07:51.821Z</time>
      </trkpt>
      <trkpt lat="48.99216" lon="7.66756">
        <ele>240.41855119073</ele>
        <time>2021-03-30T12:07:54.324Z</time>
      </trkpt>
      <trkpt lat="48.99216" lon="7.66741">
        <ele>239.44806872289</ele>
        <time>2021-03-30T12:07:56.831Z</time>
      </trkpt>
      <trkpt lat="48.99216" lon="7.66679">
        <ele>238.51158829478</ele>
        <time>2021-03-30T12:07:59.351Z</time>
      </trkpt>
      <trkpt lat="48.99218" lon="7.66641">
        <ele>237.52147358051</ele>
        <time>2021-03-30T12:08:01.880Z</time>
      </trkpt>
      <trkpt lat="48.99219" lon="7.6661">
        <ele>236.49620674069</ele>
        <time>2021-03-30T12:08:04.416Z</time>
      </trkpt>
      <trkpt lat="48.9922" lon="7.66579">
        <ele>235.41742232338</ele>
        <time>2021-03-30T12:08:06.958Z</time>
      </trkpt>
      <trkpt lat="48.99219" lon="7.66574">
        <ele>234.36364226478</ele>
        <time>2021-03-30T12:08:09.502Z</time>
      </trkpt>
      <trkpt lat="48.99216" lon="7.66557">
        <ele>233.19830858195</ele>
        <time>2021-03-30T12:08:12.049Z</time>
      </trkpt>
      <trkpt lat="48.9921" lon="7.66539">
        <ele>231.96857859128</ele>
        <time>2021-03-30T12:08:14.601Z</time>
      </trkpt>
      <trkpt lat="48.99199" lon="7.66517">
        <ele>230.7638153316</ele>
        <time>2021-03-30T12:08:17.159Z</time>
      </trkpt>
      <trkpt lat="48.99197" lon="7.66513">
        <ele>229.72905311202</ele>
        <time>2021-03-30T12:08:19.718Z</time>
      </trkpt>
      <trkpt lat="48.99191" lon="7.66496">
        <ele>228.65555724871</ele>
        <time>2021-03-30T12:08:22.281Z</time>
      </trkpt>
      <trkpt lat="48.99206" lon="7.66416">
        <ele>227.68579757867</ele>
        <time>2021-03-30T12:08:24.862Z</time>
      </trkpt>
      <trkpt lat="48.9922" lon="7.66355">
        <ele>226.87327622039</ele>
        <time>2021-03-30T12:08:27.458Z</time>
      </trkpt>
      <trkpt lat="48.99238" lon="7.66289">
        <ele>225.88475683326</ele>
        <time>2021-03-30T12:08:30.069Z</time>
      </trkpt>
      <trkpt lat="48.99256" lon="7.6624">
        <ele>225.01825698218</ele>
        <time>2021-03-30T12:08:32.693Z</time>
      </trkpt>
      <trkpt lat="48.99276" lon="7.66196">
        <ele>224.13849860974</ele>
        <time>2021-03-30T12:08:35.328Z</time>
      </trkpt>
      <trkpt lat="48.99296" lon="7.66166">
        <ele>223.18253557575</ele>
        <time>2021-03-30T12:08:37.973Z</time>
      </trkpt>
      <trkpt lat="48.99321" lon="7.66143">
        <ele>222.35004183076</ele>
        <time>2021-03-30T12:08:40.628Z</time>
      </trkpt>
      <trkpt lat="48.99361" lon="7.66101">
        <ele>221.69932106371</ele>
        <time>2021-03-30T12:08:43.299Z</time>
      </trkpt>
      <trkpt lat="48.99414" lon="7.66046">
        <ele>221.02315355021</ele>
        <time>2021-03-30T12:08:45.991Z</time>
      </trkpt>
      <trkpt lat="48.99442" lon="7.66026">
        <ele>220.4753151324</ele>
        <time>2021-03-30T12:08:48.694Z</time>
      </trkpt>
      <trkpt lat="48.99463" lon="7.66018">
        <ele>219.96580176427</ele>
        <time>2021-03-30T12:08:51.404Z</time>
      </trkpt>
      <trkpt lat="48.99487" lon="7.6601">
        <ele>219.47892931265</ele>
        <time>2021-03-30T12:08:54.122Z</time>
      </trkpt>
      <trkpt lat="48.99487" lon="7.66003">
        <ele>219.05347028791</ele>
        <time>2021-03-30T12:08:56.841Z</time>
      </trkpt>
      <trkpt lat="48.99489" lon="7.65994">
        <ele>218.72232982722</ele>
        <time>2021-03-30T12:08:59.563Z</time>
      </trkpt>
      <trkpt lat="48.99492" lon="7.65975">
        <ele>218.43432265366</ele>
        <time>2021-03-30T12:09:02.289Z</time>
      </trkpt>
      <trkpt lat="48.99497" lon="7.65957">
        <ele>218.26270123105</ele>
        <time>2021-03-30T12:09:05.019Z</time>
      </trkpt>
      <trkpt lat="48.99501" lon="7.65944">
        <ele>218.16848094285</ele>
        <time>2021-03-30T12:09:07.752Z</time>
      </trkpt>
      <trkpt lat="48.99506" lon="7.6593">
        <ele>218.16768256084</ele>
        <time>2021-03-30T12:09:10.489Z</time>
      </trkpt>
      <trkpt lat="48.99512" lon="7.65917">
        <ele>218.24669981167</ele>
        <time>2021-03-30T12:09:13.229Z</time>
      </trkpt>
      <trkpt lat="48.99517" lon="7.65906">
        <ele>218.42441001721</ele>
        <time>2021-03-30T12:09:15.972Z</time>
      </trkpt>
      <trkpt lat="48.99519" lon="7.65897">
        <ele>218.68659957868</ele>
        <time>2021-03-30T12:09:18.717Z</time>
      </trkpt>
      <trkpt lat="48.9952" lon="7.65888">
        <ele>219.05224562139</ele>
        <time>2021-03-30T12:09:21.464Z</time>
      </trkpt>
      <trkpt lat="48.99519" lon="7.65878">
        <ele>219.49641768861</ele>
        <time>2021-03-30T12:09:24.214Z</time>
      </trkpt>
      <trkpt lat="48.99518" lon="7.6587">
        <ele>220.00395880947</ele>
        <time>2021-03-30T12:09:26.965Z</time>
      </trkpt>
      <trkpt lat="48.99517" lon="7.6586">
        <ele>220.56887679255</ele>
        <time>2021-03-30T12:09:29.719Z</time>
      </trkpt>
      <trkpt lat="48.99515" lon="7.65853">
        <ele>221.187289415</ele>
        <time>2021-03-30T12:09:32.474Z</time>
      </trkpt>
      <trkpt lat="48.99514" lon="7.65851">
        <ele>221.8542570237</ele>
        <time>2021-03-30T12:09:35.230Z</time>
      </trkpt>
      <trkpt lat="48.99515" lon="7.65851">
        <ele>222.57176363232</ele>
        <time>2021-03-30T12:09:37.986Z</time>
      </trkpt>
      <trkpt lat="48.99513" lon="7.65848">
        <ele>223.33769641673</ele>
        <time>2021-03-30T12:09:40.743Z</time>
      </trkpt>
      <trkpt lat="48.99509" lon="7.65838">
        <ele>224.16933269209</ele>
        <time>2021-03-30T12:09:43.503Z</time>
      </trkpt>
      <trkpt lat="48.99505" lon="7.6583">
        <ele>225.0252855844</ele>
        <time>2021-03-30T12:09:46.265Z</time>
      </trkpt>
      <trkpt lat="48.99497" lon="7.65822">
        <ele>225.91613213506</ele>
        <time>2021-03-30T12:09:49.030Z</time>
      </trkpt>
      <trkpt lat="48.99491" lon="7.65816">
        <ele>226.80439963515</ele>
        <time>2021-03-30T12:09:51.797Z</time>
      </trkpt>
      <trkpt lat="48.99471" lon="7.65803">
        <ele>227.87582654428</ele>
        <time>2021-03-30T12:09:54.572Z</time>
      </trkpt>
      <trkpt lat="48.99471" lon="7.65803">
        <ele>229.52654255162</ele>
        <time>2021-03-30T12:09:57.347Z</time>
      </trkpt>
      <trkpt lat="48.99458" lon="7.65792">
        <ele>230.4978562937</ele>
        <time>2021-03-30T12:10:00.127Z</time>
      </trkpt>
      <trkpt lat="48.99446" lon="7.6576">
        <ele>231.47005828909</ele>
        <time>2021-03-30T12:10:02.915Z</time>
      </trkpt>
      <trkpt lat="48.99441" lon="7.65748">
        <ele>232.20579072489</ele>
        <time>2021-03-30T12:10:05.706Z</time>
      </trkpt>
      <trkpt lat="48.99438" lon="7.65737">
        <ele>232.83740612988</ele>
        <time>2021-03-30T12:10:08.499Z</time>
      </trkpt>
      <trkpt lat="48.99435" lon="7.65721">
        <ele>233.39519364335</ele>
        <time>2021-03-30T12:10:11.296Z</time>
      </trkpt>
      <trkpt lat="48.99432" lon="7.65697">
        <ele>233.82969943497</ele>
        <time>2021-03-30T12:10:14.098Z</time>
      </trkpt>
      <trkpt lat="48.9943" lon="7.65678">
        <ele>234.22578517145</ele>
        <time>2021-03-30T12:10:16.905Z</time>
      </trkpt>
      <trkpt lat="48.99428" lon="7.65653">
        <ele>234.55268319538</ele>
        <time>2021-03-30T12:10:19.717Z</time>
      </trkpt>
      <trkpt lat="48.99427" lon="7.65629">
        <ele>234.8146859398</ele>
        <time>2021-03-30T12:10:22.534Z</time>
      </trkpt>
      <trkpt lat="48.99426" lon="7.65614">
        <ele>235.00740684305</ele>
        <time>2021-03-30T12:10:25.355Z</time>
      </trkpt>
      <trkpt lat="48.99424" lon="7.65602">
        <ele>235.09940870926</ele>
        <time>2021-03-30T12:10:28.178Z</time>
      </trkpt>
      <trkpt lat="48.9942" lon="7.65591">
        <ele>235.14592698703</ele>
        <time>2021-03-30T12:10:31.004Z</time>
      </trkpt>
      <trkpt lat="48.99415" lon="7.6558">
        <ele>235.13403389794</ele>
        <time>2021-03-30T12:10:33.833Z</time>
      </trkpt>
      <trkpt lat="48.99409" lon="7.65569">
        <ele>235.08203007958</ele>
        <time>2021-03-30T12:10:36.665Z</time>
      </trkpt>
      <trkpt lat="48.99402" lon="7.65558">
        <ele>235.01154709509</ele>
        <time>2021-03-30T12:10:39.501Z</time>
      </trkpt>
      <trkpt lat="48.99375" lon="7.65527">
        <ele>235.00834843313</ele>
        <time>2021-03-30T12:10:42.348Z</time>
      </trkpt>
      <trkpt lat="48.99361" lon="7.65514">
        <ele>234.88127258871</ele>
        <time>2021-03-30T12:10:45.200Z</time>
      </trkpt>
      <trkpt lat="48.99348" lon="7.6549">
        <ele>234.75796504638</ele>
        <time>2021-03-30T12:10:48.059Z</time>
      </trkpt>
      <trkpt lat="48.9934" lon="7.65459">
        <ele>234.65924881916</ele>
        <time>2021-03-30T12:10:50.926Z</time>
      </trkpt>
      <trkpt lat="48.99334" lon="7.65422">
        <ele>234.60038943176</ele>
        <time>2021-03-30T12:10:53.801Z</time>
      </trkpt>
      <trkpt lat="48.99332" lon="7.65391">
        <ele>234.58197665836</ele>
        <time>2021-03-30T12:10:56.683Z</time>
      </trkpt>
      <trkpt lat="48.99331" lon="7.6537">
        <ele>234.64724127841</ele>
        <time>2021-03-30T12:10:59.569Z</time>
      </trkpt>
      <trkpt lat="48.99333" lon="7.65365">
        <ele>234.86619374404</ele>
        <time>2021-03-30T12:11:02.457Z</time>
      </trkpt>
      <trkpt lat="48.99329" lon="7.65353">
        <ele>235.20161875164</ele>
        <time>2021-03-30T12:11:05.348Z</time>
      </trkpt>
      <trkpt lat="48.99325" lon="7.65336">
        <ele>235.7067999466</ele>
        <time>2021-03-30T12:11:08.243Z</time>
      </trkpt>
      <trkpt lat="48.99318" lon="7.653">
        <ele>236.4611776775</ele>
        <time>2021-03-30T12:11:11.146Z</time>
      </trkpt>
      <trkpt lat="48.99308" lon="7.65247">
        <ele>237.4079667113</ele>
        <time>2021-03-30T12:11:14.061Z</time>
      </trkpt>
      <trkpt lat="48.99304" lon="7.65223">
        <ele>238.56108943242</ele>
        <time>2021-03-30T12:11:16.981Z</time>
      </trkpt>
      <trkpt lat="48.993" lon="7.65199">
        <ele>239.95398184216</ele>
        <time>2021-03-30T12:11:19.907Z</time>
      </trkpt>
      <trkpt lat="48.99305" lon="7.65187">
        <ele>241.59783195391</ele>
        <time>2021-03-30T12:11:22.836Z</time>
      </trkpt>
      <trkpt lat="48.99313" lon="7.65156">
        <ele>243.58564182416</ele>
        <time>2021-03-30T12:11:25.772Z</time>
      </trkpt>
      <trkpt lat="48.99322" lon="7.65107">
        <ele>245.76633294069</ele>
        <time>2021-03-30T12:11:28.719Z</time>
      </trkpt>
      <trkpt lat="48.99338" lon="7.65022">
        <ele>248.17271373926</ele>
        <time>2021-03-30T12:11:31.686Z</time>
      </trkpt>
      <trkpt lat="48.99349" lon="7.64983">
        <ele>250.76519648079</ele>
        <time>2021-03-30T12:11:34.662Z</time>
      </trkpt>
      <trkpt lat="48.99359" lon="7.64921">
        <ele>253.57017183241</ele>
        <time>2021-03-30T12:11:37.652Z</time>
      </trkpt>
      <trkpt lat="48.99369" lon="7.64872">
        <ele>256.82361717087</ele>
        <time>2021-03-30T12:11:40.653Z</time>
      </trkpt>
      <trkpt lat="48.99386" lon="7.64803">
        <ele>260.52833951337</ele>
        <time>2021-03-30T12:11:43.671Z</time>
      </trkpt>
      <trkpt lat="48.99396" lon="7.64758">
        <ele>264.6090020107</ele>
        <time>2021-03-30T12:11:46.699Z</time>
      </trkpt>
      <trkpt lat="48.99401" lon="7.64753">
        <ele>268.69673530864</ele>
        <time>2021-03-30T12:11:49.729Z</time>
      </trkpt>
      <trkpt lat="48.99395" lon="7.64739">
        <ele>273.23211155079</ele>
        <time>2021-03-30T12:11:52.763Z</time>
      </trkpt>
      <trkpt lat="48.99385" lon="7.64711">
        <ele>278.30845190551</ele>
        <time>2021-03-30T12:11:55.804Z</time>
      </trkpt>
      <trkpt lat="48.99373" lon="7.64696">
        <ele>283.57570835439</ele>
        <time>2021-03-30T12:11:58.850Z</time>
      </trkpt>
      <trkpt lat="48.99358" lon="7.64674">
        <ele>289.40447083548</ele>
        <time>2021-03-30T12:12:01.903Z</time>
      </trkpt>
      <trkpt lat="48.9935" lon="7.64657">
        <ele>295.09420730425</ele>
        <time>2021-03-30T12:12:04.960Z</time>
      </trkpt>
      <trkpt lat="48.99335" lon="7.64642">
        <ele>301.07627301193</ele>
        <time>2021-03-30T12:12:08.023Z</time>
      </trkpt>
      <trkpt lat="48.99323" lon="7.64621">
        <ele>307.2040150727</ele>
        <time>2021-03-30T12:12:11.093Z</time>
      </trkpt>
      <trkpt lat="48.99309" lon="7.64599">
        <ele>313.15673866056</ele>
        <time>2021-03-30T12:12:14.169Z</time>
      </trkpt>
      <trkpt lat="48.99295" lon="7.64573">
        <ele>319.07702669256</ele>
        <time>2021-03-30T12:12:17.253Z</time>
      </trkpt>
      <trkpt lat="48.99285" lon="7.64551">
        <ele>325.00349739569</ele>
        <time>2021-03-30T12:12:20.342Z</time>
      </trkpt>
      <trkpt lat="48.99272" lon="7.64535">
        <ele>331.04501445509</ele>
        <time>2021-03-30T12:12:23.437Z</time>
      </trkpt>
      <trkpt lat="48.99269" lon="7.64513">
        <ele>336.98775976817</ele>
        <time>2021-03-30T12:12:26.537Z</time>
      </trkpt>
      <trkpt lat="48.9926" lon="7.64504">
        <ele>343.09889924994</ele>
        <time>2021-03-30T12:12:29.641Z</time>
      </trkpt>
      <trkpt lat="48.99238" lon="7.64485">
        <ele>349.41628314021</ele>
        <time>2021-03-30T12:12:32.753Z</time>
      </trkpt>
      <trkpt lat="48.99198" lon="7.64444">
        <ele>355.85613504471</ele>
        <time>2021-03-30T12:12:35.881Z</time>
      </trkpt>
      <trkpt lat="48.99158" lon="7.64396">
        <ele>362.10283056175</ele>
        <time>2021-03-30T12:12:39.026Z</time>
      </trkpt>
      <trkpt lat="48.99122" lon="7.6436">
        <ele>368.22231108254</ele>
        <time>2021-03-30T12:12:42.186Z</time>
      </trkpt>
      <trkpt lat="48.99095" lon="7.64326">
        <ele>374.30154386409</ele>
        <time>2021-03-30T12:12:45.357Z</time>
      </trkpt>
      <trkpt lat="48.99048" lon="7.6427">
        <ele>380.736616985</ele>
        <time>2021-03-30T12:12:48.548Z</time>
      </trkpt>
      <trkpt lat="48.98997" lon="7.64213">
        <ele>386.98973751634</ele>
        <time>2021-03-30T12:12:51.760Z</time>
      </trkpt>
      <trkpt lat="48.98968" lon="7.64182">
        <ele>392.83385192903</ele>
        <time>2021-03-30T12:12:54.984Z</time>
      </trkpt>
      <trkpt lat="48.98967" lon="7.64181">
        <ele>398.41355281154</ele>
        <time>2021-03-30T12:12:58.209Z</time>
      </trkpt>
      <trkpt lat="48.98957" lon="7.6417">
        <ele>403.91028520601</ele>
        <time>2021-03-30T12:13:01.438Z</time>
      </trkpt>
      <trkpt lat="48.98922" lon="7.64137">
        <ele>409.73840682989</ele>
        <time>2021-03-30T12:13:04.680Z</time>
      </trkpt>
      <trkpt lat="48.98881" lon="7.64099">
        <ele>415.63004987117</ele>
        <time>2021-03-30T12:13:07.938Z</time>
      </trkpt>
      <trkpt lat="48.98843" lon="7.64067">
        <ele>421.40314120846</ele>
        <time>2021-03-30T12:13:11.211Z</time>
      </trkpt>
      <trkpt lat="48.98787" lon="7.64021">
        <ele>426.81834546259</ele>
        <time>2021-03-30T12:13:14.505Z</time>
      </trkpt>
      <trkpt lat="48.98764" lon="7.64002">
        <ele>431.5726015461</ele>
        <time>2021-03-30T12:13:17.808Z</time>
      </trkpt>
      <trkpt lat="48.98738" lon="7.63978">
        <ele>436.02957069678</ele>
        <time>2021-03-30T12:13:21.121Z</time>
      </trkpt>
      <trkpt lat="48.98731" lon="7.63967">
        <ele>439.83487953005</ele>
        <time>2021-03-30T12:13:24.437Z</time>
      </trkpt>
      <trkpt lat="48.98708" lon="7.63932">
        <ele>443.12832179619</ele>
        <time>2021-03-30T12:13:27.764Z</time>
      </trkpt>
      <trkpt lat="48.98686" lon="7.63902">
        <ele>446.18089434635</ele>
        <time>2021-03-30T12:13:31.101Z</time>
      </trkpt>
      <trkpt lat="48.98668" lon="7.63882">
        <ele>449.21801519098</ele>
        <time>2021-03-30T12:13:34.446Z</time>
      </trkpt>
      <trkpt lat="48.98654" lon="7.63864">
        <ele>452.07710094409</ele>
        <time>2021-03-30T12:13:37.797Z</time>
      </trkpt>
      <trkpt lat="48.9864" lon="7.63839">
        <ele>454.78096121368</ele>
        <time>2021-03-30T12:13:41.155Z</time>
      </trkpt>
      <trkpt lat="48.98627" lon="7.63813">
        <ele>457.23361308064</ele>
        <time>2021-03-30T12:13:44.520Z</time>
      </trkpt>
      <trkpt lat="48.9861" lon="7.63776">
        <ele>459.64559463946</ele>
        <time>2021-03-30T12:13:47.895Z</time>
      </trkpt>
      <trkpt lat="48.98599" lon="7.63751">
        <ele>461.78831241201</ele>
        <time>2021-03-30T12:13:51.277Z</time>
      </trkpt>
      <trkpt lat="48.98593" lon="7.63734">
        <ele>463.87354191269</ele>
        <time>2021-03-30T12:13:54.663Z</time>
      </trkpt>
      <trkpt lat="48.98589" lon="7.63719">
        <ele>465.79907057933</ele>
        <time>2021-03-30T12:13:58.052Z</time>
      </trkpt>
      <trkpt lat="48.98587" lon="7.6371">
        <ele>467.53445783302</ele>
        <time>2021-03-30T12:14:01.443Z</time>
      </trkpt>
      <trkpt lat="48.98588" lon="7.63709">
        <ele>469.06163691057</ele>
        <time>2021-03-30T12:14:04.835Z</time>
      </trkpt>
      <trkpt lat="48.98587" lon="7.637">
        <ele>470.52562759766</ele>
        <time>2021-03-30T12:14:08.229Z</time>
      </trkpt>
      <trkpt lat="48.98571" lon="7.63664">
        <ele>472.4247246857</ele>
        <time>2021-03-30T12:14:11.632Z</time>
      </trkpt>
      <trkpt lat="48.98566" lon="7.63633">
        <ele>473.90944953543</ele>
        <time>2021-03-30T12:14:15.042Z</time>
      </trkpt>
      <trkpt lat="48.98566" lon="7.63627">
        <ele>475.04882064248</ele>
        <time>2021-03-30T12:14:18.454Z</time>
      </trkpt>
      <trkpt lat="48.98559" lon="7.63584">
        <ele>476.46991374647</ele>
        <time>2021-03-30T12:14:21.875Z</time>
      </trkpt>
      <trkpt lat="48.98556" lon="7.63539">
        <ele>477.4806623273</ele>
        <time>2021-03-30T12:14:25.306Z</time>
      </trkpt>
      <trkpt lat="48.9855" lon="7.6349">
        <ele>478.34315888666</ele>
        <time>2021-03-30T12:14:28.748Z</time>
      </trkpt>
      <trkpt lat="48.98549" lon="7.63442">
        <ele>479.02936113676</ele>
        <time>2021-03-30T12:14:32.201Z</time>
      </trkpt>
      <trkpt lat="48.98548" lon="7.63449">
        <ele>479.52162436654</ele>
        <time>2021-03-30T12:14:35.655Z</time>
      </trkpt>
      <trkpt lat="48.98526" lon="7.63461">
        <ele>480.05826233945</ele>
        <time>2021-03-30T12:14:39.117Z</time>
      </trkpt>
      <trkpt lat="48.98492" lon="7.6347">
        <ele>480.57501968251</ele>
        <time>2021-03-30T12:14:42.591Z</time>
      </trkpt>
      <trkpt lat="48.98492" lon="7.63468">
        <ele>480.72119572274</ele>
        <time>2021-03-30T12:14:46.065Z</time>
      </trkpt>
      <trkpt lat="48.98499" lon="7.63439">
        <ele>480.65110847516</ele>
        <time>2021-03-30T12:14:49.546Z</time>
      </trkpt>
      <trkpt lat="48.98512" lon="7.63401">
        <ele>480.46576586767</ele>
        <time>2021-03-30T12:14:53.036Z</time>
      </trkpt>
      <trkpt lat="48.98531" lon="7.63362">
        <ele>480.23945450471</ele>
        <time>2021-03-30T12:14:56.537Z</time>
      </trkpt>
      <trkpt lat="48.98553" lon="7.63323">
        <ele>479.94540865045</ele>
        <time>2021-03-30T12:15:00.049Z</time>
      </trkpt>
      <trkpt lat="48.98575" lon="7.63282">
        <ele>479.70350581546</ele>
        <time>2021-03-30T12:15:03.573Z</time>
      </trkpt>
      <trkpt lat="48.98592" lon="7.63249">
        <ele>479.44593380119</ele>
        <time>2021-03-30T12:15:07.106Z</time>
      </trkpt>
      <trkpt lat="48.98601" lon="7.63226">
        <ele>479.26317209337</ele>
        <time>2021-03-30T12:15:10.645Z</time>
      </trkpt>
      <trkpt lat="48.98604" lon="7.63205">
        <ele>479.15471811789</ele>
        <time>2021-03-30T12:15:14.189Z</time>
      </trkpt>
      <trkpt lat="48.98604" lon="7.63203">
        <ele>479.0901685065</ele>
        <time>2021-03-30T12:15:17.733Z</time>
      </trkpt>
      <trkpt lat="48.98601" lon="7.63145">
        <ele>479.09225901453</ele>
        <time>2021-03-30T12:15:21.290Z</time>
      </trkpt>
      <trkpt lat="48.98598" lon="7.63102">
        <ele>479.19924029229</ele>
        <time>2021-03-30T12:15:24.856Z</time>
      </trkpt>
      <trkpt lat="48.98591" lon="7.63077">
        <ele>479.25472098809</ele>
        <time>2021-03-30T12:15:28.428Z</time>
      </trkpt>
      <trkpt lat="48.98593" lon="7.63051">
        <ele>479.47128155869</ele>
        <time>2021-03-30T12:15:32.006Z</time>
      </trkpt>
      <trkpt lat="48.98603" lon="7.63009">
        <ele>480.00841349219</ele>
        <time>2021-03-30T12:15:35.594Z</time>
      </trkpt>
      <trkpt lat="48.98606" lon="7.62976">
        <ele>480.49193965003</ele>
        <time>2021-03-30T12:15:39.189Z</time>
      </trkpt>
      <trkpt lat="48.98603" lon="7.62909">
        <ele>481.0097871303</ele>
        <time>2021-03-30T12:15:42.799Z</time>
      </trkpt>
      <trkpt lat="48.98592" lon="7.6284">
        <ele>481.55926844156</ele>
        <time>2021-03-30T12:15:46.424Z</time>
      </trkpt>
      <trkpt lat="48.98557" lon="7.62744">
        <ele>482.35100586873</ele>
        <time>2021-03-30T12:15:50.074Z</time>
      </trkpt>
      <trkpt lat="48.98536" lon="7.62692">
        <ele>482.90699303504</ele>
        <time>2021-03-30T12:15:53.737Z</time>
      </trkpt>
      <trkpt lat="48.98529" lon="7.62655">
        <ele>483.50668425107</ele>
        <time>2021-03-30T12:15:57.408Z</time>
      </trkpt>
      <trkpt lat="48.98532" lon="7.62613">
        <ele>484.24636735888</ele>
        <time>2021-03-30T12:16:01.089Z</time>
      </trkpt>
      <trkpt lat="48.9854" lon="7.62546">
        <ele>484.96143864704</ele>
        <time>2021-03-30T12:16:04.785Z</time>
      </trkpt>
      <trkpt lat="48.98553" lon="7.62416">
        <ele>485.64943256236</ele>
        <time>2021-03-30T12:16:08.510Z</time>
      </trkpt>
      <trkpt lat="48.98553" lon="7.62416">
        <ele>487.47500855688</ele>
        <time>2021-03-30T12:16:12.235Z</time>
      </trkpt>
      <trkpt lat="48.98564" lon="7.62299">
        <ele>488.60065431236</ele>
        <time>2021-03-30T12:16:15.986Z</time>
      </trkpt>
      <trkpt lat="48.98572" lon="7.62207">
        <ele>489.74465076788</ele>
        <time>2021-03-30T12:16:19.757Z</time>
      </trkpt>
      <trkpt lat="48.98575" lon="7.62178">
        <ele>490.89661040544</ele>
        <time>2021-03-30T12:16:23.534Z</time>
      </trkpt>
      <trkpt lat="48.98574" lon="7.62154">
        <ele>492.12273965478</ele>
        <time>2021-03-30T12:16:27.317Z</time>
      </trkpt>
      <trkpt lat="48.98576" lon="7.62105">
        <ele>493.55708448052</ele>
        <time>2021-03-30T12:16:31.110Z</time>
      </trkpt>
      <trkpt lat="48.98599" lon="7.62047">
        <ele>495.24979023188</ele>
        <time>2021-03-30T12:16:34.918Z</time>
      </trkpt>
      <trkpt lat="48.98594" lon="7.62002">
        <ele>496.74088009573</ele>
        <time>2021-03-30T12:16:38.736Z</time>
      </trkpt>
      <trkpt lat="48.98582" lon="7.61961">
        <ele>498.22806208502</ele>
        <time>2021-03-30T12:16:42.564Z</time>
      </trkpt>
      <trkpt lat="48.9856" lon="7.61916">
        <ele>499.68994577653</ele>
        <time>2021-03-30T12:16:46.405Z</time>
      </trkpt>
      <trkpt lat="48.98535" lon="7.61865">
        <ele>501.05297462457</ele>
        <time>2021-03-30T12:16:50.259Z</time>
      </trkpt>
      <trkpt lat="48.98523" lon="7.61848">
        <ele>502.37175432055</ele>
        <time>2021-03-30T12:16:54.119Z</time>
      </trkpt>
      <trkpt lat="48.98513" lon="7.61817">
        <ele>503.89691537448</ele>
        <time>2021-03-30T12:16:57.987Z</time>
      </trkpt>
      <trkpt lat="48.9849" lon="7.61771">
        <ele>505.60690505149</ele>
        <time>2021-03-30T12:17:01.867Z</time>
      </trkpt>
      <trkpt lat="48.98461" lon="7.61742">
        <ele>507.39366477055</ele>
        <time>2021-03-30T12:17:05.759Z</time>
      </trkpt>
      <trkpt lat="48.98428" lon="7.61718">
        <ele>509.33492079455</ele>
        <time>2021-03-30T12:17:09.663Z</time>
      </trkpt>
      <trkpt lat="48.98402" lon="7.61701">
        <ele>511.00966475831</ele>
        <time>2021-03-30T12:17:13.576Z</time>
      </trkpt>
      <trkpt lat="48.98373" lon="7.61678">
        <ele>512.65315862001</ele>
        <time>2021-03-30T12:17:17.500Z</time>
      </trkpt>
      <trkpt lat="48.98348" lon="7.61658">
        <ele>514.40730735355</ele>
        <time>2021-03-30T12:17:21.434Z</time>
      </trkpt>
      <trkpt lat="48.98323" lon="7.61635">
        <ele>516.24853370898</ele>
        <time>2021-03-30T12:17:25.377Z</time>
      </trkpt>
      <trkpt lat="48.9828" lon="7.61593">
        <ele>518.14896427298</ele>
        <time>2021-03-30T12:17:29.338Z</time>
      </trkpt>
      <trkpt lat="48.9825" lon="7.61557">
        <ele>520.10302312849</ele>
        <time>2021-03-30T12:17:33.311Z</time>
      </trkpt>
      <trkpt lat="48.9824" lon="7.61546">
        <ele>522.05171560751</ele>
        <time>2021-03-30T12:17:37.289Z</time>
      </trkpt>
      <trkpt lat="48.98222" lon="7.61519">
        <ele>524.15984586528</ele>
        <time>2021-03-30T12:17:41.275Z</time>
      </trkpt>
      <trkpt lat="48.98207" lon="7.6149">
        <ele>526.30066868616</ele>
        <time>2021-03-30T12:17:45.269Z</time>
      </trkpt>
      <trkpt lat="48.98196" lon="7.61464">
        <ele>528.49970491607</ele>
        <time>2021-03-30T12:17:49.270Z</time>
      </trkpt>
      <trkpt lat="48.98181" lon="7.61415">
        <ele>530.80775406871</ele>
        <time>2021-03-30T12:17:53.283Z</time>
      </trkpt>
      <trkpt lat="48.98173" lon="7.61503">
        <ele>533.01938897743</ele>
        <time>2021-03-30T12:17:57.315Z</time>
      </trkpt>
      <trkpt lat="48.98158" lon="7.61551">
        <ele>535.21876998466</ele>
        <time>2021-03-30T12:18:01.359Z</time>
      </trkpt>
      <trkpt lat="48.98149" lon="7.61548">
        <ele>537.77456904876</ele>
        <time>2021-03-30T12:18:05.406Z</time>
      </trkpt>
      <trkpt lat="48.98139" lon="7.61545">
        <ele>540.46861539274</ele>
        <time>2021-03-30T12:18:09.456Z</time>
      </trkpt>
      <trkpt lat="48.9813" lon="7.61542">
        <ele>543.21618895596</ele>
        <time>2021-03-30T12:18:13.509Z</time>
      </trkpt>
      <trkpt lat="48.98121" lon="7.61538">
        <ele>546.05407425186</ele>
        <time>2021-03-30T12:18:17.565Z</time>
      </trkpt>
      <trkpt lat="48.98106" lon="7.61538">
        <ele>549.07346004</ele>
        <time>2021-03-30T12:18:21.626Z</time>
      </trkpt>
      <trkpt lat="48.98096" lon="7.61545">
        <ele>552.02496504448</ele>
        <time>2021-03-30T12:18:25.691Z</time>
      </trkpt>
      <trkpt lat="48.9809" lon="7.61548">
        <ele>554.91062799353</ele>
        <time>2021-03-30T12:18:29.758Z</time>
      </trkpt>
      <trkpt lat="48.98089" lon="7.61514">
        <ele>557.79202326876</ele>
        <time>2021-03-30T12:18:33.833Z</time>
      </trkpt>
      <trkpt lat="48.98076" lon="7.6154">
        <ele>560.7411921813</ele>
        <time>2021-03-30T12:18:37.915Z</time>
      </trkpt>
      <trkpt lat="48.98074" lon="7.6152">
        <ele>563.5539480129</ele>
        <time>2021-03-30T12:18:42.001Z</time>
      </trkpt>
      <trkpt lat="48.98059" lon="7.61526">
        <ele>566.48493090453</ele>
        <time>2021-03-30T12:18:46.092Z</time>
      </trkpt>
      <trkpt lat="48.98055" lon="7.61504">
        <ele>569.21595085573</ele>
        <time>2021-03-30T12:18:50.188Z</time>
      </trkpt>
      <trkpt lat="48.98041" lon="7.61509">
        <ele>571.94867035302</ele>
        <time>2021-03-30T12:18:54.289Z</time>
      </trkpt>
      <trkpt lat="48.98037" lon="7.61492">
        <ele>574.47000603662</ele>
        <time>2021-03-30T12:18:58.394Z</time>
      </trkpt>
      <trkpt lat="48.98029" lon="7.61492">
        <ele>576.85683318016</ele>
        <time>2021-03-30T12:19:02.501Z</time>
      </trkpt>
      <trkpt lat="48.9802" lon="7.61508">
        <ele>579.08786708748</ele>
        <time>2021-03-30T12:19:06.613Z</time>
      </trkpt>
      <trkpt lat="48.98014" lon="7.61489">
        <ele>581.23169221813</ele>
        <time>2021-03-30T12:19:10.730Z</time>
      </trkpt>
      <trkpt lat="48.98009" lon="7.61473">
        <ele>583.1449869517</ele>
        <time>2021-03-30T12:19:14.851Z</time>
      </trkpt>
      <trkpt lat="48.97995" lon="7.61473">
        <ele>584.84838036394</ele>
        <time>2021-03-30T12:19:18.976Z</time>
      </trkpt>
      <trkpt lat="48.97972" lon="7.61477">
        <ele>586.37158790404</ele>
        <time>2021-03-30T12:19:23.109Z</time>
      </trkpt>
      <trkpt lat="48.97956" lon="7.6147">
        <ele>587.72907127555</ele>
        <time>2021-03-30T12:19:27.248Z</time>
      </trkpt>
      <trkpt lat="48.97942" lon="7.61474">
        <ele>588.92648905843</ele>
        <time>2021-03-30T12:19:31.392Z</time>
      </trkpt>
      <trkpt lat="48.97937" lon="7.61477">
        <ele>589.89380339871</ele>
        <time>2021-03-30T12:19:35.537Z</time>
      </trkpt>
      <trkpt lat="48.97936" lon="7.61506">
        <ele>590.58869369109</ele>
        <time>2021-03-30T12:19:39.689Z</time>
      </trkpt>
      <trkpt lat="48.97937" lon="7.6152">
        <ele>591.10654092052</ele>
        <time>2021-03-30T12:19:43.844Z</time>
      </trkpt>
      <trkpt lat="48.97936" lon="7.61535">
        <ele>591.39549639433</ele>
        <time>2021-03-30T12:19:48.002Z</time>
      </trkpt>
      <trkpt lat="48.97929" lon="7.61546">
        <ele>591.44522939251</ele>
        <time>2021-03-30T12:19:52.164Z</time>
      </trkpt>
      <trkpt lat="48.97915" lon="7.61549">
        <ele>591.24703880065</ele>
        <time>2021-03-30T12:19:56.330Z</time>
      </trkpt>
      <trkpt lat="48.97902" lon="7.61544">
        <ele>590.82647929742</ele>
        <time>2021-03-30T12:20:00.501Z</time>
      </trkpt>
      <trkpt lat="48.97882" lon="7.6151">
        <ele>590.27208231744</ele>
        <time>2021-03-30T12:20:04.682Z</time>
      </trkpt>
      <trkpt lat="48.97862" lon="7.61488">
        <ele>589.43361886192</ele>
        <time>2021-03-30T12:20:08.871Z</time>
      </trkpt>
      <trkpt lat="48.97853" lon="7.61474">
        <ele>588.26949053153</ele>
        <time>2021-03-30T12:20:13.064Z</time>
      </trkpt>
      <trkpt lat="48.97845" lon="7.61447">
        <ele>586.79631645357</ele>
        <time>2021-03-30T12:20:17.264Z</time>
      </trkpt>
      <trkpt lat="48.97824" lon="7.61467">
        <ele>584.98812504847</ele>
        <time>2021-03-30T12:20:21.472Z</time>
      </trkpt>
      <trkpt lat="48.97813" lon="7.61467">
        <ele>582.92581751725</ele>
        <time>2021-03-30T12:20:25.684Z</time>
      </trkpt>
      <trkpt lat="48.97792" lon="7.61485">
        <ele>580.44339974581</ele>
        <time>2021-03-30T12:20:29.904Z</time>
      </trkpt>
      <trkpt lat="48.97778" lon="7.61494">
        <ele>577.74325225583</ele>
        <time>2021-03-30T12:20:34.129Z</time>
      </trkpt>
      <trkpt lat="48.97764" lon="7.61499">
        <ele>574.74088225641</ele>
        <time>2021-03-30T12:20:38.359Z</time>
      </trkpt>
      <trkpt lat="48.97766" lon="7.61515">
        <ele>571.60250691935</ele>
        <time>2021-03-30T12:20:42.592Z</time>
      </trkpt>
      <trkpt lat="48.97753" lon="7.61516">
        <ele>568.10685625412</ele>
        <time>2021-03-30T12:20:46.830Z</time>
      </trkpt>
      <trkpt lat="48.97753" lon="7.61532">
        <ele>564.45788353937</ele>
        <time>2021-03-30T12:20:51.071Z</time>
      </trkpt>
      <trkpt lat="48.97743" lon="7.61533">
        <ele>560.64305366182</ele>
        <time>2021-03-30T12:20:55.316Z</time>
      </trkpt>
      <trkpt lat="48.9774" lon="7.61549">
        <ele>556.5803507519</ele>
        <time>2021-03-30T12:20:59.564Z</time>
      </trkpt>
      <trkpt lat="48.9773" lon="7.61546">
        <ele>552.50535192567</ele>
        <time>2021-03-30T12:21:03.816Z</time>
      </trkpt>
      <trkpt lat="48.97725" lon="7.61562">
        <ele>548.15208117561</ele>
        <time>2021-03-30T12:21:08.071Z</time>
      </trkpt>
      <trkpt lat="48.977" lon="7.61562">
        <ele>543.55262497407</ele>
        <time>2021-03-30T12:21:12.335Z</time>
      </trkpt>
      <trkpt lat="48.97701" lon="7.61588">
        <ele>539.04179517701</ele>
        <time>2021-03-30T12:21:16.604Z</time>
      </trkpt>
      <trkpt lat="48.9768" lon="7.61585">
        <ele>534.49345806403</ele>
        <time>2021-03-30T12:21:20.881Z</time>
      </trkpt>
      <trkpt lat="48.97664" lon="7.61608">
        <ele>529.84977965448</ele>
        <time>2021-03-30T12:21:25.165Z</time>
      </trkpt>
      <trkpt lat="48.9765" lon="7.61607">
        <ele>525.53883991324</ele>
        <time>2021-03-30T12:21:29.453Z</time>
      </trkpt>
      <trkpt lat="48.97617" lon="7.61607">
        <ele>520.91593006905</ele>
        <time>2021-03-30T12:21:33.753Z</time>
      </trkpt>
      <trkpt lat="48.97573" lon="7.61648">
        <ele>516.37913477711</ele>
        <time>2021-03-30T12:21:38.070Z</time>
      </trkpt>
      <trkpt lat="48.97554" lon="7.61669">
        <ele>512.3012491603</ele>
        <time>2021-03-30T12:21:42.395Z</time>
      </trkpt>
      <trkpt lat="48.97549" lon="7.61684">
        <ele>508.3749041261</ele>
        <time>2021-03-30T12:21:46.723Z</time>
      </trkpt>
      <trkpt lat="48.97545" lon="7.61698">
        <ele>504.55156141664</ele>
        <time>2021-03-30T12:21:51.055Z</time>
      </trkpt>
      <trkpt lat="48.97545" lon="7.61702">
        <ele>500.80031978635</ele>
        <time>2021-03-30T12:21:55.388Z</time>
      </trkpt>
      <trkpt lat="48.97551" lon="7.61736">
        <ele>497.16990318735</ele>
        <time>2021-03-30T12:21:59.728Z</time>
      </trkpt>
      <trkpt lat="48.97596" lon="7.61725">
        <ele>493.32724805248</ele>
        <time>2021-03-30T12:22:04.083Z</time>
      </trkpt>
      <trkpt lat="48.97576" lon="7.6175">
        <ele>489.82382339253</ele>
        <time>2021-03-30T12:22:08.447Z</time>
      </trkpt>
      <trkpt lat="48.97546" lon="7.61786">
        <ele>486.2285424155</ele>
        <time>2021-03-30T12:22:12.824Z</time>
      </trkpt>
      <trkpt lat="48.97564" lon="7.61796">
        <ele>482.59548131631</ele>
        <time>2021-03-30T12:22:17.207Z</time>
      </trkpt>
      <trkpt lat="48.97533" lon="7.6185">
        <ele>478.51553607506</ele>
        <time>2021-03-30T12:22:21.606Z</time>
      </trkpt>
      <trkpt lat="48.97533" lon="7.6185">
        <ele>475.19686724956</ele>
        <time>2021-03-30T12:22:26.005Z</time>
      </trkpt>
      <trkpt lat="48.97528" lon="7.6186">
        <ele>471.7994956781</ele>
        <time>2021-03-30T12:22:30.407Z</time>
      </trkpt>
      <trkpt lat="48.97528" lon="7.61863">
        <ele>468.49667235905</ele>
        <time>2021-03-30T12:22:34.810Z</time>
      </trkpt>
      <trkpt lat="48.97529" lon="7.61876">
        <ele>465.11321378012</ele>
        <time>2021-03-30T12:22:39.216Z</time>
      </trkpt>
      <trkpt lat="48.97535" lon="7.61882">
        <ele>461.78564865701</ele>
        <time>2021-03-30T12:22:43.624Z</time>
      </trkpt>
      <trkpt lat="48.97522" lon="7.61905">
        <ele>458.37273042972</ele>
        <time>2021-03-30T12:22:48.039Z</time>
      </trkpt>
      <trkpt lat="48.97513" lon="7.6192">
        <ele>454.95446709879</ele>
        <time>2021-03-30T12:22:52.458Z</time>
      </trkpt>
      <trkpt lat="48.97507" lon="7.61943">
        <ele>451.39603483775</ele>
        <time>2021-03-30T12:22:56.883Z</time>
      </trkpt>
      <trkpt lat="48.975" lon="7.6198">
        <ele>447.58648701556</ele>
        <time>2021-03-30T12:23:01.316Z</time>
      </trkpt>
      <trkpt lat="48.97489" lon="7.62016">
        <ele>443.92581282345</ele>
        <time>2021-03-30T12:23:05.758Z</time>
      </trkpt>
      <trkpt lat="48.97489" lon="7.62016">
        <ele>440.65432559039</ele>
        <time>2021-03-30T12:23:10.200Z</time>
      </trkpt>
      <trkpt lat="48.97483" lon="7.62034">
        <ele>437.18618555575</ele>
        <time>2021-03-30T12:23:14.646Z</time>
      </trkpt>
      <trkpt lat="48.97479" lon="7.62048">
        <ele>433.69769038667</ele>
        <time>2021-03-30T12:23:19.095Z</time>
      </trkpt>
      <trkpt lat="48.97459" lon="7.62064">
        <ele>429.8135380125</ele>
        <time>2021-03-30T12:23:23.552Z</time>
      </trkpt>
      <trkpt lat="48.9749" lon="7.62076">
        <ele>426.82841014328</ele>
        <time>2021-03-30T12:23:28.020Z</time>
      </trkpt>
      <trkpt lat="48.97503" lon="7.62091">
        <ele>423.46767757169</ele>
        <time>2021-03-30T12:23:32.493Z</time>
      </trkpt>
      <trkpt lat="48.97476" lon="7.62093">
        <ele>419.4722303827</ele>
        <time>2021-03-30T12:23:36.976Z</time>
      </trkpt>
      <trkpt lat="48.97457" lon="7.62105">
        <ele>415.503295473</ele>
        <time>2021-03-30T12:23:41.465Z</time>
      </trkpt>
      <trkpt lat="48.97437" lon="7.62124">
        <ele>411.47897482741</ele>
        <time>2021-03-30T12:23:45.962Z</time>
      </trkpt>
      <trkpt lat="48.97429" lon="7.62134">
        <ele>407.52356587647</ele>
        <time>2021-03-30T12:23:50.463Z</time>
      </trkpt>
      <trkpt lat="48.97415" lon="7.62159">
        <ele>403.41264799252</ele>
        <time>2021-03-30T12:23:54.971Z</time>
      </trkpt>
      <trkpt lat="48.97399" lon="7.62197">
        <ele>399.01983397008</ele>
        <time>2021-03-30T12:23:59.489Z</time>
      </trkpt>
      <trkpt lat="48.97365" lon="7.62291">
        <ele>394.85699816113</ele>
        <time>2021-03-30T12:24:04.030Z</time>
      </trkpt>
      <trkpt lat="48.97355" lon="7.62323">
        <ele>390.64280227434</ele>
        <time>2021-03-30T12:24:08.579Z</time>
      </trkpt>
      <trkpt lat="48.97341" lon="7.62355">
        <ele>386.45218013188</ele>
        <time>2021-03-30T12:24:13.136Z</time>
      </trkpt>
      <trkpt lat="48.97322" lon="7.62387">
        <ele>382.21097981978</ele>
        <time>2021-03-30T12:24:17.703Z</time>
      </trkpt>
      <trkpt lat="48.97301" lon="7.62414">
        <ele>377.83209397574</ele>
        <time>2021-03-30T12:24:22.279Z</time>
      </trkpt>
      <trkpt lat="48.97285" lon="7.62431">
        <ele>373.38461930758</ele>
        <time>2021-03-30T12:24:26.862Z</time>
      </trkpt>
      <trkpt lat="48.9727" lon="7.62445">
        <ele>368.92016505</ele>
        <time>2021-03-30T12:24:31.451Z</time>
      </trkpt>
      <trkpt lat="48.97257" lon="7.62458">
        <ele>364.48984737867</ele>
        <time>2021-03-30T12:24:36.045Z</time>
      </trkpt>
      <trkpt lat="48.97241" lon="7.62468">
        <ele>359.89071862207</ele>
        <time>2021-03-30T12:24:40.644Z</time>
      </trkpt>
      <trkpt lat="48.97217" lon="7.62461">
        <ele>354.78960921248</ele>
        <time>2021-03-30T12:24:45.252Z</time>
      </trkpt>
      <trkpt lat="48.97186" lon="7.62458">
        <ele>349.54089586814</ele>
        <time>2021-03-30T12:24:49.870Z</time>
      </trkpt>
      <trkpt lat="48.97152" lon="7.62462">
        <ele>344.14349995773</ele>
        <time>2021-03-30T12:24:54.499Z</time>
      </trkpt>
      <trkpt lat="48.97121" lon="7.62471">
        <ele>338.80596222096</ele>
        <time>2021-03-30T12:24:59.139Z</time>
      </trkpt>
      <trkpt lat="48.97092" lon="7.62481">
        <ele>333.63856823928</ele>
        <time>2021-03-30T12:25:03.789Z</time>
      </trkpt>
      <trkpt lat="48.97092" lon="7.62481">
        <ele>323.68538649315</ele>
        <time>2021-03-30T12:25:08.439Z</time>
      </trkpt>
      <trkpt lat="48.97068" lon="7.62488">
        <ele>318.24106911017</ele>
        <time>2021-03-30T12:25:13.097Z</time>
      </trkpt>
      <trkpt lat="48.97025" lon="7.62491">
        <ele>312.27820366759</ele>
        <time>2021-03-30T12:25:17.769Z</time>
      </trkpt>
      <trkpt lat="48.96992" lon="7.62486">
        <ele>306.84387175265</ele>
        <time>2021-03-30T12:25:22.453Z</time>
      </trkpt>
      <trkpt lat="48.96962" lon="7.62476">
        <ele>301.70976436124</ele>
        <time>2021-03-30T12:25:27.147Z</time>
      </trkpt>
      <trkpt lat="48.96962" lon="7.62476">
        <ele>296.76000820282</ele>
        <time>2021-03-30T12:25:31.841Z</time>
      </trkpt>
      <trkpt lat="48.96912" lon="7.62448">
        <ele>291.50184595823</ele>
        <time>2021-03-30T12:25:36.552Z</time>
      </trkpt>
      <trkpt lat="48.96879" lon="7.62424">
        <ele>286.39291882761</ele>
        <time>2021-03-30T12:25:41.276Z</time>
      </trkpt>
      <trkpt lat="48.96858" lon="7.62415">
        <ele>281.46116067017</ele>
        <time>2021-03-30T12:25:46.007Z</time>
      </trkpt>
      <trkpt lat="48.96841" lon="7.62409">
        <ele>276.56181035391</ele>
        <time>2021-03-30T12:25:50.744Z</time>
      </trkpt>
      <trkpt lat="48.96822" lon="7.62398">
        <ele>271.63885297049</ele>
        <time>2021-03-30T12:25:55.488Z</time>
      </trkpt>
      <trkpt lat="48.96796" lon="7.62388">
        <ele>266.63535519098</ele>
        <time>2021-03-30T12:26:00.241Z</time>
      </trkpt>
      <trkpt lat="48.96751" lon="7.62383">
        <ele>261.58723422427</ele>
        <time>2021-03-30T12:26:05.009Z</time>
      </trkpt>
      <trkpt lat="48.96704" lon="7.62377">
        <ele>256.67141210519</ele>
        <time>2021-03-30T12:26:09.792Z</time>
      </trkpt>
      <trkpt lat="48.96648" lon="7.62363">
        <ele>251.84995153188</ele>
        <time>2021-03-30T12:26:14.594Z</time>
      </trkpt>
      <trkpt lat="48.96591" lon="7.6234">
        <ele>246.78413414459</ele>
        <time>2021-03-30T12:26:19.416Z</time>
      </trkpt>
      <trkpt lat="48.9653" lon="7.62312">
        <ele>242.06730497519</ele>
        <time>2021-03-30T12:26:24.259Z</time>
      </trkpt>
      <trkpt lat="48.96508" lon="7.62303">
        <ele>237.82818391196</ele>
        <time>2021-03-30T12:26:29.110Z</time>
      </trkpt>
      <trkpt lat="48.96471" lon="7.62305">
        <ele>233.8180290771</ele>
        <time>2021-03-30T12:26:33.973Z</time>
      </trkpt>
      <trkpt lat="48.96444" lon="7.62302">
        <ele>229.86674056048</ele>
        <time>2021-03-30T12:26:38.845Z</time>
      </trkpt>
      <trkpt lat="48.96418" lon="7.62292">
        <ele>226.02745649638</ele>
        <time>2021-03-30T12:26:43.726Z</time>
      </trkpt>
      <trkpt lat="48.96391" lon="7.62289">
        <ele>222.35521581165</ele>
        <time>2021-03-30T12:26:48.616Z</time>
      </trkpt>
      <trkpt lat="48.96372" lon="7.62295">
        <ele>218.96269310732</ele>
        <time>2021-03-30T12:26:53.513Z</time>
      </trkpt>
      <trkpt lat="48.96354" lon="7.62318">
        <ele>215.93708426477</ele>
        <time>2021-03-30T12:26:58.417Z</time>
      </trkpt>
      <trkpt lat="48.96314" lon="7.6239">
        <ele>213.11796441844</ele>
        <time>2021-03-30T12:27:03.342Z</time>
      </trkpt>
      <trkpt lat="48.96304" lon="7.62408">
        <ele>210.61885435518</ele>
        <time>2021-03-30T12:27:08.272Z</time>
      </trkpt>
      <trkpt lat="48.96278" lon="7.62439">
        <ele>208.28820446021</ele>
        <time>2021-03-30T12:27:13.213Z</time>
      </trkpt>
      <trkpt lat="48.9626" lon="7.62462">
        <ele>206.11929631121</ele>
        <time>2021-03-30T12:27:18.162Z</time>
      </trkpt>
      <trkpt lat="48.96235" lon="7.62489">
        <ele>204.12079525299</ele>
        <time>2021-03-30T12:27:23.121Z</time>
      </trkpt>
      <trkpt lat="48.96221" lon="7.62503">
        <ele>202.3291021452</ele>
        <time>2021-03-30T12:27:28.086Z</time>
      </trkpt>
      <trkpt lat="48.96186" lon="7.62531">
        <ele>200.61084359792</ele>
        <time>2021-03-30T12:27:33.064Z</time>
      </trkpt>
      <trkpt lat="48.96163" lon="7.62549">
        <ele>199.31027141606</ele>
        <time>2021-03-30T12:27:38.051Z</time>
      </trkpt>
      <trkpt lat="48.96141" lon="7.62567">
        <ele>198.17386852817</ele>
        <time>2021-03-30T12:27:43.046Z</time>
      </trkpt>
      <trkpt lat="48.96113" lon="7.62589">
        <ele>197.26151650112</ele>
        <time>2021-03-30T12:27:48.052Z</time>
      </trkpt>
      <trkpt lat="48.96103" lon="7.62601">
        <ele>196.74826399042</ele>
        <time>2021-03-30T12:27:53.062Z</time>
      </trkpt>
      <trkpt lat="48.96093" lon="7.62614">
        <ele>196.52499997535</ele>
        <time>2021-03-30T12:27:58.076Z</time>
      </trkpt>
      <trkpt lat="48.96092" lon="7.62645">
        <ele>196.68543421553</ele>
        <time>2021-03-30T12:28:03.097Z</time>
      </trkpt>
      <trkpt lat="48.96078" lon="7.62645">
        <ele>196.87331175991</ele>
        <time>2021-03-30T12:28:08.123Z</time>
      </trkpt>
      <trkpt lat="48.96069" lon="7.62649">
        <ele>197.3753444882</ele>
        <time>2021-03-30T12:28:13.152Z</time>
      </trkpt>
      <trkpt lat="48.96062" lon="7.62658">
        <ele>198.17382181421</ele>
        <time>2021-03-30T12:28:18.184Z</time>
      </trkpt>
      <trkpt lat="48.96058" lon="7.62685">
        <ele>199.23890213769</ele>
        <time>2021-03-30T12:28:23.222Z</time>
      </trkpt>
      <trkpt lat="48.96054" lon="7.62697">
        <ele>200.53453492403</ele>
        <time>2021-03-30T12:28:28.263Z</time>
      </trkpt>
      <trkpt lat="48.9605" lon="7.62709">
        <ele>202.06429959711</ele>
        <time>2021-03-30T12:28:33.307Z</time>
      </trkpt>
      <trkpt lat="48.96043" lon="7.62722">
        <ele>203.72995447435</ele>
        <time>2021-03-30T12:28:38.355Z</time>
      </trkpt>
      <trkpt lat="48.9603" lon="7.62744">
        <ele>205.56391600144</ele>
        <time>2021-03-30T12:28:43.409Z</time>
      </trkpt>
      <trkpt lat="48.96011" lon="7.62761">
        <ele>207.31790049538</ele>
        <time>2021-03-30T12:28:48.470Z</time>
      </trkpt>
      <trkpt lat="48.95987" lon="7.62786">
        <ele>209.38840112647</ele>
        <time>2021-03-30T12:28:53.541Z</time>
      </trkpt>
      <trkpt lat="48.95967" lon="7.62805">
        <ele>211.58397136632</ele>
        <time>2021-03-30T12:28:58.620Z</time>
      </trkpt>
      <trkpt lat="48.95963" lon="7.62828">
        <ele>214.10158091491</ele>
        <time>2021-03-30T12:29:03.704Z</time>
      </trkpt>
      <trkpt lat="48.95961" lon="7.6284">
        <ele>216.40276930307</ele>
        <time>2021-03-30T12:29:08.791Z</time>
      </trkpt>
      <trkpt lat="48.95953" lon="7.6285">
        <ele>218.5826961313</ele>
        <time>2021-03-30T12:29:13.882Z</time>
      </trkpt>
      <trkpt lat="48.95936" lon="7.62875">
        <ele>220.84772824877</ele>
        <time>2021-03-30T12:29:18.981Z</time>
      </trkpt>
      <trkpt lat="48.95917" lon="7.62899">
        <ele>222.98811724924</ele>
        <time>2021-03-30T12:29:24.088Z</time>
      </trkpt>
      <trkpt lat="48.95902" lon="7.62914">
        <ele>224.94642393808</ele>
        <time>2021-03-30T12:29:29.201Z</time>
      </trkpt>
      <trkpt lat="48.95892" lon="7.62934">
        <ele>226.90838580618</ele>
        <time>2021-03-30T12:29:34.319Z</time>
      </trkpt>
      <trkpt lat="48.95877" lon="7.62996">
        <ele>229.05315659778</ele>
        <time>2021-03-30T12:29:39.452Z</time>
      </trkpt>
      <trkpt lat="48.95873" lon="7.63027">
        <ele>230.68023828352</ele>
        <time>2021-03-30T12:29:44.592Z</time>
      </trkpt>
      <trkpt lat="48.95866" lon="7.63052">
        <ele>231.94534269546</ele>
        <time>2021-03-30T12:29:49.737Z</time>
      </trkpt>
      <trkpt lat="48.95859" lon="7.63085">
        <ele>233.18944413095</ele>
        <time>2021-03-30T12:29:54.890Z</time>
      </trkpt>
      <trkpt lat="48.95852" lon="7.6312">
        <ele>234.11938298592</ele>
        <time>2021-03-30T12:30:00.051Z</time>
      </trkpt>
      <trkpt lat="48.95849" lon="7.63161">
        <ele>234.81128954187</ele>
        <time>2021-03-30T12:30:05.221Z</time>
      </trkpt>
      <trkpt lat="48.95844" lon="7.63205">
        <ele>235.1801397711</ele>
        <time>2021-03-30T12:30:10.401Z</time>
      </trkpt>
      <trkpt lat="48.95843" lon="7.63242">
        <ele>235.49173770015</ele>
        <time>2021-03-30T12:30:15.589Z</time>
      </trkpt>
      <trkpt lat="48.95835" lon="7.6326">
        <ele>235.19408443458</ele>
        <time>2021-03-30T12:30:20.782Z</time>
      </trkpt>
      <trkpt lat="48.95823" lon="7.63279">
        <ele>234.5284065221</ele>
        <time>2021-03-30T12:30:25.981Z</time>
      </trkpt>
      <trkpt lat="48.95797" lon="7.63301">
        <ele>233.41607588964</ele>
        <time>2021-03-30T12:30:31.190Z</time>
      </trkpt>
      <trkpt lat="48.95779" lon="7.63312">
        <ele>232.14812499342</ele>
        <time>2021-03-30T12:30:36.405Z</time>
      </trkpt>
      <trkpt lat="48.95756" lon="7.63326">
        <ele>230.71826716037</ele>
        <time>2021-03-30T12:30:41.628Z</time>
      </trkpt>
      <trkpt lat="48.95662" lon="7.63431">
        <ele>228.64540612515</ele>
        <time>2021-03-30T12:30:46.890Z</time>
      </trkpt>
      <trkpt lat="48.95569" lon="7.63528">
        <ele>226.72562393962</ele>
        <time>2021-03-30T12:30:52.190Z</time>
      </trkpt>
      <trkpt lat="48.95556" lon="7.63509">
        <ele>224.79619983581</ele>
        <time>2021-03-30T12:30:57.496Z</time>
      </trkpt>
      <trkpt lat="48.95529" lon="7.63498">
        <ele>222.7467402077</ele>
        <time>2021-03-30T12:31:02.811Z</time>
      </trkpt>
      <trkpt lat="48.95502" lon="7.63491">
        <ele>220.72103217661</ele>
        <time>2021-03-30T12:31:08.135Z</time>
      </trkpt>
      <trkpt lat="48.95473" lon="7.63498">
        <ele>218.77221222215</ele>
        <time>2021-03-30T12:31:13.469Z</time>
      </trkpt>
      <trkpt lat="48.9544" lon="7.63504">
        <ele>216.65193448578</ele>
        <time>2021-03-30T12:31:18.814Z</time>
      </trkpt>
      <trkpt lat="48.95417" lon="7.63519">
        <ele>214.66747077418</ele>
        <time>2021-03-30T12:31:24.168Z</time>
      </trkpt>
      <trkpt lat="48.95402" lon="7.63534">
        <ele>212.69151330444</ele>
        <time>2021-03-30T12:31:29.528Z</time>
      </trkpt>
      <trkpt lat="48.95384" lon="7.63548">
        <ele>210.60329317841</ele>
        <time>2021-03-30T12:31:34.894Z</time>
      </trkpt>
      <trkpt lat="48.95352" lon="7.63584">
        <ele>208.39667526722</ele>
        <time>2021-03-30T12:31:40.274Z</time>
      </trkpt>
      <trkpt lat="48.95334" lon="7.63608">
        <ele>206.2523242341</ele>
        <time>2021-03-30T12:31:45.662Z</time>
      </trkpt>
      <trkpt lat="48.95313" lon="7.63622">
        <ele>204.0848712307</ele>
        <time>2021-03-30T12:31:51.057Z</time>
      </trkpt>
      <trkpt lat="48.95307" lon="7.63656">
        <ele>202.32081287547</ele>
        <time>2021-03-30T12:31:56.460Z</time>
      </trkpt>
      <trkpt lat="48.95303" lon="7.63688">
        <ele>200.54390614895</ele>
        <time>2021-03-30T12:32:01.870Z</time>
      </trkpt>
      <trkpt lat="48.95297" lon="7.63732">
        <ele>199.00701046369</ele>
        <time>2021-03-30T12:32:07.290Z</time>
      </trkpt>
      <trkpt lat="48.95285" lon="7.63788">
        <ele>197.80155227318</ele>
        <time>2021-03-30T12:32:12.723Z</time>
      </trkpt>
      <trkpt lat="48.95239" lon="7.63901">
        <ele>196.76915120033</ele>
        <time>2021-03-30T12:32:18.185Z</time>
      </trkpt>
      <trkpt lat="48.9522" lon="7.63953">
        <ele>195.48150374679</ele>
        <time>2021-03-30T12:32:23.660Z</time>
      </trkpt>
      <trkpt lat="48.95204" lon="7.64023">
        <ele>194.1774450456</ele>
        <time>2021-03-30T12:32:29.152Z</time>
      </trkpt>
      <trkpt lat="48.95191" lon="7.64094">
        <ele>193.13623502336</ele>
        <time>2021-03-30T12:32:34.660Z</time>
      </trkpt>
      <trkpt lat="48.95179" lon="7.6415">
        <ele>191.91226649404</ele>
        <time>2021-03-30T12:32:40.181Z</time>
      </trkpt>
      <trkpt lat="48.95163" lon="7.64194">
        <ele>190.90690447101</ele>
        <time>2021-03-30T12:32:45.713Z</time>
      </trkpt>
    </trkseg>
  </trk>
  <trk>
    <name><![CDATA[UT53 Étape 3]]></name>
    <extensions>
      <line xmlns="http://www.topografix.com/GPX/gpx_style/0/2">
        <color>FF0000</color>
        <width>4</width>
      </line>
    </extensions>
    <trkseg>
      <trkpt lat="48.95143" lon="7.64186">
        <ele>191.22996949957</ele>
        <time>2021-03-30T12:12:09.000Z</time>
      </trkpt>
      <trkpt lat="48.95143" lon="7.64186">
        <ele>191.22996949957</ele>
        <time>2021-03-30T12:12:09.000Z</time>
      </trkpt>
      <trkpt lat="48.95168" lon="7.64093">
        <ele>192.00406126203</ele>
        <time>2021-03-30T12:12:09.022Z</time>
      </trkpt>
      <trkpt lat="48.95175" lon="7.64056">
        <ele>192.8926933287</ele>
        <time>2021-03-30T12:12:09.052Z</time>
      </trkpt>
      <trkpt lat="48.95179" lon="7.64019">
        <ele>193.59566406784</ele>
        <time>2021-03-30T12:12:09.091Z</time>
      </trkpt>
      <trkpt lat="48.95178" lon="7.63997">
        <ele>194.29659262152</ele>
        <time>2021-03-30T12:12:09.135Z</time>
      </trkpt>
      <trkpt lat="48.95182" lon="7.63976">
        <ele>194.9736694707</ele>
        <time>2021-03-30T12:12:09.183Z</time>
      </trkpt>
      <trkpt lat="48.95184" lon="7.6395">
        <ele>195.68370881291</ele>
        <time>2021-03-30T12:12:09.237Z</time>
      </trkpt>
      <trkpt lat="48.95211" lon="7.6386">
        <ele>196.75446402501</ele>
        <time>2021-03-30T12:12:09.313Z</time>
      </trkpt>
      <trkpt lat="48.95219" lon="7.63833">
        <ele>197.24428894213</ele>
        <time>2021-03-30T12:12:09.396Z</time>
      </trkpt>
      <trkpt lat="48.95218" lon="7.63784">
        <ele>197.68944887952</ele>
        <time>2021-03-30T12:12:09.489Z</time>
      </trkpt>
      <trkpt lat="48.9522" lon="7.63761">
        <ele>197.87418925321</ele>
        <time>2021-03-30T12:12:09.587Z</time>
      </trkpt>
      <trkpt lat="48.95215" lon="7.63726">
        <ele>198.06737590176</ele>
        <time>2021-03-30T12:12:09.693Z</time>
      </trkpt>
      <trkpt lat="48.95204" lon="7.63725">
        <ele>198.39318469406</ele>
        <time>2021-03-30T12:12:09.803Z</time>
      </trkpt>
      <trkpt lat="48.95205" lon="7.63639">
        <ele>198.53909931078</ele>
        <time>2021-03-30T12:12:09.932Z</time>
      </trkpt>
      <trkpt lat="48.95211" lon="7.63619">
        <ele>198.60119130244</ele>
        <time>2021-03-30T12:12:10.065Z</time>
      </trkpt>
      <trkpt lat="48.95211" lon="7.6356">
        <ele>198.70354834639</ele>
        <time>2021-03-30T12:12:10.211Z</time>
      </trkpt>
      <trkpt lat="48.95207" lon="7.6355">
        <ele>198.82956298091</ele>
        <time>2021-03-30T12:12:10.360Z</time>
      </trkpt>
      <trkpt lat="48.95206" lon="7.6354">
        <ele>198.96275061636</ele>
        <time>2021-03-30T12:12:10.511Z</time>
      </trkpt>
      <trkpt lat="48.95213" lon="7.63532">
        <ele>199.07836865328</ele>
        <time>2021-03-30T12:12:10.665Z</time>
      </trkpt>
      <trkpt lat="48.95196" lon="7.63524">
        <ele>199.35132486717</ele>
        <time>2021-03-30T12:12:10.825Z</time>
      </trkpt>
      <trkpt lat="48.95163" lon="7.63501">
        <ele>199.88164065399</ele>
        <time>2021-03-30T12:12:10.997Z</time>
      </trkpt>
      <trkpt lat="48.95227" lon="7.63353">
        <ele>200.73141686334</ele>
        <time>2021-03-30T12:12:11.208Z</time>
      </trkpt>
      <trkpt lat="48.95312" lon="7.6319">
        <ele>201.39120813904</ele>
        <time>2021-03-30T12:12:11.465Z</time>
      </trkpt>
      <trkpt lat="48.95362" lon="7.63112">
        <ele>201.17185847043</ele>
        <time>2021-03-30T12:12:11.746Z</time>
      </trkpt>
      <trkpt lat="48.95408" lon="7.63043">
        <ele>201.60909402263</ele>
        <time>2021-03-30T12:12:12.048Z</time>
      </trkpt>
      <trkpt lat="48.95533" lon="7.62903">
        <ele>202.54433185663</ele>
        <time>2021-03-30T12:12:12.402Z</time>
      </trkpt>
      <trkpt lat="48.95597" lon="7.62822">
        <ele>202.93184404569</ele>
        <time>2021-03-30T12:12:12.784Z</time>
      </trkpt>
      <trkpt lat="48.95633" lon="7.62782">
        <ele>203.9730834181</ele>
        <time>2021-03-30T12:12:13.181Z</time>
      </trkpt>
      <trkpt lat="48.95659" lon="7.62753">
        <ele>204.51089898228</ele>
        <time>2021-03-30T12:12:13.588Z</time>
      </trkpt>
      <trkpt lat="48.95679" lon="7.62746">
        <ele>205.01702599631</ele>
        <time>2021-03-30T12:12:14.002Z</time>
      </trkpt>
      <trkpt lat="48.95717" lon="7.62718">
        <ele>205.97462963208</ele>
        <time>2021-03-30T12:12:14.431Z</time>
      </trkpt>
      <trkpt lat="48.95726" lon="7.62712">
        <ele>206.79647990982</ele>
        <time>2021-03-30T12:12:14.863Z</time>
      </trkpt>
      <trkpt lat="48.95732" lon="7.62708">
        <ele>207.62112555689</ele>
        <time>2021-03-30T12:12:15.297Z</time>
      </trkpt>
      <trkpt lat="48.95745" lon="7.62699">
        <ele>208.35103938323</ele>
        <time>2021-03-30T12:12:15.736Z</time>
      </trkpt>
      <trkpt lat="48.95753" lon="7.62693">
        <ele>209.14226396131</ele>
        <time>2021-03-30T12:12:16.178Z</time>
      </trkpt>
      <trkpt lat="48.95772" lon="7.62677">
        <ele>209.91768850528</ele>
        <time>2021-03-30T12:12:16.627Z</time>
      </trkpt>
      <trkpt lat="48.95783" lon="7.62662">
        <ele>211.00309918356</ele>
        <time>2021-03-30T12:12:17.081Z</time>
      </trkpt>
      <trkpt lat="48.95766" lon="7.62669">
        <ele>212.03736930227</ele>
        <time>2021-03-30T12:12:17.541Z</time>
      </trkpt>
      <trkpt lat="48.95737" lon="7.62685">
        <ele>213.37598920091</ele>
        <time>2021-03-30T12:12:18.011Z</time>
      </trkpt>
      <trkpt lat="48.9573" lon="7.62689">
        <ele>214.65606994562</ele>
        <time>2021-03-30T12:12:18.484Z</time>
      </trkpt>
      <trkpt lat="48.95722" lon="7.62687">
        <ele>216.11645271611</ele>
        <time>2021-03-30T12:12:18.959Z</time>
      </trkpt>
      <trkpt lat="48.95716" lon="7.62676">
        <ele>217.75184355456</ele>
        <time>2021-03-30T12:12:19.438Z</time>
      </trkpt>
      <trkpt lat="48.95712" lon="7.62682">
        <ele>219.28646465385</ele>
        <time>2021-03-30T12:12:19.919Z</time>
      </trkpt>
      <trkpt lat="48.95714" lon="7.62698">
        <ele>220.6140138342</ele>
        <time>2021-03-30T12:12:20.403Z</time>
      </trkpt>
      <trkpt lat="48.95673" lon="7.62702">
        <ele>222.48130899583</ele>
        <time>2021-03-30T12:12:20.901Z</time>
      </trkpt>
      <trkpt lat="48.95635" lon="7.62715">
        <ele>224.43476246537</ele>
        <time>2021-03-30T12:12:21.412Z</time>
      </trkpt>
      <trkpt lat="48.9563" lon="7.62709">
        <ele>226.44172836159</ele>
        <time>2021-03-30T12:12:21.925Z</time>
      </trkpt>
      <trkpt lat="48.95626" lon="7.62698">
        <ele>228.64153622363</ele>
        <time>2021-03-30T12:12:22.441Z</time>
      </trkpt>
      <trkpt lat="48.95628" lon="7.62687">
        <ele>230.83745241134</ele>
        <time>2021-03-30T12:12:22.959Z</time>
      </trkpt>
      <trkpt lat="48.95632" lon="7.62677">
        <ele>233.06228346899</ele>
        <time>2021-03-30T12:12:23.480Z</time>
      </trkpt>
      <trkpt lat="48.95655" lon="7.62652">
        <ele>235.37287530808</ele>
        <time>2021-03-30T12:12:24.010Z</time>
      </trkpt>
      <trkpt lat="48.95643" lon="7.6265">
        <ele>237.68258195734</ele>
        <time>2021-03-30T12:12:24.544Z</time>
      </trkpt>
      <trkpt lat="48.95632" lon="7.62641">
        <ele>240.12296105473</ele>
        <time>2021-03-30T12:12:25.082Z</time>
      </trkpt>
      <trkpt lat="48.95619" lon="7.62621">
        <ele>242.83511357284</ele>
        <time>2021-03-30T12:12:25.627Z</time>
      </trkpt>
      <trkpt lat="48.9561" lon="7.62606">
        <ele>245.41163429777</ele>
        <time>2021-03-30T12:12:26.176Z</time>
      </trkpt>
      <trkpt lat="48.95594" lon="7.62596">
        <ele>247.89436496034</ele>
        <time>2021-03-30T12:12:26.731Z</time>
      </trkpt>
      <trkpt lat="48.95596" lon="7.62584">
        <ele>250.25167077992</ele>
        <time>2021-03-30T12:12:27.288Z</time>
      </trkpt>
      <trkpt lat="48.95602" lon="7.62572">
        <ele>252.49063950187</ele>
        <time>2021-03-30T12:12:27.849Z</time>
      </trkpt>
      <trkpt lat="48.95605" lon="7.62556">
        <ele>254.8181962348</ele>
        <time>2021-03-30T12:12:28.414Z</time>
      </trkpt>
      <trkpt lat="48.95603" lon="7.62549">
        <ele>256.95623930942</ele>
        <time>2021-03-30T12:12:28.980Z</time>
      </trkpt>
      <trkpt lat="48.95596" lon="7.62546">
        <ele>258.96866281227</ele>
        <time>2021-03-30T12:12:29.549Z</time>
      </trkpt>
      <trkpt lat="48.95586" lon="7.62545">
        <ele>260.92355914737</ele>
        <time>2021-03-30T12:12:30.121Z</time>
      </trkpt>
      <trkpt lat="48.95579" lon="7.62538">
        <ele>262.98554785673</ele>
        <time>2021-03-30T12:12:30.696Z</time>
      </trkpt>
      <trkpt lat="48.95571" lon="7.62534">
        <ele>265.0320383304</ele>
        <time>2021-03-30T12:12:31.274Z</time>
      </trkpt>
      <trkpt lat="48.95562" lon="7.62541">
        <ele>266.97958628076</ele>
        <time>2021-03-30T12:12:31.855Z</time>
      </trkpt>
      <trkpt lat="48.95547" lon="7.62547">
        <ele>269.16216625917</ele>
        <time>2021-03-30T12:12:32.441Z</time>
      </trkpt>
      <trkpt lat="48.9554" lon="7.62538">
        <ele>271.5599080246</ele>
        <time>2021-03-30T12:12:33.030Z</time>
      </trkpt>
      <trkpt lat="48.95535" lon="7.62515">
        <ele>274.20721017293</ele>
        <time>2021-03-30T12:12:33.625Z</time>
      </trkpt>
      <trkpt lat="48.95526" lon="7.62482">
        <ele>277.07189138797</ele>
        <time>2021-03-30T12:12:34.228Z</time>
      </trkpt>
      <trkpt lat="48.95529" lon="7.62467">
        <ele>280.02198984264</ele>
        <time>2021-03-30T12:12:34.834Z</time>
      </trkpt>
      <trkpt lat="48.95536" lon="7.62456">
        <ele>283.20684768323</ele>
        <time>2021-03-30T12:12:35.443Z</time>
      </trkpt>
      <trkpt lat="48.95546" lon="7.62447">
        <ele>286.64748503125</ele>
        <time>2021-03-30T12:12:36.056Z</time>
      </trkpt>
      <trkpt lat="48.95537" lon="7.6242">
        <ele>290.48810153985</ele>
        <time>2021-03-30T12:12:36.676Z</time>
      </trkpt>
      <trkpt lat="48.95524" lon="7.62386">
        <ele>294.59189110998</ele>
        <time>2021-03-30T12:12:37.304Z</time>
      </trkpt>
      <trkpt lat="48.95545" lon="7.62406">
        <ele>298.92591272605</ele>
        <time>2021-03-30T12:12:37.941Z</time>
      </trkpt>
      <trkpt lat="48.95618" lon="7.62444">
        <ele>303.96506230297</ele>
        <time>2021-03-30T12:12:38.603Z</time>
      </trkpt>
      <trkpt lat="48.95636" lon="7.62448">
        <ele>308.66501632815</ele>
        <time>2021-03-30T12:12:39.272Z</time>
      </trkpt>
      <trkpt lat="48.95651" lon="7.62447">
        <ele>313.70377200424</ele>
        <time>2021-03-30T12:12:39.945Z</time>
      </trkpt>
      <trkpt lat="48.95697" lon="7.62385">
        <ele>320.28319541231</ele>
        <time>2021-03-30T12:12:40.639Z</time>
      </trkpt>
      <trkpt lat="48.95739" lon="7.62316">
        <ele>326.25073396551</ele>
        <time>2021-03-30T12:12:41.354Z</time>
      </trkpt>
      <trkpt lat="48.95777" lon="7.62244">
        <ele>332.21826618809</ele>
        <time>2021-03-30T12:12:42.089Z</time>
      </trkpt>
      <trkpt lat="48.95788" lon="7.62208">
        <ele>337.81635130389</ele>
        <time>2021-03-30T12:12:42.833Z</time>
      </trkpt>
      <trkpt lat="48.95795" lon="7.62172">
        <ele>343.53810943974</ele>
        <time>2021-03-30T12:12:43.585Z</time>
      </trkpt>
      <trkpt lat="48.9579" lon="7.62039">
        <ele>349.67852804259</ele>
        <time>2021-03-30T12:12:44.366Z</time>
      </trkpt>
      <trkpt lat="48.9576" lon="7.61875">
        <ele>356.28047590031</ele>
        <time>2021-03-30T12:12:45.185Z</time>
      </trkpt>
      <trkpt lat="48.95706" lon="7.61614">
        <ele>363.52158340155</ele>
        <time>2021-03-30T12:12:46.064Z</time>
      </trkpt>
      <trkpt lat="48.95699" lon="7.61595">
        <ele>369.318761998</ele>
        <time>2021-03-30T12:12:46.948Z</time>
      </trkpt>
      <trkpt lat="48.95699" lon="7.61546">
        <ele>375.20518220574</ele>
        <time>2021-03-30T12:12:47.842Z</time>
      </trkpt>
      <trkpt lat="48.95708" lon="7.61516">
        <ele>380.60793175376</ele>
        <time>2021-03-30T12:12:48.744Z</time>
      </trkpt>
      <trkpt lat="48.95725" lon="7.61494">
        <ele>385.76720181879</ele>
        <time>2021-03-30T12:12:49.653Z</time>
      </trkpt>
      <trkpt lat="48.95744" lon="7.61494">
        <ele>390.36286086333</ele>
        <time>2021-03-30T12:12:50.568Z</time>
      </trkpt>
      <trkpt lat="48.95775" lon="7.61509">
        <ele>394.40556537959</ele>
        <time>2021-03-30T12:12:51.494Z</time>
      </trkpt>
      <trkpt lat="48.95835" lon="7.61556">
        <ele>398.83577140789</ele>
        <time>2021-03-30T12:12:52.443Z</time>
      </trkpt>
      <trkpt lat="48.95835" lon="7.61556">
        <ele>403.01012016417</ele>
        <time>2021-03-30T12:12:53.392Z</time>
      </trkpt>
      <trkpt lat="48.9588" lon="7.61579">
        <ele>411.38765720758</ele>
        <time>2021-03-30T12:12:54.356Z</time>
      </trkpt>
      <trkpt lat="48.95926" lon="7.61612">
        <ele>415.49427549683</ele>
        <time>2021-03-30T12:12:55.338Z</time>
      </trkpt>
      <trkpt lat="48.9598" lon="7.61633">
        <ele>419.9061609014</ele>
        <time>2021-03-30T12:12:56.338Z</time>
      </trkpt>
      <trkpt lat="48.95985" lon="7.61635">
        <ele>423.63178037074</ele>
        <time>2021-03-30T12:12:57.340Z</time>
      </trkpt>
      <trkpt lat="48.96004" lon="7.61642">
        <ele>427.41871571315</ele>
        <time>2021-03-30T12:12:58.348Z</time>
      </trkpt>
      <trkpt lat="48.96022" lon="7.61654">
        <ele>431.00894882298</ele>
        <time>2021-03-30T12:12:59.363Z</time>
      </trkpt>
      <trkpt lat="48.96031" lon="7.61655">
        <ele>434.49731290029</ele>
        <time>2021-03-30T12:13:00.381Z</time>
      </trkpt>
      <trkpt lat="48.96041" lon="7.61651">
        <ele>437.96757280898</ele>
        <time>2021-03-30T12:13:01.402Z</time>
      </trkpt>
      <trkpt lat="48.96044" lon="7.61633">
        <ele>441.61115230284</ele>
        <time>2021-03-30T12:13:02.427Z</time>
      </trkpt>
      <trkpt lat="48.96043" lon="7.61615">
        <ele>445.23036394214</ele>
        <time>2021-03-30T12:13:03.456Z</time>
      </trkpt>
      <trkpt lat="48.96039" lon="7.61601">
        <ele>448.78264522426</ele>
        <time>2021-03-30T12:13:04.489Z</time>
      </trkpt>
      <trkpt lat="48.96034" lon="7.61588">
        <ele>452.22843597835</ele>
        <time>2021-03-30T12:13:05.525Z</time>
      </trkpt>
      <trkpt lat="48.96025" lon="7.61576">
        <ele>455.70970460918</ele>
        <time>2021-03-30T12:13:06.565Z</time>
      </trkpt>
      <trkpt lat="48.96015" lon="7.61572">
        <ele>459.00671661624</ele>
        <time>2021-03-30T12:13:07.609Z</time>
      </trkpt>
      <trkpt lat="48.95987" lon="7.61502">
        <ele>462.57851055456</ele>
        <time>2021-03-30T12:13:08.671Z</time>
      </trkpt>
      <trkpt lat="48.95967" lon="7.61458">
        <ele>466.25480613156</ele>
        <time>2021-03-30T12:13:09.744Z</time>
      </trkpt>
      <trkpt lat="48.95945" lon="7.61398">
        <ele>469.86673656249</ele>
        <time>2021-03-30T12:13:10.832Z</time>
      </trkpt>
      <trkpt lat="48.95906" lon="7.61326">
        <ele>473.21693657188</ele>
        <time>2021-03-30T12:13:11.941Z</time>
      </trkpt>
      <trkpt lat="48.95894" lon="7.61291">
        <ele>476.43128320085</ele>
        <time>2021-03-30T12:13:13.058Z</time>
      </trkpt>
      <trkpt lat="48.95885" lon="7.61257">
        <ele>479.385361976</ele>
        <time>2021-03-30T12:13:14.184Z</time>
      </trkpt>
      <trkpt lat="48.95862" lon="7.61215">
        <ele>482.15919444185</ele>
        <time>2021-03-30T12:13:15.322Z</time>
      </trkpt>
      <trkpt lat="48.95807" lon="7.6117">
        <ele>485.03392659597</ele>
        <time>2021-03-30T12:13:16.481Z</time>
      </trkpt>
      <trkpt lat="48.95798" lon="7.61157">
        <ele>487.39213971968</ele>
        <time>2021-03-30T12:13:17.644Z</time>
      </trkpt>
      <trkpt lat="48.95792" lon="7.61141">
        <ele>489.52771816401</ele>
        <time>2021-03-30T12:13:18.811Z</time>
      </trkpt>
      <trkpt lat="48.95789" lon="7.61113">
        <ele>491.45625363543</ele>
        <time>2021-03-30T12:13:19.984Z</time>
      </trkpt>
      <trkpt lat="48.9579" lon="7.61086">
        <ele>493.07119492566</ele>
        <time>2021-03-30T12:13:21.163Z</time>
      </trkpt>
      <trkpt lat="48.95802" lon="7.61025">
        <ele>494.18804515333</ele>
        <time>2021-03-30T12:13:22.356Z</time>
      </trkpt>
      <trkpt lat="48.95801" lon="7.61007">
        <ele>495.26464323726</ele>
        <time>2021-03-30T12:13:23.553Z</time>
      </trkpt>
      <trkpt lat="48.95789" lon="7.60959">
        <ele>496.08209804682</ele>
        <time>2021-03-30T12:13:24.761Z</time>
      </trkpt>
      <trkpt lat="48.9578" lon="7.60945">
        <ele>496.68140008854</ele>
        <time>2021-03-30T12:13:25.973Z</time>
      </trkpt>
      <trkpt lat="48.95773" lon="7.60935">
        <ele>497.02173791391</ele>
        <time>2021-03-30T12:13:27.188Z</time>
      </trkpt>
      <trkpt lat="48.95764" lon="7.60939">
        <ele>497.1024745091</ele>
        <time>2021-03-30T12:13:28.406Z</time>
      </trkpt>
      <trkpt lat="48.95755" lon="7.60938">
        <ele>496.9379150536</ele>
        <time>2021-03-30T12:13:29.628Z</time>
      </trkpt>
      <trkpt lat="48.9575" lon="7.60918">
        <ele>496.50687847108</ele>
        <time>2021-03-30T12:13:30.854Z</time>
      </trkpt>
      <trkpt lat="48.9574" lon="7.60899">
        <ele>495.81382717439</ele>
        <time>2021-03-30T12:13:32.086Z</time>
      </trkpt>
      <trkpt lat="48.9573" lon="7.6089">
        <ele>494.95237596915</ele>
        <time>2021-03-30T12:13:33.321Z</time>
      </trkpt>
      <trkpt lat="48.95712" lon="7.60886">
        <ele>493.90305568082</ele>
        <time>2021-03-30T12:13:34.563Z</time>
      </trkpt>
      <trkpt lat="48.95696" lon="7.609">
        <ele>492.73734282346</ele>
        <time>2021-03-30T12:13:35.811Z</time>
      </trkpt>
      <trkpt lat="48.95687" lon="7.60914">
        <ele>491.37909639714</ele>
        <time>2021-03-30T12:13:37.063Z</time>
      </trkpt>
      <trkpt lat="48.95682" lon="7.60932">
        <ele>489.83276582242</ele>
        <time>2021-03-30T12:13:38.319Z</time>
      </trkpt>
      <trkpt lat="48.95671" lon="7.60984">
        <ele>488.19366258063</ele>
        <time>2021-03-30T12:13:39.587Z</time>
      </trkpt>
      <trkpt lat="48.95644" lon="7.60997">
        <ele>486.25788708623</ele>
        <time>2021-03-30T12:13:40.865Z</time>
      </trkpt>
      <trkpt lat="48.95629" lon="7.60985">
        <ele>484.1285836354</ele>
        <time>2021-03-30T12:13:42.148Z</time>
      </trkpt>
      <trkpt lat="48.95597" lon="7.60952">
        <ele>481.76973965545</ele>
        <time>2021-03-30T12:13:43.444Z</time>
      </trkpt>
      <trkpt lat="48.95562" lon="7.60931">
        <ele>479.45011546873</ele>
        <time>2021-03-30T12:13:44.753Z</time>
      </trkpt>
      <trkpt lat="48.95562" lon="7.60931">
        <ele>477.14472818242</ele>
        <time>2021-03-30T12:13:46.062Z</time>
      </trkpt>
      <trkpt lat="48.95537" lon="7.60903">
        <ele>474.72647084478</ele>
        <time>2021-03-30T12:13:47.381Z</time>
      </trkpt>
      <trkpt lat="48.95517" lon="7.6087">
        <ele>472.31065087651</ele>
        <time>2021-03-30T12:13:48.710Z</time>
      </trkpt>
      <trkpt lat="48.95479" lon="7.60851">
        <ele>469.85847846777</ele>
        <time>2021-03-30T12:13:50.052Z</time>
      </trkpt>
      <trkpt lat="48.95421" lon="7.60861">
        <ele>467.36027336924</ele>
        <time>2021-03-30T12:13:51.414Z</time>
      </trkpt>
      <trkpt lat="48.95371" lon="7.60875">
        <ele>464.79394544532</ele>
        <time>2021-03-30T12:13:52.793Z</time>
      </trkpt>
      <trkpt lat="48.95308" lon="7.60878">
        <ele>462.16728451421</ele>
        <time>2021-03-30T12:13:54.193Z</time>
      </trkpt>
      <trkpt lat="48.95282" lon="7.60854">
        <ele>460.02746598534</ele>
        <time>2021-03-30T12:13:55.603Z</time>
      </trkpt>
      <trkpt lat="48.95246" lon="7.60831">
        <ele>457.91877752156</ele>
        <time>2021-03-30T12:13:57.026Z</time>
      </trkpt>
      <trkpt lat="48.95208" lon="7.608">
        <ele>455.94071329605</ele>
        <time>2021-03-30T12:13:58.463Z</time>
      </trkpt>
      <trkpt lat="48.95186" lon="7.60777">
        <ele>454.27775847292</ele>
        <time>2021-03-30T12:13:59.909Z</time>
      </trkpt>
      <trkpt lat="48.95167" lon="7.60757">
        <ele>452.8807846903</ele>
        <time>2021-03-30T12:14:01.363Z</time>
      </trkpt>
      <trkpt lat="48.95146" lon="7.60744">
        <ele>451.72431187857</ele>
        <time>2021-03-30T12:14:02.825Z</time>
      </trkpt>
      <trkpt lat="48.95124" lon="7.60727">
        <ele>450.89328308367</ele>
        <time>2021-03-30T12:14:04.295Z</time>
      </trkpt>
      <trkpt lat="48.95103" lon="7.60705">
        <ele>450.39802912702</ele>
        <time>2021-03-30T12:14:05.774Z</time>
      </trkpt>
      <trkpt lat="48.95064" lon="7.60649">
        <ele>450.33996598652</ele>
        <time>2021-03-30T12:14:07.270Z</time>
      </trkpt>
      <trkpt lat="48.95038" lon="7.6061">
        <ele>450.51809633617</ele>
        <time>2021-03-30T12:14:08.779Z</time>
      </trkpt>
      <trkpt lat="48.95004" lon="7.60579">
        <ele>450.90521925834</ele>
        <time>2021-03-30T12:14:10.301Z</time>
      </trkpt>
      <trkpt lat="48.94965" lon="7.60552">
        <ele>451.52826218117</ele>
        <time>2021-03-30T12:14:11.837Z</time>
      </trkpt>
      <trkpt lat="48.94935" lon="7.60537">
        <ele>452.55558812161</ele>
        <time>2021-03-30T12:14:13.384Z</time>
      </trkpt>
      <trkpt lat="48.94879" lon="7.60552">
        <ele>454.10429139895</ele>
        <time>2021-03-30T12:14:14.950Z</time>
      </trkpt>
      <trkpt lat="48.94857" lon="7.60561">
        <ele>455.70052789907</ele>
        <time>2021-03-30T12:14:16.523Z</time>
      </trkpt>
      <trkpt lat="48.94834" lon="7.60566">
        <ele>457.71316470236</ele>
        <time>2021-03-30T12:14:18.104Z</time>
      </trkpt>
      <trkpt lat="48.94798" lon="7.60541">
        <ele>460.38064690401</ele>
        <time>2021-03-30T12:14:19.698Z</time>
      </trkpt>
      <trkpt lat="48.94762" lon="7.60514">
        <ele>463.22945731783</ele>
        <time>2021-03-30T12:14:21.306Z</time>
      </trkpt>
      <trkpt lat="48.94729" lon="7.60485">
        <ele>466.14411937441</ele>
        <time>2021-03-30T12:14:22.926Z</time>
      </trkpt>
      <trkpt lat="48.94708" lon="7.60459">
        <ele>469.3091322797</ele>
        <time>2021-03-30T12:14:24.555Z</time>
      </trkpt>
      <trkpt lat="48.94696" lon="7.60436">
        <ele>472.7293233983</ele>
        <time>2021-03-30T12:14:26.191Z</time>
      </trkpt>
      <trkpt lat="48.94695" lon="7.60435">
        <ele>476.09724811377</ele>
        <time>2021-03-30T12:14:27.827Z</time>
      </trkpt>
      <trkpt lat="48.94677" lon="7.60386">
        <ele>479.94192787407</ele>
        <time>2021-03-30T12:14:29.476Z</time>
      </trkpt>
      <trkpt lat="48.94652" lon="7.60327">
        <ele>483.81477399484</ele>
        <time>2021-03-30T12:14:31.140Z</time>
      </trkpt>
      <trkpt lat="48.9462" lon="7.60255">
        <ele>487.84809243423</ele>
        <time>2021-03-30T12:14:32.823Z</time>
      </trkpt>
      <trkpt lat="48.94606" lon="7.60204">
        <ele>491.73540279736</ele>
        <time>2021-03-30T12:14:34.518Z</time>
      </trkpt>
      <trkpt lat="48.94597" lon="7.60161">
        <ele>495.55831118806</ele>
        <time>2021-03-30T12:14:36.223Z</time>
      </trkpt>
      <trkpt lat="48.94597" lon="7.60158">
        <ele>499.22391205205</ele>
        <time>2021-03-30T12:14:37.929Z</time>
      </trkpt>
      <trkpt lat="48.94595" lon="7.60136">
        <ele>502.8896830951</ele>
        <time>2021-03-30T12:14:39.640Z</time>
      </trkpt>
      <trkpt lat="48.946" lon="7.60108">
        <ele>506.63925171836</ele>
        <time>2021-03-30T12:14:41.357Z</time>
      </trkpt>
      <trkpt lat="48.94607" lon="7.60089">
        <ele>510.26807607442</ele>
        <time>2021-03-30T12:14:43.079Z</time>
      </trkpt>
      <trkpt lat="48.94607" lon="7.60087">
        <ele>513.52315530186</ele>
        <time>2021-03-30T12:14:44.801Z</time>
      </trkpt>
      <trkpt lat="48.9462" lon="7.60071">
        <ele>516.81328165282</ele>
        <time>2021-03-30T12:14:46.529Z</time>
      </trkpt>
      <trkpt lat="48.94633" lon="7.60063">
        <ele>519.88263392359</ele>
        <time>2021-03-30T12:14:48.262Z</time>
      </trkpt>
      <trkpt lat="48.94655" lon="7.60049">
        <ele>522.86394321091</ele>
        <time>2021-03-30T12:14:50.002Z</time>
      </trkpt>
      <trkpt lat="48.94677" lon="7.60034">
        <ele>525.59555186387</ele>
        <time>2021-03-30T12:14:51.751Z</time>
      </trkpt>
      <trkpt lat="48.94687" lon="7.60019">
        <ele>527.88012693536</ele>
        <time>2021-03-30T12:14:53.504Z</time>
      </trkpt>
      <trkpt lat="48.94691" lon="7.60013">
        <ele>529.77050732365</ele>
        <time>2021-03-30T12:14:55.259Z</time>
      </trkpt>
      <trkpt lat="48.94698" lon="7.60001">
        <ele>531.28983968227</ele>
        <time>2021-03-30T12:14:57.018Z</time>
      </trkpt>
      <trkpt lat="48.94705" lon="7.59975">
        <ele>532.43089905337</ele>
        <time>2021-03-30T12:14:58.783Z</time>
      </trkpt>
      <trkpt lat="48.94705" lon="7.59973">
        <ele>533.32813792597</ele>
        <time>2021-03-30T12:15:00.548Z</time>
      </trkpt>
      <trkpt lat="48.94705" lon="7.59963">
        <ele>533.89753343962</ele>
        <time>2021-03-30T12:15:02.315Z</time>
      </trkpt>
      <trkpt lat="48.94704" lon="7.59943">
        <ele>534.14147175186</ele>
        <time>2021-03-30T12:15:04.087Z</time>
      </trkpt>
      <trkpt lat="48.94702" lon="7.59917">
        <ele>534.10858246767</ele>
        <time>2021-03-30T12:15:05.865Z</time>
      </trkpt>
      <trkpt lat="48.94701" lon="7.59917">
        <ele>533.79712182616</ele>
        <time>2021-03-30T12:15:07.643Z</time>
      </trkpt>
      <trkpt lat="48.94701" lon="7.59916">
        <ele>533.19958938584</ele>
        <time>2021-03-30T12:15:09.421Z</time>
      </trkpt>
      <trkpt lat="48.94703" lon="7.59898">
        <ele>532.24202015497</ele>
        <time>2021-03-30T12:15:11.203Z</time>
      </trkpt>
      <trkpt lat="48.94709" lon="7.59879">
        <ele>531.02950592032</ele>
        <time>2021-03-30T12:15:12.990Z</time>
      </trkpt>
      <trkpt lat="48.94713" lon="7.59874">
        <ele>529.65824749946</ele>
        <time>2021-03-30T12:15:14.779Z</time>
      </trkpt>
      <trkpt lat="48.94738" lon="7.5984">
        <ele>527.98494220016</ele>
        <time>2021-03-30T12:15:16.579Z</time>
      </trkpt>
      <trkpt lat="48.94783" lon="7.5978">
        <ele>526.05622197529</ele>
        <time>2021-03-30T12:15:18.399Z</time>
      </trkpt>
      <trkpt lat="48.94814" lon="7.5974">
        <ele>524.04743594442</ele>
        <time>2021-03-30T12:15:20.232Z</time>
      </trkpt>
      <trkpt lat="48.94817" lon="7.59735">
        <ele>521.92703973874</ele>
        <time>2021-03-30T12:15:22.067Z</time>
      </trkpt>
      <trkpt lat="48.94818" lon="7.59732">
        <ele>519.69277999483</ele>
        <time>2021-03-30T12:15:23.902Z</time>
      </trkpt>
      <trkpt lat="48.94823" lon="7.59724">
        <ele>517.31472813819</ele>
        <time>2021-03-30T12:15:25.740Z</time>
      </trkpt>
      <trkpt lat="48.94829" lon="7.59702">
        <ele>514.84964227805</ele>
        <time>2021-03-30T12:15:27.583Z</time>
      </trkpt>
      <trkpt lat="48.94832" lon="7.59676">
        <ele>512.32347176956</ele>
        <time>2021-03-30T12:15:29.432Z</time>
      </trkpt>
      <trkpt lat="48.94832" lon="7.59654">
        <ele>509.63876987538</ele>
        <time>2021-03-30T12:15:31.286Z</time>
      </trkpt>
      <trkpt lat="48.94832" lon="7.59652">
        <ele>507.12027472095</ele>
        <time>2021-03-30T12:15:33.140Z</time>
      </trkpt>
      <trkpt lat="48.94829" lon="7.59612">
        <ele>504.18126351447</ele>
        <time>2021-03-30T12:15:35.003Z</time>
      </trkpt>
      <trkpt lat="48.94826" lon="7.59591">
        <ele>501.49529306818</ele>
        <time>2021-03-30T12:15:36.871Z</time>
      </trkpt>
      <trkpt lat="48.94822" lon="7.59554">
        <ele>498.76853821821</ele>
        <time>2021-03-30T12:15:38.747Z</time>
      </trkpt>
      <trkpt lat="48.94821" lon="7.5955">
        <ele>496.45934056802</ele>
        <time>2021-03-30T12:15:40.624Z</time>
      </trkpt>
      <trkpt lat="48.94818" lon="7.59502">
        <ele>493.87932169211</ele>
        <time>2021-03-30T12:15:42.512Z</time>
      </trkpt>
      <trkpt lat="48.94818" lon="7.59502">
        <ele>489.99848998167</ele>
        <time>2021-03-30T12:15:44.400Z</time>
      </trkpt>
      <trkpt lat="48.94818" lon="7.59466">
        <ele>488.13044281597</ele>
        <time>2021-03-30T12:15:46.296Z</time>
      </trkpt>
      <trkpt lat="48.94821" lon="7.59428">
        <ele>486.47057284006</ele>
        <time>2021-03-30T12:15:48.200Z</time>
      </trkpt>
      <trkpt lat="48.94827" lon="7.59393">
        <ele>485.15138722827</ele>
        <time>2021-03-30T12:15:50.112Z</time>
      </trkpt>
      <trkpt lat="48.94827" lon="7.5939">
        <ele>483.88435481587</ele>
        <time>2021-03-30T12:15:52.025Z</time>
      </trkpt>
      <trkpt lat="48.94839" lon="7.59348">
        <ele>482.87858681305</ele>
        <time>2021-03-30T12:15:53.948Z</time>
      </trkpt>
      <trkpt lat="48.94851" lon="7.5932">
        <ele>482.00820197903</ele>
        <time>2021-03-30T12:15:55.878Z</time>
      </trkpt>
      <trkpt lat="48.9487" lon="7.59279">
        <ele>481.18510307332</ele>
        <time>2021-03-30T12:15:57.819Z</time>
      </trkpt>
      <trkpt lat="48.94882" lon="7.59255">
        <ele>480.33039912132</ele>
        <time>2021-03-30T12:15:59.767Z</time>
      </trkpt>
      <trkpt lat="48.94882" lon="7.59254">
        <ele>479.55053360482</ele>
        <time>2021-03-30T12:16:01.715Z</time>
      </trkpt>
      <trkpt lat="48.94896" lon="7.59238">
        <ele>478.80046012555</ele>
        <time>2021-03-30T12:16:03.669Z</time>
      </trkpt>
      <trkpt lat="48.94915" lon="7.59222">
        <ele>478.08254541047</ele>
        <time>2021-03-30T12:16:05.630Z</time>
      </trkpt>
      <trkpt lat="48.9494" lon="7.59204">
        <ele>477.35579282286</ele>
        <time>2021-03-30T12:16:07.600Z</time>
      </trkpt>
      <trkpt lat="48.94954" lon="7.5919">
        <ele>476.5630360417</ele>
        <time>2021-03-30T12:16:09.576Z</time>
      </trkpt>
      <trkpt lat="48.94955" lon="7.5919">
        <ele>475.90197182142</ele>
        <time>2021-03-30T12:16:11.552Z</time>
      </trkpt>
      <trkpt lat="48.94965" lon="7.59168">
        <ele>475.1252955288</ele>
        <time>2021-03-30T12:16:13.534Z</time>
      </trkpt>
      <trkpt lat="48.94969" lon="7.59138">
        <ele>474.37879583043</ele>
        <time>2021-03-30T12:16:15.523Z</time>
      </trkpt>
      <trkpt lat="48.94972" lon="7.59099">
        <ele>473.65734250685</ele>
        <time>2021-03-30T12:16:17.520Z</time>
      </trkpt>
      <trkpt lat="48.9497" lon="7.59071">
        <ele>472.92072382006</ele>
        <time>2021-03-30T12:16:19.523Z</time>
      </trkpt>
      <trkpt lat="48.94968" lon="7.59045">
        <ele>472.08726501594</ele>
        <time>2021-03-30T12:16:21.532Z</time>
      </trkpt>
      <trkpt lat="48.94964" lon="7.5901">
        <ele>471.21924739131</ele>
        <time>2021-03-30T12:16:23.549Z</time>
      </trkpt>
      <trkpt lat="48.94961" lon="7.58996">
        <ele>470.36504726334</ele>
        <time>2021-03-30T12:16:25.569Z</time>
      </trkpt>
      <trkpt lat="48.9496" lon="7.58991">
        <ele>469.49713134022</ele>
        <time>2021-03-30T12:16:27.590Z</time>
      </trkpt>
      <trkpt lat="48.9496" lon="7.58974">
        <ele>468.49453085884</ele>
        <time>2021-03-30T12:16:29.615Z</time>
      </trkpt>
      <trkpt lat="48.9496" lon="7.58973">
        <ele>467.59380968379</ele>
        <time>2021-03-30T12:16:31.640Z</time>
      </trkpt>
      <trkpt lat="48.94963" lon="7.58963">
        <ele>466.57701805322</ele>
        <time>2021-03-30T12:16:33.668Z</time>
      </trkpt>
      <trkpt lat="48.94974" lon="7.58952">
        <ele>465.48887868704</ele>
        <time>2021-03-30T12:16:35.700Z</time>
      </trkpt>
      <trkpt lat="48.9499" lon="7.58944">
        <ele>464.46044473891</ele>
        <time>2021-03-30T12:16:37.738Z</time>
      </trkpt>
      <trkpt lat="48.9501" lon="7.58941">
        <ele>463.43566229983</ele>
        <time>2021-03-30T12:16:39.782Z</time>
      </trkpt>
      <trkpt lat="48.95011" lon="7.5894">
        <ele>462.43245966196</ele>
        <time>2021-03-30T12:16:41.827Z</time>
      </trkpt>
      <trkpt lat="48.95019" lon="7.58932">
        <ele>461.37514468959</ele>
        <time>2021-03-30T12:16:43.875Z</time>
      </trkpt>
      <trkpt lat="48.95039" lon="7.58909">
        <ele>460.21367251974</ele>
        <time>2021-03-30T12:16:45.931Z</time>
      </trkpt>
      <trkpt lat="48.9504" lon="7.58909">
        <ele>459.19538765674</ele>
        <time>2021-03-30T12:16:47.988Z</time>
      </trkpt>
      <trkpt lat="48.95059" lon="7.58895">
        <ele>458.07054675154</ele>
        <time>2021-03-30T12:16:50.052Z</time>
      </trkpt>
      <trkpt lat="48.95096" lon="7.58876">
        <ele>456.98904946621</ele>
        <time>2021-03-30T12:16:52.129Z</time>
      </trkpt>
      <trkpt lat="48.95137" lon="7.58854">
        <ele>455.88357621053</ele>
        <time>2021-03-30T12:16:54.220Z</time>
      </trkpt>
      <trkpt lat="48.9518" lon="7.58833">
        <ele>454.8395315564</ele>
        <time>2021-03-30T12:16:56.326Z</time>
      </trkpt>
      <trkpt lat="48.95242" lon="7.588">
        <ele>453.71342974972</ele>
        <time>2021-03-30T12:16:58.454Z</time>
      </trkpt>
      <trkpt lat="48.95251" lon="7.58788">
        <ele>452.79183377652</ele>
        <time>2021-03-30T12:17:00.586Z</time>
      </trkpt>
      <trkpt lat="48.95264" lon="7.58772">
        <ele>451.90718962858</ele>
        <time>2021-03-30T12:17:02.724Z</time>
      </trkpt>
      <trkpt lat="48.95298" lon="7.58744">
        <ele>451.02605058259</ele>
        <time>2021-03-30T12:17:04.875Z</time>
      </trkpt>
      <trkpt lat="48.95302" lon="7.5874">
        <ele>450.12676374104</ele>
        <time>2021-03-30T12:17:07.027Z</time>
      </trkpt>
      <trkpt lat="48.95326" lon="7.58713">
        <ele>449.118071284</ele>
        <time>2021-03-30T12:17:09.189Z</time>
      </trkpt>
      <trkpt lat="48.95353" lon="7.5868">
        <ele>448.23298185068</ele>
        <time>2021-03-30T12:17:11.363Z</time>
      </trkpt>
      <trkpt lat="48.95391" lon="7.58626">
        <ele>447.30086070611</ele>
        <time>2021-03-30T12:17:13.554Z</time>
      </trkpt>
      <trkpt lat="48.95412" lon="7.58581">
        <ele>446.48152694248</ele>
        <time>2021-03-30T12:17:15.757Z</time>
      </trkpt>
      <trkpt lat="48.95423" lon="7.58552">
        <ele>445.75204699219</ele>
        <time>2021-03-30T12:17:17.968Z</time>
      </trkpt>
      <trkpt lat="48.95415" lon="7.58545">
        <ele>444.97639762584</ele>
        <time>2021-03-30T12:17:20.182Z</time>
      </trkpt>
      <trkpt lat="48.95429" lon="7.58491">
        <ele>444.42159490447</ele>
        <time>2021-03-30T12:17:22.409Z</time>
      </trkpt>
      <trkpt lat="48.95445" lon="7.58444">
        <ele>444.02807739357</ele>
        <time>2021-03-30T12:17:24.647Z</time>
      </trkpt>
      <trkpt lat="48.95444" lon="7.58411">
        <ele>443.47784244369</ele>
        <time>2021-03-30T12:17:26.892Z</time>
      </trkpt>
      <trkpt lat="48.95433" lon="7.58287">
        <ele>443.31542234436</ele>
        <time>2021-03-30T12:17:29.165Z</time>
      </trkpt>
      <trkpt lat="48.95435" lon="7.58256">
        <ele>442.78430987942</ele>
        <time>2021-03-30T12:17:31.445Z</time>
      </trkpt>
      <trkpt lat="48.95433" lon="7.58211">
        <ele>442.10155691896</ele>
        <time>2021-03-30T12:17:33.735Z</time>
      </trkpt>
      <trkpt lat="48.9542" lon="7.58139">
        <ele>441.33296140892</ele>
        <time>2021-03-30T12:17:36.041Z</time>
      </trkpt>
      <trkpt lat="48.95398" lon="7.58029">
        <ele>440.33883250046</ele>
        <time>2021-03-30T12:17:38.372Z</time>
      </trkpt>
      <trkpt lat="48.95394" lon="7.57975">
        <ele>439.46621411737</ele>
        <time>2021-03-30T12:17:40.715Z</time>
      </trkpt>
      <trkpt lat="48.95386" lon="7.5793">
        <ele>438.7707564049</ele>
        <time>2021-03-30T12:17:43.069Z</time>
      </trkpt>
      <trkpt lat="48.95381" lon="7.5789">
        <ele>438.15383689861</ele>
        <time>2021-03-30T12:17:45.432Z</time>
      </trkpt>
      <trkpt lat="48.95374" lon="7.57856">
        <ele>437.77450344899</ele>
        <time>2021-03-30T12:17:47.802Z</time>
      </trkpt>
      <trkpt lat="48.95356" lon="7.57816">
        <ele>437.66388733658</ele>
        <time>2021-03-30T12:17:50.183Z</time>
      </trkpt>
      <trkpt lat="48.95342" lon="7.57796">
        <ele>437.5767225419</ele>
        <time>2021-03-30T12:17:52.570Z</time>
      </trkpt>
      <trkpt lat="48.95331" lon="7.57786">
        <ele>437.80372906911</ele>
        <time>2021-03-30T12:17:54.962Z</time>
      </trkpt>
      <trkpt lat="48.95325" lon="7.57773">
        <ele>438.26105595618</ele>
        <time>2021-03-30T12:17:57.357Z</time>
      </trkpt>
      <trkpt lat="48.95341" lon="7.57738">
        <ele>438.93384310196</ele>
        <time>2021-03-30T12:17:59.762Z</time>
      </trkpt>
      <trkpt lat="48.95326" lon="7.57714">
        <ele>439.80662803389</ele>
        <time>2021-03-30T12:18:02.174Z</time>
      </trkpt>
      <trkpt lat="48.95348" lon="7.57658">
        <ele>441.32716519954</ele>
        <time>2021-03-30T12:18:04.600Z</time>
      </trkpt>
      <trkpt lat="48.95365" lon="7.576">
        <ele>443.49004634585</ele>
        <time>2021-03-30T12:18:07.040Z</time>
      </trkpt>
      <trkpt lat="48.95371" lon="7.57577">
        <ele>445.48372314743</ele>
        <time>2021-03-30T12:18:09.485Z</time>
      </trkpt>
      <trkpt lat="48.95372" lon="7.57571">
        <ele>447.46813955517</ele>
        <time>2021-03-30T12:18:11.932Z</time>
      </trkpt>
      <trkpt lat="48.95373" lon="7.57538">
        <ele>449.95701757488</ele>
        <time>2021-03-30T12:18:14.386Z</time>
      </trkpt>
      <trkpt lat="48.95372" lon="7.57499">
        <ele>452.6162613477</ele>
        <time>2021-03-30T12:18:16.848Z</time>
      </trkpt>
      <trkpt lat="48.9537" lon="7.57457">
        <ele>455.26253354826</ele>
        <time>2021-03-30T12:18:19.320Z</time>
      </trkpt>
      <trkpt lat="48.9537" lon="7.57452">
        <ele>457.52322664415</ele>
        <time>2021-03-30T12:18:21.793Z</time>
      </trkpt>
      <trkpt lat="48.95373" lon="7.57417">
        <ele>460.02011103273</ele>
        <time>2021-03-30T12:18:24.274Z</time>
      </trkpt>
      <trkpt lat="48.95374" lon="7.57409">
        <ele>462.19902142435</ele>
        <time>2021-03-30T12:18:26.756Z</time>
      </trkpt>
      <trkpt lat="48.95386" lon="7.57335">
        <ele>464.623256968</ele>
        <time>2021-03-30T12:18:29.255Z</time>
      </trkpt>
      <trkpt lat="48.95405" lon="7.57238">
        <ele>466.34347949562</ele>
        <time>2021-03-30T12:18:31.776Z</time>
      </trkpt>
      <trkpt lat="48.95429" lon="7.57143">
        <ele>468.0068091124</ele>
        <time>2021-03-30T12:18:34.320Z</time>
      </trkpt>
      <trkpt lat="48.95429" lon="7.57141">
        <ele>469.70343661265</ele>
        <time>2021-03-30T12:18:36.864Z</time>
      </trkpt>
      <trkpt lat="48.95431" lon="7.57129">
        <ele>471.22449031827</ele>
        <time>2021-03-30T12:18:39.411Z</time>
      </trkpt>
      <trkpt lat="48.95436" lon="7.57097">
        <ele>472.53136018762</ele>
        <time>2021-03-30T12:18:41.965Z</time>
      </trkpt>
      <trkpt lat="48.95436" lon="7.57096">
        <ele>473.76748173478</ele>
        <time>2021-03-30T12:18:44.519Z</time>
      </trkpt>
      <trkpt lat="48.95436" lon="7.57096">
        <ele>474.8342365775</ele>
        <time>2021-03-30T12:18:47.073Z</time>
      </trkpt>
      <trkpt lat="48.95436" lon="7.57096">
        <ele>475.72449171955</ele>
        <time>2021-03-30T12:18:49.627Z</time>
      </trkpt>
      <trkpt lat="48.95436" lon="7.57096">
        <ele>476.43211966723</ele>
        <time>2021-03-30T12:18:52.181Z</time>
      </trkpt>
      <trkpt lat="48.95436" lon="7.57096">
        <ele>476.95173252359</ele>
        <time>2021-03-30T12:18:54.735Z</time>
      </trkpt>
      <trkpt lat="48.95436" lon="7.57096">
        <ele>477.27852378972</ele>
        <time>2021-03-30T12:18:57.289Z</time>
      </trkpt>
      <trkpt lat="48.95436" lon="7.57096">
        <ele>477.40816864042</ele>
        <time>2021-03-30T12:18:59.843Z</time>
      </trkpt>
      <trkpt lat="48.95436" lon="7.57096">
        <ele>477.3367831359</ele>
        <time>2021-03-30T12:19:02.397Z</time>
      </trkpt>
      <trkpt lat="48.95436" lon="7.57096">
        <ele>477.06093686561</ele>
        <time>2021-03-30T12:19:04.951Z</time>
      </trkpt>
      <trkpt lat="48.95436" lon="7.57094">
        <ele>476.57471036213</ele>
        <time>2021-03-30T12:19:07.506Z</time>
      </trkpt>
      <trkpt lat="48.95436" lon="7.57096">
        <ele>475.88483272055</ele>
        <time>2021-03-30T12:19:10.061Z</time>
      </trkpt>
      <trkpt lat="48.9545" lon="7.57021">
        <ele>474.65972730985</ele>
        <time>2021-03-30T12:19:12.633Z</time>
      </trkpt>
      <trkpt lat="48.95458" lon="7.56973">
        <ele>473.31104729932</ele>
        <time>2021-03-30T12:19:15.216Z</time>
      </trkpt>
      <trkpt lat="48.95486" lon="7.56924">
        <ele>471.81196983542</ele>
        <time>2021-03-30T12:19:17.813Z</time>
      </trkpt>
      <trkpt lat="48.95489" lon="7.56915">
        <ele>470.25622286395</ele>
        <time>2021-03-30T12:19:20.412Z</time>
      </trkpt>
      <trkpt lat="48.95492" lon="7.56909">
        <ele>468.48514649391</ele>
        <time>2021-03-30T12:19:23.013Z</time>
      </trkpt>
      <trkpt lat="48.95494" lon="7.56902">
        <ele>466.49095044107</ele>
        <time>2021-03-30T12:19:25.616Z</time>
      </trkpt>
      <trkpt lat="48.95497" lon="7.56895">
        <ele>464.28748093962</ele>
        <time>2021-03-30T12:19:28.221Z</time>
      </trkpt>
      <trkpt lat="48.955" lon="7.56888">
        <ele>461.91543691264</ele>
        <time>2021-03-30T12:19:30.827Z</time>
      </trkpt>
      <trkpt lat="48.95502" lon="7.5688">
        <ele>459.34614312558</ele>
        <time>2021-03-30T12:19:33.435Z</time>
      </trkpt>
      <trkpt lat="48.95505" lon="7.56872">
        <ele>456.56156952545</ele>
        <time>2021-03-30T12:19:36.045Z</time>
      </trkpt>
      <trkpt lat="48.95507" lon="7.56865">
        <ele>453.53233880643</ele>
        <time>2021-03-30T12:19:38.657Z</time>
      </trkpt>
      <trkpt lat="48.9551" lon="7.56859">
        <ele>450.28250959531</ele>
        <time>2021-03-30T12:19:41.271Z</time>
      </trkpt>
      <trkpt lat="48.95512" lon="7.56852">
        <ele>446.78563394049</ele>
        <time>2021-03-30T12:19:43.886Z</time>
      </trkpt>
      <trkpt lat="48.95513" lon="7.56849">
        <ele>443.04997583085</ele>
        <time>2021-03-30T12:19:46.502Z</time>
      </trkpt>
      <trkpt lat="48.95515" lon="7.56827">
        <ele>439.06967872262</ele>
        <time>2021-03-30T12:19:49.123Z</time>
      </trkpt>
      <trkpt lat="48.95504" lon="7.56752">
        <ele>434.69226890835</ele>
        <time>2021-03-30T12:19:51.761Z</time>
      </trkpt>
      <trkpt lat="48.95467" lon="7.5666">
        <ele>429.58150699539</ele>
        <time>2021-03-30T12:19:54.422Z</time>
      </trkpt>
      <trkpt lat="48.9543" lon="7.56573">
        <ele>424.67456979062</ele>
        <time>2021-03-30T12:19:57.106Z</time>
      </trkpt>
      <trkpt lat="48.9539" lon="7.56495">
        <ele>419.09304482477</ele>
        <time>2021-03-30T12:19:59.812Z</time>
      </trkpt>
      <trkpt lat="48.95336" lon="7.5641">
        <ele>413.6022793615</ele>
        <time>2021-03-30T12:20:02.544Z</time>
      </trkpt>
      <trkpt lat="48.95291" lon="7.5635">
        <ele>408.35095768911</ele>
        <time>2021-03-30T12:20:05.296Z</time>
      </trkpt>
      <trkpt lat="48.95288" lon="7.56347">
        <ele>403.67534659838</ele>
        <time>2021-03-30T12:20:08.049Z</time>
      </trkpt>
      <trkpt lat="48.95251" lon="7.56312">
        <ele>398.68769348345</ele>
        <time>2021-03-30T12:20:10.817Z</time>
      </trkpt>
      <trkpt lat="48.95243" lon="7.563">
        <ele>394.11175317122</ele>
        <time>2021-03-30T12:20:13.588Z</time>
      </trkpt>
      <trkpt lat="48.95199" lon="7.56182">
        <ele>389.05712553959</ele>
        <time>2021-03-30T12:20:16.389Z</time>
      </trkpt>
      <trkpt lat="48.95199" lon="7.56182">
        <ele>384.75201539581</ele>
        <time>2021-03-30T12:20:19.190Z</time>
      </trkpt>
      <trkpt lat="48.95199" lon="7.56181">
        <ele>380.55815373983</ele>
        <time>2021-03-30T12:20:21.991Z</time>
      </trkpt>
      <trkpt lat="48.95199" lon="7.56181">
        <ele>376.47124914012</ele>
        <time>2021-03-30T12:20:24.792Z</time>
      </trkpt>
      <trkpt lat="48.95199" lon="7.56181">
        <ele>372.4825701081</ele>
        <time>2021-03-30T12:20:27.593Z</time>
      </trkpt>
      <trkpt lat="48.95199" lon="7.56181">
        <ele>368.57991877923</ele>
        <time>2021-03-30T12:20:30.394Z</time>
      </trkpt>
      <trkpt lat="48.95198" lon="7.56182">
        <ele>364.74925364612</ele>
        <time>2021-03-30T12:20:33.196Z</time>
      </trkpt>
      <trkpt lat="48.95199" lon="7.56181">
        <ele>360.97282798657</ele>
        <time>2021-03-30T12:20:35.998Z</time>
      </trkpt>
      <trkpt lat="48.95199" lon="7.56168">
        <ele>357.13216842443</ele>
        <time>2021-03-30T12:20:38.803Z</time>
      </trkpt>
      <trkpt lat="48.95176" lon="7.56141">
        <ele>353.1173585575</ele>
        <time>2021-03-30T12:20:41.618Z</time>
      </trkpt>
      <trkpt lat="48.95151" lon="7.56105">
        <ele>349.03073059257</ele>
        <time>2021-03-30T12:20:44.444Z</time>
      </trkpt>
      <trkpt lat="48.95151" lon="7.56105">
        <ele>341.65488695518</ele>
        <time>2021-03-30T12:20:47.270Z</time>
      </trkpt>
      <trkpt lat="48.9515" lon="7.56135">
        <ele>338.29114594913</ele>
        <time>2021-03-30T12:20:50.103Z</time>
      </trkpt>
      <trkpt lat="48.95102" lon="7.56072">
        <ele>334.03115361278</ele>
        <time>2021-03-30T12:20:52.957Z</time>
      </trkpt>
      <trkpt lat="48.95088" lon="7.56026">
        <ele>329.69195245441</ele>
        <time>2021-03-30T12:20:55.822Z</time>
      </trkpt>
      <trkpt lat="48.9507" lon="7.55982">
        <ele>325.55448622786</ele>
        <time>2021-03-30T12:20:58.699Z</time>
      </trkpt>
      <trkpt lat="48.95039" lon="7.55916">
        <ele>321.44797047042</ele>
        <time>2021-03-30T12:21:01.593Z</time>
      </trkpt>
      <trkpt lat="48.94983" lon="7.5581">
        <ele>317.19832020545</ele>
        <time>2021-03-30T12:21:04.517Z</time>
      </trkpt>
      <trkpt lat="48.94942" lon="7.55727">
        <ele>313.03461251673</ele>
        <time>2021-03-30T12:21:07.464Z</time>
      </trkpt>
      <trkpt lat="48.94933" lon="7.55683">
        <ele>309.11697743016</ele>
        <time>2021-03-30T12:21:10.421Z</time>
      </trkpt>
      <trkpt lat="48.94925" lon="7.55633">
        <ele>305.30603310119</ele>
        <time>2021-03-30T12:21:13.390Z</time>
      </trkpt>
      <trkpt lat="48.9492" lon="7.55604">
        <ele>301.65796958491</ele>
        <time>2021-03-30T12:21:16.365Z</time>
      </trkpt>
      <trkpt lat="48.94915" lon="7.55573">
        <ele>297.99746886854</ele>
        <time>2021-03-30T12:21:19.347Z</time>
      </trkpt>
      <trkpt lat="48.94907" lon="7.55499">
        <ele>294.09265344589</ele>
        <time>2021-03-30T12:21:22.346Z</time>
      </trkpt>
      <trkpt lat="48.94903" lon="7.55426">
        <ele>290.37249024497</ele>
        <time>2021-03-30T12:21:25.361Z</time>
      </trkpt>
      <trkpt lat="48.94903" lon="7.55424">
        <ele>287.00098674481</ele>
        <time>2021-03-30T12:21:28.376Z</time>
      </trkpt>
      <trkpt lat="48.94908" lon="7.55356">
        <ele>283.50833016199</ele>
        <time>2021-03-30T12:21:31.406Z</time>
      </trkpt>
      <trkpt lat="48.94912" lon="7.55301">
        <ele>280.09158264017</ele>
        <time>2021-03-30T12:21:34.448Z</time>
      </trkpt>
      <trkpt lat="48.94922" lon="7.55244">
        <ele>276.65790076833</ele>
        <time>2021-03-30T12:21:37.503Z</time>
      </trkpt>
      <trkpt lat="48.94928" lon="7.55215">
        <ele>273.4391934698</ele>
        <time>2021-03-30T12:21:40.565Z</time>
      </trkpt>
      <trkpt lat="48.94928" lon="7.55214">
        <ele>270.39263489627</ele>
        <time>2021-03-30T12:21:43.627Z</time>
      </trkpt>
      <trkpt lat="48.94931" lon="7.55183">
        <ele>267.27331767225</ele>
        <time>2021-03-30T12:21:46.696Z</time>
      </trkpt>
      <trkpt lat="48.94933" lon="7.55156">
        <ele>264.194309143</ele>
        <time>2021-03-30T12:21:49.771Z</time>
      </trkpt>
      <trkpt lat="48.94932" lon="7.55146">
        <ele>261.22121093642</ele>
        <time>2021-03-30T12:21:52.848Z</time>
      </trkpt>
      <trkpt lat="48.9493" lon="7.55125">
        <ele>258.195763</ele>
        <time>2021-03-30T12:21:55.930Z</time>
      </trkpt>
      <trkpt lat="48.94925" lon="7.55101">
        <ele>255.20570159532</ele>
        <time>2021-03-30T12:21:59.017Z</time>
      </trkpt>
      <trkpt lat="48.94923" lon="7.55099">
        <ele>252.4529646341</ele>
        <time>2021-03-30T12:22:02.105Z</time>
      </trkpt>
      <trkpt lat="48.94909" lon="7.55074">
        <ele>249.55604494898</ele>
        <time>2021-03-30T12:22:05.200Z</time>
      </trkpt>
      <trkpt lat="48.94889" lon="7.5504">
        <ele>246.55810134601</ele>
        <time>2021-03-30T12:22:08.306Z</time>
      </trkpt>
      <trkpt lat="48.94877" lon="7.55022">
        <ele>243.78014415634</ele>
        <time>2021-03-30T12:22:11.417Z</time>
      </trkpt>
      <trkpt lat="48.9488" lon="7.55022">
        <ele>241.20424943126</ele>
        <time>2021-03-30T12:22:14.529Z</time>
      </trkpt>
      <trkpt lat="48.94897" lon="7.55022">
        <ele>238.53378897539</ele>
        <time>2021-03-30T12:22:17.647Z</time>
      </trkpt>
      <trkpt lat="48.94911" lon="7.55019">
        <ele>235.90070872395</ele>
        <time>2021-03-30T12:22:20.770Z</time>
      </trkpt>
      <trkpt lat="48.94928" lon="7.55016">
        <ele>233.30220681544</ele>
        <time>2021-03-30T12:22:23.898Z</time>
      </trkpt>
      <trkpt lat="48.9494" lon="7.55013">
        <ele>230.82637313441</ele>
        <time>2021-03-30T12:22:27.030Z</time>
      </trkpt>
      <trkpt lat="48.94942" lon="7.55008">
        <ele>228.48501355413</ele>
        <time>2021-03-30T12:22:30.164Z</time>
      </trkpt>
      <trkpt lat="48.94943" lon="7.55007">
        <ele>226.30742523539</ele>
        <time>2021-03-30T12:22:33.298Z</time>
      </trkpt>
      <trkpt lat="48.9494" lon="7.55002">
        <ele>224.2099916642</ele>
        <time>2021-03-30T12:22:36.433Z</time>
      </trkpt>
      <trkpt lat="48.94932" lon="7.54989">
        <ele>222.04763089876</ele>
        <time>2021-03-30T12:22:39.572Z</time>
      </trkpt>
      <trkpt lat="48.94922" lon="7.54975">
        <ele>219.9765088259</ele>
        <time>2021-03-30T12:22:42.716Z</time>
      </trkpt>
      <trkpt lat="48.94907" lon="7.54963">
        <ele>218.05440831278</ele>
        <time>2021-03-30T12:22:45.866Z</time>
      </trkpt>
      <trkpt lat="48.94889" lon="7.54948">
        <ele>216.19739102494</ele>
        <time>2021-03-30T12:22:49.022Z</time>
      </trkpt>
      <trkpt lat="48.94892" lon="7.54948">
        <ele>214.62305183363</ele>
        <time>2021-03-30T12:22:52.179Z</time>
      </trkpt>
      <trkpt lat="48.94912" lon="7.54946">
        <ele>213.06796170214</ele>
        <time>2021-03-30T12:22:55.343Z</time>
      </trkpt>
      <trkpt lat="48.94947" lon="7.5495">
        <ele>211.62575051895</ele>
        <time>2021-03-30T12:22:58.519Z</time>
      </trkpt>
      <trkpt lat="48.94966" lon="7.54943">
        <ele>210.07464362754</ele>
        <time>2021-03-30T12:23:01.701Z</time>
      </trkpt>
      <trkpt lat="48.94964" lon="7.54941">
        <ele>208.95131302329</ele>
        <time>2021-03-30T12:23:04.884Z</time>
      </trkpt>
      <trkpt lat="48.94963" lon="7.5494">
        <ele>207.94739521983</ele>
        <time>2021-03-30T12:23:08.068Z</time>
      </trkpt>
      <trkpt lat="48.94959" lon="7.54937">
        <ele>207.05303784611</ele>
        <time>2021-03-30T12:23:11.253Z</time>
      </trkpt>
      <trkpt lat="48.94956" lon="7.54936">
        <ele>206.28437969556</ele>
        <time>2021-03-30T12:23:14.439Z</time>
      </trkpt>
      <trkpt lat="48.94953" lon="7.54934">
        <ele>205.59615563927</ele>
        <time>2021-03-30T12:23:17.626Z</time>
      </trkpt>
      <trkpt lat="48.9495" lon="7.54933">
        <ele>205.01358649783</ele>
        <time>2021-03-30T12:23:20.814Z</time>
      </trkpt>
      <trkpt lat="48.94946" lon="7.54932">
        <ele>204.5229971035</ele>
        <time>2021-03-30T12:23:24.004Z</time>
      </trkpt>
      <trkpt lat="48.94943" lon="7.54931">
        <ele>204.09404207958</ele>
        <time>2021-03-30T12:23:27.195Z</time>
      </trkpt>
      <trkpt lat="48.94941" lon="7.54929">
        <ele>203.70218431565</ele>
        <time>2021-03-30T12:23:30.386Z</time>
      </trkpt>
      <trkpt lat="48.94938" lon="7.54928">
        <ele>203.37326736298</ele>
        <time>2021-03-30T12:23:33.578Z</time>
      </trkpt>
      <trkpt lat="48.94936" lon="7.54926">
        <ele>203.0737827399</ele>
        <time>2021-03-30T12:23:36.771Z</time>
      </trkpt>
      <trkpt lat="48.94934" lon="7.54924">
        <ele>202.81886477767</ele>
        <time>2021-03-30T12:23:39.965Z</time>
      </trkpt>
      <trkpt lat="48.94933" lon="7.54924">
        <ele>202.63289954966</ele>
        <time>2021-03-30T12:23:43.159Z</time>
      </trkpt>
      <trkpt lat="48.94932" lon="7.54921">
        <ele>202.43285061545</ele>
        <time>2021-03-30T12:23:46.354Z</time>
      </trkpt>
      <trkpt lat="48.94931" lon="7.54918">
        <ele>202.26488533132</ele>
        <time>2021-03-30T12:23:49.550Z</time>
      </trkpt>
      <trkpt lat="48.9493" lon="7.54914">
        <ele>202.13915734902</ele>
        <time>2021-03-30T12:23:52.747Z</time>
      </trkpt>
      <trkpt lat="48.94929" lon="7.54907">
        <ele>202.0212241968</ele>
        <time>2021-03-30T12:23:55.945Z</time>
      </trkpt>
      <trkpt lat="48.94932" lon="7.54906">
        <ele>201.9699113078</ele>
        <time>2021-03-30T12:23:59.144Z</time>
      </trkpt>
      <trkpt lat="48.94937" lon="7.54904">
        <ele>201.93615090308</ele>
        <time>2021-03-30T12:24:02.345Z</time>
      </trkpt>
      <trkpt lat="48.94942" lon="7.54901">
        <ele>201.92802690473</ele>
        <time>2021-03-30T12:24:05.548Z</time>
      </trkpt>
      <trkpt lat="48.94947" lon="7.54898">
        <ele>201.96703921081</ele>
        <time>2021-03-30T12:24:08.753Z</time>
      </trkpt>
      <trkpt lat="48.94953" lon="7.54893">
        <ele>202.02167600913</ele>
        <time>2021-03-30T12:24:11.960Z</time>
      </trkpt>
      <trkpt lat="48.94958" lon="7.54887">
        <ele>202.0920087117</ele>
        <time>2021-03-30T12:24:15.169Z</time>
      </trkpt>
      <trkpt lat="48.9496" lon="7.54884">
        <ele>202.19882025651</ele>
        <time>2021-03-30T12:24:18.379Z</time>
      </trkpt>
      <trkpt lat="48.94964" lon="7.54879">
        <ele>202.3251954337</ele>
        <time>2021-03-30T12:24:21.591Z</time>
      </trkpt>
      <trkpt lat="48.94969" lon="7.54869">
        <ele>202.44738517172</ele>
        <time>2021-03-30T12:24:24.805Z</time>
      </trkpt>
      <trkpt lat="48.94974" lon="7.54858">
        <ele>202.65305576222</ele>
        <time>2021-03-30T12:24:28.022Z</time>
      </trkpt>
      <trkpt lat="48.94974" lon="7.54857">
        <ele>202.87917992596</ele>
        <time>2021-03-30T12:24:31.240Z</time>
      </trkpt>
      <trkpt lat="48.94977" lon="7.5485">
        <ele>203.16055878689</ele>
        <time>2021-03-30T12:24:34.459Z</time>
      </trkpt>
      <trkpt lat="48.9498" lon="7.5484">
        <ele>203.46417302016</ele>
        <time>2021-03-30T12:24:37.681Z</time>
      </trkpt>
      <trkpt lat="48.94983" lon="7.54828">
        <ele>203.79986759991</ele>
        <time>2021-03-30T12:24:40.906Z</time>
      </trkpt>
      <trkpt lat="48.94984" lon="7.54818">
        <ele>204.13916344116</ele>
        <time>2021-03-30T12:24:44.133Z</time>
      </trkpt>
      <trkpt lat="48.94986" lon="7.54808">
        <ele>204.50159497417</ele>
        <time>2021-03-30T12:24:47.362Z</time>
      </trkpt>
      <trkpt lat="48.94987" lon="7.54794">
        <ele>204.86124693008</ele>
        <time>2021-03-30T12:24:50.594Z</time>
      </trkpt>
      <trkpt lat="48.94987" lon="7.54793">
        <ele>205.19669315823</ele>
        <time>2021-03-30T12:24:53.827Z</time>
      </trkpt>
      <trkpt lat="48.94988" lon="7.54783">
        <ele>205.52981295613</ele>
        <time>2021-03-30T12:24:57.062Z</time>
      </trkpt>
      <trkpt lat="48.94987" lon="7.54767">
        <ele>205.84151457029</ele>
        <time>2021-03-30T12:25:00.300Z</time>
      </trkpt>
      <trkpt lat="48.94987" lon="7.54754">
        <ele>206.16210958436</ele>
        <time>2021-03-30T12:25:03.541Z</time>
      </trkpt>
      <trkpt lat="48.94987" lon="7.54736">
        <ele>206.57210573388</ele>
        <time>2021-03-30T12:25:06.786Z</time>
      </trkpt>
      <trkpt lat="48.94987" lon="7.54719">
        <ele>206.98916994053</ele>
        <time>2021-03-30T12:25:10.035Z</time>
      </trkpt>
      <trkpt lat="48.94987" lon="7.54705">
        <ele>207.31719324665</ele>
        <time>2021-03-30T12:25:13.287Z</time>
      </trkpt>
      <trkpt lat="48.94988" lon="7.54693">
        <ele>207.59387839287</ele>
        <time>2021-03-30T12:25:16.542Z</time>
      </trkpt>
      <trkpt lat="48.94989" lon="7.54681">
        <ele>207.85083003873</ele>
        <time>2021-03-30T12:25:19.799Z</time>
      </trkpt>
      <trkpt lat="48.94991" lon="7.54668">
        <ele>208.08446887121</ele>
        <time>2021-03-30T12:25:23.059Z</time>
      </trkpt>
      <trkpt lat="48.94993" lon="7.54659">
        <ele>208.33420868051</ele>
        <time>2021-03-30T12:25:26.321Z</time>
      </trkpt>
      <trkpt lat="48.94993" lon="7.5465">
        <ele>208.5595868954</ele>
        <time>2021-03-30T12:25:29.585Z</time>
      </trkpt>
      <trkpt lat="48.94994" lon="7.54644">
        <ele>208.74771954576</ele>
        <time>2021-03-30T12:25:32.851Z</time>
      </trkpt>
      <trkpt lat="48.94994" lon="7.5464">
        <ele>208.89915419476</ele>
        <time>2021-03-30T12:25:36.117Z</time>
      </trkpt>
      <trkpt lat="48.94994" lon="7.54637">
        <ele>209.0144108003</ele>
        <time>2021-03-30T12:25:39.384Z</time>
      </trkpt>
      <trkpt lat="48.94993" lon="7.54624">
        <ele>209.10629990595</ele>
        <time>2021-03-30T12:25:42.654Z</time>
      </trkpt>
      <trkpt lat="48.94992" lon="7.54613">
        <ele>209.15942894746</ele>
        <time>2021-03-30T12:25:45.926Z</time>
      </trkpt>
      <trkpt lat="48.94991" lon="7.54599">
        <ele>209.17963980228</ele>
        <time>2021-03-30T12:25:49.202Z</time>
      </trkpt>
      <trkpt lat="48.9499" lon="7.54584">
        <ele>209.16329818852</ele>
        <time>2021-03-30T12:25:52.481Z</time>
      </trkpt>
      <trkpt lat="48.94989" lon="7.54573">
        <ele>209.07411031749</ele>
        <time>2021-03-30T12:25:55.762Z</time>
      </trkpt>
      <trkpt lat="48.94988" lon="7.54558">
        <ele>208.94284010689</ele>
        <time>2021-03-30T12:25:59.047Z</time>
      </trkpt>
      <trkpt lat="48.94987" lon="7.54542">
        <ele>208.7752941534</ele>
        <time>2021-03-30T12:26:02.335Z</time>
      </trkpt>
      <trkpt lat="48.94987" lon="7.54532">
        <ele>208.58190156079</ele>
        <time>2021-03-30T12:26:05.625Z</time>
      </trkpt>
      <trkpt lat="48.94987" lon="7.54522">
        <ele>208.35841899355</ele>
        <time>2021-03-30T12:26:08.918Z</time>
      </trkpt>
      <trkpt lat="48.94987" lon="7.54511">
        <ele>208.10645205611</ele>
        <time>2021-03-30T12:26:12.213Z</time>
      </trkpt>
      <trkpt lat="48.94988" lon="7.54506">
        <ele>207.83752811373</ele>
        <time>2021-03-30T12:26:15.509Z</time>
      </trkpt>
      <trkpt lat="48.94988" lon="7.545">
        <ele>207.54680332925</ele>
        <time>2021-03-30T12:26:18.806Z</time>
      </trkpt>
      <trkpt lat="48.9499" lon="7.54492">
        <ele>207.21944759311</ele>
        <time>2021-03-30T12:26:22.105Z</time>
      </trkpt>
      <trkpt lat="48.94992" lon="7.54482">
        <ele>206.8733229877</ele>
        <time>2021-03-30T12:26:25.407Z</time>
      </trkpt>
      <trkpt lat="48.94994" lon="7.54472">
        <ele>206.51994072075</ele>
        <time>2021-03-30T12:26:28.711Z</time>
      </trkpt>
      <trkpt lat="48.95003" lon="7.54449">
        <ele>206.11013165836</ele>
        <time>2021-03-30T12:26:32.021Z</time>
      </trkpt>
      <trkpt lat="48.95012" lon="7.54426">
        <ele>205.70320154931</ele>
        <time>2021-03-30T12:26:35.337Z</time>
      </trkpt>
      <trkpt lat="48.9501" lon="7.54427">
        <ele>205.40099537916</ele>
        <time>2021-03-30T12:26:38.653Z</time>
      </trkpt>
      <trkpt lat="48.95006" lon="7.54425">
        <ele>205.1019243954</ele>
        <time>2021-03-30T12:26:41.971Z</time>
      </trkpt>
      <trkpt lat="48.95004" lon="7.54424">
        <ele>204.81635380272</ele>
        <time>2021-03-30T12:26:45.289Z</time>
      </trkpt>
      <trkpt lat="48.94999" lon="7.54421">
        <ele>204.54235806889</ele>
        <time>2021-03-30T12:26:48.609Z</time>
      </trkpt>
      <trkpt lat="48.94997" lon="7.5442">
        <ele>204.28627928999</ele>
        <time>2021-03-30T12:26:51.930Z</time>
      </trkpt>
      <trkpt lat="48.94995" lon="7.5442">
        <ele>204.04904732771</ele>
        <time>2021-03-30T12:26:55.252Z</time>
      </trkpt>
      <trkpt lat="48.94993" lon="7.54421">
        <ele>203.83031820764</ele>
        <time>2021-03-30T12:26:58.574Z</time>
      </trkpt>
      <trkpt lat="48.94992" lon="7.54423">
        <ele>203.62786054718</ele>
        <time>2021-03-30T12:27:01.897Z</time>
      </trkpt>
      <trkpt lat="48.9499" lon="7.54426">
        <ele>203.44312603178</ele>
        <time>2021-03-30T12:27:05.221Z</time>
      </trkpt>
      <trkpt lat="48.94989" lon="7.54428">
        <ele>203.26492991035</ele>
        <time>2021-03-30T12:27:08.545Z</time>
      </trkpt>
      <trkpt lat="48.94987" lon="7.54429">
        <ele>203.09426844626</ele>
        <time>2021-03-30T12:27:11.870Z</time>
      </trkpt>
      <trkpt lat="48.94984" lon="7.54429">
        <ele>202.92937190157</ele>
        <time>2021-03-30T12:27:15.196Z</time>
      </trkpt>
      <trkpt lat="48.94981" lon="7.54428">
        <ele>202.76715143606</ele>
        <time>2021-03-30T12:27:18.523Z</time>
      </trkpt>
      <trkpt lat="48.94977" lon="7.54428">
        <ele>202.61421732634</ele>
        <time>2021-03-30T12:27:21.851Z</time>
      </trkpt>
      <trkpt lat="48.94975" lon="7.54426">
        <ele>202.45475277423</ele>
        <time>2021-03-30T12:27:25.180Z</time>
      </trkpt>
      <trkpt lat="48.94973" lon="7.54424">
        <ele>202.29719351387</ele>
        <time>2021-03-30T12:27:28.510Z</time>
      </trkpt>
      <trkpt lat="48.94973" lon="7.54423">
        <ele>202.14137615957</ele>
        <time>2021-03-30T12:27:31.840Z</time>
      </trkpt>
      <trkpt lat="48.94972" lon="7.54421">
        <ele>201.98401588191</ele>
        <time>2021-03-30T12:27:35.171Z</time>
      </trkpt>
      <trkpt lat="48.94972" lon="7.54417">
        <ele>201.81934887045</ele>
        <time>2021-03-30T12:27:38.503Z</time>
      </trkpt>
      <trkpt lat="48.94973" lon="7.54415">
        <ele>201.66286716919</ele>
        <time>2021-03-30T12:27:41.835Z</time>
      </trkpt>
      <trkpt lat="48.94976" lon="7.54413">
        <ele>201.50470664462</ele>
        <time>2021-03-30T12:27:45.168Z</time>
      </trkpt>
      <trkpt lat="48.94978" lon="7.54409">
        <ele>201.34572517748</ele>
        <time>2021-03-30T12:27:48.502Z</time>
      </trkpt>
      <trkpt lat="48.9498" lon="7.54406">
        <ele>201.19192494237</ele>
        <time>2021-03-30T12:27:51.837Z</time>
      </trkpt>
      <trkpt lat="48.94981" lon="7.54404">
        <ele>201.04617089671</ele>
        <time>2021-03-30T12:27:55.173Z</time>
      </trkpt>
      <trkpt lat="48.94982" lon="7.54403">
        <ele>200.9088416505</ele>
        <time>2021-03-30T12:27:58.509Z</time>
      </trkpt>
      <trkpt lat="48.9498" lon="7.54396">
        <ele>200.77169016837</ele>
        <time>2021-03-30T12:28:01.847Z</time>
      </trkpt>
      <trkpt lat="48.9498" lon="7.54392">
        <ele>200.64869342524</ele>
        <time>2021-03-30T12:28:05.186Z</time>
      </trkpt>
      <trkpt lat="48.9498" lon="7.54388">
        <ele>200.53899046164</ele>
        <time>2021-03-30T12:28:08.526Z</time>
      </trkpt>
      <trkpt lat="48.94981" lon="7.54384">
        <ele>200.44395844172</ele>
        <time>2021-03-30T12:28:11.867Z</time>
      </trkpt>
      <trkpt lat="48.94982" lon="7.54379">
        <ele>200.36581976886</ele>
        <time>2021-03-30T12:28:15.209Z</time>
      </trkpt>
      <trkpt lat="48.94982" lon="7.54374">
        <ele>200.31267210248</ele>
        <time>2021-03-30T12:28:18.552Z</time>
      </trkpt>
      <trkpt lat="48.94982" lon="7.5437">
        <ele>200.29034194555</ele>
        <time>2021-03-30T12:28:21.896Z</time>
      </trkpt>
      <trkpt lat="48.94982" lon="7.54367">
        <ele>200.29655261449</ele>
        <time>2021-03-30T12:28:25.240Z</time>
      </trkpt>
      <trkpt lat="48.94982" lon="7.54366">
        <ele>200.33478381717</ele>
        <time>2021-03-30T12:28:28.585Z</time>
      </trkpt>
      <trkpt lat="48.94981" lon="7.54362">
        <ele>200.40427622207</ele>
        <time>2021-03-30T12:28:31.931Z</time>
      </trkpt>
      <trkpt lat="48.94979" lon="7.54358">
        <ele>200.50959154929</ele>
        <time>2021-03-30T12:28:35.278Z</time>
      </trkpt>
      <trkpt lat="48.94976" lon="7.54351">
        <ele>200.65096671221</ele>
        <time>2021-03-30T12:28:38.627Z</time>
      </trkpt>
      <trkpt lat="48.94975" lon="7.54347">
        <ele>200.83451557871</ele>
        <time>2021-03-30T12:28:41.976Z</time>
      </trkpt>
      <trkpt lat="48.94975" lon="7.54343">
        <ele>201.05980994864</ele>
        <time>2021-03-30T12:28:45.326Z</time>
      </trkpt>
      <trkpt lat="48.94973" lon="7.54325">
        <ele>201.3617951915</ele>
        <time>2021-03-30T12:28:48.680Z</time>
      </trkpt>
      <trkpt lat="48.94973" lon="7.54318">
        <ele>201.70446266427</ele>
        <time>2021-03-30T12:28:52.036Z</time>
      </trkpt>
      <trkpt lat="48.94973" lon="7.54314">
        <ele>202.07764590695</ele>
        <time>2021-03-30T12:28:55.393Z</time>
      </trkpt>
      <trkpt lat="48.94973" lon="7.54312">
        <ele>202.48490873506</ele>
        <time>2021-03-30T12:28:58.750Z</time>
      </trkpt>
      <trkpt lat="48.94974" lon="7.54307">
        <ele>202.94586102198</ele>
        <time>2021-03-30T12:29:02.108Z</time>
      </trkpt>
      <trkpt lat="48.94975" lon="7.54303">
        <ele>203.44260221669</ele>
        <time>2021-03-30T12:29:05.467Z</time>
      </trkpt>
      <trkpt lat="48.94976" lon="7.54299">
        <ele>203.97725833219</ele>
        <time>2021-03-30T12:29:08.827Z</time>
      </trkpt>
      <trkpt lat="48.94977" lon="7.54294">
        <ele>204.55143117857</ele>
        <time>2021-03-30T12:29:12.188Z</time>
      </trkpt>
      <trkpt lat="48.94978" lon="7.54288">
        <ele>205.16201880225</ele>
        <time>2021-03-30T12:29:15.551Z</time>
      </trkpt>
      <trkpt lat="48.94978" lon="7.54283">
        <ele>205.76721089669</ele>
        <time>2021-03-30T12:29:18.915Z</time>
      </trkpt>
      <trkpt lat="48.94978" lon="7.54277">
        <ele>206.3943611423</ele>
        <time>2021-03-30T12:29:22.280Z</time>
      </trkpt>
      <trkpt lat="48.94967" lon="7.54234">
        <ele>207.20483672355</ele>
        <time>2021-03-30T12:29:25.655Z</time>
      </trkpt>
      <trkpt lat="48.94965" lon="7.54226">
        <ele>207.95512183464</ele>
        <time>2021-03-30T12:29:29.032Z</time>
      </trkpt>
      <trkpt lat="48.94964" lon="7.54219">
        <ele>208.69692237041</ele>
        <time>2021-03-30T12:29:32.411Z</time>
      </trkpt>
      <trkpt lat="48.94963" lon="7.54215">
        <ele>209.41324969105</ele>
        <time>2021-03-30T12:29:35.791Z</time>
      </trkpt>
      <trkpt lat="48.94963" lon="7.5421">
        <ele>210.12441130592</ele>
        <time>2021-03-30T12:29:39.172Z</time>
      </trkpt>
      <trkpt lat="48.94963" lon="7.54206">
        <ele>210.81401367208</ele>
        <time>2021-03-30T12:29:42.554Z</time>
      </trkpt>
      <trkpt lat="48.94964" lon="7.54201">
        <ele>211.48649878825</ele>
        <time>2021-03-30T12:29:45.937Z</time>
      </trkpt>
      <trkpt lat="48.94968" lon="7.54179">
        <ele>212.21268869276</ele>
        <time>2021-03-30T12:29:49.325Z</time>
      </trkpt>
      <trkpt lat="48.94974" lon="7.54162">
        <ele>212.83426400927</ele>
        <time>2021-03-30T12:29:52.717Z</time>
      </trkpt>
      <trkpt lat="48.94975" lon="7.54158">
        <ele>213.39372481844</ele>
        <time>2021-03-30T12:29:56.110Z</time>
      </trkpt>
      <trkpt lat="48.94977" lon="7.54153">
        <ele>213.91093879469</ele>
        <time>2021-03-30T12:29:59.504Z</time>
      </trkpt>
      <trkpt lat="48.9498" lon="7.54148">
        <ele>214.37793552567</ele>
        <time>2021-03-30T12:30:02.900Z</time>
      </trkpt>
      <trkpt lat="48.94985" lon="7.54142">
        <ele>214.78963360124</ele>
        <time>2021-03-30T12:30:06.298Z</time>
      </trkpt>
      <trkpt lat="48.94987" lon="7.54138">
        <ele>215.17314081709</ele>
        <time>2021-03-30T12:30:09.697Z</time>
      </trkpt>
      <trkpt lat="48.94989" lon="7.54134">
        <ele>215.51216697753</ele>
        <time>2021-03-30T12:30:13.097Z</time>
      </trkpt>
      <trkpt lat="48.94993" lon="7.54131">
        <ele>215.80806021126</ele>
        <time>2021-03-30T12:30:16.499Z</time>
      </trkpt>
      <trkpt lat="48.94997" lon="7.54127">
        <ele>216.07842517831</ele>
        <time>2021-03-30T12:30:19.902Z</time>
      </trkpt>
      <trkpt lat="48.95002" lon="7.54124">
        <ele>216.29020246841</ele>
        <time>2021-03-30T12:30:23.307Z</time>
      </trkpt>
      <trkpt lat="48.95007" lon="7.54122">
        <ele>216.44826576788</ele>
        <time>2021-03-30T12:30:26.714Z</time>
      </trkpt>
      <trkpt lat="48.95012" lon="7.5412">
        <ele>216.56410890319</ele>
        <time>2021-03-30T12:30:30.122Z</time>
      </trkpt>
      <trkpt lat="48.95016" lon="7.54118">
        <ele>216.64336716052</ele>
        <time>2021-03-30T12:30:33.532Z</time>
      </trkpt>
      <trkpt lat="48.95021" lon="7.54116">
        <ele>216.6795743665</ele>
        <time>2021-03-30T12:30:36.944Z</time>
      </trkpt>
      <trkpt lat="48.95026" lon="7.54114">
        <ele>216.67513766309</ele>
        <time>2021-03-30T12:30:40.357Z</time>
      </trkpt>
      <trkpt lat="48.95031" lon="7.54113">
        <ele>216.61916422282</ele>
        <time>2021-03-30T12:30:43.772Z</time>
      </trkpt>
      <trkpt lat="48.95037" lon="7.54111">
        <ele>216.53514096074</ele>
        <time>2021-03-30T12:30:47.189Z</time>
      </trkpt>
      <trkpt lat="48.95042" lon="7.54109">
        <ele>216.42768584719</ele>
        <time>2021-03-30T12:30:50.608Z</time>
      </trkpt>
      <trkpt lat="48.95048" lon="7.54108">
        <ele>216.27672239159</ele>
        <time>2021-03-30T12:30:54.029Z</time>
      </trkpt>
      <trkpt lat="48.95052" lon="7.54105">
        <ele>216.13860570961</ele>
        <time>2021-03-30T12:30:57.451Z</time>
      </trkpt>
      <trkpt lat="48.95057" lon="7.54103">
        <ele>215.96150552284</ele>
        <time>2021-03-30T12:31:00.875Z</time>
      </trkpt>
      <trkpt lat="48.95062" lon="7.541">
        <ele>215.77451337435</ele>
        <time>2021-03-30T12:31:04.301Z</time>
      </trkpt>
      <trkpt lat="48.95066" lon="7.54098">
        <ele>215.56286060724</ele>
        <time>2021-03-30T12:31:07.728Z</time>
      </trkpt>
      <trkpt lat="48.95071" lon="7.54096">
        <ele>215.3281315452</ele>
        <time>2021-03-30T12:31:11.157Z</time>
      </trkpt>
      <trkpt lat="48.95076" lon="7.54095">
        <ele>215.06644810963</ele>
        <time>2021-03-30T12:31:14.588Z</time>
      </trkpt>
      <trkpt lat="48.95081" lon="7.54094">
        <ele>214.79040186182</ele>
        <time>2021-03-30T12:31:18.020Z</time>
      </trkpt>
      <trkpt lat="48.95086" lon="7.54093">
        <ele>214.50157780506</ele>
        <time>2021-03-30T12:31:21.454Z</time>
      </trkpt>
      <trkpt lat="48.9509" lon="7.54093">
        <ele>214.19598570274</ele>
        <time>2021-03-30T12:31:24.889Z</time>
      </trkpt>
      <trkpt lat="48.95095" lon="7.54092">
        <ele>213.88596266376</ele>
        <time>2021-03-30T12:31:28.326Z</time>
      </trkpt>
      <trkpt lat="48.95101" lon="7.54091">
        <ele>213.56176159419</ele>
        <time>2021-03-30T12:31:31.765Z</time>
      </trkpt>
      <trkpt lat="48.95105" lon="7.5409">
        <ele>213.24082881273</ele>
        <time>2021-03-30T12:31:35.205Z</time>
      </trkpt>
      <trkpt lat="48.9511" lon="7.54089">
        <ele>212.92588484796</ele>
        <time>2021-03-30T12:31:38.647Z</time>
      </trkpt>
      <trkpt lat="48.95112" lon="7.54089">
        <ele>212.60642133808</ele>
        <time>2021-03-30T12:31:42.090Z</time>
      </trkpt>
      <trkpt lat="48.95115" lon="7.54088">
        <ele>212.26978007222</ele>
        <time>2021-03-30T12:31:45.534Z</time>
      </trkpt>
      <trkpt lat="48.95119" lon="7.54086">
        <ele>211.92286596114</ele>
        <time>2021-03-30T12:31:48.979Z</time>
      </trkpt>
      <trkpt lat="48.95143" lon="7.54072">
        <ele>211.581408758</ele>
        <time>2021-03-30T12:31:52.433Z</time>
      </trkpt>
      <trkpt lat="48.95168" lon="7.54054">
        <ele>211.29425669898</ele>
        <time>2021-03-30T12:31:55.896Z</time>
      </trkpt>
      <trkpt lat="48.95181" lon="7.54044">
        <ele>211.03111517519</ele>
        <time>2021-03-30T12:31:59.364Z</time>
      </trkpt>
      <trkpt lat="48.95195" lon="7.54038">
        <ele>210.69396232131</ele>
        <time>2021-03-30T12:32:02.837Z</time>
      </trkpt>
      <trkpt lat="48.95205" lon="7.54034">
        <ele>210.3092125138</ele>
        <time>2021-03-30T12:32:06.313Z</time>
      </trkpt>
      <trkpt lat="48.95208" lon="7.54031">
        <ele>209.9594175882</ele>
        <time>2021-03-30T12:32:09.790Z</time>
      </trkpt>
      <trkpt lat="48.95221" lon="7.54021">
        <ele>209.53829467488</ele>
        <time>2021-03-30T12:32:13.272Z</time>
      </trkpt>
      <trkpt lat="48.95236" lon="7.54005">
        <ele>208.99336262585</ele>
        <time>2021-03-30T12:32:16.760Z</time>
      </trkpt>
      <trkpt lat="48.9526" lon="7.53975">
        <ele>208.40725690112</ele>
        <time>2021-03-30T12:32:20.259Z</time>
      </trkpt>
      <trkpt lat="48.95277" lon="7.53948">
        <ele>207.97321624412</ele>
        <time>2021-03-30T12:32:23.766Z</time>
      </trkpt>
      <trkpt lat="48.95286" lon="7.53931">
        <ele>207.76078046338</ele>
        <time>2021-03-30T12:32:27.278Z</time>
      </trkpt>
      <trkpt lat="48.95285" lon="7.5393">
        <ele>207.52597654672</ele>
        <time>2021-03-30T12:32:30.790Z</time>
      </trkpt>
      <trkpt lat="48.95282" lon="7.53927">
        <ele>207.33950412498</ele>
        <time>2021-03-30T12:32:34.303Z</time>
      </trkpt>
      <trkpt lat="48.95279" lon="7.53923">
        <ele>207.19714333862</ele>
        <time>2021-03-30T12:32:37.818Z</time>
      </trkpt>
      <trkpt lat="48.95276" lon="7.53918">
        <ele>207.10279092791</ele>
        <time>2021-03-30T12:32:41.334Z</time>
      </trkpt>
      <trkpt lat="48.95274" lon="7.53913">
        <ele>207.02737287704</ele>
        <time>2021-03-30T12:32:44.851Z</time>
      </trkpt>
      <trkpt lat="48.95272" lon="7.5391">
        <ele>207.00807282458</ele>
        <time>2021-03-30T12:32:48.369Z</time>
      </trkpt>
      <trkpt lat="48.9527" lon="7.53904">
        <ele>207.02662020145</ele>
        <time>2021-03-30T12:32:51.889Z</time>
      </trkpt>
      <trkpt lat="48.95268" lon="7.53898">
        <ele>207.07811951865</ele>
        <time>2021-03-30T12:32:55.410Z</time>
      </trkpt>
      <trkpt lat="48.95267" lon="7.53894">
        <ele>207.14701482369</ele>
        <time>2021-03-30T12:32:58.932Z</time>
      </trkpt>
      <trkpt lat="48.95266" lon="7.53892">
        <ele>207.24083881495</ele>
        <time>2021-03-30T12:33:02.455Z</time>
      </trkpt>
      <trkpt lat="48.9526" lon="7.53888">
        <ele>207.41332451115</ele>
        <time>2021-03-30T12:33:05.980Z</time>
      </trkpt>
      <trkpt lat="48.95254" lon="7.53881">
        <ele>207.60605389991</ele>
        <time>2021-03-30T12:33:09.507Z</time>
      </trkpt>
      <trkpt lat="48.95249" lon="7.53873">
        <ele>207.80237737266</ele>
        <time>2021-03-30T12:33:13.037Z</time>
      </trkpt>
      <trkpt lat="48.95244" lon="7.53864">
        <ele>208.00945757657</ele>
        <time>2021-03-30T12:33:16.569Z</time>
      </trkpt>
      <trkpt lat="48.95244" lon="7.53863">
        <ele>208.16353420955</ele>
        <time>2021-03-30T12:33:20.102Z</time>
      </trkpt>
      <trkpt lat="48.95242" lon="7.53856">
        <ele>208.34936711396</ele>
        <time>2021-03-30T12:33:23.636Z</time>
      </trkpt>
      <trkpt lat="48.95238" lon="7.53846">
        <ele>208.56426073913</ele>
        <time>2021-03-30T12:33:27.173Z</time>
      </trkpt>
      <trkpt lat="48.95235" lon="7.53835">
        <ele>208.7741277337</ele>
        <time>2021-03-30T12:33:30.713Z</time>
      </trkpt>
      <trkpt lat="48.95233" lon="7.5383">
        <ele>208.96738883824</ele>
        <time>2021-03-30T12:33:34.254Z</time>
      </trkpt>
      <trkpt lat="48.9523" lon="7.53817">
        <ele>209.16812619945</ele>
        <time>2021-03-30T12:33:37.798Z</time>
      </trkpt>
      <trkpt lat="48.95228" lon="7.53809">
        <ele>209.37858614429</ele>
        <time>2021-03-30T12:33:41.344Z</time>
      </trkpt>
      <trkpt lat="48.95227" lon="7.53803">
        <ele>209.60023290861</ele>
        <time>2021-03-30T12:33:44.891Z</time>
      </trkpt>
      <trkpt lat="48.95226" lon="7.53798">
        <ele>209.84945229753</ele>
        <time>2021-03-30T12:33:48.439Z</time>
      </trkpt>
      <trkpt lat="48.95225" lon="7.53791">
        <ele>210.12998655098</ele>
        <time>2021-03-30T12:33:51.989Z</time>
      </trkpt>
      <trkpt lat="48.95223" lon="7.53776">
        <ele>210.46253993128</ele>
        <time>2021-03-30T12:33:55.542Z</time>
      </trkpt>
      <trkpt lat="48.95221" lon="7.5377">
        <ele>210.85579204002</ele>
        <time>2021-03-30T12:33:59.097Z</time>
      </trkpt>
      <trkpt lat="48.9522" lon="7.53764">
        <ele>211.30144869878</ele>
        <time>2021-03-30T12:34:02.653Z</time>
      </trkpt>
      <trkpt lat="48.95219" lon="7.53757">
        <ele>211.81942770251</ele>
        <time>2021-03-30T12:34:06.211Z</time>
      </trkpt>
      <trkpt lat="48.95217" lon="7.53751">
        <ele>212.42987643586</ele>
        <time>2021-03-30T12:34:09.770Z</time>
      </trkpt>
      <trkpt lat="48.95215" lon="7.53745">
        <ele>213.15681188644</ele>
        <time>2021-03-30T12:34:13.331Z</time>
      </trkpt>
      <trkpt lat="48.95212" lon="7.53732">
        <ele>214.02676683146</ele>
        <time>2021-03-30T12:34:16.895Z</time>
      </trkpt>
      <trkpt lat="48.9521" lon="7.53726">
        <ele>214.97094395571</ele>
        <time>2021-03-30T12:34:20.460Z</time>
      </trkpt>
      <trkpt lat="48.95208" lon="7.53721">
        <ele>216.03283785682</ele>
        <time>2021-03-30T12:34:24.026Z</time>
      </trkpt>
      <trkpt lat="48.95206" lon="7.53716">
        <ele>217.22553319841</ele>
        <time>2021-03-30T12:34:27.594Z</time>
      </trkpt>
      <trkpt lat="48.95206" lon="7.53715">
        <ele>218.52190481021</ele>
        <time>2021-03-30T12:34:31.162Z</time>
      </trkpt>
      <trkpt lat="48.95205" lon="7.53713">
        <ele>219.97909077794</ele>
        <time>2021-03-30T12:34:34.730Z</time>
      </trkpt>
      <trkpt lat="48.95189" lon="7.53703">
        <ele>221.74958491837</ele>
        <time>2021-03-30T12:34:38.304Z</time>
      </trkpt>
      <trkpt lat="48.95097" lon="7.53675">
        <ele>223.70036356552</ele>
        <time>2021-03-30T12:34:41.909Z</time>
      </trkpt>
      <trkpt lat="48.95095" lon="7.53675">
        <ele>225.6070924222</ele>
        <time>2021-03-30T12:34:45.515Z</time>
      </trkpt>
      <trkpt lat="48.95087" lon="7.53641">
        <ele>227.69990458648</ele>
        <time>2021-03-30T12:34:49.129Z</time>
      </trkpt>
      <trkpt lat="48.95087" lon="7.5364">
        <ele>229.93040378922</ele>
        <time>2021-03-30T12:34:52.743Z</time>
      </trkpt>
      <trkpt lat="48.95061" lon="7.53626">
        <ele>232.32025340337</ele>
        <time>2021-03-30T12:34:56.367Z</time>
      </trkpt>
      <trkpt lat="48.95019" lon="7.53588">
        <ele>234.89755854745</ele>
        <time>2021-03-30T12:35:00.007Z</time>
      </trkpt>
      <trkpt lat="48.9499" lon="7.53548">
        <ele>237.62973936684</ele>
        <time>2021-03-30T12:35:03.660Z</time>
      </trkpt>
      <trkpt lat="48.94971" lon="7.53521">
        <ele>240.52937303107</ele>
        <time>2021-03-30T12:35:07.322Z</time>
      </trkpt>
      <trkpt lat="48.94931" lon="7.53447">
        <ele>243.91769064074</ele>
        <time>2021-03-30T12:35:11.005Z</time>
      </trkpt>
      <trkpt lat="48.94881" lon="7.53326">
        <ele>247.69707069238</ele>
        <time>2021-03-30T12:35:14.719Z</time>
      </trkpt>
      <trkpt lat="48.94881" lon="7.53325">
        <ele>250.85991836286</ele>
        <time>2021-03-30T12:35:18.433Z</time>
      </trkpt>
      <trkpt lat="48.94843" lon="7.53194">
        <ele>255.06162241016</ele>
        <time>2021-03-30T12:35:22.179Z</time>
      </trkpt>
      <trkpt lat="48.94815" lon="7.53132">
        <ele>259.01304121852</ele>
        <time>2021-03-30T12:35:25.941Z</time>
      </trkpt>
      <trkpt lat="48.94799" lon="7.53106">
        <ele>262.56123255709</ele>
        <time>2021-03-30T12:35:29.711Z</time>
      </trkpt>
      <trkpt lat="48.94799" lon="7.53106">
        <ele>268.94458519492</ele>
        <time>2021-03-30T12:35:33.481Z</time>
      </trkpt>
      <trkpt lat="48.94788" lon="7.53097">
        <ele>272.20936744916</ele>
        <time>2021-03-30T12:35:37.255Z</time>
      </trkpt>
      <trkpt lat="48.94785" lon="7.53096">
        <ele>275.3406622623</ele>
        <time>2021-03-30T12:35:41.030Z</time>
      </trkpt>
      <trkpt lat="48.94777" lon="7.53093">
        <ele>278.48042940392</ele>
        <time>2021-03-30T12:35:44.808Z</time>
      </trkpt>
      <trkpt lat="48.94757" lon="7.53111">
        <ele>281.35402671348</ele>
        <time>2021-03-30T12:35:48.594Z</time>
      </trkpt>
      <trkpt lat="48.94732" lon="7.53125">
        <ele>284.26143984703</ele>
        <time>2021-03-30T12:35:52.389Z</time>
      </trkpt>
      <trkpt lat="48.94729" lon="7.53124">
        <ele>287.36250664429</ele>
        <time>2021-03-30T12:35:56.185Z</time>
      </trkpt>
      <trkpt lat="48.94713" lon="7.53117">
        <ele>290.54111258754</ele>
        <time>2021-03-30T12:35:59.986Z</time>
      </trkpt>
      <trkpt lat="48.94692" lon="7.53091">
        <ele>293.98425333458</ele>
        <time>2021-03-30T12:36:03.796Z</time>
      </trkpt>
      <trkpt lat="48.9469" lon="7.53089">
        <ele>297.20947681333</ele>
        <time>2021-03-30T12:36:07.607Z</time>
      </trkpt>
      <trkpt lat="48.94673" lon="7.53051">
        <ele>300.64267834477</ele>
        <time>2021-03-30T12:36:11.428Z</time>
      </trkpt>
      <trkpt lat="48.94652" lon="7.53004">
        <ele>304.16575264082</ele>
        <time>2021-03-30T12:36:15.262Z</time>
      </trkpt>
      <trkpt lat="48.9465" lon="7.52998">
        <ele>307.58440615777</ele>
        <time>2021-03-30T12:36:19.097Z</time>
      </trkpt>
      <trkpt lat="48.94645" lon="7.52971">
        <ele>311.25907815631</ele>
        <time>2021-03-30T12:36:22.938Z</time>
      </trkpt>
      <trkpt lat="48.94627" lon="7.52921">
        <ele>315.04277766147</ele>
        <time>2021-03-30T12:36:26.792Z</time>
      </trkpt>
      <trkpt lat="48.94617" lon="7.5287">
        <ele>319.03482052002</ele>
        <time>2021-03-30T12:36:30.657Z</time>
      </trkpt>
      <trkpt lat="48.94602" lon="7.52822">
        <ele>322.95648837011</ele>
        <time>2021-03-30T12:36:34.534Z</time>
      </trkpt>
      <trkpt lat="48.94593" lon="7.52794">
        <ele>326.70232693357</ele>
        <time>2021-03-30T12:36:38.418Z</time>
      </trkpt>
      <trkpt lat="48.94581" lon="7.52756">
        <ele>330.50413669761</ele>
        <time>2021-03-30T12:36:42.311Z</time>
      </trkpt>
      <trkpt lat="48.94556" lon="7.52711">
        <ele>334.32115751186</ele>
        <time>2021-03-30T12:36:46.217Z</time>
      </trkpt>
      <trkpt lat="48.94529" lon="7.52659">
        <ele>338.13302086262</ele>
        <time>2021-03-30T12:36:50.138Z</time>
      </trkpt>
      <trkpt lat="48.94515" lon="7.5263">
        <ele>341.77982294461</ele>
        <time>2021-03-30T12:36:54.067Z</time>
      </trkpt>
      <trkpt lat="48.94512" lon="7.52622">
        <ele>345.15823296391</ele>
        <time>2021-03-30T12:36:57.998Z</time>
      </trkpt>
      <trkpt lat="48.94501" lon="7.52588">
        <ele>348.72217030909</ele>
        <time>2021-03-30T12:37:01.937Z</time>
      </trkpt>
      <trkpt lat="48.94493" lon="7.52549">
        <ele>351.92554410637</ele>
        <time>2021-03-30T12:37:05.885Z</time>
      </trkpt>
      <trkpt lat="48.94485" lon="7.5253">
        <ele>354.96438475307</ele>
        <time>2021-03-30T12:37:09.838Z</time>
      </trkpt>
      <trkpt lat="48.94484" lon="7.52528">
        <ele>357.84406987364</ele>
        <time>2021-03-30T12:37:13.791Z</time>
      </trkpt>
      <trkpt lat="48.94454" lon="7.52512">
        <ele>360.6487317947</ele>
        <time>2021-03-30T12:37:17.755Z</time>
      </trkpt>
      <trkpt lat="48.94443" lon="7.52376">
        <ele>363.32652558351</ele>
        <time>2021-03-30T12:37:21.749Z</time>
      </trkpt>
      <trkpt lat="48.94439" lon="7.52363">
        <ele>365.88402416335</ele>
        <time>2021-03-30T12:37:25.746Z</time>
      </trkpt>
      <trkpt lat="48.94433" lon="7.52356">
        <ele>368.37786238426</ele>
        <time>2021-03-30T12:37:29.746Z</time>
      </trkpt>
      <trkpt lat="48.94395" lon="7.52336">
        <ele>371.13162764655</ele>
        <time>2021-03-30T12:37:33.759Z</time>
      </trkpt>
      <trkpt lat="48.94366" lon="7.52322">
        <ele>373.55897326306</ele>
        <time>2021-03-30T12:37:37.782Z</time>
      </trkpt>
      <trkpt lat="48.94322" lon="7.52311">
        <ele>375.74822045964</ele>
        <time>2021-03-30T12:37:41.820Z</time>
      </trkpt>
      <trkpt lat="48.94302" lon="7.5231">
        <ele>377.75035827801</ele>
        <time>2021-03-30T12:37:45.865Z</time>
      </trkpt>
      <trkpt lat="48.94293" lon="7.52309">
        <ele>379.60542216669</ele>
        <time>2021-03-30T12:37:49.913Z</time>
      </trkpt>
      <trkpt lat="48.94257" lon="7.52314">
        <ele>381.44628690753</ele>
        <time>2021-03-30T12:37:53.973Z</time>
      </trkpt>
      <trkpt lat="48.94224" lon="7.52321">
        <ele>383.21271839278</ele>
        <time>2021-03-30T12:37:58.044Z</time>
      </trkpt>
      <trkpt lat="48.94198" lon="7.52321">
        <ele>384.78666277216</ele>
        <time>2021-03-30T12:38:02.124Z</time>
      </trkpt>
      <trkpt lat="48.94163" lon="7.52315">
        <ele>386.30413760985</ele>
        <time>2021-03-30T12:38:06.216Z</time>
      </trkpt>
      <trkpt lat="48.94158" lon="7.52313">
        <ele>387.60166822335</ele>
        <time>2021-03-30T12:38:10.309Z</time>
      </trkpt>
      <trkpt lat="48.94143" lon="7.52305">
        <ele>388.79820275952</ele>
        <time>2021-03-30T12:38:14.408Z</time>
      </trkpt>
      <trkpt lat="48.94116" lon="7.52284">
        <ele>389.86283419113</ele>
        <time>2021-03-30T12:38:18.517Z</time>
      </trkpt>
      <trkpt lat="48.94087" lon="7.52254">
        <ele>390.87508428803</ele>
        <time>2021-03-30T12:38:22.637Z</time>
      </trkpt>
      <trkpt lat="48.94085" lon="7.52251">
        <ele>391.80256982983</ele>
        <time>2021-03-30T12:38:26.758Z</time>
      </trkpt>
      <trkpt lat="48.94059" lon="7.52217">
        <ele>392.91324107769</ele>
        <time>2021-03-30T12:38:30.891Z</time>
      </trkpt>
      <trkpt lat="48.9403" lon="7.52167">
        <ele>393.96890084164</ele>
        <time>2021-03-30T12:38:35.038Z</time>
      </trkpt>
      <trkpt lat="48.94003" lon="7.52108">
        <ele>394.82951971263</ele>
        <time>2021-03-30T12:38:39.201Z</time>
      </trkpt>
      <trkpt lat="48.94" lon="7.52098">
        <ele>395.44087655466</ele>
        <time>2021-03-30T12:38:43.367Z</time>
      </trkpt>
      <trkpt lat="48.93997" lon="7.5209">
        <ele>395.96970760189</ele>
        <time>2021-03-30T12:38:47.535Z</time>
      </trkpt>
      <trkpt lat="48.93996" lon="7.52061">
        <ele>396.31729525588</ele>
        <time>2021-03-30T12:38:51.709Z</time>
      </trkpt>
      <trkpt lat="48.93995" lon="7.51971">
        <ele>396.40364830983</ele>
        <time>2021-03-30T12:38:55.903Z</time>
      </trkpt>
      <trkpt lat="48.93995" lon="7.51876">
        <ele>396.24197230182</ele>
        <time>2021-03-30T12:39:00.118Z</time>
      </trkpt>
      <trkpt lat="48.94004" lon="7.5185">
        <ele>396.51944659881</ele>
        <time>2021-03-30T12:39:04.339Z</time>
      </trkpt>
      <trkpt lat="48.94028" lon="7.5179">
        <ele>396.7758476643</ele>
        <time>2021-03-30T12:39:08.576Z</time>
      </trkpt>
      <trkpt lat="48.94037" lon="7.51769">
        <ele>396.80955995014</ele>
        <time>2021-03-30T12:39:12.818Z</time>
      </trkpt>
      <trkpt lat="48.94054" lon="7.51721">
        <ele>396.99107738686</ele>
        <time>2021-03-30T12:39:17.072Z</time>
      </trkpt>
      <trkpt lat="48.94112" lon="7.51625">
        <ele>397.6427947224</ele>
        <time>2021-03-30T12:39:21.355Z</time>
      </trkpt>
      <trkpt lat="48.94191" lon="7.51489">
        <ele>397.95002323068</ele>
        <time>2021-03-30T12:39:25.678Z</time>
      </trkpt>
      <trkpt lat="48.9422" lon="7.51445">
        <ele>397.40538374395</ele>
        <time>2021-03-30T12:39:30.014Z</time>
      </trkpt>
      <trkpt lat="48.94239" lon="7.51426">
        <ele>397.29533880492</ele>
        <time>2021-03-30T12:39:34.358Z</time>
      </trkpt>
      <trkpt lat="48.94273" lon="7.51407">
        <ele>396.9477563953</ele>
        <time>2021-03-30T12:39:38.714Z</time>
      </trkpt>
      <trkpt lat="48.9429" lon="7.51395">
        <ele>396.25078740581</ele>
        <time>2021-03-30T12:39:43.076Z</time>
      </trkpt>
      <trkpt lat="48.94303" lon="7.51376">
        <ele>395.49523747707</ele>
        <time>2021-03-30T12:39:47.444Z</time>
      </trkpt>
      <trkpt lat="48.94323" lon="7.51339">
        <ele>394.68322034352</ele>
        <time>2021-03-30T12:39:51.823Z</time>
      </trkpt>
      <trkpt lat="48.94335" lon="7.51309">
        <ele>393.59270984537</ele>
        <time>2021-03-30T12:39:56.209Z</time>
      </trkpt>
      <trkpt lat="48.94344" lon="7.51287">
        <ele>392.48687640934</ele>
        <time>2021-03-30T12:40:00.601Z</time>
      </trkpt>
      <trkpt lat="48.94345" lon="7.51285">
        <ele>391.28717074419</ele>
        <time>2021-03-30T12:40:04.994Z</time>
      </trkpt>
      <trkpt lat="48.94351" lon="7.51246">
        <ele>389.92470714455</ele>
        <time>2021-03-30T12:40:09.396Z</time>
      </trkpt>
      <trkpt lat="48.94352" lon="7.51222">
        <ele>388.49881573704</ele>
        <time>2021-03-30T12:40:13.803Z</time>
      </trkpt>
      <trkpt lat="48.94348" lon="7.51199">
        <ele>386.96454458632</ele>
        <time>2021-03-30T12:40:18.215Z</time>
      </trkpt>
      <trkpt lat="48.9434" lon="7.51171">
        <ele>385.32146571168</ele>
        <time>2021-03-30T12:40:22.634Z</time>
      </trkpt>
      <trkpt lat="48.94332" lon="7.51144">
        <ele>383.38437460259</ele>
        <time>2021-03-30T12:40:27.059Z</time>
      </trkpt>
      <trkpt lat="48.94324" lon="7.51143">
        <ele>381.45144522156</ele>
        <time>2021-03-30T12:40:31.487Z</time>
      </trkpt>
      <trkpt lat="48.9431" lon="7.51135">
        <ele>379.39131809488</ele>
        <time>2021-03-30T12:40:35.920Z</time>
      </trkpt>
      <trkpt lat="48.9429" lon="7.51115">
        <ele>377.2006249479</ele>
        <time>2021-03-30T12:40:40.361Z</time>
      </trkpt>
      <trkpt lat="48.94225" lon="7.51051">
        <ele>374.02878217374</ele>
        <time>2021-03-30T12:40:44.828Z</time>
      </trkpt>
      <trkpt lat="48.9421" lon="7.51032">
        <ele>371.46281771818</ele>
        <time>2021-03-30T12:40:49.301Z</time>
      </trkpt>
      <trkpt lat="48.94203" lon="7.51012">
        <ele>368.99310813193</ele>
        <time>2021-03-30T12:40:53.779Z</time>
      </trkpt>
      <trkpt lat="48.942" lon="7.50981">
        <ele>366.64725338734</ele>
        <time>2021-03-30T12:40:58.264Z</time>
      </trkpt>
      <trkpt lat="48.942" lon="7.50949">
        <ele>364.38690951568</ele>
        <time>2021-03-30T12:41:02.756Z</time>
      </trkpt>
      <trkpt lat="48.94205" lon="7.50911">
        <ele>362.31144493035</ele>
        <time>2021-03-30T12:41:07.257Z</time>
      </trkpt>
      <trkpt lat="48.9421" lon="7.50881">
        <ele>360.4182114848</ele>
        <time>2021-03-30T12:41:11.765Z</time>
      </trkpt>
      <trkpt lat="48.94219" lon="7.50815">
        <ele>358.45689944241</ele>
        <time>2021-03-30T12:41:16.287Z</time>
      </trkpt>
      <trkpt lat="48.94217" lon="7.50805">
        <ele>356.61741868809</ele>
        <time>2021-03-30T12:41:20.812Z</time>
      </trkpt>
      <trkpt lat="48.94223" lon="7.50788">
        <ele>354.93478587568</ele>
        <time>2021-03-30T12:41:25.341Z</time>
      </trkpt>
      <trkpt lat="48.94238" lon="7.50753">
        <ele>353.35470041501</ele>
        <time>2021-03-30T12:41:29.879Z</time>
      </trkpt>
      <trkpt lat="48.94246" lon="7.50728">
        <ele>351.82805127565</ele>
        <time>2021-03-30T12:41:34.423Z</time>
      </trkpt>
      <trkpt lat="48.94249" lon="7.50705">
        <ele>350.40921901692</ele>
        <time>2021-03-30T12:41:38.972Z</time>
      </trkpt>
      <trkpt lat="48.94248" lon="7.50677">
        <ele>348.99978304953</ele>
        <time>2021-03-30T12:41:43.527Z</time>
      </trkpt>
      <trkpt lat="48.94234" lon="7.50638">
        <ele>347.74920906542</ele>
        <time>2021-03-30T12:41:48.092Z</time>
      </trkpt>
      <trkpt lat="48.94213" lon="7.50586">
        <ele>346.55332106024</ele>
        <time>2021-03-30T12:41:52.671Z</time>
      </trkpt>
      <trkpt lat="48.94207" lon="7.50578">
        <ele>345.49518111433</ele>
        <time>2021-03-30T12:41:57.252Z</time>
      </trkpt>
      <trkpt lat="48.94178" lon="7.50574">
        <ele>344.23260851946</ele>
        <time>2021-03-30T12:42:01.843Z</time>
      </trkpt>
      <trkpt lat="48.9417" lon="7.5057">
        <ele>343.23005530028</ele>
        <time>2021-03-30T12:42:06.437Z</time>
      </trkpt>
      <trkpt lat="48.94159" lon="7.5056">
        <ele>342.32849491912</ele>
        <time>2021-03-30T12:42:11.035Z</time>
      </trkpt>
      <trkpt lat="48.94142" lon="7.50541">
        <ele>341.49671231434</ele>
        <time>2021-03-30T12:42:15.640Z</time>
      </trkpt>
      <trkpt lat="48.94135" lon="7.50539">
        <ele>340.51295236723</ele>
        <time>2021-03-30T12:42:20.248Z</time>
      </trkpt>
      <trkpt lat="48.94124" lon="7.50539">
        <ele>339.44240472792</ele>
        <time>2021-03-30T12:42:24.859Z</time>
      </trkpt>
      <trkpt lat="48.94101" lon="7.50547">
        <ele>338.13000072012</ele>
        <time>2021-03-30T12:42:29.478Z</time>
      </trkpt>
      <trkpt lat="48.94087" lon="7.50548">
        <ele>336.97840707212</ele>
        <time>2021-03-30T12:42:34.102Z</time>
      </trkpt>
      <trkpt lat="48.94071" lon="7.50541">
        <ele>335.85539308346</ele>
        <time>2021-03-30T12:42:38.731Z</time>
      </trkpt>
      <trkpt lat="48.94046" lon="7.50523">
        <ele>334.75464276721</ele>
        <time>2021-03-30T12:42:43.369Z</time>
      </trkpt>
      <trkpt lat="48.94037" lon="7.50519">
        <ele>333.46948055895</ele>
        <time>2021-03-30T12:42:48.011Z</time>
      </trkpt>
      <trkpt lat="48.94018" lon="7.50521">
        <ele>331.9407928186</ele>
        <time>2021-03-30T12:42:52.659Z</time>
      </trkpt>
      <trkpt lat="48.94007" lon="7.5052">
        <ele>330.30148316128</ele>
        <time>2021-03-30T12:42:57.311Z</time>
      </trkpt>
      <trkpt lat="48.93991" lon="7.50516">
        <ele>328.52784985873</ele>
        <time>2021-03-30T12:43:01.968Z</time>
      </trkpt>
      <trkpt lat="48.93978" lon="7.50516">
        <ele>326.59456351094</ele>
        <time>2021-03-30T12:43:06.629Z</time>
      </trkpt>
      <trkpt lat="48.93957" lon="7.50518">
        <ele>324.42075725937</ele>
        <time>2021-03-30T12:43:11.297Z</time>
      </trkpt>
      <trkpt lat="48.93939" lon="7.50528">
        <ele>322.04648348711</ele>
        <time>2021-03-30T12:43:15.972Z</time>
      </trkpt>
      <trkpt lat="48.93924" lon="7.50531">
        <ele>319.64727019023</ele>
        <time>2021-03-30T12:43:20.652Z</time>
      </trkpt>
      <trkpt lat="48.93914" lon="7.5053">
        <ele>317.21924309307</ele>
        <time>2021-03-30T12:43:25.335Z</time>
      </trkpt>
      <trkpt lat="48.93904" lon="7.50526">
        <ele>314.68382784801</ele>
        <time>2021-03-30T12:43:30.022Z</time>
      </trkpt>
      <trkpt lat="48.93888" lon="7.50511">
        <ele>312.04329832101</ele>
        <time>2021-03-30T12:43:34.715Z</time>
      </trkpt>
      <trkpt lat="48.93873" lon="7.50496">
        <ele>309.25973853058</ele>
        <time>2021-03-30T12:43:39.414Z</time>
      </trkpt>
      <trkpt lat="48.93847" lon="7.5046">
        <ele>306.2125528745</ele>
        <time>2021-03-30T12:43:44.125Z</time>
      </trkpt>
      <trkpt lat="48.93847" lon="7.5046">
        <ele>299.89022365021</ele>
        <time>2021-03-30T12:43:48.836Z</time>
      </trkpt>
      <trkpt lat="48.93811" lon="7.50397">
        <ele>296.25184919856</ele>
        <time>2021-03-30T12:43:53.565Z</time>
      </trkpt>
      <trkpt lat="48.93796" lon="7.50366">
        <ele>292.58793043866</ele>
        <time>2021-03-30T12:43:58.303Z</time>
      </trkpt>
      <trkpt lat="48.93763" lon="7.50344">
        <ele>288.49510586772</ele>
        <time>2021-03-30T12:44:03.052Z</time>
      </trkpt>
      <trkpt lat="48.9375" lon="7.50336">
        <ele>284.56423943148</ele>
        <time>2021-03-30T12:44:07.806Z</time>
      </trkpt>
      <trkpt lat="48.93729" lon="7.50324">
        <ele>280.45879869422</ele>
        <time>2021-03-30T12:44:12.568Z</time>
      </trkpt>
      <trkpt lat="48.93699" lon="7.50301">
        <ele>276.23066703785</ele>
        <time>2021-03-30T12:44:17.341Z</time>
      </trkpt>
      <trkpt lat="48.93654" lon="7.50273">
        <ele>271.68447127831</ele>
        <time>2021-03-30T12:44:22.130Z</time>
      </trkpt>
      <trkpt lat="48.9361" lon="7.5025">
        <ele>267.06395019722</ele>
        <time>2021-03-30T12:44:26.935Z</time>
      </trkpt>
      <trkpt lat="48.93607" lon="7.50248">
        <ele>262.90986296487</ele>
        <time>2021-03-30T12:44:31.741Z</time>
      </trkpt>
      <trkpt lat="48.93538" lon="7.50154">
        <ele>258.12417615654</ele>
        <time>2021-03-30T12:44:36.578Z</time>
      </trkpt>
      <trkpt lat="48.93532" lon="7.50147">
        <ele>254.00145220482</ele>
        <time>2021-03-30T12:44:41.417Z</time>
      </trkpt>
      <trkpt lat="48.93493" lon="7.50096">
        <ele>249.68617319134</ele>
        <time>2021-03-30T12:44:46.273Z</time>
      </trkpt>
      <trkpt lat="48.93492" lon="7.50094">
        <ele>245.79601520926</ele>
        <time>2021-03-30T12:44:51.130Z</time>
      </trkpt>
      <trkpt lat="48.93437" lon="7.49997">
        <ele>241.59573428868</ele>
        <time>2021-03-30T12:44:56.015Z</time>
      </trkpt>
      <trkpt lat="48.93436" lon="7.49997">
        <ele>237.95571786671</ele>
        <time>2021-03-30T12:45:00.900Z</time>
      </trkpt>
      <trkpt lat="48.93428" lon="7.49975">
        <ele>234.38625569947</ele>
        <time>2021-03-30T12:45:05.791Z</time>
      </trkpt>
      <trkpt lat="48.93419" lon="7.49974">
        <ele>230.95398393568</ele>
        <time>2021-03-30T12:45:10.685Z</time>
      </trkpt>
      <trkpt lat="48.93415" lon="7.4997">
        <ele>227.74829679011</ele>
        <time>2021-03-30T12:45:15.580Z</time>
      </trkpt>
      <trkpt lat="48.93408" lon="7.49963">
        <ele>224.68821715534</ele>
        <time>2021-03-30T12:45:20.478Z</time>
      </trkpt>
      <trkpt lat="48.93386" lon="7.49931">
        <ele>221.69190929958</ele>
        <time>2021-03-30T12:45:25.387Z</time>
      </trkpt>
      <trkpt lat="48.93359" lon="7.49894">
        <ele>218.78030695631</ele>
        <time>2021-03-30T12:45:30.308Z</time>
      </trkpt>
      <trkpt lat="48.93345" lon="7.49862">
        <ele>216.28409706818</ele>
        <time>2021-03-30T12:45:35.237Z</time>
      </trkpt>
      <trkpt lat="48.93337" lon="7.49844">
        <ele>214.08925414782</ele>
        <time>2021-03-30T12:45:40.171Z</time>
      </trkpt>
      <trkpt lat="48.93333" lon="7.4981">
        <ele>212.15961930169</ele>
        <time>2021-03-30T12:45:45.112Z</time>
      </trkpt>
      <trkpt lat="48.9332" lon="7.49744">
        <ele>210.45701890037</ele>
        <time>2021-03-30T12:45:50.069Z</time>
      </trkpt>
      <trkpt lat="48.93312" lon="7.49691">
        <ele>209.01169243086</ele>
        <time>2021-03-30T12:45:55.037Z</time>
      </trkpt>
      <trkpt lat="48.9331" lon="7.49659">
        <ele>207.82215273419</ele>
        <time>2021-03-30T12:46:00.012Z</time>
      </trkpt>
      <trkpt lat="48.9331" lon="7.49641">
        <ele>206.91886062362</ele>
        <time>2021-03-30T12:46:04.992Z</time>
      </trkpt>
      <trkpt lat="48.93312" lon="7.49618">
        <ele>206.26879304717</ele>
        <time>2021-03-30T12:46:09.977Z</time>
      </trkpt>
      <trkpt lat="48.93317" lon="7.49582">
        <ele>205.79700946886</ele>
        <time>2021-03-30T12:46:14.970Z</time>
      </trkpt>
      <trkpt lat="48.93324" lon="7.4955">
        <ele>205.75858242848</ele>
        <time>2021-03-30T12:46:19.970Z</time>
      </trkpt>
      <trkpt lat="48.93332" lon="7.4951">
        <ele>205.72707093099</ele>
        <time>2021-03-30T12:46:24.979Z</time>
      </trkpt>
      <trkpt lat="48.93333" lon="7.49502">
        <ele>206.12509958534</ele>
        <time>2021-03-30T12:46:29.990Z</time>
      </trkpt>
      <trkpt lat="48.93333" lon="7.49491">
        <ele>206.85994648664</ele>
        <time>2021-03-30T12:46:35.004Z</time>
      </trkpt>
      <trkpt lat="48.93326" lon="7.49468">
        <ele>207.93763367598</ele>
        <time>2021-03-30T12:46:40.023Z</time>
      </trkpt>
      <trkpt lat="48.93315" lon="7.49445">
        <ele>209.19024083134</ele>
        <time>2021-03-30T12:46:45.048Z</time>
      </trkpt>
      <trkpt lat="48.93309" lon="7.49431">
        <ele>210.64139250833</ele>
        <time>2021-03-30T12:46:50.077Z</time>
      </trkpt>
      <trkpt lat="48.93289" lon="7.49453">
        <ele>212.35656585178</ele>
        <time>2021-03-30T12:46:55.114Z</time>
      </trkpt>
      <trkpt lat="48.93288" lon="7.49454">
        <ele>214.16624786899</ele>
        <time>2021-03-30T12:47:00.151Z</time>
      </trkpt>
      <trkpt lat="48.93291" lon="7.49406">
        <ele>216.27748061407</ele>
        <time>2021-03-30T12:47:05.199Z</time>
      </trkpt>
      <trkpt lat="48.93291" lon="7.49387">
        <ele>218.52995057277</ele>
        <time>2021-03-30T12:47:10.251Z</time>
      </trkpt>
      <trkpt lat="48.9329" lon="7.49363">
        <ele>220.96154319482</ele>
        <time>2021-03-30T12:47:15.308Z</time>
      </trkpt>
      <trkpt lat="48.9329" lon="7.49358">
        <ele>223.4131925216</ele>
        <time>2021-03-30T12:47:20.367Z</time>
      </trkpt>
      <trkpt lat="48.93286" lon="7.49341">
        <ele>226.06290331372</ele>
        <time>2021-03-30T12:47:25.430Z</time>
      </trkpt>
      <trkpt lat="48.93275" lon="7.49293">
        <ele>228.8601339725</ele>
        <time>2021-03-30T12:47:30.504Z</time>
      </trkpt>
      <trkpt lat="48.93273" lon="7.49289">
        <ele>231.54400787007</ele>
        <time>2021-03-30T12:47:35.579Z</time>
      </trkpt>
      <trkpt lat="48.93251" lon="7.49241">
        <ele>234.47315251289</ele>
        <time>2021-03-30T12:47:40.667Z</time>
      </trkpt>
      <trkpt lat="48.93152" lon="7.49068">
        <ele>237.79694681762</ele>
        <time>2021-03-30T12:47:45.805Z</time>
      </trkpt>
      <trkpt lat="48.93135" lon="7.49038">
        <ele>240.48362108859</ele>
        <time>2021-03-30T12:47:50.952Z</time>
      </trkpt>
      <trkpt lat="48.93123" lon="7.49013">
        <ele>243.05827215878</ele>
        <time>2021-03-30T12:47:56.106Z</time>
      </trkpt>
      <trkpt lat="48.93116" lon="7.48996">
        <ele>245.5172940119</ele>
        <time>2021-03-30T12:48:01.264Z</time>
      </trkpt>
      <trkpt lat="48.93102" lon="7.48958">
        <ele>247.97712862694</ele>
        <time>2021-03-30T12:48:06.432Z</time>
      </trkpt>
      <trkpt lat="48.93076" lon="7.489">
        <ele>250.4076142994</ele>
        <time>2021-03-30T12:48:11.615Z</time>
      </trkpt>
      <trkpt lat="48.93066" lon="7.48876">
        <ele>252.46559734701</ele>
        <time>2021-03-30T12:48:16.804Z</time>
      </trkpt>
      <trkpt lat="48.93065" lon="7.48875">
        <ele>254.32792785057</ele>
        <time>2021-03-30T12:48:21.994Z</time>
      </trkpt>
      <trkpt lat="48.93051" lon="7.48851">
        <ele>256.12275065545</ele>
        <time>2021-03-30T12:48:27.191Z</time>
      </trkpt>
      <trkpt lat="48.93038" lon="7.4883">
        <ele>257.73594045882</ele>
        <time>2021-03-30T12:48:32.394Z</time>
      </trkpt>
      <trkpt lat="48.93037" lon="7.48829">
        <ele>259.09594900961</ele>
        <time>2021-03-30T12:48:37.597Z</time>
      </trkpt>
      <trkpt lat="48.93025" lon="7.488">
        <ele>260.28981448166</ele>
        <time>2021-03-30T12:48:42.808Z</time>
      </trkpt>
      <trkpt lat="48.93002" lon="7.48747">
        <ele>261.28540148031</ele>
        <time>2021-03-30T12:48:48.033Z</time>
      </trkpt>
      <trkpt lat="48.92989" lon="7.48709">
        <ele>262.15871885967</ele>
        <time>2021-03-30T12:48:53.267Z</time>
      </trkpt>
      <trkpt lat="48.92975" lon="7.48667">
        <ele>262.93941858167</ele>
        <time>2021-03-30T12:48:58.512Z</time>
      </trkpt>
      <trkpt lat="48.92975" lon="7.48666">
        <ele>263.58218215595</ele>
        <time>2021-03-30T12:49:03.757Z</time>
      </trkpt>
      <trkpt lat="48.92964" lon="7.48645">
        <ele>264.10497425739</ele>
        <time>2021-03-30T12:49:09.008Z</time>
      </trkpt>
      <trkpt lat="48.92953" lon="7.48632">
        <ele>264.56195791229</ele>
        <time>2021-03-30T12:49:14.263Z</time>
      </trkpt>
      <trkpt lat="48.92941" lon="7.48625">
        <ele>264.95816074029</ele>
        <time>2021-03-30T12:49:19.523Z</time>
      </trkpt>
      <trkpt lat="48.92936" lon="7.48625">
        <ele>265.21793293987</ele>
        <time>2021-03-30T12:49:24.784Z</time>
      </trkpt>
      <trkpt lat="48.92925" lon="7.48624">
        <ele>265.4048252785</ele>
        <time>2021-03-30T12:49:30.049Z</time>
      </trkpt>
      <trkpt lat="48.92908" lon="7.48628">
        <ele>265.56075730499</ele>
        <time>2021-03-30T12:49:35.320Z</time>
      </trkpt>
      <trkpt lat="48.92872" lon="7.4864">
        <ele>265.76362687298</ele>
        <time>2021-03-30T12:49:40.603Z</time>
      </trkpt>
      <trkpt lat="48.92856" lon="7.48655">
        <ele>265.91266053673</ele>
        <time>2021-03-30T12:49:45.892Z</time>
      </trkpt>
      <trkpt lat="48.92845" lon="7.48649">
        <ele>265.89914422468</ele>
        <time>2021-03-30T12:49:51.185Z</time>
      </trkpt>
      <trkpt lat="48.92795" lon="7.48628">
        <ele>265.83791448879</ele>
        <time>2021-03-30T12:49:56.496Z</time>
      </trkpt>
      <trkpt lat="48.92746" lon="7.48609">
        <ele>265.91836306711</ele>
        <time>2021-03-30T12:50:01.823Z</time>
      </trkpt>
      <trkpt lat="48.92743" lon="7.48608">
        <ele>265.96117816259</ele>
        <time>2021-03-30T12:50:07.151Z</time>
      </trkpt>
      <trkpt lat="48.92703" lon="7.48599">
        <ele>266.17266434959</ele>
        <time>2021-03-30T12:50:12.493Z</time>
      </trkpt>
      <trkpt lat="48.92687" lon="7.48596">
        <ele>266.2896589368</ele>
        <time>2021-03-30T12:50:17.840Z</time>
      </trkpt>
      <trkpt lat="48.92686" lon="7.48596">
        <ele>266.41467525822</ele>
        <time>2021-03-30T12:50:23.188Z</time>
      </trkpt>
      <trkpt lat="48.9268" lon="7.48596">
        <ele>266.61879391432</ele>
        <time>2021-03-30T12:50:28.538Z</time>
      </trkpt>
      <trkpt lat="48.92672" lon="7.48596">
        <ele>266.90855451186</ele>
        <time>2021-03-30T12:50:33.890Z</time>
      </trkpt>
      <trkpt lat="48.92664" lon="7.48593">
        <ele>267.30144416577</ele>
        <time>2021-03-30T12:50:39.245Z</time>
      </trkpt>
      <trkpt lat="48.9265" lon="7.48593">
        <ele>267.82751846181</ele>
        <time>2021-03-30T12:50:44.605Z</time>
      </trkpt>
      <trkpt lat="48.92618" lon="7.48603">
        <ele>268.52741165944</ele>
        <time>2021-03-30T12:50:49.975Z</time>
      </trkpt>
      <trkpt lat="48.92581" lon="7.48612">
        <ele>269.38906746297</ele>
        <time>2021-03-30T12:50:55.358Z</time>
      </trkpt>
      <trkpt lat="48.92552" lon="7.48629">
        <ele>270.46133529212</ele>
        <time>2021-03-30T12:51:00.751Z</time>
      </trkpt>
      <trkpt lat="48.92529" lon="7.48639">
        <ele>271.66405362464</ele>
        <time>2021-03-30T12:51:06.152Z</time>
      </trkpt>
      <trkpt lat="48.92516" lon="7.4864">
        <ele>273.06730632303</ele>
        <time>2021-03-30T12:51:11.558Z</time>
      </trkpt>
      <trkpt lat="48.92509" lon="7.48638">
        <ele>274.54408773133</ele>
        <time>2021-03-30T12:51:16.966Z</time>
      </trkpt>
      <trkpt lat="48.92503" lon="7.48636">
        <ele>276.15271648594</ele>
        <time>2021-03-30T12:51:22.376Z</time>
      </trkpt>
      <trkpt lat="48.92502" lon="7.48637">
        <ele>277.83587217654</ele>
        <time>2021-03-30T12:51:27.787Z</time>
      </trkpt>
      <trkpt lat="48.92499" lon="7.48641">
        <ele>279.75453764933</ele>
        <time>2021-03-30T12:51:33.199Z</time>
      </trkpt>
      <trkpt lat="48.92492" lon="7.48646">
        <ele>281.92905303948</ele>
        <time>2021-03-30T12:51:38.614Z</time>
      </trkpt>
      <trkpt lat="48.92478" lon="7.48651">
        <ele>284.36100440534</ele>
        <time>2021-03-30T12:51:44.033Z</time>
      </trkpt>
      <trkpt lat="48.92465" lon="7.48658">
        <ele>286.84562496277</ele>
        <time>2021-03-30T12:51:49.457Z</time>
      </trkpt>
      <trkpt lat="48.92455" lon="7.48655">
        <ele>289.26882264287</ele>
        <time>2021-03-30T12:51:54.884Z</time>
      </trkpt>
      <trkpt lat="48.92454" lon="7.48653">
        <ele>291.6214958193</ele>
        <time>2021-03-30T12:52:00.312Z</time>
      </trkpt>
      <trkpt lat="48.9245" lon="7.48649">
        <ele>294.18581811939</ele>
        <time>2021-03-30T12:52:05.742Z</time>
      </trkpt>
      <trkpt lat="48.92442" lon="7.48622">
        <ele>296.84889043893</ele>
        <time>2021-03-30T12:52:11.178Z</time>
      </trkpt>
      <trkpt lat="48.92433" lon="7.48604">
        <ele>299.7883979681</ele>
        <time>2021-03-30T12:52:16.619Z</time>
      </trkpt>
      <trkpt lat="48.92422" lon="7.48587">
        <ele>302.90608071645</ele>
        <time>2021-03-30T12:52:22.065Z</time>
      </trkpt>
      <trkpt lat="48.92421" lon="7.48585">
        <ele>305.95284329376</ele>
        <time>2021-03-30T12:52:27.512Z</time>
      </trkpt>
      <trkpt lat="48.92408" lon="7.48558">
        <ele>309.3163644346</ele>
        <time>2021-03-30T12:52:32.966Z</time>
      </trkpt>
      <trkpt lat="48.92362" lon="7.48465">
        <ele>313.10562363677</ele>
        <time>2021-03-30T12:52:38.446Z</time>
      </trkpt>
      <trkpt lat="48.92333" lon="7.48399">
        <ele>316.09455016081</ele>
        <time>2021-03-30T12:52:43.943Z</time>
      </trkpt>
      <trkpt lat="48.92314" lon="7.48361">
        <ele>319.00222598428</ele>
        <time>2021-03-30T12:52:49.451Z</time>
      </trkpt>
      <trkpt lat="48.92294" lon="7.48348">
        <ele>321.77413806416</ele>
        <time>2021-03-30T12:52:54.966Z</time>
      </trkpt>
      <trkpt lat="48.92288" lon="7.48337">
        <ele>324.08810313461</ele>
        <time>2021-03-30T12:53:00.484Z</time>
      </trkpt>
      <trkpt lat="48.92283" lon="7.48319">
        <ele>326.20586788134</ele>
        <time>2021-03-30T12:53:06.006Z</time>
      </trkpt>
      <trkpt lat="48.92277" lon="7.48304">
        <ele>328.22078762502</ele>
        <time>2021-03-30T12:53:11.532Z</time>
      </trkpt>
      <trkpt lat="48.92263" lon="7.48285">
        <ele>330.11217935935</ele>
        <time>2021-03-30T12:53:17.065Z</time>
      </trkpt>
      <trkpt lat="48.92258" lon="7.48268">
        <ele>331.7411601988</ele>
        <time>2021-03-30T12:53:22.602Z</time>
      </trkpt>
      <trkpt lat="48.92253" lon="7.48227">
        <ele>333.22813934753</ele>
        <time>2021-03-30T12:53:28.148Z</time>
      </trkpt>
      <trkpt lat="48.92245" lon="7.48189">
        <ele>334.69321491835</ele>
        <time>2021-03-30T12:53:33.703Z</time>
      </trkpt>
      <trkpt lat="48.9224" lon="7.48175">
        <ele>336.0853677161</ele>
        <time>2021-03-30T12:53:39.261Z</time>
      </trkpt>
      <trkpt lat="48.92236" lon="7.48164">
        <ele>337.37722891818</ele>
        <time>2021-03-30T12:53:44.822Z</time>
      </trkpt>
      <trkpt lat="48.92225" lon="7.48149">
        <ele>338.61987129177</ele>
        <time>2021-03-30T12:53:50.388Z</time>
      </trkpt>
      <trkpt lat="48.92215" lon="7.48156">
        <ele>339.68420225383</ele>
        <time>2021-03-30T12:53:55.958Z</time>
      </trkpt>
      <trkpt lat="48.9219" lon="7.48171">
        <ele>340.63408374429</ele>
        <time>2021-03-30T12:54:01.537Z</time>
      </trkpt>
      <trkpt lat="48.92186" lon="7.48174">
        <ele>340.99767771311</ele>
        <time>2021-03-30T12:54:07.117Z</time>
      </trkpt>
      <trkpt lat="48.92167" lon="7.48188">
        <ele>341.14971275454</ele>
        <time>2021-03-30T12:54:12.704Z</time>
      </trkpt>
      <trkpt lat="48.92169" lon="7.4817">
        <ele>341.11408006432</ele>
        <time>2021-03-30T12:54:18.295Z</time>
      </trkpt>
      <trkpt lat="48.92155" lon="7.48173">
        <ele>340.89385139277</ele>
        <time>2021-03-30T12:54:23.891Z</time>
      </trkpt>
      <trkpt lat="48.92119" lon="7.48182">
        <ele>340.45350560553</ele>
        <time>2021-03-30T12:54:29.499Z</time>
      </trkpt>
      <trkpt lat="48.9212" lon="7.48188">
        <ele>339.9814487405</ele>
        <time>2021-03-30T12:54:35.108Z</time>
      </trkpt>
      <trkpt lat="48.92105" lon="7.48189">
        <ele>339.24078980272</ele>
        <time>2021-03-30T12:54:40.722Z</time>
      </trkpt>
      <trkpt lat="48.92085" lon="7.48194">
        <ele>338.34106870178</ele>
        <time>2021-03-30T12:54:46.343Z</time>
      </trkpt>
    </trkseg>
  </trk>
  <trk>
    <name><![CDATA[UT53 Étape 4]]></name>
    <extensions>
      <line xmlns="http://www.topografix.com/GPX/gpx_style/0/2">
        <color>00FFFF</color>
        <width>4</width>
      </line>
    </extensions>
    <trkseg>
      <trkpt lat="48.92089" lon="7.48193">
        <ele>336.90728944125</ele>
        <time>2021-03-30T12:12:52.000Z</time>
      </trkpt>
      <trkpt lat="48.92089" lon="7.48193">
        <ele>336.90728944125</ele>
        <time>2021-03-30T12:12:52.000Z</time>
      </trkpt>
      <trkpt lat="48.92085" lon="7.48194">
        <ele>336.31138742588</ele>
        <time>2021-03-30T12:12:52.001Z</time>
      </trkpt>
      <trkpt lat="48.92079" lon="7.48162">
        <ele>335.41682511611</ele>
        <time>2021-03-30T12:12:52.010Z</time>
      </trkpt>
      <trkpt lat="48.92071" lon="7.481">
        <ele>334.49446532196</ele>
        <time>2021-03-30T12:12:52.032Z</time>
      </trkpt>
      <trkpt lat="48.92064" lon="7.48045">
        <ele>333.17735985636</ele>
        <time>2021-03-30T12:12:52.067Z</time>
      </trkpt>
      <trkpt lat="48.9206" lon="7.48014">
        <ele>332.18328989452</ele>
        <time>2021-03-30T12:12:52.109Z</time>
      </trkpt>
      <trkpt lat="48.92059" lon="7.47992">
        <ele>331.36458176547</ele>
        <time>2021-03-30T12:12:52.156Z</time>
      </trkpt>
      <trkpt lat="48.92057" lon="7.47978">
        <ele>330.58954646631</ele>
        <time>2021-03-30T12:12:52.206Z</time>
      </trkpt>
      <trkpt lat="48.92045" lon="7.4798">
        <ele>329.7869029013</ele>
        <time>2021-03-30T12:12:52.260Z</time>
      </trkpt>
      <trkpt lat="48.92036" lon="7.47981">
        <ele>329.03235976916</ele>
        <time>2021-03-30T12:12:52.317Z</time>
      </trkpt>
      <trkpt lat="48.92032" lon="7.4798">
        <ele>328.39925752486</ele>
        <time>2021-03-30T12:12:52.375Z</time>
      </trkpt>
      <trkpt lat="48.9203" lon="7.47975">
        <ele>327.83599007151</ele>
        <time>2021-03-30T12:12:52.434Z</time>
      </trkpt>
      <trkpt lat="48.9203" lon="7.47965">
        <ele>327.32788737367</ele>
        <time>2021-03-30T12:12:52.496Z</time>
      </trkpt>
      <trkpt lat="48.9203" lon="7.4794">
        <ele>326.8425554667</ele>
        <time>2021-03-30T12:12:52.563Z</time>
      </trkpt>
      <trkpt lat="48.9203" lon="7.47925">
        <ele>326.35967183505</ele>
        <time>2021-03-30T12:12:52.633Z</time>
      </trkpt>
      <trkpt lat="48.92029" lon="7.4792">
        <ele>325.854362048</ele>
        <time>2021-03-30T12:12:52.705Z</time>
      </trkpt>
      <trkpt lat="48.92023" lon="7.47914">
        <ele>325.27167740622</ele>
        <time>2021-03-30T12:12:52.779Z</time>
      </trkpt>
      <trkpt lat="48.92011" lon="7.47909">
        <ele>324.57388662184</ele>
        <time>2021-03-30T12:12:52.857Z</time>
      </trkpt>
      <trkpt lat="48.91988" lon="7.47898">
        <ele>323.53250854902</ele>
        <time>2021-03-30T12:12:52.943Z</time>
      </trkpt>
      <trkpt lat="48.9198" lon="7.47895">
        <ele>322.60136940651</ele>
        <time>2021-03-30T12:12:53.032Z</time>
      </trkpt>
      <trkpt lat="48.9198" lon="7.47888">
        <ele>321.73912801422</ele>
        <time>2021-03-30T12:12:53.122Z</time>
      </trkpt>
      <trkpt lat="48.91974" lon="7.47887">
        <ele>320.81982950327</ele>
        <time>2021-03-30T12:12:53.214Z</time>
      </trkpt>
      <trkpt lat="48.91967" lon="7.47884">
        <ele>319.86891330074</ele>
        <time>2021-03-30T12:12:53.309Z</time>
      </trkpt>
      <trkpt lat="48.91965" lon="7.47878">
        <ele>318.96332765046</ele>
        <time>2021-03-30T12:12:53.405Z</time>
      </trkpt>
      <trkpt lat="48.91965" lon="7.4787">
        <ele>318.08278006471</ele>
        <time>2021-03-30T12:12:53.503Z</time>
      </trkpt>
      <trkpt lat="48.91965" lon="7.47863">
        <ele>317.25506014216</ele>
        <time>2021-03-30T12:12:53.603Z</time>
      </trkpt>
      <trkpt lat="48.91964" lon="7.47859">
        <ele>316.41872517238</ele>
        <time>2021-03-30T12:12:53.704Z</time>
      </trkpt>
      <trkpt lat="48.91962" lon="7.47854">
        <ele>315.57601858885</ele>
        <time>2021-03-30T12:12:53.806Z</time>
      </trkpt>
      <trkpt lat="48.91957" lon="7.47858">
        <ele>314.60922327335</ele>
        <time>2021-03-30T12:12:53.910Z</time>
      </trkpt>
      <trkpt lat="48.91952" lon="7.47858">
        <ele>313.60900905042</ele>
        <time>2021-03-30T12:12:54.015Z</time>
      </trkpt>
      <trkpt lat="48.91942" lon="7.47856">
        <ele>312.47944510634</ele>
        <time>2021-03-30T12:12:54.124Z</time>
      </trkpt>
      <trkpt lat="48.91935" lon="7.47852">
        <ele>311.37682779127</ele>
        <time>2021-03-30T12:12:54.235Z</time>
      </trkpt>
      <trkpt lat="48.9193" lon="7.47844">
        <ele>310.31269068697</ele>
        <time>2021-03-30T12:12:54.349Z</time>
      </trkpt>
      <trkpt lat="48.91921" lon="7.47821">
        <ele>309.18148787811</ele>
        <time>2021-03-30T12:12:54.469Z</time>
      </trkpt>
      <trkpt lat="48.91922" lon="7.47778">
        <ele>308.34339667454</ele>
        <time>2021-03-30T12:12:54.598Z</time>
      </trkpt>
      <trkpt lat="48.9193" lon="7.4772">
        <ele>307.4294920347</ele>
        <time>2021-03-30T12:12:54.740Z</time>
      </trkpt>
      <trkpt lat="48.91958" lon="7.47626">
        <ele>305.90707314539</ele>
        <time>2021-03-30T12:12:54.905Z</time>
      </trkpt>
      <trkpt lat="48.91991" lon="7.47557">
        <ele>305.08476090348</ele>
        <time>2021-03-30T12:12:55.088Z</time>
      </trkpt>
      <trkpt lat="48.92016" lon="7.47529">
        <ele>304.34551830295</ele>
        <time>2021-03-30T12:12:55.282Z</time>
      </trkpt>
      <trkpt lat="48.92041" lon="7.47517">
        <ele>303.69997226947</ele>
        <time>2021-03-30T12:12:55.485Z</time>
      </trkpt>
      <trkpt lat="48.92081" lon="7.47516">
        <ele>303.0082744005</ele>
        <time>2021-03-30T12:12:55.701Z</time>
      </trkpt>
      <trkpt lat="48.92091" lon="7.47512">
        <ele>302.19492147757</ele>
        <time>2021-03-30T12:12:55.921Z</time>
      </trkpt>
      <trkpt lat="48.92098" lon="7.47502">
        <ele>301.38291248836</ele>
        <time>2021-03-30T12:12:56.144Z</time>
      </trkpt>
      <trkpt lat="48.92099" lon="7.47486">
        <ele>300.63737777373</ele>
        <time>2021-03-30T12:12:56.370Z</time>
      </trkpt>
      <trkpt lat="48.92106" lon="7.47423">
        <ele>299.45191042203</ele>
        <time>2021-03-30T12:12:56.610Z</time>
      </trkpt>
      <trkpt lat="48.92109" lon="7.47374">
        <ele>298.24478062837</ele>
        <time>2021-03-30T12:12:56.861Z</time>
      </trkpt>
      <trkpt lat="48.92113" lon="7.47351">
        <ele>297.47778295127</ele>
        <time>2021-03-30T12:12:57.117Z</time>
      </trkpt>
      <trkpt lat="48.92124" lon="7.47331">
        <ele>296.96105561058</ele>
        <time>2021-03-30T12:12:57.379Z</time>
      </trkpt>
      <trkpt lat="48.92132" lon="7.47318">
        <ele>296.50873042531</ele>
        <time>2021-03-30T12:12:57.645Z</time>
      </trkpt>
      <trkpt lat="48.92134" lon="7.47298">
        <ele>296.20198030061</ele>
        <time>2021-03-30T12:12:57.915Z</time>
      </trkpt>
      <trkpt lat="48.92139" lon="7.47246">
        <ele>295.93381100317</ele>
        <time>2021-03-30T12:12:58.197Z</time>
      </trkpt>
      <trkpt lat="48.92149" lon="7.47173">
        <ele>295.76289729341</ele>
        <time>2021-03-30T12:12:58.495Z</time>
      </trkpt>
      <trkpt lat="48.92163" lon="7.47115">
        <ele>296.19683251994</ele>
        <time>2021-03-30T12:12:58.807Z</time>
      </trkpt>
      <trkpt lat="48.92175" lon="7.47044">
        <ele>296.67894745858</ele>
        <time>2021-03-30T12:12:59.135Z</time>
      </trkpt>
      <trkpt lat="48.92181" lon="7.46999">
        <ele>297.29721971264</ele>
        <time>2021-03-30T12:12:59.473Z</time>
      </trkpt>
      <trkpt lat="48.92179" lon="7.46971">
        <ele>297.87585932604</ele>
        <time>2021-03-30T12:12:59.817Z</time>
      </trkpt>
      <trkpt lat="48.92169" lon="7.46946">
        <ele>298.5945387974</ele>
        <time>2021-03-30T12:13:00.168Z</time>
      </trkpt>
      <trkpt lat="48.92159" lon="7.4693">
        <ele>299.34280374339</ele>
        <time>2021-03-30T12:13:00.524Z</time>
      </trkpt>
      <trkpt lat="48.92154" lon="7.46927">
        <ele>300.07709097901</ele>
        <time>2021-03-30T12:13:00.881Z</time>
      </trkpt>
      <trkpt lat="48.92147" lon="7.46929">
        <ele>300.83197535512</ele>
        <time>2021-03-30T12:13:01.241Z</time>
      </trkpt>
      <trkpt lat="48.92139" lon="7.4693">
        <ele>301.63275176828</ele>
        <time>2021-03-30T12:13:01.603Z</time>
      </trkpt>
      <trkpt lat="48.92132" lon="7.4693">
        <ele>302.4501988247</ele>
        <time>2021-03-30T12:13:01.968Z</time>
      </trkpt>
      <trkpt lat="48.92129" lon="7.46927">
        <ele>303.30889061662</ele>
        <time>2021-03-30T12:13:02.334Z</time>
      </trkpt>
      <trkpt lat="48.92122" lon="7.46912">
        <ele>304.26464486929</ele>
        <time>2021-03-30T12:13:02.704Z</time>
      </trkpt>
      <trkpt lat="48.92117" lon="7.46909">
        <ele>305.17143534631</ele>
        <time>2021-03-30T12:13:03.076Z</time>
      </trkpt>
      <trkpt lat="48.9211" lon="7.46912">
        <ele>306.06670012558</ele>
        <time>2021-03-30T12:13:03.450Z</time>
      </trkpt>
      <trkpt lat="48.92106" lon="7.46919">
        <ele>306.95215899841</ele>
        <time>2021-03-30T12:13:03.826Z</time>
      </trkpt>
      <trkpt lat="48.92102" lon="7.46924">
        <ele>307.86481332886</ele>
        <time>2021-03-30T12:13:04.204Z</time>
      </trkpt>
      <trkpt lat="48.92095" lon="7.46928">
        <ele>308.81018084665</ele>
        <time>2021-03-30T12:13:04.585Z</time>
      </trkpt>
      <trkpt lat="48.92085" lon="7.46922">
        <ele>309.93123960078</ele>
        <time>2021-03-30T12:13:04.969Z</time>
      </trkpt>
      <trkpt lat="48.92074" lon="7.4692">
        <ele>311.06329999242</ele>
        <time>2021-03-30T12:13:05.357Z</time>
      </trkpt>
      <trkpt lat="48.92064" lon="7.46924">
        <ele>312.23435330621</ele>
        <time>2021-03-30T12:13:05.748Z</time>
      </trkpt>
      <trkpt lat="48.92055" lon="7.46931">
        <ele>313.43275662395</ele>
        <time>2021-03-30T12:13:06.143Z</time>
      </trkpt>
      <trkpt lat="48.92044" lon="7.46938">
        <ele>314.7161508576</ele>
        <time>2021-03-30T12:13:06.542Z</time>
      </trkpt>
      <trkpt lat="48.92037" lon="7.4694">
        <ele>315.93753506909</ele>
        <time>2021-03-30T12:13:06.943Z</time>
      </trkpt>
      <trkpt lat="48.92031" lon="7.46935">
        <ele>317.13435191451</ele>
        <time>2021-03-30T12:13:07.346Z</time>
      </trkpt>
      <trkpt lat="48.92025" lon="7.46927">
        <ele>318.31446745324</ele>
        <time>2021-03-30T12:13:07.752Z</time>
      </trkpt>
      <trkpt lat="48.92023" lon="7.46916">
        <ele>319.40233449401</ele>
        <time>2021-03-30T12:13:08.160Z</time>
      </trkpt>
      <trkpt lat="48.92022" lon="7.46902">
        <ele>320.44086713611</ele>
        <time>2021-03-30T12:13:08.572Z</time>
      </trkpt>
      <trkpt lat="48.9202" lon="7.46893">
        <ele>321.4598841053</ele>
        <time>2021-03-30T12:13:08.986Z</time>
      </trkpt>
      <trkpt lat="48.92018" lon="7.46886">
        <ele>322.43041741146</ele>
        <time>2021-03-30T12:13:09.401Z</time>
      </trkpt>
      <trkpt lat="48.92007" lon="7.46875">
        <ele>323.43440587715</ele>
        <time>2021-03-30T12:13:09.821Z</time>
      </trkpt>
      <trkpt lat="48.91999" lon="7.46872">
        <ele>324.3601217483</ele>
        <time>2021-03-30T12:13:10.243Z</time>
      </trkpt>
      <trkpt lat="48.91986" lon="7.4687">
        <ele>325.29237940272</ele>
        <time>2021-03-30T12:13:10.670Z</time>
      </trkpt>
      <trkpt lat="48.91972" lon="7.46871">
        <ele>326.14383591639</ele>
        <time>2021-03-30T12:13:11.101Z</time>
      </trkpt>
      <trkpt lat="48.91951" lon="7.46869">
        <ele>326.96209118401</ele>
        <time>2021-03-30T12:13:11.540Z</time>
      </trkpt>
      <trkpt lat="48.91945" lon="7.46865">
        <ele>327.61446544569</ele>
        <time>2021-03-30T12:13:11.981Z</time>
      </trkpt>
      <trkpt lat="48.91939" lon="7.46856">
        <ele>328.17762983339</ele>
        <time>2021-03-30T12:13:12.425Z</time>
      </trkpt>
      <trkpt lat="48.91936" lon="7.46849">
        <ele>328.69780194083</ele>
        <time>2021-03-30T12:13:12.870Z</time>
      </trkpt>
      <trkpt lat="48.91932" lon="7.46835">
        <ele>329.12230058216</ele>
        <time>2021-03-30T12:13:13.319Z</time>
      </trkpt>
      <trkpt lat="48.91921" lon="7.46835">
        <ele>329.6103340141</ele>
        <time>2021-03-30T12:13:13.771Z</time>
      </trkpt>
      <trkpt lat="48.91911" lon="7.46835">
        <ele>330.05119802306</ele>
        <time>2021-03-30T12:13:14.227Z</time>
      </trkpt>
      <trkpt lat="48.91905" lon="7.46831">
        <ele>330.43563649904</ele>
        <time>2021-03-30T12:13:14.685Z</time>
      </trkpt>
      <trkpt lat="48.91895" lon="7.46831">
        <ele>330.77276992448</ele>
        <time>2021-03-30T12:13:15.146Z</time>
      </trkpt>
      <trkpt lat="48.91888" lon="7.46828">
        <ele>331.05654643186</ele>
        <time>2021-03-30T12:13:15.610Z</time>
      </trkpt>
      <trkpt lat="48.91875" lon="7.4681">
        <ele>331.25486136243</ele>
        <time>2021-03-30T12:13:16.080Z</time>
      </trkpt>
      <trkpt lat="48.91864" lon="7.46786">
        <ele>331.44429903957</ele>
        <time>2021-03-30T12:13:16.556Z</time>
      </trkpt>
      <trkpt lat="48.9183" lon="7.46678">
        <ele>331.74984704883</ele>
        <time>2021-03-30T12:13:17.058Z</time>
      </trkpt>
      <trkpt lat="48.91787" lon="7.46561">
        <ele>332.05943300778</ele>
        <time>2021-03-30T12:13:17.590Z</time>
      </trkpt>
      <trkpt lat="48.91723" lon="7.46372">
        <ele>332.88132537196</ele>
        <time>2021-03-30T12:13:18.169Z</time>
      </trkpt>
      <trkpt lat="48.91608" lon="7.46336">
        <ele>333.08181367459</ele>
        <time>2021-03-30T12:13:18.786Z</time>
      </trkpt>
      <trkpt lat="48.91696" lon="7.46082">
        <ele>332.6900802214</ele>
        <time>2021-03-30T12:13:19.466Z</time>
      </trkpt>
      <trkpt lat="48.91724" lon="7.46029">
        <ele>332.31536772835</ele>
        <time>2021-03-30T12:13:20.161Z</time>
      </trkpt>
      <trkpt lat="48.91731" lon="7.46007">
        <ele>331.72648193649</ele>
        <time>2021-03-30T12:13:20.862Z</time>
      </trkpt>
      <trkpt lat="48.91737" lon="7.45981">
        <ele>330.83760962404</ele>
        <time>2021-03-30T12:13:21.569Z</time>
      </trkpt>
      <trkpt lat="48.91752" lon="7.45964">
        <ele>329.97786564855</ele>
        <time>2021-03-30T12:13:22.282Z</time>
      </trkpt>
      <trkpt lat="48.91771" lon="7.45904">
        <ele>328.56339697925</ele>
        <time>2021-03-30T12:13:23.010Z</time>
      </trkpt>
      <trkpt lat="48.91809" lon="7.45829">
        <ele>327.4691697282</ele>
        <time>2021-03-30T12:13:23.758Z</time>
      </trkpt>
      <trkpt lat="48.91825" lon="7.45803">
        <ele>326.43235685482</ele>
        <time>2021-03-30T12:13:24.514Z</time>
      </trkpt>
      <trkpt lat="48.91839" lon="7.45763">
        <ele>325.3246922971</ele>
        <time>2021-03-30T12:13:25.280Z</time>
      </trkpt>
      <trkpt lat="48.91833" lon="7.45735">
        <ele>323.95433626405</ele>
        <time>2021-03-30T12:13:26.053Z</time>
      </trkpt>
      <trkpt lat="48.91831" lon="7.45715">
        <ele>322.53245285615</ele>
        <time>2021-03-30T12:13:26.830Z</time>
      </trkpt>
      <trkpt lat="48.91835" lon="7.45696">
        <ele>321.09156055428</ele>
        <time>2021-03-30T12:13:27.612Z</time>
      </trkpt>
      <trkpt lat="48.91853" lon="7.45634">
        <ele>319.43220358626</ele>
        <time>2021-03-30T12:13:28.409Z</time>
      </trkpt>
      <trkpt lat="48.91865" lon="7.45582">
        <ele>317.95691886432</ele>
        <time>2021-03-30T12:13:29.218Z</time>
      </trkpt>
      <trkpt lat="48.91864" lon="7.45525">
        <ele>316.25322310255</ele>
        <time>2021-03-30T12:13:30.039Z</time>
      </trkpt>
      <trkpt lat="48.91826" lon="7.45358">
        <ele>314.3236592743</ele>
        <time>2021-03-30T12:13:30.899Z</time>
      </trkpt>
      <trkpt lat="48.91826" lon="7.45358">
        <ele>310.9192293608</ele>
        <time>2021-03-30T12:13:31.759Z</time>
      </trkpt>
      <trkpt lat="48.91795" lon="7.45179">
        <ele>308.72370789429</ele>
        <time>2021-03-30T12:13:32.660Z</time>
      </trkpt>
      <trkpt lat="48.91788" lon="7.44996">
        <ele>306.28070788314</ele>
        <time>2021-03-30T12:13:33.601Z</time>
      </trkpt>
      <trkpt lat="48.9179" lon="7.44917">
        <ele>304.43329211484</ele>
        <time>2021-03-30T12:13:34.560Z</time>
      </trkpt>
      <trkpt lat="48.91783" lon="7.4483">
        <ele>302.56004110822</ele>
        <time>2021-03-30T12:13:35.538Z</time>
      </trkpt>
      <trkpt lat="48.91767" lon="7.44743">
        <ele>300.54821341985</ele>
        <time>2021-03-30T12:13:36.536Z</time>
      </trkpt>
      <trkpt lat="48.91753" lon="7.44657">
        <ele>298.26816806234</ele>
        <time>2021-03-30T12:13:37.553Z</time>
      </trkpt>
      <trkpt lat="48.91754" lon="7.44579">
        <ele>296.16150643831</ele>
        <time>2021-03-30T12:13:38.588Z</time>
      </trkpt>
      <trkpt lat="48.91744" lon="7.44472">
        <ele>293.63216933737</ele>
        <time>2021-03-30T12:13:39.646Z</time>
      </trkpt>
      <trkpt lat="48.91735" lon="7.44401">
        <ele>290.76122871084</ele>
        <time>2021-03-30T12:13:40.720Z</time>
      </trkpt>
      <trkpt lat="48.91728" lon="7.4433">
        <ele>287.38951467839</ele>
        <time>2021-03-30T12:13:41.810Z</time>
      </trkpt>
      <trkpt lat="48.91713" lon="7.44235">
        <ele>283.33686442747</ele>
        <time>2021-03-30T12:13:42.921Z</time>
      </trkpt>
      <trkpt lat="48.91693" lon="7.44176">
        <ele>279.49341870159</ele>
        <time>2021-03-30T12:13:44.047Z</time>
      </trkpt>
      <trkpt lat="48.91672" lon="7.44126">
        <ele>275.36982271791</ele>
        <time>2021-03-30T12:13:45.186Z</time>
      </trkpt>
      <trkpt lat="48.91659" lon="7.44089">
        <ele>271.13293404259</ele>
        <time>2021-03-30T12:13:46.334Z</time>
      </trkpt>
      <trkpt lat="48.91639" lon="7.44045">
        <ele>266.84512293151</ele>
        <time>2021-03-30T12:13:47.494Z</time>
      </trkpt>
      <trkpt lat="48.91589" lon="7.43982">
        <ele>262.69088732255</ele>
        <time>2021-03-30T12:13:48.676Z</time>
      </trkpt>
      <trkpt lat="48.9157" lon="7.4396">
        <ele>258.67087185024</ele>
        <time>2021-03-30T12:13:49.866Z</time>
      </trkpt>
      <trkpt lat="48.91501" lon="7.43914">
        <ele>254.11068113418</ele>
        <time>2021-03-30T12:13:51.081Z</time>
      </trkpt>
      <trkpt lat="48.91491" lon="7.43854">
        <ele>250.04899270496</ele>
        <time>2021-03-30T12:13:52.309Z</time>
      </trkpt>
      <trkpt lat="48.91428" lon="7.4377">
        <ele>247.02051873152</ele>
        <time>2021-03-30T12:13:53.565Z</time>
      </trkpt>
      <trkpt lat="48.91439" lon="7.43754">
        <ele>243.20017159367</ele>
        <time>2021-03-30T12:13:54.827Z</time>
      </trkpt>
      <trkpt lat="48.91439" lon="7.4373">
        <ele>239.50519168606</ele>
        <time>2021-03-30T12:13:56.094Z</time>
      </trkpt>
      <trkpt lat="48.91403" lon="7.43707">
        <ele>236.30467224801</ele>
        <time>2021-03-30T12:13:57.374Z</time>
      </trkpt>
      <trkpt lat="48.91348" lon="7.43615">
        <ele>233.03657707525</ele>
        <time>2021-03-30T12:13:58.681Z</time>
      </trkpt>
      <trkpt lat="48.91335" lon="7.43575">
        <ele>229.62810007218</ele>
        <time>2021-03-30T12:13:59.998Z</time>
      </trkpt>
      <trkpt lat="48.91298" lon="7.4353">
        <ele>226.24196929288</ele>
        <time>2021-03-30T12:14:01.331Z</time>
      </trkpt>
      <trkpt lat="48.91107" lon="7.43197">
        <ele>222.73297698809</ele>
        <time>2021-03-30T12:14:02.761Z</time>
      </trkpt>
      <trkpt lat="48.9109" lon="7.43185">
        <ele>220.24135677931</ele>
        <time>2021-03-30T12:14:04.197Z</time>
      </trkpt>
      <trkpt lat="48.91079" lon="7.43163">
        <ele>217.88653599192</ele>
        <time>2021-03-30T12:14:05.639Z</time>
      </trkpt>
      <trkpt lat="48.91073" lon="7.43137">
        <ele>215.76826174753</ele>
        <time>2021-03-30T12:14:07.087Z</time>
      </trkpt>
      <trkpt lat="48.91073" lon="7.43132">
        <ele>213.97292203899</ele>
        <time>2021-03-30T12:14:08.536Z</time>
      </trkpt>
      <trkpt lat="48.91073" lon="7.43123">
        <ele>212.39971002832</ele>
        <time>2021-03-30T12:14:09.987Z</time>
      </trkpt>
      <trkpt lat="48.91074" lon="7.43114">
        <ele>211.06246597824</ele>
        <time>2021-03-30T12:14:11.440Z</time>
      </trkpt>
      <trkpt lat="48.91076" lon="7.43104">
        <ele>209.95963539818</ele>
        <time>2021-03-30T12:14:12.896Z</time>
      </trkpt>
      <trkpt lat="48.91087" lon="7.43066">
        <ele>209.07250549265</ele>
        <time>2021-03-30T12:14:14.361Z</time>
      </trkpt>
      <trkpt lat="48.91097" lon="7.43025">
        <ele>208.49925158679</ele>
        <time>2021-03-30T12:14:15.835Z</time>
      </trkpt>
      <trkpt lat="48.91102" lon="7.43003">
        <ele>208.03198768285</ele>
        <time>2021-03-30T12:14:17.315Z</time>
      </trkpt>
      <trkpt lat="48.91108" lon="7.42979">
        <ele>207.68794508409</ele>
        <time>2021-03-30T12:14:18.800Z</time>
      </trkpt>
      <trkpt lat="48.91124" lon="7.42924">
        <ele>207.42925820331</ele>
        <time>2021-03-30T12:14:20.298Z</time>
      </trkpt>
      <trkpt lat="48.91132" lon="7.42901">
        <ele>207.36665984078</ele>
        <time>2021-03-30T12:14:21.802Z</time>
      </trkpt>
      <trkpt lat="48.91139" lon="7.42879">
        <ele>207.47490481714</ele>
        <time>2021-03-30T12:14:23.311Z</time>
      </trkpt>
      <trkpt lat="48.91144" lon="7.4287">
        <ele>207.68543178975</ele>
        <time>2021-03-30T12:14:24.823Z</time>
      </trkpt>
      <trkpt lat="48.91149" lon="7.42861">
        <ele>207.9799671346</ele>
        <time>2021-03-30T12:14:26.338Z</time>
      </trkpt>
      <trkpt lat="48.91157" lon="7.4285">
        <ele>208.34636425287</ele>
        <time>2021-03-30T12:14:27.856Z</time>
      </trkpt>
      <trkpt lat="48.91158" lon="7.42842">
        <ele>208.75649689516</ele>
        <time>2021-03-30T12:14:29.376Z</time>
      </trkpt>
      <trkpt lat="48.9116" lon="7.42833">
        <ele>209.20732300506</ele>
        <time>2021-03-30T12:14:30.898Z</time>
      </trkpt>
      <trkpt lat="48.91172" lon="7.42791">
        <ele>209.69505257697</ele>
        <time>2021-03-30T12:14:32.430Z</time>
      </trkpt>
      <trkpt lat="48.91181" lon="7.4276">
        <ele>210.08027255042</ele>
        <time>2021-03-30T12:14:33.970Z</time>
      </trkpt>
      <trkpt lat="48.91185" lon="7.42747">
        <ele>210.51717202726</ele>
        <time>2021-03-30T12:14:35.513Z</time>
      </trkpt>
      <trkpt lat="48.91185" lon="7.42742">
        <ele>210.99292304867</ele>
        <time>2021-03-30T12:14:37.057Z</time>
      </trkpt>
      <trkpt lat="48.91185" lon="7.42734">
        <ele>211.46085068012</ele>
        <time>2021-03-30T12:14:38.603Z</time>
      </trkpt>
      <trkpt lat="48.91183" lon="7.42726">
        <ele>211.92373317044</ele>
        <time>2021-03-30T12:14:40.151Z</time>
      </trkpt>
      <trkpt lat="48.91181" lon="7.42721">
        <ele>212.37120352284</ele>
        <time>2021-03-30T12:14:41.700Z</time>
      </trkpt>
      <trkpt lat="48.91177" lon="7.42712">
        <ele>212.77100832149</ele>
        <time>2021-03-30T12:14:43.251Z</time>
      </trkpt>
      <trkpt lat="48.91173" lon="7.42708">
        <ele>213.14846959425</ele>
        <time>2021-03-30T12:14:44.804Z</time>
      </trkpt>
      <trkpt lat="48.91166" lon="7.42704">
        <ele>213.49854474424</ele>
        <time>2021-03-30T12:14:46.359Z</time>
      </trkpt>
      <trkpt lat="48.91161" lon="7.42704">
        <ele>213.81505919903</ele>
        <time>2021-03-30T12:14:47.916Z</time>
      </trkpt>
      <trkpt lat="48.91158" lon="7.42705">
        <ele>214.08747618959</ele>
        <time>2021-03-30T12:14:49.474Z</time>
      </trkpt>
      <trkpt lat="48.91154" lon="7.42708">
        <ele>214.32180433713</ele>
        <time>2021-03-30T12:14:51.034Z</time>
      </trkpt>
      <trkpt lat="48.9115" lon="7.42712">
        <ele>214.51042688776</ele>
        <time>2021-03-30T12:14:52.595Z</time>
      </trkpt>
      <trkpt lat="48.91147" lon="7.42718">
        <ele>214.64812013677</ele>
        <time>2021-03-30T12:14:54.158Z</time>
      </trkpt>
      <trkpt lat="48.91145" lon="7.42721">
        <ele>214.71662477679</ele>
        <time>2021-03-30T12:14:55.722Z</time>
      </trkpt>
      <trkpt lat="48.91139" lon="7.42732">
        <ele>214.75455422552</ele>
        <time>2021-03-30T12:14:57.289Z</time>
      </trkpt>
      <trkpt lat="48.91132" lon="7.42741">
        <ele>214.70645413578</ele>
        <time>2021-03-30T12:14:58.859Z</time>
      </trkpt>
      <trkpt lat="48.91126" lon="7.42745">
        <ele>214.59476645117</ele>
        <time>2021-03-30T12:15:00.431Z</time>
      </trkpt>
      <trkpt lat="48.91121" lon="7.42747">
        <ele>214.42652141356</ele>
        <time>2021-03-30T12:15:02.005Z</time>
      </trkpt>
      <trkpt lat="48.91119" lon="7.42746">
        <ele>214.21075221705</ele>
        <time>2021-03-30T12:15:03.580Z</time>
      </trkpt>
      <trkpt lat="48.91116" lon="7.42746">
        <ele>213.93570892628</ele>
        <time>2021-03-30T12:15:05.156Z</time>
      </trkpt>
      <trkpt lat="48.91114" lon="7.42745">
        <ele>213.62287796962</ele>
        <time>2021-03-30T12:15:06.732Z</time>
      </trkpt>
      <trkpt lat="48.91111" lon="7.42743">
        <ele>213.26178257961</ele>
        <time>2021-03-30T12:15:08.309Z</time>
      </trkpt>
      <trkpt lat="48.91104" lon="7.42736">
        <ele>212.84484147803</ele>
        <time>2021-03-30T12:15:09.889Z</time>
      </trkpt>
      <trkpt lat="48.91097" lon="7.42725">
        <ele>212.40219376698</ele>
        <time>2021-03-30T12:15:11.472Z</time>
      </trkpt>
      <trkpt lat="48.91085" lon="7.42696">
        <ele>211.88065035338</ele>
        <time>2021-03-30T12:15:13.063Z</time>
      </trkpt>
      <trkpt lat="48.91069" lon="7.42658">
        <ele>211.31185818841</ele>
        <time>2021-03-30T12:15:14.664Z</time>
      </trkpt>
      <trkpt lat="48.91051" lon="7.42601">
        <ele>210.81928956054</ele>
        <time>2021-03-30T12:15:16.279Z</time>
      </trkpt>
      <trkpt lat="48.91037" lon="7.42551">
        <ele>210.21650533037</ele>
        <time>2021-03-30T12:15:17.906Z</time>
      </trkpt>
      <trkpt lat="48.91035" lon="7.42535">
        <ele>209.69362457357</ele>
        <time>2021-03-30T12:15:19.536Z</time>
      </trkpt>
      <trkpt lat="48.91032" lon="7.42517">
        <ele>209.18568528203</ele>
        <time>2021-03-30T12:15:21.171Z</time>
      </trkpt>
      <trkpt lat="48.91032" lon="7.42505">
        <ele>208.67023370291</ele>
        <time>2021-03-30T12:15:22.808Z</time>
      </trkpt>
      <trkpt lat="48.91031" lon="7.42486">
        <ele>208.15536517325</ele>
        <time>2021-03-30T12:15:24.449Z</time>
      </trkpt>
      <trkpt lat="48.9103" lon="7.42471">
        <ele>207.64381852453</ele>
        <time>2021-03-30T12:15:26.094Z</time>
      </trkpt>
      <trkpt lat="48.9103" lon="7.42461">
        <ele>207.13683499985</ele>
        <time>2021-03-30T12:15:27.741Z</time>
      </trkpt>
      <trkpt lat="48.91031" lon="7.42448">
        <ele>206.60629898036</ele>
        <time>2021-03-30T12:15:29.391Z</time>
      </trkpt>
      <trkpt lat="48.91032" lon="7.42439">
        <ele>206.08942584895</ele>
        <time>2021-03-30T12:15:31.043Z</time>
      </trkpt>
      <trkpt lat="48.91036" lon="7.42426">
        <ele>205.57473358689</ele>
        <time>2021-03-30T12:15:32.698Z</time>
      </trkpt>
      <trkpt lat="48.91039" lon="7.4242">
        <ele>205.08667663277</ele>
        <time>2021-03-30T12:15:34.354Z</time>
      </trkpt>
      <trkpt lat="48.91044" lon="7.42411">
        <ele>204.58704720074</ele>
        <time>2021-03-30T12:15:36.013Z</time>
      </trkpt>
      <trkpt lat="48.91049" lon="7.42401">
        <ele>204.08013386473</ele>
        <time>2021-03-30T12:15:37.675Z</time>
      </trkpt>
      <trkpt lat="48.91054" lon="7.42391">
        <ele>203.60153313972</ele>
        <time>2021-03-30T12:15:39.339Z</time>
      </trkpt>
      <trkpt lat="48.91059" lon="7.42373">
        <ele>203.10842658596</ele>
        <time>2021-03-30T12:15:41.008Z</time>
      </trkpt>
      <trkpt lat="48.91061" lon="7.42363">
        <ele>202.73984088064</ele>
        <time>2021-03-30T12:15:42.679Z</time>
      </trkpt>
      <trkpt lat="48.91065" lon="7.4234">
        <ele>202.36673485056</ele>
        <time>2021-03-30T12:15:44.355Z</time>
      </trkpt>
      <trkpt lat="48.91074" lon="7.42285">
        <ele>202.14478671919</ele>
        <time>2021-03-30T12:15:46.044Z</time>
      </trkpt>
      <trkpt lat="48.91078" lon="7.42256">
        <ele>201.89903179777</ele>
        <time>2021-03-30T12:15:47.739Z</time>
      </trkpt>
      <trkpt lat="48.9108" lon="7.42239">
        <ele>201.56899639833</ele>
        <time>2021-03-30T12:15:49.438Z</time>
      </trkpt>
      <trkpt lat="48.9108" lon="7.42234">
        <ele>201.31584362596</ele>
        <time>2021-03-30T12:15:51.138Z</time>
      </trkpt>
      <trkpt lat="48.91086" lon="7.42176">
        <ele>201.03098158026</ele>
        <time>2021-03-30T12:15:52.851Z</time>
      </trkpt>
      <trkpt lat="48.91087" lon="7.42164">
        <ele>200.85026565771</ele>
        <time>2021-03-30T12:15:54.567Z</time>
      </trkpt>
      <trkpt lat="48.91079" lon="7.4216">
        <ele>200.65949125569</ele>
        <time>2021-03-30T12:15:56.286Z</time>
      </trkpt>
      <trkpt lat="48.91078" lon="7.42159">
        <ele>200.54402840261</ele>
        <time>2021-03-30T12:15:58.005Z</time>
      </trkpt>
      <trkpt lat="48.9107" lon="7.42151">
        <ele>200.41969176589</ele>
        <time>2021-03-30T12:15:59.727Z</time>
      </trkpt>
      <trkpt lat="48.9107" lon="7.42151">
        <ele>200.40907031952</ele>
        <time>2021-03-30T12:16:01.449Z</time>
      </trkpt>
      <trkpt lat="48.91059" lon="7.42138">
        <ele>200.44354813684</ele>
        <time>2021-03-30T12:16:03.176Z</time>
      </trkpt>
      <trkpt lat="48.91047" lon="7.42122">
        <ele>200.53869197152</ele>
        <time>2021-03-30T12:16:04.908Z</time>
      </trkpt>
      <trkpt lat="48.91045" lon="7.42118">
        <ele>200.6820995742</ele>
        <time>2021-03-30T12:16:06.641Z</time>
      </trkpt>
      <trkpt lat="48.9104" lon="7.42108">
        <ele>200.86285653314</ele>
        <time>2021-03-30T12:16:08.377Z</time>
      </trkpt>
      <trkpt lat="48.91033" lon="7.42093">
        <ele>201.15175013298</ele>
        <time>2021-03-30T12:16:10.117Z</time>
      </trkpt>
      <trkpt lat="48.91029" lon="7.42081">
        <ele>201.4539724274</ele>
        <time>2021-03-30T12:16:11.860Z</time>
      </trkpt>
      <trkpt lat="48.91019" lon="7.42053">
        <ele>201.85960464411</ele>
        <time>2021-03-30T12:16:13.610Z</time>
      </trkpt>
      <trkpt lat="48.91015" lon="7.42043">
        <ele>202.2069407923</ele>
        <time>2021-03-30T12:16:15.363Z</time>
      </trkpt>
      <trkpt lat="48.91005" lon="7.42031">
        <ele>202.61468072626</ele>
        <time>2021-03-30T12:16:17.120Z</time>
      </trkpt>
      <trkpt lat="48.91009" lon="7.4202">
        <ele>202.93343026534</ele>
        <time>2021-03-30T12:16:18.880Z</time>
      </trkpt>
      <trkpt lat="48.91013" lon="7.42014">
        <ele>203.27735827874</ele>
        <time>2021-03-30T12:16:20.641Z</time>
      </trkpt>
      <trkpt lat="48.91016" lon="7.42008">
        <ele>203.63344340087</ele>
        <time>2021-03-30T12:16:22.404Z</time>
      </trkpt>
      <trkpt lat="48.91021" lon="7.41994">
        <ele>204.01586965091</ele>
        <time>2021-03-30T12:16:24.171Z</time>
      </trkpt>
      <trkpt lat="48.91031" lon="7.41969">
        <ele>204.47397642387</ele>
        <time>2021-03-30T12:16:25.944Z</time>
      </trkpt>
      <trkpt lat="48.91038" lon="7.41951">
        <ele>204.88846149759</ele>
        <time>2021-03-30T12:16:27.722Z</time>
      </trkpt>
      <trkpt lat="48.91042" lon="7.41935">
        <ele>205.27495707698</ele>
        <time>2021-03-30T12:16:29.503Z</time>
      </trkpt>
      <trkpt lat="48.91048" lon="7.41914">
        <ele>205.65089869053</ele>
        <time>2021-03-30T12:16:31.289Z</time>
      </trkpt>
      <trkpt lat="48.91049" lon="7.41911">
        <ele>205.99577759339</ele>
        <time>2021-03-30T12:16:33.076Z</time>
      </trkpt>
      <trkpt lat="48.91057" lon="7.41879">
        <ele>206.37863497277</ele>
        <time>2021-03-30T12:16:34.871Z</time>
      </trkpt>
      <trkpt lat="48.91057" lon="7.41877">
        <ele>206.69976614005</ele>
        <time>2021-03-30T12:16:36.666Z</time>
      </trkpt>
      <trkpt lat="48.91054" lon="7.41856">
        <ele>207.06443720769</ele>
        <time>2021-03-30T12:16:38.466Z</time>
      </trkpt>
      <trkpt lat="48.91053" lon="7.41843">
        <ele>207.37757367841</ele>
        <time>2021-03-30T12:16:40.269Z</time>
      </trkpt>
      <trkpt lat="48.91053" lon="7.4183">
        <ele>207.66300034411</ele>
        <time>2021-03-30T12:16:42.075Z</time>
      </trkpt>
      <trkpt lat="48.91053" lon="7.4182">
        <ele>207.90386543665</ele>
        <time>2021-03-30T12:16:43.883Z</time>
      </trkpt>
      <trkpt lat="48.91055" lon="7.41808">
        <ele>208.14229484775</ele>
        <time>2021-03-30T12:16:45.693Z</time>
      </trkpt>
      <trkpt lat="48.91058" lon="7.418">
        <ele>208.34768997165</ele>
        <time>2021-03-30T12:16:47.506Z</time>
      </trkpt>
      <trkpt lat="48.91053" lon="7.41793">
        <ele>208.56444528986</ele>
        <time>2021-03-30T12:16:49.321Z</time>
      </trkpt>
      <trkpt lat="48.9105" lon="7.41789">
        <ele>208.77773341328</ele>
        <time>2021-03-30T12:16:51.137Z</time>
      </trkpt>
      <trkpt lat="48.91042" lon="7.41779">
        <ele>209.00449138634</ele>
        <time>2021-03-30T12:16:52.957Z</time>
      </trkpt>
      <trkpt lat="48.91032" lon="7.41767">
        <ele>209.21254427319</ele>
        <time>2021-03-30T12:16:54.781Z</time>
      </trkpt>
      <trkpt lat="48.91017" lon="7.41756">
        <ele>209.43210449512</ele>
        <time>2021-03-30T12:16:56.610Z</time>
      </trkpt>
      <trkpt lat="48.91006" lon="7.41747">
        <ele>209.68949287367</ele>
        <time>2021-03-30T12:16:58.444Z</time>
      </trkpt>
      <trkpt lat="48.91" lon="7.41744">
        <ele>209.99243854997</ele>
        <time>2021-03-30T12:17:00.280Z</time>
      </trkpt>
      <trkpt lat="48.90992" lon="7.4174">
        <ele>210.33273739972</ele>
        <time>2021-03-30T12:17:02.118Z</time>
      </trkpt>
      <trkpt lat="48.9098" lon="7.41736">
        <ele>210.72819144267</ele>
        <time>2021-03-30T12:17:03.961Z</time>
      </trkpt>
      <trkpt lat="48.90969" lon="7.41735">
        <ele>211.16367376968</ele>
        <time>2021-03-30T12:17:05.807Z</time>
      </trkpt>
      <trkpt lat="48.90953" lon="7.41736">
        <ele>211.61639537804</ele>
        <time>2021-03-30T12:17:07.659Z</time>
      </trkpt>
      <trkpt lat="48.90946" lon="7.41734">
        <ele>212.13185533324</ele>
        <time>2021-03-30T12:17:09.513Z</time>
      </trkpt>
      <trkpt lat="48.90932" lon="7.41732">
        <ele>212.74236727521</ele>
        <time>2021-03-30T12:17:11.372Z</time>
      </trkpt>
      <trkpt lat="48.90928" lon="7.41731">
        <ele>213.33781246588</ele>
        <time>2021-03-30T12:17:13.232Z</time>
      </trkpt>
      <trkpt lat="48.90926" lon="7.41731">
        <ele>213.96018003102</ele>
        <time>2021-03-30T12:17:15.093Z</time>
      </trkpt>
      <trkpt lat="48.9091" lon="7.41728">
        <ele>214.7209839528</ele>
        <time>2021-03-30T12:17:16.959Z</time>
      </trkpt>
      <trkpt lat="48.90885" lon="7.41721">
        <ele>215.53340681715</ele>
        <time>2021-03-30T12:17:18.834Z</time>
      </trkpt>
      <trkpt lat="48.90853" lon="7.41713">
        <ele>216.34154327433</ele>
        <time>2021-03-30T12:17:20.719Z</time>
      </trkpt>
      <trkpt lat="48.90826" lon="7.41709">
        <ele>217.13017609263</ele>
        <time>2021-03-30T12:17:22.613Z</time>
      </trkpt>
      <trkpt lat="48.90814" lon="7.41707">
        <ele>217.9176950351</ele>
        <time>2021-03-30T12:17:24.511Z</time>
      </trkpt>
      <trkpt lat="48.90804" lon="7.41704">
        <ele>218.74762601077</ele>
        <time>2021-03-30T12:17:26.413Z</time>
      </trkpt>
      <trkpt lat="48.90793" lon="7.417">
        <ele>219.62256287378</ele>
        <time>2021-03-30T12:17:28.319Z</time>
      </trkpt>
      <trkpt lat="48.90787" lon="7.41698">
        <ele>220.50356656784</ele>
        <time>2021-03-30T12:17:30.227Z</time>
      </trkpt>
      <trkpt lat="48.90785" lon="7.41697">
        <ele>221.38211193463</ele>
        <time>2021-03-30T12:17:32.135Z</time>
      </trkpt>
      <trkpt lat="48.90775" lon="7.41696">
        <ele>222.3161190236</ele>
        <time>2021-03-30T12:17:34.047Z</time>
      </trkpt>
      <trkpt lat="48.90753" lon="7.41695">
        <ele>223.30775964429</ele>
        <time>2021-03-30T12:17:35.966Z</time>
      </trkpt>
      <trkpt lat="48.90734" lon="7.41694">
        <ele>224.3111287566</ele>
        <time>2021-03-30T12:17:37.891Z</time>
      </trkpt>
      <trkpt lat="48.90712" lon="7.41693">
        <ele>225.43812049924</ele>
        <time>2021-03-30T12:17:39.824Z</time>
      </trkpt>
      <trkpt lat="48.90709" lon="7.41692">
        <ele>226.39161729715</ele>
        <time>2021-03-30T12:17:41.758Z</time>
      </trkpt>
      <trkpt lat="48.90702" lon="7.41689">
        <ele>227.38165811842</ele>
        <time>2021-03-30T12:17:43.694Z</time>
      </trkpt>
      <trkpt lat="48.90701" lon="7.41689">
        <ele>228.30066265776</ele>
        <time>2021-03-30T12:17:45.631Z</time>
      </trkpt>
      <trkpt lat="48.90693" lon="7.41683">
        <ele>229.28734520704</ele>
        <time>2021-03-30T12:17:47.570Z</time>
      </trkpt>
      <trkpt lat="48.90688" lon="7.4168">
        <ele>230.22561718582</ele>
        <time>2021-03-30T12:17:49.511Z</time>
      </trkpt>
      <trkpt lat="48.90687" lon="7.41678">
        <ele>231.10900267951</ele>
        <time>2021-03-30T12:17:51.453Z</time>
      </trkpt>
      <trkpt lat="48.90686" lon="7.41675">
        <ele>231.97844079406</ele>
        <time>2021-03-30T12:17:53.396Z</time>
      </trkpt>
      <trkpt lat="48.90686" lon="7.41672">
        <ele>232.82206911522</ele>
        <time>2021-03-30T12:17:55.339Z</time>
      </trkpt>
      <trkpt lat="48.90682" lon="7.4167">
        <ele>233.68361068955</ele>
        <time>2021-03-30T12:17:57.284Z</time>
      </trkpt>
      <trkpt lat="48.9068" lon="7.41666">
        <ele>234.51364532478</ele>
        <time>2021-03-30T12:17:59.230Z</time>
      </trkpt>
      <trkpt lat="48.90679" lon="7.41663">
        <ele>235.31344834962</ele>
        <time>2021-03-30T12:18:01.176Z</time>
      </trkpt>
      <trkpt lat="48.90678" lon="7.41658">
        <ele>236.09789312619</ele>
        <time>2021-03-30T12:18:03.124Z</time>
      </trkpt>
      <trkpt lat="48.90677" lon="7.41653">
        <ele>236.85591765409</ele>
        <time>2021-03-30T12:18:05.073Z</time>
      </trkpt>
      <trkpt lat="48.90677" lon="7.41645">
        <ele>237.59137353227</ele>
        <time>2021-03-30T12:18:07.024Z</time>
      </trkpt>
      <trkpt lat="48.90676" lon="7.41638">
        <ele>238.30070477691</ele>
        <time>2021-03-30T12:18:08.976Z</time>
      </trkpt>
      <trkpt lat="48.90673" lon="7.41621">
        <ele>238.98458790218</ele>
        <time>2021-03-30T12:18:10.932Z</time>
      </trkpt>
      <trkpt lat="48.90651" lon="7.41595">
        <ele>239.78446243435</ele>
        <time>2021-03-30T12:18:12.897Z</time>
      </trkpt>
      <trkpt lat="48.90631" lon="7.41568">
        <ele>240.41866505909</ele>
        <time>2021-03-30T12:18:14.871Z</time>
      </trkpt>
      <trkpt lat="48.90625" lon="7.41561">
        <ele>240.94321736782</ele>
        <time>2021-03-30T12:18:16.848Z</time>
      </trkpt>
      <trkpt lat="48.90612" lon="7.41535">
        <ele>241.45852274759</ele>
        <time>2021-03-30T12:18:18.832Z</time>
      </trkpt>
      <trkpt lat="48.90602" lon="7.41505">
        <ele>241.94624085597</ele>
        <time>2021-03-30T12:18:20.823Z</time>
      </trkpt>
      <trkpt lat="48.90596" lon="7.41469">
        <ele>242.36873613989</ele>
        <time>2021-03-30T12:18:22.822Z</time>
      </trkpt>
      <trkpt lat="48.90591" lon="7.41421">
        <ele>242.6671148936</ele>
        <time>2021-03-30T12:18:24.832Z</time>
      </trkpt>
      <trkpt lat="48.90588" lon="7.41371">
        <ele>242.73776635324</ele>
        <time>2021-03-30T12:18:26.853Z</time>
      </trkpt>
      <trkpt lat="48.90594" lon="7.41284">
        <ele>242.94596804457</ele>
        <time>2021-03-30T12:18:28.893Z</time>
      </trkpt>
      <trkpt lat="48.90593" lon="7.41234">
        <ele>242.92576838852</ele>
        <time>2021-03-30T12:18:30.944Z</time>
      </trkpt>
      <trkpt lat="48.9059" lon="7.41184">
        <ele>242.72525730112</ele>
        <time>2021-03-30T12:18:33.007Z</time>
      </trkpt>
      <trkpt lat="48.9058" lon="7.41125">
        <ele>242.2494565568</ele>
        <time>2021-03-30T12:18:35.083Z</time>
      </trkpt>
      <trkpt lat="48.90568" lon="7.41063">
        <ele>241.62586189191</ele>
        <time>2021-03-30T12:18:37.173Z</time>
      </trkpt>
      <trkpt lat="48.90564" lon="7.41033">
        <ele>241.10037163607</ele>
        <time>2021-03-30T12:18:39.270Z</time>
      </trkpt>
      <trkpt lat="48.90563" lon="7.41019">
        <ele>240.66147215368</ele>
        <time>2021-03-30T12:18:41.370Z</time>
      </trkpt>
      <trkpt lat="48.90549" lon="7.40861">
        <ele>240.45677783025</ele>
        <time>2021-03-30T12:18:43.505Z</time>
      </trkpt>
      <trkpt lat="48.90541" lon="7.40834">
        <ele>239.97601159734</ele>
        <time>2021-03-30T12:18:45.647Z</time>
      </trkpt>
      <trkpt lat="48.90535" lon="7.40814">
        <ele>239.51346246614</ele>
        <time>2021-03-30T12:18:47.793Z</time>
      </trkpt>
      <trkpt lat="48.90529" lon="7.40801">
        <ele>239.10066742967</ele>
        <time>2021-03-30T12:18:49.943Z</time>
      </trkpt>
      <trkpt lat="48.90524" lon="7.4079">
        <ele>238.72596790434</ele>
        <time>2021-03-30T12:18:52.096Z</time>
      </trkpt>
      <trkpt lat="48.90517" lon="7.4078">
        <ele>238.41108549687</ele>
        <time>2021-03-30T12:18:54.252Z</time>
      </trkpt>
      <trkpt lat="48.90511" lon="7.40772">
        <ele>238.15617340416</ele>
        <time>2021-03-30T12:18:56.411Z</time>
      </trkpt>
      <trkpt lat="48.90504" lon="7.40768">
        <ele>237.98794135713</ele>
        <time>2021-03-30T12:18:58.572Z</time>
      </trkpt>
      <trkpt lat="48.90499" lon="7.40763">
        <ele>237.87275618098</ele>
        <time>2021-03-30T12:19:00.735Z</time>
      </trkpt>
      <trkpt lat="48.90496" lon="7.40759">
        <ele>237.81929618779</ele>
        <time>2021-03-30T12:19:02.899Z</time>
      </trkpt>
      <trkpt lat="48.90491" lon="7.40752">
        <ele>237.83988252704</ele>
        <time>2021-03-30T12:19:05.066Z</time>
      </trkpt>
      <trkpt lat="48.90488" lon="7.40747">
        <ele>237.92816601047</ele>
        <time>2021-03-30T12:19:07.234Z</time>
      </trkpt>
      <trkpt lat="48.90481" lon="7.40739">
        <ele>238.08432534414</ele>
        <time>2021-03-30T12:19:09.405Z</time>
      </trkpt>
      <trkpt lat="48.90471" lon="7.40733">
        <ele>238.33668723706</ele>
        <time>2021-03-30T12:19:11.580Z</time>
      </trkpt>
      <trkpt lat="48.90458" lon="7.40728">
        <ele>238.69210231977</ele>
        <time>2021-03-30T12:19:13.759Z</time>
      </trkpt>
      <trkpt lat="48.90449" lon="7.40721">
        <ele>239.09226462319</ele>
        <time>2021-03-30T12:19:15.942Z</time>
      </trkpt>
      <trkpt lat="48.9044" lon="7.40713">
        <ele>239.55216310965</ele>
        <time>2021-03-30T12:19:18.128Z</time>
      </trkpt>
      <trkpt lat="48.90431" lon="7.40706">
        <ele>240.07433210408</ele>
        <time>2021-03-30T12:19:20.317Z</time>
      </trkpt>
      <trkpt lat="48.90423" lon="7.40701">
        <ele>240.64950159112</ele>
        <time>2021-03-30T12:19:22.509Z</time>
      </trkpt>
      <trkpt lat="48.90415" lon="7.40699">
        <ele>241.28601108699</ele>
        <time>2021-03-30T12:19:24.704Z</time>
      </trkpt>
      <trkpt lat="48.90405" lon="7.40698">
        <ele>241.97678119039</ele>
        <time>2021-03-30T12:19:26.902Z</time>
      </trkpt>
      <trkpt lat="48.90388" lon="7.40703">
        <ele>242.74796055707</ele>
        <time>2021-03-30T12:19:29.106Z</time>
      </trkpt>
      <trkpt lat="48.9037" lon="7.4071">
        <ele>243.48354240566</ele>
        <time>2021-03-30T12:19:31.316Z</time>
      </trkpt>
      <trkpt lat="48.90354" lon="7.40714">
        <ele>244.15886225215</ele>
        <time>2021-03-30T12:19:33.532Z</time>
      </trkpt>
      <trkpt lat="48.90338" lon="7.40716">
        <ele>244.82649055727</ele>
        <time>2021-03-30T12:19:35.753Z</time>
      </trkpt>
      <trkpt lat="48.90314" lon="7.40717">
        <ele>245.46681128416</ele>
        <time>2021-03-30T12:19:37.982Z</time>
      </trkpt>
      <trkpt lat="48.90292" lon="7.40717">
        <ele>246.1350519091</ele>
        <time>2021-03-30T12:19:40.218Z</time>
      </trkpt>
      <trkpt lat="48.90275" lon="7.40715">
        <ele>246.89138377617</ele>
        <time>2021-03-30T12:19:42.460Z</time>
      </trkpt>
      <trkpt lat="48.90259" lon="7.40712">
        <ele>247.61762558251</ele>
        <time>2021-03-30T12:19:44.708Z</time>
      </trkpt>
      <trkpt lat="48.90223" lon="7.40697">
        <ele>248.24832609438</ele>
        <time>2021-03-30T12:19:46.968Z</time>
      </trkpt>
      <trkpt lat="48.90199" lon="7.40686">
        <ele>248.73999164616</ele>
        <time>2021-03-30T12:19:49.236Z</time>
      </trkpt>
      <trkpt lat="48.90173" lon="7.40675">
        <ele>249.266686884</ele>
        <time>2021-03-30T12:19:51.513Z</time>
      </trkpt>
      <trkpt lat="48.90164" lon="7.4067">
        <ele>249.75354214044</ele>
        <time>2021-03-30T12:19:53.794Z</time>
      </trkpt>
      <trkpt lat="48.90153" lon="7.40664">
        <ele>250.23956560309</ele>
        <time>2021-03-30T12:19:56.078Z</time>
      </trkpt>
      <trkpt lat="48.90135" lon="7.40653">
        <ele>250.71697185429</ele>
        <time>2021-03-30T12:19:58.369Z</time>
      </trkpt>
      <trkpt lat="48.90124" lon="7.40642">
        <ele>251.22513130803</ele>
        <time>2021-03-30T12:20:00.664Z</time>
      </trkpt>
      <trkpt lat="48.90115" lon="7.40632">
        <ele>251.78165599541</ele>
        <time>2021-03-30T12:20:02.963Z</time>
      </trkpt>
      <trkpt lat="48.90099" lon="7.40604">
        <ele>252.36560100554</ele>
        <time>2021-03-30T12:20:05.270Z</time>
      </trkpt>
      <trkpt lat="48.90093" lon="7.40574">
        <ele>253.13013933467</ele>
        <time>2021-03-30T12:20:07.584Z</time>
      </trkpt>
      <trkpt lat="48.90085" lon="7.4054">
        <ele>254.04209128779</ele>
        <time>2021-03-30T12:20:09.906Z</time>
      </trkpt>
      <trkpt lat="48.90075" lon="7.40507">
        <ele>255.11594293187</ele>
        <time>2021-03-30T12:20:12.236Z</time>
      </trkpt>
      <trkpt lat="48.90063" lon="7.40477">
        <ele>256.21066271068</ele>
        <time>2021-03-30T12:20:14.574Z</time>
      </trkpt>
      <trkpt lat="48.90057" lon="7.40464">
        <ele>257.30532844726</ele>
        <time>2021-03-30T12:20:16.915Z</time>
      </trkpt>
      <trkpt lat="48.90046" lon="7.4044">
        <ele>258.55946981725</ele>
        <time>2021-03-30T12:20:19.263Z</time>
      </trkpt>
      <trkpt lat="48.9004" lon="7.40428">
        <ele>259.81517930043</ele>
        <time>2021-03-30T12:20:21.614Z</time>
      </trkpt>
      <trkpt lat="48.90032" lon="7.40419">
        <ele>261.1567583004</ele>
        <time>2021-03-30T12:20:23.968Z</time>
      </trkpt>
      <trkpt lat="48.90024" lon="7.40411">
        <ele>262.55682404609</ele>
        <time>2021-03-30T12:20:26.325Z</time>
      </trkpt>
      <trkpt lat="48.90015" lon="7.40397">
        <ele>264.0260764342</ele>
        <time>2021-03-30T12:20:28.687Z</time>
      </trkpt>
      <trkpt lat="48.90007" lon="7.40382">
        <ele>265.52819658752</ele>
        <time>2021-03-30T12:20:31.053Z</time>
      </trkpt>
      <trkpt lat="48.89998" lon="7.40355">
        <ele>267.05758869424</ele>
        <time>2021-03-30T12:20:33.426Z</time>
      </trkpt>
      <trkpt lat="48.89994" lon="7.40343">
        <ele>268.69202155439</ele>
        <time>2021-03-30T12:20:35.802Z</time>
      </trkpt>
      <trkpt lat="48.89986" lon="7.40314">
        <ele>270.38402338536</ele>
        <time>2021-03-30T12:20:38.185Z</time>
      </trkpt>
      <trkpt lat="48.89982" lon="7.40301">
        <ele>272.15337657967</ele>
        <time>2021-03-30T12:20:40.571Z</time>
      </trkpt>
      <trkpt lat="48.89962" lon="7.40244">
        <ele>274.07897958953</ele>
        <time>2021-03-30T12:20:42.971Z</time>
      </trkpt>
      <trkpt lat="48.89943" lon="7.40188">
        <ele>275.92139715517</ele>
        <time>2021-03-30T12:20:45.385Z</time>
      </trkpt>
      <trkpt lat="48.89919" lon="7.40122">
        <ele>278.10814411946</ele>
        <time>2021-03-30T12:20:47.815Z</time>
      </trkpt>
      <trkpt lat="48.89892" lon="7.40058">
        <ele>280.43450078224</ele>
        <time>2021-03-30T12:20:50.262Z</time>
      </trkpt>
      <trkpt lat="48.89873" lon="7.39962">
        <ele>282.61563038281</ele>
        <time>2021-03-30T12:20:52.731Z</time>
      </trkpt>
      <trkpt lat="48.89858" lon="7.39931">
        <ele>284.75618011764</ele>
        <time>2021-03-30T12:20:55.209Z</time>
      </trkpt>
      <trkpt lat="48.89838" lon="7.39895">
        <ele>286.98552496972</ele>
        <time>2021-03-30T12:20:57.697Z</time>
      </trkpt>
      <trkpt lat="48.89755" lon="7.39781">
        <ele>288.7552408868</ele>
        <time>2021-03-30T12:21:00.222Z</time>
      </trkpt>
      <trkpt lat="48.89759" lon="7.39772">
        <ele>290.4365226233</ele>
        <time>2021-03-30T12:21:02.750Z</time>
      </trkpt>
      <trkpt lat="48.89768" lon="7.3976">
        <ele>292.05238791061</ele>
        <time>2021-03-30T12:21:05.282Z</time>
      </trkpt>
      <trkpt lat="48.89744" lon="7.3972">
        <ele>293.82475043719</ele>
        <time>2021-03-30T12:21:07.825Z</time>
      </trkpt>
      <trkpt lat="48.89725" lon="7.3969">
        <ele>295.39243739554</ele>
        <time>2021-03-30T12:21:10.378Z</time>
      </trkpt>
      <trkpt lat="48.89723" lon="7.39699">
        <ele>296.64639922959</ele>
        <time>2021-03-30T12:21:12.933Z</time>
      </trkpt>
      <trkpt lat="48.89718" lon="7.39713">
        <ele>297.78675474872</ele>
        <time>2021-03-30T12:21:15.492Z</time>
      </trkpt>
      <trkpt lat="48.89711" lon="7.39728">
        <ele>298.80302007032</ele>
        <time>2021-03-30T12:21:18.054Z</time>
      </trkpt>
      <trkpt lat="48.89709" lon="7.39735">
        <ele>299.69301531708</ele>
        <time>2021-03-30T12:21:20.618Z</time>
      </trkpt>
      <trkpt lat="48.89707" lon="7.39743">
        <ele>300.45113080334</ele>
        <time>2021-03-30T12:21:23.184Z</time>
      </trkpt>
      <trkpt lat="48.89704" lon="7.39749">
        <ele>301.09634764985</ele>
        <time>2021-03-30T12:21:25.752Z</time>
      </trkpt>
      <trkpt lat="48.897" lon="7.39755">
        <ele>301.63333449684</ele>
        <time>2021-03-30T12:21:28.322Z</time>
      </trkpt>
      <trkpt lat="48.89696" lon="7.39762">
        <ele>302.06574096533</ele>
        <time>2021-03-30T12:21:30.894Z</time>
      </trkpt>
      <trkpt lat="48.89691" lon="7.39768">
        <ele>302.4236236664</ele>
        <time>2021-03-30T12:21:33.468Z</time>
      </trkpt>
      <trkpt lat="48.89684" lon="7.39774">
        <ele>302.71886180461</ele>
        <time>2021-03-30T12:21:36.045Z</time>
      </trkpt>
      <trkpt lat="48.89676" lon="7.39778">
        <ele>302.94120576129</ele>
        <time>2021-03-30T12:21:38.624Z</time>
      </trkpt>
      <trkpt lat="48.89668" lon="7.39781">
        <ele>303.0754724179</ele>
        <time>2021-03-30T12:21:41.206Z</time>
      </trkpt>
      <trkpt lat="48.89668" lon="7.39781">
        <ele>303.24489845973</ele>
        <time>2021-03-30T12:21:43.788Z</time>
      </trkpt>
      <trkpt lat="48.8966" lon="7.39785">
        <ele>303.24010000407</ele>
        <time>2021-03-30T12:21:46.373Z</time>
      </trkpt>
      <trkpt lat="48.89649" lon="7.3979">
        <ele>303.22818488562</ele>
        <time>2021-03-30T12:21:48.962Z</time>
      </trkpt>
      <trkpt lat="48.89641" lon="7.39792">
        <ele>303.17053259774</ele>
        <time>2021-03-30T12:21:51.553Z</time>
      </trkpt>
      <trkpt lat="48.89631" lon="7.39795">
        <ele>303.10260427453</ele>
        <time>2021-03-30T12:21:54.148Z</time>
      </trkpt>
      <trkpt lat="48.89622" lon="7.39798">
        <ele>303.00492590641</ele>
        <time>2021-03-30T12:21:56.746Z</time>
      </trkpt>
      <trkpt lat="48.8961" lon="7.39802">
        <ele>302.84514639246</ele>
        <time>2021-03-30T12:21:59.348Z</time>
      </trkpt>
      <trkpt lat="48.896" lon="7.39807">
        <ele>302.64405258857</ele>
        <time>2021-03-30T12:22:01.953Z</time>
      </trkpt>
      <trkpt lat="48.89591" lon="7.39813">
        <ele>302.39624348896</ele>
        <time>2021-03-30T12:22:04.562Z</time>
      </trkpt>
      <trkpt lat="48.89582" lon="7.39821">
        <ele>302.09778839819</ele>
        <time>2021-03-30T12:22:07.174Z</time>
      </trkpt>
      <trkpt lat="48.89562" lon="7.39805">
        <ele>301.80042058103</ele>
        <time>2021-03-30T12:22:09.794Z</time>
      </trkpt>
      <trkpt lat="48.8955" lon="7.39799">
        <ele>301.42464034865</ele>
        <time>2021-03-30T12:22:12.418Z</time>
      </trkpt>
      <trkpt lat="48.89536" lon="7.39796">
        <ele>300.97588392493</ele>
        <time>2021-03-30T12:22:15.047Z</time>
      </trkpt>
      <trkpt lat="48.89545" lon="7.39768">
        <ele>300.45959717346</ele>
        <time>2021-03-30T12:22:17.683Z</time>
      </trkpt>
      <trkpt lat="48.89541" lon="7.39748">
        <ele>299.8377932858</ele>
        <time>2021-03-30T12:22:20.323Z</time>
      </trkpt>
      <trkpt lat="48.89536" lon="7.39739">
        <ele>299.05992953211</ele>
        <time>2021-03-30T12:22:22.966Z</time>
      </trkpt>
      <trkpt lat="48.89523" lon="7.3973">
        <ele>298.15004321308</ele>
        <time>2021-03-30T12:22:25.614Z</time>
      </trkpt>
      <trkpt lat="48.89465" lon="7.39701">
        <ele>296.85620594399</ele>
        <time>2021-03-30T12:22:28.282Z</time>
      </trkpt>
      <trkpt lat="48.89454" lon="7.39692">
        <ele>295.65299323916</ele>
        <time>2021-03-30T12:22:30.954Z</time>
      </trkpt>
      <trkpt lat="48.89451" lon="7.39686">
        <ele>294.41181307335</ele>
        <time>2021-03-30T12:22:33.628Z</time>
      </trkpt>
      <trkpt lat="48.89447" lon="7.39673">
        <ele>293.06324617618</ele>
        <time>2021-03-30T12:22:36.305Z</time>
      </trkpt>
      <trkpt lat="48.89446" lon="7.39652">
        <ele>291.63949232828</ele>
        <time>2021-03-30T12:22:38.987Z</time>
      </trkpt>
      <trkpt lat="48.89442" lon="7.39615">
        <ele>290.16467863574</ele>
        <time>2021-03-30T12:22:41.677Z</time>
      </trkpt>
      <trkpt lat="48.89438" lon="7.39601">
        <ele>288.57462307618</ele>
        <time>2021-03-30T12:22:44.370Z</time>
      </trkpt>
      <trkpt lat="48.89431" lon="7.39586">
        <ele>286.87289094711</ele>
        <time>2021-03-30T12:22:47.067Z</time>
      </trkpt>
      <trkpt lat="48.89422" lon="7.39575">
        <ele>285.09162464581</ele>
        <time>2021-03-30T12:22:49.768Z</time>
      </trkpt>
      <trkpt lat="48.89359" lon="7.39523">
        <ele>282.73025447759</ele>
        <time>2021-03-30T12:22:52.493Z</time>
      </trkpt>
      <trkpt lat="48.89352" lon="7.39514">
        <ele>280.9017038903</ele>
        <time>2021-03-30T12:22:55.221Z</time>
      </trkpt>
      <trkpt lat="48.89348" lon="7.395">
        <ele>279.04698984409</ele>
        <time>2021-03-30T12:22:57.952Z</time>
      </trkpt>
      <trkpt lat="48.89346" lon="7.39458">
        <ele>277.11295654779</ele>
        <time>2021-03-30T12:23:00.693Z</time>
      </trkpt>
      <trkpt lat="48.89344" lon="7.39428">
        <ele>275.36979557889</ele>
        <time>2021-03-30T12:23:03.440Z</time>
      </trkpt>
      <trkpt lat="48.89341" lon="7.39411">
        <ele>273.67894731864</ele>
        <time>2021-03-30T12:23:06.191Z</time>
      </trkpt>
      <trkpt lat="48.89318" lon="7.39378">
        <ele>272.03931277657</ele>
        <time>2021-03-30T12:23:08.953Z</time>
      </trkpt>
      <trkpt lat="48.89308" lon="7.39377">
        <ele>270.27273053019</ele>
        <time>2021-03-30T12:23:11.718Z</time>
      </trkpt>
      <trkpt lat="48.89301" lon="7.39374">
        <ele>268.54649687437</ele>
        <time>2021-03-30T12:23:14.486Z</time>
      </trkpt>
      <trkpt lat="48.89294" lon="7.3937">
        <ele>266.85830112391</ele>
        <time>2021-03-30T12:23:17.256Z</time>
      </trkpt>
      <trkpt lat="48.89286" lon="7.39359">
        <ele>265.19151849727</ele>
        <time>2021-03-30T12:23:20.030Z</time>
      </trkpt>
      <trkpt lat="48.89271" lon="7.39341">
        <ele>263.46835233741</ele>
        <time>2021-03-30T12:23:22.810Z</time>
      </trkpt>
      <trkpt lat="48.89249" lon="7.39311">
        <ele>261.61686515982</ele>
        <time>2021-03-30T12:23:25.600Z</time>
      </trkpt>
      <trkpt lat="48.89233" lon="7.39287">
        <ele>259.81127828132</ele>
        <time>2021-03-30T12:23:28.397Z</time>
      </trkpt>
      <trkpt lat="48.89215" lon="7.39265">
        <ele>258.17695181933</ele>
        <time>2021-03-30T12:23:31.202Z</time>
      </trkpt>
      <trkpt lat="48.89197" lon="7.39247">
        <ele>256.5537305628</ele>
        <time>2021-03-30T12:23:34.014Z</time>
      </trkpt>
      <trkpt lat="48.89188" lon="7.39235">
        <ele>254.9867501207</ele>
        <time>2021-03-30T12:23:36.830Z</time>
      </trkpt>
      <trkpt lat="48.89181" lon="7.39221">
        <ele>253.48546278181</ele>
        <time>2021-03-30T12:23:39.650Z</time>
      </trkpt>
      <trkpt lat="48.89171" lon="7.39205">
        <ele>252.04815663611</ele>
        <time>2021-03-30T12:23:42.475Z</time>
      </trkpt>
      <trkpt lat="48.89159" lon="7.3919">
        <ele>250.69509925562</ele>
        <time>2021-03-30T12:23:45.305Z</time>
      </trkpt>
      <trkpt lat="48.89143" lon="7.3917">
        <ele>249.49894838296</ele>
        <time>2021-03-30T12:23:48.142Z</time>
      </trkpt>
      <trkpt lat="48.89132" lon="7.39155">
        <ele>248.38642241514</ele>
        <time>2021-03-30T12:23:50.984Z</time>
      </trkpt>
      <trkpt lat="48.89123" lon="7.39136">
        <ele>247.33491406753</ele>
        <time>2021-03-30T12:23:53.831Z</time>
      </trkpt>
      <trkpt lat="48.89112" lon="7.39109">
        <ele>246.22273708811</ele>
        <time>2021-03-30T12:23:56.685Z</time>
      </trkpt>
      <trkpt lat="48.89104" lon="7.39083">
        <ele>245.25258775439</ele>
        <time>2021-03-30T12:23:59.545Z</time>
      </trkpt>
      <trkpt lat="48.89098" lon="7.39055">
        <ele>244.40523608702</ele>
        <time>2021-03-30T12:24:02.412Z</time>
      </trkpt>
      <trkpt lat="48.89083" lon="7.38976">
        <ele>243.48877340111</ele>
        <time>2021-03-30T12:24:05.297Z</time>
      </trkpt>
      <trkpt lat="48.89075" lon="7.38935">
        <ele>242.76429171387</ele>
        <time>2021-03-30T12:24:08.192Z</time>
      </trkpt>
      <trkpt lat="48.89068" lon="7.38901">
        <ele>242.16130680771</ele>
        <time>2021-03-30T12:24:11.094Z</time>
      </trkpt>
      <trkpt lat="48.89065" lon="7.38892">
        <ele>241.69989417326</ele>
        <time>2021-03-30T12:24:13.998Z</time>
      </trkpt>
      <trkpt lat="48.89061" lon="7.38887">
        <ele>241.34179114169</ele>
        <time>2021-03-30T12:24:16.904Z</time>
      </trkpt>
      <trkpt lat="48.89046" lon="7.38869">
        <ele>241.00480165101</ele>
        <time>2021-03-30T12:24:19.817Z</time>
      </trkpt>
      <trkpt lat="48.89014" lon="7.38836">
        <ele>240.8166402602</ele>
        <time>2021-03-30T12:24:22.742Z</time>
      </trkpt>
      <trkpt lat="48.88983" lon="7.38808">
        <ele>240.78261479851</ele>
        <time>2021-03-30T12:24:25.680Z</time>
      </trkpt>
      <trkpt lat="48.88962" lon="7.38791">
        <ele>241.00923214493</ele>
        <time>2021-03-30T12:24:28.626Z</time>
      </trkpt>
      <trkpt lat="48.88959" lon="7.38788">
        <ele>241.16543414541</ele>
        <time>2021-03-30T12:24:31.573Z</time>
      </trkpt>
      <trkpt lat="48.88955" lon="7.38784">
        <ele>241.38631613967</ele>
        <time>2021-03-30T12:24:34.521Z</time>
      </trkpt>
      <trkpt lat="48.88952" lon="7.38778">
        <ele>241.66897260727</ele>
        <time>2021-03-30T12:24:37.471Z</time>
      </trkpt>
      <trkpt lat="48.8895" lon="7.38779">
        <ele>241.9596051128</ele>
        <time>2021-03-30T12:24:40.422Z</time>
      </trkpt>
      <trkpt lat="48.88945" lon="7.3878">
        <ele>242.30378996163</ele>
        <time>2021-03-30T12:24:43.374Z</time>
      </trkpt>
      <trkpt lat="48.88938" lon="7.38779">
        <ele>242.67665684689</ele>
        <time>2021-03-30T12:24:46.328Z</time>
      </trkpt>
      <trkpt lat="48.88934" lon="7.38778">
        <ele>243.04068733183</ele>
        <time>2021-03-30T12:24:49.284Z</time>
      </trkpt>
      <trkpt lat="48.88925" lon="7.38777">
        <ele>243.39694622837</ele>
        <time>2021-03-30T12:24:52.243Z</time>
      </trkpt>
      <trkpt lat="48.88918" lon="7.38778">
        <ele>243.68449796553</ele>
        <time>2021-03-30T12:24:55.204Z</time>
      </trkpt>
      <trkpt lat="48.88911" lon="7.3878">
        <ele>243.94274236757</ele>
        <time>2021-03-30T12:24:58.168Z</time>
      </trkpt>
      <trkpt lat="48.88904" lon="7.38783">
        <ele>244.17535487455</ele>
        <time>2021-03-30T12:25:01.134Z</time>
      </trkpt>
      <trkpt lat="48.88898" lon="7.3879">
        <ele>244.36681529206</ele>
        <time>2021-03-30T12:25:04.103Z</time>
      </trkpt>
      <trkpt lat="48.88894" lon="7.38796">
        <ele>244.50084083206</ele>
        <time>2021-03-30T12:25:07.073Z</time>
      </trkpt>
      <trkpt lat="48.8889" lon="7.38808">
        <ele>244.6115702815</ele>
        <time>2021-03-30T12:25:10.047Z</time>
      </trkpt>
      <trkpt lat="48.88884" lon="7.38832">
        <ele>244.69929778126</ele>
        <time>2021-03-30T12:25:13.026Z</time>
      </trkpt>
      <trkpt lat="48.88881" lon="7.38847">
        <ele>244.74771247509</ele>
        <time>2021-03-30T12:25:16.009Z</time>
      </trkpt>
      <trkpt lat="48.88865" lon="7.38832">
        <ele>244.69184975406</ele>
        <time>2021-03-30T12:25:18.998Z</time>
      </trkpt>
      <trkpt lat="48.88854" lon="7.38827">
        <ele>244.59214103405</ele>
        <time>2021-03-30T12:25:21.991Z</time>
      </trkpt>
      <trkpt lat="48.8884" lon="7.38826">
        <ele>244.46283960541</ele>
        <time>2021-03-30T12:25:24.988Z</time>
      </trkpt>
      <trkpt lat="48.88827" lon="7.38824">
        <ele>244.2821598424</ele>
        <time>2021-03-30T12:25:27.990Z</time>
      </trkpt>
      <trkpt lat="48.88819" lon="7.38821">
        <ele>244.02200396189</ele>
        <time>2021-03-30T12:25:30.994Z</time>
      </trkpt>
      <trkpt lat="48.88811" lon="7.38814">
        <ele>243.69241446906</ele>
        <time>2021-03-30T12:25:34.002Z</time>
      </trkpt>
      <trkpt lat="48.88795" lon="7.3878">
        <ele>243.31114460635</ele>
        <time>2021-03-30T12:25:37.019Z</time>
      </trkpt>
      <trkpt lat="48.88778" lon="7.38756">
        <ele>242.78931790037</ele>
        <time>2021-03-30T12:25:40.043Z</time>
      </trkpt>
      <trkpt lat="48.88755" lon="7.38731">
        <ele>242.11527396365</ele>
        <time>2021-03-30T12:25:43.077Z</time>
      </trkpt>
      <trkpt lat="48.88735" lon="7.38709">
        <ele>241.40864201878</ele>
        <time>2021-03-30T12:25:46.119Z</time>
      </trkpt>
      <trkpt lat="48.88712" lon="7.38686">
        <ele>240.77222997076</ele>
        <time>2021-03-30T12:25:49.170Z</time>
      </trkpt>
      <trkpt lat="48.88684" lon="7.38658">
        <ele>240.00771570965</ele>
        <time>2021-03-30T12:25:52.233Z</time>
      </trkpt>
      <trkpt lat="48.88666" lon="7.38636">
        <ele>239.24626619452</ele>
        <time>2021-03-30T12:25:55.303Z</time>
      </trkpt>
      <trkpt lat="48.88662" lon="7.38632">
        <ele>238.45034274876</ele>
        <time>2021-03-30T12:25:58.375Z</time>
      </trkpt>
      <trkpt lat="48.88658" lon="7.38628">
        <ele>237.63103820911</ele>
        <time>2021-03-30T12:26:01.448Z</time>
      </trkpt>
      <trkpt lat="48.88649" lon="7.38619">
        <ele>236.78911734701</ele>
        <time>2021-03-30T12:26:04.525Z</time>
      </trkpt>
      <trkpt lat="48.88629" lon="7.38603">
        <ele>235.95428897596</ele>
        <time>2021-03-30T12:26:07.610Z</time>
      </trkpt>
      <trkpt lat="48.88609" lon="7.38588">
        <ele>235.13791161026</ele>
        <time>2021-03-30T12:26:10.702Z</time>
      </trkpt>
      <trkpt lat="48.88593" lon="7.38574">
        <ele>234.34998226845</ele>
        <time>2021-03-30T12:26:13.800Z</time>
      </trkpt>
      <trkpt lat="48.88557" lon="7.38544">
        <ele>233.39240348051</ele>
        <time>2021-03-30T12:26:16.912Z</time>
      </trkpt>
      <trkpt lat="48.88535" lon="7.38526">
        <ele>232.61891518807</ele>
        <time>2021-03-30T12:26:20.032Z</time>
      </trkpt>
      <trkpt lat="48.88521" lon="7.38514">
        <ele>231.98341727478</ele>
        <time>2021-03-30T12:26:23.158Z</time>
      </trkpt>
      <trkpt lat="48.88515" lon="7.38507">
        <ele>231.46830263198</ele>
        <time>2021-03-30T12:26:26.286Z</time>
      </trkpt>
      <trkpt lat="48.8851" lon="7.38501">
        <ele>231.06897518019</ele>
        <time>2021-03-30T12:26:29.416Z</time>
      </trkpt>
      <trkpt lat="48.88496" lon="7.3848">
        <ele>230.74893522902</ele>
        <time>2021-03-30T12:26:32.553Z</time>
      </trkpt>
      <trkpt lat="48.88478" lon="7.38459">
        <ele>230.57951277717</ele>
        <time>2021-03-30T12:26:35.697Z</time>
      </trkpt>
      <trkpt lat="48.88466" lon="7.38442">
        <ele>230.63108781472</ele>
        <time>2021-03-30T12:26:38.847Z</time>
      </trkpt>
      <trkpt lat="48.88451" lon="7.38421">
        <ele>230.84485520362</ele>
        <time>2021-03-30T12:26:42.004Z</time>
      </trkpt>
      <trkpt lat="48.88441" lon="7.38404">
        <ele>231.20408958438</ele>
        <time>2021-03-30T12:26:45.166Z</time>
      </trkpt>
      <trkpt lat="48.88432" lon="7.38383">
        <ele>231.72711921561</ele>
        <time>2021-03-30T12:26:48.333Z</time>
      </trkpt>
      <trkpt lat="48.8842" lon="7.38354">
        <ele>232.46846046999</ele>
        <time>2021-03-30T12:26:51.508Z</time>
      </trkpt>
      <trkpt lat="48.88408" lon="7.38332">
        <ele>233.4517168343</ele>
        <time>2021-03-30T12:26:54.689Z</time>
      </trkpt>
      <trkpt lat="48.88397" lon="7.38336">
        <ele>234.67337325518</ele>
        <time>2021-03-30T12:26:57.874Z</time>
      </trkpt>
      <trkpt lat="48.88397" lon="7.38335">
        <ele>236.01852034152</ele>
        <time>2021-03-30T12:27:01.059Z</time>
      </trkpt>
      <trkpt lat="48.88397" lon="7.38335">
        <ele>237.52813350427</ele>
        <time>2021-03-30T12:27:04.244Z</time>
      </trkpt>
      <trkpt lat="48.88397" lon="7.38334">
        <ele>239.18530221205</ele>
        <time>2021-03-30T12:27:07.429Z</time>
      </trkpt>
      <trkpt lat="48.8839" lon="7.38306">
        <ele>240.97387114547</ele>
        <time>2021-03-30T12:27:10.621Z</time>
      </trkpt>
      <trkpt lat="48.88367" lon="7.38269">
        <ele>242.93841621254</ele>
        <time>2021-03-30T12:27:13.824Z</time>
      </trkpt>
      <trkpt lat="48.88295" lon="7.38168">
        <ele>245.86069786626</ele>
        <time>2021-03-30T12:27:17.060Z</time>
      </trkpt>
      <trkpt lat="48.88184" lon="7.37998">
        <ele>248.6695660702</ele>
        <time>2021-03-30T12:27:20.348Z</time>
      </trkpt>
      <trkpt lat="48.88122" lon="7.37887">
        <ele>250.66876582398</ele>
        <time>2021-03-30T12:27:23.668Z</time>
      </trkpt>
      <trkpt lat="48.88108" lon="7.37861">
        <ele>252.46598136857</ele>
        <time>2021-03-30T12:27:26.996Z</time>
      </trkpt>
      <trkpt lat="48.88106" lon="7.37858">
        <ele>254.11951853839</ele>
        <time>2021-03-30T12:27:30.325Z</time>
      </trkpt>
      <trkpt lat="48.88088" lon="7.37829">
        <ele>255.48301387407</ele>
        <time>2021-03-30T12:27:33.662Z</time>
      </trkpt>
      <trkpt lat="48.88064" lon="7.37796">
        <ele>256.76838512987</ele>
        <time>2021-03-30T12:27:37.010Z</time>
      </trkpt>
      <trkpt lat="48.88046" lon="7.37778">
        <ele>257.95811252648</ele>
        <time>2021-03-30T12:27:40.365Z</time>
      </trkpt>
      <trkpt lat="48.88032" lon="7.37763">
        <ele>258.9861433477</ele>
        <time>2021-03-30T12:27:43.726Z</time>
      </trkpt>
      <trkpt lat="48.88021" lon="7.37749">
        <ele>259.86008033848</ele>
        <time>2021-03-30T12:27:47.092Z</time>
      </trkpt>
      <trkpt lat="48.88012" lon="7.37739">
        <ele>260.53260298291</ele>
        <time>2021-03-30T12:27:50.462Z</time>
      </trkpt>
      <trkpt lat="48.88005" lon="7.37734">
        <ele>261.02009077258</ele>
        <time>2021-03-30T12:27:53.834Z</time>
      </trkpt>
      <trkpt lat="48.87993" lon="7.37728">
        <ele>261.32038051559</ele>
        <time>2021-03-30T12:27:57.211Z</time>
      </trkpt>
      <trkpt lat="48.87976" lon="7.37717">
        <ele>261.45401188835</ele>
        <time>2021-03-30T12:28:00.594Z</time>
      </trkpt>
      <trkpt lat="48.87958" lon="7.37707">
        <ele>261.38401577741</ele>
        <time>2021-03-30T12:28:03.983Z</time>
      </trkpt>
      <trkpt lat="48.87943" lon="7.37699">
        <ele>261.15430018566</ele>
        <time>2021-03-30T12:28:07.377Z</time>
      </trkpt>
      <trkpt lat="48.87931" lon="7.37691">
        <ele>260.83494688624</ele>
        <time>2021-03-30T12:28:10.776Z</time>
      </trkpt>
      <trkpt lat="48.87919" lon="7.37678">
        <ele>260.43462110843</ele>
        <time>2021-03-30T12:28:14.180Z</time>
      </trkpt>
      <trkpt lat="48.87894" lon="7.37656">
        <ele>259.88966801341</ele>
        <time>2021-03-30T12:28:17.593Z</time>
      </trkpt>
      <trkpt lat="48.87873" lon="7.37636">
        <ele>259.33534008914</ele>
        <time>2021-03-30T12:28:21.015Z</time>
      </trkpt>
      <trkpt lat="48.87849" lon="7.37616">
        <ele>258.79844828894</ele>
        <time>2021-03-30T12:28:24.446Z</time>
      </trkpt>
      <trkpt lat="48.87827" lon="7.376">
        <ele>258.09437482467</ele>
        <time>2021-03-30T12:28:27.885Z</time>
      </trkpt>
      <trkpt lat="48.87803" lon="7.37584">
        <ele>257.26146400581</ele>
        <time>2021-03-30T12:28:31.333Z</time>
      </trkpt>
      <trkpt lat="48.87803" lon="7.37584">
        <ele>255.76853638594</ele>
        <time>2021-03-30T12:28:34.781Z</time>
      </trkpt>
      <trkpt lat="48.87784" lon="7.37577">
        <ele>254.86146973996</ele>
        <time>2021-03-30T12:28:38.235Z</time>
      </trkpt>
      <trkpt lat="48.87778" lon="7.37585">
        <ele>254.05395004072</ele>
        <time>2021-03-30T12:28:41.692Z</time>
      </trkpt>
      <trkpt lat="48.87775" lon="7.3759">
        <ele>253.28019816484</ele>
        <time>2021-03-30T12:28:45.150Z</time>
      </trkpt>
      <trkpt lat="48.8777" lon="7.37582">
        <ele>252.55144738852</ele>
        <time>2021-03-30T12:28:48.611Z</time>
      </trkpt>
      <trkpt lat="48.87769" lon="7.37578">
        <ele>251.85848554179</ele>
        <time>2021-03-30T12:28:52.073Z</time>
      </trkpt>
      <trkpt lat="48.87766" lon="7.37574">
        <ele>251.18695239286</ele>
        <time>2021-03-30T12:28:55.536Z</time>
      </trkpt>
      <trkpt lat="48.87752" lon="7.37545">
        <ele>250.52321709273</ele>
        <time>2021-03-30T12:28:59.007Z</time>
      </trkpt>
      <trkpt lat="48.87751" lon="7.37544">
        <ele>249.94058960777</ele>
        <time>2021-03-30T12:29:02.478Z</time>
      </trkpt>
      <trkpt lat="48.87742" lon="7.37523">
        <ele>249.39855831329</ele>
        <time>2021-03-30T12:29:05.955Z</time>
      </trkpt>
      <trkpt lat="48.87733" lon="7.37497">
        <ele>248.94454118893</ele>
        <time>2021-03-30T12:29:09.438Z</time>
      </trkpt>
      <trkpt lat="48.87722" lon="7.37463">
        <ele>248.53011958856</ele>
        <time>2021-03-30T12:29:12.929Z</time>
      </trkpt>
      <trkpt lat="48.87712" lon="7.37429">
        <ele>248.05083616399</ele>
        <time>2021-03-30T12:29:16.429Z</time>
      </trkpt>
      <trkpt lat="48.87706" lon="7.37405">
        <ele>247.57686802285</ele>
        <time>2021-03-30T12:29:19.934Z</time>
      </trkpt>
      <trkpt lat="48.87701" lon="7.37376">
        <ele>247.0827764107</ele>
        <time>2021-03-30T12:29:23.446Z</time>
      </trkpt>
      <trkpt lat="48.87698" lon="7.37353">
        <ele>246.61484491826</ele>
        <time>2021-03-30T12:29:26.963Z</time>
      </trkpt>
      <trkpt lat="48.87694" lon="7.37327">
        <ele>246.21481255365</ele>
        <time>2021-03-30T12:29:30.486Z</time>
      </trkpt>
      <trkpt lat="48.87694" lon="7.37321">
        <ele>245.89892336997</ele>
        <time>2021-03-30T12:29:34.010Z</time>
      </trkpt>
      <trkpt lat="48.87687" lon="7.3728">
        <ele>245.51783991783</ele>
        <time>2021-03-30T12:29:37.544Z</time>
      </trkpt>
      <trkpt lat="48.87683" lon="7.37252">
        <ele>245.256551827</ele>
        <time>2021-03-30T12:29:41.084Z</time>
      </trkpt>
      <trkpt lat="48.87681" lon="7.37237">
        <ele>245.06088325034</ele>
        <time>2021-03-30T12:29:44.627Z</time>
      </trkpt>
      <trkpt lat="48.8768" lon="7.37217">
        <ele>244.91310205274</ele>
        <time>2021-03-30T12:29:48.175Z</time>
      </trkpt>
      <trkpt lat="48.87679" lon="7.3719">
        <ele>244.80159369782</ele>
        <time>2021-03-30T12:29:51.729Z</time>
      </trkpt>
      <trkpt lat="48.87678" lon="7.37173">
        <ele>244.66742524628</ele>
        <time>2021-03-30T12:29:55.286Z</time>
      </trkpt>
      <trkpt lat="48.87678" lon="7.37142">
        <ele>244.52118906775</ele>
        <time>2021-03-30T12:29:58.850Z</time>
      </trkpt>
      <trkpt lat="48.87677" lon="7.37125">
        <ele>244.32288629167</ele>
        <time>2021-03-30T12:30:02.418Z</time>
      </trkpt>
      <trkpt lat="48.87677" lon="7.37111">
        <ele>244.10574089286</ele>
        <time>2021-03-30T12:30:05.989Z</time>
      </trkpt>
      <trkpt lat="48.87675" lon="7.37097">
        <ele>243.89360905237</ele>
        <time>2021-03-30T12:30:09.563Z</time>
      </trkpt>
      <trkpt lat="48.87673" lon="7.37077">
        <ele>243.66355080283</ele>
        <time>2021-03-30T12:30:13.142Z</time>
      </trkpt>
      <trkpt lat="48.87669" lon="7.37042">
        <ele>243.35986209326</ele>
        <time>2021-03-30T12:30:16.728Z</time>
      </trkpt>
      <trkpt lat="48.87667" lon="7.3703">
        <ele>243.05945003049</ele>
        <time>2021-03-30T12:30:20.317Z</time>
      </trkpt>
      <trkpt lat="48.87667" lon="7.37022">
        <ele>242.75659274739</ele>
        <time>2021-03-30T12:30:23.908Z</time>
      </trkpt>
      <trkpt lat="48.87667" lon="7.37014">
        <ele>242.44522937568</ele>
        <time>2021-03-30T12:30:27.501Z</time>
      </trkpt>
      <trkpt lat="48.87667" lon="7.37005">
        <ele>242.08605015574</ele>
        <time>2021-03-30T12:30:31.096Z</time>
      </trkpt>
      <trkpt lat="48.87667" lon="7.36986">
        <ele>241.68074462522</ele>
        <time>2021-03-30T12:30:34.695Z</time>
      </trkpt>
      <trkpt lat="48.87667" lon="7.36976">
        <ele>241.28828185115</ele>
        <time>2021-03-30T12:30:38.296Z</time>
      </trkpt>
      <trkpt lat="48.87666" lon="7.36966">
        <ele>240.86830610973</ele>
        <time>2021-03-30T12:30:41.899Z</time>
      </trkpt>
      <trkpt lat="48.87665" lon="7.36957">
        <ele>240.41955543409</ele>
        <time>2021-03-30T12:30:45.504Z</time>
      </trkpt>
      <trkpt lat="48.87659" lon="7.36935">
        <ele>239.92266989791</ele>
        <time>2021-03-30T12:30:49.114Z</time>
      </trkpt>
      <trkpt lat="48.87652" lon="7.36909">
        <ele>239.38722411029</ele>
        <time>2021-03-30T12:30:52.731Z</time>
      </trkpt>
      <trkpt lat="48.87643" lon="7.36885">
        <ele>238.82655140278</ele>
        <time>2021-03-30T12:30:56.354Z</time>
      </trkpt>
      <trkpt lat="48.87639" lon="7.36877">
        <ele>238.30777250918</ele>
        <time>2021-03-30T12:30:59.979Z</time>
      </trkpt>
      <trkpt lat="48.8762" lon="7.36847">
        <ele>237.69801356299</ele>
        <time>2021-03-30T12:31:03.613Z</time>
      </trkpt>
      <trkpt lat="48.87604" lon="7.36823">
        <ele>237.12463165008</ele>
        <time>2021-03-30T12:31:07.254Z</time>
      </trkpt>
      <trkpt lat="48.87598" lon="7.36811">
        <ele>236.63300852314</ele>
        <time>2021-03-30T12:31:10.899Z</time>
      </trkpt>
      <trkpt lat="48.87595" lon="7.36799">
        <ele>236.15878796975</ele>
        <time>2021-03-30T12:31:14.547Z</time>
      </trkpt>
      <trkpt lat="48.87592" lon="7.36784">
        <ele>235.66689606881</ele>
        <time>2021-03-30T12:31:18.198Z</time>
      </trkpt>
      <trkpt lat="48.87588" lon="7.36752">
        <ele>235.13927994593</ele>
        <time>2021-03-30T12:31:21.856Z</time>
      </trkpt>
      <trkpt lat="48.87586" lon="7.36731">
        <ele>234.65357565024</ele>
        <time>2021-03-30T12:31:25.519Z</time>
      </trkpt>
      <trkpt lat="48.87585" lon="7.36715">
        <ele>234.20815564744</ele>
        <time>2021-03-30T12:31:29.186Z</time>
      </trkpt>
      <trkpt lat="48.87584" lon="7.36701">
        <ele>233.79815209638</ele>
        <time>2021-03-30T12:31:32.856Z</time>
      </trkpt>
      <trkpt lat="48.87581" lon="7.36667">
        <ele>233.4138150358</ele>
        <time>2021-03-30T12:31:36.533Z</time>
      </trkpt>
      <trkpt lat="48.87581" lon="7.36648">
        <ele>233.15911493567</ele>
        <time>2021-03-30T12:31:40.214Z</time>
      </trkpt>
      <trkpt lat="48.87581" lon="7.36634">
        <ele>232.87729153941</ele>
        <time>2021-03-30T12:31:43.899Z</time>
      </trkpt>
      <trkpt lat="48.87581" lon="7.36618">
        <ele>232.64869750024</ele>
        <time>2021-03-30T12:31:47.587Z</time>
      </trkpt>
      <trkpt lat="48.87581" lon="7.36599">
        <ele>232.43812269405</ele>
        <time>2021-03-30T12:31:51.279Z</time>
      </trkpt>
      <trkpt lat="48.87579" lon="7.36569">
        <ele>232.26155125224</ele>
        <time>2021-03-30T12:31:54.978Z</time>
      </trkpt>
      <trkpt lat="48.87578" lon="7.36546">
        <ele>232.02130926653</ele>
        <time>2021-03-30T12:31:58.682Z</time>
      </trkpt>
      <trkpt lat="48.87576" lon="7.36535">
        <ele>231.75924409401</ele>
        <time>2021-03-30T12:32:02.388Z</time>
      </trkpt>
      <trkpt lat="48.87575" lon="7.36524">
        <ele>231.51833626117</ele>
        <time>2021-03-30T12:32:06.097Z</time>
      </trkpt>
      <trkpt lat="48.87571" lon="7.3651">
        <ele>231.23651434799</ele>
        <time>2021-03-30T12:32:09.809Z</time>
      </trkpt>
      <trkpt lat="48.87568" lon="7.36495">
        <ele>230.95285800739</ele>
        <time>2021-03-30T12:32:13.525Z</time>
      </trkpt>
      <trkpt lat="48.8756" lon="7.36469">
        <ele>230.62154620777</ele>
        <time>2021-03-30T12:32:17.247Z</time>
      </trkpt>
      <trkpt lat="48.87555" lon="7.36449">
        <ele>230.31825256997</ele>
        <time>2021-03-30T12:32:20.974Z</time>
      </trkpt>
      <trkpt lat="48.87552" lon="7.36435">
        <ele>230.05300806358</ele>
        <time>2021-03-30T12:32:24.704Z</time>
      </trkpt>
      <trkpt lat="48.8755" lon="7.36424">
        <ele>229.81493066252</ele>
        <time>2021-03-30T12:32:28.436Z</time>
      </trkpt>
      <trkpt lat="48.87549" lon="7.3641">
        <ele>229.58262534228</ele>
        <time>2021-03-30T12:32:32.171Z</time>
      </trkpt>
      <trkpt lat="48.87548" lon="7.36393">
        <ele>229.35783088148</ele>
        <time>2021-03-30T12:32:35.910Z</time>
      </trkpt>
      <trkpt lat="48.87548" lon="7.3636">
        <ele>229.15078029886</ele>
        <time>2021-03-30T12:32:39.656Z</time>
      </trkpt>
      <trkpt lat="48.8755" lon="7.36313">
        <ele>228.93753928127</ele>
        <time>2021-03-30T12:32:43.413Z</time>
      </trkpt>
      <trkpt lat="48.87552" lon="7.36274">
        <ele>228.6882004202</ele>
        <time>2021-03-30T12:32:47.178Z</time>
      </trkpt>
      <trkpt lat="48.87553" lon="7.36263">
        <ele>228.45877599643</ele>
        <time>2021-03-30T12:32:50.946Z</time>
      </trkpt>
      <trkpt lat="48.87556" lon="7.36245">
        <ele>228.22770447312</ele>
        <time>2021-03-30T12:32:54.718Z</time>
      </trkpt>
      <trkpt lat="48.87557" lon="7.36229">
        <ele>227.96623759626</ele>
        <time>2021-03-30T12:32:58.493Z</time>
      </trkpt>
      <trkpt lat="48.87558" lon="7.36216">
        <ele>227.68717488373</ele>
        <time>2021-03-30T12:33:02.271Z</time>
      </trkpt>
      <trkpt lat="48.8756" lon="7.36179">
        <ele>227.44177990752</ele>
        <time>2021-03-30T12:33:06.058Z</time>
      </trkpt>
      <trkpt lat="48.8756" lon="7.3614">
        <ele>227.31488883263</ele>
        <time>2021-03-30T12:33:09.853Z</time>
      </trkpt>
      <trkpt lat="48.87561" lon="7.36108">
        <ele>227.06306356593</ele>
        <time>2021-03-30T12:33:13.655Z</time>
      </trkpt>
      <trkpt lat="48.87563" lon="7.36081">
        <ele>226.78845663842</ele>
        <time>2021-03-30T12:33:17.463Z</time>
      </trkpt>
      <trkpt lat="48.87566" lon="7.36041">
        <ele>226.49633079637</ele>
        <time>2021-03-30T12:33:21.280Z</time>
      </trkpt>
      <trkpt lat="48.87567" lon="7.36029">
        <ele>226.19609923729</ele>
        <time>2021-03-30T12:33:25.100Z</time>
      </trkpt>
      <trkpt lat="48.87567" lon="7.36021">
        <ele>225.91719350216</ele>
        <time>2021-03-30T12:33:28.921Z</time>
      </trkpt>
      <trkpt lat="48.87566" lon="7.36015">
        <ele>225.667849586</ele>
        <time>2021-03-30T12:33:32.744Z</time>
      </trkpt>
      <trkpt lat="48.87564" lon="7.36004">
        <ele>225.44735779602</ele>
        <time>2021-03-30T12:33:36.569Z</time>
      </trkpt>
      <trkpt lat="48.87562" lon="7.35995">
        <ele>225.28933083212</ele>
        <time>2021-03-30T12:33:40.396Z</time>
      </trkpt>
      <trkpt lat="48.87557" lon="7.35967">
        <ele>225.16807693607</ele>
        <time>2021-03-30T12:33:44.230Z</time>
      </trkpt>
      <trkpt lat="48.87554" lon="7.35952">
        <ele>225.1983229104</ele>
        <time>2021-03-30T12:33:48.067Z</time>
      </trkpt>
      <trkpt lat="48.87554" lon="7.35939">
        <ele>225.34958565981</ele>
        <time>2021-03-30T12:33:51.907Z</time>
      </trkpt>
      <trkpt lat="48.87539" lon="7.35951">
        <ele>225.54808616458</ele>
        <time>2021-03-30T12:33:55.753Z</time>
      </trkpt>
      <trkpt lat="48.8753" lon="7.35963">
        <ele>225.94523000523</ele>
        <time>2021-03-30T12:33:59.603Z</time>
      </trkpt>
      <trkpt lat="48.87513" lon="7.35982">
        <ele>226.43877854602</ele>
        <time>2021-03-30T12:34:03.460Z</time>
      </trkpt>
      <trkpt lat="48.87508" lon="7.3599">
        <ele>227.13991671515</ele>
        <time>2021-03-30T12:34:07.319Z</time>
      </trkpt>
      <trkpt lat="48.87508" lon="7.35877">
        <ele>228.1319781244</ele>
        <time>2021-03-30T12:34:11.203Z</time>
      </trkpt>
      <trkpt lat="48.87506" lon="7.35859">
        <ele>229.21881071585</ele>
        <time>2021-03-30T12:34:15.091Z</time>
      </trkpt>
      <trkpt lat="48.87505" lon="7.35845">
        <ele>230.44082183831</ele>
        <time>2021-03-30T12:34:18.982Z</time>
      </trkpt>
      <trkpt lat="48.87497" lon="7.35803">
        <ele>231.94281132711</ele>
        <time>2021-03-30T12:34:22.883Z</time>
      </trkpt>
      <trkpt lat="48.87493" lon="7.35758">
        <ele>233.57799903101</ele>
        <time>2021-03-30T12:34:26.794Z</time>
      </trkpt>
      <trkpt lat="48.87491" lon="7.35698">
        <ele>235.53769165008</ele>
        <time>2021-03-30T12:34:30.718Z</time>
      </trkpt>
      <trkpt lat="48.87488" lon="7.35649">
        <ele>237.57854487025</ele>
        <time>2021-03-30T12:34:34.653Z</time>
      </trkpt>
      <trkpt lat="48.87484" lon="7.35495">
        <ele>240.10555821119</ele>
        <time>2021-03-30T12:34:38.622Z</time>
      </trkpt>
      <trkpt lat="48.87482" lon="7.35488">
        <ele>242.56349544469</ele>
        <time>2021-03-30T12:34:42.592Z</time>
      </trkpt>
      <trkpt lat="48.87475" lon="7.3548">
        <ele>245.29719385305</ele>
        <time>2021-03-30T12:34:46.565Z</time>
      </trkpt>
      <trkpt lat="48.87467" lon="7.35472">
        <ele>248.20214802084</ele>
        <time>2021-03-30T12:34:50.541Z</time>
      </trkpt>
      <trkpt lat="48.87437" lon="7.3545">
        <ele>251.50504185572</ele>
        <time>2021-03-30T12:34:54.529Z</time>
      </trkpt>
      <trkpt lat="48.87327" lon="7.35392">
        <ele>254.80816097829</ele>
        <time>2021-03-30T12:34:58.555Z</time>
      </trkpt>
      <trkpt lat="48.87312" lon="7.35383">
        <ele>257.88708075508</ele>
        <time>2021-03-30T12:35:02.587Z</time>
      </trkpt>
      <trkpt lat="48.87294" lon="7.35369">
        <ele>261.03902277863</ele>
        <time>2021-03-30T12:35:06.626Z</time>
      </trkpt>
      <trkpt lat="48.87265" lon="7.35339">
        <ele>264.30030233407</ele>
        <time>2021-03-30T12:35:10.676Z</time>
      </trkpt>
      <trkpt lat="48.87259" lon="7.35333">
        <ele>267.51045103582</ele>
        <time>2021-03-30T12:35:14.729Z</time>
      </trkpt>
      <trkpt lat="48.87247" lon="7.35322">
        <ele>270.9143600419</ele>
        <time>2021-03-30T12:35:18.786Z</time>
      </trkpt>
      <trkpt lat="48.87215" lon="7.35287">
        <ele>274.79584261224</ele>
        <time>2021-03-30T12:35:22.856Z</time>
      </trkpt>
      <trkpt lat="48.87205" lon="7.35262">
        <ele>278.12075556975</ele>
        <time>2021-03-30T12:35:26.933Z</time>
      </trkpt>
      <trkpt lat="48.87196" lon="7.35238">
        <ele>281.26753397556</ele>
        <time>2021-03-30T12:35:31.016Z</time>
      </trkpt>
      <trkpt lat="48.87189" lon="7.35222">
        <ele>284.29053768223</ele>
        <time>2021-03-30T12:35:35.103Z</time>
      </trkpt>
      <trkpt lat="48.87178" lon="7.352">
        <ele>287.26719265569</ele>
        <time>2021-03-30T12:35:39.196Z</time>
      </trkpt>
      <trkpt lat="48.87168" lon="7.35182">
        <ele>290.05992553346</ele>
        <time>2021-03-30T12:35:43.294Z</time>
      </trkpt>
      <trkpt lat="48.87155" lon="7.35161">
        <ele>292.73980757145</ele>
        <time>2021-03-30T12:35:47.399Z</time>
      </trkpt>
      <trkpt lat="48.8715" lon="7.3515">
        <ele>295.08865460501</ele>
        <time>2021-03-30T12:35:51.507Z</time>
      </trkpt>
      <trkpt lat="48.87146" lon="7.35139">
        <ele>297.27066162328</ele>
        <time>2021-03-30T12:35:55.617Z</time>
      </trkpt>
      <trkpt lat="48.87141" lon="7.35114">
        <ele>299.35360158943</ele>
        <time>2021-03-30T12:35:59.733Z</time>
      </trkpt>
      <trkpt lat="48.87133" lon="7.35074">
        <ele>301.2699583715</ele>
        <time>2021-03-30T12:36:03.858Z</time>
      </trkpt>
      <trkpt lat="48.87128" lon="7.35048">
        <ele>303.00417610456</ele>
        <time>2021-03-30T12:36:07.989Z</time>
      </trkpt>
      <trkpt lat="48.87123" lon="7.3502">
        <ele>304.61076443275</ele>
        <time>2021-03-30T12:36:12.127Z</time>
      </trkpt>
      <trkpt lat="48.87118" lon="7.34986">
        <ele>306.16793378949</ele>
        <time>2021-03-30T12:36:16.272Z</time>
      </trkpt>
      <trkpt lat="48.87112" lon="7.34961">
        <ele>307.62674465763</ele>
        <time>2021-03-30T12:36:20.423Z</time>
      </trkpt>
      <trkpt lat="48.87101" lon="7.34924">
        <ele>309.11045628299</ele>
        <time>2021-03-30T12:36:24.583Z</time>
      </trkpt>
      <trkpt lat="48.87074" lon="7.34836">
        <ele>310.76537724736</ele>
        <time>2021-03-30T12:36:28.765Z</time>
      </trkpt>
      <trkpt lat="48.87055" lon="7.34795">
        <ele>312.10357359718</ele>
        <time>2021-03-30T12:36:32.958Z</time>
      </trkpt>
      <trkpt lat="48.87054" lon="7.34793">
        <ele>313.2848819272</ele>
        <time>2021-03-30T12:36:37.151Z</time>
      </trkpt>
      <trkpt lat="48.87043" lon="7.3476">
        <ele>314.38643936302</ele>
        <time>2021-03-30T12:36:41.352Z</time>
      </trkpt>
      <trkpt lat="48.87033" lon="7.34729">
        <ele>315.43833871058</ele>
        <time>2021-03-30T12:36:45.561Z</time>
      </trkpt>
      <trkpt lat="48.87024" lon="7.34702">
        <ele>316.53264000822</ele>
        <time>2021-03-30T12:36:49.777Z</time>
      </trkpt>
      <trkpt lat="48.8701" lon="7.34675">
        <ele>317.67114932391</ele>
        <time>2021-03-30T12:36:54.000Z</time>
      </trkpt>
      <trkpt lat="48.86968" lon="7.34621">
        <ele>318.76091537112</ele>
        <time>2021-03-30T12:36:58.242Z</time>
      </trkpt>
      <trkpt lat="48.86963" lon="7.34613">
        <ele>319.88539735065</ele>
        <time>2021-03-30T12:37:02.486Z</time>
      </trkpt>
      <trkpt lat="48.86946" lon="7.34474">
        <ele>321.79867867149</ele>
        <time>2021-03-30T12:37:06.761Z</time>
      </trkpt>
      <trkpt lat="48.8694" lon="7.34427">
        <ele>323.04619131386</ele>
        <time>2021-03-30T12:37:11.047Z</time>
      </trkpt>
      <trkpt lat="48.86919" lon="7.34336">
        <ele>324.28742553473</ele>
        <time>2021-03-30T12:37:15.354Z</time>
      </trkpt>
      <trkpt lat="48.86915" lon="7.34321">
        <ele>325.26138921006</ele>
        <time>2021-03-30T12:37:19.664Z</time>
      </trkpt>
      <trkpt lat="48.86915" lon="7.34321">
        <ele>327.17821691818</ele>
        <time>2021-03-30T12:37:23.974Z</time>
      </trkpt>
      <trkpt lat="48.86886" lon="7.34196">
        <ele>328.45320650543</ele>
        <time>2021-03-30T12:37:28.314Z</time>
      </trkpt>
      <trkpt lat="48.86872" lon="7.34126">
        <ele>329.02853215336</ele>
        <time>2021-03-30T12:37:32.670Z</time>
      </trkpt>
      <trkpt lat="48.8685" lon="7.34024">
        <ele>329.8834941002</ele>
        <time>2021-03-30T12:37:37.049Z</time>
      </trkpt>
      <trkpt lat="48.86841" lon="7.33994">
        <ele>330.82806720615</ele>
        <time>2021-03-30T12:37:41.435Z</time>
      </trkpt>
      <trkpt lat="48.86833" lon="7.33977">
        <ele>331.60229258858</ele>
        <time>2021-03-30T12:37:45.826Z</time>
      </trkpt>
      <trkpt lat="48.86823" lon="7.33954">
        <ele>332.36257227227</ele>
        <time>2021-03-30T12:37:50.223Z</time>
      </trkpt>
      <trkpt lat="48.86816" lon="7.33939">
        <ele>333.07230767235</ele>
        <time>2021-03-30T12:37:54.624Z</time>
      </trkpt>
      <trkpt lat="48.86816" lon="7.33939">
        <ele>333.74311864716</ele>
        <time>2021-03-30T12:37:59.025Z</time>
      </trkpt>
      <trkpt lat="48.86811" lon="7.33925">
        <ele>334.41965402692</ele>
        <time>2021-03-30T12:38:03.430Z</time>
      </trkpt>
      <trkpt lat="48.86807" lon="7.33913">
        <ele>335.0871683347</ele>
        <time>2021-03-30T12:38:07.838Z</time>
      </trkpt>
      <trkpt lat="48.86803" lon="7.33904">
        <ele>335.77620383157</ele>
        <time>2021-03-30T12:38:12.248Z</time>
      </trkpt>
      <trkpt lat="48.86799" lon="7.33895">
        <ele>336.46584170807</ele>
        <time>2021-03-30T12:38:16.660Z</time>
      </trkpt>
      <trkpt lat="48.86795" lon="7.33886">
        <ele>337.10835897248</ele>
        <time>2021-03-30T12:38:21.075Z</time>
      </trkpt>
      <trkpt lat="48.86789" lon="7.33866">
        <ele>337.91075785476</ele>
        <time>2021-03-30T12:38:25.495Z</time>
      </trkpt>
      <trkpt lat="48.86784" lon="7.33852">
        <ele>338.65296340427</ele>
        <time>2021-03-30T12:38:29.918Z</time>
      </trkpt>
      <trkpt lat="48.8678" lon="7.33835">
        <ele>339.36739488561</ele>
        <time>2021-03-30T12:38:34.345Z</time>
      </trkpt>
      <trkpt lat="48.86775" lon="7.33819">
        <ele>340.11283007164</ele>
        <time>2021-03-30T12:38:38.776Z</time>
      </trkpt>
      <trkpt lat="48.86771" lon="7.33809">
        <ele>340.85364579534</ele>
        <time>2021-03-30T12:38:43.210Z</time>
      </trkpt>
      <trkpt lat="48.86767" lon="7.33798">
        <ele>341.61025968529</ele>
        <time>2021-03-30T12:38:47.646Z</time>
      </trkpt>
      <trkpt lat="48.86761" lon="7.33784">
        <ele>342.41226364325</ele>
        <time>2021-03-30T12:38:52.086Z</time>
      </trkpt>
      <trkpt lat="48.86753" lon="7.33768">
        <ele>343.24638218491</ele>
        <time>2021-03-30T12:38:56.530Z</time>
      </trkpt>
      <trkpt lat="48.86735" lon="7.33738">
        <ele>344.11658014886</ele>
        <time>2021-03-30T12:39:00.983Z</time>
      </trkpt>
      <trkpt lat="48.86725" lon="7.33721">
        <ele>344.94492937349</ele>
        <time>2021-03-30T12:39:05.441Z</time>
      </trkpt>
      <trkpt lat="48.86716" lon="7.33706">
        <ele>345.69194608087</ele>
        <time>2021-03-30T12:39:09.904Z</time>
      </trkpt>
      <trkpt lat="48.86705" lon="7.33688">
        <ele>346.41358666676</ele>
        <time>2021-03-30T12:39:14.372Z</time>
      </trkpt>
      <trkpt lat="48.86696" lon="7.33674">
        <ele>347.2281196426</ele>
        <time>2021-03-30T12:39:18.845Z</time>
      </trkpt>
      <trkpt lat="48.86688" lon="7.33664">
        <ele>348.05839807946</ele>
        <time>2021-03-30T12:39:23.321Z</time>
      </trkpt>
      <trkpt lat="48.86682" lon="7.33658">
        <ele>348.89341286784</ele>
        <time>2021-03-30T12:39:27.799Z</time>
      </trkpt>
      <trkpt lat="48.86672" lon="7.33653">
        <ele>349.78686282382</ele>
        <time>2021-03-30T12:39:32.281Z</time>
      </trkpt>
      <trkpt lat="48.86663" lon="7.33648">
        <ele>350.61595552497</ele>
        <time>2021-03-30T12:39:36.766Z</time>
      </trkpt>
      <trkpt lat="48.86657" lon="7.33645">
        <ele>351.33924062034</ele>
        <time>2021-03-30T12:39:41.253Z</time>
      </trkpt>
      <trkpt lat="48.86655" lon="7.33644">
        <ele>352.00160903454</ele>
        <time>2021-03-30T12:39:45.741Z</time>
      </trkpt>
      <trkpt lat="48.86644" lon="7.33641">
        <ele>352.63898844402</ele>
        <time>2021-03-30T12:39:50.233Z</time>
      </trkpt>
      <trkpt lat="48.86637" lon="7.33639">
        <ele>353.21556622051</ele>
        <time>2021-03-30T12:39:54.727Z</time>
      </trkpt>
      <trkpt lat="48.86626" lon="7.33637">
        <ele>353.74759614642</ele>
        <time>2021-03-30T12:39:59.225Z</time>
      </trkpt>
      <trkpt lat="48.86616" lon="7.33636">
        <ele>354.22412453476</ele>
        <time>2021-03-30T12:40:03.726Z</time>
      </trkpt>
      <trkpt lat="48.86608" lon="7.33633">
        <ele>354.70533210925</ele>
        <time>2021-03-30T12:40:08.230Z</time>
      </trkpt>
      <trkpt lat="48.866" lon="7.33628">
        <ele>355.18454456213</ele>
        <time>2021-03-30T12:40:12.737Z</time>
      </trkpt>
      <trkpt lat="48.86583" lon="7.33615">
        <ele>355.58961194179</ele>
        <time>2021-03-30T12:40:17.250Z</time>
      </trkpt>
      <trkpt lat="48.86568" lon="7.33595">
        <ele>356.0695143466</ele>
        <time>2021-03-30T12:40:21.770Z</time>
      </trkpt>
      <trkpt lat="48.86522" lon="7.33541">
        <ele>356.92280967357</ele>
        <time>2021-03-30T12:40:26.309Z</time>
      </trkpt>
      <trkpt lat="48.86502" lon="7.33518">
        <ele>357.60238815732</ele>
        <time>2021-03-30T12:40:30.857Z</time>
      </trkpt>
      <trkpt lat="48.86466" lon="7.33495">
        <ele>358.26505095109</ele>
        <time>2021-03-30T12:40:35.418Z</time>
      </trkpt>
      <trkpt lat="48.8642" lon="7.33465">
        <ele>358.7327733233</ele>
        <time>2021-03-30T12:40:39.995Z</time>
      </trkpt>
      <trkpt lat="48.86397" lon="7.33456">
        <ele>358.78077260603</ele>
        <time>2021-03-30T12:40:44.580Z</time>
      </trkpt>
      <trkpt lat="48.86387" lon="7.33484">
        <ele>358.73229289607</ele>
        <time>2021-03-30T12:40:49.172Z</time>
      </trkpt>
      <trkpt lat="48.86367" lon="7.33488">
        <ele>358.75335583861</ele>
        <time>2021-03-30T12:40:53.771Z</time>
      </trkpt>
      <trkpt lat="48.86363" lon="7.33489">
        <ele>358.82813290857</ele>
        <time>2021-03-30T12:40:58.371Z</time>
      </trkpt>
      <trkpt lat="48.8635" lon="7.33493">
        <ele>358.85236965928</ele>
        <time>2021-03-30T12:41:02.976Z</time>
      </trkpt>
      <trkpt lat="48.86329" lon="7.33499">
        <ele>358.93367009372</ele>
        <time>2021-03-30T12:41:07.588Z</time>
      </trkpt>
      <trkpt lat="48.8631" lon="7.33506">
        <ele>359.07657025266</ele>
        <time>2021-03-30T12:41:12.206Z</time>
      </trkpt>
      <trkpt lat="48.8629" lon="7.33511">
        <ele>359.25546768402</ele>
        <time>2021-03-30T12:41:16.831Z</time>
      </trkpt>
      <trkpt lat="48.86266" lon="7.33518">
        <ele>359.4885062306</ele>
        <time>2021-03-30T12:41:21.464Z</time>
      </trkpt>
      <trkpt lat="48.86245" lon="7.33523">
        <ele>359.76708009936</ele>
        <time>2021-03-30T12:41:26.104Z</time>
      </trkpt>
      <trkpt lat="48.86227" lon="7.33524">
        <ele>360.11021177947</ele>
        <time>2021-03-30T12:41:30.750Z</time>
      </trkpt>
      <trkpt lat="48.86214" lon="7.33524">
        <ele>360.51777088169</ele>
        <time>2021-03-30T12:41:35.401Z</time>
      </trkpt>
      <trkpt lat="48.86204" lon="7.33522">
        <ele>361.09138237162</ele>
        <time>2021-03-30T12:41:40.055Z</time>
      </trkpt>
      <trkpt lat="48.86194" lon="7.33517">
        <ele>361.84744228855</ele>
        <time>2021-03-30T12:41:44.713Z</time>
      </trkpt>
      <trkpt lat="48.8618" lon="7.33511">
        <ele>362.74289665236</ele>
        <time>2021-03-30T12:41:49.375Z</time>
      </trkpt>
      <trkpt lat="48.86153" lon="7.33494">
        <ele>364.17148273675</ele>
        <time>2021-03-30T12:41:54.047Z</time>
      </trkpt>
      <trkpt lat="48.86141" lon="7.33483">
        <ele>365.59002914641</ele>
        <time>2021-03-30T12:41:58.724Z</time>
      </trkpt>
      <trkpt lat="48.86135" lon="7.33486">
        <ele>366.98579297981</ele>
        <time>2021-03-30T12:42:03.403Z</time>
      </trkpt>
      <trkpt lat="48.86131" lon="7.33491">
        <ele>368.47899352011</ele>
        <time>2021-03-30T12:42:08.084Z</time>
      </trkpt>
      <trkpt lat="48.86129" lon="7.33492">
        <ele>370.06762478793</ele>
        <time>2021-03-30T12:42:12.765Z</time>
      </trkpt>
      <trkpt lat="48.861" lon="7.33506">
        <ele>371.72145611536</ele>
        <time>2021-03-30T12:42:17.457Z</time>
      </trkpt>
      <trkpt lat="48.86079" lon="7.33514">
        <ele>373.60690607734</ele>
        <time>2021-03-30T12:42:22.156Z</time>
      </trkpt>
      <trkpt lat="48.86058" lon="7.33516">
        <ele>375.66808340379</ele>
        <time>2021-03-30T12:42:26.862Z</time>
      </trkpt>
      <trkpt lat="48.86045" lon="7.3351">
        <ele>377.64705052181</ele>
        <time>2021-03-30T12:42:31.572Z</time>
      </trkpt>
      <trkpt lat="48.86047" lon="7.33445">
        <ele>379.78180994588</ele>
        <time>2021-03-30T12:42:36.296Z</time>
      </trkpt>
      <trkpt lat="48.86047" lon="7.33376">
        <ele>381.92372161043</ele>
        <time>2021-03-30T12:42:41.036Z</time>
      </trkpt>
      <trkpt lat="48.86045" lon="7.33356">
        <ele>383.70428890909</ele>
        <time>2021-03-30T12:42:45.780Z</time>
      </trkpt>
      <trkpt lat="48.86042" lon="7.33337">
        <ele>385.36340473955</ele>
        <time>2021-03-30T12:42:50.528Z</time>
      </trkpt>
      <trkpt lat="48.86037" lon="7.33292">
        <ele>386.88160590219</ele>
        <time>2021-03-30T12:42:55.286Z</time>
      </trkpt>
      <trkpt lat="48.86029" lon="7.33255">
        <ele>388.26296829501</ele>
        <time>2021-03-30T12:43:00.053Z</time>
      </trkpt>
      <trkpt lat="48.86017" lon="7.33216">
        <ele>389.45412834872</ele>
        <time>2021-03-30T12:43:04.830Z</time>
      </trkpt>
      <trkpt lat="48.86007" lon="7.33185">
        <ele>390.42297838012</ele>
        <time>2021-03-30T12:43:09.614Z</time>
      </trkpt>
      <trkpt lat="48.8599" lon="7.33121">
        <ele>391.35433839305</ele>
        <time>2021-03-30T12:43:14.413Z</time>
      </trkpt>
      <trkpt lat="48.85979" lon="7.33052">
        <ele>392.03737558524</ele>
        <time>2021-03-30T12:43:19.228Z</time>
      </trkpt>
      <trkpt lat="48.85975" lon="7.33004">
        <ele>392.18005800675</ele>
        <time>2021-03-30T12:43:24.054Z</time>
      </trkpt>
      <trkpt lat="48.85969" lon="7.32962">
        <ele>391.98273732317</ele>
        <time>2021-03-30T12:43:28.889Z</time>
      </trkpt>
      <trkpt lat="48.85959" lon="7.3291">
        <ele>391.57139649392</ele>
        <time>2021-03-30T12:43:33.736Z</time>
      </trkpt>
      <trkpt lat="48.85953" lon="7.32872">
        <ele>390.93454973344</ele>
        <time>2021-03-30T12:43:38.592Z</time>
      </trkpt>
      <trkpt lat="48.85939" lon="7.32814">
        <ele>389.87764359552</ele>
        <time>2021-03-30T12:43:43.461Z</time>
      </trkpt>
      <trkpt lat="48.85937" lon="7.32796">
        <ele>388.64945314162</ele>
        <time>2021-03-30T12:43:48.334Z</time>
      </trkpt>
      <trkpt lat="48.85938" lon="7.32777">
        <ele>387.17953241095</ele>
        <time>2021-03-30T12:43:53.211Z</time>
      </trkpt>
      <trkpt lat="48.8594" lon="7.32749">
        <ele>385.35614583324</ele>
        <time>2021-03-30T12:43:58.095Z</time>
      </trkpt>
      <trkpt lat="48.85954" lon="7.32684">
        <ele>383.34177186521</ele>
        <time>2021-03-30T12:44:02.994Z</time>
      </trkpt>
      <trkpt lat="48.85958" lon="7.32632">
        <ele>381.04171187702</ele>
        <time>2021-03-30T12:44:07.904Z</time>
      </trkpt>
      <trkpt lat="48.85957" lon="7.32545">
        <ele>378.4161957577</ele>
        <time>2021-03-30T12:44:12.833Z</time>
      </trkpt>
      <trkpt lat="48.85953" lon="7.32481">
        <ele>375.50840523658</ele>
        <time>2021-03-30T12:44:17.776Z</time>
      </trkpt>
      <trkpt lat="48.85949" lon="7.32417">
        <ele>372.60301329546</ele>
        <time>2021-03-30T12:44:22.734Z</time>
      </trkpt>
      <trkpt lat="48.85945" lon="7.32353">
        <ele>369.46802563304</ele>
        <time>2021-03-30T12:44:27.706Z</time>
      </trkpt>
      <trkpt lat="48.85939" lon="7.32303">
        <ele>366.13566628138</ele>
        <time>2021-03-30T12:44:32.689Z</time>
      </trkpt>
      <trkpt lat="48.85933" lon="7.32254">
        <ele>362.81879022295</ele>
        <time>2021-03-30T12:44:37.683Z</time>
      </trkpt>
      <trkpt lat="48.85929" lon="7.3222">
        <ele>359.69991715788</ele>
        <time>2021-03-30T12:44:42.685Z</time>
      </trkpt>
      <trkpt lat="48.85927" lon="7.32185">
        <ele>356.70702738596</ele>
        <time>2021-03-30T12:44:47.694Z</time>
      </trkpt>
      <trkpt lat="48.8593" lon="7.32164">
        <ele>353.90645384542</ele>
        <time>2021-03-30T12:44:52.708Z</time>
      </trkpt>
      <trkpt lat="48.85932" lon="7.32142">
        <ele>351.22381736257</ele>
        <time>2021-03-30T12:44:57.727Z</time>
      </trkpt>
      <trkpt lat="48.85934" lon="7.32121">
        <ele>348.73797509632</ele>
        <time>2021-03-30T12:45:02.751Z</time>
      </trkpt>
      <trkpt lat="48.85934" lon="7.32098">
        <ele>346.51715248685</ele>
        <time>2021-03-30T12:45:07.780Z</time>
      </trkpt>
      <trkpt lat="48.85936" lon="7.32082">
        <ele>344.5661813276</ele>
        <time>2021-03-30T12:45:12.812Z</time>
      </trkpt>
      <trkpt lat="48.85942" lon="7.32067">
        <ele>342.85145032909</ele>
        <time>2021-03-30T12:45:17.848Z</time>
      </trkpt>
      <trkpt lat="48.85931" lon="7.32076">
        <ele>341.47881903535</ele>
        <time>2021-03-30T12:45:22.888Z</time>
      </trkpt>
      <trkpt lat="48.8592" lon="7.32079">
        <ele>340.26942984934</ele>
        <time>2021-03-30T12:45:27.932Z</time>
      </trkpt>
      <trkpt lat="48.85899" lon="7.32081">
        <ele>339.26552820502</ele>
        <time>2021-03-30T12:45:32.983Z</time>
      </trkpt>
      <trkpt lat="48.85885" lon="7.3208">
        <ele>338.41171049248</ele>
        <time>2021-03-30T12:45:38.039Z</time>
      </trkpt>
      <trkpt lat="48.85868" lon="7.32077">
        <ele>337.79806146511</ele>
        <time>2021-03-30T12:45:43.100Z</time>
      </trkpt>
      <trkpt lat="48.85841" lon="7.32071">
        <ele>337.57073988657</ele>
        <time>2021-03-30T12:45:48.170Z</time>
      </trkpt>
      <trkpt lat="48.85795" lon="7.32059">
        <ele>337.40772952357</ele>
        <time>2021-03-30T12:45:53.256Z</time>
      </trkpt>
      <trkpt lat="48.85784" lon="7.32057">
        <ele>337.38032646256</ele>
        <time>2021-03-30T12:45:58.346Z</time>
      </trkpt>
      <trkpt lat="48.85775" lon="7.32046">
        <ele>337.68655039409</ele>
        <time>2021-03-30T12:46:03.440Z</time>
      </trkpt>
      <trkpt lat="48.85758" lon="7.32019">
        <ele>338.32469042341</ele>
        <time>2021-03-30T12:46:08.542Z</time>
      </trkpt>
      <trkpt lat="48.85742" lon="7.31994">
        <ele>339.1869957307</ele>
        <time>2021-03-30T12:46:13.651Z</time>
      </trkpt>
      <trkpt lat="48.85724" lon="7.31979">
        <ele>340.33250150334</ele>
        <time>2021-03-30T12:46:18.767Z</time>
      </trkpt>
      <trkpt lat="48.85711" lon="7.31975">
        <ele>341.45397798131</ele>
        <time>2021-03-30T12:46:23.888Z</time>
      </trkpt>
      <trkpt lat="48.85689" lon="7.31978">
        <ele>342.61700762312</ele>
        <time>2021-03-30T12:46:29.016Z</time>
      </trkpt>
      <trkpt lat="48.8568" lon="7.31971">
        <ele>343.95657312531</ele>
        <time>2021-03-30T12:46:34.147Z</time>
      </trkpt>
      <trkpt lat="48.85662" lon="7.31972">
        <ele>345.27036488533</ele>
        <time>2021-03-30T12:46:39.284Z</time>
      </trkpt>
      <trkpt lat="48.85649" lon="7.31971">
        <ele>346.67349473045</ele>
        <time>2021-03-30T12:46:44.426Z</time>
      </trkpt>
      <trkpt lat="48.85644" lon="7.3196">
        <ele>348.22487569085</ele>
        <time>2021-03-30T12:46:49.571Z</time>
      </trkpt>
      <trkpt lat="48.85641" lon="7.3194">
        <ele>349.72018160592</ele>
        <time>2021-03-30T12:46:54.720Z</time>
      </trkpt>
      <trkpt lat="48.85644" lon="7.31927">
        <ele>350.85901877029</ele>
        <time>2021-03-30T12:46:59.872Z</time>
      </trkpt>
      <trkpt lat="48.85649" lon="7.319">
        <ele>351.87890367746</ele>
        <time>2021-03-30T12:47:05.030Z</time>
      </trkpt>
      <trkpt lat="48.8565" lon="7.319">
        <ele>352.72386238779</ele>
        <time>2021-03-30T12:47:10.189Z</time>
      </trkpt>
    </trkseg>
  </trk>
  <trk>
    <name><![CDATA[UT53 Étape 5]]></name>
    <extensions>
      <line xmlns="http://www.topografix.com/GPX/gpx_style/0/2">
        <color>FFFF00</color>
        <width>4</width>
      </line>
    </extensions>
    <trkseg>
      <trkpt lat="48.85641" lon="7.31905">
        <ele>350.3338550332</ele>
        <time>2021-07-08T14:48:43.000Z</time>
      </trkpt>
      <trkpt lat="48.85641" lon="7.31905">
        <ele>350.3338550332</ele>
        <time>2021-07-08T14:48:43.000Z</time>
      </trkpt>
      <trkpt lat="48.85638" lon="7.31906">
        <ele>350.94585192545</ele>
        <time>2021-07-08T14:48:43.001Z</time>
      </trkpt>
      <trkpt lat="48.85632" lon="7.3193">
        <ele>351.6719672249</ele>
        <time>2021-07-08T14:48:43.008Z</time>
      </trkpt>
      <trkpt lat="48.85623" lon="7.31936">
        <ele>352.41235572584</ele>
        <time>2021-07-08T14:48:43.018Z</time>
      </trkpt>
      <trkpt lat="48.85604" lon="7.31945">
        <ele>353.18509898853</ele>
        <time>2021-07-08T14:48:43.035Z</time>
      </trkpt>
      <trkpt lat="48.85585" lon="7.31949">
        <ele>354.01426008138</ele>
        <time>2021-07-08T14:48:43.058Z</time>
      </trkpt>
      <trkpt lat="48.85567" lon="7.31945">
        <ele>355.00552368048</ele>
        <time>2021-07-08T14:48:43.087Z</time>
      </trkpt>
      <trkpt lat="48.85551" lon="7.31944">
        <ele>356.07451387382</ele>
        <time>2021-07-08T14:48:43.121Z</time>
      </trkpt>
      <trkpt lat="48.85534" lon="7.31945">
        <ele>357.31865992535</ele>
        <time>2021-07-08T14:48:43.161Z</time>
      </trkpt>
      <trkpt lat="48.85517" lon="7.31947">
        <ele>358.69220732185</ele>
        <time>2021-07-08T14:48:43.207Z</time>
      </trkpt>
      <trkpt lat="48.85489" lon="7.31952">
        <ele>360.35887063181</ele>
        <time>2021-07-08T14:48:43.262Z</time>
      </trkpt>
      <trkpt lat="48.85472" lon="7.31958">
        <ele>361.88420094012</ele>
        <time>2021-07-08T14:48:43.323Z</time>
      </trkpt>
      <trkpt lat="48.8546" lon="7.31961">
        <ele>363.28763079567</ele>
        <time>2021-07-08T14:48:43.388Z</time>
      </trkpt>
      <trkpt lat="48.85449" lon="7.31962">
        <ele>364.62826517438</ele>
        <time>2021-07-08T14:48:43.457Z</time>
      </trkpt>
      <trkpt lat="48.85442" lon="7.31957">
        <ele>365.95085080755</ele>
        <time>2021-07-08T14:48:43.528Z</time>
      </trkpt>
      <trkpt lat="48.85431" lon="7.31934">
        <ele>367.64460215339</ele>
        <time>2021-07-08T14:48:43.606Z</time>
      </trkpt>
      <trkpt lat="48.85412" lon="7.31865">
        <ele>369.73206584659</ele>
        <time>2021-07-08T14:48:43.700Z</time>
      </trkpt>
      <trkpt lat="48.8539" lon="7.31782">
        <ele>371.59560762275</ele>
        <time>2021-07-08T14:48:43.814Z</time>
      </trkpt>
      <trkpt lat="48.85376" lon="7.31733">
        <ele>372.97667892477</ele>
        <time>2021-07-08T14:48:43.939Z</time>
      </trkpt>
      <trkpt lat="48.85358" lon="7.31653">
        <ele>373.95490275373</ele>
        <time>2021-07-08T14:48:44.083Z</time>
      </trkpt>
      <trkpt lat="48.85352" lon="7.31632">
        <ele>374.6911610905</ele>
        <time>2021-07-08T14:48:44.232Z</time>
      </trkpt>
      <trkpt lat="48.85346" lon="7.31611">
        <ele>375.13046502061</ele>
        <time>2021-07-08T14:48:44.386Z</time>
      </trkpt>
      <trkpt lat="48.85334" lon="7.31576">
        <ele>375.28136587709</ele>
        <time>2021-07-08T14:48:44.549Z</time>
      </trkpt>
      <trkpt lat="48.85324" lon="7.31555">
        <ele>375.21863526258</ele>
        <time>2021-07-08T14:48:44.718Z</time>
      </trkpt>
      <trkpt lat="48.85309" lon="7.31532">
        <ele>375.01890717615</ele>
        <time>2021-07-08T14:48:44.894Z</time>
      </trkpt>
      <trkpt lat="48.85281" lon="7.31505">
        <ele>374.80142862448</ele>
        <time>2021-07-08T14:48:45.081Z</time>
      </trkpt>
      <trkpt lat="48.85257" lon="7.31489">
        <ele>374.42853203789</ele>
        <time>2021-07-08T14:48:45.276Z</time>
      </trkpt>
      <trkpt lat="48.85232" lon="7.3147">
        <ele>373.84738179305</ele>
        <time>2021-07-08T14:48:45.481Z</time>
      </trkpt>
      <trkpt lat="48.85206" lon="7.3145">
        <ele>373.16352984688</ele>
        <time>2021-07-08T14:48:45.696Z</time>
      </trkpt>
      <trkpt lat="48.85188" lon="7.3143">
        <ele>372.39034129821</ele>
        <time>2021-07-08T14:48:45.918Z</time>
      </trkpt>
      <trkpt lat="48.85148" lon="7.31407">
        <ele>371.71632222352</ele>
        <time>2021-07-08T14:48:46.154Z</time>
      </trkpt>
      <trkpt lat="48.85127" lon="7.31396">
        <ele>371.09657843219</ele>
        <time>2021-07-08T14:48:46.398Z</time>
      </trkpt>
      <trkpt lat="48.85116" lon="7.31393">
        <ele>370.53799717662</ele>
        <time>2021-07-08T14:48:46.645Z</time>
      </trkpt>
      <trkpt lat="48.85091" lon="7.31388">
        <ele>369.92651581576</ele>
        <time>2021-07-08T14:48:46.901Z</time>
      </trkpt>
      <trkpt lat="48.85063" lon="7.31391">
        <ele>369.32272335806</ele>
        <time>2021-07-08T14:48:47.166Z</time>
      </trkpt>
      <trkpt lat="48.85047" lon="7.31384">
        <ele>368.63955770687</ele>
        <time>2021-07-08T14:48:47.437Z</time>
      </trkpt>
      <trkpt lat="48.85043" lon="7.31375">
        <ele>367.93891660581</ele>
        <time>2021-07-08T14:48:47.710Z</time>
      </trkpt>
      <trkpt lat="48.85033" lon="7.31368">
        <ele>367.21469165645</ele>
        <time>2021-07-08T14:48:47.987Z</time>
      </trkpt>
      <trkpt lat="48.85022" lon="7.31361">
        <ele>366.45491286222</ele>
        <time>2021-07-08T14:48:48.268Z</time>
      </trkpt>
      <trkpt lat="48.84971" lon="7.31357">
        <ele>366.07873446088</ele>
        <time>2021-07-08T14:48:48.566Z</time>
      </trkpt>
      <trkpt lat="48.84931" lon="7.31346">
        <ele>365.37956693401</ele>
        <time>2021-07-08T14:48:48.877Z</time>
      </trkpt>
      <trkpt lat="48.84915" lon="7.31331">
        <ele>364.65579118917</ele>
        <time>2021-07-08T14:48:49.195Z</time>
      </trkpt>
      <trkpt lat="48.84879" lon="7.31303">
        <ele>363.74363584397</ele>
        <time>2021-07-08T14:48:49.526Z</time>
      </trkpt>
      <trkpt lat="48.84856" lon="7.31289">
        <ele>362.74872963865</ele>
        <time>2021-07-08T14:48:49.865Z</time>
      </trkpt>
      <trkpt lat="48.84834" lon="7.31273">
        <ele>361.46313685356</ele>
        <time>2021-07-08T14:48:50.213Z</time>
      </trkpt>
      <trkpt lat="48.84816" lon="7.31265">
        <ele>360.05982713302</ele>
        <time>2021-07-08T14:48:50.567Z</time>
      </trkpt>
      <trkpt lat="48.84807" lon="7.31251">
        <ele>358.45887152605</ele>
        <time>2021-07-08T14:48:50.925Z</time>
      </trkpt>
      <trkpt lat="48.84799" lon="7.31235">
        <ele>356.65530827245</ele>
        <time>2021-07-08T14:48:51.288Z</time>
      </trkpt>
      <trkpt lat="48.84815" lon="7.31225">
        <ele>354.75445157322</ele>
        <time>2021-07-08T14:48:51.656Z</time>
      </trkpt>
      <trkpt lat="48.84817" lon="7.31217">
        <ele>352.64410561698</ele>
        <time>2021-07-08T14:48:52.026Z</time>
      </trkpt>
      <trkpt lat="48.84812" lon="7.3121">
        <ele>350.32522971276</ele>
        <time>2021-07-08T14:48:52.398Z</time>
      </trkpt>
      <trkpt lat="48.84798" lon="7.31211">
        <ele>347.83440131339</ele>
        <time>2021-07-08T14:48:52.775Z</time>
      </trkpt>
      <trkpt lat="48.84774" lon="7.31214">
        <ele>345.13288970684</ele>
        <time>2021-07-08T14:48:53.160Z</time>
      </trkpt>
      <trkpt lat="48.84752" lon="7.31224">
        <ele>341.91000658649</ele>
        <time>2021-07-08T14:48:53.553Z</time>
      </trkpt>
      <trkpt lat="48.84728" lon="7.31243">
        <ele>338.23830420657</ele>
        <time>2021-07-08T14:48:53.955Z</time>
      </trkpt>
      <trkpt lat="48.84718" lon="7.31254">
        <ele>334.63881970108</ele>
        <time>2021-07-08T14:48:54.361Z</time>
      </trkpt>
      <trkpt lat="48.84707" lon="7.31257">
        <ele>330.83451167534</ele>
        <time>2021-07-08T14:48:54.771Z</time>
      </trkpt>
      <trkpt lat="48.84701" lon="7.31247">
        <ele>326.99976029717</ele>
        <time>2021-07-08T14:48:55.184Z</time>
      </trkpt>
      <trkpt lat="48.84697" lon="7.31235">
        <ele>323.0782013853</ele>
        <time>2021-07-08T14:48:55.600Z</time>
      </trkpt>
      <trkpt lat="48.84695" lon="7.31223">
        <ele>319.11110030945</ele>
        <time>2021-07-08T14:48:56.018Z</time>
      </trkpt>
      <trkpt lat="48.84693" lon="7.3122">
        <ele>315.08730195669</ele>
        <time>2021-07-08T14:48:56.437Z</time>
      </trkpt>
      <trkpt lat="48.84679" lon="7.31254">
        <ele>310.6890848455</ele>
        <time>2021-07-08T14:48:56.865Z</time>
      </trkpt>
      <trkpt lat="48.84674" lon="7.31222">
        <ele>306.50912875276</ele>
        <time>2021-07-08T14:48:57.300Z</time>
      </trkpt>
      <trkpt lat="48.84655" lon="7.31252">
        <ele>301.82643518869</ele>
        <time>2021-07-08T14:48:57.745Z</time>
      </trkpt>
      <trkpt lat="48.8464" lon="7.3125">
        <ele>297.2765469061</ele>
        <time>2021-07-08T14:48:58.195Z</time>
      </trkpt>
      <trkpt lat="48.84612" lon="7.31284">
        <ele>292.21511484647</ele>
        <time>2021-07-08T14:48:58.657Z</time>
      </trkpt>
      <trkpt lat="48.84592" lon="7.31324">
        <ele>287.51721311336</ele>
        <time>2021-07-08T14:48:59.130Z</time>
      </trkpt>
      <trkpt lat="48.84606" lon="7.31371">
        <ele>283.41227364144</ele>
        <time>2021-07-08T14:48:59.614Z</time>
      </trkpt>
      <trkpt lat="48.84602" lon="7.31407">
        <ele>279.24254795466</ele>
        <time>2021-07-08T14:49:00.106Z</time>
      </trkpt>
      <trkpt lat="48.84605" lon="7.31435">
        <ele>275.41486793465</ele>
        <time>2021-07-08T14:49:00.604Z</time>
      </trkpt>
      <trkpt lat="48.84608" lon="7.31457">
        <ele>271.8248725955</ele>
        <time>2021-07-08T14:49:01.107Z</time>
      </trkpt>
      <trkpt lat="48.84598" lon="7.31459">
        <ele>268.36986943099</ele>
        <time>2021-07-08T14:49:01.614Z</time>
      </trkpt>
      <trkpt lat="48.84605" lon="7.31496">
        <ele>265.13965439393</ele>
        <time>2021-07-08T14:49:02.129Z</time>
      </trkpt>
      <trkpt lat="48.84603" lon="7.31507">
        <ele>262.15873894306</ele>
        <time>2021-07-08T14:49:02.647Z</time>
      </trkpt>
      <trkpt lat="48.84608" lon="7.31517">
        <ele>259.47872116147</ele>
        <time>2021-07-08T14:49:03.167Z</time>
      </trkpt>
      <trkpt lat="48.84615" lon="7.31538">
        <ele>256.93546294848</ele>
        <time>2021-07-08T14:49:03.692Z</time>
      </trkpt>
      <trkpt lat="48.84602" lon="7.31527">
        <ele>254.53181881391</ele>
        <time>2021-07-08T14:49:04.222Z</time>
      </trkpt>
      <trkpt lat="48.8459" lon="7.31514">
        <ele>252.27047310742</ele>
        <time>2021-07-08T14:49:04.757Z</time>
      </trkpt>
      <trkpt lat="48.84597" lon="7.31533">
        <ele>250.24224296612</ele>
        <time>2021-07-08T14:49:05.297Z</time>
      </trkpt>
      <trkpt lat="48.84603" lon="7.31558">
        <ele>248.29377896698</ele>
        <time>2021-07-08T14:49:05.843Z</time>
      </trkpt>
      <trkpt lat="48.84575" lon="7.3153">
        <ele>246.26418140327</ele>
        <time>2021-07-08T14:49:06.400Z</time>
      </trkpt>
      <trkpt lat="48.84585" lon="7.31554">
        <ele>244.57313422245</ele>
        <time>2021-07-08T14:49:06.963Z</time>
      </trkpt>
      <trkpt lat="48.84592" lon="7.3157">
        <ele>242.97259883671</ele>
        <time>2021-07-08T14:49:07.531Z</time>
      </trkpt>
      <trkpt lat="48.84573" lon="7.31559">
        <ele>241.21949757515</ele>
        <time>2021-07-08T14:49:08.105Z</time>
      </trkpt>
      <trkpt lat="48.84562" lon="7.31548">
        <ele>239.63107856834</ele>
        <time>2021-07-08T14:49:08.684Z</time>
      </trkpt>
      <trkpt lat="48.84558" lon="7.31547">
        <ele>238.13286124049</ele>
        <time>2021-07-08T14:49:09.264Z</time>
      </trkpt>
      <trkpt lat="48.84554" lon="7.31552">
        <ele>236.63964524162</ele>
        <time>2021-07-08T14:49:09.846Z</time>
      </trkpt>
      <trkpt lat="48.84595" lon="7.31619">
        <ele>235.24689451387</ele>
        <time>2021-07-08T14:49:10.448Z</time>
      </trkpt>
      <trkpt lat="48.84612" lon="7.31651">
        <ele>233.74974062919</ele>
        <time>2021-07-08T14:49:11.059Z</time>
      </trkpt>
      <trkpt lat="48.84629" lon="7.31693">
        <ele>232.18583642849</ele>
        <time>2021-07-08T14:49:11.681Z</time>
      </trkpt>
      <trkpt lat="48.84642" lon="7.31734">
        <ele>230.68254154589</ele>
        <time>2021-07-08T14:49:12.313Z</time>
      </trkpt>
      <trkpt lat="48.84644" lon="7.31746">
        <ele>229.32483075929</ele>
        <time>2021-07-08T14:49:12.948Z</time>
      </trkpt>
      <trkpt lat="48.84645" lon="7.3176">
        <ele>227.928804044</ele>
        <time>2021-07-08T14:49:13.586Z</time>
      </trkpt>
      <trkpt lat="48.84635" lon="7.31755">
        <ele>226.6789464507</ele>
        <time>2021-07-08T14:49:14.227Z</time>
      </trkpt>
      <trkpt lat="48.84633" lon="7.31768">
        <ele>225.33624252454</ele>
        <time>2021-07-08T14:49:14.871Z</time>
      </trkpt>
      <trkpt lat="48.84618" lon="7.31767">
        <ele>224.13454493463</ele>
        <time>2021-07-08T14:49:15.520Z</time>
      </trkpt>
      <trkpt lat="48.84572" lon="7.31774">
        <ele>222.87309277719</ele>
        <time>2021-07-08T14:49:16.185Z</time>
      </trkpt>
      <trkpt lat="48.84543" lon="7.31781">
        <ele>221.77864598389</ele>
        <time>2021-07-08T14:49:16.860Z</time>
      </trkpt>
      <trkpt lat="48.84516" lon="7.31777">
        <ele>220.84279249979</ele>
        <time>2021-07-08T14:49:17.544Z</time>
      </trkpt>
      <trkpt lat="48.8448" lon="7.31759">
        <ele>219.90452286876</ele>
        <time>2021-07-08T14:49:18.240Z</time>
      </trkpt>
      <trkpt lat="48.84455" lon="7.3174">
        <ele>218.99038493733</ele>
        <time>2021-07-08T14:49:18.946Z</time>
      </trkpt>
      <trkpt lat="48.84435" lon="7.31725">
        <ele>218.12567427983</ele>
        <time>2021-07-08T14:49:19.659Z</time>
      </trkpt>
      <trkpt lat="48.84408" lon="7.31693">
        <ele>217.23090847058</ele>
        <time>2021-07-08T14:49:20.383Z</time>
      </trkpt>
      <trkpt lat="48.84387" lon="7.31669">
        <ele>216.42880755978</ele>
        <time>2021-07-08T14:49:21.116Z</time>
      </trkpt>
      <trkpt lat="48.8437" lon="7.31644">
        <ele>215.70372491245</ele>
        <time>2021-07-08T14:49:21.857Z</time>
      </trkpt>
      <trkpt lat="48.84358" lon="7.31638">
        <ele>215.12337108515</ele>
        <time>2021-07-08T14:49:22.602Z</time>
      </trkpt>
      <trkpt lat="48.84349" lon="7.31633">
        <ele>214.62910507483</ele>
        <time>2021-07-08T14:49:23.351Z</time>
      </trkpt>
      <trkpt lat="48.84348" lon="7.31621">
        <ele>214.19398831782</ele>
        <time>2021-07-08T14:49:24.102Z</time>
      </trkpt>
      <trkpt lat="48.84344" lon="7.31599">
        <ele>213.81956601886</ele>
        <time>2021-07-08T14:49:24.858Z</time>
      </trkpt>
      <trkpt lat="48.84338" lon="7.31581">
        <ele>213.559613421</ele>
        <time>2021-07-08T14:49:25.619Z</time>
      </trkpt>
      <trkpt lat="48.84334" lon="7.31558">
        <ele>213.40303728575</ele>
        <time>2021-07-08T14:49:26.385Z</time>
      </trkpt>
      <trkpt lat="48.84322" lon="7.31531">
        <ele>213.40216960078</ele>
        <time>2021-07-08T14:49:27.158Z</time>
      </trkpt>
      <trkpt lat="48.84313" lon="7.31514">
        <ele>213.51701878076</ele>
        <time>2021-07-08T14:49:27.936Z</time>
      </trkpt>
      <trkpt lat="48.84307" lon="7.31484">
        <ele>213.82066148256</ele>
        <time>2021-07-08T14:49:28.721Z</time>
      </trkpt>
      <trkpt lat="48.84301" lon="7.31471">
        <ele>214.23082943253</ele>
        <time>2021-07-08T14:49:29.509Z</time>
      </trkpt>
      <trkpt lat="48.84309" lon="7.31459">
        <ele>214.79207629359</ele>
        <time>2021-07-08T14:49:30.301Z</time>
      </trkpt>
      <trkpt lat="48.8431" lon="7.31442">
        <ele>215.47304474894</ele>
        <time>2021-07-08T14:49:31.097Z</time>
      </trkpt>
      <trkpt lat="48.8431" lon="7.31429">
        <ele>216.24284392201</ele>
        <time>2021-07-08T14:49:31.896Z</time>
      </trkpt>
      <trkpt lat="48.84306" lon="7.31414">
        <ele>217.11830582105</ele>
        <time>2021-07-08T14:49:32.698Z</time>
      </trkpt>
      <trkpt lat="48.84305" lon="7.31412">
        <ele>218.04589994535</ele>
        <time>2021-07-08T14:49:33.501Z</time>
      </trkpt>
      <trkpt lat="48.84302" lon="7.31408">
        <ele>219.0831016066</ele>
        <time>2021-07-08T14:49:34.305Z</time>
      </trkpt>
      <trkpt lat="48.84294" lon="7.31392">
        <ele>220.29421506519</ele>
        <time>2021-07-08T14:49:35.113Z</time>
      </trkpt>
      <trkpt lat="48.84275" lon="7.31364">
        <ele>221.65914252068</ele>
        <time>2021-07-08T14:49:35.930Z</time>
      </trkpt>
      <trkpt lat="48.84259" lon="7.31348">
        <ele>222.9707727254</ele>
        <time>2021-07-08T14:49:36.754Z</time>
      </trkpt>
      <trkpt lat="48.84236" lon="7.31326">
        <ele>224.35119107708</ele>
        <time>2021-07-08T14:49:37.587Z</time>
      </trkpt>
      <trkpt lat="48.84208" lon="7.31288">
        <ele>225.91875057571</ele>
        <time>2021-07-08T14:49:38.432Z</time>
      </trkpt>
      <trkpt lat="48.84183" lon="7.31251">
        <ele>227.55835338835</ele>
        <time>2021-07-08T14:49:39.289Z</time>
      </trkpt>
      <trkpt lat="48.84177" lon="7.31243">
        <ele>229.16485807684</ele>
        <time>2021-07-08T14:49:40.149Z</time>
      </trkpt>
      <trkpt lat="48.84151" lon="7.31203">
        <ele>231.02676738676</ele>
        <time>2021-07-08T14:49:41.021Z</time>
      </trkpt>
      <trkpt lat="48.84135" lon="7.31185">
        <ele>232.78525444738</ele>
        <time>2021-07-08T14:49:41.900Z</time>
      </trkpt>
      <trkpt lat="48.84116" lon="7.31167">
        <ele>234.56141478073</ele>
        <time>2021-07-08T14:49:42.786Z</time>
      </trkpt>
      <trkpt lat="48.84081" lon="7.31133">
        <ele>236.53652779528</ele>
        <time>2021-07-08T14:49:43.686Z</time>
      </trkpt>
      <trkpt lat="48.84031" lon="7.3107">
        <ele>238.85547001498</ele>
        <time>2021-07-08T14:49:44.608Z</time>
      </trkpt>
      <trkpt lat="48.8403" lon="7.31067">
        <ele>240.75327486212</ele>
        <time>2021-07-08T14:49:45.530Z</time>
      </trkpt>
      <trkpt lat="48.84025" lon="7.31056">
        <ele>242.73453691909</ele>
        <time>2021-07-08T14:49:46.455Z</time>
      </trkpt>
      <trkpt lat="48.84022" lon="7.31043">
        <ele>244.77672276316</ele>
        <time>2021-07-08T14:49:47.383Z</time>
      </trkpt>
      <trkpt lat="48.84022" lon="7.31028">
        <ele>246.88305459191</ele>
        <time>2021-07-08T14:49:48.315Z</time>
      </trkpt>
      <trkpt lat="48.84026" lon="7.30984">
        <ele>249.33637844812</ele>
        <time>2021-07-08T14:49:49.257Z</time>
      </trkpt>
      <trkpt lat="48.84024" lon="7.30964">
        <ele>251.54076496077</ele>
        <time>2021-07-08T14:49:50.203Z</time>
      </trkpt>
      <trkpt lat="48.84016" lon="7.30951">
        <ele>253.69442765174</ele>
        <time>2021-07-08T14:49:51.153Z</time>
      </trkpt>
      <trkpt lat="48.84007" lon="7.30946">
        <ele>255.82039367352</ele>
        <time>2021-07-08T14:49:52.106Z</time>
      </trkpt>
      <trkpt lat="48.83982" lon="7.30946">
        <ele>257.89934139614</ele>
        <time>2021-07-08T14:49:53.067Z</time>
      </trkpt>
      <trkpt lat="48.8395" lon="7.30948">
        <ele>260.07271225474</ele>
        <time>2021-07-08T14:49:54.039Z</time>
      </trkpt>
      <trkpt lat="48.83946" lon="7.30946">
        <ele>262.41368769968</ele>
        <time>2021-07-08T14:49:55.013Z</time>
      </trkpt>
      <trkpt lat="48.83938" lon="7.30942">
        <ele>264.87540826353</ele>
        <time>2021-07-08T14:49:55.989Z</time>
      </trkpt>
      <trkpt lat="48.83926" lon="7.30933">
        <ele>267.49499677003</ele>
        <time>2021-07-08T14:49:56.970Z</time>
      </trkpt>
      <trkpt lat="48.83912" lon="7.30914">
        <ele>270.32311713089</ele>
        <time>2021-07-08T14:49:57.957Z</time>
      </trkpt>
      <trkpt lat="48.83899" lon="7.30893">
        <ele>273.29021080278</ele>
        <time>2021-07-08T14:49:58.950Z</time>
      </trkpt>
      <trkpt lat="48.83884" lon="7.3087">
        <ele>276.42796426963</ele>
        <time>2021-07-08T14:49:59.951Z</time>
      </trkpt>
      <trkpt lat="48.83883" lon="7.30867">
        <ele>279.6327794163</ele>
        <time>2021-07-08T14:50:00.952Z</time>
      </trkpt>
      <trkpt lat="48.83875" lon="7.3084">
        <ele>283.20229877255</ele>
        <time>2021-07-08T14:50:01.960Z</time>
      </trkpt>
      <trkpt lat="48.83856" lon="7.30738">
        <ele>287.10288897758</ele>
        <time>2021-07-08T14:50:02.991Z</time>
      </trkpt>
      <trkpt lat="48.83855" lon="7.30694">
        <ele>290.99382586333</ele>
        <time>2021-07-08T14:50:04.032Z</time>
      </trkpt>
      <trkpt lat="48.83852" lon="7.30593">
        <ele>295.16550448363</ele>
        <time>2021-07-08T14:50:05.095Z</time>
      </trkpt>
      <trkpt lat="48.83852" lon="7.30509">
        <ele>299.34754307598</ele>
        <time>2021-07-08T14:50:06.177Z</time>
      </trkpt>
      <trkpt lat="48.83863" lon="7.3037">
        <ele>303.83741352402</ele>
        <time>2021-07-08T14:50:07.289Z</time>
      </trkpt>
      <trkpt lat="48.83886" lon="7.30122">
        <ele>308.20107583338</ele>
        <time>2021-07-08T14:50:08.456Z</time>
      </trkpt>
      <trkpt lat="48.83886" lon="7.30123">
        <ele>321.32452506381</ele>
        <time>2021-07-08T14:50:09.624Z</time>
      </trkpt>
      <trkpt lat="48.83892" lon="7.30059">
        <ele>325.86547418237</ele>
        <time>2021-07-08T14:50:10.806Z</time>
      </trkpt>
      <trkpt lat="48.83894" lon="7.30005">
        <ele>330.71918111954</ele>
        <time>2021-07-08T14:50:12.000Z</time>
      </trkpt>
      <trkpt lat="48.83889" lon="7.2996">
        <ele>335.69687999557</ele>
        <time>2021-07-08T14:50:13.204Z</time>
      </trkpt>
      <trkpt lat="48.83872" lon="7.29912">
        <ele>340.33541618859</ele>
        <time>2021-07-08T14:50:14.420Z</time>
      </trkpt>
      <trkpt lat="48.83847" lon="7.29872">
        <ele>345.02879287355</ele>
        <time>2021-07-08T14:50:15.648Z</time>
      </trkpt>
      <trkpt lat="48.83822" lon="7.29853">
        <ele>349.47622363696</ele>
        <time>2021-07-08T14:50:16.885Z</time>
      </trkpt>
      <trkpt lat="48.83771" lon="7.29835">
        <ele>353.82320197196</ele>
        <time>2021-07-08T14:50:18.140Z</time>
      </trkpt>
      <trkpt lat="48.83764" lon="7.29832">
        <ele>357.4016259785</ele>
        <time>2021-07-08T14:50:19.397Z</time>
      </trkpt>
      <trkpt lat="48.8373" lon="7.29819">
        <ele>360.88430508432</ele>
        <time>2021-07-08T14:50:20.666Z</time>
      </trkpt>
      <trkpt lat="48.83624" lon="7.29814">
        <ele>364.08063350366</ele>
        <time>2021-07-08T14:50:21.970Z</time>
      </trkpt>
      <trkpt lat="48.83568" lon="7.29803">
        <ele>366.40457618299</ele>
        <time>2021-07-08T14:50:23.293Z</time>
      </trkpt>
      <trkpt lat="48.83571" lon="7.29797">
        <ele>368.45321382817</ele>
        <time>2021-07-08T14:50:24.618Z</time>
      </trkpt>
      <trkpt lat="48.8359" lon="7.29759">
        <ele>370.46714735615</ele>
        <time>2021-07-08T14:50:25.953Z</time>
      </trkpt>
      <trkpt lat="48.83602" lon="7.29735">
        <ele>371.88644259498</ele>
        <time>2021-07-08T14:50:27.295Z</time>
      </trkpt>
      <trkpt lat="48.83589" lon="7.2973">
        <ele>372.53384446637</ele>
        <time>2021-07-08T14:50:28.641Z</time>
      </trkpt>
      <trkpt lat="48.83563" lon="7.29721">
        <ele>372.6838543293</ele>
        <time>2021-07-08T14:50:29.996Z</time>
      </trkpt>
      <trkpt lat="48.83544" lon="7.29709">
        <ele>372.47565524668</ele>
        <time>2021-07-08T14:50:31.358Z</time>
      </trkpt>
      <trkpt lat="48.83525" lon="7.29681">
        <ele>371.91014885988</ele>
        <time>2021-07-08T14:50:32.729Z</time>
      </trkpt>
      <trkpt lat="48.83487" lon="7.29601">
        <ele>370.7155642486</ele>
        <time>2021-07-08T14:50:34.122Z</time>
      </trkpt>
      <trkpt lat="48.83473" lon="7.29579">
        <ele>369.34929833778</ele>
        <time>2021-07-08T14:50:35.521Z</time>
      </trkpt>
      <trkpt lat="48.83454" lon="7.29557">
        <ele>367.62365917378</ele>
        <time>2021-07-08T14:50:36.928Z</time>
      </trkpt>
      <trkpt lat="48.83397" lon="7.29497">
        <ele>365.39118834879</ele>
        <time>2021-07-08T14:50:38.359Z</time>
      </trkpt>
      <trkpt lat="48.83366" lon="7.29427">
        <ele>363.12401110758</ele>
        <time>2021-07-08T14:50:39.808Z</time>
      </trkpt>
      <trkpt lat="48.83365" lon="7.29426">
        <ele>360.82315229581</ele>
        <time>2021-07-08T14:50:41.258Z</time>
      </trkpt>
      <trkpt lat="48.83304" lon="7.29266">
        <ele>357.83750102752</ele>
        <time>2021-07-08T14:50:42.748Z</time>
      </trkpt>
      <trkpt lat="48.83267" lon="7.29175">
        <ele>354.92864376434</ele>
        <time>2021-07-08T14:50:44.262Z</time>
      </trkpt>
      <trkpt lat="48.83246" lon="7.29123">
        <ele>352.09209275697</ele>
        <time>2021-07-08T14:50:45.789Z</time>
      </trkpt>
      <trkpt lat="48.8322" lon="7.29064">
        <ele>349.11117744399</ele>
        <time>2021-07-08T14:50:47.332Z</time>
      </trkpt>
      <trkpt lat="48.83216" lon="7.29054">
        <ele>346.18690773234</ele>
        <time>2021-07-08T14:50:48.877Z</time>
      </trkpt>
      <trkpt lat="48.8321" lon="7.29045">
        <ele>343.21970958851</ele>
        <time>2021-07-08T14:50:50.425Z</time>
      </trkpt>
      <trkpt lat="48.83198" lon="7.29045">
        <ele>340.24111601448</ele>
        <time>2021-07-08T14:50:51.977Z</time>
      </trkpt>
      <trkpt lat="48.83176" lon="7.29056">
        <ele>337.39589773255</ele>
        <time>2021-07-08T14:50:53.537Z</time>
      </trkpt>
      <trkpt lat="48.83162" lon="7.29057">
        <ele>334.53829260037</ele>
        <time>2021-07-08T14:50:55.102Z</time>
      </trkpt>
      <trkpt lat="48.83155" lon="7.29042">
        <ele>331.58835936683</ele>
        <time>2021-07-08T14:50:56.671Z</time>
      </trkpt>
      <trkpt lat="48.83119" lon="7.28907">
        <ele>328.08384911532</ele>
        <time>2021-07-08T14:50:58.272Z</time>
      </trkpt>
      <trkpt lat="48.83119" lon="7.28861">
        <ele>324.934533205</ele>
        <time>2021-07-08T14:50:59.883Z</time>
      </trkpt>
      <trkpt lat="48.83116" lon="7.2878">
        <ele>321.58306270484</ele>
        <time>2021-07-08T14:51:01.512Z</time>
      </trkpt>
      <trkpt lat="48.83114" lon="7.28769">
        <ele>318.64381296617</ele>
        <time>2021-07-08T14:51:03.143Z</time>
      </trkpt>
      <trkpt lat="48.83112" lon="7.2876">
        <ele>315.74339838395</ele>
        <time>2021-07-08T14:51:04.776Z</time>
      </trkpt>
      <trkpt lat="48.83109" lon="7.2875">
        <ele>312.86210442997</ele>
        <time>2021-07-08T14:51:06.412Z</time>
      </trkpt>
      <trkpt lat="48.83107" lon="7.28741">
        <ele>309.99357844031</ele>
        <time>2021-07-08T14:51:08.050Z</time>
      </trkpt>
      <trkpt lat="48.83104" lon="7.28732">
        <ele>307.14361798939</ele>
        <time>2021-07-08T14:51:09.690Z</time>
      </trkpt>
      <trkpt lat="48.83101" lon="7.28724">
        <ele>304.30855946161</ele>
        <time>2021-07-08T14:51:11.332Z</time>
      </trkpt>
      <trkpt lat="48.83097" lon="7.28717">
        <ele>301.47556264216</ele>
        <time>2021-07-08T14:51:12.976Z</time>
      </trkpt>
      <trkpt lat="48.83094" lon="7.28709">
        <ele>298.59186718011</ele>
        <time>2021-07-08T14:51:14.622Z</time>
      </trkpt>
      <trkpt lat="48.83089" lon="7.28699">
        <ele>295.68129525734</ele>
        <time>2021-07-08T14:51:16.271Z</time>
      </trkpt>
      <trkpt lat="48.83086" lon="7.28692">
        <ele>292.71466859482</ele>
        <time>2021-07-08T14:51:17.922Z</time>
      </trkpt>
      <trkpt lat="48.83081" lon="7.28684">
        <ele>289.71342451613</ele>
        <time>2021-07-08T14:51:19.575Z</time>
      </trkpt>
      <trkpt lat="48.83071" lon="7.28638">
        <ele>286.42831939911</ele>
        <time>2021-07-08T14:51:21.239Z</time>
      </trkpt>
      <trkpt lat="48.83037" lon="7.28529">
        <ele>282.68396502354</ele>
        <time>2021-07-08T14:51:22.929Z</time>
      </trkpt>
      <trkpt lat="48.83017" lon="7.28471">
        <ele>279.06039961246</ele>
        <time>2021-07-08T14:51:24.634Z</time>
      </trkpt>
      <trkpt lat="48.82986" lon="7.28399">
        <ele>275.42800241381</ele>
        <time>2021-07-08T14:51:26.358Z</time>
      </trkpt>
      <trkpt lat="48.82986" lon="7.28397">
        <ele>272.20273540381</ele>
        <time>2021-07-08T14:51:28.082Z</time>
      </trkpt>
      <trkpt lat="48.82983" lon="7.28377">
        <ele>268.79935685556</ele>
        <time>2021-07-08T14:51:29.811Z</time>
      </trkpt>
      <trkpt lat="48.8297" lon="7.2835">
        <ele>265.51017514191</ele>
        <time>2021-07-08T14:51:31.547Z</time>
      </trkpt>
      <trkpt lat="48.82952" lon="7.28319">
        <ele>262.27517360698</ele>
        <time>2021-07-08T14:51:33.292Z</time>
      </trkpt>
      <trkpt lat="48.82917" lon="7.28265">
        <ele>259.08925786877</ele>
        <time>2021-07-08T14:51:35.054Z</time>
      </trkpt>
      <trkpt lat="48.82877" lon="7.28193">
        <ele>255.58428029436</ele>
        <time>2021-07-08T14:51:36.837Z</time>
      </trkpt>
      <trkpt lat="48.82861" lon="7.28154">
        <ele>252.21289765234</ele>
        <time>2021-07-08T14:51:38.630Z</time>
      </trkpt>
      <trkpt lat="48.82849" lon="7.28144">
        <ele>249.11658933394</ele>
        <time>2021-07-08T14:51:40.427Z</time>
      </trkpt>
      <trkpt lat="48.82842" lon="7.28142">
        <ele>246.203413602</ele>
        <time>2021-07-08T14:51:42.227Z</time>
      </trkpt>
      <trkpt lat="48.82822" lon="7.28137">
        <ele>243.32885507209</ele>
        <time>2021-07-08T14:51:44.033Z</time>
      </trkpt>
      <trkpt lat="48.82687" lon="7.28163">
        <ele>241.00770399752</ele>
        <time>2021-07-08T14:51:45.885Z</time>
      </trkpt>
      <trkpt lat="48.82569" lon="7.28187">
        <ele>237.55729631601</ele>
        <time>2021-07-08T14:51:47.776Z</time>
      </trkpt>
      <trkpt lat="48.82531" lon="7.28187">
        <ele>234.60922003797</ele>
        <time>2021-07-08T14:51:49.680Z</time>
      </trkpt>
      <trkpt lat="48.8248" lon="7.28181">
        <ele>232.00091501914</ele>
        <time>2021-07-08T14:51:51.601Z</time>
      </trkpt>
      <trkpt lat="48.82475" lon="7.28183">
        <ele>229.9445045213</ele>
        <time>2021-07-08T14:51:53.524Z</time>
      </trkpt>
      <trkpt lat="48.82441" lon="7.28196">
        <ele>228.23676938747</ele>
        <time>2021-07-08T14:51:55.459Z</time>
      </trkpt>
      <trkpt lat="48.82438" lon="7.28197">
        <ele>226.50901376771</ele>
        <time>2021-07-08T14:51:57.395Z</time>
      </trkpt>
      <trkpt lat="48.82414" lon="7.28203">
        <ele>225.03488970355</ele>
        <time>2021-07-08T14:51:59.339Z</time>
      </trkpt>
      <trkpt lat="48.82392" lon="7.28207">
        <ele>223.66702706107</ele>
        <time>2021-07-08T14:52:01.290Z</time>
      </trkpt>
      <trkpt lat="48.82375" lon="7.28206">
        <ele>222.3360018296</ele>
        <time>2021-07-08T14:52:03.247Z</time>
      </trkpt>
      <trkpt lat="48.8236" lon="7.28203">
        <ele>221.06894108106</ele>
        <time>2021-07-08T14:52:05.209Z</time>
      </trkpt>
      <trkpt lat="48.82334" lon="7.28197">
        <ele>219.87501953919</ele>
        <time>2021-07-08T14:52:07.180Z</time>
      </trkpt>
      <trkpt lat="48.82319" lon="7.28193">
        <ele>218.77763085463</ele>
        <time>2021-07-08T14:52:09.156Z</time>
      </trkpt>
      <trkpt lat="48.82308" lon="7.28192">
        <ele>217.80149885257</ele>
        <time>2021-07-08T14:52:11.135Z</time>
      </trkpt>
      <trkpt lat="48.82287" lon="7.2819">
        <ele>216.89469685471</ele>
        <time>2021-07-08T14:52:13.121Z</time>
      </trkpt>
      <trkpt lat="48.82274" lon="7.2819">
        <ele>216.05766107896</ele>
        <time>2021-07-08T14:52:15.112Z</time>
      </trkpt>
      <trkpt lat="48.82262" lon="7.28188">
        <ele>215.11167914403</ele>
        <time>2021-07-08T14:52:17.107Z</time>
      </trkpt>
      <trkpt lat="48.8224" lon="7.28188">
        <ele>214.14172046013</ele>
        <time>2021-07-08T14:52:19.109Z</time>
      </trkpt>
      <trkpt lat="48.82216" lon="7.28185">
        <ele>213.13402657384</ele>
        <time>2021-07-08T14:52:21.119Z</time>
      </trkpt>
      <trkpt lat="48.82189" lon="7.28185">
        <ele>212.25977531969</ele>
        <time>2021-07-08T14:52:23.138Z</time>
      </trkpt>
      <trkpt lat="48.82176" lon="7.28187">
        <ele>211.6137378928</ele>
        <time>2021-07-08T14:52:25.162Z</time>
      </trkpt>
      <trkpt lat="48.82151" lon="7.28193">
        <ele>211.08045961192</ele>
        <time>2021-07-08T14:52:27.194Z</time>
      </trkpt>
      <trkpt lat="48.82133" lon="7.28196">
        <ele>210.50590751318</ele>
        <time>2021-07-08T14:52:29.232Z</time>
      </trkpt>
      <trkpt lat="48.82131" lon="7.28196">
        <ele>209.93114961895</ele>
        <time>2021-07-08T14:52:31.271Z</time>
      </trkpt>
      <trkpt lat="48.82126" lon="7.28196">
        <ele>209.37707056624</ele>
        <time>2021-07-08T14:52:33.311Z</time>
      </trkpt>
      <trkpt lat="48.82113" lon="7.28196">
        <ele>208.82213673897</ele>
        <time>2021-07-08T14:52:35.356Z</time>
      </trkpt>
      <trkpt lat="48.82099" lon="7.28194">
        <ele>208.30067083191</ele>
        <time>2021-07-08T14:52:37.405Z</time>
      </trkpt>
      <trkpt lat="48.82059" lon="7.28196">
        <ele>207.96219683585</ele>
        <time>2021-07-08T14:52:39.468Z</time>
      </trkpt>
      <trkpt lat="48.82038" lon="7.28195">
        <ele>207.57214447907</ele>
        <time>2021-07-08T14:52:41.538Z</time>
      </trkpt>
      <trkpt lat="48.82034" lon="7.28194">
        <ele>207.2556513316</ele>
        <time>2021-07-08T14:52:43.609Z</time>
      </trkpt>
      <trkpt lat="48.81956" lon="7.28187">
        <ele>206.88342210221</ele>
        <time>2021-07-08T14:52:45.706Z</time>
      </trkpt>
      <trkpt lat="48.81939" lon="7.2818">
        <ele>206.65624421188</ele>
        <time>2021-07-08T14:52:47.809Z</time>
      </trkpt>
      <trkpt lat="48.81928" lon="7.28174">
        <ele>206.45121784034</ele>
        <time>2021-07-08T14:52:49.916Z</time>
      </trkpt>
      <trkpt lat="48.81923" lon="7.28171">
        <ele>206.41350174949</ele>
        <time>2021-07-08T14:52:52.025Z</time>
      </trkpt>
      <trkpt lat="48.81903" lon="7.28181">
        <ele>206.76469771907</ele>
        <time>2021-07-08T14:52:54.141Z</time>
      </trkpt>
      <trkpt lat="48.81879" lon="7.28179">
        <ele>206.95242750997</ele>
        <time>2021-07-08T14:52:56.265Z</time>
      </trkpt>
      <trkpt lat="48.81855" lon="7.2819">
        <ele>207.20068218198</ele>
        <time>2021-07-08T14:52:58.397Z</time>
      </trkpt>
      <trkpt lat="48.81823" lon="7.28205">
        <ele>207.87723723758</ele>
        <time>2021-07-08T14:53:00.540Z</time>
      </trkpt>
      <trkpt lat="48.81783" lon="7.28245">
        <ele>208.00782543522</ele>
        <time>2021-07-08T14:53:02.699Z</time>
      </trkpt>
      <trkpt lat="48.81743" lon="7.28289">
        <ele>208.89756326238</ele>
        <time>2021-07-08T14:53:04.875Z</time>
      </trkpt>
      <trkpt lat="48.81715" lon="7.28333">
        <ele>209.62544913649</ele>
        <time>2021-07-08T14:53:07.064Z</time>
      </trkpt>
      <trkpt lat="48.81696" lon="7.2836">
        <ele>210.70592533149</ele>
        <time>2021-07-08T14:53:09.262Z</time>
      </trkpt>
      <trkpt lat="48.81675" lon="7.28392">
        <ele>212.00371922789</ele>
        <time>2021-07-08T14:53:11.470Z</time>
      </trkpt>
      <trkpt lat="48.81662" lon="7.28429">
        <ele>213.29729426088</ele>
        <time>2021-07-08T14:53:13.687Z</time>
      </trkpt>
      <trkpt lat="48.8165" lon="7.28469">
        <ele>214.78340944603</ele>
        <time>2021-07-08T14:53:15.914Z</time>
      </trkpt>
      <trkpt lat="48.81628" lon="7.28458">
        <ele>216.08253709535</ele>
        <time>2021-07-08T14:53:18.149Z</time>
      </trkpt>
      <trkpt lat="48.81602" lon="7.28446">
        <ele>217.54576916237</ele>
        <time>2021-07-08T14:53:20.393Z</time>
      </trkpt>
      <trkpt lat="48.8157" lon="7.28431">
        <ele>220.09771114873</ele>
        <time>2021-07-08T14:53:22.648Z</time>
      </trkpt>
      <trkpt lat="48.8156" lon="7.28424">
        <ele>221.97629118091</ele>
        <time>2021-07-08T14:53:24.907Z</time>
      </trkpt>
      <trkpt lat="48.81549" lon="7.28404">
        <ele>223.94554088018</ele>
        <time>2021-07-08T14:53:27.171Z</time>
      </trkpt>
      <trkpt lat="48.81543" lon="7.28413">
        <ele>225.55328583084</ele>
        <time>2021-07-08T14:53:29.438Z</time>
      </trkpt>
      <trkpt lat="48.81539" lon="7.2842">
        <ele>227.08427774869</ele>
        <time>2021-07-08T14:53:31.707Z</time>
      </trkpt>
      <trkpt lat="48.81534" lon="7.2843">
        <ele>228.50805569597</ele>
        <time>2021-07-08T14:53:33.979Z</time>
      </trkpt>
      <trkpt lat="48.81524" lon="7.28467">
        <ele>229.48680583674</ele>
        <time>2021-07-08T14:53:36.260Z</time>
      </trkpt>
      <trkpt lat="48.81518" lon="7.28494">
        <ele>230.44354165931</ele>
        <time>2021-07-08T14:53:38.547Z</time>
      </trkpt>
      <trkpt lat="48.81508" lon="7.28535">
        <ele>231.24784218729</ele>
        <time>2021-07-08T14:53:40.844Z</time>
      </trkpt>
      <trkpt lat="48.81496" lon="7.28557">
        <ele>232.23401408343</ele>
        <time>2021-07-08T14:53:43.147Z</time>
      </trkpt>
      <trkpt lat="48.81478" lon="7.28579">
        <ele>232.98455075649</ele>
        <time>2021-07-08T14:53:45.458Z</time>
      </trkpt>
      <trkpt lat="48.81447" lon="7.28606">
        <ele>234.01407558747</ele>
        <time>2021-07-08T14:53:47.781Z</time>
      </trkpt>
      <trkpt lat="48.81415" lon="7.2863">
        <ele>234.80012057657</ele>
        <time>2021-07-08T14:53:50.116Z</time>
      </trkpt>
      <trkpt lat="48.81414" lon="7.28631">
        <ele>236.02227158178</ele>
        <time>2021-07-08T14:53:52.451Z</time>
      </trkpt>
      <trkpt lat="48.81414" lon="7.28631">
        <ele>236.49877296035</ele>
        <time>2021-07-08T14:53:54.786Z</time>
      </trkpt>
      <trkpt lat="48.81384" lon="7.28644">
        <ele>236.93861250371</ele>
        <time>2021-07-08T14:53:57.131Z</time>
      </trkpt>
      <trkpt lat="48.81346" lon="7.28667">
        <ele>237.11513798387</ele>
        <time>2021-07-08T14:53:59.490Z</time>
      </trkpt>
      <trkpt lat="48.81311" lon="7.2869">
        <ele>237.37769682449</ele>
        <time>2021-07-08T14:54:01.862Z</time>
      </trkpt>
      <trkpt lat="48.81289" lon="7.28699">
        <ele>237.58018878403</ele>
        <time>2021-07-08T14:54:04.241Z</time>
      </trkpt>
      <trkpt lat="48.81283" lon="7.287">
        <ele>237.63028466007</ele>
        <time>2021-07-08T14:54:06.622Z</time>
      </trkpt>
      <trkpt lat="48.81277" lon="7.28699">
        <ele>237.60326588342</ele>
        <time>2021-07-08T14:54:09.005Z</time>
      </trkpt>
      <trkpt lat="48.81273" lon="7.28695">
        <ele>237.48925845227</ele>
        <time>2021-07-08T14:54:11.390Z</time>
      </trkpt>
      <trkpt lat="48.81267" lon="7.28691">
        <ele>237.33821425997</ele>
        <time>2021-07-08T14:54:13.777Z</time>
      </trkpt>
      <trkpt lat="48.81256" lon="7.28681">
        <ele>237.26987513524</ele>
        <time>2021-07-08T14:54:16.168Z</time>
      </trkpt>
      <trkpt lat="48.81254" lon="7.28691">
        <ele>236.61442178432</ele>
        <time>2021-07-08T14:54:18.562Z</time>
      </trkpt>
      <trkpt lat="48.81248" lon="7.28713">
        <ele>235.76041100077</ele>
        <time>2021-07-08T14:54:20.961Z</time>
      </trkpt>
      <trkpt lat="48.81235" lon="7.28753">
        <ele>234.96468415395</ele>
        <time>2021-07-08T14:54:23.370Z</time>
      </trkpt>
      <trkpt lat="48.81225" lon="7.28781">
        <ele>234.13324146936</ele>
        <time>2021-07-08T14:54:25.786Z</time>
      </trkpt>
      <trkpt lat="48.81214" lon="7.28802">
        <ele>233.14497538405</ele>
        <time>2021-07-08T14:54:28.208Z</time>
      </trkpt>
      <trkpt lat="48.81197" lon="7.28833">
        <ele>232.11299465411</ele>
        <time>2021-07-08T14:54:30.638Z</time>
      </trkpt>
      <trkpt lat="48.81169" lon="7.28882">
        <ele>230.56480126315</ele>
        <time>2021-07-08T14:54:33.083Z</time>
      </trkpt>
      <trkpt lat="48.8114" lon="7.28923">
        <ele>229.17627033318</ele>
        <time>2021-07-08T14:54:35.541Z</time>
      </trkpt>
      <trkpt lat="48.81111" lon="7.28958">
        <ele>227.73420265253</ele>
        <time>2021-07-08T14:54:38.011Z</time>
      </trkpt>
      <trkpt lat="48.81081" lon="7.28989">
        <ele>226.22366838467</ele>
        <time>2021-07-08T14:54:40.493Z</time>
      </trkpt>
      <trkpt lat="48.81059" lon="7.29011">
        <ele>225.11627463744</ele>
        <time>2021-07-08T14:54:42.984Z</time>
      </trkpt>
      <trkpt lat="48.81041" lon="7.29036">
        <ele>223.91317377672</ele>
        <time>2021-07-08T14:54:45.483Z</time>
      </trkpt>
      <trkpt lat="48.81027" lon="7.29058">
        <ele>222.66475119217</ele>
        <time>2021-07-08T14:54:47.989Z</time>
      </trkpt>
      <trkpt lat="48.81012" lon="7.29073">
        <ele>221.69834580141</ele>
        <time>2021-07-08T14:54:50.501Z</time>
      </trkpt>
      <trkpt lat="48.80995" lon="7.29097">
        <ele>220.89422226428</ele>
        <time>2021-07-08T14:54:53.021Z</time>
      </trkpt>
      <trkpt lat="48.80979" lon="7.29114">
        <ele>220.29097305241</ele>
        <time>2021-07-08T14:54:55.547Z</time>
      </trkpt>
      <trkpt lat="48.80963" lon="7.29124">
        <ele>219.7419960767</ele>
        <time>2021-07-08T14:54:58.079Z</time>
      </trkpt>
      <trkpt lat="48.8094" lon="7.29137">
        <ele>219.29428960252</ele>
        <time>2021-07-08T14:55:00.619Z</time>
      </trkpt>
      <trkpt lat="48.80906" lon="7.29164">
        <ele>219.06307144428</ele>
        <time>2021-07-08T14:55:03.172Z</time>
      </trkpt>
      <trkpt lat="48.80885" lon="7.29184">
        <ele>219.00342686814</ele>
        <time>2021-07-08T14:55:05.733Z</time>
      </trkpt>
      <trkpt lat="48.80866" lon="7.29207">
        <ele>218.75876290555</ele>
        <time>2021-07-08T14:55:08.303Z</time>
      </trkpt>
      <trkpt lat="48.80851" lon="7.29229">
        <ele>218.56942609564</ele>
        <time>2021-07-08T14:55:10.880Z</time>
      </trkpt>
      <trkpt lat="48.80839" lon="7.29238">
        <ele>218.66807676411</ele>
        <time>2021-07-08T14:55:13.461Z</time>
      </trkpt>
      <trkpt lat="48.80829" lon="7.29246">
        <ele>218.81995966587</ele>
        <time>2021-07-08T14:55:16.046Z</time>
      </trkpt>
      <trkpt lat="48.80822" lon="7.29252">
        <ele>219.07266554966</ele>
        <time>2021-07-08T14:55:18.633Z</time>
      </trkpt>
      <trkpt lat="48.80796" lon="7.29281">
        <ele>219.35943520784</ele>
        <time>2021-07-08T14:55:21.231Z</time>
      </trkpt>
      <trkpt lat="48.80742" lon="7.29328">
        <ele>219.58416472361</ele>
        <time>2021-07-08T14:55:23.850Z</time>
      </trkpt>
      <trkpt lat="48.80717" lon="7.29345">
        <ele>220.20039703847</ele>
        <time>2021-07-08T14:55:26.478Z</time>
      </trkpt>
      <trkpt lat="48.80694" lon="7.29368">
        <ele>220.65419208872</ele>
        <time>2021-07-08T14:55:29.115Z</time>
      </trkpt>
      <trkpt lat="48.80675" lon="7.29389">
        <ele>221.17829070113</ele>
        <time>2021-07-08T14:55:31.760Z</time>
      </trkpt>
      <trkpt lat="48.80666" lon="7.29391">
        <ele>221.81927536322</ele>
        <time>2021-07-08T14:55:34.408Z</time>
      </trkpt>
      <trkpt lat="48.8066" lon="7.2939">
        <ele>222.45963615333</ele>
        <time>2021-07-08T14:55:37.058Z</time>
      </trkpt>
      <trkpt lat="48.80649" lon="7.29388">
        <ele>223.19898318019</ele>
        <time>2021-07-08T14:55:39.712Z</time>
      </trkpt>
      <trkpt lat="48.80641" lon="7.29395">
        <ele>223.76324986592</ele>
        <time>2021-07-08T14:55:42.369Z</time>
      </trkpt>
      <trkpt lat="48.80631" lon="7.29418">
        <ele>224.20681266504</ele>
        <time>2021-07-08T14:55:45.032Z</time>
      </trkpt>
      <trkpt lat="48.80628" lon="7.29425">
        <ele>224.60278637165</ele>
        <time>2021-07-08T14:55:47.697Z</time>
      </trkpt>
      <trkpt lat="48.80622" lon="7.29429">
        <ele>225.01628231853</ele>
        <time>2021-07-08T14:55:50.364Z</time>
      </trkpt>
      <trkpt lat="48.80609" lon="7.29535">
        <ele>224.67558875282</ele>
        <time>2021-07-08T14:55:53.055Z</time>
      </trkpt>
      <trkpt lat="48.80605" lon="7.29569">
        <ele>224.7319975178</ele>
        <time>2021-07-08T14:55:55.754Z</time>
      </trkpt>
      <trkpt lat="48.80596" lon="7.29612">
        <ele>224.87111674938</ele>
        <time>2021-07-08T14:55:58.462Z</time>
      </trkpt>
      <trkpt lat="48.80587" lon="7.29659">
        <ele>225.00356210156</ele>
        <time>2021-07-08T14:56:01.181Z</time>
      </trkpt>
      <trkpt lat="48.80583" lon="7.29677">
        <ele>225.15885266505</ele>
        <time>2021-07-08T14:56:03.904Z</time>
      </trkpt>
      <trkpt lat="48.80572" lon="7.29755">
        <ele>225.46803089708</ele>
        <time>2021-07-08T14:56:06.645Z</time>
      </trkpt>
      <trkpt lat="48.80563" lon="7.29819">
        <ele>225.27102153754</ele>
        <time>2021-07-08T14:56:09.400Z</time>
      </trkpt>
      <trkpt lat="48.80552" lon="7.29885">
        <ele>224.91699277138</ele>
        <time>2021-07-08T14:56:12.170Z</time>
      </trkpt>
      <trkpt lat="48.80544" lon="7.29921">
        <ele>224.61919114888</ele>
        <time>2021-07-08T14:56:14.949Z</time>
      </trkpt>
      <trkpt lat="48.80536" lon="7.29947">
        <ele>224.32100789514</ele>
        <time>2021-07-08T14:56:17.734Z</time>
      </trkpt>
      <trkpt lat="48.80524" lon="7.29976">
        <ele>223.82099906966</ele>
        <time>2021-07-08T14:56:20.527Z</time>
      </trkpt>
      <trkpt lat="48.80507" lon="7.30004">
        <ele>223.66827291333</ele>
        <time>2021-07-08T14:56:23.328Z</time>
      </trkpt>
      <trkpt lat="48.80489" lon="7.30036">
        <ele>223.61238513463</ele>
        <time>2021-07-08T14:56:26.138Z</time>
      </trkpt>
      <trkpt lat="48.80475" lon="7.30057">
        <ele>223.21076693042</ele>
        <time>2021-07-08T14:56:28.955Z</time>
      </trkpt>
      <trkpt lat="48.80453" lon="7.30083">
        <ele>222.71130890416</ele>
        <time>2021-07-08T14:56:31.781Z</time>
      </trkpt>
      <trkpt lat="48.80423" lon="7.30115">
        <ele>222.456207185</ele>
        <time>2021-07-08T14:56:34.619Z</time>
      </trkpt>
      <trkpt lat="48.80397" lon="7.30141">
        <ele>222.26450009811</ele>
        <time>2021-07-08T14:56:37.468Z</time>
      </trkpt>
      <trkpt lat="48.80377" lon="7.30164">
        <ele>221.95732475798</ele>
        <time>2021-07-08T14:56:40.325Z</time>
      </trkpt>
      <trkpt lat="48.8036" lon="7.30185">
        <ele>221.7731158946</ele>
        <time>2021-07-08T14:56:43.190Z</time>
      </trkpt>
      <trkpt lat="48.8033" lon="7.30228">
        <ele>221.65747125388</ele>
        <time>2021-07-08T14:56:46.068Z</time>
      </trkpt>
      <trkpt lat="48.80308" lon="7.30269">
        <ele>221.31908658013</ele>
        <time>2021-07-08T14:56:48.958Z</time>
      </trkpt>
      <trkpt lat="48.803" lon="7.3029">
        <ele>220.85332623979</ele>
        <time>2021-07-08T14:56:51.853Z</time>
      </trkpt>
      <trkpt lat="48.8029" lon="7.30326">
        <ele>220.22533925053</ele>
        <time>2021-07-08T14:56:54.757Z</time>
      </trkpt>
      <trkpt lat="48.80282" lon="7.30365">
        <ele>219.61271498762</ele>
        <time>2021-07-08T14:56:57.670Z</time>
      </trkpt>
      <trkpt lat="48.8027" lon="7.30409">
        <ele>218.93471154998</ele>
        <time>2021-07-08T14:57:00.593Z</time>
      </trkpt>
      <trkpt lat="48.80249" lon="7.30472">
        <ele>218.52233132516</ele>
        <time>2021-07-08T14:57:03.532Z</time>
      </trkpt>
      <trkpt lat="48.8022" lon="7.30553">
        <ele>217.68178849389</ele>
        <time>2021-07-08T14:57:06.491Z</time>
      </trkpt>
      <trkpt lat="48.80195" lon="7.30611">
        <ele>216.92596088113</ele>
        <time>2021-07-08T14:57:09.466Z</time>
      </trkpt>
      <trkpt lat="48.80175" lon="7.30646">
        <ele>216.02167142302</ele>
        <time>2021-07-08T14:57:12.451Z</time>
      </trkpt>
      <trkpt lat="48.80157" lon="7.30669">
        <ele>215.35332132358</ele>
        <time>2021-07-08T14:57:15.444Z</time>
      </trkpt>
      <trkpt lat="48.80146" lon="7.3068">
        <ele>214.80039168238</ele>
        <time>2021-07-08T14:57:18.441Z</time>
      </trkpt>
      <trkpt lat="48.80129" lon="7.3069">
        <ele>214.2836431968</ele>
        <time>2021-07-08T14:57:21.444Z</time>
      </trkpt>
      <trkpt lat="48.80116" lon="7.30695">
        <ele>213.58146865727</ele>
        <time>2021-07-08T14:57:24.452Z</time>
      </trkpt>
      <trkpt lat="48.80087" lon="7.3071">
        <ele>212.92648180613</ele>
        <time>2021-07-08T14:57:27.470Z</time>
      </trkpt>
      <trkpt lat="48.80076" lon="7.30717">
        <ele>212.29470700543</ele>
        <time>2021-07-08T14:57:30.492Z</time>
      </trkpt>
      <trkpt lat="48.80053" lon="7.30732">
        <ele>211.61318281579</ele>
        <time>2021-07-08T14:57:33.522Z</time>
      </trkpt>
      <trkpt lat="48.8002" lon="7.30766">
        <ele>210.82574236012</ele>
        <time>2021-07-08T14:57:36.565Z</time>
      </trkpt>
      <trkpt lat="48.79997" lon="7.30798">
        <ele>210.05913519306</ele>
        <time>2021-07-08T14:57:39.619Z</time>
      </trkpt>
      <trkpt lat="48.79972" lon="7.30842">
        <ele>209.28340337524</ele>
        <time>2021-07-08T14:57:42.686Z</time>
      </trkpt>
      <trkpt lat="48.79954" lon="7.30878">
        <ele>208.55644300762</ele>
        <time>2021-07-08T14:57:45.763Z</time>
      </trkpt>
      <trkpt lat="48.7994" lon="7.30894">
        <ele>207.89493720603</ele>
        <time>2021-07-08T14:57:48.845Z</time>
      </trkpt>
      <trkpt lat="48.79926" lon="7.30903">
        <ele>207.3260593515</ele>
        <time>2021-07-08T14:57:51.932Z</time>
      </trkpt>
      <trkpt lat="48.79916" lon="7.30907">
        <ele>206.91972733344</ele>
        <time>2021-07-08T14:57:55.023Z</time>
      </trkpt>
      <trkpt lat="48.79906" lon="7.30907">
        <ele>206.57229377668</ele>
        <time>2021-07-08T14:57:58.117Z</time>
      </trkpt>
      <trkpt lat="48.79898" lon="7.30904">
        <ele>206.27052165036</ele>
        <time>2021-07-08T14:58:01.214Z</time>
      </trkpt>
      <trkpt lat="48.79891" lon="7.30899">
        <ele>206.00032219843</ele>
        <time>2021-07-08T14:58:04.314Z</time>
      </trkpt>
      <trkpt lat="48.79882" lon="7.30884">
        <ele>205.78326530605</ele>
        <time>2021-07-08T14:58:07.418Z</time>
      </trkpt>
      <trkpt lat="48.79874" lon="7.3086">
        <ele>205.59721926633</ele>
        <time>2021-07-08T14:58:10.528Z</time>
      </trkpt>
      <trkpt lat="48.79856" lon="7.30807">
        <ele>205.50244857408</ele>
        <time>2021-07-08T14:58:13.651Z</time>
      </trkpt>
      <trkpt lat="48.79852" lon="7.30795">
        <ele>205.24395727057</ele>
        <time>2021-07-08T14:58:16.777Z</time>
      </trkpt>
      <trkpt lat="48.79835" lon="7.30744">
        <ele>205.32752514226</ele>
        <time>2021-07-08T14:58:19.916Z</time>
      </trkpt>
      <trkpt lat="48.79833" lon="7.30753">
        <ele>204.85143977308</ele>
        <time>2021-07-08T14:58:23.057Z</time>
      </trkpt>
      <trkpt lat="48.79828" lon="7.30772">
        <ele>204.2843030842</ele>
        <time>2021-07-08T14:58:26.202Z</time>
      </trkpt>
      <trkpt lat="48.79826" lon="7.30779">
        <ele>203.5879488801</ele>
        <time>2021-07-08T14:58:29.349Z</time>
      </trkpt>
      <trkpt lat="48.79823" lon="7.30788">
        <ele>202.79145285926</ele>
        <time>2021-07-08T14:58:32.498Z</time>
      </trkpt>
      <trkpt lat="48.79812" lon="7.30823">
        <ele>202.00446082088</ele>
        <time>2021-07-08T14:58:35.656Z</time>
      </trkpt>
      <trkpt lat="48.79806" lon="7.30847">
        <ele>200.99784786149</ele>
        <time>2021-07-08T14:58:38.819Z</time>
      </trkpt>
      <trkpt lat="48.79804" lon="7.3086">
        <ele>199.83143699961</ele>
        <time>2021-07-08T14:58:41.985Z</time>
      </trkpt>
      <trkpt lat="48.79802" lon="7.30886">
        <ele>198.35105432424</ele>
        <time>2021-07-08T14:58:45.157Z</time>
      </trkpt>
      <trkpt lat="48.79802" lon="7.30906">
        <ele>196.82803788803</ele>
        <time>2021-07-08T14:58:48.334Z</time>
      </trkpt>
      <trkpt lat="48.79802" lon="7.30949">
        <ele>195.28908300564</ele>
        <time>2021-07-08T14:58:51.520Z</time>
      </trkpt>
      <trkpt lat="48.79804" lon="7.30978">
        <ele>193.71866927966</ele>
        <time>2021-07-08T14:58:54.712Z</time>
      </trkpt>
      <trkpt lat="48.79808" lon="7.31002">
        <ele>192.24506397844</ele>
        <time>2021-07-08T14:58:57.910Z</time>
      </trkpt>
      <trkpt lat="48.79815" lon="7.31031">
        <ele>190.96245436585</ele>
        <time>2021-07-08T14:59:01.115Z</time>
      </trkpt>
      <trkpt lat="48.79824" lon="7.31057">
        <ele>189.767524859</ele>
        <time>2021-07-08T14:59:04.326Z</time>
      </trkpt>
      <trkpt lat="48.79833" lon="7.31075">
        <ele>188.72962263413</ele>
        <time>2021-07-08T14:59:07.542Z</time>
      </trkpt>
      <trkpt lat="48.79844" lon="7.31088">
        <ele>187.89000623653</ele>
        <time>2021-07-08T14:59:10.763Z</time>
      </trkpt>
      <trkpt lat="48.79857" lon="7.31097">
        <ele>187.29388327831</ele>
        <time>2021-07-08T14:59:13.989Z</time>
      </trkpt>
      <trkpt lat="48.79866" lon="7.311">
        <ele>187.06634192868</ele>
        <time>2021-07-08T14:59:17.218Z</time>
      </trkpt>
      <trkpt lat="48.79875" lon="7.31101">
        <ele>187.14884365876</ele>
        <time>2021-07-08T14:59:20.450Z</time>
      </trkpt>
      <trkpt lat="48.79882" lon="7.311">
        <ele>187.56971023018</ele>
        <time>2021-07-08T14:59:23.684Z</time>
      </trkpt>
      <trkpt lat="48.79875" lon="7.31108">
        <ele>188.38081730286</ele>
        <time>2021-07-08T14:59:26.921Z</time>
      </trkpt>
      <trkpt lat="48.79858" lon="7.31126">
        <ele>189.58992409886</ele>
        <time>2021-07-08T14:59:30.165Z</time>
      </trkpt>
      <trkpt lat="48.79832" lon="7.31154">
        <ele>191.40182151165</ele>
        <time>2021-07-08T14:59:33.419Z</time>
      </trkpt>
      <trkpt lat="48.79821" lon="7.31169">
        <ele>193.53919159611</ele>
        <time>2021-07-08T14:59:36.678Z</time>
      </trkpt>
      <trkpt lat="48.79814" lon="7.31184">
        <ele>196.10627219293</ele>
        <time>2021-07-08T14:59:39.941Z</time>
      </trkpt>
      <trkpt lat="48.79807" lon="7.31212">
        <ele>199.18595392906</ele>
        <time>2021-07-08T14:59:43.211Z</time>
      </trkpt>
      <trkpt lat="48.79806" lon="7.31228">
        <ele>202.66480193366</ele>
        <time>2021-07-08T14:59:46.485Z</time>
      </trkpt>
      <trkpt lat="48.79806" lon="7.31245">
        <ele>206.58536886877</ele>
        <time>2021-07-08T14:59:49.762Z</time>
      </trkpt>
      <trkpt lat="48.79807" lon="7.31266">
        <ele>210.87546022137</ele>
        <time>2021-07-08T14:59:53.044Z</time>
      </trkpt>
      <trkpt lat="48.79809" lon="7.31285">
        <ele>215.57613585856</ele>
        <time>2021-07-08T14:59:56.330Z</time>
      </trkpt>
      <trkpt lat="48.79811" lon="7.31304">
        <ele>220.77286340975</ele>
        <time>2021-07-08T14:59:59.620Z</time>
      </trkpt>
      <trkpt lat="48.7981" lon="7.31304">
        <ele>226.28283215476</ele>
        <time>2021-07-08T15:00:02.911Z</time>
      </trkpt>
      <trkpt lat="48.79734" lon="7.31281">
        <ele>233.30022119408</ele>
        <time>2021-07-08T15:00:06.228Z</time>
      </trkpt>
      <trkpt lat="48.79674" lon="7.31252">
        <ele>240.3321350202</ele>
        <time>2021-07-08T15:00:09.566Z</time>
      </trkpt>
      <trkpt lat="48.79642" lon="7.3124">
        <ele>247.09669212003</ele>
        <time>2021-07-08T15:00:12.915Z</time>
      </trkpt>
      <trkpt lat="48.79615" lon="7.31238">
        <ele>254.04953778626</ele>
        <time>2021-07-08T15:00:16.273Z</time>
      </trkpt>
      <trkpt lat="48.79566" lon="7.31233">
        <ele>261.22233554561</ele>
        <time>2021-07-08T15:00:19.647Z</time>
      </trkpt>
      <trkpt lat="48.79507" lon="7.31231">
        <ele>268.49720878462</ele>
        <time>2021-07-08T15:00:23.041Z</time>
      </trkpt>
      <trkpt lat="48.79448" lon="7.31222">
        <ele>275.54958673903</ele>
        <time>2021-07-08T15:00:26.455Z</time>
      </trkpt>
      <trkpt lat="48.79441" lon="7.31221">
        <ele>282.14673100845</ele>
        <time>2021-07-08T15:00:29.871Z</time>
      </trkpt>
      <trkpt lat="48.79339" lon="7.31206">
        <ele>289.04847843892</ele>
        <time>2021-07-08T15:00:33.321Z</time>
      </trkpt>
      <trkpt lat="48.79278" lon="7.31203">
        <ele>295.84402261578</ele>
        <time>2021-07-08T15:00:36.791Z</time>
      </trkpt>
      <trkpt lat="48.79217" lon="7.31204">
        <ele>302.17944851789</ele>
        <time>2021-07-08T15:00:40.282Z</time>
      </trkpt>
      <trkpt lat="48.79207" lon="7.31207">
        <ele>308.03077107452</ele>
        <time>2021-07-08T15:00:43.776Z</time>
      </trkpt>
      <trkpt lat="48.7918" lon="7.31216">
        <ele>313.69407384432</ele>
        <time>2021-07-08T15:00:47.279Z</time>
      </trkpt>
      <trkpt lat="48.79179" lon="7.31216">
        <ele>323.8253285483</ele>
        <time>2021-07-08T15:00:50.783Z</time>
      </trkpt>
      <trkpt lat="48.79179" lon="7.31216">
        <ele>328.39678260978</ele>
        <time>2021-07-08T15:00:54.287Z</time>
      </trkpt>
      <trkpt lat="48.791" lon="7.31246">
        <ele>333.09144570835</ele>
        <time>2021-07-08T15:00:57.818Z</time>
      </trkpt>
      <trkpt lat="48.79063" lon="7.31254">
        <ele>337.16598844272</ele>
        <time>2021-07-08T15:01:01.361Z</time>
      </trkpt>
      <trkpt lat="48.79006" lon="7.31261">
        <ele>340.99987975204</ele>
        <time>2021-07-08T15:01:04.923Z</time>
      </trkpt>
      <trkpt lat="48.7896" lon="7.31266">
        <ele>344.51969429894</ele>
        <time>2021-07-08T15:01:08.501Z</time>
      </trkpt>
      <trkpt lat="48.78937" lon="7.31276">
        <ele>347.36631298499</ele>
        <time>2021-07-08T15:01:12.087Z</time>
      </trkpt>
      <trkpt lat="48.78934" lon="7.31277">
        <ele>349.66890665567</ele>
        <time>2021-07-08T15:01:15.674Z</time>
      </trkpt>
      <trkpt lat="48.78925" lon="7.31251">
        <ele>351.57208245358</ele>
        <time>2021-07-08T15:01:19.267Z</time>
      </trkpt>
      <trkpt lat="48.78923" lon="7.31254">
        <ele>353.08619914298</ele>
        <time>2021-07-08T15:01:22.861Z</time>
      </trkpt>
      <trkpt lat="48.7892" lon="7.31257">
        <ele>354.22393672985</ele>
        <time>2021-07-08T15:01:26.456Z</time>
      </trkpt>
      <trkpt lat="48.78897" lon="7.31264">
        <ele>355.05306661006</ele>
        <time>2021-07-08T15:01:30.059Z</time>
      </trkpt>
      <trkpt lat="48.78862" lon="7.31278">
        <ele>355.58462981588</ele>
        <time>2021-07-08T15:01:33.674Z</time>
      </trkpt>
      <trkpt lat="48.78832" lon="7.31285">
        <ele>355.61503698068</ele>
        <time>2021-07-08T15:01:37.300Z</time>
      </trkpt>
      <trkpt lat="48.78808" lon="7.31289">
        <ele>355.30533821569</ele>
        <time>2021-07-08T15:01:40.934Z</time>
      </trkpt>
      <trkpt lat="48.78781" lon="7.31297">
        <ele>354.73830895233</ele>
        <time>2021-07-08T15:01:44.577Z</time>
      </trkpt>
      <trkpt lat="48.78769" lon="7.313">
        <ele>353.91391685568</ele>
        <time>2021-07-08T15:01:48.224Z</time>
      </trkpt>
      <trkpt lat="48.78758" lon="7.31298">
        <ele>352.81538617812</ele>
        <time>2021-07-08T15:01:51.874Z</time>
      </trkpt>
      <trkpt lat="48.78755" lon="7.31297">
        <ele>351.53268169727</ele>
        <time>2021-07-08T15:01:55.526Z</time>
      </trkpt>
      <trkpt lat="48.78746" lon="7.31294">
        <ele>350.02572649571</ele>
        <time>2021-07-08T15:01:59.181Z</time>
      </trkpt>
      <trkpt lat="48.78722" lon="7.31289">
        <ele>348.28401531771</ele>
        <time>2021-07-08T15:02:02.844Z</time>
      </trkpt>
      <trkpt lat="48.78695" lon="7.31288">
        <ele>346.400717877</ele>
        <time>2021-07-08T15:02:06.516Z</time>
      </trkpt>
      <trkpt lat="48.78671" lon="7.31289">
        <ele>344.41079184529</ele>
        <time>2021-07-08T15:02:10.196Z</time>
      </trkpt>
      <trkpt lat="48.7864" lon="7.31292">
        <ele>342.27545267352</ele>
        <time>2021-07-08T15:02:13.886Z</time>
      </trkpt>
      <trkpt lat="48.78611" lon="7.3129">
        <ele>340.03072627319</ele>
        <time>2021-07-08T15:02:17.586Z</time>
      </trkpt>
      <trkpt lat="48.78598" lon="7.31287">
        <ele>337.92973965618</ele>
        <time>2021-07-08T15:02:21.290Z</time>
      </trkpt>
      <trkpt lat="48.78595" lon="7.31285">
        <ele>335.86251093548</ele>
        <time>2021-07-08T15:02:24.995Z</time>
      </trkpt>
      <trkpt lat="48.78584" lon="7.31279">
        <ele>333.80985917757</ele>
        <time>2021-07-08T15:02:28.704Z</time>
      </trkpt>
      <trkpt lat="48.7857" lon="7.31264">
        <ele>331.78589350581</ele>
        <time>2021-07-08T15:02:32.419Z</time>
      </trkpt>
      <trkpt lat="48.78538" lon="7.31224">
        <ele>329.80130488368</ele>
        <time>2021-07-08T15:02:36.148Z</time>
      </trkpt>
      <trkpt lat="48.78517" lon="7.31199">
        <ele>327.85942995032</ele>
        <time>2021-07-08T15:02:39.886Z</time>
      </trkpt>
      <trkpt lat="48.78476" lon="7.31164">
        <ele>325.94667545751</ele>
        <time>2021-07-08T15:02:43.639Z</time>
      </trkpt>
      <trkpt lat="48.78445" lon="7.31146">
        <ele>324.15105752388</ele>
        <time>2021-07-08T15:02:47.403Z</time>
      </trkpt>
      <trkpt lat="48.78416" lon="7.3114">
        <ele>322.36688658896</ele>
        <time>2021-07-08T15:02:51.177Z</time>
      </trkpt>
      <trkpt lat="48.78364" lon="7.31128">
        <ele>320.37514452756</ele>
        <time>2021-07-08T15:02:54.969Z</time>
      </trkpt>
      <trkpt lat="48.78354" lon="7.31125">
        <ele>318.87107514042</ele>
        <time>2021-07-08T15:02:58.764Z</time>
      </trkpt>
      <trkpt lat="48.78301" lon="7.31111">
        <ele>317.3302163998</ele>
        <time>2021-07-08T15:03:02.577Z</time>
      </trkpt>
      <trkpt lat="48.78268" lon="7.31101">
        <ele>316.05278290409</ele>
        <time>2021-07-08T15:03:06.401Z</time>
      </trkpt>
      <trkpt lat="48.78261" lon="7.31099">
        <ele>315.11974117192</ele>
        <time>2021-07-08T15:03:10.228Z</time>
      </trkpt>
      <trkpt lat="48.78245" lon="7.31097">
        <ele>314.37018756618</ele>
        <time>2021-07-08T15:03:14.060Z</time>
      </trkpt>
      <trkpt lat="48.78231" lon="7.31097">
        <ele>313.76690000706</ele>
        <time>2021-07-08T15:03:17.897Z</time>
      </trkpt>
      <trkpt lat="48.78221" lon="7.31099">
        <ele>313.30080735377</ele>
        <time>2021-07-08T15:03:21.737Z</time>
      </trkpt>
      <trkpt lat="48.78208" lon="7.31103">
        <ele>312.99082114809</ele>
        <time>2021-07-08T15:03:25.581Z</time>
      </trkpt>
      <trkpt lat="48.78184" lon="7.31114">
        <ele>312.92744634094</ele>
        <time>2021-07-08T15:03:29.434Z</time>
      </trkpt>
      <trkpt lat="48.78159" lon="7.31136">
        <ele>312.95227834851</ele>
        <time>2021-07-08T15:03:33.296Z</time>
      </trkpt>
      <trkpt lat="48.78147" lon="7.31152">
        <ele>313.13189352667</ele>
        <time>2021-07-08T15:03:37.164Z</time>
      </trkpt>
      <trkpt lat="48.78142" lon="7.31159">
        <ele>313.34092084507</ele>
        <time>2021-07-08T15:03:41.034Z</time>
      </trkpt>
      <trkpt lat="48.78137" lon="7.31167">
        <ele>313.6265856118</ele>
        <time>2021-07-08T15:03:44.907Z</time>
      </trkpt>
      <trkpt lat="48.78135" lon="7.31174">
        <ele>313.94727131758</ele>
        <time>2021-07-08T15:03:48.781Z</time>
      </trkpt>
      <trkpt lat="48.7813" lon="7.31197">
        <ele>314.33939985968</ele>
        <time>2021-07-08T15:03:52.661Z</time>
      </trkpt>
      <trkpt lat="48.7812" lon="7.31239">
        <ele>314.85121974378</ele>
        <time>2021-07-08T15:03:56.550Z</time>
      </trkpt>
      <trkpt lat="48.78106" lon="7.3129">
        <ele>315.40358800194</ele>
        <time>2021-07-08T15:04:00.452Z</time>
      </trkpt>
      <trkpt lat="48.78097" lon="7.31316">
        <ele>315.89739975549</ele>
        <time>2021-07-08T15:04:04.360Z</time>
      </trkpt>
      <trkpt lat="48.78085" lon="7.3134">
        <ele>316.40813976867</ele>
        <time>2021-07-08T15:04:08.275Z</time>
      </trkpt>
      <trkpt lat="48.78067" lon="7.31368">
        <ele>316.96955760633</ele>
        <time>2021-07-08T15:04:12.198Z</time>
      </trkpt>
      <trkpt lat="48.78027" lon="7.3141">
        <ele>317.40943460994</ele>
        <time>2021-07-08T15:04:16.138Z</time>
      </trkpt>
      <trkpt lat="48.77993" lon="7.31449">
        <ele>317.567097601</ele>
        <time>2021-07-08T15:04:20.092Z</time>
      </trkpt>
      <trkpt lat="48.77986" lon="7.31458">
        <ele>317.95600453104</ele>
        <time>2021-07-08T15:04:24.049Z</time>
      </trkpt>
      <trkpt lat="48.7794" lon="7.31508">
        <ele>318.43442628743</ele>
        <time>2021-07-08T15:04:28.025Z</time>
      </trkpt>
      <trkpt lat="48.77923" lon="7.31529">
        <ele>318.94547816492</ele>
        <time>2021-07-08T15:04:32.008Z</time>
      </trkpt>
      <trkpt lat="48.77916" lon="7.31537">
        <ele>319.41861234257</ele>
        <time>2021-07-08T15:04:35.994Z</time>
      </trkpt>
      <trkpt lat="48.77885" lon="7.31596">
        <ele>320.04445354615</ele>
        <time>2021-07-08T15:04:39.997Z</time>
      </trkpt>
      <trkpt lat="48.77879" lon="7.31606">
        <ele>320.5198002397</ele>
        <time>2021-07-08T15:04:44.003Z</time>
      </trkpt>
      <trkpt lat="48.77872" lon="7.31616">
        <ele>320.97086510848</ele>
        <time>2021-07-08T15:04:48.012Z</time>
      </trkpt>
      <trkpt lat="48.77857" lon="7.31634">
        <ele>321.44097769089</ele>
        <time>2021-07-08T15:04:52.027Z</time>
      </trkpt>
      <trkpt lat="48.77849" lon="7.31639">
        <ele>321.88058179567</ele>
        <time>2021-07-08T15:04:56.045Z</time>
      </trkpt>
      <trkpt lat="48.77838" lon="7.31642">
        <ele>322.32529557728</ele>
        <time>2021-07-08T15:05:00.067Z</time>
      </trkpt>
      <trkpt lat="48.77827" lon="7.31643">
        <ele>322.76625103606</ele>
        <time>2021-07-08T15:05:04.092Z</time>
      </trkpt>
      <trkpt lat="48.77815" lon="7.31642">
        <ele>323.21279065465</ele>
        <time>2021-07-08T15:05:08.121Z</time>
      </trkpt>
      <trkpt lat="48.77801" lon="7.3164">
        <ele>323.67350487397</ele>
        <time>2021-07-08T15:05:12.155Z</time>
      </trkpt>
      <trkpt lat="48.77772" lon="7.31633">
        <ele>324.1972477488</ele>
        <time>2021-07-08T15:05:16.199Z</time>
      </trkpt>
      <trkpt lat="48.77743" lon="7.31623">
        <ele>324.58940386724</ele>
        <time>2021-07-08T15:05:20.253Z</time>
      </trkpt>
      <trkpt lat="48.77729" lon="7.31615">
        <ele>325.04000071769</ele>
        <time>2021-07-08T15:05:24.312Z</time>
      </trkpt>
      <trkpt lat="48.77714" lon="7.31606">
        <ele>325.52344851506</ele>
        <time>2021-07-08T15:05:28.376Z</time>
      </trkpt>
      <trkpt lat="48.777" lon="7.31596">
        <ele>326.04109407223</ele>
        <time>2021-07-08T15:05:32.445Z</time>
      </trkpt>
      <trkpt lat="48.77687" lon="7.31585">
        <ele>326.61989911519</ele>
        <time>2021-07-08T15:05:36.519Z</time>
      </trkpt>
      <trkpt lat="48.77636" lon="7.31532">
        <ele>327.31902657353</ele>
        <time>2021-07-08T15:05:40.614Z</time>
      </trkpt>
      <trkpt lat="48.77624" lon="7.31521">
        <ele>328.0422315237</ele>
        <time>2021-07-08T15:05:44.714Z</time>
      </trkpt>
      <trkpt lat="48.77596" lon="7.31497">
        <ele>328.87966286999</ele>
        <time>2021-07-08T15:05:48.824Z</time>
      </trkpt>
      <trkpt lat="48.77585" lon="7.31488">
        <ele>329.77819532938</ele>
        <time>2021-07-08T15:05:52.939Z</time>
      </trkpt>
      <trkpt lat="48.77574" lon="7.31467">
        <ele>330.79579954948</ele>
        <time>2021-07-08T15:05:57.060Z</time>
      </trkpt>
      <trkpt lat="48.77563" lon="7.3145">
        <ele>331.86868503695</ele>
        <time>2021-07-08T15:06:01.186Z</time>
      </trkpt>
      <trkpt lat="48.77553" lon="7.31437">
        <ele>333.01299054933</ele>
        <time>2021-07-08T15:06:05.316Z</time>
      </trkpt>
      <trkpt lat="48.77543" lon="7.31426">
        <ele>334.23432875625</ele>
        <time>2021-07-08T15:06:09.450Z</time>
      </trkpt>
      <trkpt lat="48.77531" lon="7.31416">
        <ele>335.53618663046</ele>
        <time>2021-07-08T15:06:13.589Z</time>
      </trkpt>
      <trkpt lat="48.77519" lon="7.31406">
        <ele>336.91854005562</ele>
        <time>2021-07-08T15:06:17.732Z</time>
      </trkpt>
      <trkpt lat="48.77498" lon="7.31393">
        <ele>338.44720464801</ele>
        <time>2021-07-08T15:06:21.883Z</time>
      </trkpt>
      <trkpt lat="48.77479" lon="7.31384">
        <ele>340.03171913214</ele>
        <time>2021-07-08T15:06:26.041Z</time>
      </trkpt>
      <trkpt lat="48.77471" lon="7.31382">
        <ele>341.60007409054</ele>
        <time>2021-07-08T15:06:30.201Z</time>
      </trkpt>
      <trkpt lat="48.77456" lon="7.31379">
        <ele>343.25314520003</ele>
        <time>2021-07-08T15:06:34.366Z</time>
      </trkpt>
      <trkpt lat="48.77375" lon="7.31375">
        <ele>345.21291915305</ele>
        <time>2021-07-08T15:06:38.558Z</time>
      </trkpt>
      <trkpt lat="48.77328" lon="7.31372">
        <ele>347.04603887702</ele>
        <time>2021-07-08T15:06:42.766Z</time>
      </trkpt>
      <trkpt lat="48.77252" lon="7.31369">
        <ele>348.9325669555</ele>
        <time>2021-07-08T15:06:46.999Z</time>
      </trkpt>
      <trkpt lat="48.77198" lon="7.31367">
        <ele>350.5757334697</ele>
        <time>2021-07-08T15:06:51.251Z</time>
      </trkpt>
      <trkpt lat="48.77153" lon="7.31367">
        <ele>352.3013071976</ele>
        <time>2021-07-08T15:06:55.518Z</time>
      </trkpt>
      <trkpt lat="48.77134" lon="7.31368">
        <ele>353.89650309288</ele>
        <time>2021-07-08T15:06:59.791Z</time>
      </trkpt>
      <trkpt lat="48.77133" lon="7.31368">
        <ele>355.38620764164</ele>
        <time>2021-07-08T15:07:04.064Z</time>
      </trkpt>
      <trkpt lat="48.77128" lon="7.31368">
        <ele>356.84369622085</ele>
        <time>2021-07-08T15:07:08.339Z</time>
      </trkpt>
      <trkpt lat="48.77123" lon="7.31369">
        <ele>358.25690745022</ele>
        <time>2021-07-08T15:07:12.616Z</time>
      </trkpt>
      <trkpt lat="48.77123" lon="7.31368">
        <ele>359.61256297668</ele>
        <time>2021-07-08T15:07:16.893Z</time>
      </trkpt>
      <trkpt lat="48.7712" lon="7.31369">
        <ele>360.93431451188</ele>
        <time>2021-07-08T15:07:21.171Z</time>
      </trkpt>
      <trkpt lat="48.77117" lon="7.31369">
        <ele>362.21653660666</ele>
        <time>2021-07-08T15:07:25.450Z</time>
      </trkpt>
      <trkpt lat="48.771" lon="7.3137">
        <ele>363.51614105911</ele>
        <time>2021-07-08T15:07:29.734Z</time>
      </trkpt>
      <trkpt lat="48.77085" lon="7.31371">
        <ele>364.81219735891</ele>
        <time>2021-07-08T15:07:34.023Z</time>
      </trkpt>
      <trkpt lat="48.77067" lon="7.31375">
        <ele>366.09529963504</ele>
        <time>2021-07-08T15:07:38.319Z</time>
      </trkpt>
      <trkpt lat="48.77056" lon="7.31379">
        <ele>367.28727479128</ele>
        <time>2021-07-08T15:07:42.618Z</time>
      </trkpt>
      <trkpt lat="48.77047" lon="7.31381">
        <ele>368.44555517449</ele>
        <time>2021-07-08T15:07:46.920Z</time>
      </trkpt>
      <trkpt lat="48.77031" lon="7.31389">
        <ele>369.60757987717</ele>
        <time>2021-07-08T15:07:51.228Z</time>
      </trkpt>
      <trkpt lat="48.77019" lon="7.31397">
        <ele>370.73261739821</ele>
        <time>2021-07-08T15:07:55.540Z</time>
      </trkpt>
      <trkpt lat="48.77011" lon="7.31401">
        <ele>371.83007412696</ele>
        <time>2021-07-08T15:07:59.855Z</time>
      </trkpt>
      <trkpt lat="48.76991" lon="7.31417">
        <ele>372.94964826653</ele>
        <time>2021-07-08T15:08:04.178Z</time>
      </trkpt>
      <trkpt lat="48.76965" lon="7.31439">
        <ele>374.14944704407</ele>
        <time>2021-07-08T15:08:08.511Z</time>
      </trkpt>
      <trkpt lat="48.76944" lon="7.31458">
        <ele>375.1871482714</ele>
        <time>2021-07-08T15:08:12.852Z</time>
      </trkpt>
      <trkpt lat="48.76914" lon="7.31488">
        <ele>376.18689813937</ele>
        <time>2021-07-08T15:08:17.205Z</time>
      </trkpt>
      <trkpt lat="48.76884" lon="7.31524">
        <ele>377.22690510844</ele>
        <time>2021-07-08T15:08:21.571Z</time>
      </trkpt>
      <trkpt lat="48.76862" lon="7.31551">
        <ele>378.34304468655</ele>
        <time>2021-07-08T15:08:25.946Z</time>
      </trkpt>
      <trkpt lat="48.76816" lon="7.31614">
        <ele>379.42353114994</ele>
        <time>2021-07-08T15:08:30.342Z</time>
      </trkpt>
      <trkpt lat="48.76796" lon="7.31641">
        <ele>380.5556734961</ele>
        <time>2021-07-08T15:08:34.747Z</time>
      </trkpt>
      <trkpt lat="48.76779" lon="7.31666">
        <ele>381.70924520506</ele>
        <time>2021-07-08T15:08:39.160Z</time>
      </trkpt>
      <trkpt lat="48.76766" lon="7.31691">
        <ele>382.9683419759</ele>
        <time>2021-07-08T15:08:43.580Z</time>
      </trkpt>
      <trkpt lat="48.76761" lon="7.31698">
        <ele>384.08713124445</ele>
        <time>2021-07-08T15:08:48.002Z</time>
      </trkpt>
      <trkpt lat="48.76758" lon="7.31702">
        <ele>385.18011860119</ele>
        <time>2021-07-08T15:08:52.425Z</time>
      </trkpt>
      <trkpt lat="48.76756" lon="7.31707">
        <ele>386.26931088009</ele>
        <time>2021-07-08T15:08:56.850Z</time>
      </trkpt>
      <trkpt lat="48.76727" lon="7.31765">
        <ele>387.60575208804</ele>
        <time>2021-07-08T15:09:01.291Z</time>
      </trkpt>
      <trkpt lat="48.76726" lon="7.31767">
        <ele>388.62528824765</ele>
        <time>2021-07-08T15:09:05.732Z</time>
      </trkpt>
      <trkpt lat="48.76726" lon="7.31774">
        <ele>389.6341515475</ele>
        <time>2021-07-08T15:09:10.175Z</time>
      </trkpt>
      <trkpt lat="48.76728" lon="7.31788">
        <ele>390.63718160745</ele>
        <time>2021-07-08T15:09:14.621Z</time>
      </trkpt>
      <trkpt lat="48.76732" lon="7.31848">
        <ele>391.83789146793</ele>
        <time>2021-07-08T15:09:19.080Z</time>
      </trkpt>
      <trkpt lat="48.76733" lon="7.31883">
        <ele>392.82407666651</ele>
        <time>2021-07-08T15:09:23.547Z</time>
      </trkpt>
      <trkpt lat="48.76735" lon="7.31923">
        <ele>393.74493426652</ele>
        <time>2021-07-08T15:09:28.023Z</time>
      </trkpt>
      <trkpt lat="48.76735" lon="7.31934">
        <ele>394.47784908587</ele>
        <time>2021-07-08T15:09:32.501Z</time>
      </trkpt>
      <trkpt lat="48.76689" lon="7.32031">
        <ele>395.12648247407</ele>
        <time>2021-07-08T15:09:37.005Z</time>
      </trkpt>
      <trkpt lat="48.76685" lon="7.32039">
        <ele>395.6863925487</ele>
        <time>2021-07-08T15:09:41.512Z</time>
      </trkpt>
      <trkpt lat="48.76663" lon="7.32076">
        <ele>396.12717767914</ele>
        <time>2021-07-08T15:09:46.030Z</time>
      </trkpt>
      <trkpt lat="48.76661" lon="7.32075">
        <ele>396.60715190463</ele>
        <time>2021-07-08T15:09:50.548Z</time>
      </trkpt>
      <trkpt lat="48.7665" lon="7.32066">
        <ele>397.04689238082</ele>
        <time>2021-07-08T15:09:55.070Z</time>
      </trkpt>
      <trkpt lat="48.76631" lon="7.32051">
        <ele>397.45245255086</ele>
        <time>2021-07-08T15:09:59.600Z</time>
      </trkpt>
      <trkpt lat="48.76617" lon="7.32038">
        <ele>397.82221770982</ele>
        <time>2021-07-08T15:10:04.135Z</time>
      </trkpt>
      <trkpt lat="48.76612" lon="7.32031">
        <ele>398.16122009885</ele>
        <time>2021-07-08T15:10:08.672Z</time>
      </trkpt>
      <trkpt lat="48.76603" lon="7.3202">
        <ele>398.48250891915</ele>
        <time>2021-07-08T15:10:13.213Z</time>
      </trkpt>
      <trkpt lat="48.76588" lon="7.32005">
        <ele>398.76283350027</ele>
        <time>2021-07-08T15:10:17.760Z</time>
      </trkpt>
      <trkpt lat="48.76585" lon="7.32003">
        <ele>399.06843379463</ele>
        <time>2021-07-08T15:10:22.308Z</time>
      </trkpt>
      <trkpt lat="48.76583" lon="7.32002">
        <ele>399.38487171377</ele>
        <time>2021-07-08T15:10:26.857Z</time>
      </trkpt>
      <trkpt lat="48.76578" lon="7.32002">
        <ele>399.71149726534</ele>
        <time>2021-07-08T15:10:31.408Z</time>
      </trkpt>
      <trkpt lat="48.76571" lon="7.32003">
        <ele>400.05727145229</ele>
        <time>2021-07-08T15:10:35.961Z</time>
      </trkpt>
      <trkpt lat="48.76564" lon="7.32006">
        <ele>400.43234305253</ele>
        <time>2021-07-08T15:10:40.516Z</time>
      </trkpt>
      <trkpt lat="48.76553" lon="7.32012">
        <ele>400.83342134863</ele>
        <time>2021-07-08T15:10:45.075Z</time>
      </trkpt>
      <trkpt lat="48.76547" lon="7.32004">
        <ele>401.28261301905</ele>
        <time>2021-07-08T15:10:49.637Z</time>
      </trkpt>
      <trkpt lat="48.76543" lon="7.31996">
        <ele>401.77639155746</ele>
        <time>2021-07-08T15:10:54.201Z</time>
      </trkpt>
      <trkpt lat="48.7654" lon="7.31991">
        <ele>402.3148212808</ele>
        <time>2021-07-08T15:10:58.767Z</time>
      </trkpt>
      <trkpt lat="48.7655" lon="7.31977">
        <ele>402.92400288916</ele>
        <time>2021-07-08T15:11:03.337Z</time>
      </trkpt>
      <trkpt lat="48.76541" lon="7.31965">
        <ele>403.52645317982</ele>
        <time>2021-07-08T15:11:07.911Z</time>
      </trkpt>
      <trkpt lat="48.76515" lon="7.31919">
        <ele>404.19099344197</ele>
        <time>2021-07-08T15:11:12.499Z</time>
      </trkpt>
      <trkpt lat="48.76498" lon="7.31889">
        <ele>404.91561593323</ele>
        <time>2021-07-08T15:11:17.095Z</time>
      </trkpt>
      <trkpt lat="48.76478" lon="7.31857">
        <ele>405.66539545486</ele>
        <time>2021-07-08T15:11:21.701Z</time>
      </trkpt>
      <trkpt lat="48.76463" lon="7.31868">
        <ele>406.40665967816</ele>
        <time>2021-07-08T15:11:26.313Z</time>
      </trkpt>
      <trkpt lat="48.76458" lon="7.31876">
        <ele>407.08805508458</ele>
        <time>2021-07-08T15:11:30.927Z</time>
      </trkpt>
      <trkpt lat="48.76452" lon="7.31889">
        <ele>407.74690119175</ele>
        <time>2021-07-08T15:11:35.545Z</time>
      </trkpt>
      <trkpt lat="48.76428" lon="7.31911">
        <ele>408.50032066684</ele>
        <time>2021-07-08T15:11:40.172Z</time>
      </trkpt>
      <trkpt lat="48.76416" lon="7.31929">
        <ele>409.08482377139</ele>
        <time>2021-07-08T15:11:44.805Z</time>
      </trkpt>
      <trkpt lat="48.76371" lon="7.31985">
        <ele>409.91938406329</ele>
        <time>2021-07-08T15:11:49.457Z</time>
      </trkpt>
      <trkpt lat="48.76359" lon="7.32006">
        <ele>410.32068106413</ele>
        <time>2021-07-08T15:11:54.115Z</time>
      </trkpt>
      <trkpt lat="48.76351" lon="7.32019">
        <ele>410.51210816483</ele>
        <time>2021-07-08T15:11:58.777Z</time>
      </trkpt>
      <trkpt lat="48.76327" lon="7.32054">
        <ele>410.51866687021</ele>
        <time>2021-07-08T15:12:03.450Z</time>
      </trkpt>
      <trkpt lat="48.76326" lon="7.32055">
        <ele>410.15073876125</ele>
        <time>2021-07-08T15:12:08.124Z</time>
      </trkpt>
      <trkpt lat="48.76326" lon="7.32055">
        <ele>409.75175345228</ele>
        <time>2021-07-08T15:12:12.798Z</time>
      </trkpt>
      <trkpt lat="48.763" lon="7.32091">
        <ele>409.15686882576</ele>
        <time>2021-07-08T15:12:17.483Z</time>
      </trkpt>
      <trkpt lat="48.76282" lon="7.32114">
        <ele>408.46253096239</ele>
        <time>2021-07-08T15:12:22.176Z</time>
      </trkpt>
      <trkpt lat="48.76255" lon="7.32138">
        <ele>407.57970003235</ele>
        <time>2021-07-08T15:12:26.880Z</time>
      </trkpt>
      <trkpt lat="48.76221" lon="7.32173">
        <ele>406.45065303245</ele>
        <time>2021-07-08T15:12:31.597Z</time>
      </trkpt>
      <trkpt lat="48.76124" lon="7.32184">
        <ele>404.93525629373</ele>
        <time>2021-07-08T15:12:36.347Z</time>
      </trkpt>
      <trkpt lat="48.7611" lon="7.32204">
        <ele>403.78776547925</ele>
        <time>2021-07-08T15:12:41.103Z</time>
      </trkpt>
      <trkpt lat="48.76105" lon="7.32207">
        <ele>402.66993124874</ele>
        <time>2021-07-08T15:12:45.861Z</time>
      </trkpt>
      <trkpt lat="48.76102" lon="7.32209">
        <ele>401.52991014459</ele>
        <time>2021-07-08T15:12:50.620Z</time>
      </trkpt>
      <trkpt lat="48.76096" lon="7.32215">
        <ele>400.34985411563</ele>
        <time>2021-07-08T15:12:55.382Z</time>
      </trkpt>
      <trkpt lat="48.76068" lon="7.32243">
        <ele>399.05744350286</ele>
        <time>2021-07-08T15:13:00.155Z</time>
      </trkpt>
      <trkpt lat="48.76056" lon="7.32252">
        <ele>397.92738638011</ele>
        <time>2021-07-08T15:13:04.932Z</time>
      </trkpt>
      <trkpt lat="48.7604" lon="7.32258">
        <ele>396.81910032382</ele>
        <time>2021-07-08T15:13:09.715Z</time>
      </trkpt>
      <trkpt lat="48.76027" lon="7.32258">
        <ele>395.77735312399</ele>
        <time>2021-07-08T15:13:14.502Z</time>
      </trkpt>
      <trkpt lat="48.76023" lon="7.32259">
        <ele>394.84577500057</ele>
        <time>2021-07-08T15:13:19.290Z</time>
      </trkpt>
      <trkpt lat="48.76021" lon="7.32259">
        <ele>393.9887152535</ele>
        <time>2021-07-08T15:13:24.079Z</time>
      </trkpt>
      <trkpt lat="48.76012" lon="7.3227">
        <ele>393.22489040164</ele>
        <time>2021-07-08T15:13:28.872Z</time>
      </trkpt>
      <trkpt lat="48.76003" lon="7.32281">
        <ele>392.54496654698</ele>
        <time>2021-07-08T15:13:33.669Z</time>
      </trkpt>
      <trkpt lat="48.75997" lon="7.32291">
        <ele>391.95994027678</ele>
        <time>2021-07-08T15:13:38.469Z</time>
      </trkpt>
      <trkpt lat="48.75993" lon="7.32303">
        <ele>391.47883132202</ele>
        <time>2021-07-08T15:13:43.272Z</time>
      </trkpt>
      <trkpt lat="48.75991" lon="7.32313">
        <ele>391.07770887297</ele>
        <time>2021-07-08T15:13:48.077Z</time>
      </trkpt>
      <trkpt lat="48.75991" lon="7.3232">
        <ele>390.76260087733</ele>
        <time>2021-07-08T15:13:52.884Z</time>
      </trkpt>
      <trkpt lat="48.75991" lon="7.32328">
        <ele>390.53579278315</ele>
        <time>2021-07-08T15:13:57.692Z</time>
      </trkpt>
      <trkpt lat="48.75992" lon="7.32342">
        <ele>390.42461155854</ele>
        <time>2021-07-08T15:14:02.503Z</time>
      </trkpt>
      <trkpt lat="48.75992" lon="7.32346">
        <ele>390.34845280267</ele>
        <time>2021-07-08T15:14:07.315Z</time>
      </trkpt>
      <trkpt lat="48.75986" lon="7.32363">
        <ele>390.37336999052</ele>
        <time>2021-07-08T15:14:12.132Z</time>
      </trkpt>
      <trkpt lat="48.75967" lon="7.32405">
        <ele>390.48114028805</ele>
        <time>2021-07-08T15:14:16.960Z</time>
      </trkpt>
      <trkpt lat="48.7596" lon="7.32419">
        <ele>390.61162175322</ele>
        <time>2021-07-08T15:14:21.792Z</time>
      </trkpt>
      <trkpt lat="48.75953" lon="7.3243">
        <ele>390.79372566783</ele>
        <time>2021-07-08T15:14:26.627Z</time>
      </trkpt>
      <trkpt lat="48.75917" lon="7.32471">
        <ele>391.02728672289</ele>
        <time>2021-07-08T15:14:31.477Z</time>
      </trkpt>
      <trkpt lat="48.75905" lon="7.32488">
        <ele>391.36614242338</ele>
        <time>2021-07-08T15:14:36.333Z</time>
      </trkpt>
      <trkpt lat="48.75897" lon="7.32502">
        <ele>391.777824531</ele>
        <time>2021-07-08T15:14:41.193Z</time>
      </trkpt>
      <trkpt lat="48.75889" lon="7.32512">
        <ele>392.24544273983</ele>
        <time>2021-07-08T15:14:46.056Z</time>
      </trkpt>
      <trkpt lat="48.75864" lon="7.32537">
        <ele>392.80394990682</ele>
        <time>2021-07-08T15:14:50.929Z</time>
      </trkpt>
      <trkpt lat="48.75856" lon="7.32546">
        <ele>393.42477004792</ele>
        <time>2021-07-08T15:14:55.805Z</time>
      </trkpt>
      <trkpt lat="48.75839" lon="7.32568">
        <ele>394.16492452001</ele>
        <time>2021-07-08T15:15:00.689Z</time>
      </trkpt>
      <trkpt lat="48.75833" lon="7.32577">
        <ele>394.91739081541</ele>
        <time>2021-07-08T15:15:05.576Z</time>
      </trkpt>
      <trkpt lat="48.75825" lon="7.32584">
        <ele>395.71664501755</ele>
        <time>2021-07-08T15:15:10.466Z</time>
      </trkpt>
      <trkpt lat="48.75806" lon="7.32605">
        <ele>396.57629878937</ele>
        <time>2021-07-08T15:15:15.364Z</time>
      </trkpt>
      <trkpt lat="48.75792" lon="7.32628">
        <ele>397.50847337547</ele>
        <time>2021-07-08T15:15:20.269Z</time>
      </trkpt>
      <trkpt lat="48.75783" lon="7.32639">
        <ele>398.49312796332</ele>
        <time>2021-07-08T15:15:25.177Z</time>
      </trkpt>
      <trkpt lat="48.75777" lon="7.32645">
        <ele>399.53583804525</ele>
        <time>2021-07-08T15:15:30.088Z</time>
      </trkpt>
      <trkpt lat="48.75769" lon="7.32651">
        <ele>400.63601890369</ele>
        <time>2021-07-08T15:15:35.002Z</time>
      </trkpt>
      <trkpt lat="48.75758" lon="7.32658">
        <ele>401.81033217318</ele>
        <time>2021-07-08T15:15:39.920Z</time>
      </trkpt>
      <trkpt lat="48.75737" lon="7.32671">
        <ele>403.08265985156</ele>
        <time>2021-07-08T15:15:44.845Z</time>
      </trkpt>
      <trkpt lat="48.75699" lon="7.32686">
        <ele>404.4343464795</ele>
        <time>2021-07-08T15:15:49.783Z</time>
      </trkpt>
      <trkpt lat="48.75691" lon="7.32687">
        <ele>405.75078924154</ele>
        <time>2021-07-08T15:15:54.724Z</time>
      </trkpt>
      <trkpt lat="48.75683" lon="7.32686">
        <ele>407.09252732656</ele>
        <time>2021-07-08T15:15:59.668Z</time>
      </trkpt>
      <trkpt lat="48.75668" lon="7.3268">
        <ele>408.46301236552</ele>
        <time>2021-07-08T15:16:04.617Z</time>
      </trkpt>
      <trkpt lat="48.75664" lon="7.3268">
        <ele>409.82523976935</ele>
        <time>2021-07-08T15:16:09.567Z</time>
      </trkpt>
      <trkpt lat="48.75659" lon="7.32681">
        <ele>411.19122150381</ele>
        <time>2021-07-08T15:16:14.519Z</time>
      </trkpt>
      <trkpt lat="48.75658" lon="7.32681">
        <ele>412.52349594974</ele>
        <time>2021-07-08T15:16:19.471Z</time>
      </trkpt>
      <trkpt lat="48.75649" lon="7.32687">
        <ele>413.87209199667</ele>
        <time>2021-07-08T15:16:24.427Z</time>
      </trkpt>
      <trkpt lat="48.75628" lon="7.32738">
        <ele>415.36634932231</ele>
        <time>2021-07-08T15:16:29.396Z</time>
      </trkpt>
      <trkpt lat="48.75614" lon="7.32767">
        <ele>416.71204332647</ele>
        <time>2021-07-08T15:16:34.373Z</time>
      </trkpt>
      <trkpt lat="48.75606" lon="7.32782">
        <ele>417.98603825</ele>
        <time>2021-07-08T15:16:39.354Z</time>
      </trkpt>
      <trkpt lat="48.75591" lon="7.32802">
        <ele>419.22337994899</ele>
        <time>2021-07-08T15:16:44.342Z</time>
      </trkpt>
      <trkpt lat="48.75558" lon="7.32844">
        <ele>420.41215491949</ele>
        <time>2021-07-08T15:16:49.344Z</time>
      </trkpt>
      <trkpt lat="48.75515" lon="7.3291">
        <ele>421.1137264539</ele>
        <time>2021-07-08T15:16:54.367Z</time>
      </trkpt>
      <trkpt lat="48.755" lon="7.32945">
        <ele>421.4145351486</ele>
        <time>2021-07-08T15:16:59.399Z</time>
      </trkpt>
      <trkpt lat="48.75502" lon="7.32949">
        <ele>421.7411249289</ele>
        <time>2021-07-08T15:17:04.432Z</time>
      </trkpt>
      <trkpt lat="48.75506" lon="7.32961">
        <ele>421.86250712424</ele>
        <time>2021-07-08T15:17:09.468Z</time>
      </trkpt>
      <trkpt lat="48.75481" lon="7.32972">
        <ele>421.71424031802</ele>
        <time>2021-07-08T15:17:14.512Z</time>
      </trkpt>
      <trkpt lat="48.75429" lon="7.32986">
        <ele>421.44371727687</ele>
        <time>2021-07-08T15:17:19.574Z</time>
      </trkpt>
      <trkpt lat="48.75412" lon="7.32992">
        <ele>421.07069942313</ele>
        <time>2021-07-08T15:17:24.642Z</time>
      </trkpt>
      <trkpt lat="48.75382" lon="7.33048">
        <ele>420.47238978467</ele>
        <time>2021-07-08T15:17:29.726Z</time>
      </trkpt>
      <trkpt lat="48.75366" lon="7.33078">
        <ele>419.69885704857</ele>
        <time>2021-07-08T15:17:34.818Z</time>
      </trkpt>
      <trkpt lat="48.7532" lon="7.3312">
        <ele>418.44947266705</ele>
        <time>2021-07-08T15:17:39.928Z</time>
      </trkpt>
      <trkpt lat="48.75299" lon="7.33159">
        <ele>417.0698242456</ele>
        <time>2021-07-08T15:17:45.049Z</time>
      </trkpt>
      <trkpt lat="48.75294" lon="7.33167">
        <ele>415.77435755112</ele>
        <time>2021-07-08T15:17:50.173Z</time>
      </trkpt>
      <trkpt lat="48.75287" lon="7.33179">
        <ele>414.32722654677</ele>
        <time>2021-07-08T15:17:55.300Z</time>
      </trkpt>
      <trkpt lat="48.75281" lon="7.33193">
        <ele>412.72455951484</ele>
        <time>2021-07-08T15:18:00.431Z</time>
      </trkpt>
      <trkpt lat="48.75269" lon="7.33223">
        <ele>410.88389671747</ele>
        <time>2021-07-08T15:18:05.570Z</time>
      </trkpt>
      <trkpt lat="48.75267" lon="7.33241">
        <ele>409.05485626296</ele>
        <time>2021-07-08T15:18:10.713Z</time>
      </trkpt>
      <trkpt lat="48.75265" lon="7.33266">
        <ele>407.08659656049</ele>
        <time>2021-07-08T15:18:15.861Z</time>
      </trkpt>
      <trkpt lat="48.75261" lon="7.33275">
        <ele>405.1079562802</ele>
        <time>2021-07-08T15:18:21.012Z</time>
      </trkpt>
      <trkpt lat="48.75251" lon="7.33287">
        <ele>402.97708606797</ele>
        <time>2021-07-08T15:18:26.167Z</time>
      </trkpt>
      <trkpt lat="48.75235" lon="7.33309">
        <ele>400.63243129224</ele>
        <time>2021-07-08T15:18:31.329Z</time>
      </trkpt>
      <trkpt lat="48.75226" lon="7.3332">
        <ele>398.33758163764</ele>
        <time>2021-07-08T15:18:36.495Z</time>
      </trkpt>
      <trkpt lat="48.75221" lon="7.33325">
        <ele>396.06940193587</ele>
        <time>2021-07-08T15:18:41.663Z</time>
      </trkpt>
      <trkpt lat="48.75215" lon="7.33327">
        <ele>393.74403474258</ele>
        <time>2021-07-08T15:18:46.833Z</time>
      </trkpt>
      <trkpt lat="48.7521" lon="7.33326">
        <ele>391.37916066529</ele>
        <time>2021-07-08T15:18:52.005Z</time>
      </trkpt>
      <trkpt lat="48.75206" lon="7.33324">
        <ele>388.95115079245</ele>
        <time>2021-07-08T15:18:57.178Z</time>
      </trkpt>
      <trkpt lat="48.75192" lon="7.33306">
        <ele>386.43428413393</ele>
        <time>2021-07-08T15:19:02.357Z</time>
      </trkpt>
      <trkpt lat="48.75188" lon="7.33304">
        <ele>383.80839352938</ele>
        <time>2021-07-08T15:19:07.538Z</time>
      </trkpt>
      <trkpt lat="48.75183" lon="7.33303">
        <ele>381.01476923106</ele>
        <time>2021-07-08T15:19:12.720Z</time>
      </trkpt>
      <trkpt lat="48.75171" lon="7.33307">
        <ele>377.9227312157</ele>
        <time>2021-07-08T15:19:17.906Z</time>
      </trkpt>
      <trkpt lat="48.75174" lon="7.33313">
        <ele>374.95600179937</ele>
        <time>2021-07-08T15:19:23.094Z</time>
      </trkpt>
      <trkpt lat="48.7518" lon="7.33326">
        <ele>371.82656164708</ele>
        <time>2021-07-08T15:19:28.286Z</time>
      </trkpt>
      <trkpt lat="48.75185" lon="7.33335">
        <ele>368.58696349755</ele>
        <time>2021-07-08T15:19:33.480Z</time>
      </trkpt>
      <trkpt lat="48.75184" lon="7.33337">
        <ele>365.09650307392</ele>
        <time>2021-07-08T15:19:38.675Z</time>
      </trkpt>
      <trkpt lat="48.75169" lon="7.33359">
        <ele>361.06258826775</ele>
        <time>2021-07-08T15:19:43.877Z</time>
      </trkpt>
      <trkpt lat="48.75155" lon="7.33431">
        <ele>356.73967137132</ele>
        <time>2021-07-08T15:19:49.095Z</time>
      </trkpt>
      <trkpt lat="48.75146" lon="7.33473">
        <ele>352.67934932386</ele>
        <time>2021-07-08T15:19:54.323Z</time>
      </trkpt>
      <trkpt lat="48.75123" lon="7.33547">
        <ele>348.14286593631</ele>
        <time>2021-07-08T15:19:59.569Z</time>
      </trkpt>
      <trkpt lat="48.75082" lon="7.33647">
        <ele>343.25465902191</ele>
        <time>2021-07-08T15:20:04.841Z</time>
      </trkpt>
      <trkpt lat="48.75069" lon="7.33708">
        <ele>338.78570722309</ele>
        <time>2021-07-08T15:20:10.127Z</time>
      </trkpt>
      <trkpt lat="48.75042" lon="7.33745">
        <ele>334.09998607332</ele>
        <time>2021-07-08T15:20:15.425Z</time>
      </trkpt>
      <trkpt lat="48.75025" lon="7.3376">
        <ele>329.24900775872</ele>
        <time>2021-07-08T15:20:20.730Z</time>
      </trkpt>
      <trkpt lat="48.74991" lon="7.33791">
        <ele>324.08341585951</ele>
        <time>2021-07-08T15:20:26.048Z</time>
      </trkpt>
      <trkpt lat="48.74953" lon="7.33868">
        <ele>318.99667391674</ele>
        <time>2021-07-08T15:20:31.387Z</time>
      </trkpt>
      <trkpt lat="48.74943" lon="7.33908">
        <ele>314.17999623864</ele>
        <time>2021-07-08T15:20:36.736Z</time>
      </trkpt>
      <trkpt lat="48.74922" lon="7.33934">
        <ele>308.93057520442</ele>
        <time>2021-07-08T15:20:42.094Z</time>
      </trkpt>
      <trkpt lat="48.74921" lon="7.33939">
        <ele>303.96766437414</ele>
        <time>2021-07-08T15:20:47.453Z</time>
      </trkpt>
      <trkpt lat="48.7489" lon="7.34039">
        <ele>298.49071772508</ele>
        <time>2021-07-08T15:20:52.836Z</time>
      </trkpt>
      <trkpt lat="48.74862" lon="7.34089">
        <ele>292.94460565219</ele>
        <time>2021-07-08T15:20:58.234Z</time>
      </trkpt>
      <trkpt lat="48.74843" lon="7.34204">
        <ele>287.57864461503</ele>
        <time>2021-07-08T15:21:03.658Z</time>
      </trkpt>
      <trkpt lat="48.74833" lon="7.34229">
        <ele>282.47957473429</ele>
        <time>2021-07-08T15:21:09.088Z</time>
      </trkpt>
      <trkpt lat="48.74812" lon="7.34307">
        <ele>277.46964026315</ele>
        <time>2021-07-08T15:21:14.537Z</time>
      </trkpt>
      <trkpt lat="48.74794" lon="7.34224">
        <ele>272.11691502391</ele>
        <time>2021-07-08T15:21:20.005Z</time>
      </trkpt>
      <trkpt lat="48.74784" lon="7.34253">
        <ele>267.35718099405</ele>
        <time>2021-07-08T15:21:25.480Z</time>
      </trkpt>
      <trkpt lat="48.74746" lon="7.34312">
        <ele>262.49663452906</ele>
        <time>2021-07-08T15:21:30.974Z</time>
      </trkpt>
      <trkpt lat="48.74748" lon="7.34262">
        <ele>257.86772684154</ele>
        <time>2021-07-08T15:21:36.479Z</time>
      </trkpt>
      <trkpt lat="48.74738" lon="7.34179">
        <ele>253.22212369903</ele>
        <time>2021-07-08T15:21:42.002Z</time>
      </trkpt>
      <trkpt lat="48.74723" lon="7.34218">
        <ele>249.00853772921</ele>
        <time>2021-07-08T15:21:47.535Z</time>
      </trkpt>
      <trkpt lat="48.74707" lon="7.34238">
        <ele>244.88831746822</ele>
        <time>2021-07-08T15:21:53.075Z</time>
      </trkpt>
      <trkpt lat="48.74705" lon="7.3424">
        <ele>241.16139531138</ele>
        <time>2021-07-08T15:21:58.616Z</time>
      </trkpt>
      <trkpt lat="48.74656" lon="7.34282">
        <ele>237.54206528461</ele>
        <time>2021-07-08T15:22:04.176Z</time>
      </trkpt>
      <trkpt lat="48.74639" lon="7.34297">
        <ele>234.10662177809</ele>
        <time>2021-07-08T15:22:09.742Z</time>
      </trkpt>
      <trkpt lat="48.74611" lon="7.34335">
        <ele>230.4640826956</ele>
        <time>2021-07-08T15:22:15.321Z</time>
      </trkpt>
      <trkpt lat="48.7461" lon="7.34336">
        <ele>227.47753013124</ele>
        <time>2021-07-08T15:22:20.900Z</time>
      </trkpt>
      <trkpt lat="48.746" lon="7.34351">
        <ele>224.64706508081</ele>
        <time>2021-07-08T15:22:26.484Z</time>
      </trkpt>
      <trkpt lat="48.74598" lon="7.34353">
        <ele>222.01423389569</ele>
        <time>2021-07-08T15:22:32.069Z</time>
      </trkpt>
      <trkpt lat="48.74581" lon="7.34384">
        <ele>219.79913197971</ele>
        <time>2021-07-08T15:22:37.663Z</time>
      </trkpt>
      <trkpt lat="48.74566" lon="7.34408">
        <ele>217.19913226884</ele>
        <time>2021-07-08T15:22:43.264Z</time>
      </trkpt>
      <trkpt lat="48.74535" lon="7.34499">
        <ele>214.32385603562</ele>
        <time>2021-07-08T15:22:48.888Z</time>
      </trkpt>
      <trkpt lat="48.7453" lon="7.34521">
        <ele>212.06865614706</ele>
        <time>2021-07-08T15:22:54.517Z</time>
      </trkpt>
      <trkpt lat="48.74524" lon="7.34556">
        <ele>209.92207678479</ele>
        <time>2021-07-08T15:23:00.154Z</time>
      </trkpt>
      <trkpt lat="48.74523" lon="7.34564">
        <ele>208.04975591221</ele>
        <time>2021-07-08T15:23:05.792Z</time>
      </trkpt>
      <trkpt lat="48.74522" lon="7.34577">
        <ele>206.29174350716</ele>
        <time>2021-07-08T15:23:11.433Z</time>
      </trkpt>
      <trkpt lat="48.74521" lon="7.34598">
        <ele>204.64751315825</ele>
        <time>2021-07-08T15:23:17.079Z</time>
      </trkpt>
      <trkpt lat="48.74522" lon="7.34615">
        <ele>203.15488725423</ele>
        <time>2021-07-08T15:23:22.729Z</time>
      </trkpt>
      <trkpt lat="48.74523" lon="7.3463">
        <ele>201.77727581177</ele>
        <time>2021-07-08T15:23:28.382Z</time>
      </trkpt>
      <trkpt lat="48.74523" lon="7.3465">
        <ele>200.49515174367</ele>
        <time>2021-07-08T15:23:34.040Z</time>
      </trkpt>
      <trkpt lat="48.7452" lon="7.34734">
        <ele>199.16838098177</ele>
        <time>2021-07-08T15:23:39.716Z</time>
      </trkpt>
      <trkpt lat="48.74516" lon="7.34823">
        <ele>197.79515452219</ele>
        <time>2021-07-08T15:23:45.412Z</time>
      </trkpt>
      <trkpt lat="48.74509" lon="7.34954">
        <ele>196.5260734124</ele>
        <time>2021-07-08T15:23:51.137Z</time>
      </trkpt>
      <trkpt lat="48.74507" lon="7.35005">
        <ele>195.66312786691</ele>
        <time>2021-07-08T15:23:56.873Z</time>
      </trkpt>
      <trkpt lat="48.74507" lon="7.35024">
        <ele>195.00723084567</ele>
        <time>2021-07-08T15:24:02.613Z</time>
      </trkpt>
      <trkpt lat="48.74507" lon="7.35033">
        <ele>194.50009649085</ele>
        <time>2021-07-08T15:24:08.355Z</time>
      </trkpt>
      <trkpt lat="48.74519" lon="7.35058">
        <ele>194.13241858526</ele>
        <time>2021-07-08T15:24:14.104Z</time>
      </trkpt>
      <trkpt lat="48.74524" lon="7.35053">
        <ele>193.91559860756</ele>
        <time>2021-07-08T15:24:19.855Z</time>
      </trkpt>
      <trkpt lat="48.7453" lon="7.35042">
        <ele>193.82264842029</ele>
        <time>2021-07-08T15:24:25.609Z</time>
      </trkpt>
      <trkpt lat="48.74534" lon="7.35008">
        <ele>193.86530646636</ele>
        <time>2021-07-08T15:24:31.371Z</time>
      </trkpt>
      <trkpt lat="48.74538" lon="7.34995">
        <ele>193.9613061967</ele>
        <time>2021-07-08T15:24:37.136Z</time>
      </trkpt>
      <trkpt lat="48.74548" lon="7.34984">
        <ele>194.14548330236</ele>
        <time>2021-07-08T15:24:42.905Z</time>
      </trkpt>
      <trkpt lat="48.74551" lon="7.34984">
        <ele>194.32079900708</ele>
        <time>2021-07-08T15:24:48.675Z</time>
      </trkpt>
      <trkpt lat="48.74552" lon="7.34985">
        <ele>194.53154395314</ele>
        <time>2021-07-08T15:24:54.445Z</time>
      </trkpt>
      <trkpt lat="48.74566" lon="7.35034">
        <ele>194.71528959646</ele>
        <time>2021-07-08T15:25:00.227Z</time>
      </trkpt>
      <trkpt lat="48.74594" lon="7.35064">
        <ele>195.07057682759</ele>
        <time>2021-07-08T15:25:06.021Z</time>
      </trkpt>
      <trkpt lat="48.74605" lon="7.35104">
        <ele>195.3555598849</ele>
        <time>2021-07-08T15:25:11.824Z</time>
      </trkpt>
      <trkpt lat="48.74612" lon="7.35113">
        <ele>195.71234284221</ele>
        <time>2021-07-08T15:25:17.630Z</time>
      </trkpt>
      <trkpt lat="48.74605" lon="7.35118">
        <ele>195.99806705962</ele>
        <time>2021-07-08T15:25:23.439Z</time>
      </trkpt>
      <trkpt lat="48.746" lon="7.35126">
        <ele>196.30771600196</ele>
        <time>2021-07-08T15:25:29.250Z</time>
      </trkpt>
      <trkpt lat="48.74597" lon="7.35132">
        <ele>196.63604807325</ele>
        <time>2021-07-08T15:25:35.063Z</time>
      </trkpt>
      <trkpt lat="48.74596" lon="7.35135">
        <ele>196.97850069494</ele>
        <time>2021-07-08T15:25:40.877Z</time>
      </trkpt>
      <trkpt lat="48.74595" lon="7.35145">
        <ele>197.30708904331</ele>
        <time>2021-07-08T15:25:46.693Z</time>
      </trkpt>
      <trkpt lat="48.74595" lon="7.35154">
        <ele>197.63473980824</ele>
        <time>2021-07-08T15:25:52.511Z</time>
      </trkpt>
      <trkpt lat="48.74597" lon="7.35165">
        <ele>197.96850350513</ele>
        <time>2021-07-08T15:25:58.331Z</time>
      </trkpt>
      <trkpt lat="48.746" lon="7.35181">
        <ele>198.28067491611</ele>
        <time>2021-07-08T15:26:04.155Z</time>
      </trkpt>
      <trkpt lat="48.74604" lon="7.35189">
        <ele>198.58230816354</ele>
        <time>2021-07-08T15:26:09.981Z</time>
      </trkpt>
      <trkpt lat="48.74607" lon="7.35198">
        <ele>198.86359643713</ele>
        <time>2021-07-08T15:26:15.810Z</time>
      </trkpt>
      <trkpt lat="48.7461" lon="7.35204">
        <ele>199.1188410758</ele>
        <time>2021-07-08T15:26:21.640Z</time>
      </trkpt>
      <trkpt lat="48.74612" lon="7.35221">
        <ele>199.32765786079</ele>
        <time>2021-07-08T15:26:27.474Z</time>
      </trkpt>
      <trkpt lat="48.74613" lon="7.35234">
        <ele>199.49770085219</ele>
        <time>2021-07-08T15:26:33.311Z</time>
      </trkpt>
      <trkpt lat="48.74614" lon="7.35241">
        <ele>199.63315402232</ele>
        <time>2021-07-08T15:26:39.149Z</time>
      </trkpt>
      <trkpt lat="48.74615" lon="7.35246">
        <ele>199.72606817194</ele>
        <time>2021-07-08T15:26:44.989Z</time>
      </trkpt>
      <trkpt lat="48.74615" lon="7.35247">
        <ele>199.76638396002</ele>
        <time>2021-07-08T15:26:50.829Z</time>
      </trkpt>
      <trkpt lat="48.74615" lon="7.35247">
        <ele>199.70801270317</ele>
        <time>2021-07-08T15:26:56.669Z</time>
      </trkpt>
      <trkpt lat="48.7462" lon="7.35268">
        <ele>199.62647244569</ele>
        <time>2021-07-08T15:27:02.514Z</time>
      </trkpt>
      <trkpt lat="48.7462" lon="7.35275">
        <ele>199.452264097</ele>
        <time>2021-07-08T15:27:08.360Z</time>
      </trkpt>
      <trkpt lat="48.74619" lon="7.3528">
        <ele>199.20778309556</ele>
        <time>2021-07-08T15:27:14.207Z</time>
      </trkpt>
      <trkpt lat="48.74618" lon="7.353">
        <ele>198.90913479701</ele>
        <time>2021-07-08T15:27:20.059Z</time>
      </trkpt>
      <trkpt lat="48.74614" lon="7.35319">
        <ele>198.52661149387</ele>
        <time>2021-07-08T15:27:25.915Z</time>
      </trkpt>
      <trkpt lat="48.74611" lon="7.35325">
        <ele>198.07605674143</ele>
        <time>2021-07-08T15:27:31.773Z</time>
      </trkpt>
      <trkpt lat="48.74607" lon="7.35329">
        <ele>197.55575848354</ele>
        <time>2021-07-08T15:27:37.633Z</time>
      </trkpt>
      <trkpt lat="48.74601" lon="7.3536">
        <ele>196.92389280019</ele>
        <time>2021-07-08T15:27:43.500Z</time>
      </trkpt>
      <trkpt lat="48.74574" lon="7.35479">
        <ele>196.18726354194</ele>
        <time>2021-07-08T15:27:49.394Z</time>
      </trkpt>
      <trkpt lat="48.74559" lon="7.35547">
        <ele>195.53683994728</ele>
        <time>2021-07-08T15:27:55.304Z</time>
      </trkpt>
      <trkpt lat="48.74559" lon="7.35548">
        <ele>194.85360723669</ele>
        <time>2021-07-08T15:28:01.214Z</time>
      </trkpt>
      <trkpt lat="48.74556" lon="7.3556">
        <ele>194.14356531041</ele>
        <time>2021-07-08T15:28:07.127Z</time>
      </trkpt>
      <trkpt lat="48.74554" lon="7.35561">
        <ele>193.36804554561</ele>
        <time>2021-07-08T15:28:13.041Z</time>
      </trkpt>
      <trkpt lat="48.74521" lon="7.35576">
        <ele>192.45275890165</ele>
        <time>2021-07-08T15:28:18.967Z</time>
      </trkpt>
      <trkpt lat="48.74501" lon="7.35586">
        <ele>191.58083435248</ele>
        <time>2021-07-08T15:28:24.900Z</time>
      </trkpt>
      <trkpt lat="48.74498" lon="7.35587">
        <ele>190.76950679926</ele>
        <time>2021-07-08T15:28:30.834Z</time>
      </trkpt>
      <trkpt lat="48.7448" lon="7.35596">
        <ele>189.90268184547</ele>
        <time>2021-07-08T15:28:36.774Z</time>
      </trkpt>
      <trkpt lat="48.74443" lon="7.35615">
        <ele>188.94672179563</ele>
        <time>2021-07-08T15:28:42.727Z</time>
      </trkpt>
      <trkpt lat="48.74436" lon="7.35619">
        <ele>188.18792100436</ele>
        <time>2021-07-08T15:28:48.682Z</time>
      </trkpt>
      <trkpt lat="48.74428" lon="7.35625">
        <ele>187.49174712121</ele>
        <time>2021-07-08T15:28:54.640Z</time>
      </trkpt>
      <trkpt lat="48.74406" lon="7.35647">
        <ele>186.80582774653</ele>
        <time>2021-07-08T15:29:00.607Z</time>
      </trkpt>
      <trkpt lat="48.74385" lon="7.35666">
        <ele>186.13295585897</ele>
        <time>2021-07-08T15:29:06.582Z</time>
      </trkpt>
      <trkpt lat="48.74372" lon="7.35679">
        <ele>185.5435360831</ele>
        <time>2021-07-08T15:29:12.563Z</time>
      </trkpt>
      <trkpt lat="48.74372" lon="7.35686">
        <ele>185.07518801658</ele>
        <time>2021-07-08T15:29:18.545Z</time>
      </trkpt>
      <trkpt lat="48.74368" lon="7.35864">
        <ele>184.82118394177</ele>
        <time>2021-07-08T15:29:24.566Z</time>
      </trkpt>
      <trkpt lat="48.7436" lon="7.35873">
        <ele>184.45637554822</ele>
        <time>2021-07-08T15:29:30.591Z</time>
      </trkpt>
      <trkpt lat="48.74357" lon="7.35876">
        <ele>184.12174245157</ele>
        <time>2021-07-08T15:29:36.617Z</time>
      </trkpt>
      <trkpt lat="48.74352" lon="7.35883">
        <ele>183.85074759516</ele>
        <time>2021-07-08T15:29:42.645Z</time>
      </trkpt>
      <trkpt lat="48.74341" lon="7.35898">
        <ele>183.65338299309</ele>
        <time>2021-07-08T15:29:48.678Z</time>
      </trkpt>
      <trkpt lat="48.74332" lon="7.35915">
        <ele>183.52568711011</ele>
        <time>2021-07-08T15:29:54.716Z</time>
      </trkpt>
      <trkpt lat="48.74325" lon="7.35927">
        <ele>183.41870110514</ele>
        <time>2021-07-08T15:30:00.757Z</time>
      </trkpt>
      <trkpt lat="48.74304" lon="7.35962">
        <ele>183.43337831648</ele>
        <time>2021-07-08T15:30:06.809Z</time>
      </trkpt>
      <trkpt lat="48.74286" lon="7.35992">
        <ele>183.55552486147</ele>
        <time>2021-07-08T15:30:12.870Z</time>
      </trkpt>
      <trkpt lat="48.74272" lon="7.36015">
        <ele>183.65068437457</ele>
        <time>2021-07-08T15:30:18.938Z</time>
      </trkpt>
      <trkpt lat="48.74229" lon="7.36089">
        <ele>183.93157132039</ele>
        <time>2021-07-08T15:30:25.027Z</time>
      </trkpt>
      <trkpt lat="48.74216" lon="7.36112">
        <ele>184.26892520494</ele>
        <time>2021-07-08T15:30:31.123Z</time>
      </trkpt>
      <trkpt lat="48.74212" lon="7.36118">
        <ele>184.77232193976</ele>
        <time>2021-07-08T15:30:37.221Z</time>
      </trkpt>
      <trkpt lat="48.74208" lon="7.36125">
        <ele>185.4435211337</ele>
        <time>2021-07-08T15:30:43.321Z</time>
      </trkpt>
      <trkpt lat="48.74205" lon="7.36131">
        <ele>186.29918747956</ele>
        <time>2021-07-08T15:30:49.423Z</time>
      </trkpt>
      <trkpt lat="48.74114" lon="7.35971">
        <ele>187.51321415774</ele>
        <time>2021-07-08T15:30:55.571Z</time>
      </trkpt>
      <trkpt lat="48.74098" lon="7.35988">
        <ele>188.92696392922</ele>
        <time>2021-07-08T15:31:01.726Z</time>
      </trkpt>
      <trkpt lat="48.74075" lon="7.35942">
        <ele>190.55911464469</ele>
        <time>2021-07-08T15:31:07.894Z</time>
      </trkpt>
      <trkpt lat="48.74069" lon="7.35908">
        <ele>192.50220929847</ele>
        <time>2021-07-08T15:31:14.069Z</time>
      </trkpt>
      <trkpt lat="48.74077" lon="7.35609">
        <ele>194.71044564606</ele>
        <time>2021-07-08T15:31:20.310Z</time>
      </trkpt>
      <trkpt lat="48.74038" lon="7.35506">
        <ele>197.8564351456</ele>
        <time>2021-07-08T15:31:26.578Z</time>
      </trkpt>
      <trkpt lat="48.74019" lon="7.35173">
        <ele>202.19997169125</ele>
        <time>2021-07-08T15:31:32.919Z</time>
      </trkpt>
      <trkpt lat="48.74007" lon="7.35112">
        <ele>206.37807116242</ele>
        <time>2021-07-08T15:31:39.274Z</time>
      </trkpt>
      <trkpt lat="48.73975" lon="7.35047">
        <ele>211.38767069204</ele>
        <time>2021-07-08T15:31:45.647Z</time>
      </trkpt>
      <trkpt lat="48.73936" lon="7.34995">
        <ele>216.99043323346</ele>
        <time>2021-07-08T15:31:52.038Z</time>
      </trkpt>
      <trkpt lat="48.73876" lon="7.34942">
        <ele>222.8824428636</ele>
        <time>2021-07-08T15:31:58.452Z</time>
      </trkpt>
      <trkpt lat="48.73846" lon="7.34921">
        <ele>229.32385655285</ele>
        <time>2021-07-08T15:32:04.877Z</time>
      </trkpt>
      <trkpt lat="48.73795" lon="7.34918">
        <ele>236.64575488269</ele>
        <time>2021-07-08T15:32:11.319Z</time>
      </trkpt>
      <trkpt lat="48.73543" lon="7.34849">
        <ele>245.91361897642</ele>
        <time>2021-07-08T15:32:17.846Z</time>
      </trkpt>
      <trkpt lat="48.73509" lon="7.34836">
        <ele>253.72357901895</ele>
        <time>2021-07-08T15:32:24.385Z</time>
      </trkpt>
      <trkpt lat="48.73385" lon="7.34825">
        <ele>262.73828414471</ele>
        <time>2021-07-08T15:32:30.965Z</time>
      </trkpt>
      <trkpt lat="48.73354" lon="7.34784">
        <ele>271.67110231478</ele>
        <time>2021-07-08T15:32:37.559Z</time>
      </trkpt>
      <trkpt lat="48.73348" lon="7.34802">
        <ele>281.21109519184</ele>
        <time>2021-07-08T15:32:44.158Z</time>
      </trkpt>
      <trkpt lat="48.7327" lon="7.3469">
        <ele>292.19787334925</ele>
        <time>2021-07-08T15:32:50.792Z</time>
      </trkpt>
      <trkpt lat="48.73184" lon="7.34614">
        <ele>303.58542330095</ele>
        <time>2021-07-08T15:32:57.460Z</time>
      </trkpt>
      <trkpt lat="48.73117" lon="7.34511">
        <ele>314.83255100569</ele>
        <time>2021-07-08T15:33:04.160Z</time>
      </trkpt>
      <trkpt lat="48.73033" lon="7.34434">
        <ele>325.81102558265</ele>
        <time>2021-07-08T15:33:10.892Z</time>
      </trkpt>
      <trkpt lat="48.72901" lon="7.34331">
        <ele>336.7446773955</ele>
        <time>2021-07-08T15:33:17.674Z</time>
      </trkpt>
      <trkpt lat="48.72872" lon="7.34336">
        <ele>346.17625355295</ele>
        <time>2021-07-08T15:33:24.466Z</time>
      </trkpt>
      <trkpt lat="48.72852" lon="7.34368">
        <ele>354.98551200089</ele>
        <time>2021-07-08T15:33:31.267Z</time>
      </trkpt>
      <trkpt lat="48.72805" lon="7.3437">
        <ele>364.29807313334</ele>
        <time>2021-07-08T15:33:38.084Z</time>
      </trkpt>
      <trkpt lat="48.72792" lon="7.34297">
        <ele>374.66120523003</ele>
        <time>2021-07-08T15:33:44.918Z</time>
      </trkpt>
      <trkpt lat="48.7274" lon="7.34144">
        <ele>384.64679556805</ele>
        <time>2021-07-08T15:33:51.790Z</time>
      </trkpt>
      <trkpt lat="48.72701" lon="7.34034">
        <ele>392.58629745714</ele>
        <time>2021-07-08T15:33:58.689Z</time>
      </trkpt>
      <trkpt lat="48.72685" lon="7.34004">
        <ele>398.94279070246</ele>
        <time>2021-07-08T15:34:05.597Z</time>
      </trkpt>
      <trkpt lat="48.72658" lon="7.33976">
        <ele>404.46897758809</ele>
        <time>2021-07-08T15:34:12.516Z</time>
      </trkpt>
      <trkpt lat="48.72651" lon="7.34065">
        <ele>408.65453332771</ele>
        <time>2021-07-08T15:34:19.454Z</time>
      </trkpt>
      <trkpt lat="48.72641" lon="7.34068">
        <ele>413.46953220798</ele>
        <time>2021-07-08T15:34:26.396Z</time>
      </trkpt>
      <trkpt lat="48.72596" lon="7.34035">
        <ele>418.57684948803</ele>
        <time>2021-07-08T15:34:33.355Z</time>
      </trkpt>
      <trkpt lat="48.7257" lon="7.33993">
        <ele>423.58644757997</ele>
        <time>2021-07-08T15:34:40.326Z</time>
      </trkpt>
      <trkpt lat="48.72518" lon="7.33927">
        <ele>427.69033547158</ele>
        <time>2021-07-08T15:34:47.320Z</time>
      </trkpt>
    </trkseg>
  </trk>
  <trk>
    <name><![CDATA[UT53 Étape 6]]></name>
    <extensions>
      <line xmlns="http://www.topografix.com/GPX/gpx_style/0/2">
        <color>FF00FF</color>
        <width>4</width>
      </line>
    </extensions>
    <trkseg>
      <trkpt lat="48.72464" lon="7.33857">
        <ele>431.34213236565</ele>
        <time>2021-07-07T14:49:23.000Z</time>
      </trkpt>
      <trkpt lat="48.7245" lon="7.33846">
        <ele>431.38511465333</ele>
        <time>2021-07-07T14:49:23.005Z</time>
      </trkpt>
      <trkpt lat="48.7244" lon="7.33839">
        <ele>431.61397005641</ele>
        <time>2021-07-07T14:49:23.014Z</time>
      </trkpt>
      <trkpt lat="48.72419" lon="7.33814">
        <ele>432.11846882798</ele>
        <time>2021-07-07T14:49:23.032Z</time>
      </trkpt>
      <trkpt lat="48.724" lon="7.33786">
        <ele>432.93898558543</ele>
        <time>2021-07-07T14:49:23.059Z</time>
      </trkpt>
      <trkpt lat="48.72385" lon="7.33771">
        <ele>433.76625084502</ele>
        <time>2021-07-07T14:49:23.092Z</time>
      </trkpt>
      <trkpt lat="48.72374" lon="7.3376">
        <ele>434.44915685033</ele>
        <time>2021-07-07T14:49:23.129Z</time>
      </trkpt>
      <trkpt lat="48.72366" lon="7.33748">
        <ele>435.04611958335</ele>
        <time>2021-07-07T14:49:23.170Z</time>
      </trkpt>
      <trkpt lat="48.72354" lon="7.33731">
        <ele>435.59132439666</ele>
        <time>2021-07-07T14:49:23.216Z</time>
      </trkpt>
      <trkpt lat="48.72352" lon="7.33728">
        <ele>436.02289760055</ele>
        <time>2021-07-07T14:49:23.263Z</time>
      </trkpt>
      <trkpt lat="48.72351" lon="7.33725">
        <ele>436.36473010001</ele>
        <time>2021-07-07T14:49:23.311Z</time>
      </trkpt>
      <trkpt lat="48.72336" lon="7.33692">
        <ele>436.64077663739</ele>
        <time>2021-07-07T14:49:23.368Z</time>
      </trkpt>
      <trkpt lat="48.72334" lon="7.33687">
        <ele>436.8332640019</ele>
        <time>2021-07-07T14:49:23.426Z</time>
      </trkpt>
      <trkpt lat="48.72327" lon="7.33684">
        <ele>436.92841559158</ele>
        <time>2021-07-07T14:49:23.487Z</time>
      </trkpt>
      <trkpt lat="48.72316" lon="7.33677">
        <ele>436.93828142645</ele>
        <time>2021-07-07T14:49:23.552Z</time>
      </trkpt>
      <trkpt lat="48.72303" lon="7.33665">
        <ele>436.9038781245</ele>
        <time>2021-07-07T14:49:23.622Z</time>
      </trkpt>
      <trkpt lat="48.7229" lon="7.33655">
        <ele>436.81828841304</ele>
        <time>2021-07-07T14:49:23.697Z</time>
      </trkpt>
      <trkpt lat="48.72285" lon="7.33652">
        <ele>436.64838640636</ele>
        <time>2021-07-07T14:49:23.773Z</time>
      </trkpt>
      <trkpt lat="48.7227" lon="7.33647">
        <ele>436.3582062661</ele>
        <time>2021-07-07T14:49:23.854Z</time>
      </trkpt>
      <trkpt lat="48.72263" lon="7.33644">
        <ele>435.97263208095</ele>
        <time>2021-07-07T14:49:23.938Z</time>
      </trkpt>
      <trkpt lat="48.72257" lon="7.33639">
        <ele>435.49792357305</ele>
        <time>2021-07-07T14:49:24.024Z</time>
      </trkpt>
      <trkpt lat="48.72245" lon="7.33621">
        <ele>434.89006476069</ele>
        <time>2021-07-07T14:49:24.116Z</time>
      </trkpt>
      <trkpt lat="48.7224" lon="7.33618">
        <ele>434.20592838067</ele>
        <time>2021-07-07T14:49:24.210Z</time>
      </trkpt>
      <trkpt lat="48.72226" lon="7.33611">
        <ele>433.41471932635</ele>
        <time>2021-07-07T14:49:24.309Z</time>
      </trkpt>
      <trkpt lat="48.72218" lon="7.33609">
        <ele>432.60595820308</ele>
        <time>2021-07-07T14:49:24.410Z</time>
      </trkpt>
      <trkpt lat="48.72205" lon="7.33607">
        <ele>431.77069529877</ele>
        <time>2021-07-07T14:49:24.516Z</time>
      </trkpt>
      <trkpt lat="48.72193" lon="7.33602">
        <ele>430.92605509169</ele>
        <time>2021-07-07T14:49:24.626Z</time>
      </trkpt>
      <trkpt lat="48.72176" lon="7.33593">
        <ele>430.07724785271</ele>
        <time>2021-07-07T14:49:24.742Z</time>
      </trkpt>
      <trkpt lat="48.72155" lon="7.33577">
        <ele>429.30461063283</ele>
        <time>2021-07-07T14:49:24.866Z</time>
      </trkpt>
      <trkpt lat="48.72152" lon="7.33576">
        <ele>428.680846342</ele>
        <time>2021-07-07T14:49:24.991Z</time>
      </trkpt>
      <trkpt lat="48.72138" lon="7.33567">
        <ele>428.21128906423</ele>
        <time>2021-07-07T14:49:25.121Z</time>
      </trkpt>
      <trkpt lat="48.72135" lon="7.33561">
        <ele>427.92025355775</ele>
        <time>2021-07-07T14:49:25.252Z</time>
      </trkpt>
      <trkpt lat="48.72134" lon="7.33541">
        <ele>427.81716307924</ele>
        <time>2021-07-07T14:49:25.388Z</time>
      </trkpt>
      <trkpt lat="48.72131" lon="7.33539">
        <ele>427.92619441902</ele>
        <time>2021-07-07T14:49:25.525Z</time>
      </trkpt>
      <trkpt lat="48.72108" lon="7.33525">
        <ele>428.30421502753</ele>
        <time>2021-07-07T14:49:25.670Z</time>
      </trkpt>
      <trkpt lat="48.72098" lon="7.33518">
        <ele>428.90101909736</ele>
        <time>2021-07-07T14:49:25.819Z</time>
      </trkpt>
      <trkpt lat="48.72079" lon="7.3351">
        <ele>429.71904459295</ele>
        <time>2021-07-07T14:49:25.974Z</time>
      </trkpt>
      <trkpt lat="48.72059" lon="7.335">
        <ele>430.72722661912</ele>
        <time>2021-07-07T14:49:26.136Z</time>
      </trkpt>
      <trkpt lat="48.72047" lon="7.33493">
        <ele>432.05327065247</ele>
        <time>2021-07-07T14:49:26.303Z</time>
      </trkpt>
      <trkpt lat="48.72043" lon="7.3349">
        <ele>433.6433386727</ele>
        <time>2021-07-07T14:49:26.471Z</time>
      </trkpt>
      <trkpt lat="48.72032" lon="7.33472">
        <ele>435.58470813789</ele>
        <time>2021-07-07T14:49:26.645Z</time>
      </trkpt>
      <trkpt lat="48.72024" lon="7.33462">
        <ele>437.77469448161</ele>
        <time>2021-07-07T14:49:26.822Z</time>
      </trkpt>
      <trkpt lat="48.72019" lon="7.33454">
        <ele>440.08131850281</ele>
        <time>2021-07-07T14:49:27.002Z</time>
      </trkpt>
      <trkpt lat="48.72006" lon="7.33444">
        <ele>442.55757101056</ele>
        <time>2021-07-07T14:49:27.186Z</time>
      </trkpt>
      <trkpt lat="48.71993" lon="7.33436">
        <ele>444.99698473699</ele>
        <time>2021-07-07T14:49:27.375Z</time>
      </trkpt>
      <trkpt lat="48.71984" lon="7.33429">
        <ele>447.31806100287</ele>
        <time>2021-07-07T14:49:27.567Z</time>
      </trkpt>
      <trkpt lat="48.71974" lon="7.33422">
        <ele>449.39506121659</ele>
        <time>2021-07-07T14:49:27.763Z</time>
      </trkpt>
      <trkpt lat="48.71904" lon="7.33314">
        <ele>451.98816775399</ele>
        <time>2021-07-07T14:49:27.992Z</time>
      </trkpt>
      <trkpt lat="48.7185" lon="7.33296">
        <ele>453.26051506451</ele>
        <time>2021-07-07T14:49:28.240Z</time>
      </trkpt>
      <trkpt lat="48.71819" lon="7.33225">
        <ele>454.33840174569</ele>
        <time>2021-07-07T14:49:28.507Z</time>
      </trkpt>
      <trkpt lat="48.71814" lon="7.33187">
        <ele>454.56153380735</ele>
        <time>2021-07-07T14:49:28.782Z</time>
      </trkpt>
      <trkpt lat="48.7178" lon="7.33207">
        <ele>453.78787766143</ele>
        <time>2021-07-07T14:49:29.069Z</time>
      </trkpt>
      <trkpt lat="48.71763" lon="7.33245">
        <ele>452.7111855907</ele>
        <time>2021-07-07T14:49:29.367Z</time>
      </trkpt>
      <trkpt lat="48.71728" lon="7.33255">
        <ele>451.35690075709</ele>
        <time>2021-07-07T14:49:29.676Z</time>
      </trkpt>
      <trkpt lat="48.71721" lon="7.33256">
        <ele>450.30323670604</ele>
        <time>2021-07-07T14:49:29.988Z</time>
      </trkpt>
      <trkpt lat="48.71714" lon="7.33253">
        <ele>449.36538639869</ele>
        <time>2021-07-07T14:49:30.302Z</time>
      </trkpt>
      <trkpt lat="48.71703" lon="7.33251">
        <ele>448.61343876896</ele>
        <time>2021-07-07T14:49:30.620Z</time>
      </trkpt>
      <trkpt lat="48.71689" lon="7.33247">
        <ele>448.15349943602</ele>
        <time>2021-07-07T14:49:30.943Z</time>
      </trkpt>
      <trkpt lat="48.71677" lon="7.33245">
        <ele>447.95448036134</ele>
        <time>2021-07-07T14:49:31.270Z</time>
      </trkpt>
      <trkpt lat="48.71669" lon="7.33241">
        <ele>448.02251779398</ele>
        <time>2021-07-07T14:49:31.600Z</time>
      </trkpt>
      <trkpt lat="48.71655" lon="7.33231">
        <ele>448.41527044542</ele>
        <time>2021-07-07T14:49:31.935Z</time>
      </trkpt>
      <trkpt lat="48.71649" lon="7.33222">
        <ele>448.93109071007</ele>
        <time>2021-07-07T14:49:32.272Z</time>
      </trkpt>
      <trkpt lat="48.7164" lon="7.33214">
        <ele>449.58980690281</ele>
        <time>2021-07-07T14:49:32.613Z</time>
      </trkpt>
      <trkpt lat="48.71616" lon="7.33186">
        <ele>450.31421568999</ele>
        <time>2021-07-07T14:49:32.964Z</time>
      </trkpt>
      <trkpt lat="48.71603" lon="7.33176">
        <ele>450.97602988063</ele>
        <time>2021-07-07T14:49:33.320Z</time>
      </trkpt>
      <trkpt lat="48.71593" lon="7.33169">
        <ele>451.59740297406</ele>
        <time>2021-07-07T14:49:33.680Z</time>
      </trkpt>
      <trkpt lat="48.7158" lon="7.33162">
        <ele>452.17006306064</ele>
        <time>2021-07-07T14:49:34.044Z</time>
      </trkpt>
      <trkpt lat="48.71534" lon="7.3314">
        <ele>452.76545006323</ele>
        <time>2021-07-07T14:49:34.424Z</time>
      </trkpt>
      <trkpt lat="48.71531" lon="7.33137">
        <ele>452.95476459542</ele>
        <time>2021-07-07T14:49:34.806Z</time>
      </trkpt>
      <trkpt lat="48.71522" lon="7.33131">
        <ele>452.87127897875</ele>
        <time>2021-07-07T14:49:35.191Z</time>
      </trkpt>
      <trkpt lat="48.71512" lon="7.33127">
        <ele>452.55366401875</ele>
        <time>2021-07-07T14:49:35.579Z</time>
      </trkpt>
      <trkpt lat="48.71501" lon="7.33124">
        <ele>452.02267998767</ele>
        <time>2021-07-07T14:49:35.971Z</time>
      </trkpt>
      <trkpt lat="48.71491" lon="7.33123">
        <ele>451.28016734355</ele>
        <time>2021-07-07T14:49:36.366Z</time>
      </trkpt>
      <trkpt lat="48.71453" lon="7.33123">
        <ele>450.22959805229</ele>
        <time>2021-07-07T14:49:36.774Z</time>
      </trkpt>
      <trkpt lat="48.71433" lon="7.33127">
        <ele>448.97209830621</ele>
        <time>2021-07-07T14:49:37.189Z</time>
      </trkpt>
      <trkpt lat="48.71393" lon="7.33132">
        <ele>447.32609822291</ele>
        <time>2021-07-07T14:49:37.617Z</time>
      </trkpt>
      <trkpt lat="48.71376" lon="7.33134">
        <ele>445.91008069752</ele>
        <time>2021-07-07T14:49:38.051Z</time>
      </trkpt>
      <trkpt lat="48.71367" lon="7.33132">
        <ele>444.48622660904</ele>
        <time>2021-07-07T14:49:38.488Z</time>
      </trkpt>
      <trkpt lat="48.71341" lon="7.33134">
        <ele>443.13271777263</ele>
        <time>2021-07-07T14:49:38.934Z</time>
      </trkpt>
      <trkpt lat="48.71331" lon="7.33138">
        <ele>441.87598495716</ele>
        <time>2021-07-07T14:49:39.383Z</time>
      </trkpt>
      <trkpt lat="48.71308" lon="7.33143">
        <ele>440.66913630124</ele>
        <time>2021-07-07T14:49:39.840Z</time>
      </trkpt>
      <trkpt lat="48.71301" lon="7.33144">
        <ele>439.65897019919</ele>
        <time>2021-07-07T14:49:40.299Z</time>
      </trkpt>
      <trkpt lat="48.71291" lon="7.33144">
        <ele>438.78133344876</ele>
        <time>2021-07-07T14:49:40.761Z</time>
      </trkpt>
      <trkpt lat="48.71281" lon="7.33142">
        <ele>438.04045052776</ele>
        <time>2021-07-07T14:49:41.227Z</time>
      </trkpt>
      <trkpt lat="48.71265" lon="7.33132">
        <ele>437.40337813211</ele>
        <time>2021-07-07T14:49:41.699Z</time>
      </trkpt>
      <trkpt lat="48.71261" lon="7.33125">
        <ele>436.91043371476</ele>
        <time>2021-07-07T14:49:42.173Z</time>
      </trkpt>
      <trkpt lat="48.7125" lon="7.33123">
        <ele>436.54452587151</ele>
        <time>2021-07-07T14:49:42.650Z</time>
      </trkpt>
      <trkpt lat="48.71244" lon="7.33123">
        <ele>436.28511024413</ele>
        <time>2021-07-07T14:49:43.129Z</time>
      </trkpt>
      <trkpt lat="48.71241" lon="7.33125">
        <ele>436.09609791343</ele>
        <time>2021-07-07T14:49:43.609Z</time>
      </trkpt>
      <trkpt lat="48.71236" lon="7.33129">
        <ele>435.94753162191</ele>
        <time>2021-07-07T14:49:44.091Z</time>
      </trkpt>
      <trkpt lat="48.71225" lon="7.33143">
        <ele>435.82700603238</ele>
        <time>2021-07-07T14:49:44.578Z</time>
      </trkpt>
      <trkpt lat="48.7122" lon="7.33147">
        <ele>435.63265524853</ele>
        <time>2021-07-07T14:49:45.067Z</time>
      </trkpt>
      <trkpt lat="48.71212" lon="7.33153">
        <ele>435.38100021259</ele>
        <time>2021-07-07T14:49:45.559Z</time>
      </trkpt>
      <trkpt lat="48.71182" lon="7.3316">
        <ele>434.95178044851</ele>
        <time>2021-07-07T14:49:46.061Z</time>
      </trkpt>
      <trkpt lat="48.71161" lon="7.33168">
        <ele>434.51907055335</ele>
        <time>2021-07-07T14:49:46.570Z</time>
      </trkpt>
      <trkpt lat="48.71145" lon="7.33177">
        <ele>434.0428625189</ele>
        <time>2021-07-07T14:49:47.085Z</time>
      </trkpt>
      <trkpt lat="48.71107" lon="7.33203">
        <ele>433.46912851243</ele>
        <time>2021-07-07T14:49:47.614Z</time>
      </trkpt>
      <trkpt lat="48.7108" lon="7.33222">
        <ele>432.82319282985</ele>
        <time>2021-07-07T14:49:48.153Z</time>
      </trkpt>
      <trkpt lat="48.71058" lon="7.3324">
        <ele>432.15251458142</ele>
        <time>2021-07-07T14:49:48.700Z</time>
      </trkpt>
      <trkpt lat="48.71034" lon="7.33247">
        <ele>431.3810241005</ele>
        <time>2021-07-07T14:49:49.255Z</time>
      </trkpt>
      <trkpt lat="48.71004" lon="7.33249">
        <ele>430.53826137872</ele>
        <time>2021-07-07T14:49:49.820Z</time>
      </trkpt>
      <trkpt lat="48.70973" lon="7.33245">
        <ele>429.68613718012</ele>
        <time>2021-07-07T14:49:50.396Z</time>
      </trkpt>
      <trkpt lat="48.70909" lon="7.33234">
        <ele>429.08144502184</ele>
        <time>2021-07-07T14:49:50.993Z</time>
      </trkpt>
      <trkpt lat="48.70849" lon="7.33217">
        <ele>428.24321106962</ele>
        <time>2021-07-07T14:49:51.611Z</time>
      </trkpt>
      <trkpt lat="48.70807" lon="7.33189">
        <ele>427.35977946445</ele>
        <time>2021-07-07T14:49:52.244Z</time>
      </trkpt>
      <trkpt lat="48.70767" lon="7.33165">
        <ele>426.64471362102</ele>
        <time>2021-07-07T14:49:52.891Z</time>
      </trkpt>
      <trkpt lat="48.70733" lon="7.33136">
        <ele>425.80054149567</ele>
        <time>2021-07-07T14:49:53.551Z</time>
      </trkpt>
      <trkpt lat="48.70712" lon="7.3311">
        <ele>425.29691951072</ele>
        <time>2021-07-07T14:49:54.220Z</time>
      </trkpt>
      <trkpt lat="48.70688" lon="7.33085">
        <ele>424.97585507687</ele>
        <time>2021-07-07T14:49:54.899Z</time>
      </trkpt>
      <trkpt lat="48.70677" lon="7.33064">
        <ele>425.17134925102</ele>
        <time>2021-07-07T14:49:55.584Z</time>
      </trkpt>
      <trkpt lat="48.70667" lon="7.33054">
        <ele>425.34510098092</ele>
        <time>2021-07-07T14:49:56.273Z</time>
      </trkpt>
      <trkpt lat="48.70636" lon="7.33035">
        <ele>425.66922070776</ele>
        <time>2021-07-07T14:49:56.973Z</time>
      </trkpt>
      <trkpt lat="48.70606" lon="7.3303">
        <ele>425.72016842869</ele>
        <time>2021-07-07T14:49:57.683Z</time>
      </trkpt>
      <trkpt lat="48.70571" lon="7.33027">
        <ele>425.59002539439</ele>
        <time>2021-07-07T14:49:58.405Z</time>
      </trkpt>
      <trkpt lat="48.70539" lon="7.33016">
        <ele>425.81154357124</ele>
        <time>2021-07-07T14:49:59.138Z</time>
      </trkpt>
      <trkpt lat="48.70503" lon="7.33">
        <ele>426.58091312661</ele>
        <time>2021-07-07T14:49:59.883Z</time>
      </trkpt>
      <trkpt lat="48.70472" lon="7.32986">
        <ele>426.84758709425</ele>
        <time>2021-07-07T14:50:00.639Z</time>
      </trkpt>
      <trkpt lat="48.70447" lon="7.32982">
        <ele>426.70676116581</ele>
        <time>2021-07-07T14:50:01.404Z</time>
      </trkpt>
      <trkpt lat="48.70419" lon="7.32971">
        <ele>426.4930235922</ele>
        <time>2021-07-07T14:50:02.178Z</time>
      </trkpt>
      <trkpt lat="48.70392" lon="7.32966">
        <ele>426.09513532213</ele>
        <time>2021-07-07T14:50:02.961Z</time>
      </trkpt>
      <trkpt lat="48.70365" lon="7.32962">
        <ele>425.44539434186</ele>
        <time>2021-07-07T14:50:03.753Z</time>
      </trkpt>
      <trkpt lat="48.7034" lon="7.32962">
        <ele>424.18568431066</ele>
        <time>2021-07-07T14:50:04.554Z</time>
      </trkpt>
      <trkpt lat="48.70307" lon="7.32962">
        <ele>422.62986351138</ele>
        <time>2021-07-07T14:50:05.366Z</time>
      </trkpt>
      <trkpt lat="48.70271" lon="7.32963">
        <ele>421.25233573014</ele>
        <time>2021-07-07T14:50:06.190Z</time>
      </trkpt>
      <trkpt lat="48.7023" lon="7.32968">
        <ele>419.95596622214</ele>
        <time>2021-07-07T14:50:07.027Z</time>
      </trkpt>
      <trkpt lat="48.70196" lon="7.32974">
        <ele>418.41124692119</ele>
        <time>2021-07-07T14:50:07.876Z</time>
      </trkpt>
      <trkpt lat="48.70153" lon="7.32974">
        <ele>416.82696774127</ele>
        <time>2021-07-07T14:50:08.739Z</time>
      </trkpt>
      <trkpt lat="48.70124" lon="7.32977">
        <ele>415.30711954251</ele>
        <time>2021-07-07T14:50:09.612Z</time>
      </trkpt>
      <trkpt lat="48.70109" lon="7.32982">
        <ele>413.71125323988</ele>
        <time>2021-07-07T14:50:10.490Z</time>
      </trkpt>
      <trkpt lat="48.70074" lon="7.32989">
        <ele>412.13487162823</ele>
        <time>2021-07-07T14:50:11.380Z</time>
      </trkpt>
      <trkpt lat="48.70026" lon="7.33012">
        <ele>410.38097669979</ele>
        <time>2021-07-07T14:50:12.287Z</time>
      </trkpt>
      <trkpt lat="48.69994" lon="7.33017">
        <ele>408.84183212694</ele>
        <time>2021-07-07T14:50:13.204Z</time>
      </trkpt>
      <trkpt lat="48.69958" lon="7.33019">
        <ele>407.4206656612</ele>
        <time>2021-07-07T14:50:14.133Z</time>
      </trkpt>
      <trkpt lat="48.6992" lon="7.33017">
        <ele>406.28315908304</ele>
        <time>2021-07-07T14:50:15.075Z</time>
      </trkpt>
      <trkpt lat="48.69892" lon="7.33013">
        <ele>405.02527155819</ele>
        <time>2021-07-07T14:50:16.026Z</time>
      </trkpt>
      <trkpt lat="48.69866" lon="7.33005">
        <ele>403.60897919288</ele>
        <time>2021-07-07T14:50:16.986Z</time>
      </trkpt>
      <trkpt lat="48.69847" lon="7.32993">
        <ele>402.27172563627</ele>
        <time>2021-07-07T14:50:17.953Z</time>
      </trkpt>
      <trkpt lat="48.69824" lon="7.3297">
        <ele>401.03188607314</ele>
        <time>2021-07-07T14:50:18.929Z</time>
      </trkpt>
      <trkpt lat="48.69809" lon="7.32956">
        <ele>399.66951568047</ele>
        <time>2021-07-07T14:50:19.911Z</time>
      </trkpt>
      <trkpt lat="48.69784" lon="7.32927">
        <ele>398.25030182869</ele>
        <time>2021-07-07T14:50:20.904Z</time>
      </trkpt>
      <trkpt lat="48.69759" lon="7.3289">
        <ele>397.0440485263</ele>
        <time>2021-07-07T14:50:21.908Z</time>
      </trkpt>
      <trkpt lat="48.6974" lon="7.32861">
        <ele>395.85099858089</ele>
        <time>2021-07-07T14:50:22.921Z</time>
      </trkpt>
      <trkpt lat="48.6972" lon="7.32828">
        <ele>394.61513589979</ele>
        <time>2021-07-07T14:50:23.944Z</time>
      </trkpt>
      <trkpt lat="48.69711" lon="7.32809">
        <ele>393.61403828489</ele>
        <time>2021-07-07T14:50:24.972Z</time>
      </trkpt>
      <trkpt lat="48.69695" lon="7.32779">
        <ele>392.78911194778</ele>
        <time>2021-07-07T14:50:26.009Z</time>
      </trkpt>
      <trkpt lat="48.69695" lon="7.32779">
        <ele>392.32452962403</ele>
        <time>2021-07-07T14:50:27.046Z</time>
      </trkpt>
      <trkpt lat="48.69682" lon="7.32747">
        <ele>392.49050261303</ele>
        <time>2021-07-07T14:50:28.091Z</time>
      </trkpt>
      <trkpt lat="48.6968" lon="7.32742">
        <ele>393.11620522909</ele>
        <time>2021-07-07T14:50:29.138Z</time>
      </trkpt>
      <trkpt lat="48.69695" lon="7.32757">
        <ele>394.26682744127</ele>
        <time>2021-07-07T14:50:30.191Z</time>
      </trkpt>
      <trkpt lat="48.69708" lon="7.32767">
        <ele>395.74535016815</ele>
        <time>2021-07-07T14:50:31.248Z</time>
      </trkpt>
      <trkpt lat="48.69711" lon="7.3277">
        <ele>397.39743082339</ele>
        <time>2021-07-07T14:50:32.307Z</time>
      </trkpt>
      <trkpt lat="48.69723" lon="7.32783">
        <ele>399.36583851592</ele>
        <time>2021-07-07T14:50:33.371Z</time>
      </trkpt>
      <trkpt lat="48.69737" lon="7.32801">
        <ele>401.52718141239</ele>
        <time>2021-07-07T14:50:34.441Z</time>
      </trkpt>
      <trkpt lat="48.69753" lon="7.32827">
        <ele>403.68825949614</ele>
        <time>2021-07-07T14:50:35.519Z</time>
      </trkpt>
      <trkpt lat="48.69772" lon="7.3286">
        <ele>405.76844777486</ele>
        <time>2021-07-07T14:50:36.606Z</time>
      </trkpt>
      <trkpt lat="48.69781" lon="7.32876">
        <ele>407.60315753773</ele>
        <time>2021-07-07T14:50:37.698Z</time>
      </trkpt>
      <trkpt lat="48.69811" lon="7.32923">
        <ele>409.32471515092</ele>
        <time>2021-07-07T14:50:38.804Z</time>
      </trkpt>
      <trkpt lat="48.69827" lon="7.32944">
        <ele>410.7476893151</ele>
        <time>2021-07-07T14:50:39.917Z</time>
      </trkpt>
      <trkpt lat="48.6983" lon="7.32947">
        <ele>411.82831408243</ele>
        <time>2021-07-07T14:50:41.032Z</time>
      </trkpt>
      <trkpt lat="48.69839" lon="7.32955">
        <ele>412.59438946509</ele>
        <time>2021-07-07T14:50:42.150Z</time>
      </trkpt>
      <trkpt lat="48.69856" lon="7.32966">
        <ele>412.99995107215</ele>
        <time>2021-07-07T14:50:43.274Z</time>
      </trkpt>
      <trkpt lat="48.69839" lon="7.32955">
        <ele>412.59438946509</ele>
        <time>2021-07-07T14:50:44.404Z</time>
      </trkpt>
      <trkpt lat="48.6983" lon="7.32947">
        <ele>411.82831408243</ele>
        <time>2021-07-07T14:50:45.538Z</time>
      </trkpt>
      <trkpt lat="48.69827" lon="7.32944">
        <ele>410.7476893151</ele>
        <time>2021-07-07T14:50:46.673Z</time>
      </trkpt>
      <trkpt lat="48.69811" lon="7.32923">
        <ele>409.32471515092</ele>
        <time>2021-07-07T14:50:47.815Z</time>
      </trkpt>
      <trkpt lat="48.69781" lon="7.32876">
        <ele>407.60315753773</ele>
        <time>2021-07-07T14:50:48.972Z</time>
      </trkpt>
      <trkpt lat="48.69772" lon="7.3286">
        <ele>405.76844777486</ele>
        <time>2021-07-07T14:50:50.133Z</time>
      </trkpt>
      <trkpt lat="48.69737" lon="7.32801">
        <ele>401.52718141239</ele>
        <time>2021-07-07T14:50:51.312Z</time>
      </trkpt>
      <trkpt lat="48.69723" lon="7.32783">
        <ele>399.36583851592</ele>
        <time>2021-07-07T14:50:52.497Z</time>
      </trkpt>
      <trkpt lat="48.69711" lon="7.3277">
        <ele>397.39743082339</ele>
        <time>2021-07-07T14:50:53.687Z</time>
      </trkpt>
      <trkpt lat="48.69708" lon="7.32767">
        <ele>395.74535016815</ele>
        <time>2021-07-07T14:50:54.878Z</time>
      </trkpt>
      <trkpt lat="48.69695" lon="7.32757">
        <ele>394.26682744127</ele>
        <time>2021-07-07T14:50:56.074Z</time>
      </trkpt>
      <trkpt lat="48.6968" lon="7.32742">
        <ele>393.11620522909</ele>
        <time>2021-07-07T14:50:57.276Z</time>
      </trkpt>
      <trkpt lat="48.69674" lon="7.32713">
        <ele>391.11721738608</ele>
        <time>2021-07-07T14:50:58.485Z</time>
      </trkpt>
      <trkpt lat="48.69671" lon="7.32696">
        <ele>389.67091964716</ele>
        <time>2021-07-07T14:50:59.697Z</time>
      </trkpt>
      <trkpt lat="48.69671" lon="7.32692">
        <ele>388.49332461314</ele>
        <time>2021-07-07T14:51:00.910Z</time>
      </trkpt>
      <trkpt lat="48.69671" lon="7.3269">
        <ele>387.5894010892</ele>
        <time>2021-07-07T14:51:02.124Z</time>
      </trkpt>
      <trkpt lat="48.69666" lon="7.32661">
        <ele>387.0245627485</ele>
        <time>2021-07-07T14:51:03.344Z</time>
      </trkpt>
      <trkpt lat="48.69664" lon="7.32657">
        <ele>386.6527016395</ele>
        <time>2021-07-07T14:51:04.565Z</time>
      </trkpt>
      <trkpt lat="48.69659" lon="7.32646">
        <ele>386.53044361044</ele>
        <time>2021-07-07T14:51:05.789Z</time>
      </trkpt>
      <trkpt lat="48.69648" lon="7.3264">
        <ele>386.59617737613</ele>
        <time>2021-07-07T14:51:07.017Z</time>
      </trkpt>
      <trkpt lat="48.69636" lon="7.3264">
        <ele>386.92663537845</ele>
        <time>2021-07-07T14:51:08.249Z</time>
      </trkpt>
      <trkpt lat="48.69627" lon="7.32644">
        <ele>387.50111016089</ele>
        <time>2021-07-07T14:51:09.484Z</time>
      </trkpt>
      <trkpt lat="48.69585" lon="7.3265">
        <ele>388.66512234788</ele>
        <time>2021-07-07T14:51:10.734Z</time>
      </trkpt>
      <trkpt lat="48.69576" lon="7.3265">
        <ele>389.74237716733</ele>
        <time>2021-07-07T14:51:11.987Z</time>
      </trkpt>
      <trkpt lat="48.69565" lon="7.32652">
        <ele>391.01371690996</ele>
        <time>2021-07-07T14:51:13.243Z</time>
      </trkpt>
      <trkpt lat="48.6954" lon="7.32657">
        <ele>392.37923249855</ele>
        <time>2021-07-07T14:51:14.508Z</time>
      </trkpt>
      <trkpt lat="48.69534" lon="7.32658">
        <ele>393.93804255596</ele>
        <time>2021-07-07T14:51:15.775Z</time>
      </trkpt>
      <trkpt lat="48.69525" lon="7.32642">
        <ele>395.79492657244</ele>
        <time>2021-07-07T14:51:17.046Z</time>
      </trkpt>
      <trkpt lat="48.69508" lon="7.32632">
        <ele>397.87540431845</ele>
        <time>2021-07-07T14:51:18.323Z</time>
      </trkpt>
      <trkpt lat="48.69494" lon="7.32627">
        <ele>400.22482330108</ele>
        <time>2021-07-07T14:51:19.605Z</time>
      </trkpt>
      <trkpt lat="48.69464" lon="7.32608">
        <ele>402.97662147079</ele>
        <time>2021-07-07T14:51:20.898Z</time>
      </trkpt>
      <trkpt lat="48.69438" lon="7.32624">
        <ele>405.92512650469</ele>
        <time>2021-07-07T14:51:22.200Z</time>
      </trkpt>
      <trkpt lat="48.69347" lon="7.32612">
        <ele>409.43139671171</ele>
        <time>2021-07-07T14:51:23.533Z</time>
      </trkpt>
      <trkpt lat="48.69281" lon="7.32563">
        <ele>413.14031778713</ele>
        <time>2021-07-07T14:51:24.890Z</time>
      </trkpt>
      <trkpt lat="48.69252" lon="7.32522">
        <ele>416.97088093248</ele>
        <time>2021-07-07T14:51:26.261Z</time>
      </trkpt>
      <trkpt lat="48.69203" lon="7.3246">
        <ele>420.92772534493</ele>
        <time>2021-07-07T14:51:27.653Z</time>
      </trkpt>
      <trkpt lat="48.6915" lon="7.32393">
        <ele>424.96460726046</ele>
        <time>2021-07-07T14:51:29.068Z</time>
      </trkpt>
      <trkpt lat="48.691" lon="7.32333">
        <ele>429.15771910511</ele>
        <time>2021-07-07T14:51:30.504Z</time>
      </trkpt>
      <trkpt lat="48.69062" lon="7.32305">
        <ele>433.16947173229</ele>
        <time>2021-07-07T14:51:31.954Z</time>
      </trkpt>
      <trkpt lat="48.69025" lon="7.32267">
        <ele>437.27639562833</ele>
        <time>2021-07-07T14:51:33.419Z</time>
      </trkpt>
      <trkpt lat="48.68976" lon="7.32219">
        <ele>441.2265397927</ele>
        <time>2021-07-07T14:51:34.904Z</time>
      </trkpt>
      <trkpt lat="48.6892" lon="7.32165">
        <ele>445.03272821537</ele>
        <time>2021-07-07T14:51:36.411Z</time>
      </trkpt>
      <trkpt lat="48.68881" lon="7.32104">
        <ele>448.78675536009</ele>
        <time>2021-07-07T14:51:37.937Z</time>
      </trkpt>
      <trkpt lat="48.68839" lon="7.32044">
        <ele>452.0901947836</ele>
        <time>2021-07-07T14:51:39.482Z</time>
      </trkpt>
      <trkpt lat="48.68797" lon="7.31984">
        <ele>455.28339628482</ele>
        <time>2021-07-07T14:51:41.046Z</time>
      </trkpt>
      <trkpt lat="48.68759" lon="7.31915">
        <ele>458.34227589515</ele>
        <time>2021-07-07T14:51:42.630Z</time>
      </trkpt>
      <trkpt lat="48.68726" lon="7.31849">
        <ele>460.99745342449</ele>
        <time>2021-07-07T14:51:44.232Z</time>
      </trkpt>
      <trkpt lat="48.68718" lon="7.31799">
        <ele>463.34587615064</ele>
        <time>2021-07-07T14:51:45.846Z</time>
      </trkpt>
      <trkpt lat="48.68711" lon="7.31724">
        <ele>465.36819054952</ele>
        <time>2021-07-07T14:51:47.476Z</time>
      </trkpt>
      <trkpt lat="48.68702" lon="7.31669">
        <ele>466.78831566888</ele>
        <time>2021-07-07T14:51:49.119Z</time>
      </trkpt>
      <trkpt lat="48.68696" lon="7.31656">
        <ele>467.78447798583</ele>
        <time>2021-07-07T14:51:50.766Z</time>
      </trkpt>
      <trkpt lat="48.68688" lon="7.31644">
        <ele>468.43755527845</ele>
        <time>2021-07-07T14:51:52.416Z</time>
      </trkpt>
      <trkpt lat="48.68672" lon="7.31627">
        <ele>468.75978472387</ele>
        <time>2021-07-07T14:51:54.073Z</time>
      </trkpt>
      <trkpt lat="48.68655" lon="7.31605">
        <ele>468.92811651375</ele>
        <time>2021-07-07T14:51:55.737Z</time>
      </trkpt>
      <trkpt lat="48.68639" lon="7.31589">
        <ele>469.04655491422</ele>
        <time>2021-07-07T14:51:57.408Z</time>
      </trkpt>
      <trkpt lat="48.6863" lon="7.31582">
        <ele>469.11034420298</ele>
        <time>2021-07-07T14:51:59.082Z</time>
      </trkpt>
      <trkpt lat="48.68622" lon="7.31579">
        <ele>469.16304094761</ele>
        <time>2021-07-07T14:52:00.759Z</time>
      </trkpt>
      <trkpt lat="48.68624" lon="7.31571">
        <ele>469.31587309449</ele>
        <time>2021-07-07T14:52:02.438Z</time>
      </trkpt>
      <trkpt lat="48.68597" lon="7.31563">
        <ele>469.42283748612</ele>
        <time>2021-07-07T14:52:04.126Z</time>
      </trkpt>
      <trkpt lat="48.68567" lon="7.3155">
        <ele>469.69745401701</ele>
        <time>2021-07-07T14:52:05.824Z</time>
      </trkpt>
      <trkpt lat="48.68515" lon="7.31527">
        <ele>470.34404479274</ele>
        <time>2021-07-07T14:52:07.540Z</time>
      </trkpt>
      <trkpt lat="48.68485" lon="7.31514">
        <ele>471.06424606516</ele>
        <time>2021-07-07T14:52:09.267Z</time>
      </trkpt>
      <trkpt lat="48.68465" lon="7.31518">
        <ele>471.67163124906</ele>
        <time>2021-07-07T14:52:11.000Z</time>
      </trkpt>
      <trkpt lat="48.68436" lon="7.31496">
        <ele>472.35251686752</ele>
        <time>2021-07-07T14:52:12.744Z</time>
      </trkpt>
      <trkpt lat="48.68407" lon="7.31479">
        <ele>473.00259076943</ele>
        <time>2021-07-07T14:52:14.499Z</time>
      </trkpt>
      <trkpt lat="48.68283" lon="7.31368">
        <ele>473.5337520213</ele>
        <time>2021-07-07T14:52:16.302Z</time>
      </trkpt>
      <trkpt lat="48.68231" lon="7.31323">
        <ele>473.97342241928</ele>
        <time>2021-07-07T14:52:18.125Z</time>
      </trkpt>
      <trkpt lat="48.68221" lon="7.31301">
        <ele>474.49104606479</ele>
        <time>2021-07-07T14:52:19.954Z</time>
      </trkpt>
      <trkpt lat="48.68209" lon="7.3127">
        <ele>475.08593437745</ele>
        <time>2021-07-07T14:52:21.791Z</time>
      </trkpt>
      <trkpt lat="48.68206" lon="7.31262">
        <ele>475.83694578581</ele>
        <time>2021-07-07T14:52:23.630Z</time>
      </trkpt>
      <trkpt lat="48.68192" lon="7.31234">
        <ele>476.74624199265</ele>
        <time>2021-07-07T14:52:25.476Z</time>
      </trkpt>
      <trkpt lat="48.68183" lon="7.31219">
        <ele>477.81622085281</ele>
        <time>2021-07-07T14:52:27.327Z</time>
      </trkpt>
      <trkpt lat="48.68167" lon="7.31189">
        <ele>479.08299200655</ele>
        <time>2021-07-07T14:52:29.186Z</time>
      </trkpt>
      <trkpt lat="48.68165" lon="7.31187">
        <ele>480.54297150043</ele>
        <time>2021-07-07T14:52:31.046Z</time>
      </trkpt>
      <trkpt lat="48.68149" lon="7.31161">
        <ele>482.31526196649</ele>
        <time>2021-07-07T14:52:32.914Z</time>
      </trkpt>
      <trkpt lat="48.68128" lon="7.31156">
        <ele>484.27303495245</ele>
        <time>2021-07-07T14:52:34.789Z</time>
      </trkpt>
      <trkpt lat="48.68082" lon="7.31098">
        <ele>486.56095691043</ele>
        <time>2021-07-07T14:52:36.684Z</time>
      </trkpt>
      <trkpt lat="48.68064" lon="7.31074">
        <ele>488.53936657564</ele>
        <time>2021-07-07T14:52:38.587Z</time>
      </trkpt>
      <trkpt lat="48.68049" lon="7.31053">
        <ele>490.51199947032</ele>
        <time>2021-07-07T14:52:40.497Z</time>
      </trkpt>
      <trkpt lat="48.68029" lon="7.30994">
        <ele>492.59307676524</ele>
        <time>2021-07-07T14:52:42.422Z</time>
      </trkpt>
      <trkpt lat="48.68028" lon="7.3099">
        <ele>494.35421679173</ele>
        <time>2021-07-07T14:52:44.348Z</time>
      </trkpt>
      <trkpt lat="48.68034" lon="7.3091">
        <ele>496.04449825129</ele>
        <time>2021-07-07T14:52:46.291Z</time>
      </trkpt>
      <trkpt lat="48.6804" lon="7.30892">
        <ele>497.55155236271</ele>
        <time>2021-07-07T14:52:48.239Z</time>
      </trkpt>
      <trkpt lat="48.68045" lon="7.30878">
        <ele>498.93150170461</ele>
        <time>2021-07-07T14:52:50.190Z</time>
      </trkpt>
      <trkpt lat="48.6805" lon="7.30869">
        <ele>500.13502180257</ele>
        <time>2021-07-07T14:52:52.144Z</time>
      </trkpt>
      <trkpt lat="48.6806" lon="7.30845">
        <ele>501.18733545064</ele>
        <time>2021-07-07T14:52:54.104Z</time>
      </trkpt>
      <trkpt lat="48.68069" lon="7.30774">
        <ele>502.25136371701</ele>
        <time>2021-07-07T14:52:56.080Z</time>
      </trkpt>
      <trkpt lat="48.68062" lon="7.30673">
        <ele>503.15578196198</ele>
        <time>2021-07-07T14:52:58.079Z</time>
      </trkpt>
      <trkpt lat="48.68043" lon="7.30614">
        <ele>503.95643325655</ele>
        <time>2021-07-07T14:53:00.092Z</time>
      </trkpt>
      <trkpt lat="48.68023" lon="7.30551">
        <ele>504.74792833621</ele>
        <time>2021-07-07T14:53:02.120Z</time>
      </trkpt>
      <trkpt lat="48.68004" lon="7.30501">
        <ele>505.49716986123</ele>
        <time>2021-07-07T14:53:04.161Z</time>
      </trkpt>
      <trkpt lat="48.67995" lon="7.3048">
        <ele>506.10773650509</ele>
        <time>2021-07-07T14:53:06.208Z</time>
      </trkpt>
      <trkpt lat="48.67977" lon="7.30432">
        <ele>506.67619346743</ele>
        <time>2021-07-07T14:53:08.267Z</time>
      </trkpt>
      <trkpt lat="48.6797" lon="7.30416">
        <ele>507.03265364616</ele>
        <time>2021-07-07T14:53:10.330Z</time>
      </trkpt>
      <trkpt lat="48.67951" lon="7.30377">
        <ele>507.26526862455</ele>
        <time>2021-07-07T14:53:12.404Z</time>
      </trkpt>
      <trkpt lat="48.67951" lon="7.30377">
        <ele>507.41959195376</ele>
        <time>2021-07-07T14:53:14.478Z</time>
      </trkpt>
      <trkpt lat="48.67951" lon="7.30377">
        <ele>507.48180058612</ele>
        <time>2021-07-07T14:53:16.552Z</time>
      </trkpt>
      <trkpt lat="48.67938" lon="7.30355">
        <ele>507.53562915376</ele>
        <time>2021-07-07T14:53:18.632Z</time>
      </trkpt>
      <trkpt lat="48.67902" lon="7.30282">
        <ele>507.35237481084</ele>
        <time>2021-07-07T14:53:20.732Z</time>
      </trkpt>
      <trkpt lat="48.67891" lon="7.30264">
        <ele>507.10362650374</ele>
        <time>2021-07-07T14:53:22.838Z</time>
      </trkpt>
      <trkpt lat="48.67884" lon="7.3025">
        <ele>506.81454439409</ele>
        <time>2021-07-07T14:53:24.948Z</time>
      </trkpt>
      <trkpt lat="48.67879" lon="7.30241">
        <ele>506.56695368992</ele>
        <time>2021-07-07T14:53:27.060Z</time>
      </trkpt>
      <trkpt lat="48.67869" lon="7.30228">
        <ele>506.38436253535</ele>
        <time>2021-07-07T14:53:29.177Z</time>
      </trkpt>
      <trkpt lat="48.67843" lon="7.30178">
        <ele>506.29442985963</ele>
        <time>2021-07-07T14:53:31.308Z</time>
      </trkpt>
      <trkpt lat="48.67834" lon="7.30162">
        <ele>506.08922601056</ele>
        <time>2021-07-07T14:53:33.443Z</time>
      </trkpt>
      <trkpt lat="48.6783" lon="7.30154">
        <ele>505.72293363271</ele>
        <time>2021-07-07T14:53:35.581Z</time>
      </trkpt>
      <trkpt lat="48.67829" lon="7.30148">
        <ele>505.2111004053</ele>
        <time>2021-07-07T14:53:37.720Z</time>
      </trkpt>
      <trkpt lat="48.67831" lon="7.30125">
        <ele>504.36713345024</ele>
        <time>2021-07-07T14:53:39.864Z</time>
      </trkpt>
      <trkpt lat="48.67823" lon="7.30103">
        <ele>503.83432004223</ele>
        <time>2021-07-07T14:53:42.014Z</time>
      </trkpt>
      <trkpt lat="48.67819" lon="7.3009">
        <ele>503.27350665862</ele>
        <time>2021-07-07T14:53:44.167Z</time>
      </trkpt>
      <trkpt lat="48.6781" lon="7.30063">
        <ele>502.66260791389</ele>
        <time>2021-07-07T14:53:46.327Z</time>
      </trkpt>
      <trkpt lat="48.67786" lon="7.2998">
        <ele>502.05865263765</ele>
        <time>2021-07-07T14:53:48.507Z</time>
      </trkpt>
      <trkpt lat="48.67779" lon="7.29962">
        <ele>501.57564499251</ele>
        <time>2021-07-07T14:53:50.691Z</time>
      </trkpt>
      <trkpt lat="48.67762" lon="7.29932">
        <ele>501.18142039062</ele>
        <time>2021-07-07T14:53:52.884Z</time>
      </trkpt>
      <trkpt lat="48.67745" lon="7.29903">
        <ele>500.91975892092</ele>
        <time>2021-07-07T14:53:55.085Z</time>
      </trkpt>
      <trkpt lat="48.67736" lon="7.2989">
        <ele>500.74921530918</ele>
        <time>2021-07-07T14:53:57.291Z</time>
      </trkpt>
      <trkpt lat="48.67724" lon="7.29875">
        <ele>500.67123591092</ele>
        <time>2021-07-07T14:53:59.502Z</time>
      </trkpt>
      <trkpt lat="48.67705" lon="7.29845">
        <ele>500.69387934179</ele>
        <time>2021-07-07T14:54:01.722Z</time>
      </trkpt>
      <trkpt lat="48.67688" lon="7.29813">
        <ele>500.62026703452</ele>
        <time>2021-07-07T14:54:03.951Z</time>
      </trkpt>
      <trkpt lat="48.67678" lon="7.29792">
        <ele>500.45452655709</ele>
        <time>2021-07-07T14:54:06.186Z</time>
      </trkpt>
      <trkpt lat="48.67669" lon="7.2977">
        <ele>500.27828898333</ele>
        <time>2021-07-07T14:54:08.426Z</time>
      </trkpt>
      <trkpt lat="48.67661" lon="7.29744">
        <ele>500.09686997301</ele>
        <time>2021-07-07T14:54:10.673Z</time>
      </trkpt>
      <trkpt lat="48.67656" lon="7.29724">
        <ele>500.00542098813</ele>
        <time>2021-07-07T14:54:12.925Z</time>
      </trkpt>
      <trkpt lat="48.67654" lon="7.29708">
        <ele>499.87930826526</ele>
        <time>2021-07-07T14:54:15.180Z</time>
      </trkpt>
      <trkpt lat="48.67654" lon="7.29686">
        <ele>499.81876750744</ele>
        <time>2021-07-07T14:54:17.440Z</time>
      </trkpt>
      <trkpt lat="48.67655" lon="7.29666">
        <ele>499.87753159519</ele>
        <time>2021-07-07T14:54:19.704Z</time>
      </trkpt>
      <trkpt lat="48.67659" lon="7.29636">
        <ele>500.08116346059</ele>
        <time>2021-07-07T14:54:21.975Z</time>
      </trkpt>
      <trkpt lat="48.6766" lon="7.29629">
        <ele>500.55905561621</ele>
        <time>2021-07-07T14:54:24.248Z</time>
      </trkpt>
      <trkpt lat="48.67664" lon="7.29611">
        <ele>501.24855412249</ele>
        <time>2021-07-07T14:54:26.525Z</time>
      </trkpt>
      <trkpt lat="48.67672" lon="7.2958">
        <ele>502.15220251739</ele>
        <time>2021-07-07T14:54:28.809Z</time>
      </trkpt>
      <trkpt lat="48.67699" lon="7.29505">
        <ele>503.58477434761</ele>
        <time>2021-07-07T14:54:31.112Z</time>
      </trkpt>
      <trkpt lat="48.67699" lon="7.29478">
        <ele>505.45779679512</ele>
        <time>2021-07-07T14:54:33.421Z</time>
      </trkpt>
      <trkpt lat="48.67701" lon="7.29452">
        <ele>507.46096255671</ele>
        <time>2021-07-07T14:54:35.736Z</time>
      </trkpt>
      <trkpt lat="48.67705" lon="7.29417">
        <ele>509.68324089919</ele>
        <time>2021-07-07T14:54:38.059Z</time>
      </trkpt>
      <trkpt lat="48.67708" lon="7.29404">
        <ele>512.06704954442</ele>
        <time>2021-07-07T14:54:40.385Z</time>
      </trkpt>
      <trkpt lat="48.67726" lon="7.29359">
        <ele>514.69943308194</ele>
        <time>2021-07-07T14:54:42.722Z</time>
      </trkpt>
      <trkpt lat="48.67739" lon="7.29305">
        <ele>517.43930830046</ele>
        <time>2021-07-07T14:54:45.072Z</time>
      </trkpt>
      <trkpt lat="48.67748" lon="7.29279">
        <ele>519.9279161826</ele>
        <time>2021-07-07T14:54:47.429Z</time>
      </trkpt>
      <trkpt lat="48.67754" lon="7.29269">
        <ele>522.1836954961</ele>
        <time>2021-07-07T14:54:49.789Z</time>
      </trkpt>
      <trkpt lat="48.67756" lon="7.29261">
        <ele>524.29543302719</ele>
        <time>2021-07-07T14:54:52.150Z</time>
      </trkpt>
      <trkpt lat="48.67765" lon="7.29244">
        <ele>526.19043468108</ele>
        <time>2021-07-07T14:54:54.516Z</time>
      </trkpt>
      <trkpt lat="48.67766" lon="7.29234">
        <ele>527.87814910279</ele>
        <time>2021-07-07T14:54:56.884Z</time>
      </trkpt>
      <trkpt lat="48.67766" lon="7.29227">
        <ele>529.28943492696</ele>
        <time>2021-07-07T14:54:59.254Z</time>
      </trkpt>
      <trkpt lat="48.67764" lon="7.29217">
        <ele>530.46296271832</ele>
        <time>2021-07-07T14:55:01.626Z</time>
      </trkpt>
      <trkpt lat="48.6776" lon="7.29203">
        <ele>531.3161004477</ele>
        <time>2021-07-07T14:55:04.002Z</time>
      </trkpt>
      <trkpt lat="48.67756" lon="7.29195">
        <ele>531.85181277989</ele>
        <time>2021-07-07T14:55:06.380Z</time>
      </trkpt>
      <trkpt lat="48.67751" lon="7.29168">
        <ele>532.02100450156</ele>
        <time>2021-07-07T14:55:08.764Z</time>
      </trkpt>
      <trkpt lat="48.67749" lon="7.29163">
        <ele>531.91205318188</ele>
        <time>2021-07-07T14:55:11.149Z</time>
      </trkpt>
      <trkpt lat="48.67737" lon="7.29156">
        <ele>531.54023153116</ele>
        <time>2021-07-07T14:55:13.539Z</time>
      </trkpt>
      <trkpt lat="48.67719" lon="7.29135">
        <ele>530.83530831746</ele>
        <time>2021-07-07T14:55:15.936Z</time>
      </trkpt>
      <trkpt lat="48.6771" lon="7.29126">
        <ele>530.04300636331</ele>
        <time>2021-07-07T14:55:18.337Z</time>
      </trkpt>
      <trkpt lat="48.67704" lon="7.29121">
        <ele>529.17353510217</ele>
        <time>2021-07-07T14:55:20.740Z</time>
      </trkpt>
      <trkpt lat="48.67703" lon="7.2912">
        <ele>528.27436023542</ele>
        <time>2021-07-07T14:55:23.144Z</time>
      </trkpt>
      <trkpt lat="48.67693" lon="7.29107">
        <ele>527.28965751026</ele>
        <time>2021-07-07T14:55:25.552Z</time>
      </trkpt>
      <trkpt lat="48.67691" lon="7.29106">
        <ele>526.39884244557</ele>
        <time>2021-07-07T14:55:27.961Z</time>
      </trkpt>
      <trkpt lat="48.67676" lon="7.29097">
        <ele>525.57726888182</ele>
        <time>2021-07-07T14:55:30.375Z</time>
      </trkpt>
      <trkpt lat="48.67656" lon="7.29088">
        <ele>524.81823059189</ele>
        <time>2021-07-07T14:55:32.796Z</time>
      </trkpt>
      <trkpt lat="48.67622" lon="7.29081">
        <ele>524.14400439973</ele>
        <time>2021-07-07T14:55:35.228Z</time>
      </trkpt>
      <trkpt lat="48.67611" lon="7.2908">
        <ele>523.53489270638</ele>
        <time>2021-07-07T14:55:37.664Z</time>
      </trkpt>
      <trkpt lat="48.67597" lon="7.2908">
        <ele>522.98907550163</ele>
        <time>2021-07-07T14:55:40.105Z</time>
      </trkpt>
      <trkpt lat="48.67588" lon="7.29081">
        <ele>522.60919446904</ele>
        <time>2021-07-07T14:55:42.549Z</time>
      </trkpt>
      <trkpt lat="48.67573" lon="7.29086">
        <ele>522.41034405575</ele>
        <time>2021-07-07T14:55:44.998Z</time>
      </trkpt>
      <trkpt lat="48.67564" lon="7.29087">
        <ele>522.34578142438</ele>
        <time>2021-07-07T14:55:47.450Z</time>
      </trkpt>
      <trkpt lat="48.67558" lon="7.2909">
        <ele>522.47339764948</ele>
        <time>2021-07-07T14:55:49.904Z</time>
      </trkpt>
      <trkpt lat="48.67532" lon="7.29093">
        <ele>522.79739002153</ele>
        <time>2021-07-07T14:55:52.367Z</time>
      </trkpt>
      <trkpt lat="48.6752" lon="7.29091">
        <ele>523.16685759622</ele>
        <time>2021-07-07T14:55:54.834Z</time>
      </trkpt>
      <trkpt lat="48.67513" lon="7.29091">
        <ele>523.64457028857</ele>
        <time>2021-07-07T14:55:57.303Z</time>
      </trkpt>
      <trkpt lat="48.675" lon="7.29095">
        <ele>524.25712573173</ele>
        <time>2021-07-07T14:55:59.777Z</time>
      </trkpt>
      <trkpt lat="48.67493" lon="7.29095">
        <ele>524.87725026202</ele>
        <time>2021-07-07T14:56:02.253Z</time>
      </trkpt>
      <trkpt lat="48.67488" lon="7.29094">
        <ele>525.50919293645</ele>
        <time>2021-07-07T14:56:04.731Z</time>
      </trkpt>
      <trkpt lat="48.67476" lon="7.29091">
        <ele>526.16154949232</ele>
        <time>2021-07-07T14:56:07.213Z</time>
      </trkpt>
      <trkpt lat="48.67468" lon="7.29088">
        <ele>526.78432797892</ele>
        <time>2021-07-07T14:56:09.697Z</time>
      </trkpt>
      <trkpt lat="48.67455" lon="7.29078">
        <ele>527.32714331349</ele>
        <time>2021-07-07T14:56:12.186Z</time>
      </trkpt>
      <trkpt lat="48.67448" lon="7.29073">
        <ele>527.84796795919</ele>
        <time>2021-07-07T14:56:14.678Z</time>
      </trkpt>
      <trkpt lat="48.67436" lon="7.29061">
        <ele>528.35916736833</ele>
        <time>2021-07-07T14:56:17.175Z</time>
      </trkpt>
      <trkpt lat="48.67413" lon="7.29033">
        <ele>528.76202302147</ele>
        <time>2021-07-07T14:56:19.682Z</time>
      </trkpt>
      <trkpt lat="48.67405" lon="7.29025">
        <ele>529.04697475621</ele>
        <time>2021-07-07T14:56:22.192Z</time>
      </trkpt>
      <trkpt lat="48.67395" lon="7.29012">
        <ele>529.21969558053</ele>
        <time>2021-07-07T14:56:24.706Z</time>
      </trkpt>
      <trkpt lat="48.67384" lon="7.28994">
        <ele>529.33128515081</ele>
        <time>2021-07-07T14:56:27.226Z</time>
      </trkpt>
      <trkpt lat="48.67377" lon="7.28979">
        <ele>529.34770853656</ele>
        <time>2021-07-07T14:56:29.750Z</time>
      </trkpt>
      <trkpt lat="48.67361" lon="7.28944">
        <ele>529.24202915555</ele>
        <time>2021-07-07T14:56:32.283Z</time>
      </trkpt>
      <trkpt lat="48.67354" lon="7.28932">
        <ele>529.19160717005</ele>
        <time>2021-07-07T14:56:34.820Z</time>
      </trkpt>
      <trkpt lat="48.67353" lon="7.28931">
        <ele>529.10231219412</ele>
        <time>2021-07-07T14:56:37.357Z</time>
      </trkpt>
      <trkpt lat="48.6735" lon="7.28924">
        <ele>528.96067196758</ele>
        <time>2021-07-07T14:56:39.896Z</time>
      </trkpt>
      <trkpt lat="48.67349" lon="7.28921">
        <ele>528.76162514146</ele>
        <time>2021-07-07T14:56:42.435Z</time>
      </trkpt>
      <trkpt lat="48.67342" lon="7.28909">
        <ele>528.52539143672</ele>
        <time>2021-07-07T14:56:44.978Z</time>
      </trkpt>
      <trkpt lat="48.67328" lon="7.28891">
        <ele>528.29200850966</ele>
        <time>2021-07-07T14:56:47.527Z</time>
      </trkpt>
      <trkpt lat="48.67287" lon="7.28861">
        <ele>527.89908536054</ele>
        <time>2021-07-07T14:56:50.091Z</time>
      </trkpt>
      <trkpt lat="48.67255" lon="7.2884">
        <ele>527.28943695062</ele>
        <time>2021-07-07T14:56:52.667Z</time>
      </trkpt>
      <trkpt lat="48.67227" lon="7.28826">
        <ele>526.56184453368</ele>
        <time>2021-07-07T14:56:55.253Z</time>
      </trkpt>
      <trkpt lat="48.67203" lon="7.28813">
        <ele>525.66771601936</ele>
        <time>2021-07-07T14:56:57.847Z</time>
      </trkpt>
      <trkpt lat="48.67192" lon="7.28809">
        <ele>524.77496916192</ele>
        <time>2021-07-07T14:57:00.445Z</time>
      </trkpt>
      <trkpt lat="48.67168" lon="7.28797">
        <ele>523.77035389644</ele>
        <time>2021-07-07T14:57:03.052Z</time>
      </trkpt>
      <trkpt lat="48.67158" lon="7.28789">
        <ele>522.70214192478</ele>
        <time>2021-07-07T14:57:05.662Z</time>
      </trkpt>
      <trkpt lat="48.67128" lon="7.28777">
        <ele>521.61583854834</ele>
        <time>2021-07-07T14:57:08.283Z</time>
      </trkpt>
      <trkpt lat="48.67115" lon="7.28773">
        <ele>520.61061523773</ele>
        <time>2021-07-07T14:57:10.908Z</time>
      </trkpt>
      <trkpt lat="48.67099" lon="7.28766">
        <ele>519.60202333207</ele>
        <time>2021-07-07T14:57:13.539Z</time>
      </trkpt>
      <trkpt lat="48.6707" lon="7.2876">
        <ele>518.75508274609</ele>
        <time>2021-07-07T14:57:16.179Z</time>
      </trkpt>
      <trkpt lat="48.67055" lon="7.28757">
        <ele>518.04364327579</ele>
        <time>2021-07-07T14:57:18.824Z</time>
      </trkpt>
      <trkpt lat="48.67015" lon="7.28751">
        <ele>517.47178615655</ele>
        <time>2021-07-07T14:57:21.483Z</time>
      </trkpt>
      <trkpt lat="48.67011" lon="7.28751">
        <ele>517.09505252573</ele>
        <time>2021-07-07T14:57:24.143Z</time>
      </trkpt>
      <trkpt lat="48.67005" lon="7.2875">
        <ele>516.90332867437</ele>
        <time>2021-07-07T14:57:26.805Z</time>
      </trkpt>
      <trkpt lat="48.66996" lon="7.28747">
        <ele>516.90467271099</ele>
        <time>2021-07-07T14:57:29.470Z</time>
      </trkpt>
      <trkpt lat="48.66988" lon="7.28743">
        <ele>517.10630562801</ele>
        <time>2021-07-07T14:57:32.138Z</time>
      </trkpt>
      <trkpt lat="48.66941" lon="7.28726">
        <ele>517.57673701208</ele>
        <time>2021-07-07T14:57:34.822Z</time>
      </trkpt>
      <trkpt lat="48.66933" lon="7.28723">
        <ele>518.24717285217</ele>
        <time>2021-07-07T14:57:37.509Z</time>
      </trkpt>
      <trkpt lat="48.66915" lon="7.28708">
        <ele>519.15635262425</ele>
        <time>2021-07-07T14:57:40.203Z</time>
      </trkpt>
      <trkpt lat="48.66904" lon="7.28705">
        <ele>520.26776360513</ele>
        <time>2021-07-07T14:57:42.901Z</time>
      </trkpt>
      <trkpt lat="48.66893" lon="7.28695">
        <ele>521.49514845012</ele>
        <time>2021-07-07T14:57:45.603Z</time>
      </trkpt>
      <trkpt lat="48.6689" lon="7.28688">
        <ele>522.75747649845</ele>
        <time>2021-07-07T14:57:48.307Z</time>
      </trkpt>
      <trkpt lat="48.66882" lon="7.28671">
        <ele>524.17618873049</ele>
        <time>2021-07-07T14:57:51.015Z</time>
      </trkpt>
      <trkpt lat="48.66876" lon="7.28659">
        <ele>525.65355261724</ele>
        <time>2021-07-07T14:57:53.727Z</time>
      </trkpt>
      <trkpt lat="48.66874" lon="7.28657">
        <ele>527.15823831175</ele>
        <time>2021-07-07T14:57:56.439Z</time>
      </trkpt>
      <trkpt lat="48.66862" lon="7.28634">
        <ele>528.80287358202</ele>
        <time>2021-07-07T14:57:59.158Z</time>
      </trkpt>
      <trkpt lat="48.66846" lon="7.28593">
        <ele>530.41033162705</ele>
        <time>2021-07-07T14:58:01.887Z</time>
      </trkpt>
      <trkpt lat="48.66842" lon="7.28578">
        <ele>531.95192470739</ele>
        <time>2021-07-07T14:58:04.620Z</time>
      </trkpt>
      <trkpt lat="48.66836" lon="7.28548">
        <ele>533.45685700528</ele>
        <time>2021-07-07T14:58:07.360Z</time>
      </trkpt>
      <trkpt lat="48.66833" lon="7.28534">
        <ele>534.93197630258</ele>
        <time>2021-07-07T14:58:10.103Z</time>
      </trkpt>
      <trkpt lat="48.66826" lon="7.28514">
        <ele>536.37050717325</ele>
        <time>2021-07-07T14:58:12.851Z</time>
      </trkpt>
      <trkpt lat="48.66809" lon="7.28496">
        <ele>537.78078636984</ele>
        <time>2021-07-07T14:58:15.606Z</time>
      </trkpt>
      <trkpt lat="48.66801" lon="7.28491">
        <ele>538.95370669907</ele>
        <time>2021-07-07T14:58:18.364Z</time>
      </trkpt>
      <trkpt lat="48.66793" lon="7.28483">
        <ele>539.97829418199</ele>
        <time>2021-07-07T14:58:21.125Z</time>
      </trkpt>
      <trkpt lat="48.66786" lon="7.28475">
        <ele>540.84721377582</ele>
        <time>2021-07-07T14:58:23.889Z</time>
      </trkpt>
      <trkpt lat="48.6677" lon="7.28464">
        <ele>541.58203374892</ele>
        <time>2021-07-07T14:58:26.659Z</time>
      </trkpt>
      <trkpt lat="48.66763" lon="7.28461">
        <ele>542.13249167884</ele>
        <time>2021-07-07T14:58:29.431Z</time>
      </trkpt>
      <trkpt lat="48.66758" lon="7.28458">
        <ele>542.51885133792</ele>
        <time>2021-07-07T14:58:32.205Z</time>
      </trkpt>
      <trkpt lat="48.6675" lon="7.28449">
        <ele>542.73784289178</ele>
        <time>2021-07-07T14:58:34.983Z</time>
      </trkpt>
      <trkpt lat="48.66737" lon="7.28435">
        <ele>542.79587602049</ele>
        <time>2021-07-07T14:58:37.766Z</time>
      </trkpt>
      <trkpt lat="48.66719" lon="7.28412">
        <ele>542.75704577228</ele>
        <time>2021-07-07T14:58:40.557Z</time>
      </trkpt>
      <trkpt lat="48.66688" lon="7.2838">
        <ele>542.75329434145</ele>
        <time>2021-07-07T14:58:43.360Z</time>
      </trkpt>
      <trkpt lat="48.66666" lon="7.28361">
        <ele>542.56165345196</ele>
        <time>2021-07-07T14:58:46.172Z</time>
      </trkpt>
      <trkpt lat="48.66642" lon="7.28341">
        <ele>542.15214521767</ele>
        <time>2021-07-07T14:58:48.993Z</time>
      </trkpt>
      <trkpt lat="48.66622" lon="7.2832">
        <ele>541.62348365831</ele>
        <time>2021-07-07T14:58:51.822Z</time>
      </trkpt>
      <trkpt lat="48.66611" lon="7.28309">
        <ele>541.15461831438</ele>
        <time>2021-07-07T14:58:54.655Z</time>
      </trkpt>
      <trkpt lat="48.66599" lon="7.28298">
        <ele>540.74908235898</ele>
        <time>2021-07-07T14:58:57.493Z</time>
      </trkpt>
      <trkpt lat="48.66581" lon="7.28276">
        <ele>540.36229153481</ele>
        <time>2021-07-07T14:59:00.339Z</time>
      </trkpt>
      <trkpt lat="48.6657" lon="7.28271">
        <ele>540.15522888832</ele>
        <time>2021-07-07T14:59:03.189Z</time>
      </trkpt>
      <trkpt lat="48.66568" lon="7.28271">
        <ele>540.01862037904</ele>
        <time>2021-07-07T14:59:06.039Z</time>
      </trkpt>
      <trkpt lat="48.66561" lon="7.28265">
        <ele>539.9859781445</ele>
        <time>2021-07-07T14:59:08.892Z</time>
      </trkpt>
      <trkpt lat="48.66552" lon="7.28256">
        <ele>540.06300090603</ele>
        <time>2021-07-07T14:59:11.749Z</time>
      </trkpt>
      <trkpt lat="48.66536" lon="7.28237">
        <ele>540.24837745567</ele>
        <time>2021-07-07T14:59:14.612Z</time>
      </trkpt>
      <trkpt lat="48.66527" lon="7.28227">
        <ele>540.57826944328</ele>
        <time>2021-07-07T14:59:17.479Z</time>
      </trkpt>
      <trkpt lat="48.66512" lon="7.28206">
        <ele>541.03046180935</ele>
        <time>2021-07-07T14:59:20.353Z</time>
      </trkpt>
      <trkpt lat="48.66487" lon="7.28163">
        <ele>541.63112341597</ele>
        <time>2021-07-07T14:59:23.240Z</time>
      </trkpt>
      <trkpt lat="48.6647" lon="7.28128">
        <ele>542.23569597299</ele>
        <time>2021-07-07T14:59:26.136Z</time>
      </trkpt>
      <trkpt lat="48.66464" lon="7.28112">
        <ele>542.85085731025</ele>
        <time>2021-07-07T14:59:29.036Z</time>
      </trkpt>
      <trkpt lat="48.66461" lon="7.28104">
        <ele>543.45997493532</ele>
        <time>2021-07-07T14:59:31.938Z</time>
      </trkpt>
      <trkpt lat="48.66451" lon="7.28066">
        <ele>544.00554227107</ele>
        <time>2021-07-07T14:59:34.849Z</time>
      </trkpt>
      <trkpt lat="48.66447" lon="7.28054">
        <ele>544.5796014784</ele>
        <time>2021-07-07T14:59:37.763Z</time>
      </trkpt>
      <trkpt lat="48.6644" lon="7.28039">
        <ele>545.15018264933</ele>
        <time>2021-07-07T14:59:40.681Z</time>
      </trkpt>
      <trkpt lat="48.66434" lon="7.28027">
        <ele>545.69544298591</ele>
        <time>2021-07-07T14:59:43.603Z</time>
      </trkpt>
      <trkpt lat="48.6643" lon="7.28019">
        <ele>546.18221817514</ele>
        <time>2021-07-07T14:59:46.527Z</time>
      </trkpt>
      <trkpt lat="48.66421" lon="7.28003">
        <ele>546.62459556163</ele>
        <time>2021-07-07T14:59:49.456Z</time>
      </trkpt>
      <trkpt lat="48.66411" lon="7.2799">
        <ele>546.99771937498</ele>
        <time>2021-07-07T14:59:52.389Z</time>
      </trkpt>
      <trkpt lat="48.66407" lon="7.27985">
        <ele>547.218996591</ele>
        <time>2021-07-07T14:59:55.324Z</time>
      </trkpt>
      <trkpt lat="48.66402" lon="7.27974">
        <ele>547.29491993272</ele>
        <time>2021-07-07T14:59:58.262Z</time>
      </trkpt>
      <trkpt lat="48.66396" lon="7.27965">
        <ele>547.26295432004</ele>
        <time>2021-07-07T15:00:01.202Z</time>
      </trkpt>
      <trkpt lat="48.66382" lon="7.27935">
        <ele>547.0488867459</ele>
        <time>2021-07-07T15:00:04.151Z</time>
      </trkpt>
      <trkpt lat="48.66377" lon="7.27927">
        <ele>546.71743222389</ele>
        <time>2021-07-07T15:00:07.102Z</time>
      </trkpt>
      <trkpt lat="48.66374" lon="7.27919">
        <ele>546.23003314008</ele>
        <time>2021-07-07T15:00:10.055Z</time>
      </trkpt>
      <trkpt lat="48.66369" lon="7.27907">
        <ele>545.5983518652</ele>
        <time>2021-07-07T15:00:13.011Z</time>
      </trkpt>
      <trkpt lat="48.66368" lon="7.27904">
        <ele>544.84022897104</ele>
        <time>2021-07-07T15:00:15.968Z</time>
      </trkpt>
      <trkpt lat="48.66362" lon="7.27894">
        <ele>543.93158520477</ele>
        <time>2021-07-07T15:00:18.928Z</time>
      </trkpt>
      <trkpt lat="48.66351" lon="7.27878">
        <ele>542.8769634368</ele>
        <time>2021-07-07T15:00:21.893Z</time>
      </trkpt>
      <trkpt lat="48.66332" lon="7.27866">
        <ele>541.72222703642</ele>
        <time>2021-07-07T15:00:24.865Z</time>
      </trkpt>
      <trkpt lat="48.66326" lon="7.27864">
        <ele>540.61133534984</ele>
        <time>2021-07-07T15:00:27.839Z</time>
      </trkpt>
      <trkpt lat="48.6632" lon="7.27864">
        <ele>539.51397821704</ele>
        <time>2021-07-07T15:00:30.815Z</time>
      </trkpt>
      <trkpt lat="48.66314" lon="7.27866">
        <ele>538.46688618748</ele>
        <time>2021-07-07T15:00:33.793Z</time>
      </trkpt>
      <trkpt lat="48.66308" lon="7.27869">
        <ele>537.46154718387</ele>
        <time>2021-07-07T15:00:36.773Z</time>
      </trkpt>
      <trkpt lat="48.66294" lon="7.2788">
        <ele>536.51727753643</ele>
        <time>2021-07-07T15:00:39.758Z</time>
      </trkpt>
      <trkpt lat="48.6627" lon="7.27901">
        <ele>535.6872186447</ele>
        <time>2021-07-07T15:00:42.753Z</time>
      </trkpt>
      <trkpt lat="48.66253" lon="7.27915">
        <ele>534.84546518388</ele>
        <time>2021-07-07T15:00:45.754Z</time>
      </trkpt>
      <trkpt lat="48.6624" lon="7.27922">
        <ele>534.07325114111</ele>
        <time>2021-07-07T15:00:48.760Z</time>
      </trkpt>
      <trkpt lat="48.66222" lon="7.27924">
        <ele>533.32627823496</ele>
        <time>2021-07-07T15:00:51.772Z</time>
      </trkpt>
      <trkpt lat="48.66205" lon="7.27928">
        <ele>532.76772026902</ele>
        <time>2021-07-07T15:00:54.789Z</time>
      </trkpt>
      <trkpt lat="48.66173" lon="7.27935">
        <ele>532.26299380694</ele>
        <time>2021-07-07T15:00:57.817Z</time>
      </trkpt>
      <trkpt lat="48.66156" lon="7.27941">
        <ele>532.00118163959</ele>
        <time>2021-07-07T15:01:00.851Z</time>
      </trkpt>
      <trkpt lat="48.66153" lon="7.27942">
        <ele>531.93968501042</ele>
        <time>2021-07-07T15:01:03.886Z</time>
      </trkpt>
      <trkpt lat="48.66135" lon="7.27948">
        <ele>532.06639894461</ele>
        <time>2021-07-07T15:01:06.927Z</time>
      </trkpt>
      <trkpt lat="48.66132" lon="7.2795">
        <ele>532.39613865209</ele>
        <time>2021-07-07T15:01:09.969Z</time>
      </trkpt>
      <trkpt lat="48.66127" lon="7.27958">
        <ele>532.96318808554</ele>
        <time>2021-07-07T15:01:13.014Z</time>
      </trkpt>
      <trkpt lat="48.66124" lon="7.27961">
        <ele>533.62861023259</ele>
        <time>2021-07-07T15:01:16.060Z</time>
      </trkpt>
      <trkpt lat="48.66119" lon="7.27965">
        <ele>534.4267764975</ele>
        <time>2021-07-07T15:01:19.108Z</time>
      </trkpt>
      <trkpt lat="48.66113" lon="7.27967">
        <ele>535.32652755457</ele>
        <time>2021-07-07T15:01:22.158Z</time>
      </trkpt>
      <trkpt lat="48.66108" lon="7.27968">
        <ele>536.30585841263</ele>
        <time>2021-07-07T15:01:25.209Z</time>
      </trkpt>
      <trkpt lat="48.66101" lon="7.27969">
        <ele>537.32897368677</ele>
        <time>2021-07-07T15:01:28.263Z</time>
      </trkpt>
      <trkpt lat="48.66094" lon="7.27972">
        <ele>538.36566196825</ele>
        <time>2021-07-07T15:01:31.319Z</time>
      </trkpt>
      <trkpt lat="48.66085" lon="7.27972">
        <ele>539.32617368271</ele>
        <time>2021-07-07T15:01:34.378Z</time>
      </trkpt>
      <trkpt lat="48.66083" lon="7.2797">
        <ele>540.12813327502</ele>
        <time>2021-07-07T15:01:37.438Z</time>
      </trkpt>
      <trkpt lat="48.66066" lon="7.27946">
        <ele>540.79204818732</ele>
        <time>2021-07-07T15:01:40.506Z</time>
      </trkpt>
      <trkpt lat="48.66051" lon="7.27928">
        <ele>541.39473222509</ele>
        <time>2021-07-07T15:01:43.580Z</time>
      </trkpt>
      <trkpt lat="48.66042" lon="7.2792">
        <ele>541.91999852516</ele>
        <time>2021-07-07T15:01:46.658Z</time>
      </trkpt>
      <trkpt lat="48.66035" lon="7.27911">
        <ele>542.31020818616</ele>
        <time>2021-07-07T15:01:49.739Z</time>
      </trkpt>
      <trkpt lat="48.66022" lon="7.27899">
        <ele>542.62301498564</ele>
        <time>2021-07-07T15:01:52.825Z</time>
      </trkpt>
      <trkpt lat="48.66005" lon="7.27881">
        <ele>542.81409492808</ele>
        <time>2021-07-07T15:01:55.918Z</time>
      </trkpt>
      <trkpt lat="48.6599" lon="7.27867">
        <ele>542.8411846373</ele>
        <time>2021-07-07T15:01:59.017Z</time>
      </trkpt>
      <trkpt lat="48.65985" lon="7.27861">
        <ele>542.84589293627</ele>
        <time>2021-07-07T15:02:02.118Z</time>
      </trkpt>
      <trkpt lat="48.65976" lon="7.27849">
        <ele>542.75406032964</ele>
        <time>2021-07-07T15:02:05.223Z</time>
      </trkpt>
      <trkpt lat="48.65957" lon="7.27835">
        <ele>542.66050927096</ele>
        <time>2021-07-07T15:02:08.335Z</time>
      </trkpt>
      <trkpt lat="48.65957" lon="7.27835">
        <ele>542.5149374342</ele>
        <time>2021-07-07T15:02:11.447Z</time>
      </trkpt>
      <trkpt lat="48.65957" lon="7.27835">
        <ele>542.26496066756</ele>
        <time>2021-07-07T15:02:14.559Z</time>
      </trkpt>
      <trkpt lat="48.6595" lon="7.27832">
        <ele>541.87477768752</ele>
        <time>2021-07-07T15:02:17.673Z</time>
      </trkpt>
      <trkpt lat="48.65938" lon="7.27825">
        <ele>541.24981018398</ele>
        <time>2021-07-07T15:02:20.792Z</time>
      </trkpt>
      <trkpt lat="48.65933" lon="7.27822">
        <ele>540.40757078752</ele>
        <time>2021-07-07T15:02:23.912Z</time>
      </trkpt>
      <trkpt lat="48.65929" lon="7.27817">
        <ele>539.25590432332</ele>
        <time>2021-07-07T15:02:27.034Z</time>
      </trkpt>
      <trkpt lat="48.65926" lon="7.27806">
        <ele>537.73025816691</ele>
        <time>2021-07-07T15:02:30.159Z</time>
      </trkpt>
      <trkpt lat="48.65925" lon="7.27802">
        <ele>535.80231136147</ele>
        <time>2021-07-07T15:02:33.285Z</time>
      </trkpt>
      <trkpt lat="48.65915" lon="7.27775">
        <ele>533.36033758469</ele>
        <time>2021-07-07T15:02:36.418Z</time>
      </trkpt>
      <trkpt lat="48.65907" lon="7.27754">
        <ele>530.38137721288</ele>
        <time>2021-07-07T15:02:39.556Z</time>
      </trkpt>
      <trkpt lat="48.65881" lon="7.27712">
        <ele>526.69669808693</ele>
        <time>2021-07-07T15:02:42.707Z</time>
      </trkpt>
      <trkpt lat="48.65868" lon="7.27677">
        <ele>522.74525567095</ele>
        <time>2021-07-07T15:02:45.866Z</time>
      </trkpt>
      <trkpt lat="48.65872" lon="7.2765">
        <ele>518.55843512353</ele>
        <time>2021-07-07T15:02:49.032Z</time>
      </trkpt>
      <trkpt lat="48.65891" lon="7.27601">
        <ele>513.90184359859</ele>
        <time>2021-07-07T15:02:52.210Z</time>
      </trkpt>
      <trkpt lat="48.65935" lon="7.27524">
        <ele>508.69707444461</ele>
        <time>2021-07-07T15:02:55.411Z</time>
      </trkpt>
      <trkpt lat="48.65938" lon="7.27519">
        <ele>503.81422317631</ele>
        <time>2021-07-07T15:02:58.613Z</time>
      </trkpt>
      <trkpt lat="48.65939" lon="7.27517">
        <ele>498.89837335259</ele>
        <time>2021-07-07T15:03:01.816Z</time>
      </trkpt>
      <trkpt lat="48.65924" lon="7.27494">
        <ele>493.73473038136</ele>
        <time>2021-07-07T15:03:05.026Z</time>
      </trkpt>
      <trkpt lat="48.65886" lon="7.27489">
        <ele>488.60489712861</ele>
        <time>2021-07-07T15:03:08.248Z</time>
      </trkpt>
      <trkpt lat="48.65842" lon="7.27474">
        <ele>483.75769726032</ele>
        <time>2021-07-07T15:03:11.486Z</time>
      </trkpt>
      <trkpt lat="48.6583" lon="7.27473">
        <ele>479.60693811581</ele>
        <time>2021-07-07T15:03:14.728Z</time>
      </trkpt>
      <trkpt lat="48.65818" lon="7.27467">
        <ele>475.82113156053</ele>
        <time>2021-07-07T15:03:17.974Z</time>
      </trkpt>
      <trkpt lat="48.65793" lon="7.27471">
        <ele>472.44512226561</ele>
        <time>2021-07-07T15:03:21.228Z</time>
      </trkpt>
      <trkpt lat="48.65772" lon="7.2748">
        <ele>469.66176253804</ele>
        <time>2021-07-07T15:03:24.489Z</time>
      </trkpt>
      <trkpt lat="48.65762" lon="7.27494">
        <ele>467.71784867951</ele>
        <time>2021-07-07T15:03:27.755Z</time>
      </trkpt>
      <trkpt lat="48.65744" lon="7.2754">
        <ele>466.73296930211</ele>
        <time>2021-07-07T15:03:31.033Z</time>
      </trkpt>
      <trkpt lat="48.65735" lon="7.27548">
        <ele>466.17211353166</ele>
        <time>2021-07-07T15:03:34.314Z</time>
      </trkpt>
      <trkpt lat="48.65734" lon="7.27551">
        <ele>466.36667066376</ele>
        <time>2021-07-07T15:03:37.596Z</time>
      </trkpt>
      <trkpt lat="48.65726" lon="7.27561">
        <ele>467.27518191777</ele>
        <time>2021-07-07T15:03:40.881Z</time>
      </trkpt>
      <trkpt lat="48.65722" lon="7.27566">
        <ele>468.90908793862</ele>
        <time>2021-07-07T15:03:44.168Z</time>
      </trkpt>
      <trkpt lat="48.65719" lon="7.27562">
        <ele>471.13811948968</ele>
        <time>2021-07-07T15:03:47.457Z</time>
      </trkpt>
      <trkpt lat="48.65718" lon="7.2756">
        <ele>474.04521174434</ele>
        <time>2021-07-07T15:03:50.746Z</time>
      </trkpt>
      <trkpt lat="48.65718" lon="7.27556">
        <ele>477.56188925127</ele>
        <time>2021-07-07T15:03:54.036Z</time>
      </trkpt>
      <trkpt lat="48.65719" lon="7.27537">
        <ele>481.61599748202</ele>
        <time>2021-07-07T15:03:57.330Z</time>
      </trkpt>
      <trkpt lat="48.65689" lon="7.27468">
        <ele>486.85100837061</ele>
        <time>2021-07-07T15:04:00.642Z</time>
      </trkpt>
      <trkpt lat="48.65681" lon="7.27418">
        <ele>492.45112130554</ele>
        <time>2021-07-07T15:04:03.966Z</time>
      </trkpt>
      <trkpt lat="48.65665" lon="7.2739">
        <ele>498.04920343018</ele>
        <time>2021-07-07T15:04:07.298Z</time>
      </trkpt>
      <trkpt lat="48.65657" lon="7.27361">
        <ele>503.26985879311</ele>
        <time>2021-07-07T15:04:10.637Z</time>
      </trkpt>
      <trkpt lat="48.65613" lon="7.27323">
        <ele>508.88695745922</ele>
        <time>2021-07-07T15:04:13.993Z</time>
      </trkpt>
      <trkpt lat="48.65579" lon="7.27285">
        <ele>513.82287873895</ele>
        <time>2021-07-07T15:04:17.363Z</time>
      </trkpt>
      <trkpt lat="48.65557" lon="7.27262">
        <ele>518.15603922261</ele>
        <time>2021-07-07T15:04:20.742Z</time>
      </trkpt>
      <trkpt lat="48.65544" lon="7.27244">
        <ele>522.03449855226</ele>
        <time>2021-07-07T15:04:24.127Z</time>
      </trkpt>
      <trkpt lat="48.65533" lon="7.27243">
        <ele>525.53556098243</ele>
        <time>2021-07-07T15:04:27.515Z</time>
      </trkpt>
      <trkpt lat="48.65529" lon="7.27246">
        <ele>528.55826379197</ele>
        <time>2021-07-07T15:04:30.905Z</time>
      </trkpt>
      <trkpt lat="48.65523" lon="7.27247">
        <ele>531.18928792152</ele>
        <time>2021-07-07T15:04:34.297Z</time>
      </trkpt>
      <trkpt lat="48.65516" lon="7.27247">
        <ele>533.47224407092</ele>
        <time>2021-07-07T15:04:37.691Z</time>
      </trkpt>
      <trkpt lat="48.65512" lon="7.27246">
        <ele>535.42175249871</ele>
        <time>2021-07-07T15:04:41.087Z</time>
      </trkpt>
      <trkpt lat="48.65509" lon="7.27245">
        <ele>537.13220363777</ele>
        <time>2021-07-07T15:04:44.484Z</time>
      </trkpt>
      <trkpt lat="48.65501" lon="7.2724">
        <ele>538.71493939263</ele>
        <time>2021-07-07T15:04:47.884Z</time>
      </trkpt>
      <trkpt lat="48.65488" lon="7.27226">
        <ele>540.1996313502</ele>
        <time>2021-07-07T15:04:51.289Z</time>
      </trkpt>
      <trkpt lat="48.65475" lon="7.27219">
        <ele>541.66688323236</ele>
        <time>2021-07-07T15:04:54.698Z</time>
      </trkpt>
      <trkpt lat="48.65464" lon="7.2721">
        <ele>543.15594812624</ele>
        <time>2021-07-07T15:04:58.112Z</time>
      </trkpt>
      <trkpt lat="48.65457" lon="7.27202">
        <ele>544.58697480061</ele>
        <time>2021-07-07T15:05:01.529Z</time>
      </trkpt>
      <trkpt lat="48.65447" lon="7.27187">
        <ele>546.06147532125</ele>
        <time>2021-07-07T15:05:04.950Z</time>
      </trkpt>
      <trkpt lat="48.65445" lon="7.27176">
        <ele>547.42106532029</ele>
        <time>2021-07-07T15:05:08.374Z</time>
      </trkpt>
      <trkpt lat="48.65444" lon="7.27174">
        <ele>548.73878786701</ele>
        <time>2021-07-07T15:05:11.798Z</time>
      </trkpt>
      <trkpt lat="48.65436" lon="7.27167">
        <ele>550.13489393266</ele>
        <time>2021-07-07T15:05:15.225Z</time>
      </trkpt>
      <trkpt lat="48.65401" lon="7.27142">
        <ele>551.73376968757</ele>
        <time>2021-07-07T15:05:18.665Z</time>
      </trkpt>
      <trkpt lat="48.65397" lon="7.27138">
        <ele>552.91712265361</ele>
        <time>2021-07-07T15:05:22.107Z</time>
      </trkpt>
      <trkpt lat="48.65396" lon="7.27134">
        <ele>553.9731463895</ele>
        <time>2021-07-07T15:05:25.550Z</time>
      </trkpt>
      <trkpt lat="48.65396" lon="7.27132">
        <ele>554.92212563223</ele>
        <time>2021-07-07T15:05:28.993Z</time>
      </trkpt>
      <trkpt lat="48.65396" lon="7.27117">
        <ele>555.77719069919</ele>
        <time>2021-07-07T15:05:32.440Z</time>
      </trkpt>
      <trkpt lat="48.65397" lon="7.27105">
        <ele>556.55112040985</ele>
        <time>2021-07-07T15:05:35.889Z</time>
      </trkpt>
      <trkpt lat="48.65399" lon="7.27086">
        <ele>557.31042318975</ele>
        <time>2021-07-07T15:05:39.343Z</time>
      </trkpt>
      <trkpt lat="48.65404" lon="7.27073">
        <ele>557.95096375557</ele>
        <time>2021-07-07T15:05:42.800Z</time>
      </trkpt>
      <trkpt lat="48.65409" lon="7.27062">
        <ele>558.55064137042</ele>
        <time>2021-07-07T15:05:46.260Z</time>
      </trkpt>
      <trkpt lat="48.65409" lon="7.27057">
        <ele>559.13451103335</ele>
        <time>2021-07-07T15:05:49.721Z</time>
      </trkpt>
      <trkpt lat="48.65405" lon="7.27042">
        <ele>559.76498307188</ele>
        <time>2021-07-07T15:05:53.186Z</time>
      </trkpt>
      <trkpt lat="48.654" lon="7.27028">
        <ele>560.37998551007</ele>
        <time>2021-07-07T15:05:56.654Z</time>
      </trkpt>
      <trkpt lat="48.65399" lon="7.27022">
        <ele>560.91368673627</ele>
        <time>2021-07-07T15:06:00.123Z</time>
      </trkpt>
      <trkpt lat="48.654" lon="7.26974">
        <ele>561.48160625702</ele>
        <time>2021-07-07T15:06:03.603Z</time>
      </trkpt>
      <trkpt lat="48.65416" lon="7.26963">
        <ele>561.88339469806</ele>
        <time>2021-07-07T15:06:07.089Z</time>
      </trkpt>
      <trkpt lat="48.6543" lon="7.26949">
        <ele>562.25705160739</ele>
        <time>2021-07-07T15:06:10.581Z</time>
      </trkpt>
      <trkpt lat="48.65442" lon="7.26935">
        <ele>562.68167002146</ele>
        <time>2021-07-07T15:06:14.078Z</time>
      </trkpt>
      <trkpt lat="48.65462" lon="7.26914">
        <ele>563.03773079571</ele>
        <time>2021-07-07T15:06:17.583Z</time>
      </trkpt>
      <trkpt lat="48.65484" lon="7.26896">
        <ele>563.39826374406</ele>
        <time>2021-07-07T15:06:21.096Z</time>
      </trkpt>
      <trkpt lat="48.65477" lon="7.26847">
        <ele>563.8568450147</ele>
        <time>2021-07-07T15:06:24.620Z</time>
      </trkpt>
      <trkpt lat="48.65463" lon="7.2678">
        <ele>564.25059269304</ele>
        <time>2021-07-07T15:06:28.160Z</time>
      </trkpt>
      <trkpt lat="48.65444" lon="7.26716">
        <ele>564.77212387852</ele>
        <time>2021-07-07T15:06:31.715Z</time>
      </trkpt>
      <trkpt lat="48.6544" lon="7.26712">
        <ele>564.89348854232</ele>
        <time>2021-07-07T15:06:35.272Z</time>
      </trkpt>
      <trkpt lat="48.65412" lon="7.26687">
        <ele>564.89497926048</ele>
        <time>2021-07-07T15:06:38.840Z</time>
      </trkpt>
      <trkpt lat="48.65367" lon="7.26672">
        <ele>564.54044212819</ele>
        <time>2021-07-07T15:06:42.423Z</time>
      </trkpt>
      <trkpt lat="48.65275" lon="7.26638">
        <ele>563.46827641764</ele>
        <time>2021-07-07T15:06:46.038Z</time>
      </trkpt>
      <trkpt lat="48.65258" lon="7.26645">
        <ele>561.89686759713</ele>
        <time>2021-07-07T15:06:49.658Z</time>
      </trkpt>
      <trkpt lat="48.65218" lon="7.266">
        <ele>559.63647926207</ele>
        <time>2021-07-07T15:06:53.295Z</time>
      </trkpt>
      <trkpt lat="48.65151" lon="7.26565">
        <ele>557.00868839715</ele>
        <time>2021-07-07T15:06:56.956Z</time>
      </trkpt>
      <trkpt lat="48.65122" lon="7.26559">
        <ele>554.04166638359</ele>
        <time>2021-07-07T15:07:00.627Z</time>
      </trkpt>
      <trkpt lat="48.65108" lon="7.26555">
        <ele>550.79664898317</ele>
        <time>2021-07-07T15:07:04.302Z</time>
      </trkpt>
      <trkpt lat="48.65038" lon="7.26608">
        <ele>546.94735002051</ele>
        <time>2021-07-07T15:07:08.003Z</time>
      </trkpt>
      <trkpt lat="48.64976" lon="7.26602">
        <ele>543.04041959001</ele>
        <time>2021-07-07T15:07:11.725Z</time>
      </trkpt>
      <trkpt lat="48.64974" lon="7.26602">
        <ele>539.43892580644</ele>
        <time>2021-07-07T15:07:15.448Z</time>
      </trkpt>
      <trkpt lat="48.64939" lon="7.26615">
        <ele>535.64741952948</ele>
        <time>2021-07-07T15:07:19.183Z</time>
      </trkpt>
      <trkpt lat="48.64884" lon="7.26638">
        <ele>531.7577734292</ele>
        <time>2021-07-07T15:07:22.937Z</time>
      </trkpt>
      <trkpt lat="48.64877" lon="7.26639">
        <ele>528.41186917755</ele>
        <time>2021-07-07T15:07:26.693Z</time>
      </trkpt>
      <trkpt lat="48.64859" lon="7.26592">
        <ele>525.33373807643</ele>
        <time>2021-07-07T15:07:30.461Z</time>
      </trkpt>
      <trkpt lat="48.6486" lon="7.26537">
        <ele>522.44383212807</ele>
        <time>2021-07-07T15:07:34.241Z</time>
      </trkpt>
      <trkpt lat="48.64872" lon="7.26459">
        <ele>519.28280041305</ele>
        <time>2021-07-07T15:07:38.039Z</time>
      </trkpt>
      <trkpt lat="48.64867" lon="7.26405">
        <ele>516.14573527148</ele>
        <time>2021-07-07T15:07:41.849Z</time>
      </trkpt>
      <trkpt lat="48.64838" lon="7.2638">
        <ele>513.16711240586</ele>
        <time>2021-07-07T15:07:45.670Z</time>
      </trkpt>
      <trkpt lat="48.64749" lon="7.26339">
        <ele>509.96178926229</ele>
        <time>2021-07-07T15:07:49.522Z</time>
      </trkpt>
      <trkpt lat="48.64747" lon="7.26338">
        <ele>507.3611709262</ele>
        <time>2021-07-07T15:07:53.375Z</time>
      </trkpt>
      <trkpt lat="48.64727" lon="7.26333">
        <ele>504.99404871916</ele>
        <time>2021-07-07T15:07:57.235Z</time>
      </trkpt>
      <trkpt lat="48.64702" lon="7.26312">
        <ele>502.53167008516</ele>
        <time>2021-07-07T15:08:01.104Z</time>
      </trkpt>
      <trkpt lat="48.6466" lon="7.26295">
        <ele>500.45886812833</ele>
        <time>2021-07-07T15:08:04.988Z</time>
      </trkpt>
      <trkpt lat="48.64657" lon="7.2629">
        <ele>498.93815784886</ele>
        <time>2021-07-07T15:08:08.873Z</time>
      </trkpt>
      <trkpt lat="48.64654" lon="7.26284">
        <ele>497.81166896439</ele>
        <time>2021-07-07T15:08:12.760Z</time>
      </trkpt>
      <trkpt lat="48.64654" lon="7.26282">
        <ele>497.13257547929</ele>
        <time>2021-07-07T15:08:16.647Z</time>
      </trkpt>
      <trkpt lat="48.64655" lon="7.2628">
        <ele>496.90213793695</ele>
        <time>2021-07-07T15:08:20.535Z</time>
      </trkpt>
      <trkpt lat="48.64669" lon="7.26277">
        <ele>497.10241502985</ele>
        <time>2021-07-07T15:08:24.428Z</time>
      </trkpt>
      <trkpt lat="48.64674" lon="7.26273">
        <ele>497.77991455928</ele>
        <time>2021-07-07T15:08:28.323Z</time>
      </trkpt>
      <trkpt lat="48.64678" lon="7.26269">
        <ele>498.9243474788</ele>
        <time>2021-07-07T15:08:32.219Z</time>
      </trkpt>
      <trkpt lat="48.6472" lon="7.26238">
        <ele>500.54189081735</ele>
        <time>2021-07-07T15:08:36.131Z</time>
      </trkpt>
      <trkpt lat="48.64807" lon="7.26192">
        <ele>502.97298698997</ele>
        <time>2021-07-07T15:08:40.074Z</time>
      </trkpt>
      <trkpt lat="48.64871" lon="7.26157">
        <ele>505.38637919696</ele>
        <time>2021-07-07T15:08:44.039Z</time>
      </trkpt>
      <trkpt lat="48.64886" lon="7.26149">
        <ele>507.93788124099</ele>
        <time>2021-07-07T15:08:48.010Z</time>
      </trkpt>
      <trkpt lat="48.64899" lon="7.26141">
        <ele>510.57589500431</ele>
        <time>2021-07-07T15:08:51.985Z</time>
      </trkpt>
      <trkpt lat="48.64912" lon="7.26128">
        <ele>513.21032328982</ele>
        <time>2021-07-07T15:08:55.965Z</time>
      </trkpt>
      <trkpt lat="48.64923" lon="7.26112">
        <ele>516.0507011447</ele>
        <time>2021-07-07T15:08:59.951Z</time>
      </trkpt>
      <trkpt lat="48.64934" lon="7.26093">
        <ele>518.97196351192</ele>
        <time>2021-07-07T15:09:03.942Z</time>
      </trkpt>
      <trkpt lat="48.64942" lon="7.26074">
        <ele>521.80531124344</ele>
        <time>2021-07-07T15:09:07.938Z</time>
      </trkpt>
      <trkpt lat="48.6496" lon="7.26032">
        <ele>524.61541163044</ele>
        <time>2021-07-07T15:09:11.945Z</time>
      </trkpt>
      <trkpt lat="48.6498" lon="7.25994">
        <ele>526.96634136488</ele>
        <time>2021-07-07T15:09:15.963Z</time>
      </trkpt>
      <trkpt lat="48.64991" lon="7.25977">
        <ele>529.04265370436</ele>
        <time>2021-07-07T15:09:19.986Z</time>
      </trkpt>
      <trkpt lat="48.65003" lon="7.25963">
        <ele>530.81823379606</ele>
        <time>2021-07-07T15:09:24.014Z</time>
      </trkpt>
      <trkpt lat="48.65015" lon="7.25951">
        <ele>532.27315444189</ele>
        <time>2021-07-07T15:09:28.047Z</time>
      </trkpt>
      <trkpt lat="48.65032" lon="7.25933">
        <ele>533.52401585941</ele>
        <time>2021-07-07T15:09:32.087Z</time>
      </trkpt>
      <trkpt lat="48.65046" lon="7.2592">
        <ele>534.40550369831</ele>
        <time>2021-07-07T15:09:36.132Z</time>
      </trkpt>
      <trkpt lat="48.65051" lon="7.25912">
        <ele>535.26529573892</ele>
        <time>2021-07-07T15:09:40.180Z</time>
      </trkpt>
      <trkpt lat="48.65056" lon="7.25903">
        <ele>535.96472224112</ele>
        <time>2021-07-07T15:09:44.230Z</time>
      </trkpt>
      <trkpt lat="48.65065" lon="7.25883">
        <ele>536.65517793355</ele>
        <time>2021-07-07T15:09:48.286Z</time>
      </trkpt>
      <trkpt lat="48.65071" lon="7.25859">
        <ele>537.31602538368</ele>
        <time>2021-07-07T15:09:52.347Z</time>
      </trkpt>
      <trkpt lat="48.65086" lon="7.25816">
        <ele>537.87469289014</ele>
        <time>2021-07-07T15:09:56.419Z</time>
      </trkpt>
      <trkpt lat="48.65092" lon="7.25798">
        <ele>538.43617357189</ele>
        <time>2021-07-07T15:10:00.496Z</time>
      </trkpt>
      <trkpt lat="48.65098" lon="7.25771">
        <ele>539.13569449646</ele>
        <time>2021-07-07T15:10:04.579Z</time>
      </trkpt>
      <trkpt lat="48.65099" lon="7.25754">
        <ele>539.94670391277</ele>
        <time>2021-07-07T15:10:08.666Z</time>
      </trkpt>
      <trkpt lat="48.65097" lon="7.25747">
        <ele>540.80862576895</ele>
        <time>2021-07-07T15:10:12.754Z</time>
      </trkpt>
      <trkpt lat="48.65092" lon="7.25731">
        <ele>541.79665635506</ele>
        <time>2021-07-07T15:10:16.846Z</time>
      </trkpt>
      <trkpt lat="48.65089" lon="7.2572">
        <ele>542.75926167902</ele>
        <time>2021-07-07T15:10:20.941Z</time>
      </trkpt>
      <trkpt lat="48.65089" lon="7.25719">
        <ele>543.63902008719</ele>
        <time>2021-07-07T15:10:25.036Z</time>
      </trkpt>
      <trkpt lat="48.65087" lon="7.25708">
        <ele>544.54556101221</ele>
        <time>2021-07-07T15:10:29.134Z</time>
      </trkpt>
      <trkpt lat="48.65077" lon="7.25678">
        <ele>545.46965163501</ele>
        <time>2021-07-07T15:10:33.239Z</time>
      </trkpt>
      <trkpt lat="48.65074" lon="7.25663">
        <ele>546.25179090807</ele>
        <time>2021-07-07T15:10:37.348Z</time>
      </trkpt>
      <trkpt lat="48.6507" lon="7.25646">
        <ele>546.90522980974</ele>
        <time>2021-07-07T15:10:41.461Z</time>
      </trkpt>
      <trkpt lat="48.65064" lon="7.25615">
        <ele>547.47301616821</ele>
        <time>2021-07-07T15:10:45.581Z</time>
      </trkpt>
      <trkpt lat="48.65057" lon="7.25603">
        <ele>547.94206662927</ele>
        <time>2021-07-07T15:10:49.704Z</time>
      </trkpt>
      <trkpt lat="48.65043" lon="7.25584">
        <ele>548.26596756529</ele>
        <time>2021-07-07T15:10:53.834Z</time>
      </trkpt>
      <trkpt lat="48.65038" lon="7.25581">
        <ele>548.5171597781</ele>
        <time>2021-07-07T15:10:57.965Z</time>
      </trkpt>
      <trkpt lat="48.65035" lon="7.25576">
        <ele>548.66120308398</ele>
        <time>2021-07-07T15:11:02.098Z</time>
      </trkpt>
      <trkpt lat="48.65025" lon="7.25558">
        <ele>548.69548811349</ele>
        <time>2021-07-07T15:11:06.236Z</time>
      </trkpt>
      <trkpt lat="48.65009" lon="7.25547">
        <ele>548.75906638907</ele>
        <time>2021-07-07T15:11:10.380Z</time>
      </trkpt>
      <trkpt lat="48.64995" lon="7.25533">
        <ele>548.73155026586</ele>
        <time>2021-07-07T15:11:14.529Z</time>
      </trkpt>
      <trkpt lat="48.64995" lon="7.25533">
        <ele>548.62807267882</ele>
        <time>2021-07-07T15:11:18.678Z</time>
      </trkpt>
      <trkpt lat="48.64995" lon="7.25533">
        <ele>548.48616455798</ele>
        <time>2021-07-07T15:11:22.827Z</time>
      </trkpt>
      <trkpt lat="48.64988" lon="7.25526">
        <ele>548.3326969797</ele>
        <time>2021-07-07T15:11:26.979Z</time>
      </trkpt>
      <trkpt lat="48.64987" lon="7.25525">
        <ele>548.1576200405</ele>
        <time>2021-07-07T15:11:31.132Z</time>
      </trkpt>
      <trkpt lat="48.64984" lon="7.25521">
        <ele>547.98687537277</ele>
        <time>2021-07-07T15:11:35.286Z</time>
      </trkpt>
      <trkpt lat="48.64968" lon="7.25494">
        <ele>547.87899400834</ele>
        <time>2021-07-07T15:11:39.448Z</time>
      </trkpt>
      <trkpt lat="48.6496" lon="7.25477">
        <ele>547.77413850974</ele>
        <time>2021-07-07T15:11:43.615Z</time>
      </trkpt>
      <trkpt lat="48.64942" lon="7.2543">
        <ele>547.70284371697</ele>
        <time>2021-07-07T15:11:47.794Z</time>
      </trkpt>
      <trkpt lat="48.64925" lon="7.25374">
        <ele>547.6814789053</ele>
        <time>2021-07-07T15:11:51.986Z</time>
      </trkpt>
      <trkpt lat="48.6492" lon="7.25349">
        <ele>547.82669498091</ele>
        <time>2021-07-07T15:11:56.184Z</time>
      </trkpt>
      <trkpt lat="48.64918" lon="7.25362">
        <ele>548.16173066765</ele>
        <time>2021-07-07T15:12:00.385Z</time>
      </trkpt>
      <trkpt lat="48.64917" lon="7.25375">
        <ele>548.65145022392</ele>
        <time>2021-07-07T15:12:04.589Z</time>
      </trkpt>
      <trkpt lat="48.64904" lon="7.2536">
        <ele>549.30894110635</ele>
        <time>2021-07-07T15:12:08.798Z</time>
      </trkpt>
      <trkpt lat="48.64898" lon="7.25354">
        <ele>550.09020707226</ele>
        <time>2021-07-07T15:12:13.010Z</time>
      </trkpt>
      <trkpt lat="48.6489" lon="7.25346">
        <ele>551.02593445442</ele>
        <time>2021-07-07T15:12:17.225Z</time>
      </trkpt>
      <trkpt lat="48.64863" lon="7.25317">
        <ele>552.21482558154</ele>
        <time>2021-07-07T15:12:21.451Z</time>
      </trkpt>
      <trkpt lat="48.64852" lon="7.25308">
        <ele>553.45440105349</ele>
        <time>2021-07-07T15:12:25.681Z</time>
      </trkpt>
      <trkpt lat="48.64831" lon="7.25289">
        <ele>554.79986305368</ele>
        <time>2021-07-07T15:12:29.919Z</time>
      </trkpt>
      <trkpt lat="48.64822" lon="7.25282">
        <ele>555.96231743474</ele>
        <time>2021-07-07T15:12:34.161Z</time>
      </trkpt>
      <trkpt lat="48.64816" lon="7.25272">
        <ele>557.09786583682</ele>
        <time>2021-07-07T15:12:38.406Z</time>
      </trkpt>
      <trkpt lat="48.64808" lon="7.25252">
        <ele>558.16044479239</ele>
        <time>2021-07-07T15:12:42.656Z</time>
      </trkpt>
      <trkpt lat="48.64798" lon="7.25224">
        <ele>559.27178655239</ele>
        <time>2021-07-07T15:12:46.913Z</time>
      </trkpt>
      <trkpt lat="48.64797" lon="7.25218">
        <ele>560.45843710816</ele>
        <time>2021-07-07T15:12:51.171Z</time>
      </trkpt>
      <trkpt lat="48.64789" lon="7.2519">
        <ele>561.72988206181</ele>
        <time>2021-07-07T15:12:55.436Z</time>
      </trkpt>
      <trkpt lat="48.64778" lon="7.25151">
        <ele>563.22076529609</ele>
        <time>2021-07-07T15:12:59.710Z</time>
      </trkpt>
      <trkpt lat="48.64766" lon="7.25089">
        <ele>564.83382609783</ele>
        <time>2021-07-07T15:13:03.999Z</time>
      </trkpt>
      <trkpt lat="48.64752" lon="7.25027">
        <ele>566.82638472973</ele>
        <time>2021-07-07T15:13:08.302Z</time>
      </trkpt>
      <trkpt lat="48.64742" lon="7.2498">
        <ele>568.87027754747</ele>
        <time>2021-07-07T15:13:12.616Z</time>
      </trkpt>
      <trkpt lat="48.64737" lon="7.24959">
        <ele>570.7943378801</ele>
        <time>2021-07-07T15:13:16.935Z</time>
      </trkpt>
      <trkpt lat="48.64728" lon="7.24936">
        <ele>572.76458282599</ele>
        <time>2021-07-07T15:13:21.260Z</time>
      </trkpt>
      <trkpt lat="48.64721" lon="7.24921">
        <ele>574.74861227277</ele>
        <time>2021-07-07T15:13:25.589Z</time>
      </trkpt>
      <trkpt lat="48.64712" lon="7.24906">
        <ele>576.7910171603</ele>
        <time>2021-07-07T15:13:29.922Z</time>
      </trkpt>
      <trkpt lat="48.6472" lon="7.2493">
        <ele>578.86888985457</ele>
        <time>2021-07-07T15:13:34.261Z</time>
      </trkpt>
      <trkpt lat="48.64723" lon="7.2495">
        <ele>580.9444081409</ele>
        <time>2021-07-07T15:13:38.605Z</time>
      </trkpt>
      <trkpt lat="48.64719" lon="7.24952">
        <ele>583.05362482648</ele>
        <time>2021-07-07T15:13:42.950Z</time>
      </trkpt>
      <trkpt lat="48.64692" lon="7.24956">
        <ele>585.38445686208</ele>
        <time>2021-07-07T15:13:47.304Z</time>
      </trkpt>
      <trkpt lat="48.64647" lon="7.24986">
        <ele>588.04740364233</ele>
        <time>2021-07-07T15:13:51.675Z</time>
      </trkpt>
      <trkpt lat="48.64618" lon="7.2493">
        <ele>589.60070534701</ele>
        <time>2021-07-07T15:13:56.061Z</time>
      </trkpt>
      <trkpt lat="48.64566" lon="7.24913">
        <ele>591.18919799553</ele>
        <time>2021-07-07T15:14:00.465Z</time>
      </trkpt>
      <trkpt lat="48.64501" lon="7.2493">
        <ele>592.51752781292</ele>
        <time>2021-07-07T15:14:04.891Z</time>
      </trkpt>
      <trkpt lat="48.64447" lon="7.24967">
        <ele>593.74529836344</ele>
        <time>2021-07-07T15:14:09.337Z</time>
      </trkpt>
      <trkpt lat="48.64424" lon="7.25012">
        <ele>594.44350943385</ele>
        <time>2021-07-07T15:14:13.796Z</time>
      </trkpt>
      <trkpt lat="48.64367" lon="7.25005">
        <ele>594.46207789026</ele>
        <time>2021-07-07T15:14:18.274Z</time>
      </trkpt>
      <trkpt lat="48.64326" lon="7.25025">
        <ele>594.56135315098</ele>
        <time>2021-07-07T15:14:22.766Z</time>
      </trkpt>
      <trkpt lat="48.64325" lon="7.25028">
        <ele>594.96984002306</ele>
        <time>2021-07-07T15:14:27.259Z</time>
      </trkpt>
      <trkpt lat="48.6432" lon="7.25034">
        <ele>595.48631973494</ele>
        <time>2021-07-07T15:14:31.754Z</time>
      </trkpt>
      <trkpt lat="48.64298" lon="7.25043">
        <ele>596.30862271882</ele>
        <time>2021-07-07T15:14:36.256Z</time>
      </trkpt>
      <trkpt lat="48.64284" lon="7.25028">
        <ele>597.38935746792</ele>
        <time>2021-07-07T15:14:40.764Z</time>
      </trkpt>
      <trkpt lat="48.64281" lon="7.25015">
        <ele>598.57706466881</ele>
        <time>2021-07-07T15:14:45.275Z</time>
      </trkpt>
      <trkpt lat="48.64281" lon="7.25014">
        <ele>599.93653300598</ele>
        <time>2021-07-07T15:14:49.786Z</time>
      </trkpt>
      <trkpt lat="48.64274" lon="7.24987">
        <ele>601.68279434872</ele>
        <time>2021-07-07T15:14:54.304Z</time>
      </trkpt>
      <trkpt lat="48.64265" lon="7.24962">
        <ele>603.65259094038</ele>
        <time>2021-07-07T15:14:58.828Z</time>
      </trkpt>
      <trkpt lat="48.64257" lon="7.2494">
        <ele>605.59518862807</ele>
        <time>2021-07-07T15:15:03.358Z</time>
      </trkpt>
      <trkpt lat="48.64246" lon="7.24917">
        <ele>607.45069116881</ele>
        <time>2021-07-07T15:15:07.894Z</time>
      </trkpt>
      <trkpt lat="48.64233" lon="7.24892">
        <ele>609.13842556229</ele>
        <time>2021-07-07T15:15:12.437Z</time>
      </trkpt>
      <trkpt lat="48.64207" lon="7.24855">
        <ele>610.51408563902</ele>
        <time>2021-07-07T15:15:16.992Z</time>
      </trkpt>
      <trkpt lat="48.64188" lon="7.24826">
        <ele>611.7174715399</ele>
        <time>2021-07-07T15:15:21.556Z</time>
      </trkpt>
      <trkpt lat="48.64182" lon="7.24813">
        <ele>612.68171369484</ele>
        <time>2021-07-07T15:15:26.123Z</time>
      </trkpt>
      <trkpt lat="48.64171" lon="7.24796">
        <ele>613.45930800361</ele>
        <time>2021-07-07T15:15:30.696Z</time>
      </trkpt>
      <trkpt lat="48.6416" lon="7.24781">
        <ele>614.01105193865</ele>
        <time>2021-07-07T15:15:35.274Z</time>
      </trkpt>
      <trkpt lat="48.6415" lon="7.2477">
        <ele>614.45171833214</ele>
        <time>2021-07-07T15:15:39.856Z</time>
      </trkpt>
      <trkpt lat="48.64144" lon="7.24764">
        <ele>614.83416179128</ele>
        <time>2021-07-07T15:15:44.440Z</time>
      </trkpt>
      <trkpt lat="48.64123" lon="7.24755">
        <ele>615.22345036038</ele>
        <time>2021-07-07T15:15:49.031Z</time>
      </trkpt>
      <trkpt lat="48.64095" lon="7.2474">
        <ele>615.61156086952</ele>
        <time>2021-07-07T15:15:53.632Z</time>
      </trkpt>
      <trkpt lat="48.64078" lon="7.24735">
        <ele>615.98760259958</ele>
        <time>2021-07-07T15:15:58.239Z</time>
      </trkpt>
      <trkpt lat="48.64065" lon="7.24736">
        <ele>616.45838943108</ele>
        <time>2021-07-07T15:16:02.850Z</time>
      </trkpt>
      <trkpt lat="48.64056" lon="7.24739">
        <ele>616.96686401508</ele>
        <time>2021-07-07T15:16:07.465Z</time>
      </trkpt>
      <trkpt lat="48.64031" lon="7.24752">
        <ele>617.66352173495</ele>
        <time>2021-07-07T15:16:12.088Z</time>
      </trkpt>
      <trkpt lat="48.64002" lon="7.24769">
        <ele>618.23919204606</ele>
        <time>2021-07-07T15:16:16.722Z</time>
      </trkpt>
      <trkpt lat="48.63976" lon="7.24791">
        <ele>618.91167417913</ele>
        <time>2021-07-07T15:16:21.366Z</time>
      </trkpt>
      <trkpt lat="48.63945" lon="7.24826">
        <ele>619.75493169618</ele>
        <time>2021-07-07T15:16:26.023Z</time>
      </trkpt>
      <trkpt lat="48.63945" lon="7.24824">
        <ele>620.698695702</ele>
        <time>2021-07-07T15:16:30.680Z</time>
      </trkpt>
      <trkpt lat="48.63945" lon="7.24826">
        <ele>619.75493169618</ele>
        <time>2021-07-07T15:16:35.338Z</time>
      </trkpt>
      <trkpt lat="48.63935" lon="7.24892">
        <ele>623.35936163004</ele>
        <time>2021-07-07T15:16:40.010Z</time>
      </trkpt>
      <trkpt lat="48.63932" lon="7.24918">
        <ele>624.81523226638</ele>
        <time>2021-07-07T15:16:44.688Z</time>
      </trkpt>
      <trkpt lat="48.63929" lon="7.24939">
        <ele>626.36993034709</ele>
        <time>2021-07-07T15:16:49.371Z</time>
      </trkpt>
      <trkpt lat="48.63924" lon="7.24961">
        <ele>628.04441851466</ele>
        <time>2021-07-07T15:16:54.059Z</time>
      </trkpt>
      <trkpt lat="48.63909" lon="7.24999">
        <ele>629.83275120623</ele>
        <time>2021-07-07T15:16:58.757Z</time>
      </trkpt>
      <trkpt lat="48.63881" lon="7.25058">
        <ele>631.86076689697</ele>
        <time>2021-07-07T15:17:03.471Z</time>
      </trkpt>
      <trkpt lat="48.63857" lon="7.25103">
        <ele>633.86960508702</ele>
        <time>2021-07-07T15:17:08.198Z</time>
      </trkpt>
      <trkpt lat="48.63827" lon="7.25142">
        <ele>635.84072539479</ele>
        <time>2021-07-07T15:17:12.938Z</time>
      </trkpt>
      <trkpt lat="48.63802" lon="7.25186">
        <ele>637.85332270901</ele>
        <time>2021-07-07T15:17:17.691Z</time>
      </trkpt>
      <trkpt lat="48.63771" lon="7.25248">
        <ele>639.91269117866</ele>
        <time>2021-07-07T15:17:22.461Z</time>
      </trkpt>
      <trkpt lat="48.63746" lon="7.25311">
        <ele>641.52726768111</ele>
        <time>2021-07-07T15:17:27.247Z</time>
      </trkpt>
      <trkpt lat="48.63692" lon="7.25452">
        <ele>643.63322225079</ele>
        <time>2021-07-07T15:17:32.069Z</time>
      </trkpt>
      <trkpt lat="48.6368" lon="7.25489">
        <ele>645.23292489778</ele>
        <time>2021-07-07T15:17:36.900Z</time>
      </trkpt>
      <trkpt lat="48.63666" lon="7.25532">
        <ele>646.7435928453</ele>
        <time>2021-07-07T15:17:41.742Z</time>
      </trkpt>
      <trkpt lat="48.63658" lon="7.25559">
        <ele>648.11777206565</ele>
        <time>2021-07-07T15:17:46.590Z</time>
      </trkpt>
      <trkpt lat="48.63659" lon="7.25554">
        <ele>649.36513293933</ele>
        <time>2021-07-07T15:17:51.440Z</time>
      </trkpt>
      <trkpt lat="48.63655" lon="7.25566">
        <ele>650.52876216264</ele>
        <time>2021-07-07T15:17:56.293Z</time>
      </trkpt>
      <trkpt lat="48.63649" lon="7.25591">
        <ele>651.68545945664</ele>
        <time>2021-07-07T15:18:01.151Z</time>
      </trkpt>
      <trkpt lat="48.63622" lon="7.25699">
        <ele>652.89007659016</ele>
        <time>2021-07-07T15:18:06.035Z</time>
      </trkpt>
      <trkpt lat="48.63595" lon="7.25813">
        <ele>653.94752560381</ele>
        <time>2021-07-07T15:18:10.946Z</time>
      </trkpt>
      <trkpt lat="48.63591" lon="7.25832">
        <ele>654.94547435239</ele>
        <time>2021-07-07T15:18:15.861Z</time>
      </trkpt>
      <trkpt lat="48.63557" lon="7.25881">
        <ele>656.26654738493</ele>
        <time>2021-07-07T15:18:20.792Z</time>
      </trkpt>
      <trkpt lat="48.6355" lon="7.25889">
        <ele>657.17483779768</ele>
        <time>2021-07-07T15:18:25.726Z</time>
      </trkpt>
      <trkpt lat="48.63545" lon="7.25899">
        <ele>658.06248498921</ele>
        <time>2021-07-07T15:18:30.663Z</time>
      </trkpt>
      <trkpt lat="48.63541" lon="7.25911">
        <ele>659.01153027033</ele>
        <time>2021-07-07T15:18:35.603Z</time>
      </trkpt>
      <trkpt lat="48.63533" lon="7.25943">
        <ele>659.99718225229</ele>
        <time>2021-07-07T15:18:40.550Z</time>
      </trkpt>
      <trkpt lat="48.63533" lon="7.25949">
        <ele>660.88054815651</ele>
        <time>2021-07-07T15:18:45.498Z</time>
      </trkpt>
      <trkpt lat="48.63532" lon="7.25954">
        <ele>661.76800035322</ele>
        <time>2021-07-07T15:18:50.448Z</time>
      </trkpt>
      <trkpt lat="48.6353" lon="7.25968">
        <ele>662.71715966472</ele>
        <time>2021-07-07T15:18:55.401Z</time>
      </trkpt>
      <trkpt lat="48.63523" lon="7.25968">
        <ele>663.64596506235</ele>
        <time>2021-07-07T15:19:00.356Z</time>
      </trkpt>
      <trkpt lat="48.63509" lon="7.25968">
        <ele>664.64568390683</ele>
        <time>2021-07-07T15:19:05.316Z</time>
      </trkpt>
      <trkpt lat="48.63513" lon="7.25978">
        <ele>665.66729968239</ele>
        <time>2021-07-07T15:19:10.278Z</time>
      </trkpt>
      <trkpt lat="48.63506" lon="7.25981">
        <ele>666.71216824058</ele>
        <time>2021-07-07T15:19:15.243Z</time>
      </trkpt>
      <trkpt lat="48.63482" lon="7.25995">
        <ele>667.79711705908</ele>
        <time>2021-07-07T15:19:20.216Z</time>
      </trkpt>
      <trkpt lat="48.63472" lon="7.26003">
        <ele>668.99441050702</ele>
        <time>2021-07-07T15:19:25.193Z</time>
      </trkpt>
      <trkpt lat="48.63446" lon="7.26027">
        <ele>670.42781357978</ele>
        <time>2021-07-07T15:19:30.180Z</time>
      </trkpt>
      <trkpt lat="48.63424" lon="7.26042">
        <ele>671.88328568251</ele>
        <time>2021-07-07T15:19:35.175Z</time>
      </trkpt>
      <trkpt lat="48.63409" lon="7.2605">
        <ele>673.36452904347</ele>
        <time>2021-07-07T15:19:40.176Z</time>
      </trkpt>
      <trkpt lat="48.63398" lon="7.26054">
        <ele>674.90352462523</ele>
        <time>2021-07-07T15:19:45.180Z</time>
      </trkpt>
      <trkpt lat="48.63388" lon="7.26055">
        <ele>676.49895761665</ele>
        <time>2021-07-07T15:19:50.188Z</time>
      </trkpt>
      <trkpt lat="48.63378" lon="7.26056">
        <ele>678.1721142741</ele>
        <time>2021-07-07T15:19:55.199Z</time>
      </trkpt>
      <trkpt lat="48.6337" lon="7.26056">
        <ele>679.93208691702</ele>
        <time>2021-07-07T15:20:00.213Z</time>
      </trkpt>
      <trkpt lat="48.63338" lon="7.26055">
        <ele>681.90585683151</ele>
        <time>2021-07-07T15:20:05.237Z</time>
      </trkpt>
      <trkpt lat="48.63293" lon="7.26051">
        <ele>683.73782449279</ele>
        <time>2021-07-07T15:20:10.276Z</time>
      </trkpt>
      <trkpt lat="48.63218" lon="7.26034">
        <ele>685.99233520588</ele>
        <time>2021-07-07T15:20:15.341Z</time>
      </trkpt>
      <trkpt lat="48.6318" lon="7.26027">
        <ele>688.13860792126</ele>
        <time>2021-07-07T15:20:20.419Z</time>
      </trkpt>
      <trkpt lat="48.63162" lon="7.26027">
        <ele>690.01311268211</ele>
        <time>2021-07-07T15:20:25.503Z</time>
      </trkpt>
      <trkpt lat="48.63124" lon="7.26031">
        <ele>691.83942544323</ele>
        <time>2021-07-07T15:20:30.599Z</time>
      </trkpt>
      <trkpt lat="48.63102" lon="7.26035">
        <ele>693.36813479791</ele>
        <time>2021-07-07T15:20:35.703Z</time>
      </trkpt>
      <trkpt lat="48.63089" lon="7.26036">
        <ele>694.64438410082</ele>
        <time>2021-07-07T15:20:40.811Z</time>
      </trkpt>
      <trkpt lat="48.63077" lon="7.26039">
        <ele>695.64933874661</ele>
        <time>2021-07-07T15:20:45.923Z</time>
      </trkpt>
      <trkpt lat="48.63071" lon="7.26038">
        <ele>696.35681796963</ele>
        <time>2021-07-07T15:20:51.037Z</time>
      </trkpt>
      <trkpt lat="48.6306" lon="7.26042">
        <ele>696.76523452158</ele>
        <time>2021-07-07T15:20:56.155Z</time>
      </trkpt>
      <trkpt lat="48.63076" lon="7.26071">
        <ele>697.00404426813</ele>
        <time>2021-07-07T15:21:01.281Z</time>
      </trkpt>
      <trkpt lat="48.6308" lon="7.26105">
        <ele>696.93411130239</ele>
        <time>2021-07-07T15:21:06.415Z</time>
      </trkpt>
      <trkpt lat="48.63081" lon="7.26111">
        <ele>696.60322071508</ele>
        <time>2021-07-07T15:21:11.550Z</time>
      </trkpt>
      <trkpt lat="48.63084" lon="7.26131">
        <ele>696.01845722091</ele>
        <time>2021-07-07T15:21:16.690Z</time>
      </trkpt>
      <trkpt lat="48.63082" lon="7.26161">
        <ele>695.17345825141</ele>
        <time>2021-07-07T15:21:21.836Z</time>
      </trkpt>
      <trkpt lat="48.63082" lon="7.26178">
        <ele>694.14561234995</ele>
        <time>2021-07-07T15:21:26.986Z</time>
      </trkpt>
      <trkpt lat="48.63083" lon="7.26221">
        <ele>692.89407025559</ele>
        <time>2021-07-07T15:21:32.146Z</time>
      </trkpt>
      <trkpt lat="48.63084" lon="7.26235">
        <ele>691.48692925193</ele>
        <time>2021-07-07T15:21:37.309Z</time>
      </trkpt>
      <trkpt lat="48.63085" lon="7.26265">
        <ele>689.96331559591</ele>
        <time>2021-07-07T15:21:42.478Z</time>
      </trkpt>
      <trkpt lat="48.63088" lon="7.26321">
        <ele>688.14994136908</ele>
        <time>2021-07-07T15:21:47.660Z</time>
      </trkpt>
      <trkpt lat="48.63089" lon="7.26352">
        <ele>686.48392324092</ele>
        <time>2021-07-07T15:21:52.849Z</time>
      </trkpt>
      <trkpt lat="48.63089" lon="7.26352">
        <ele>684.87158745759</ele>
        <time>2021-07-07T15:21:58.038Z</time>
      </trkpt>
      <trkpt lat="48.63089" lon="7.26352">
        <ele>683.23185872319</ele>
        <time>2021-07-07T15:22:03.227Z</time>
      </trkpt>
      <trkpt lat="48.63087" lon="7.26387">
        <ele>681.48892901059</ele>
        <time>2021-07-07T15:22:08.424Z</time>
      </trkpt>
      <trkpt lat="48.63082" lon="7.26432">
        <ele>679.54949108048</ele>
        <time>2021-07-07T15:22:13.631Z</time>
      </trkpt>
      <trkpt lat="48.63081" lon="7.26481">
        <ele>677.63796750087</ele>
        <time>2021-07-07T15:22:18.848Z</time>
      </trkpt>
      <trkpt lat="48.63081" lon="7.26487">
        <ele>675.76803704465</ele>
        <time>2021-07-07T15:22:24.067Z</time>
      </trkpt>
      <trkpt lat="48.63079" lon="7.26503">
        <ele>673.76720200233</ele>
        <time>2021-07-07T15:22:29.289Z</time>
      </trkpt>
      <trkpt lat="48.63079" lon="7.26506">
        <ele>671.65188592574</ele>
        <time>2021-07-07T15:22:34.512Z</time>
      </trkpt>
      <trkpt lat="48.63076" lon="7.26531">
        <ele>669.30762262213</ele>
        <time>2021-07-07T15:22:39.741Z</time>
      </trkpt>
      <trkpt lat="48.63069" lon="7.26564">
        <ele>666.71500319265</ele>
        <time>2021-07-07T15:22:44.977Z</time>
      </trkpt>
      <trkpt lat="48.63065" lon="7.26583">
        <ele>663.88637607234</ele>
        <time>2021-07-07T15:22:50.218Z</time>
      </trkpt>
      <trkpt lat="48.63062" lon="7.26592">
        <ele>660.95659300522</ele>
        <time>2021-07-07T15:22:55.461Z</time>
      </trkpt>
      <trkpt lat="48.63055" lon="7.26615">
        <ele>657.71264193291</ele>
        <time>2021-07-07T15:23:00.710Z</time>
      </trkpt>
      <trkpt lat="48.6304" lon="7.26657">
        <ele>654.16195592092</ele>
        <time>2021-07-07T15:23:05.969Z</time>
      </trkpt>
      <trkpt lat="48.63031" lon="7.26685">
        <ele>650.60449039269</ele>
        <time>2021-07-07T15:23:11.235Z</time>
      </trkpt>
      <trkpt lat="48.63025" lon="7.26709">
        <ele>646.98963406826</ele>
        <time>2021-07-07T15:23:16.507Z</time>
      </trkpt>
      <trkpt lat="48.63022" lon="7.26716">
        <ele>643.70893877215</ele>
        <time>2021-07-07T15:23:21.780Z</time>
      </trkpt>
      <trkpt lat="48.63016" lon="7.26727">
        <ele>640.51914566928</ele>
        <time>2021-07-07T15:23:27.057Z</time>
      </trkpt>
      <trkpt lat="48.63013" lon="7.26734">
        <ele>637.52967123837</ele>
        <time>2021-07-07T15:23:32.335Z</time>
      </trkpt>
      <trkpt lat="48.63002" lon="7.26777">
        <ele>634.22151080331</ele>
        <time>2021-07-07T15:23:37.624Z</time>
      </trkpt>
      <trkpt lat="48.62998" lon="7.26786">
        <ele>631.65432236211</ele>
        <time>2021-07-07T15:23:42.915Z</time>
      </trkpt>
      <trkpt lat="48.62997" lon="7.26787">
        <ele>629.5168671022</ele>
        <time>2021-07-07T15:23:48.206Z</time>
      </trkpt>
      <trkpt lat="48.62996" lon="7.26789">
        <ele>627.65730601233</ele>
        <time>2021-07-07T15:23:53.498Z</time>
      </trkpt>
      <trkpt lat="48.62994" lon="7.26792">
        <ele>626.04045049525</ele>
        <time>2021-07-07T15:23:58.791Z</time>
      </trkpt>
      <trkpt lat="48.62988" lon="7.26796">
        <ele>624.61613926328</ele>
        <time>2021-07-07T15:24:04.086Z</time>
      </trkpt>
      <trkpt lat="48.6298" lon="7.26797">
        <ele>623.39552766237</ele>
        <time>2021-07-07T15:24:09.384Z</time>
      </trkpt>
      <trkpt lat="48.62964" lon="7.26796">
        <ele>622.27509037365</ele>
        <time>2021-07-07T15:24:14.687Z</time>
      </trkpt>
      <trkpt lat="48.62935" lon="7.2679">
        <ele>621.19536311647</ele>
        <time>2021-07-07T15:24:20.000Z</time>
      </trkpt>
      <trkpt lat="48.6293" lon="7.26789">
        <ele>619.92963075798</ele>
        <time>2021-07-07T15:24:25.315Z</time>
      </trkpt>
      <trkpt lat="48.6292" lon="7.2679">
        <ele>618.46718944436</ele>
        <time>2021-07-07T15:24:30.633Z</time>
      </trkpt>
      <trkpt lat="48.6292" lon="7.26807">
        <ele>616.63729733309</ele>
        <time>2021-07-07T15:24:35.955Z</time>
      </trkpt>
      <trkpt lat="48.62932" lon="7.26836">
        <ele>614.4648369644</ele>
        <time>2021-07-07T15:24:41.284Z</time>
      </trkpt>
      <trkpt lat="48.62941" lon="7.26863">
        <ele>612.22118130081</ele>
        <time>2021-07-07T15:24:46.620Z</time>
      </trkpt>
      <trkpt lat="48.62967" lon="7.26888">
        <ele>609.66256824657</ele>
        <time>2021-07-07T15:24:51.966Z</time>
      </trkpt>
      <trkpt lat="48.62986" lon="7.26911">
        <ele>606.92169522262</ele>
        <time>2021-07-07T15:24:57.320Z</time>
      </trkpt>
      <trkpt lat="48.62997" lon="7.2693">
        <ele>604.23882017351</ele>
        <time>2021-07-07T15:25:02.680Z</time>
      </trkpt>
      <trkpt lat="48.63005" lon="7.26948">
        <ele>601.59052781399</ele>
        <time>2021-07-07T15:25:08.045Z</time>
      </trkpt>
      <trkpt lat="48.63008" lon="7.26956">
        <ele>599.06510978765</ele>
        <time>2021-07-07T15:25:13.412Z</time>
      </trkpt>
      <trkpt lat="48.63011" lon="7.26967">
        <ele>596.58985905134</ele>
        <time>2021-07-07T15:25:18.781Z</time>
      </trkpt>
      <trkpt lat="48.63014" lon="7.26987">
        <ele>594.13012084225</ele>
        <time>2021-07-07T15:25:24.155Z</time>
      </trkpt>
      <trkpt lat="48.63017" lon="7.27009">
        <ele>591.75761637607</ele>
        <time>2021-07-07T15:25:29.534Z</time>
      </trkpt>
      <trkpt lat="48.63017" lon="7.2702">
        <ele>589.51799941583</ele>
        <time>2021-07-07T15:25:34.915Z</time>
      </trkpt>
      <trkpt lat="48.63017" lon="7.27032">
        <ele>587.27163811315</ele>
        <time>2021-07-07T15:25:40.299Z</time>
      </trkpt>
      <trkpt lat="48.63015" lon="7.27051">
        <ele>585.0765824061</ele>
        <time>2021-07-07T15:25:45.687Z</time>
      </trkpt>
      <trkpt lat="48.63013" lon="7.27061">
        <ele>582.89419238201</ele>
        <time>2021-07-07T15:25:51.078Z</time>
      </trkpt>
      <trkpt lat="48.63005" lon="7.27092">
        <ele>580.70391536401</ele>
        <time>2021-07-07T15:25:56.476Z</time>
      </trkpt>
      <trkpt lat="48.6299" lon="7.27133">
        <ele>578.25137375767</ele>
        <time>2021-07-07T15:26:01.884Z</time>
      </trkpt>
      <trkpt lat="48.62984" lon="7.27154">
        <ele>575.72789167972</ele>
        <time>2021-07-07T15:26:07.297Z</time>
      </trkpt>
      <trkpt lat="48.62966" lon="7.27228">
        <ele>572.90995485882</ele>
        <time>2021-07-07T15:26:12.728Z</time>
      </trkpt>
      <trkpt lat="48.62964" lon="7.27236">
        <ele>570.43591236352</ele>
        <time>2021-07-07T15:26:18.161Z</time>
      </trkpt>
      <trkpt lat="48.62962" lon="7.27259">
        <ele>567.84595635313</ele>
        <time>2021-07-07T15:26:23.599Z</time>
      </trkpt>
      <trkpt lat="48.62958" lon="7.27303">
        <ele>565.0730538949</ele>
        <time>2021-07-07T15:26:29.047Z</time>
      </trkpt>
      <trkpt lat="48.62958" lon="7.27306">
        <ele>562.79767373207</ele>
        <time>2021-07-07T15:26:34.495Z</time>
      </trkpt>
      <trkpt lat="48.62951" lon="7.27324">
        <ele>560.61070386903</ele>
        <time>2021-07-07T15:26:39.948Z</time>
      </trkpt>
      <trkpt lat="48.62945" lon="7.27336">
        <ele>558.59931166768</ele>
        <time>2021-07-07T15:26:45.404Z</time>
      </trkpt>
      <trkpt lat="48.62942" lon="7.2734">
        <ele>556.83599513242</ele>
        <time>2021-07-07T15:26:50.862Z</time>
      </trkpt>
      <trkpt lat="48.62936" lon="7.27349">
        <ele>555.22814943416</ele>
        <time>2021-07-07T15:26:56.322Z</time>
      </trkpt>
      <trkpt lat="48.62927" lon="7.27361">
        <ele>553.81476416765</ele>
        <time>2021-07-07T15:27:01.786Z</time>
      </trkpt>
      <trkpt lat="48.62908" lon="7.27382">
        <ele>552.50470687937</ele>
        <time>2021-07-07T15:27:07.258Z</time>
      </trkpt>
      <trkpt lat="48.629" lon="7.27393">
        <ele>551.30074223162</ele>
        <time>2021-07-07T15:27:12.734Z</time>
      </trkpt>
      <trkpt lat="48.62892" lon="7.27402">
        <ele>550.31092731276</ele>
        <time>2021-07-07T15:27:18.213Z</time>
      </trkpt>
      <trkpt lat="48.62884" lon="7.27413">
        <ele>549.29620262416</ele>
        <time>2021-07-07T15:27:23.696Z</time>
      </trkpt>
      <trkpt lat="48.6287" lon="7.27439">
        <ele>548.12432145948</ele>
        <time>2021-07-07T15:27:29.186Z</time>
      </trkpt>
      <trkpt lat="48.62864" lon="7.27454">
        <ele>547.20260846934</ele>
        <time>2021-07-07T15:27:34.680Z</time>
      </trkpt>
      <trkpt lat="48.62862" lon="7.2746">
        <ele>546.36182088395</ele>
        <time>2021-07-07T15:27:40.176Z</time>
      </trkpt>
      <trkpt lat="48.62861" lon="7.27466">
        <ele>545.47235198238</ele>
        <time>2021-07-07T15:27:45.673Z</time>
      </trkpt>
      <trkpt lat="48.62854" lon="7.27541">
        <ele>544.14138178349</ele>
        <time>2021-07-07T15:27:51.187Z</time>
      </trkpt>
      <trkpt lat="48.62854" lon="7.27544">
        <ele>543.0081679188</ele>
        <time>2021-07-07T15:27:56.701Z</time>
      </trkpt>
      <trkpt lat="48.62853" lon="7.27544">
        <ele>541.7540708972</ele>
        <time>2021-07-07T15:28:02.216Z</time>
      </trkpt>
      <trkpt lat="48.62833" lon="7.27574">
        <ele>540.44497909779</ele>
        <time>2021-07-07T15:28:07.740Z</time>
      </trkpt>
      <trkpt lat="48.62825" lon="7.2761">
        <ele>538.60685047194</ele>
        <time>2021-07-07T15:28:13.272Z</time>
      </trkpt>
      <trkpt lat="48.62815" lon="7.27645">
        <ele>536.35564863013</ele>
        <time>2021-07-07T15:28:18.813Z</time>
      </trkpt>
      <trkpt lat="48.62816" lon="7.27681">
        <ele>533.06722757145</ele>
        <time>2021-07-07T15:28:24.362Z</time>
      </trkpt>
      <trkpt lat="48.62818" lon="7.27679">
        <ele>529.87604010185</ele>
        <time>2021-07-07T15:28:29.912Z</time>
      </trkpt>
      <trkpt lat="48.62847" lon="7.2767">
        <ele>525.549621929</ele>
        <time>2021-07-07T15:28:35.472Z</time>
      </trkpt>
      <trkpt lat="48.62866" lon="7.27662">
        <ele>521.29910584519</ele>
        <time>2021-07-07T15:28:41.038Z</time>
      </trkpt>
      <trkpt lat="48.6289" lon="7.27651">
        <ele>517.2572839687</ele>
        <time>2021-07-07T15:28:46.612Z</time>
      </trkpt>
      <trkpt lat="48.62886" lon="7.27677">
        <ele>512.55588986639</ele>
        <time>2021-07-07T15:28:52.192Z</time>
      </trkpt>
      <trkpt lat="48.62884" lon="7.27707">
        <ele>507.59822452084</ele>
        <time>2021-07-07T15:28:57.779Z</time>
      </trkpt>
      <trkpt lat="48.62881" lon="7.27734">
        <ele>502.80300406326</ele>
        <time>2021-07-07T15:29:03.372Z</time>
      </trkpt>
      <trkpt lat="48.62879" lon="7.2774">
        <ele>497.96525339181</ele>
        <time>2021-07-07T15:29:08.967Z</time>
      </trkpt>
      <trkpt lat="48.62874" lon="7.27773">
        <ele>492.87236245943</ele>
        <time>2021-07-07T15:29:14.569Z</time>
      </trkpt>
      <trkpt lat="48.62873" lon="7.27792">
        <ele>487.87489213731</ele>
        <time>2021-07-07T15:29:20.175Z</time>
      </trkpt>
      <trkpt lat="48.62872" lon="7.27811">
        <ele>482.83883785103</ele>
        <time>2021-07-07T15:29:25.786Z</time>
      </trkpt>
      <trkpt lat="48.62874" lon="7.27861">
        <ele>477.60211452363</ele>
        <time>2021-07-07T15:29:31.408Z</time>
      </trkpt>
      <trkpt lat="48.62877" lon="7.2789">
        <ele>472.80837673312</ele>
        <time>2021-07-07T15:29:37.036Z</time>
      </trkpt>
      <trkpt lat="48.62879" lon="7.279">
        <ele>468.51211902525</ele>
        <time>2021-07-07T15:29:42.666Z</time>
      </trkpt>
      <trkpt lat="48.62883" lon="7.27921">
        <ele>464.51863838233</ele>
        <time>2021-07-07T15:29:48.301Z</time>
      </trkpt>
      <trkpt lat="48.62886" lon="7.27972">
        <ele>460.73875000432</ele>
        <time>2021-07-07T15:29:53.948Z</time>
      </trkpt>
      <trkpt lat="48.62892" lon="7.28004">
        <ele>457.40086414916</ele>
        <time>2021-07-07T15:29:59.602Z</time>
      </trkpt>
      <trkpt lat="48.62897" lon="7.28026">
        <ele>454.8857806783</ele>
        <time>2021-07-07T15:30:05.261Z</time>
      </trkpt>
      <trkpt lat="48.62898" lon="7.28031">
        <ele>453.35455984302</ele>
        <time>2021-07-07T15:30:10.921Z</time>
      </trkpt>
      <trkpt lat="48.62883" lon="7.28026">
        <ele>452.54536671579</ele>
        <time>2021-07-07T15:30:16.586Z</time>
      </trkpt>
      <trkpt lat="48.62872" lon="7.28053">
        <ele>452.66731669596</ele>
        <time>2021-07-07T15:30:22.258Z</time>
      </trkpt>
      <trkpt lat="48.62868" lon="7.28057">
        <ele>453.58582421392</ele>
        <time>2021-07-07T15:30:27.932Z</time>
      </trkpt>
      <trkpt lat="48.62866" lon="7.28062">
        <ele>455.19625782953</ele>
        <time>2021-07-07T15:30:33.607Z</time>
      </trkpt>
      <trkpt lat="48.62861" lon="7.28073">
        <ele>457.57682412707</ele>
        <time>2021-07-07T15:30:39.285Z</time>
      </trkpt>
      <trkpt lat="48.62861" lon="7.28093">
        <ele>460.49556234902</ele>
        <time>2021-07-07T15:30:44.968Z</time>
      </trkpt>
      <trkpt lat="48.62893" lon="7.28153">
        <ele>463.59976863727</ele>
        <time>2021-07-07T15:30:50.668Z</time>
      </trkpt>
      <trkpt lat="48.62916" lon="7.2821">
        <ele>466.90728667327</ele>
        <time>2021-07-07T15:30:56.382Z</time>
      </trkpt>
      <trkpt lat="48.62933" lon="7.28258">
        <ele>470.08296948968</ele>
        <time>2021-07-07T15:31:02.108Z</time>
      </trkpt>
      <trkpt lat="48.62942" lon="7.28272">
        <ele>473.03459348803</ele>
        <time>2021-07-07T15:31:07.839Z</time>
      </trkpt>
      <trkpt lat="48.62942" lon="7.28306">
        <ele>476.13663411157</ele>
        <time>2021-07-07T15:31:13.577Z</time>
      </trkpt>
      <trkpt lat="48.62961" lon="7.28358">
        <ele>478.7811795081</ele>
        <time>2021-07-07T15:31:19.328Z</time>
      </trkpt>
      <trkpt lat="48.62968" lon="7.28378">
        <ele>481.4458811026</ele>
        <time>2021-07-07T15:31:25.084Z</time>
      </trkpt>
      <trkpt lat="48.62975" lon="7.28412">
        <ele>483.97277123293</ele>
        <time>2021-07-07T15:31:30.848Z</time>
      </trkpt>
      <trkpt lat="48.62981" lon="7.28434">
        <ele>486.32672462301</ele>
        <time>2021-07-07T15:31:36.618Z</time>
      </trkpt>
      <trkpt lat="48.62988" lon="7.28485">
        <ele>488.86282848625</ele>
        <time>2021-07-07T15:31:42.399Z</time>
      </trkpt>
      <trkpt lat="48.62994" lon="7.28606">
        <ele>491.38962468279</ele>
        <time>2021-07-07T15:31:48.207Z</time>
      </trkpt>
      <trkpt lat="48.62994" lon="7.28683">
        <ele>493.56416825408</ele>
        <time>2021-07-07T15:31:54.032Z</time>
      </trkpt>
      <trkpt lat="48.62983" lon="7.28731">
        <ele>495.36775348916</ele>
        <time>2021-07-07T15:31:59.868Z</time>
      </trkpt>
      <trkpt lat="48.62997" lon="7.28749">
        <ele>496.53053331002</ele>
        <time>2021-07-07T15:32:05.710Z</time>
      </trkpt>
      <trkpt lat="48.63" lon="7.28754">
        <ele>497.86395062526</ele>
        <time>2021-07-07T15:32:11.554Z</time>
      </trkpt>
      <trkpt lat="48.63013" lon="7.28779">
        <ele>499.0995770841</ele>
        <time>2021-07-07T15:32:17.405Z</time>
      </trkpt>
      <trkpt lat="48.6302" lon="7.28802">
        <ele>500.55996064922</ele>
        <time>2021-07-07T15:32:23.261Z</time>
      </trkpt>
      <trkpt lat="48.63049" lon="7.28874">
        <ele>502.03290269466</ele>
        <time>2021-07-07T15:32:29.136Z</time>
      </trkpt>
      <trkpt lat="48.63068" lon="7.28927">
        <ele>503.4581009323</ele>
        <time>2021-07-07T15:32:35.024Z</time>
      </trkpt>
      <trkpt lat="48.63086" lon="7.29031">
        <ele>505.28998688253</ele>
        <time>2021-07-07T15:32:40.936Z</time>
      </trkpt>
      <trkpt lat="48.63093" lon="7.29153">
        <ele>507.05479847405</ele>
        <time>2021-07-07T15:32:46.875Z</time>
      </trkpt>
      <trkpt lat="48.63096" lon="7.29235">
        <ele>508.5850111389</ele>
        <time>2021-07-07T15:32:52.832Z</time>
      </trkpt>
      <trkpt lat="48.63093" lon="7.29307">
        <ele>509.99459238573</ele>
        <time>2021-07-07T15:32:58.805Z</time>
      </trkpt>
      <trkpt lat="48.63093" lon="7.2931">
        <ele>511.1167307151</ele>
        <time>2021-07-07T15:33:04.779Z</time>
      </trkpt>
      <trkpt lat="48.63091" lon="7.2937">
        <ele>512.19805700935</ele>
        <time>2021-07-07T15:33:10.766Z</time>
      </trkpt>
      <trkpt lat="48.63075" lon="7.2948">
        <ele>513.06681367727</ele>
        <time>2021-07-07T15:33:16.778Z</time>
      </trkpt>
      <trkpt lat="48.63057" lon="7.296">
        <ele>513.23045984509</ele>
        <time>2021-07-07T15:33:22.817Z</time>
      </trkpt>
      <trkpt lat="48.63048" lon="7.2964">
        <ele>513.95859271639</ele>
        <time>2021-07-07T15:33:28.866Z</time>
      </trkpt>
      <trkpt lat="48.63037" lon="7.297">
        <ele>514.47440226868</ele>
        <time>2021-07-07T15:33:34.928Z</time>
      </trkpt>
      <trkpt lat="48.63017" lon="7.29814">
        <ele>514.77882281036</ele>
        <time>2021-07-07T15:33:41.017Z</time>
      </trkpt>
      <trkpt lat="48.63009" lon="7.29857">
        <ele>514.6091357573</ele>
        <time>2021-07-07T15:33:47.115Z</time>
      </trkpt>
      <trkpt lat="48.63002" lon="7.29882">
        <ele>514.4335707526</ele>
        <time>2021-07-07T15:33:53.219Z</time>
      </trkpt>
      <trkpt lat="48.62994" lon="7.29901">
        <ele>514.13559106594</ele>
        <time>2021-07-07T15:33:59.328Z</time>
      </trkpt>
      <trkpt lat="48.62988" lon="7.2991">
        <ele>513.93643939596</ele>
        <time>2021-07-07T15:34:05.440Z</time>
      </trkpt>
      <trkpt lat="48.62986" lon="7.29912">
        <ele>513.77479563535</ele>
        <time>2021-07-07T15:34:11.553Z</time>
      </trkpt>
      <trkpt lat="48.62982" lon="7.29901">
        <ele>513.76311894544</ele>
        <time>2021-07-07T15:34:17.669Z</time>
      </trkpt>
      <trkpt lat="48.62976" lon="7.29906">
        <ele>513.5321634507</ele>
        <time>2021-07-07T15:34:23.787Z</time>
      </trkpt>
      <trkpt lat="48.62971" lon="7.29909">
        <ele>513.27110139542</ele>
        <time>2021-07-07T15:34:29.907Z</time>
      </trkpt>
      <trkpt lat="48.62966" lon="7.2991">
        <ele>513.05108507814</ele>
        <time>2021-07-07T15:34:36.029Z</time>
      </trkpt>
      <trkpt lat="48.6296" lon="7.2991">
        <ele>512.89806675728</ele>
        <time>2021-07-07T15:34:42.153Z</time>
      </trkpt>
      <trkpt lat="48.62951" lon="7.29908">
        <ele>512.83746889045</ele>
        <time>2021-07-07T15:34:48.280Z</time>
      </trkpt>
      <trkpt lat="48.62931" lon="7.29901">
        <ele>512.84428230479</ele>
        <time>2021-07-07T15:34:54.413Z</time>
      </trkpt>
      <trkpt lat="48.62901" lon="7.29891">
        <ele>512.85922940056</ele>
        <time>2021-07-07T15:35:00.557Z</time>
      </trkpt>
      <trkpt lat="48.62889" lon="7.29888">
        <ele>513.08776692747</ele>
        <time>2021-07-07T15:35:06.705Z</time>
      </trkpt>
      <trkpt lat="48.62869" lon="7.29879">
        <ele>513.59791228861</ele>
        <time>2021-07-07T15:35:12.860Z</time>
      </trkpt>
      <trkpt lat="48.62861" lon="7.29875">
        <ele>514.3985397716</ele>
        <time>2021-07-07T15:35:19.018Z</time>
      </trkpt>
      <trkpt lat="48.62836" lon="7.29858">
        <ele>515.55213566385</ele>
        <time>2021-07-07T15:35:25.185Z</time>
      </trkpt>
      <trkpt lat="48.62826" lon="7.29853">
        <ele>516.42856518111</ele>
        <time>2021-07-07T15:35:31.355Z</time>
      </trkpt>
      <trkpt lat="48.62819" lon="7.29851">
        <ele>517.12812905356</ele>
        <time>2021-07-07T15:35:37.528Z</time>
      </trkpt>
      <trkpt lat="48.6281" lon="7.2985">
        <ele>517.67204129909</ele>
        <time>2021-07-07T15:35:43.704Z</time>
      </trkpt>
      <trkpt lat="48.62791" lon="7.29849">
        <ele>517.99250123308</ele>
        <time>2021-07-07T15:35:49.886Z</time>
      </trkpt>
      <trkpt lat="48.62787" lon="7.29849">
        <ele>518.18003772679</ele>
        <time>2021-07-07T15:35:56.069Z</time>
      </trkpt>
      <trkpt lat="48.62784" lon="7.2985">
        <ele>518.11386104868</ele>
        <time>2021-07-07T15:36:02.253Z</time>
      </trkpt>
      <trkpt lat="48.62781" lon="7.29851">
        <ele>517.78647551924</ele>
        <time>2021-07-07T15:36:08.438Z</time>
      </trkpt>
      <trkpt lat="48.62776" lon="7.29854">
        <ele>517.13171729337</ele>
        <time>2021-07-07T15:36:14.625Z</time>
      </trkpt>
      <trkpt lat="48.62768" lon="7.29858">
        <ele>516.19743091903</ele>
        <time>2021-07-07T15:36:20.815Z</time>
      </trkpt>
      <trkpt lat="48.62758" lon="7.29866">
        <ele>515.01411480177</ele>
        <time>2021-07-07T15:36:27.009Z</time>
      </trkpt>
      <trkpt lat="48.62734" lon="7.29891">
        <ele>513.89774166584</ele>
        <time>2021-07-07T15:36:33.212Z</time>
      </trkpt>
      <trkpt lat="48.62718" lon="7.29907">
        <ele>513.53649928053</ele>
        <time>2021-07-07T15:36:39.422Z</time>
      </trkpt>
      <trkpt lat="48.62706" lon="7.29923">
        <ele>512.87430177054</ele>
        <time>2021-07-07T15:36:45.637Z</time>
      </trkpt>
    </trkseg>
  </trk>
  <trk>
    <name><![CDATA[UT53 Étape 7]]></name>
    <extensions>
      <line xmlns="http://www.topografix.com/GPX/gpx_style/0/2">
        <color>000088</color>
        <width>4</width>
      </line>
    </extensions>
    <trkseg>
      <trkpt lat="48.62308" lon="7.30371">
        <ele>492.32244151897</ele>
        <time>2021-06-15T18:26:57.000Z</time>
      </trkpt>
      <trkpt lat="48.62235" lon="7.30371">
        <ele>493.28608319096</ele>
        <time>2021-06-15T18:26:57.024Z</time>
      </trkpt>
      <trkpt lat="48.62204" lon="7.3035">
        <ele>497.46127188193</ele>
        <time>2021-06-15T18:26:57.060Z</time>
      </trkpt>
      <trkpt lat="48.62152" lon="7.30326">
        <ele>501.9032490525</ele>
        <time>2021-06-15T18:26:57.114Z</time>
      </trkpt>
      <trkpt lat="48.62118" lon="7.30284">
        <ele>507.77522632179</ele>
        <time>2021-06-15T18:26:57.182Z</time>
      </trkpt>
      <trkpt lat="48.62052" lon="7.30152">
        <ele>516.6901030251</ele>
        <time>2021-06-15T18:26:57.287Z</time>
      </trkpt>
      <trkpt lat="48.62016" lon="7.3006">
        <ele>525.92484586411</ele>
        <time>2021-06-15T18:26:57.416Z</time>
      </trkpt>
      <trkpt lat="48.62" lon="7.3">
        <ele>535.42238902151</ele>
        <time>2021-06-15T18:26:57.559Z</time>
      </trkpt>
      <trkpt lat="48.61971" lon="7.29944">
        <ele>545.03963121465</ele>
        <time>2021-06-15T18:26:57.718Z</time>
      </trkpt>
      <trkpt lat="48.61937" lon="7.29906">
        <ele>555.53608282882</ele>
        <time>2021-06-15T18:26:57.891Z</time>
      </trkpt>
      <trkpt lat="48.61887" lon="7.29892">
        <ele>566.48978235567</ele>
        <time>2021-06-15T18:26:58.081Z</time>
      </trkpt>
      <trkpt lat="48.61832" lon="7.29834">
        <ele>578.88303742733</ele>
        <time>2021-06-15T18:26:58.293Z</time>
      </trkpt>
      <trkpt lat="48.61785" lon="7.29764">
        <ele>592.16287585193</ele>
        <time>2021-06-15T18:26:58.527Z</time>
      </trkpt>
      <trkpt lat="48.61732" lon="7.29661">
        <ele>606.70129107443</ele>
        <time>2021-06-15T18:26:58.790Z</time>
      </trkpt>
      <trkpt lat="48.61686" lon="7.29528">
        <ele>622.41896834994</ele>
        <time>2021-06-15T18:26:59.086Z</time>
      </trkpt>
      <trkpt lat="48.61652" lon="7.29387">
        <ele>639.60608194531</ele>
        <time>2021-06-15T18:26:59.415Z</time>
      </trkpt>
      <trkpt lat="48.61609" lon="7.29262">
        <ele>658.11311122919</ele>
        <time>2021-06-15T18:26:59.776Z</time>
      </trkpt>
      <trkpt lat="48.61538" lon="7.29093">
        <ele>676.17682956488</ele>
        <time>2021-06-15T18:27:00.181Z</time>
      </trkpt>
      <trkpt lat="48.6149" lon="7.28941">
        <ele>696.41622477166</ele>
        <time>2021-06-15T18:27:00.623Z</time>
      </trkpt>
      <trkpt lat="48.6145" lon="7.2878">
        <ele>718.29835719814</ele>
        <time>2021-06-15T18:27:01.103Z</time>
      </trkpt>
      <trkpt lat="48.61414" lon="7.28683">
        <ele>739.09849123514</ele>
        <time>2021-06-15T18:27:01.608Z</time>
      </trkpt>
      <trkpt lat="48.61248" lon="7.2837">
        <ele>762.3224422104</ele>
        <time>2021-06-15T18:27:02.201Z</time>
      </trkpt>
      <trkpt lat="48.61178" lon="7.28287">
        <ele>783.29710223167</ele>
        <time>2021-06-15T18:27:02.824Z</time>
      </trkpt>
      <trkpt lat="48.60944" lon="7.28188">
        <ele>805.8961172714</ele>
        <time>2021-06-15T18:27:03.528Z</time>
      </trkpt>
      <trkpt lat="48.60816" lon="7.28175">
        <ele>826.09928201913</ele>
        <time>2021-06-15T18:27:04.275Z</time>
      </trkpt>
      <trkpt lat="48.60694" lon="7.28207">
        <ele>844.38789134245</ele>
        <time>2021-06-15T18:27:05.063Z</time>
      </trkpt>
      <trkpt lat="48.60587" lon="7.28254">
        <ele>860.89910724648</ele>
        <time>2021-06-15T18:27:05.888Z</time>
      </trkpt>
      <trkpt lat="48.60541" lon="7.28266">
        <ele>875.22686325642</ele>
        <time>2021-06-15T18:27:06.729Z</time>
      </trkpt>
      <trkpt lat="48.60521" lon="7.28317">
        <ele>887.50015405934</ele>
        <time>2021-06-15T18:27:07.583Z</time>
      </trkpt>
      <trkpt lat="48.60496" lon="7.28432">
        <ele>898.84783233448</ele>
        <time>2021-06-15T18:27:08.464Z</time>
      </trkpt>
      <trkpt lat="48.60491" lon="7.28593">
        <ele>915.9217583895</ele>
        <time>2021-06-15T18:27:09.381Z</time>
      </trkpt>
      <trkpt lat="48.60499" lon="7.28716">
        <ele>922.62946659154</ele>
        <time>2021-06-15T18:27:10.325Z</time>
      </trkpt>
      <trkpt lat="48.60495" lon="7.2877">
        <ele>927.92601241366</ele>
        <time>2021-06-15T18:27:11.281Z</time>
      </trkpt>
      <trkpt lat="48.6047" lon="7.28807">
        <ele>932.28579639564</ele>
        <time>2021-06-15T18:27:12.249Z</time>
      </trkpt>
      <trkpt lat="48.60352" lon="7.28811">
        <ele>937.84212965208</ele>
        <time>2021-06-15T18:27:13.256Z</time>
      </trkpt>
      <trkpt lat="48.60259" lon="7.2885">
        <ele>941.19396650222</ele>
        <time>2021-06-15T18:27:14.295Z</time>
      </trkpt>
      <trkpt lat="48.60201" lon="7.28863">
        <ele>944.29963777729</ele>
        <time>2021-06-15T18:27:15.354Z</time>
      </trkpt>
      <trkpt lat="48.60184" lon="7.28856">
        <ele>947.1588900368</ele>
        <time>2021-06-15T18:27:16.419Z</time>
      </trkpt>
      <trkpt lat="48.60139" lon="7.2887">
        <ele>949.0537450929</ele>
        <time>2021-06-15T18:27:17.499Z</time>
      </trkpt>
      <trkpt lat="48.60178" lon="7.28829">
        <ele>951.59104396512</ele>
        <time>2021-06-15T18:27:18.595Z</time>
      </trkpt>
      <trkpt lat="48.60129" lon="7.28811">
        <ele>953.10729440654</ele>
        <time>2021-06-15T18:27:19.707Z</time>
      </trkpt>
      <trkpt lat="48.60116" lon="7.28767">
        <ele>954.23222796623</ele>
        <time>2021-06-15T18:27:20.830Z</time>
      </trkpt>
      <trkpt lat="48.601" lon="7.28783">
        <ele>954.15262170012</ele>
        <time>2021-06-15T18:27:21.959Z</time>
      </trkpt>
      <trkpt lat="48.60091" lon="7.28768">
        <ele>953.93836572423</ele>
        <time>2021-06-15T18:27:23.093Z</time>
      </trkpt>
      <trkpt lat="48.60085" lon="7.28785">
        <ele>953.14500281551</ele>
        <time>2021-06-15T18:27:24.231Z</time>
      </trkpt>
      <trkpt lat="48.6006" lon="7.28791">
        <ele>951.71530990375</ele>
        <time>2021-06-15T18:27:25.377Z</time>
      </trkpt>
      <trkpt lat="48.60049" lon="7.28805">
        <ele>950.12048687085</ele>
        <time>2021-06-15T18:27:26.528Z</time>
      </trkpt>
      <trkpt lat="48.60021" lon="7.28783">
        <ele>948.04616935779</ele>
        <time>2021-06-15T18:27:27.690Z</time>
      </trkpt>
      <trkpt lat="48.5999" lon="7.2879">
        <ele>945.69748226178</ele>
        <time>2021-06-15T18:27:28.862Z</time>
      </trkpt>
      <trkpt lat="48.5992" lon="7.28836">
        <ele>942.95328226985</ele>
        <time>2021-06-15T18:27:30.060Z</time>
      </trkpt>
      <trkpt lat="48.59881" lon="7.28842">
        <ele>939.84376399989</ele>
        <time>2021-06-15T18:27:31.271Z</time>
      </trkpt>
      <trkpt lat="48.59829" lon="7.28824">
        <ele>936.4599116004</ele>
        <time>2021-06-15T18:27:32.500Z</time>
      </trkpt>
      <trkpt lat="48.59724" lon="7.28729">
        <ele>931.99506615057</ele>
        <time>2021-06-15T18:27:33.770Z</time>
      </trkpt>
      <trkpt lat="48.59578" lon="7.28584">
        <ele>927.47811940352</ele>
        <time>2021-06-15T18:27:35.098Z</time>
      </trkpt>
      <trkpt lat="48.59521" lon="7.28502">
        <ele>922.53548711045</ele>
        <time>2021-06-15T18:27:36.452Z</time>
      </trkpt>
      <trkpt lat="48.59435" lon="7.28355">
        <ele>917.26821172992</ele>
        <time>2021-06-15T18:27:37.850Z</time>
      </trkpt>
      <trkpt lat="48.5941" lon="7.28348">
        <ele>911.62467927996</ele>
        <time>2021-06-15T18:27:39.256Z</time>
      </trkpt>
      <trkpt lat="48.5938" lon="7.28365">
        <ele>904.87280611551</ele>
        <time>2021-06-15T18:27:40.673Z</time>
      </trkpt>
      <trkpt lat="48.59318" lon="7.28317">
        <ele>896.81268644416</ele>
        <time>2021-06-15T18:27:42.113Z</time>
      </trkpt>
      <trkpt lat="48.59299" lon="7.28277">
        <ele>888.96080052284</ele>
        <time>2021-06-15T18:27:43.564Z</time>
      </trkpt>
      <trkpt lat="48.59278" lon="7.28284">
        <ele>879.63631138522</ele>
        <time>2021-06-15T18:27:45.022Z</time>
      </trkpt>
      <trkpt lat="48.59232" lon="7.28249">
        <ele>869.74783249325</ele>
        <time>2021-06-15T18:27:46.497Z</time>
      </trkpt>
      <trkpt lat="48.59136" lon="7.28099">
        <ele>859.17710255279</ele>
        <time>2021-06-15T18:27:48.018Z</time>
      </trkpt>
      <trkpt lat="48.59037" lon="7.28055">
        <ele>846.80171604955</ele>
        <time>2021-06-15T18:27:49.574Z</time>
      </trkpt>
      <trkpt lat="48.58997" lon="7.28004">
        <ele>836.79003865068</ele>
        <time>2021-06-15T18:27:51.147Z</time>
      </trkpt>
      <trkpt lat="48.58946" lon="7.28021">
        <ele>824.97336757354</ele>
        <time>2021-06-15T18:27:52.738Z</time>
      </trkpt>
      <trkpt lat="48.5885" lon="7.28085">
        <ele>811.22274358885</ele>
        <time>2021-06-15T18:27:54.364Z</time>
      </trkpt>
      <trkpt lat="48.58757" lon="7.28124">
        <ele>798.63921332349</ele>
        <time>2021-06-15T18:27:56.022Z</time>
      </trkpt>
      <trkpt lat="48.58699" lon="7.28133">
        <ele>786.08070768146</ele>
        <time>2021-06-15T18:27:57.700Z</time>
      </trkpt>
      <trkpt lat="48.5868" lon="7.28126">
        <ele>774.38470332651</ele>
        <time>2021-06-15T18:27:59.384Z</time>
      </trkpt>
      <trkpt lat="48.58671" lon="7.28148">
        <ele>762.21239764068</ele>
        <time>2021-06-15T18:28:01.074Z</time>
      </trkpt>
      <trkpt lat="48.58593" lon="7.28198">
        <ele>747.82773492957</ele>
        <time>2021-06-15T18:28:02.792Z</time>
      </trkpt>
      <trkpt lat="48.58593" lon="7.28228">
        <ele>736.05812487992</ele>
        <time>2021-06-15T18:28:04.517Z</time>
      </trkpt>
      <trkpt lat="48.58618" lon="7.28269">
        <ele>724.85942745539</ele>
        <time>2021-06-15T18:28:06.254Z</time>
      </trkpt>
      <trkpt lat="48.58687" lon="7.28286">
        <ele>714.06707523851</ele>
        <time>2021-06-15T18:28:08.014Z</time>
      </trkpt>
      <trkpt lat="48.58773" lon="7.28348">
        <ele>701.57788209079</ele>
        <time>2021-06-15T18:28:09.806Z</time>
      </trkpt>
      <trkpt lat="48.58851" lon="7.28385">
        <ele>680.25814403753</ele>
        <time>2021-06-15T18:28:11.625Z</time>
      </trkpt>
      <trkpt lat="48.58878" lon="7.28443">
        <ele>668.84991363471</ele>
        <time>2021-06-15T18:28:13.460Z</time>
      </trkpt>
      <trkpt lat="48.58909" lon="7.28579">
        <ele>656.97765723829</ele>
        <time>2021-06-15T18:28:15.327Z</time>
      </trkpt>
      <trkpt lat="48.5891" lon="7.2863">
        <ele>647.26601662967</ele>
        <time>2021-06-15T18:28:17.205Z</time>
      </trkpt>
      <trkpt lat="48.58862" lon="7.28655">
        <ele>637.02425981533</ele>
        <time>2021-06-15T18:28:19.100Z</time>
      </trkpt>
      <trkpt lat="48.5882" lon="7.28624">
        <ele>627.38138918521</ele>
        <time>2021-06-15T18:28:21.011Z</time>
      </trkpt>
      <trkpt lat="48.58684" lon="7.28743">
        <ele>616.63442690387</ele>
        <time>2021-06-15T18:28:22.974Z</time>
      </trkpt>
      <trkpt lat="48.58653" lon="7.28825">
        <ele>608.05425037567</ele>
        <time>2021-06-15T18:28:24.958Z</time>
      </trkpt>
      <trkpt lat="48.58642" lon="7.28883">
        <ele>600.24816521912</ele>
        <time>2021-06-15T18:28:26.956Z</time>
      </trkpt>
      <trkpt lat="48.58497" lon="7.28882">
        <ele>591.33576906912</ele>
        <time>2021-06-15T18:28:29.002Z</time>
      </trkpt>
      <trkpt lat="48.58456" lon="7.28868">
        <ele>584.00125107997</ele>
        <time>2021-06-15T18:28:31.062Z</time>
      </trkpt>
      <trkpt lat="48.58422" lon="7.28883">
        <ele>577.6679683614</ele>
        <time>2021-06-15T18:28:33.134Z</time>
      </trkpt>
      <trkpt lat="48.5837" lon="7.28879">
        <ele>571.79718982525</ele>
        <time>2021-06-15T18:28:35.223Z</time>
      </trkpt>
      <trkpt lat="48.58319" lon="7.28903">
        <ele>566.31297670703</ele>
        <time>2021-06-15T18:28:37.330Z</time>
      </trkpt>
      <trkpt lat="48.58247" lon="7.28989">
        <ele>560.59176844116</ele>
        <time>2021-06-15T18:28:39.468Z</time>
      </trkpt>
      <trkpt lat="48.58189" lon="7.29005">
        <ele>555.58966068657</ele>
        <time>2021-06-15T18:28:41.625Z</time>
      </trkpt>
      <trkpt lat="48.58133" lon="7.29001">
        <ele>550.59669875208</ele>
        <time>2021-06-15T18:28:43.801Z</time>
      </trkpt>
      <trkpt lat="48.58123" lon="7.28978">
        <ele>546.31893791739</ele>
        <time>2021-06-15T18:28:45.983Z</time>
      </trkpt>
      <trkpt lat="48.58088" lon="7.2894">
        <ele>541.99637358014</ele>
        <time>2021-06-15T18:28:48.180Z</time>
      </trkpt>
      <trkpt lat="48.58095" lon="7.28865">
        <ele>538.08084476965</ele>
        <time>2021-06-15T18:28:50.393Z</time>
      </trkpt>
      <trkpt lat="48.5813" lon="7.28722">
        <ele>534.32412156195</ele>
        <time>2021-06-15T18:28:52.640Z</time>
      </trkpt>
      <trkpt lat="48.58141" lon="7.28633">
        <ele>531.00811998271</ele>
        <time>2021-06-15T18:28:54.907Z</time>
      </trkpt>
      <trkpt lat="48.5807" lon="7.28385">
        <ele>528.56831592709</ele>
        <time>2021-06-15T18:28:57.234Z</time>
      </trkpt>
      <trkpt lat="48.57964" lon="7.28332">
        <ele>524.12616504916</ele>
        <time>2021-06-15T18:28:59.598Z</time>
      </trkpt>
      <trkpt lat="48.57952" lon="7.28316">
        <ele>521.34081471049</ele>
        <time>2021-06-15T18:29:01.967Z</time>
      </trkpt>
      <trkpt lat="48.57941" lon="7.28281">
        <ele>518.95713467026</ele>
        <time>2021-06-15T18:29:04.345Z</time>
      </trkpt>
      <trkpt lat="48.57936" lon="7.28282">
        <ele>516.52515729552</ele>
        <time>2021-06-15T18:29:06.725Z</time>
      </trkpt>
      <trkpt lat="48.57935" lon="7.28255">
        <ele>514.80032577033</ele>
        <time>2021-06-15T18:29:09.111Z</time>
      </trkpt>
      <trkpt lat="48.57924" lon="7.28277">
        <ele>512.44454954333</ele>
        <time>2021-06-15T18:29:11.503Z</time>
      </trkpt>
      <trkpt lat="48.57909" lon="7.28289">
        <ele>510.10251287744</ele>
        <time>2021-06-15T18:29:13.901Z</time>
      </trkpt>
      <trkpt lat="48.579" lon="7.2833">
        <ele>507.86480686741</ele>
        <time>2021-06-15T18:29:16.308Z</time>
      </trkpt>
      <trkpt lat="48.57909" lon="7.28349">
        <ele>507.06930800041</ele>
        <time>2021-06-15T18:29:18.721Z</time>
      </trkpt>
      <trkpt lat="48.5793" lon="7.2836">
        <ele>507.4721434957</ele>
        <time>2021-06-15T18:29:21.141Z</time>
      </trkpt>
      <trkpt lat="48.57943" lon="7.28387">
        <ele>507.93287970607</ele>
        <time>2021-06-15T18:29:23.568Z</time>
      </trkpt>
      <trkpt lat="48.57989" lon="7.28437">
        <ele>509.89783900985</ele>
        <time>2021-06-15T18:29:26.014Z</time>
      </trkpt>
      <trkpt lat="48.58008" lon="7.28446">
        <ele>511.25674718273</ele>
        <time>2021-06-15T18:29:28.467Z</time>
      </trkpt>
      <trkpt lat="48.58009" lon="7.28469">
        <ele>512.417657618</ele>
        <time>2021-06-15T18:29:30.925Z</time>
      </trkpt>
      <trkpt lat="48.57931" lon="7.28479">
        <ele>512.64856537138</ele>
        <time>2021-06-15T18:29:33.409Z</time>
      </trkpt>
      <trkpt lat="48.57938" lon="7.28494">
        <ele>514.84928655908</ele>
        <time>2021-06-15T18:29:35.897Z</time>
      </trkpt>
      <trkpt lat="48.57926" lon="7.28518">
        <ele>517.22159895009</ele>
        <time>2021-06-15T18:29:38.392Z</time>
      </trkpt>
      <trkpt lat="48.57926" lon="7.28533">
        <ele>519.89400783749</ele>
        <time>2021-06-15T18:29:40.890Z</time>
      </trkpt>
      <trkpt lat="48.5791" lon="7.28547">
        <ele>522.55420424221</ele>
        <time>2021-06-15T18:29:43.394Z</time>
      </trkpt>
      <trkpt lat="48.57846" lon="7.28541">
        <ele>523.34762481975</ele>
        <time>2021-06-15T18:29:45.920Z</time>
      </trkpt>
      <trkpt lat="48.57829" lon="7.28578">
        <ele>526.07617677052</ele>
        <time>2021-06-15T18:29:48.456Z</time>
      </trkpt>
      <trkpt lat="48.57831" lon="7.28602">
        <ele>529.13687019146</ele>
        <time>2021-06-15T18:29:50.997Z</time>
      </trkpt>
      <trkpt lat="48.57821" lon="7.28663">
        <ele>533.05430837455</ele>
        <time>2021-06-15T18:29:53.552Z</time>
      </trkpt>
      <trkpt lat="48.57787" lon="7.28697">
        <ele>535.25192446782</ele>
        <time>2021-06-15T18:29:56.121Z</time>
      </trkpt>
      <trkpt lat="48.57736" lon="7.28719">
        <ele>536.47454127738</ele>
        <time>2021-06-15T18:29:58.708Z</time>
      </trkpt>
      <trkpt lat="48.57707" lon="7.2877">
        <ele>539.38024900985</ele>
        <time>2021-06-15T18:30:01.309Z</time>
      </trkpt>
      <trkpt lat="48.5766" lon="7.28795">
        <ele>539.95565268202</ele>
        <time>2021-06-15T18:30:03.927Z</time>
      </trkpt>
      <trkpt lat="48.57629" lon="7.28769">
        <ele>539.0428209382</ele>
        <time>2021-06-15T18:30:06.557Z</time>
      </trkpt>
      <trkpt lat="48.57559" lon="7.28754">
        <ele>537.39756160467</ele>
        <time>2021-06-15T18:30:09.210Z</time>
      </trkpt>
      <trkpt lat="48.57525" lon="7.2879">
        <ele>536.0577697901</ele>
        <time>2021-06-15T18:30:11.877Z</time>
      </trkpt>
      <trkpt lat="48.57483" lon="7.28811">
        <ele>532.83131272245</ele>
        <time>2021-06-15T18:30:14.559Z</time>
      </trkpt>
      <trkpt lat="48.57459" lon="7.28837">
        <ele>529.755493328</ele>
        <time>2021-06-15T18:30:17.251Z</time>
      </trkpt>
      <trkpt lat="48.57426" lon="7.28835">
        <ele>520.66524937834</ele>
        <time>2021-06-15T18:30:19.954Z</time>
      </trkpt>
      <trkpt lat="48.57403" lon="7.28854">
        <ele>515.117444935</ele>
        <time>2021-06-15T18:30:22.666Z</time>
      </trkpt>
      <trkpt lat="48.57425" lon="7.28812">
        <ele>509.29531581821</ele>
        <time>2021-06-15T18:30:25.390Z</time>
      </trkpt>
      <trkpt lat="48.57463" lon="7.28798">
        <ele>503.48475728179</ele>
        <time>2021-06-15T18:30:28.127Z</time>
      </trkpt>
      <trkpt lat="48.57489" lon="7.28755">
        <ele>495.88466393408</ele>
        <time>2021-06-15T18:30:30.877Z</time>
      </trkpt>
      <trkpt lat="48.57391" lon="7.28828">
        <ele>487.66835600071</ele>
        <time>2021-06-15T18:30:33.663Z</time>
      </trkpt>
      <trkpt lat="48.57368" lon="7.28906">
        <ele>479.36676710669</ele>
        <time>2021-06-15T18:30:36.468Z</time>
      </trkpt>
      <trkpt lat="48.57323" lon="7.28935">
        <ele>469.4392668744</ele>
        <time>2021-06-15T18:30:39.289Z</time>
      </trkpt>
      <trkpt lat="48.57266" lon="7.2895">
        <ele>459.898861048</ele>
        <time>2021-06-15T18:30:42.129Z</time>
      </trkpt>
      <trkpt lat="48.57228" lon="7.28987">
        <ele>449.55702659503</ele>
        <time>2021-06-15T18:30:44.984Z</time>
      </trkpt>
      <trkpt lat="48.57163" lon="7.2901">
        <ele>439.73327577618</ele>
        <time>2021-06-15T18:30:47.862Z</time>
      </trkpt>
      <trkpt lat="48.5711" lon="7.29045">
        <ele>429.62421555897</ele>
        <time>2021-06-15T18:30:50.759Z</time>
      </trkpt>
      <trkpt lat="48.57021" lon="7.29022">
        <ele>420.67519769163</ele>
        <time>2021-06-15T18:30:53.686Z</time>
      </trkpt>
      <trkpt lat="48.56963" lon="7.28989">
        <ele>411.99554747636</ele>
        <time>2021-06-15T18:30:56.634Z</time>
      </trkpt>
      <trkpt lat="48.56931" lon="7.29">
        <ele>403.87713153254</ele>
        <time>2021-06-15T18:30:59.593Z</time>
      </trkpt>
      <trkpt lat="48.56911" lon="7.28967">
        <ele>396.29818564077</ele>
        <time>2021-06-15T18:31:02.562Z</time>
      </trkpt>
      <trkpt lat="48.56905" lon="7.28873">
        <ele>388.59127703731</ele>
        <time>2021-06-15T18:31:05.552Z</time>
      </trkpt>
      <trkpt lat="48.56909" lon="7.28783">
        <ele>381.47077164679</ele>
        <time>2021-06-15T18:31:08.562Z</time>
      </trkpt>
      <trkpt lat="48.56926" lon="7.28728">
        <ele>375.30263561284</ele>
        <time>2021-06-15T18:31:11.585Z</time>
      </trkpt>
      <trkpt lat="48.56957" lon="7.28719">
        <ele>370.34137603882</ele>
        <time>2021-06-15T18:31:14.619Z</time>
      </trkpt>
      <trkpt lat="48.5697" lon="7.28637">
        <ele>364.59923995985</ele>
        <time>2021-06-15T18:31:17.671Z</time>
      </trkpt>
      <trkpt lat="48.5697" lon="7.28603">
        <ele>359.88440995892</ele>
        <time>2021-06-15T18:31:20.731Z</time>
      </trkpt>
      <trkpt lat="48.5696" lon="7.28585">
        <ele>356.17036863829</ele>
        <time>2021-06-15T18:31:23.796Z</time>
      </trkpt>
      <trkpt lat="48.56939" lon="7.28599">
        <ele>353.34867535614</ele>
        <time>2021-06-15T18:31:26.868Z</time>
      </trkpt>
      <trkpt lat="48.56913" lon="7.28639">
        <ele>351.40112403015</ele>
        <time>2021-06-15T18:31:29.953Z</time>
      </trkpt>
      <trkpt lat="48.56896" lon="7.28647">
        <ele>349.46456548509</ele>
        <time>2021-06-15T18:31:33.044Z</time>
      </trkpt>
      <trkpt lat="48.56773" lon="7.28845">
        <ele>347.54724796908</ele>
        <time>2021-06-15T18:31:36.195Z</time>
      </trkpt>
      <trkpt lat="48.56727" lon="7.28952">
        <ele>346.04215125367</ele>
        <time>2021-06-15T18:31:39.374Z</time>
      </trkpt>
      <trkpt lat="48.56709" lon="7.28935">
        <ele>345.40096199187</ele>
        <time>2021-06-15T18:31:42.560Z</time>
      </trkpt>
      <trkpt lat="48.56636" lon="7.29046">
        <ele>344.6574715521</ele>
        <time>2021-06-15T18:31:45.781Z</time>
      </trkpt>
      <trkpt lat="48.56592" lon="7.29175">
        <ele>343.02224709706</ele>
        <time>2021-06-15T18:31:49.034Z</time>
      </trkpt>
      <trkpt lat="48.56561" lon="7.29221">
        <ele>343.35639232628</ele>
        <time>2021-06-15T18:31:52.301Z</time>
      </trkpt>
      <trkpt lat="48.56523" lon="7.29338">
        <ele>342.79666236315</ele>
        <time>2021-06-15T18:31:55.597Z</time>
      </trkpt>
      <trkpt lat="48.56523" lon="7.29486">
        <ele>342.03747430094</ele>
        <time>2021-06-15T18:31:58.926Z</time>
      </trkpt>
      <trkpt lat="48.56491" lon="7.29624">
        <ele>343.2848230172</ele>
        <time>2021-06-15T18:32:02.287Z</time>
      </trkpt>
      <trkpt lat="48.56489" lon="7.29693">
        <ele>342.70498679617</ele>
        <time>2021-06-15T18:32:05.664Z</time>
      </trkpt>
      <trkpt lat="48.56494" lon="7.29749">
        <ele>341.62919872008</ele>
        <time>2021-06-15T18:32:09.053Z</time>
      </trkpt>
      <trkpt lat="48.56474" lon="7.29805">
        <ele>341.44233718889</ele>
        <time>2021-06-15T18:32:12.456Z</time>
      </trkpt>
      <trkpt lat="48.56428" lon="7.29901">
        <ele>341.5957167638</ele>
        <time>2021-06-15T18:32:15.885Z</time>
      </trkpt>
      <trkpt lat="48.564" lon="7.30018">
        <ele>342.20691894603</ele>
        <time>2021-06-15T18:32:19.342Z</time>
      </trkpt>
      <trkpt lat="48.56417" lon="7.30082">
        <ele>340.44094491453</ele>
        <time>2021-06-15T18:32:22.814Z</time>
      </trkpt>
      <trkpt lat="48.56424" lon="7.30171">
        <ele>339.53652822786</ele>
        <time>2021-06-15T18:32:26.306Z</time>
      </trkpt>
      <trkpt lat="48.56441" lon="7.30269">
        <ele>337.47462901303</ele>
        <time>2021-06-15T18:32:29.821Z</time>
      </trkpt>
      <trkpt lat="48.56454" lon="7.30331">
        <ele>335.37559374215</ele>
        <time>2021-06-15T18:32:33.350Z</time>
      </trkpt>
      <trkpt lat="48.56341" lon="7.30386">
        <ele>335.57444557584</ele>
        <time>2021-06-15T18:32:36.919Z</time>
      </trkpt>
      <trkpt lat="48.56298" lon="7.30435">
        <ele>331.83591518288</ele>
        <time>2021-06-15T18:32:40.506Z</time>
      </trkpt>
      <trkpt lat="48.56262" lon="7.30449">
        <ele>330.69586264616</ele>
        <time>2021-06-15T18:32:44.105Z</time>
      </trkpt>
      <trkpt lat="48.56209" lon="7.30489">
        <ele>329.90310634667</ele>
        <time>2021-06-15T18:32:47.724Z</time>
      </trkpt>
      <trkpt lat="48.56194" lon="7.3056">
        <ele>327.22718712912</ele>
        <time>2021-06-15T18:32:51.359Z</time>
      </trkpt>
      <trkpt lat="48.56142" lon="7.30599">
        <ele>326.10953553477</ele>
        <time>2021-06-15T18:32:55.014Z</time>
      </trkpt>
      <trkpt lat="48.56126" lon="7.30637">
        <ele>324.29072317604</ele>
        <time>2021-06-15T18:32:58.679Z</time>
      </trkpt>
      <trkpt lat="48.56104" lon="7.3064">
        <ele>323.27421455976</ele>
        <time>2021-06-15T18:33:02.351Z</time>
      </trkpt>
      <trkpt lat="48.56082" lon="7.30624">
        <ele>322.88398291499</ele>
        <time>2021-06-15T18:33:06.032Z</time>
      </trkpt>
      <trkpt lat="48.56002" lon="7.30705">
        <ele>321.29577414122</ele>
        <time>2021-06-15T18:33:09.745Z</time>
      </trkpt>
      <trkpt lat="48.55951" lon="7.30736">
        <ele>319.98593690004</ele>
        <time>2021-06-15T18:33:13.476Z</time>
      </trkpt>
      <trkpt lat="48.55954" lon="7.30778">
        <ele>319.11050508836</ele>
        <time>2021-06-15T18:33:17.216Z</time>
      </trkpt>
      <trkpt lat="48.55919" lon="7.30764">
        <ele>319.23887861057</ele>
        <time>2021-06-15T18:33:20.968Z</time>
      </trkpt>
      <trkpt lat="48.55881" lon="7.30795">
        <ele>319.51069876942</ele>
        <time>2021-06-15T18:33:24.735Z</time>
      </trkpt>
      <trkpt lat="48.55819" lon="7.30806">
        <ele>320.28457307055</ele>
        <time>2021-06-15T18:33:28.522Z</time>
      </trkpt>
      <trkpt lat="48.55776" lon="7.30847">
        <ele>319.61343552183</ele>
        <time>2021-06-15T18:33:32.326Z</time>
      </trkpt>
      <trkpt lat="48.55706" lon="7.30945">
        <ele>319.37939199003</ele>
        <time>2021-06-15T18:33:36.162Z</time>
      </trkpt>
      <trkpt lat="48.5562" lon="7.31036">
        <ele>319.18853619561</ele>
        <time>2021-06-15T18:33:40.033Z</time>
      </trkpt>
      <trkpt lat="48.55598" lon="7.31069">
        <ele>318.43070534546</ele>
        <time>2021-06-15T18:33:43.915Z</time>
      </trkpt>
      <trkpt lat="48.55551" lon="7.31048">
        <ele>319.30555778931</ele>
        <time>2021-06-15T18:33:47.813Z</time>
      </trkpt>
      <trkpt lat="48.55541" lon="7.31061">
        <ele>318.430386812</ele>
        <time>2021-06-15T18:33:51.715Z</time>
      </trkpt>
      <trkpt lat="48.55534" lon="7.3112">
        <ele>316.58445293641</ele>
        <time>2021-06-15T18:33:55.630Z</time>
      </trkpt>
      <trkpt lat="48.55493" lon="7.31168">
        <ele>315.35672921481</ele>
        <time>2021-06-15T18:33:59.563Z</time>
      </trkpt>
      <trkpt lat="48.55415" lon="7.31228">
        <ele>313.93008774455</ele>
        <time>2021-06-15T18:34:03.525Z</time>
      </trkpt>
      <trkpt lat="48.55244" lon="7.31434">
        <ele>313.06748137818</ele>
        <time>2021-06-15T18:34:07.560Z</time>
      </trkpt>
      <trkpt lat="48.5502" lon="7.31741">
        <ele>308.61367266477</ele>
        <time>2021-06-15T18:34:11.696Z</time>
      </trkpt>
      <trkpt lat="48.54962" lon="7.3179">
        <ele>306.53094346427</ele>
        <time>2021-06-15T18:34:15.854Z</time>
      </trkpt>
      <trkpt lat="48.5496" lon="7.31812">
        <ele>304.57507031574</ele>
        <time>2021-06-15T18:34:20.017Z</time>
      </trkpt>
      <trkpt lat="48.54952" lon="7.31856">
        <ele>302.46985390631</ele>
        <time>2021-06-15T18:34:24.190Z</time>
      </trkpt>
      <trkpt lat="48.5496" lon="7.31918">
        <ele>300.27790408199</ele>
        <time>2021-06-15T18:34:28.377Z</time>
      </trkpt>
      <trkpt lat="48.54989" lon="7.31967">
        <ele>298.68740945882</ele>
        <time>2021-06-15T18:34:32.579Z</time>
      </trkpt>
      <trkpt lat="48.54986" lon="7.32005">
        <ele>297.67762166515</ele>
        <time>2021-06-15T18:34:36.789Z</time>
      </trkpt>
      <trkpt lat="48.54957" lon="7.31946">
        <ele>297.28438314965</ele>
        <time>2021-06-15T18:34:41.015Z</time>
      </trkpt>
      <trkpt lat="48.54924" lon="7.31953">
        <ele>297.08018919545</ele>
        <time>2021-06-15T18:34:45.253Z</time>
      </trkpt>
      <trkpt lat="48.54905" lon="7.31982">
        <ele>297.15721951142</ele>
        <time>2021-06-15T18:34:49.500Z</time>
      </trkpt>
      <trkpt lat="48.5483" lon="7.31981">
        <ele>297.78037182435</ele>
        <time>2021-06-15T18:34:53.772Z</time>
      </trkpt>
      <trkpt lat="48.5474" lon="7.31888">
        <ele>298.64205648662</ele>
        <time>2021-06-15T18:34:58.080Z</time>
      </trkpt>
      <trkpt lat="48.54714" lon="7.31881">
        <ele>298.87969212279</ele>
        <time>2021-06-15T18:35:02.397Z</time>
      </trkpt>
      <trkpt lat="48.54652" lon="7.31879">
        <ele>299.36774904576</ele>
        <time>2021-06-15T18:35:06.735Z</time>
      </trkpt>
      <trkpt lat="48.54658" lon="7.31962">
        <ele>299.48900380876</ele>
        <time>2021-06-15T18:35:11.091Z</time>
      </trkpt>
      <trkpt lat="48.54681" lon="7.32027">
        <ele>299.20749506052</ele>
        <time>2021-06-15T18:35:15.463Z</time>
      </trkpt>
      <trkpt lat="48.54701" lon="7.32126">
        <ele>298.35284930468</ele>
        <time>2021-06-15T18:35:19.858Z</time>
      </trkpt>
      <trkpt lat="48.54753" lon="7.32265">
        <ele>296.95273361557</ele>
        <time>2021-06-15T18:35:24.289Z</time>
      </trkpt>
      <trkpt lat="48.54746" lon="7.32335">
        <ele>295.94028649743</ele>
        <time>2021-06-15T18:35:28.735Z</time>
      </trkpt>
      <trkpt lat="48.54729" lon="7.3239">
        <ele>295.02063486345</ele>
        <time>2021-06-15T18:35:33.195Z</time>
      </trkpt>
      <trkpt lat="48.54699" lon="7.32409">
        <ele>294.02993241467</ele>
        <time>2021-06-15T18:35:37.666Z</time>
      </trkpt>
      <trkpt lat="48.54662" lon="7.32425">
        <ele>293.67045835254</ele>
        <time>2021-06-15T18:35:42.149Z</time>
      </trkpt>
      <trkpt lat="48.54635" lon="7.32462">
        <ele>293.42118069</ele>
        <time>2021-06-15T18:35:46.645Z</time>
      </trkpt>
      <trkpt lat="48.54622" lon="7.32537">
        <ele>293.13680640098</ele>
        <time>2021-06-15T18:35:51.158Z</time>
      </trkpt>
      <trkpt lat="48.54581" lon="7.32595">
        <ele>293.42448451465</ele>
        <time>2021-06-15T18:35:55.690Z</time>
      </trkpt>
      <trkpt lat="48.54524" lon="7.32624">
        <ele>294.30743299276</ele>
        <time>2021-06-15T18:36:00.242Z</time>
      </trkpt>
      <trkpt lat="48.5448" lon="7.32608">
        <ele>295.05816433964</ele>
        <time>2021-06-15T18:36:04.809Z</time>
      </trkpt>
      <trkpt lat="48.54441" lon="7.32549">
        <ele>296.36128140726</ele>
        <time>2021-06-15T18:36:09.394Z</time>
      </trkpt>
      <trkpt lat="48.54433" lon="7.3249">
        <ele>297.44738103801</ele>
        <time>2021-06-15T18:36:13.993Z</time>
      </trkpt>
      <trkpt lat="48.54414" lon="7.32483">
        <ele>298.10303395979</ele>
        <time>2021-06-15T18:36:18.598Z</time>
      </trkpt>
      <trkpt lat="48.54345" lon="7.32652">
        <ele>298.30932029677</ele>
        <time>2021-06-15T18:36:23.247Z</time>
      </trkpt>
      <trkpt lat="48.54304" lon="7.32646">
        <ele>299.68803927974</ele>
        <time>2021-06-15T18:36:27.910Z</time>
      </trkpt>
      <trkpt lat="48.5417" lon="7.32537">
        <ele>301.19374034654</ele>
        <time>2021-06-15T18:36:32.624Z</time>
      </trkpt>
      <trkpt lat="48.53995" lon="7.32534">
        <ele>301.46895415549</ele>
        <time>2021-06-15T18:36:37.396Z</time>
      </trkpt>
      <trkpt lat="48.53948" lon="7.32479">
        <ele>302.13396407457</ele>
        <time>2021-06-15T18:36:42.188Z</time>
      </trkpt>
      <trkpt lat="48.53924" lon="7.32416">
        <ele>302.54138704278</ele>
        <time>2021-06-15T18:36:46.996Z</time>
      </trkpt>
      <trkpt lat="48.53923" lon="7.32355">
        <ele>303.03256867022</ele>
        <time>2021-06-15T18:36:51.817Z</time>
      </trkpt>
      <trkpt lat="48.53904" lon="7.32341">
        <ele>303.18310103473</ele>
        <time>2021-06-15T18:36:56.645Z</time>
      </trkpt>
      <trkpt lat="48.53855" lon="7.3234">
        <ele>303.22873840258</ele>
        <time>2021-06-15T18:37:01.490Z</time>
      </trkpt>
      <trkpt lat="48.53828" lon="7.32333">
        <ele>303.23916507262</ele>
        <time>2021-06-15T18:37:06.344Z</time>
      </trkpt>
      <trkpt lat="48.53743" lon="7.32359">
        <ele>302.63260089052</ele>
        <time>2021-06-15T18:37:11.227Z</time>
      </trkpt>
      <trkpt lat="48.53658" lon="7.32372">
        <ele>300.82159078222</ele>
        <time>2021-06-15T18:37:16.138Z</time>
      </trkpt>
      <trkpt lat="48.53613" lon="7.32358">
        <ele>298.60862896888</ele>
        <time>2021-06-15T18:37:21.065Z</time>
      </trkpt>
      <trkpt lat="48.53544" lon="7.32382">
        <ele>296.3702033108</ele>
        <time>2021-06-15T18:37:26.015Z</time>
      </trkpt>
      <trkpt lat="48.53506" lon="7.32393">
        <ele>293.26664885998</ele>
        <time>2021-06-15T18:37:30.978Z</time>
      </trkpt>
      <trkpt lat="48.53448" lon="7.32436">
        <ele>289.15017681699</ele>
        <time>2021-06-15T18:37:35.963Z</time>
      </trkpt>
      <trkpt lat="48.53405" lon="7.32526">
        <ele>285.13641123297</ele>
        <time>2021-06-15T18:37:40.972Z</time>
      </trkpt>
      <trkpt lat="48.53374" lon="7.32547">
        <ele>281.54096232533</ele>
        <time>2021-06-15T18:37:45.993Z</time>
      </trkpt>
      <trkpt lat="48.5326" lon="7.32582">
        <ele>277.51215430901</ele>
        <time>2021-06-15T18:37:51.053Z</time>
      </trkpt>
      <trkpt lat="48.53182" lon="7.32593">
        <ele>274.04019457014</ele>
        <time>2021-06-15T18:37:56.139Z</time>
      </trkpt>
      <trkpt lat="48.53128" lon="7.3257">
        <ele>271.07789380147</ele>
        <time>2021-06-15T18:38:01.243Z</time>
      </trkpt>
      <trkpt lat="48.53106" lon="7.32533">
        <ele>268.267860718</ele>
        <time>2021-06-15T18:38:06.358Z</time>
      </trkpt>
      <trkpt lat="48.53092" lon="7.32443">
        <ele>265.54293146666</ele>
        <time>2021-06-15T18:38:11.494Z</time>
      </trkpt>
      <trkpt lat="48.53071" lon="7.32372">
        <ele>262.70226103995</ele>
        <time>2021-06-15T18:38:16.647Z</time>
      </trkpt>
      <trkpt lat="48.53045" lon="7.32329">
        <ele>260.10161181132</ele>
        <time>2021-06-15T18:38:21.813Z</time>
      </trkpt>
      <trkpt lat="48.52998" lon="7.32302">
        <ele>257.38705966568</ele>
        <time>2021-06-15T18:38:26.996Z</time>
      </trkpt>
      <trkpt lat="48.52974" lon="7.32311">
        <ele>254.84312696105</ele>
        <time>2021-06-15T18:38:32.187Z</time>
      </trkpt>
      <trkpt lat="48.52931" lon="7.32351">
        <ele>252.60927235381</ele>
        <time>2021-06-15T18:38:37.395Z</time>
      </trkpt>
      <trkpt lat="48.52912" lon="7.32342">
        <ele>250.96557889979</ele>
        <time>2021-06-15T18:38:42.610Z</time>
      </trkpt>
      <trkpt lat="48.52877" lon="7.32295">
        <ele>249.47502506778</ele>
        <time>2021-06-15T18:38:47.840Z</time>
      </trkpt>
      <trkpt lat="48.52848" lon="7.32287">
        <ele>247.91439844856</ele>
        <time>2021-06-15T18:38:53.080Z</time>
      </trkpt>
      <trkpt lat="48.52801" lon="7.32279">
        <ele>246.31283525096</ele>
        <time>2021-06-15T18:38:58.336Z</time>
      </trkpt>
      <trkpt lat="48.52807" lon="7.32245">
        <ele>246.00529267116</ele>
        <time>2021-06-15T18:39:03.600Z</time>
      </trkpt>
      <trkpt lat="48.52788" lon="7.32136">
        <ele>245.78922832145</ele>
        <time>2021-06-15T18:39:08.889Z</time>
      </trkpt>
    </trkseg>
  </trk>
  <trk>
    <name><![CDATA[UT53 Étape 8]]></name>
    <extensions>
      <line xmlns="http://www.topografix.com/GPX/gpx_style/0/2">
        <color>008800</color>
        <width>4</width>
      </line>
    </extensions>
    <trkseg>
      <trkpt lat="48.52998" lon="7.32302">
        <ele>252.78532006247</ele>
        <time>2021-07-09T08:10:00.000Z</time>
      </trkpt>
      <trkpt lat="48.52974" lon="7.32311">
        <ele>250.6822388684</ele>
        <time>2021-07-09T08:10:00.008Z</time>
      </trkpt>
      <trkpt lat="48.52931" lon="7.32351">
        <ele>248.62547718297</ele>
        <time>2021-07-09T08:10:00.033Z</time>
      </trkpt>
      <trkpt lat="48.52912" lon="7.32342">
        <ele>247.42456911371</ele>
        <time>2021-07-09T08:10:00.065Z</time>
      </trkpt>
      <trkpt lat="48.52877" lon="7.32295">
        <ele>246.73649730713</ele>
        <time>2021-07-09T08:10:00.112Z</time>
      </trkpt>
      <trkpt lat="48.52848" lon="7.32287">
        <ele>246.18964859998</ele>
        <time>2021-07-09T08:10:00.169Z</time>
      </trkpt>
      <trkpt lat="48.52801" lon="7.32279">
        <ele>245.42311125429</ele>
        <time>2021-07-09T08:10:00.242Z</time>
      </trkpt>
      <trkpt lat="48.52807" lon="7.32245">
        <ele>245.88107610788</ele>
        <time>2021-07-09T08:10:00.323Z</time>
      </trkpt>
      <trkpt lat="48.52788" lon="7.32136">
        <ele>246.94299066763</ele>
        <time>2021-07-09T08:10:00.429Z</time>
      </trkpt>
      <trkpt lat="48.52785" lon="7.32028">
        <ele>249.00027807763</ele>
        <time>2021-07-09T08:10:00.559Z</time>
      </trkpt>
      <trkpt lat="48.52802" lon="7.31957">
        <ele>251.4317224796</ele>
        <time>2021-07-09T08:10:00.705Z</time>
      </trkpt>
      <trkpt lat="48.52839" lon="7.31873">
        <ele>254.34980608926</ele>
        <time>2021-07-09T08:10:00.874Z</time>
      </trkpt>
      <trkpt lat="48.52854" lon="7.31813">
        <ele>257.64415115602</ele>
        <time>2021-07-09T08:10:01.057Z</time>
      </trkpt>
      <trkpt lat="48.52883" lon="7.31765">
        <ele>261.60839660991</ele>
        <time>2021-07-09T08:10:01.254Z</time>
      </trkpt>
      <trkpt lat="48.52888" lon="7.3174">
        <ele>266.27272768379</ele>
        <time>2021-07-09T08:10:01.457Z</time>
      </trkpt>
      <trkpt lat="48.52918" lon="7.31666">
        <ele>272.47823522259</ele>
        <time>2021-07-09T08:10:01.679Z</time>
      </trkpt>
      <trkpt lat="48.52933" lon="7.31581">
        <ele>279.15073311881</ele>
        <time>2021-07-09T08:10:01.921Z</time>
      </trkpt>
      <trkpt lat="48.5296" lon="7.31543">
        <ele>284.64282299572</ele>
        <time>2021-07-09T08:10:02.175Z</time>
      </trkpt>
      <trkpt lat="48.52972" lon="7.31509">
        <ele>290.08991906164</ele>
        <time>2021-07-09T08:10:02.438Z</time>
      </trkpt>
      <trkpt lat="48.53005" lon="7.3145">
        <ele>295.47059383441</ele>
        <time>2021-07-09T08:10:02.718Z</time>
      </trkpt>
      <trkpt lat="48.53059" lon="7.31337">
        <ele>301.65618799866</ele>
        <time>2021-07-09T08:10:03.029Z</time>
      </trkpt>
      <trkpt lat="48.53148" lon="7.3125">
        <ele>308.45594640665</ele>
        <time>2021-07-09T08:10:03.375Z</time>
      </trkpt>
      <trkpt lat="48.53192" lon="7.31215">
        <ele>313.70217799876</ele>
        <time>2021-07-09T08:10:03.738Z</time>
      </trkpt>
      <trkpt lat="48.53251" lon="7.31148">
        <ele>318.46040911161</ele>
        <time>2021-07-09T08:10:04.125Z</time>
      </trkpt>
      <trkpt lat="48.53295" lon="7.3108">
        <ele>322.75571758671</ele>
        <time>2021-07-09T08:10:04.533Z</time>
      </trkpt>
      <trkpt lat="48.53334" lon="7.30975">
        <ele>327.06893421777</ele>
        <time>2021-07-09T08:10:04.968Z</time>
      </trkpt>
      <trkpt lat="48.53377" lon="7.30917">
        <ele>331.16823022512</ele>
        <time>2021-07-09T08:10:05.422Z</time>
      </trkpt>
      <trkpt lat="48.53457" lon="7.30837">
        <ele>335.55559191579</ele>
        <time>2021-07-09T08:10:05.908Z</time>
      </trkpt>
      <trkpt lat="48.53484" lon="7.30786">
        <ele>338.42095300389</ele>
        <time>2021-07-09T08:10:06.409Z</time>
      </trkpt>
      <trkpt lat="48.53501" lon="7.30729">
        <ele>340.87798079133</ele>
        <time>2021-07-09T08:10:06.924Z</time>
      </trkpt>
      <trkpt lat="48.53521" lon="7.30636">
        <ele>342.62575921743</ele>
        <time>2021-07-09T08:10:07.460Z</time>
      </trkpt>
      <trkpt lat="48.53548" lon="7.30564">
        <ele>343.43073936381</ele>
        <time>2021-07-09T08:10:08.015Z</time>
      </trkpt>
      <trkpt lat="48.53578" lon="7.30405">
        <ele>342.75545709603</ele>
        <time>2021-07-09T08:10:08.606Z</time>
      </trkpt>
      <trkpt lat="48.53633" lon="7.30302">
        <ele>341.73087450349</ele>
        <time>2021-07-09T08:10:09.226Z</time>
      </trkpt>
      <trkpt lat="48.5359" lon="7.30194">
        <ele>339.73601277392</ele>
        <time>2021-07-09T08:10:09.874Z</time>
      </trkpt>
      <trkpt lat="48.53547" lon="7.30139">
        <ele>336.76334150884</ele>
        <time>2021-07-09T08:10:10.541Z</time>
      </trkpt>
      <trkpt lat="48.53485" lon="7.29927">
        <ele>333.83420994523</ele>
        <time>2021-07-09T08:10:11.260Z</time>
      </trkpt>
      <trkpt lat="48.53416" lon="7.29747">
        <ele>331.95675905094</ele>
        <time>2021-07-09T08:10:12.025Z</time>
      </trkpt>
      <trkpt lat="48.53399" lon="7.29558">
        <ele>328.89979001883</ele>
        <time>2021-07-09T08:10:12.832Z</time>
      </trkpt>
      <trkpt lat="48.53405" lon="7.29442">
        <ele>325.30881603641</ele>
        <time>2021-07-09T08:10:13.665Z</time>
      </trkpt>
      <trkpt lat="48.53435" lon="7.29325">
        <ele>323.75628890797</ele>
        <time>2021-07-09T08:10:14.525Z</time>
      </trkpt>
      <trkpt lat="48.5344" lon="7.29233">
        <ele>322.27189131058</ele>
        <time>2021-07-09T08:10:15.406Z</time>
      </trkpt>
      <trkpt lat="48.53432" lon="7.29159">
        <ele>321.01868726905</ele>
        <time>2021-07-09T08:10:16.303Z</time>
      </trkpt>
      <trkpt lat="48.53433" lon="7.29129">
        <ele>320.2132879722</ele>
        <time>2021-07-09T08:10:17.207Z</time>
      </trkpt>
      <trkpt lat="48.53413" lon="7.29076">
        <ele>319.88766229121</ele>
        <time>2021-07-09T08:10:18.125Z</time>
      </trkpt>
      <trkpt lat="48.53412" lon="7.29007">
        <ele>321.0261058831</ele>
        <time>2021-07-09T08:10:19.058Z</time>
      </trkpt>
      <trkpt lat="48.5339" lon="7.28933">
        <ele>322.25133683947</ele>
        <time>2021-07-09T08:10:20.009Z</time>
      </trkpt>
      <trkpt lat="48.53387" lon="7.28844">
        <ele>323.41599563189</ele>
        <time>2021-07-09T08:10:20.980Z</time>
      </trkpt>
      <trkpt lat="48.53325" lon="7.28712">
        <ele>324.70515831084</ele>
        <time>2021-07-09T08:10:21.986Z</time>
      </trkpt>
      <trkpt lat="48.53281" lon="7.28507">
        <ele>326.6070166217</ele>
        <time>2021-07-09T08:10:23.040Z</time>
      </trkpt>
      <trkpt lat="48.53283" lon="7.28481">
        <ele>328.35642731622</ele>
        <time>2021-07-09T08:10:24.100Z</time>
      </trkpt>
      <trkpt lat="48.53314" lon="7.2839">
        <ele>330.67432890401</ele>
        <time>2021-07-09T08:10:25.183Z</time>
      </trkpt>
      <trkpt lat="48.53392" lon="7.28281">
        <ele>333.92065711965</ele>
        <time>2021-07-09T08:10:26.301Z</time>
      </trkpt>
      <trkpt lat="48.53392" lon="7.28281">
        <ele>338.36462940591</ele>
        <time>2021-07-09T08:10:27.419Z</time>
      </trkpt>
      <trkpt lat="48.5339" lon="7.28154">
        <ele>341.23385304057</ele>
        <time>2021-07-09T08:10:28.565Z</time>
      </trkpt>
      <trkpt lat="48.53369" lon="7.28012">
        <ele>343.48517075566</ele>
        <time>2021-07-09T08:10:29.744Z</time>
      </trkpt>
      <trkpt lat="48.53352" lon="7.27951">
        <ele>345.49855966865</ele>
        <time>2021-07-09T08:10:30.937Z</time>
      </trkpt>
      <trkpt lat="48.53328" lon="7.27891">
        <ele>347.83367503564</ele>
        <time>2021-07-09T08:10:32.146Z</time>
      </trkpt>
      <trkpt lat="48.53331" lon="7.27823">
        <ele>350.01573633254</ele>
        <time>2021-07-09T08:10:33.370Z</time>
      </trkpt>
      <trkpt lat="48.53306" lon="7.27724">
        <ele>352.69852582866</ele>
        <time>2021-07-09T08:10:34.617Z</time>
      </trkpt>
      <trkpt lat="48.53287" lon="7.27688">
        <ele>354.94859292351</ele>
        <time>2021-07-09T08:10:35.874Z</time>
      </trkpt>
      <trkpt lat="48.53256" lon="7.27564">
        <ele>358.01700853817</ele>
        <time>2021-07-09T08:10:37.161Z</time>
      </trkpt>
      <trkpt lat="48.53251" lon="7.2751">
        <ele>360.52708951475</ele>
        <time>2021-07-09T08:10:38.460Z</time>
      </trkpt>
      <trkpt lat="48.53261" lon="7.27439">
        <ele>363.46341595452</ele>
        <time>2021-07-09T08:10:39.775Z</time>
      </trkpt>
      <trkpt lat="48.53298" lon="7.27344">
        <ele>366.35906469653</ele>
        <time>2021-07-09T08:10:41.114Z</time>
      </trkpt>
      <trkpt lat="48.53384" lon="7.27211">
        <ele>370.35093661674</ele>
        <time>2021-07-09T08:10:42.495Z</time>
      </trkpt>
      <trkpt lat="48.53401" lon="7.27204">
        <ele>373.88030174067</ele>
        <time>2021-07-09T08:10:43.881Z</time>
      </trkpt>
      <trkpt lat="48.53453" lon="7.27201">
        <ele>378.3161106693</ele>
        <time>2021-07-09T08:10:45.285Z</time>
      </trkpt>
      <trkpt lat="48.53492" lon="7.27181">
        <ele>381.69846279829</ele>
        <time>2021-07-09T08:10:46.703Z</time>
      </trkpt>
      <trkpt lat="48.53516" lon="7.27144">
        <ele>384.68533493361</ele>
        <time>2021-07-09T08:10:48.132Z</time>
      </trkpt>
      <trkpt lat="48.5355" lon="7.27055">
        <ele>388.31187799851</ele>
        <time>2021-07-09T08:10:49.584Z</time>
      </trkpt>
      <trkpt lat="48.53585" lon="7.27011">
        <ele>391.19327189681</ele>
        <time>2021-07-09T08:10:51.051Z</time>
      </trkpt>
      <trkpt lat="48.53599" lon="7.26972">
        <ele>393.33263931871</ele>
        <time>2021-07-09T08:10:52.528Z</time>
      </trkpt>
      <trkpt lat="48.53621" lon="7.26867">
        <ele>395.67794438024</ele>
        <time>2021-07-09T08:10:54.029Z</time>
      </trkpt>
      <trkpt lat="48.53632" lon="7.26791">
        <ele>398.63295326598</ele>
        <time>2021-07-09T08:10:55.547Z</time>
      </trkpt>
      <trkpt lat="48.53642" lon="7.26766">
        <ele>401.44435175299</ele>
        <time>2021-07-09T08:10:57.072Z</time>
      </trkpt>
      <trkpt lat="48.53722" lon="7.26665">
        <ele>405.82548319337</ele>
        <time>2021-07-09T08:10:58.632Z</time>
      </trkpt>
      <trkpt lat="48.53747" lon="7.26642">
        <ele>409.61474877566</ele>
        <time>2021-07-09T08:11:00.201Z</time>
      </trkpt>
      <trkpt lat="48.53774" lon="7.26631">
        <ele>413.5592627695</ele>
        <time>2021-07-09T08:11:01.780Z</time>
      </trkpt>
      <trkpt lat="48.53823" lon="7.26604">
        <ele>418.30418067626</ele>
        <time>2021-07-09T08:11:03.376Z</time>
      </trkpt>
      <trkpt lat="48.5385" lon="7.26568">
        <ele>423.46323138259</ele>
        <time>2021-07-09T08:11:04.984Z</time>
      </trkpt>
      <trkpt lat="48.53859" lon="7.26488">
        <ele>429.52311835541</ele>
        <time>2021-07-09T08:11:06.610Z</time>
      </trkpt>
      <trkpt lat="48.53847" lon="7.2641">
        <ele>436.83114289386</ele>
        <time>2021-07-09T08:11:08.254Z</time>
      </trkpt>
      <trkpt lat="48.53866" lon="7.26311">
        <ele>444.21912165678</ele>
        <time>2021-07-09T08:11:09.921Z</time>
      </trkpt>
      <trkpt lat="48.53883" lon="7.26222">
        <ele>451.46423281011</ele>
        <time>2021-07-09T08:11:11.608Z</time>
      </trkpt>
      <trkpt lat="48.53908" lon="7.26202">
        <ele>458.17143405391</ele>
        <time>2021-07-09T08:11:13.305Z</time>
      </trkpt>
      <trkpt lat="48.53954" lon="7.26198">
        <ele>465.28474782126</ele>
        <time>2021-07-09T08:11:15.017Z</time>
      </trkpt>
      <trkpt lat="48.53953" lon="7.26115">
        <ele>472.37929146887</ele>
        <time>2021-07-09T08:11:16.747Z</time>
      </trkpt>
      <trkpt lat="48.53939" lon="7.26024">
        <ele>480.12797486893</ele>
        <time>2021-07-09T08:11:18.498Z</time>
      </trkpt>
      <trkpt lat="48.53944" lon="7.25981">
        <ele>487.42737624984</ele>
        <time>2021-07-09T08:11:20.259Z</time>
      </trkpt>
      <trkpt lat="48.5394" lon="7.25959">
        <ele>494.51728870004</ele>
        <time>2021-07-09T08:11:22.025Z</time>
      </trkpt>
      <trkpt lat="48.54024" lon="7.25883">
        <ele>502.54001301328</ele>
        <time>2021-07-09T08:11:23.824Z</time>
      </trkpt>
      <trkpt lat="48.54044" lon="7.25743">
        <ele>510.93125668651</ele>
        <time>2021-07-09T08:11:25.654Z</time>
      </trkpt>
      <trkpt lat="48.53995" lon="7.25672">
        <ele>518.30321160046</ele>
        <time>2021-07-09T08:11:27.507Z</time>
      </trkpt>
      <trkpt lat="48.53966" lon="7.25653">
        <ele>526.04906478207</ele>
        <time>2021-07-09T08:11:29.371Z</time>
      </trkpt>
      <trkpt lat="48.53945" lon="7.25675">
        <ele>533.93957902543</ele>
        <time>2021-07-09T08:11:31.243Z</time>
      </trkpt>
      <trkpt lat="48.53836" lon="7.2574">
        <ele>541.87520676351</ele>
        <time>2021-07-09T08:11:33.154Z</time>
      </trkpt>
      <trkpt lat="48.5379" lon="7.25737">
        <ele>551.64682685508</ele>
        <time>2021-07-09T08:11:35.081Z</time>
      </trkpt>
      <trkpt lat="48.53678" lon="7.25792">
        <ele>563.74175983808</ele>
        <time>2021-07-09T08:11:37.047Z</time>
      </trkpt>
      <trkpt lat="48.53717" lon="7.2565">
        <ele>574.85581073355</ele>
        <time>2021-07-09T08:11:39.047Z</time>
      </trkpt>
      <trkpt lat="48.53747" lon="7.25489">
        <ele>585.85788686915</ele>
        <time>2021-07-09T08:11:41.084Z</time>
      </trkpt>
      <trkpt lat="48.53698" lon="7.2554">
        <ele>596.20499662359</ele>
        <time>2021-07-09T08:11:43.141Z</time>
      </trkpt>
      <trkpt lat="48.53748" lon="7.25364">
        <ele>606.3961680562</ele>
        <time>2021-07-09T08:11:45.240Z</time>
      </trkpt>
      <trkpt lat="48.538" lon="7.25273">
        <ele>616.80446080699</ele>
        <time>2021-07-09T08:11:47.366Z</time>
      </trkpt>
      <trkpt lat="48.5387" lon="7.25199">
        <ele>626.81946544747</ele>
        <time>2021-07-09T08:11:49.520Z</time>
      </trkpt>
      <trkpt lat="48.53936" lon="7.25153">
        <ele>635.53777923601</ele>
        <time>2021-07-09T08:11:51.699Z</time>
      </trkpt>
      <trkpt lat="48.53946" lon="7.25127">
        <ele>644.16901256016</ele>
        <time>2021-07-09T08:11:53.884Z</time>
      </trkpt>
      <trkpt lat="48.53978" lon="7.25107">
        <ele>652.09047646689</ele>
        <time>2021-07-09T08:11:56.081Z</time>
      </trkpt>
      <trkpt lat="48.54044" lon="7.2513">
        <ele>659.29284482674</ele>
        <time>2021-07-09T08:11:58.300Z</time>
      </trkpt>
      <trkpt lat="48.54044" lon="7.2513">
        <ele>673.75318257995</ele>
        <time>2021-07-09T08:12:00.519Z</time>
      </trkpt>
      <trkpt lat="48.54003" lon="7.25039">
        <ele>684.34876210872</ele>
        <time>2021-07-09T08:12:02.763Z</time>
      </trkpt>
      <trkpt lat="48.53953" lon="7.2501">
        <ele>692.59285578659</ele>
        <time>2021-07-09T08:12:05.025Z</time>
      </trkpt>
      <trkpt lat="48.53896" lon="7.25001">
        <ele>701.06305784508</ele>
        <time>2021-07-09T08:12:07.306Z</time>
      </trkpt>
      <trkpt lat="48.53957" lon="7.24958">
        <ele>708.87311180264</ele>
        <time>2021-07-09T08:12:09.609Z</time>
      </trkpt>
      <trkpt lat="48.54029" lon="7.24929">
        <ele>717.74245049948</ele>
        <time>2021-07-09T08:12:11.937Z</time>
      </trkpt>
      <trkpt lat="48.54071" lon="7.24934">
        <ele>724.9376184421</ele>
        <time>2021-07-09T08:12:14.279Z</time>
      </trkpt>
      <trkpt lat="48.54165" lon="7.25007">
        <ele>733.18729671509</ele>
        <time>2021-07-09T08:12:16.656Z</time>
      </trkpt>
      <trkpt lat="48.54257" lon="7.25117">
        <ele>741.25960727755</ele>
        <time>2021-07-09T08:12:19.073Z</time>
      </trkpt>
      <trkpt lat="48.54285" lon="7.2514">
        <ele>748.36933022356</ele>
        <time>2021-07-09T08:12:21.500Z</time>
      </trkpt>
      <trkpt lat="48.54312" lon="7.25141">
        <ele>755.47886157401</ele>
        <time>2021-07-09T08:12:23.936Z</time>
      </trkpt>
      <trkpt lat="48.54344" lon="7.25104">
        <ele>763.30656348942</ele>
        <time>2021-07-09T08:12:26.386Z</time>
      </trkpt>
      <trkpt lat="48.54407" lon="7.25002">
        <ele>772.39507612909</ele>
        <time>2021-07-09T08:12:28.867Z</time>
      </trkpt>
      <trkpt lat="48.5449" lon="7.24956">
        <ele>780.68343395721</ele>
        <time>2021-07-09T08:12:31.377Z</time>
      </trkpt>
      <trkpt lat="48.54608" lon="7.24958">
        <ele>789.58727146815</ele>
        <time>2021-07-09T08:12:33.927Z</time>
      </trkpt>
      <trkpt lat="48.54679" lon="7.24984">
        <ele>797.85578764591</ele>
        <time>2021-07-09T08:12:36.501Z</time>
      </trkpt>
      <trkpt lat="48.54725" lon="7.25016">
        <ele>805.74763729348</ele>
        <time>2021-07-09T08:12:39.092Z</time>
      </trkpt>
      <trkpt lat="48.54738" lon="7.25009">
        <ele>812.82502718665</ele>
        <time>2021-07-09T08:12:41.687Z</time>
      </trkpt>
      <trkpt lat="48.54789" lon="7.25063">
        <ele>819.04061298634</ele>
        <time>2021-07-09T08:12:44.303Z</time>
      </trkpt>
      <trkpt lat="48.54848" lon="7.25131">
        <ele>825.30415206672</ele>
        <time>2021-07-09T08:12:46.944Z</time>
      </trkpt>
      <trkpt lat="48.54843" lon="7.25098">
        <ele>832.40069347285</ele>
        <time>2021-07-09T08:12:49.592Z</time>
      </trkpt>
      <trkpt lat="48.54904" lon="7.2514">
        <ele>839.86288209973</ele>
        <time>2021-07-09T08:12:52.263Z</time>
      </trkpt>
      <trkpt lat="48.55" lon="7.25261">
        <ele>847.44987334148</ele>
        <time>2021-07-09T08:12:54.976Z</time>
      </trkpt>
      <trkpt lat="48.5505" lon="7.25344">
        <ele>855.18977018707</ele>
        <time>2021-07-09T08:12:57.713Z</time>
      </trkpt>
      <trkpt lat="48.55075" lon="7.25359">
        <ele>862.43275806893</ele>
        <time>2021-07-09T08:13:00.459Z</time>
      </trkpt>
      <trkpt lat="48.55066" lon="7.25316">
        <ele>869.64724103685</ele>
        <time>2021-07-09T08:13:03.215Z</time>
      </trkpt>
      <trkpt lat="48.55078" lon="7.25249">
        <ele>877.57211572203</ele>
        <time>2021-07-09T08:13:05.987Z</time>
      </trkpt>
      <trkpt lat="48.55054" lon="7.25173">
        <ele>886.02640961912</ele>
        <time>2021-07-09T08:13:08.777Z</time>
      </trkpt>
      <trkpt lat="48.55029" lon="7.24978">
        <ele>895.54081124563</ele>
        <time>2021-07-09T08:13:11.611Z</time>
      </trkpt>
      <trkpt lat="48.55025" lon="7.24849">
        <ele>903.63949971779</ele>
        <time>2021-07-09T08:13:14.474Z</time>
      </trkpt>
      <trkpt lat="48.55032" lon="7.24645">
        <ele>913.16161132073</ele>
        <time>2021-07-09T08:13:17.382Z</time>
      </trkpt>
      <trkpt lat="48.55053" lon="7.24526">
        <ele>921.24223005576</ele>
        <time>2021-07-09T08:13:20.318Z</time>
      </trkpt>
      <trkpt lat="48.55074" lon="7.24503">
        <ele>928.11283182174</ele>
        <time>2021-07-09T08:13:23.262Z</time>
      </trkpt>
      <trkpt lat="48.55113" lon="7.24492">
        <ele>934.5278821967</ele>
        <time>2021-07-09T08:13:26.219Z</time>
      </trkpt>
      <trkpt lat="48.55241" lon="7.24384">
        <ele>944.44444546303</ele>
        <time>2021-07-09T08:13:29.225Z</time>
      </trkpt>
      <trkpt lat="48.55397" lon="7.24315">
        <ele>950.74521886457</ele>
        <time>2021-07-09T08:13:32.286Z</time>
      </trkpt>
      <trkpt lat="48.55412" lon="7.24297">
        <ele>956.87916674625</ele>
        <time>2021-07-09T08:13:35.353Z</time>
      </trkpt>
      <trkpt lat="48.55416" lon="7.24276">
        <ele>962.83025070141</ele>
        <time>2021-07-09T08:13:38.425Z</time>
      </trkpt>
      <trkpt lat="48.55375" lon="7.24297">
        <ele>968.86122366759</ele>
        <time>2021-07-09T08:13:41.511Z</time>
      </trkpt>
      <trkpt lat="48.55266" lon="7.24291">
        <ele>975.9224447279</ele>
        <time>2021-07-09T08:13:44.634Z</time>
      </trkpt>
      <trkpt lat="48.55194" lon="7.2428">
        <ele>981.57079906618</ele>
        <time>2021-07-09T08:13:47.781Z</time>
      </trkpt>
      <trkpt lat="48.55127" lon="7.24293">
        <ele>986.78842032459</ele>
        <time>2021-07-09T08:13:50.950Z</time>
      </trkpt>
      <trkpt lat="48.55015" lon="7.24293">
        <ele>991.88331557003</ele>
        <time>2021-07-09T08:13:54.157Z</time>
      </trkpt>
      <trkpt lat="48.54969" lon="7.24273">
        <ele>995.54032609722</ele>
        <time>2021-07-09T08:13:57.380Z</time>
      </trkpt>
      <trkpt lat="48.54952" lon="7.2422">
        <ele>998.8841133157</ele>
        <time>2021-07-09T08:14:00.616Z</time>
      </trkpt>
      <trkpt lat="48.5494" lon="7.24151">
        <ele>1001.3056614934</ele>
        <time>2021-07-09T08:14:03.868Z</time>
      </trkpt>
      <trkpt lat="48.54945" lon="7.24113">
        <ele>1002.9811636931</ele>
        <time>2021-07-09T08:14:07.128Z</time>
      </trkpt>
      <trkpt lat="48.54931" lon="7.24012">
        <ele>1003.9122163108</ele>
        <time>2021-07-09T08:14:10.411Z</time>
      </trkpt>
      <trkpt lat="48.54943" lon="7.24">
        <ele>1003.7905222672</ele>
        <time>2021-07-09T08:14:13.699Z</time>
      </trkpt>
      <trkpt lat="48.54939" lon="7.23959">
        <ele>1002.3839052051</ele>
        <time>2021-07-09T08:14:16.996Z</time>
      </trkpt>
      <trkpt lat="48.54903" lon="7.23983">
        <ele>1000.5909669482</ele>
        <time>2021-07-09T08:14:20.306Z</time>
      </trkpt>
      <trkpt lat="48.54903" lon="7.23983">
        <ele>995.69798931749</ele>
        <time>2021-07-09T08:14:23.616Z</time>
      </trkpt>
      <trkpt lat="48.54886" lon="7.24021">
        <ele>992.16449774121</ele>
        <time>2021-07-09T08:14:26.936Z</time>
      </trkpt>
      <trkpt lat="48.54877" lon="7.23984">
        <ele>987.68269000507</ele>
        <time>2021-07-09T08:14:30.265Z</time>
      </trkpt>
      <trkpt lat="48.5488" lon="7.23931">
        <ele>982.5213921101</ele>
        <time>2021-07-09T08:14:33.606Z</time>
      </trkpt>
      <trkpt lat="48.54924" lon="7.2388">
        <ele>978.09617453961</ele>
        <time>2021-07-09T08:14:36.965Z</time>
      </trkpt>
      <trkpt lat="48.54965" lon="7.23861">
        <ele>973.35804081783</ele>
        <time>2021-07-09T08:14:40.339Z</time>
      </trkpt>
      <trkpt lat="48.54978" lon="7.23791">
        <ele>967.51827116671</ele>
        <time>2021-07-09T08:14:43.729Z</time>
      </trkpt>
      <trkpt lat="48.54976" lon="7.2375">
        <ele>961.91401829457</ele>
        <time>2021-07-09T08:14:47.128Z</time>
      </trkpt>
      <trkpt lat="48.54964" lon="7.23721">
        <ele>956.29021622026</ele>
        <time>2021-07-09T08:14:50.534Z</time>
      </trkpt>
      <trkpt lat="48.54973" lon="7.23621">
        <ele>950.7601959664</ele>
        <time>2021-07-09T08:14:53.963Z</time>
      </trkpt>
      <trkpt lat="48.5493" lon="7.23384">
        <ele>944.51891538802</ele>
        <time>2021-07-09T08:14:57.446Z</time>
      </trkpt>
      <trkpt lat="48.54921" lon="7.23226">
        <ele>938.54730686318</ele>
        <time>2021-07-09T08:15:00.964Z</time>
      </trkpt>
      <trkpt lat="48.54931" lon="7.23158">
        <ele>933.95341325754</ele>
        <time>2021-07-09T08:15:04.498Z</time>
      </trkpt>
      <trkpt lat="48.54882" lon="7.23068">
        <ele>929.70167867375</ele>
        <time>2021-07-09T08:15:08.057Z</time>
      </trkpt>
      <trkpt lat="48.5486" lon="7.22928">
        <ele>927.59202354395</ele>
        <time>2021-07-09T08:15:11.648Z</time>
      </trkpt>
      <trkpt lat="48.54827" lon="7.22905">
        <ele>925.69190212893</ele>
        <time>2021-07-09T08:15:15.251Z</time>
      </trkpt>
      <trkpt lat="48.54803" lon="7.22856">
        <ele>924.22357843565</ele>
        <time>2021-07-09T08:15:18.868Z</time>
      </trkpt>
      <trkpt lat="48.54803" lon="7.22839">
        <ele>923.82141812357</ele>
        <time>2021-07-09T08:15:22.489Z</time>
      </trkpt>
      <trkpt lat="48.54784" lon="7.22801">
        <ele>923.84440351824</ele>
        <time>2021-07-09T08:15:26.120Z</time>
      </trkpt>
      <trkpt lat="48.54727" lon="7.2265">
        <ele>925.53000197401</ele>
        <time>2021-07-09T08:15:29.790Z</time>
      </trkpt>
      <trkpt lat="48.54683" lon="7.22596">
        <ele>926.79224290985</ele>
        <time>2021-07-09T08:15:33.479Z</time>
      </trkpt>
      <trkpt lat="48.5461" lon="7.22542">
        <ele>927.82936302191</ele>
        <time>2021-07-09T08:15:37.195Z</time>
      </trkpt>
      <trkpt lat="48.54595" lon="7.22482">
        <ele>930.58066218834</ele>
        <time>2021-07-09T08:15:40.925Z</time>
      </trkpt>
      <trkpt lat="48.54599" lon="7.22192">
        <ele>933.20645381556</ele>
        <time>2021-07-09T08:15:44.719Z</time>
      </trkpt>
      <trkpt lat="48.54592" lon="7.22075">
        <ele>936.29840310303</ele>
        <time>2021-07-09T08:15:48.539Z</time>
      </trkpt>
      <trkpt lat="48.546" lon="7.21943">
        <ele>940.01149274285</ele>
        <time>2021-07-09T08:15:52.389Z</time>
      </trkpt>
      <trkpt lat="48.54616" lon="7.2187">
        <ele>942.72296466902</ele>
        <time>2021-07-09T08:15:56.256Z</time>
      </trkpt>
      <trkpt lat="48.54649" lon="7.21796">
        <ele>945.75333184171</ele>
        <time>2021-07-09T08:16:00.142Z</time>
      </trkpt>
      <trkpt lat="48.54664" lon="7.216">
        <ele>948.52753694545</ele>
        <time>2021-07-09T08:16:04.072Z</time>
      </trkpt>
      <trkpt lat="48.54664" lon="7.215">
        <ele>951.34431170577</ele>
        <time>2021-07-09T08:16:08.024Z</time>
      </trkpt>
      <trkpt lat="48.54647" lon="7.21354">
        <ele>952.57444309904</ele>
        <time>2021-07-09T08:16:12.009Z</time>
      </trkpt>
      <trkpt lat="48.54613" lon="7.21274">
        <ele>953.47461370559</ele>
        <time>2021-07-09T08:16:16.015Z</time>
      </trkpt>
      <trkpt lat="48.54605" lon="7.21216">
        <ele>955.06207348997</ele>
        <time>2021-07-09T08:16:20.034Z</time>
      </trkpt>
      <trkpt lat="48.54613" lon="7.21127">
        <ele>955.61677668489</ele>
        <time>2021-07-09T08:16:24.073Z</time>
      </trkpt>
      <trkpt lat="48.54637" lon="7.21066">
        <ele>955.64702262529</ele>
        <time>2021-07-09T08:16:28.128Z</time>
      </trkpt>
      <trkpt lat="48.54678" lon="7.21013">
        <ele>955.76501998986</ele>
        <time>2021-07-09T08:16:32.201Z</time>
      </trkpt>
      <trkpt lat="48.54715" lon="7.20987">
        <ele>955.02067419577</ele>
        <time>2021-07-09T08:16:36.287Z</time>
      </trkpt>
      <trkpt lat="48.54824" lon="7.21068">
        <ele>954.60842905705</ele>
        <time>2021-07-09T08:16:40.414Z</time>
      </trkpt>
      <trkpt lat="48.54875" lon="7.21082">
        <ele>952.45473261774</ele>
        <time>2021-07-09T08:16:44.558Z</time>
      </trkpt>
      <trkpt lat="48.54989" lon="7.21083">
        <ele>949.25392487787</ele>
        <time>2021-07-09T08:16:48.740Z</time>
      </trkpt>
      <trkpt lat="48.55048" lon="7.21073">
        <ele>945.03937474934</ele>
        <time>2021-07-09T08:16:52.942Z</time>
      </trkpt>
      <trkpt lat="48.55106" lon="7.21013">
        <ele>939.40918202345</ele>
        <time>2021-07-09T08:16:57.168Z</time>
      </trkpt>
      <trkpt lat="48.55145" lon="7.20842">
        <ele>931.50495516253</ele>
        <time>2021-07-09T08:17:01.434Z</time>
      </trkpt>
      <trkpt lat="48.55157" lon="7.20727">
        <ele>923.18381147524</ele>
        <time>2021-07-09T08:17:05.725Z</time>
      </trkpt>
      <trkpt lat="48.55151" lon="7.20618">
        <ele>914.13540550062</ele>
        <time>2021-07-09T08:17:10.041Z</time>
      </trkpt>
      <trkpt lat="48.55148" lon="7.20383">
        <ele>902.74687002735</ele>
        <time>2021-07-09T08:17:14.409Z</time>
      </trkpt>
      <trkpt lat="48.55135" lon="7.20251">
        <ele>892.03523118769</ele>
        <time>2021-07-09T08:17:18.806Z</time>
      </trkpt>
      <trkpt lat="48.55135" lon="7.20251">
        <ele>874.26193899423</ele>
        <time>2021-07-09T08:17:23.203Z</time>
      </trkpt>
      <trkpt lat="48.55092" lon="7.20008">
        <ele>864.36781877314</ele>
        <time>2021-07-09T08:17:27.656Z</time>
      </trkpt>
      <trkpt lat="48.55027" lon="7.19872">
        <ele>854.11262603569</ele>
        <time>2021-07-09T08:17:32.146Z</time>
      </trkpt>
      <trkpt lat="48.54994" lon="7.19827">
        <ele>845.60567138523</ele>
        <time>2021-07-09T08:17:36.651Z</time>
      </trkpt>
      <trkpt lat="48.54988" lon="7.1985">
        <ele>837.41693168429</ele>
        <time>2021-07-09T08:17:41.162Z</time>
      </trkpt>
      <trkpt lat="48.54951" lon="7.19772">
        <ele>830.07165179908</ele>
        <time>2021-07-09T08:17:45.694Z</time>
      </trkpt>
      <trkpt lat="48.5488" lon="7.1955">
        <ele>823.29694653716</ele>
        <time>2021-07-09T08:17:50.280Z</time>
      </trkpt>
      <trkpt lat="48.54811" lon="7.19374">
        <ele>816.4756835129</ele>
        <time>2021-07-09T08:17:54.912Z</time>
      </trkpt>
      <trkpt lat="48.54801" lon="7.19317">
        <ele>811.14860030605</ele>
        <time>2021-07-09T08:17:59.557Z</time>
      </trkpt>
      <trkpt lat="48.54755" lon="7.19238">
        <ele>804.37598557005</ele>
        <time>2021-07-09T08:18:04.225Z</time>
      </trkpt>
      <trkpt lat="48.5473" lon="7.19184">
        <ele>797.33586359124</ele>
        <time>2021-07-09T08:18:08.908Z</time>
      </trkpt>
      <trkpt lat="48.54688" lon="7.19155">
        <ele>789.13047857495</ele>
        <time>2021-07-09T08:18:13.606Z</time>
      </trkpt>
      <trkpt lat="48.54632" lon="7.1913">
        <ele>780.3814539508</ele>
        <time>2021-07-09T08:18:18.323Z</time>
      </trkpt>
      <trkpt lat="48.54563" lon="7.19072">
        <ele>771.79268958555</ele>
        <time>2021-07-09T08:18:23.067Z</time>
      </trkpt>
      <trkpt lat="48.5451" lon="7.18997">
        <ele>764.89964120579</ele>
        <time>2021-07-09T08:18:27.835Z</time>
      </trkpt>
      <trkpt lat="48.54408" lon="7.19109">
        <ele>760.22185620931</ele>
        <time>2021-07-09T08:18:32.645Z</time>
      </trkpt>
      <trkpt lat="48.54282" lon="7.19166">
        <ele>755.53637177839</ele>
        <time>2021-07-09T08:18:37.499Z</time>
      </trkpt>
      <trkpt lat="48.54108" lon="7.19169">
        <ele>751.46427602321</ele>
        <time>2021-07-09T08:18:42.411Z</time>
      </trkpt>
      <trkpt lat="48.54048" lon="7.19159">
        <ele>748.94627676073</ele>
        <time>2021-07-09T08:18:47.343Z</time>
      </trkpt>
      <trkpt lat="48.53987" lon="7.19111">
        <ele>745.74940385668</ele>
        <time>2021-07-09T08:18:52.298Z</time>
      </trkpt>
      <trkpt lat="48.53874" lon="7.18974">
        <ele>743.6203857618</ele>
        <time>2021-07-09T08:18:57.302Z</time>
      </trkpt>
      <trkpt lat="48.53808" lon="7.1893">
        <ele>742.54094024997</ele>
        <time>2021-07-09T08:19:02.330Z</time>
      </trkpt>
      <trkpt lat="48.53753" lon="7.18915">
        <ele>741.17336262707</ele>
        <time>2021-07-09T08:19:07.376Z</time>
      </trkpt>
      <trkpt lat="48.53664" lon="7.18891">
        <ele>738.11554697847</ele>
        <time>2021-07-09T08:19:12.453Z</time>
      </trkpt>
      <trkpt lat="48.53607" lon="7.18837">
        <ele>736.08148580497</ele>
        <time>2021-07-09T08:19:17.552Z</time>
      </trkpt>
      <trkpt lat="48.53588" lon="7.18787">
        <ele>734.33958653563</ele>
        <time>2021-07-09T08:19:22.664Z</time>
      </trkpt>
      <trkpt lat="48.53506" lon="7.18469">
        <ele>733.48915681708</ele>
        <time>2021-07-09T08:19:27.851Z</time>
      </trkpt>
      <trkpt lat="48.53461" lon="7.18371">
        <ele>732.52089215919</ele>
        <time>2021-07-09T08:19:33.065Z</time>
      </trkpt>
      <trkpt lat="48.53423" lon="7.18343">
        <ele>730.4728465422</ele>
        <time>2021-07-09T08:19:38.293Z</time>
      </trkpt>
      <trkpt lat="48.53357" lon="7.18244">
        <ele>729.391154435</ele>
        <time>2021-07-09T08:19:43.552Z</time>
      </trkpt>
      <trkpt lat="48.5334" lon="7.18181">
        <ele>728.70311441405</ele>
        <time>2021-07-09T08:19:48.826Z</time>
      </trkpt>
      <trkpt lat="48.5332" lon="7.18153">
        <ele>727.25258695839</ele>
        <time>2021-07-09T08:19:54.109Z</time>
      </trkpt>
      <trkpt lat="48.53312" lon="7.18094">
        <ele>727.32094081198</ele>
        <time>2021-07-09T08:19:59.405Z</time>
      </trkpt>
      <trkpt lat="48.53296" lon="7.18033">
        <ele>726.90877522819</ele>
        <time>2021-07-09T08:20:04.716Z</time>
      </trkpt>
      <trkpt lat="48.53286" lon="7.17979">
        <ele>727.24012521298</ele>
        <time>2021-07-09T08:20:10.039Z</time>
      </trkpt>
      <trkpt lat="48.53247" lon="7.17866">
        <ele>727.89671521844</ele>
        <time>2021-07-09T08:20:15.391Z</time>
      </trkpt>
      <trkpt lat="48.53199" lon="7.17727">
        <ele>729.9112458552</ele>
        <time>2021-07-09T08:20:20.777Z</time>
      </trkpt>
      <trkpt lat="48.53189" lon="7.17671">
        <ele>732.59525106201</ele>
        <time>2021-07-09T08:20:26.176Z</time>
      </trkpt>
      <trkpt lat="48.53135" lon="7.17526">
        <ele>734.94908372534</ele>
        <time>2021-07-09T08:20:31.612Z</time>
      </trkpt>
      <trkpt lat="48.53104" lon="7.17401">
        <ele>739.10279215187</ele>
        <time>2021-07-09T08:20:37.078Z</time>
      </trkpt>
      <trkpt lat="48.5308" lon="7.17257">
        <ele>745.4234359971</ele>
        <time>2021-07-09T08:20:42.577Z</time>
      </trkpt>
      <trkpt lat="48.5308" lon="7.17257">
        <ele>756.33450147737</ele>
        <time>2021-07-09T08:20:48.076Z</time>
      </trkpt>
      <trkpt lat="48.52992" lon="7.17035">
        <ele>764.96327642679</ele>
        <time>2021-07-09T08:20:53.632Z</time>
      </trkpt>
      <trkpt lat="48.52918" lon="7.16971">
        <ele>771.59420846913</ele>
        <time>2021-07-09T08:20:59.216Z</time>
      </trkpt>
      <trkpt lat="48.52756" lon="7.16849">
        <ele>779.56084378504</ele>
        <time>2021-07-09T08:21:04.861Z</time>
      </trkpt>
      <trkpt lat="48.52772" lon="7.16795">
        <ele>786.02666206144</ele>
        <time>2021-07-09T08:21:10.519Z</time>
      </trkpt>
      <trkpt lat="48.52726" lon="7.16745">
        <ele>792.80337377809</ele>
        <time>2021-07-09T08:21:16.196Z</time>
      </trkpt>
      <trkpt lat="48.52643" lon="7.16691">
        <ele>800.12268685782</ele>
        <time>2021-07-09T08:21:21.903Z</time>
      </trkpt>
      <trkpt lat="48.52527" lon="7.16686">
        <ele>806.97256773236</ele>
        <time>2021-07-09T08:21:27.649Z</time>
      </trkpt>
      <trkpt lat="48.52398" lon="7.16735">
        <ele>814.22623823378</ele>
        <time>2021-07-09T08:21:33.439Z</time>
      </trkpt>
      <trkpt lat="48.52338" lon="7.16772">
        <ele>820.33198262878</ele>
        <time>2021-07-09T08:21:39.251Z</time>
      </trkpt>
      <trkpt lat="48.52215" lon="7.16915">
        <ele>827.05511080793</ele>
        <time>2021-07-09T08:21:45.115Z</time>
      </trkpt>
      <trkpt lat="48.52055" lon="7.1706">
        <ele>833.31755807403</ele>
        <time>2021-07-09T08:21:51.041Z</time>
      </trkpt>
      <trkpt lat="48.51941" lon="7.17127">
        <ele>837.1239923925</ele>
        <time>2021-07-09T08:21:57.008Z</time>
      </trkpt>
      <trkpt lat="48.518" lon="7.17137">
        <ele>840.27564671847</ele>
        <time>2021-07-09T08:22:03.022Z</time>
      </trkpt>
      <trkpt lat="48.51686" lon="7.17097">
        <ele>844.60229688517</ele>
        <time>2021-07-09T08:22:09.075Z</time>
      </trkpt>
      <trkpt lat="48.51591" lon="7.17048">
        <ele>847.80821338795</ele>
        <time>2021-07-09T08:22:15.161Z</time>
      </trkpt>
      <trkpt lat="48.51573" lon="7.16994">
        <ele>852.07066582489</ele>
        <time>2021-07-09T08:22:21.261Z</time>
      </trkpt>
      <trkpt lat="48.5156" lon="7.16789">
        <ele>859.37791679026</ele>
        <time>2021-07-09T08:22:27.406Z</time>
      </trkpt>
      <trkpt lat="48.51551" lon="7.16668">
        <ele>866.0422981515</ele>
        <time>2021-07-09T08:22:33.578Z</time>
      </trkpt>
      <trkpt lat="48.51552" lon="7.16631">
        <ele>871.83498829655</ele>
        <time>2021-07-09T08:22:39.759Z</time>
      </trkpt>
      <trkpt lat="48.51503" lon="7.16769">
        <ele>877.36980932753</ele>
        <time>2021-07-09T08:22:45.974Z</time>
      </trkpt>
      <trkpt lat="48.51407" lon="7.16757">
        <ele>885.77496336801</ele>
        <time>2021-07-09T08:22:52.221Z</time>
      </trkpt>
      <trkpt lat="48.51458" lon="7.16703">
        <ele>892.46788718707</ele>
        <time>2021-07-09T08:22:58.489Z</time>
      </trkpt>
      <trkpt lat="48.5144" lon="7.16688">
        <ele>899.26484357284</ele>
        <time>2021-07-09T08:23:04.764Z</time>
      </trkpt>
      <trkpt lat="48.51456" lon="7.16656">
        <ele>905.32971384537</ele>
        <time>2021-07-09T08:23:11.048Z</time>
      </trkpt>
      <trkpt lat="48.51461" lon="7.1656">
        <ele>911.86285987317</ele>
        <time>2021-07-09T08:23:17.353Z</time>
      </trkpt>
      <trkpt lat="48.51445" lon="7.16555">
        <ele>918.29051607393</ele>
        <time>2021-07-09T08:23:23.664Z</time>
      </trkpt>
      <trkpt lat="48.51439" lon="7.16499">
        <ele>924.26138035797</ele>
        <time>2021-07-09T08:23:29.987Z</time>
      </trkpt>
      <trkpt lat="48.51431" lon="7.16558">
        <ele>930.79590089666</ele>
        <time>2021-07-09T08:23:36.324Z</time>
      </trkpt>
      <trkpt lat="48.51408" lon="7.16478">
        <ele>937.85102636587</ele>
        <time>2021-07-09T08:23:42.680Z</time>
      </trkpt>
      <trkpt lat="48.51393" lon="7.16579">
        <ele>944.83881070241</ele>
        <time>2021-07-09T08:23:49.059Z</time>
      </trkpt>
      <trkpt lat="48.51363" lon="7.16486">
        <ele>953.33135986266</ele>
        <time>2021-07-09T08:23:55.461Z</time>
      </trkpt>
      <trkpt lat="48.51357" lon="7.16562">
        <ele>959.12604321188</ele>
        <time>2021-07-09T08:24:01.880Z</time>
      </trkpt>
      <trkpt lat="48.51353" lon="7.16583">
        <ele>964.2423058072</ele>
        <time>2021-07-09T08:24:08.304Z</time>
      </trkpt>
      <trkpt lat="48.51288" lon="7.1662">
        <ele>970.74773209891</ele>
        <time>2021-07-09T08:24:14.751Z</time>
      </trkpt>
      <trkpt lat="48.51285" lon="7.16615">
        <ele>975.75195661584</ele>
        <time>2021-07-09T08:24:21.199Z</time>
      </trkpt>
      <trkpt lat="48.51319" lon="7.16575">
        <ele>980.62869301567</ele>
        <time>2021-07-09T08:24:27.662Z</time>
      </trkpt>
      <trkpt lat="48.51322" lon="7.16545">
        <ele>985.2969539163</ele>
        <time>2021-07-09T08:24:34.131Z</time>
      </trkpt>
      <trkpt lat="48.51311" lon="7.16532">
        <ele>989.45883080447</ele>
        <time>2021-07-09T08:24:40.605Z</time>
      </trkpt>
      <trkpt lat="48.51303" lon="7.1656">
        <ele>991.99771959692</ele>
        <time>2021-07-09T08:24:47.086Z</time>
      </trkpt>
      <trkpt lat="48.51299" lon="7.16532">
        <ele>995.43473572803</ele>
        <time>2021-07-09T08:24:53.573Z</time>
      </trkpt>
      <trkpt lat="48.51284" lon="7.16516">
        <ele>997.88675468179</ele>
        <time>2021-07-09T08:25:00.066Z</time>
      </trkpt>
      <trkpt lat="48.51276" lon="7.16519">
        <ele>999.34675131825</ele>
        <time>2021-07-09T08:25:06.562Z</time>
      </trkpt>
      <trkpt lat="48.51272" lon="7.1649">
        <ele>1000.5754578177</ele>
        <time>2021-07-09T08:25:13.065Z</time>
      </trkpt>
      <trkpt lat="48.51251" lon="7.16437">
        <ele>1001.2011712824</ele>
        <time>2021-07-09T08:25:19.581Z</time>
      </trkpt>
    </trkseg>
  </trk>
</gpx>